<?xml version="1.0" encoding="UTF-8" standalone="no" ?>
<gpx xmlns="http://www.topografix.com/GPX/1/1" xmlns:xsi="http://www.w3.org/2001/XMLSchema-instance" xsi:schemaLocation="http://www.topografix.com/GPX/1/1 http://www.topografix.com/GPX/1/1/gpx.xsd" version="1.1" creator="VisuGPX - https://www.visugpx.com">
  <metadata>
    <name>Vallée du Cens - END</name>
  </metadata>
  <trk>
    <name><![CDATA[GOTOES Export]]></name>
    <trkseg>
      <trkpt lat="47.24906" lon="-1.57903">
        <ele>10.1</ele>
        <time>2020-06-07T08:30:56Z</time>
      </trkpt>
      <trkpt lat="47.24907" lon="-1.57902">
        <ele>10.2</ele>
        <time>2020-06-07T08:30:57Z</time>
      </trkpt>
      <trkpt lat="47.24908" lon="-1.57902">
        <ele>10.2</ele>
        <time>2020-06-07T08:30:58Z</time>
      </trkpt>
      <trkpt lat="47.24909" lon="-1.57901">
        <ele>10.2</ele>
        <time>2020-06-07T08:30:59Z</time>
      </trkpt>
      <trkpt lat="47.2491" lon="-1.579">
        <ele>10.2</ele>
        <time>2020-06-07T08:31:00Z</time>
      </trkpt>
      <trkpt lat="47.24911" lon="-1.57899">
        <ele>10.2</ele>
        <time>2020-06-07T08:31:01Z</time>
      </trkpt>
      <trkpt lat="47.24912" lon="-1.57898">
        <ele>10.2</ele>
        <time>2020-06-07T08:31:02Z</time>
      </trkpt>
      <trkpt lat="47.24913" lon="-1.57897">
        <ele>10.2</ele>
        <time>2020-06-07T08:31:03Z</time>
      </trkpt>
      <trkpt lat="47.24914" lon="-1.57895">
        <ele>10.2</ele>
        <time>2020-06-07T08:31:04Z</time>
      </trkpt>
      <trkpt lat="47.24915" lon="-1.57894">
        <ele>10.3</ele>
        <time>2020-06-07T08:31:05Z</time>
      </trkpt>
      <trkpt lat="47.24916" lon="-1.57893">
        <ele>10.3</ele>
        <time>2020-06-07T08:31:06Z</time>
      </trkpt>
      <trkpt lat="47.24917" lon="-1.57892">
        <ele>10.3</ele>
        <time>2020-06-07T08:31:07Z</time>
      </trkpt>
      <trkpt lat="47.24918" lon="-1.57891">
        <ele>10.4</ele>
        <time>2020-06-07T08:31:08Z</time>
      </trkpt>
      <trkpt lat="47.24919" lon="-1.5789">
        <ele>10.4</ele>
        <time>2020-06-07T08:31:09Z</time>
      </trkpt>
      <trkpt lat="47.2492" lon="-1.57888">
        <ele>10.5</ele>
        <time>2020-06-07T08:31:10Z</time>
      </trkpt>
      <trkpt lat="47.24921" lon="-1.57887">
        <ele>10.5</ele>
        <time>2020-06-07T08:31:11Z</time>
      </trkpt>
      <trkpt lat="47.24922" lon="-1.57886">
        <ele>10.6</ele>
        <time>2020-06-07T08:31:12Z</time>
      </trkpt>
      <trkpt lat="47.24923" lon="-1.57885">
        <ele>10.6</ele>
        <time>2020-06-07T08:31:13Z</time>
      </trkpt>
      <trkpt lat="47.24924" lon="-1.57884">
        <ele>10.7</ele>
        <time>2020-06-07T08:31:14Z</time>
      </trkpt>
      <trkpt lat="47.24925" lon="-1.57883">
        <ele>10.7</ele>
        <time>2020-06-07T08:31:15Z</time>
      </trkpt>
      <trkpt lat="47.24926" lon="-1.57882">
        <ele>10.7</ele>
        <time>2020-06-07T08:31:16Z</time>
      </trkpt>
      <trkpt lat="47.24927" lon="-1.57881">
        <ele>10.8</ele>
        <time>2020-06-07T08:31:17Z</time>
      </trkpt>
      <trkpt lat="47.24927" lon="-1.57881">
        <ele>10.8</ele>
        <time>2020-06-07T08:31:18Z</time>
      </trkpt>
      <trkpt lat="47.24928" lon="-1.5788">
        <ele>10.9</ele>
        <time>2020-06-07T08:31:19Z</time>
      </trkpt>
      <trkpt lat="47.24929" lon="-1.57879">
        <ele>10.9</ele>
        <time>2020-06-07T08:31:20Z</time>
      </trkpt>
      <trkpt lat="47.2493" lon="-1.57879">
        <ele>10.9</ele>
        <time>2020-06-07T08:31:21Z</time>
      </trkpt>
      <trkpt lat="47.24931" lon="-1.57879">
        <ele>11</ele>
        <time>2020-06-07T08:31:22Z</time>
      </trkpt>
      <trkpt lat="47.24931" lon="-1.57879">
        <ele>11</ele>
        <time>2020-06-07T08:31:23Z</time>
      </trkpt>
      <trkpt lat="47.24932" lon="-1.57879">
        <ele>11</ele>
        <time>2020-06-07T08:31:24Z</time>
      </trkpt>
      <trkpt lat="47.24933" lon="-1.57879">
        <ele>11</ele>
        <time>2020-06-07T08:31:25Z</time>
      </trkpt>
      <trkpt lat="47.24934" lon="-1.57879">
        <ele>11.1</ele>
        <time>2020-06-07T08:31:26Z</time>
      </trkpt>
      <trkpt lat="47.24935" lon="-1.5788">
        <ele>11.1</ele>
        <time>2020-06-07T08:31:27Z</time>
      </trkpt>
      <trkpt lat="47.24935" lon="-1.5788">
        <ele>11.1</ele>
        <time>2020-06-07T08:31:28Z</time>
      </trkpt>
      <trkpt lat="47.24936" lon="-1.57881">
        <ele>11.1</ele>
        <time>2020-06-07T08:31:29Z</time>
      </trkpt>
      <trkpt lat="47.24937" lon="-1.57882">
        <ele>11.1</ele>
        <time>2020-06-07T08:31:30Z</time>
      </trkpt>
      <trkpt lat="47.24937" lon="-1.57883">
        <ele>11.2</ele>
        <time>2020-06-07T08:31:31Z</time>
      </trkpt>
      <trkpt lat="47.24938" lon="-1.57884">
        <ele>11.2</ele>
        <time>2020-06-07T08:31:32Z</time>
      </trkpt>
      <trkpt lat="47.24939" lon="-1.57885">
        <ele>11.2</ele>
        <time>2020-06-07T08:31:33Z</time>
      </trkpt>
      <trkpt lat="47.2494" lon="-1.57886">
        <ele>11.2</ele>
        <time>2020-06-07T08:31:34Z</time>
      </trkpt>
      <trkpt lat="47.2494" lon="-1.57888">
        <ele>11.2</ele>
        <time>2020-06-07T08:31:35Z</time>
      </trkpt>
      <trkpt lat="47.24941" lon="-1.57889">
        <ele>11.2</ele>
        <time>2020-06-07T08:31:36Z</time>
      </trkpt>
      <trkpt lat="47.24941" lon="-1.5789">
        <ele>11.2</ele>
        <time>2020-06-07T08:31:37Z</time>
      </trkpt>
      <trkpt lat="47.24942" lon="-1.57892">
        <ele>11.2</ele>
        <time>2020-06-07T08:31:38Z</time>
      </trkpt>
      <trkpt lat="47.24943" lon="-1.57893">
        <ele>11.2</ele>
        <time>2020-06-07T08:31:39Z</time>
      </trkpt>
      <trkpt lat="47.24943" lon="-1.57894">
        <ele>11.2</ele>
        <time>2020-06-07T08:31:40Z</time>
      </trkpt>
      <trkpt lat="47.24944" lon="-1.57895">
        <ele>11.2</ele>
        <time>2020-06-07T08:31:41Z</time>
      </trkpt>
      <trkpt lat="47.24945" lon="-1.57897">
        <ele>11.3</ele>
        <time>2020-06-07T08:31:42Z</time>
      </trkpt>
      <trkpt lat="47.24945" lon="-1.57898">
        <ele>11.3</ele>
        <time>2020-06-07T08:31:43Z</time>
      </trkpt>
      <trkpt lat="47.24946" lon="-1.57899">
        <ele>11.3</ele>
        <time>2020-06-07T08:31:44Z</time>
      </trkpt>
      <trkpt lat="47.24947" lon="-1.579">
        <ele>11.3</ele>
        <time>2020-06-07T08:31:45Z</time>
      </trkpt>
      <trkpt lat="47.24947" lon="-1.57901">
        <ele>11.3</ele>
        <time>2020-06-07T08:31:46Z</time>
      </trkpt>
      <trkpt lat="47.24948" lon="-1.57902">
        <ele>11.3</ele>
        <time>2020-06-07T08:31:47Z</time>
      </trkpt>
      <trkpt lat="47.24949" lon="-1.57903">
        <ele>11.3</ele>
        <time>2020-06-07T08:31:48Z</time>
      </trkpt>
      <trkpt lat="47.24949" lon="-1.57905">
        <ele>11.3</ele>
        <time>2020-06-07T08:31:49Z</time>
      </trkpt>
      <trkpt lat="47.2495" lon="-1.57906">
        <ele>11.3</ele>
        <time>2020-06-07T08:31:50Z</time>
      </trkpt>
      <trkpt lat="47.2495" lon="-1.57907">
        <ele>11.3</ele>
        <time>2020-06-07T08:31:51Z</time>
      </trkpt>
      <trkpt lat="47.24951" lon="-1.57908">
        <ele>11.3</ele>
        <time>2020-06-07T08:31:52Z</time>
      </trkpt>
      <trkpt lat="47.24951" lon="-1.5791">
        <ele>11.3</ele>
        <time>2020-06-07T08:31:53Z</time>
      </trkpt>
      <trkpt lat="47.24952" lon="-1.57911">
        <ele>11.3</ele>
        <time>2020-06-07T08:31:54Z</time>
      </trkpt>
      <trkpt lat="47.24952" lon="-1.57912">
        <ele>11.3</ele>
        <time>2020-06-07T08:31:55Z</time>
      </trkpt>
      <trkpt lat="47.24952" lon="-1.57914">
        <ele>11.3</ele>
        <time>2020-06-07T08:31:56Z</time>
      </trkpt>
      <trkpt lat="47.24953" lon="-1.57915">
        <ele>11.3</ele>
        <time>2020-06-07T08:31:57Z</time>
      </trkpt>
      <trkpt lat="47.24953" lon="-1.57917">
        <ele>11.3</ele>
        <time>2020-06-07T08:31:58Z</time>
      </trkpt>
      <trkpt lat="47.24953" lon="-1.57918">
        <ele>11.3</ele>
        <time>2020-06-07T08:31:59Z</time>
      </trkpt>
      <trkpt lat="47.24953" lon="-1.5792">
        <ele>11.4</ele>
        <time>2020-06-07T08:32:00Z</time>
      </trkpt>
      <trkpt lat="47.24953" lon="-1.57922">
        <ele>11.4</ele>
        <time>2020-06-07T08:32:01Z</time>
      </trkpt>
      <trkpt lat="47.24953" lon="-1.57923">
        <ele>11.5</ele>
        <time>2020-06-07T08:32:02Z</time>
      </trkpt>
      <trkpt lat="47.24953" lon="-1.57925">
        <ele>11.5</ele>
        <time>2020-06-07T08:32:03Z</time>
      </trkpt>
      <trkpt lat="47.24953" lon="-1.57926">
        <ele>11.5</ele>
        <time>2020-06-07T08:32:04Z</time>
      </trkpt>
      <trkpt lat="47.24954" lon="-1.57928">
        <ele>11.6</ele>
        <time>2020-06-07T08:32:05Z</time>
      </trkpt>
      <trkpt lat="47.24954" lon="-1.57929">
        <ele>11.6</ele>
        <time>2020-06-07T08:32:06Z</time>
      </trkpt>
      <trkpt lat="47.24955" lon="-1.5793">
        <ele>11.7</ele>
        <time>2020-06-07T08:32:07Z</time>
      </trkpt>
      <trkpt lat="47.24955" lon="-1.57931">
        <ele>11.7</ele>
        <time>2020-06-07T08:32:08Z</time>
      </trkpt>
      <trkpt lat="47.24956" lon="-1.57932">
        <ele>11.8</ele>
        <time>2020-06-07T08:32:09Z</time>
      </trkpt>
      <trkpt lat="47.24957" lon="-1.57933">
        <ele>11.8</ele>
        <time>2020-06-07T08:32:10Z</time>
      </trkpt>
      <trkpt lat="47.24958" lon="-1.57934">
        <ele>11.9</ele>
        <time>2020-06-07T08:32:11Z</time>
      </trkpt>
      <trkpt lat="47.24959" lon="-1.57935">
        <ele>11.9</ele>
        <time>2020-06-07T08:32:12Z</time>
      </trkpt>
      <trkpt lat="47.2496" lon="-1.57935">
        <ele>12</ele>
        <time>2020-06-07T08:32:13Z</time>
      </trkpt>
      <trkpt lat="47.2496" lon="-1.57936">
        <ele>12</ele>
        <time>2020-06-07T08:32:14Z</time>
      </trkpt>
      <trkpt lat="47.24961" lon="-1.57937">
        <ele>12.1</ele>
        <time>2020-06-07T08:32:15Z</time>
      </trkpt>
      <trkpt lat="47.24962" lon="-1.57938">
        <ele>12.1</ele>
        <time>2020-06-07T08:32:16Z</time>
      </trkpt>
      <trkpt lat="47.24963" lon="-1.57939">
        <ele>12.2</ele>
        <time>2020-06-07T08:32:17Z</time>
      </trkpt>
      <trkpt lat="47.24963" lon="-1.57939">
        <ele>12.2</ele>
        <time>2020-06-07T08:32:18Z</time>
      </trkpt>
      <trkpt lat="47.24964" lon="-1.5794">
        <ele>12.3</ele>
        <time>2020-06-07T08:32:19Z</time>
      </trkpt>
      <trkpt lat="47.24965" lon="-1.57941">
        <ele>12.3</ele>
        <time>2020-06-07T08:32:20Z</time>
      </trkpt>
      <trkpt lat="47.24966" lon="-1.57941">
        <ele>12.4</ele>
        <time>2020-06-07T08:32:21Z</time>
      </trkpt>
      <trkpt lat="47.24967" lon="-1.57942">
        <ele>12.4</ele>
        <time>2020-06-07T08:32:22Z</time>
      </trkpt>
      <trkpt lat="47.24968" lon="-1.57943">
        <ele>12.5</ele>
        <time>2020-06-07T08:32:23Z</time>
      </trkpt>
      <trkpt lat="47.24969" lon="-1.57944">
        <ele>12.5</ele>
        <time>2020-06-07T08:32:24Z</time>
      </trkpt>
      <trkpt lat="47.24969" lon="-1.57945">
        <ele>12.6</ele>
        <time>2020-06-07T08:32:25Z</time>
      </trkpt>
      <trkpt lat="47.2497" lon="-1.57946">
        <ele>12.6</ele>
        <time>2020-06-07T08:32:26Z</time>
      </trkpt>
      <trkpt lat="47.24971" lon="-1.57947">
        <ele>12.7</ele>
        <time>2020-06-07T08:32:27Z</time>
      </trkpt>
      <trkpt lat="47.24971" lon="-1.57948">
        <ele>12.7</ele>
        <time>2020-06-07T08:32:28Z</time>
      </trkpt>
      <trkpt lat="47.24972" lon="-1.57949">
        <ele>12.8</ele>
        <time>2020-06-07T08:32:29Z</time>
      </trkpt>
      <trkpt lat="47.24973" lon="-1.57951">
        <ele>12.8</ele>
        <time>2020-06-07T08:32:30Z</time>
      </trkpt>
      <trkpt lat="47.24973" lon="-1.57952">
        <ele>12.9</ele>
        <time>2020-06-07T08:32:31Z</time>
      </trkpt>
      <trkpt lat="47.24974" lon="-1.57953">
        <ele>12.9</ele>
        <time>2020-06-07T08:32:32Z</time>
      </trkpt>
      <trkpt lat="47.24974" lon="-1.57954">
        <ele>13</ele>
        <time>2020-06-07T08:32:33Z</time>
      </trkpt>
      <trkpt lat="47.24975" lon="-1.57955">
        <ele>13</ele>
        <time>2020-06-07T08:32:34Z</time>
      </trkpt>
      <trkpt lat="47.24976" lon="-1.57955">
        <ele>13</ele>
        <time>2020-06-07T08:32:35Z</time>
      </trkpt>
      <trkpt lat="47.24976" lon="-1.57956">
        <ele>13.1</ele>
        <time>2020-06-07T08:32:36Z</time>
      </trkpt>
      <trkpt lat="47.24977" lon="-1.57957">
        <ele>13.1</ele>
        <time>2020-06-07T08:32:37Z</time>
      </trkpt>
      <trkpt lat="47.24977" lon="-1.57958">
        <ele>13.2</ele>
        <time>2020-06-07T08:32:38Z</time>
      </trkpt>
      <trkpt lat="47.24978" lon="-1.57959">
        <ele>13.2</ele>
        <time>2020-06-07T08:32:39Z</time>
      </trkpt>
      <trkpt lat="47.24979" lon="-1.5796">
        <ele>13.3</ele>
        <time>2020-06-07T08:32:40Z</time>
      </trkpt>
      <trkpt lat="47.2498" lon="-1.57961">
        <ele>13.3</ele>
        <time>2020-06-07T08:32:41Z</time>
      </trkpt>
      <trkpt lat="47.24981" lon="-1.57962">
        <ele>13.4</ele>
        <time>2020-06-07T08:32:42Z</time>
      </trkpt>
      <trkpt lat="47.24981" lon="-1.57963">
        <ele>13.4</ele>
        <time>2020-06-07T08:32:43Z</time>
      </trkpt>
      <trkpt lat="47.24982" lon="-1.57964">
        <ele>13.5</ele>
        <time>2020-06-07T08:32:44Z</time>
      </trkpt>
      <trkpt lat="47.24983" lon="-1.57965">
        <ele>13.5</ele>
        <time>2020-06-07T08:32:45Z</time>
      </trkpt>
      <trkpt lat="47.24983" lon="-1.57966">
        <ele>13.6</ele>
        <time>2020-06-07T08:32:46Z</time>
      </trkpt>
      <trkpt lat="47.24984" lon="-1.57967">
        <ele>13.6</ele>
        <time>2020-06-07T08:32:47Z</time>
      </trkpt>
      <trkpt lat="47.24985" lon="-1.57968">
        <ele>13.7</ele>
        <time>2020-06-07T08:32:48Z</time>
      </trkpt>
      <trkpt lat="47.24986" lon="-1.57969">
        <ele>13.8</ele>
        <time>2020-06-07T08:32:49Z</time>
      </trkpt>
      <trkpt lat="47.24987" lon="-1.57971">
        <ele>13.8</ele>
        <time>2020-06-07T08:32:50Z</time>
      </trkpt>
      <trkpt lat="47.24988" lon="-1.57972">
        <ele>13.9</ele>
        <time>2020-06-07T08:32:51Z</time>
      </trkpt>
      <trkpt lat="47.24989" lon="-1.57973">
        <ele>14</ele>
        <time>2020-06-07T08:32:52Z</time>
      </trkpt>
      <trkpt lat="47.24991" lon="-1.57975">
        <ele>14.1</ele>
        <time>2020-06-07T08:32:53Z</time>
      </trkpt>
      <trkpt lat="47.24992" lon="-1.57976">
        <ele>14.1</ele>
        <time>2020-06-07T08:32:54Z</time>
      </trkpt>
      <trkpt lat="47.24993" lon="-1.57977">
        <ele>14.2</ele>
        <time>2020-06-07T08:32:55Z</time>
      </trkpt>
      <trkpt lat="47.24994" lon="-1.57978">
        <ele>14.3</ele>
        <time>2020-06-07T08:32:56Z</time>
      </trkpt>
      <trkpt lat="47.24995" lon="-1.57979">
        <ele>14.3</ele>
        <time>2020-06-07T08:32:57Z</time>
      </trkpt>
      <trkpt lat="47.24996" lon="-1.57981">
        <ele>14.4</ele>
        <time>2020-06-07T08:32:58Z</time>
      </trkpt>
      <trkpt lat="47.24997" lon="-1.57982">
        <ele>14.5</ele>
        <time>2020-06-07T08:32:59Z</time>
      </trkpt>
      <trkpt lat="47.24998" lon="-1.57983">
        <ele>14.5</ele>
        <time>2020-06-07T08:33:00Z</time>
      </trkpt>
      <trkpt lat="47.24999" lon="-1.57985">
        <ele>14.6</ele>
        <time>2020-06-07T08:33:01Z</time>
      </trkpt>
      <trkpt lat="47.25" lon="-1.57986">
        <ele>14.7</ele>
        <time>2020-06-07T08:33:02Z</time>
      </trkpt>
      <trkpt lat="47.25001" lon="-1.57987">
        <ele>14.8</ele>
        <time>2020-06-07T08:33:03Z</time>
      </trkpt>
      <trkpt lat="47.25002" lon="-1.57989">
        <ele>14.8</ele>
        <time>2020-06-07T08:33:04Z</time>
      </trkpt>
      <trkpt lat="47.25003" lon="-1.5799">
        <ele>14.9</ele>
        <time>2020-06-07T08:33:05Z</time>
      </trkpt>
      <trkpt lat="47.25004" lon="-1.57992">
        <ele>15</ele>
        <time>2020-06-07T08:33:06Z</time>
      </trkpt>
      <trkpt lat="47.25005" lon="-1.57993">
        <ele>15</ele>
        <time>2020-06-07T08:33:07Z</time>
      </trkpt>
      <trkpt lat="47.25006" lon="-1.57994">
        <ele>15.1</ele>
        <time>2020-06-07T08:33:08Z</time>
      </trkpt>
      <trkpt lat="47.25006" lon="-1.57996">
        <ele>15.2</ele>
        <time>2020-06-07T08:33:09Z</time>
      </trkpt>
      <trkpt lat="47.25007" lon="-1.57997">
        <ele>15.2</ele>
        <time>2020-06-07T08:33:10Z</time>
      </trkpt>
      <trkpt lat="47.25008" lon="-1.57999">
        <ele>15.3</ele>
        <time>2020-06-07T08:33:11Z</time>
      </trkpt>
      <trkpt lat="47.25009" lon="-1.58">
        <ele>15.3</ele>
        <time>2020-06-07T08:33:12Z</time>
      </trkpt>
      <trkpt lat="47.2501" lon="-1.58001">
        <ele>15.3</ele>
        <time>2020-06-07T08:33:13Z</time>
      </trkpt>
      <trkpt lat="47.25011" lon="-1.58003">
        <ele>15.4</ele>
        <time>2020-06-07T08:33:14Z</time>
      </trkpt>
      <trkpt lat="47.25011" lon="-1.58004">
        <ele>15.4</ele>
        <time>2020-06-07T08:33:15Z</time>
      </trkpt>
      <trkpt lat="47.25012" lon="-1.58005">
        <ele>15.4</ele>
        <time>2020-06-07T08:33:16Z</time>
      </trkpt>
      <trkpt lat="47.25013" lon="-1.58006">
        <ele>15.4</ele>
        <time>2020-06-07T08:33:17Z</time>
      </trkpt>
      <trkpt lat="47.25014" lon="-1.58007">
        <ele>15.4</ele>
        <time>2020-06-07T08:33:18Z</time>
      </trkpt>
      <trkpt lat="47.25015" lon="-1.58008">
        <ele>15.5</ele>
        <time>2020-06-07T08:33:19Z</time>
      </trkpt>
      <trkpt lat="47.25016" lon="-1.58009">
        <ele>15.5</ele>
        <time>2020-06-07T08:33:20Z</time>
      </trkpt>
      <trkpt lat="47.25017" lon="-1.5801">
        <ele>15.5</ele>
        <time>2020-06-07T08:33:21Z</time>
      </trkpt>
      <trkpt lat="47.25018" lon="-1.58011">
        <ele>15.5</ele>
        <time>2020-06-07T08:33:22Z</time>
      </trkpt>
      <trkpt lat="47.25018" lon="-1.58012">
        <ele>15.5</ele>
        <time>2020-06-07T08:33:23Z</time>
      </trkpt>
      <trkpt lat="47.25019" lon="-1.58013">
        <ele>15.5</ele>
        <time>2020-06-07T08:33:24Z</time>
      </trkpt>
      <trkpt lat="47.2502" lon="-1.58014">
        <ele>15.6</ele>
        <time>2020-06-07T08:33:25Z</time>
      </trkpt>
      <trkpt lat="47.25021" lon="-1.58014">
        <ele>15.6</ele>
        <time>2020-06-07T08:33:26Z</time>
      </trkpt>
      <trkpt lat="47.25022" lon="-1.58015">
        <ele>15.6</ele>
        <time>2020-06-07T08:33:27Z</time>
      </trkpt>
      <trkpt lat="47.25023" lon="-1.58016">
        <ele>15.6</ele>
        <time>2020-06-07T08:33:28Z</time>
      </trkpt>
      <trkpt lat="47.25023" lon="-1.58017">
        <ele>15.6</ele>
        <time>2020-06-07T08:33:29Z</time>
      </trkpt>
      <trkpt lat="47.25024" lon="-1.58017">
        <ele>15.6</ele>
        <time>2020-06-07T08:33:30Z</time>
      </trkpt>
      <trkpt lat="47.25025" lon="-1.58018">
        <ele>15.6</ele>
        <time>2020-06-07T08:33:31Z</time>
      </trkpt>
      <trkpt lat="47.25026" lon="-1.58019">
        <ele>15.7</ele>
        <time>2020-06-07T08:33:32Z</time>
      </trkpt>
      <trkpt lat="47.25027" lon="-1.58019">
        <ele>15.7</ele>
        <time>2020-06-07T08:33:33Z</time>
      </trkpt>
      <trkpt lat="47.25028" lon="-1.5802">
        <ele>15.7</ele>
        <time>2020-06-07T08:33:34Z</time>
      </trkpt>
      <trkpt lat="47.25029" lon="-1.58021">
        <ele>15.7</ele>
        <time>2020-06-07T08:33:35Z</time>
      </trkpt>
      <trkpt lat="47.2503" lon="-1.58022">
        <ele>15.7</ele>
        <time>2020-06-07T08:33:36Z</time>
      </trkpt>
      <trkpt lat="47.25031" lon="-1.58022">
        <ele>15.7</ele>
        <time>2020-06-07T08:33:37Z</time>
      </trkpt>
      <trkpt lat="47.25032" lon="-1.58023">
        <ele>15.7</ele>
        <time>2020-06-07T08:33:38Z</time>
      </trkpt>
      <trkpt lat="47.25033" lon="-1.58024">
        <ele>15.7</ele>
        <time>2020-06-07T08:33:39Z</time>
      </trkpt>
      <trkpt lat="47.25034" lon="-1.58025">
        <ele>15.7</ele>
        <time>2020-06-07T08:33:40Z</time>
      </trkpt>
      <trkpt lat="47.25035" lon="-1.58025">
        <ele>15.7</ele>
        <time>2020-06-07T08:33:41Z</time>
      </trkpt>
      <trkpt lat="47.25036" lon="-1.58026">
        <ele>15.8</ele>
        <time>2020-06-07T08:33:42Z</time>
      </trkpt>
      <trkpt lat="47.25037" lon="-1.58027">
        <ele>15.8</ele>
        <time>2020-06-07T08:33:43Z</time>
      </trkpt>
      <trkpt lat="47.25038" lon="-1.58027">
        <ele>15.8</ele>
        <time>2020-06-07T08:33:44Z</time>
      </trkpt>
      <trkpt lat="47.25039" lon="-1.58028">
        <ele>15.8</ele>
        <time>2020-06-07T08:33:45Z</time>
      </trkpt>
      <trkpt lat="47.2504" lon="-1.58028">
        <ele>15.8</ele>
        <time>2020-06-07T08:33:46Z</time>
      </trkpt>
      <trkpt lat="47.25041" lon="-1.58029">
        <ele>15.8</ele>
        <time>2020-06-07T08:33:47Z</time>
      </trkpt>
      <trkpt lat="47.25042" lon="-1.58029">
        <ele>15.8</ele>
        <time>2020-06-07T08:33:48Z</time>
      </trkpt>
      <trkpt lat="47.25043" lon="-1.5803">
        <ele>15.8</ele>
        <time>2020-06-07T08:33:49Z</time>
      </trkpt>
      <trkpt lat="47.25043" lon="-1.5803">
        <ele>15.8</ele>
        <time>2020-06-07T08:33:50Z</time>
      </trkpt>
      <trkpt lat="47.25044" lon="-1.5803">
        <ele>15.8</ele>
        <time>2020-06-07T08:33:51Z</time>
      </trkpt>
      <trkpt lat="47.25045" lon="-1.58031">
        <ele>15.8</ele>
        <time>2020-06-07T08:33:52Z</time>
      </trkpt>
      <trkpt lat="47.25046" lon="-1.58031">
        <ele>15.8</ele>
        <time>2020-06-07T08:33:53Z</time>
      </trkpt>
      <trkpt lat="47.25047" lon="-1.58032">
        <ele>15.8</ele>
        <time>2020-06-07T08:33:54Z</time>
      </trkpt>
      <trkpt lat="47.25048" lon="-1.58032">
        <ele>15.9</ele>
        <time>2020-06-07T08:33:55Z</time>
      </trkpt>
      <trkpt lat="47.25049" lon="-1.58032">
        <ele>15.9</ele>
        <time>2020-06-07T08:33:56Z</time>
      </trkpt>
      <trkpt lat="47.2505" lon="-1.58033">
        <ele>15.9</ele>
        <time>2020-06-07T08:33:57Z</time>
      </trkpt>
      <trkpt lat="47.25051" lon="-1.58033">
        <ele>15.9</ele>
        <time>2020-06-07T08:33:58Z</time>
      </trkpt>
      <trkpt lat="47.25052" lon="-1.58033">
        <ele>15.9</ele>
        <time>2020-06-07T08:33:59Z</time>
      </trkpt>
      <trkpt lat="47.25053" lon="-1.58034">
        <ele>15.9</ele>
        <time>2020-06-07T08:34:00Z</time>
      </trkpt>
      <trkpt lat="47.25054" lon="-1.58034">
        <ele>15.9</ele>
        <time>2020-06-07T08:34:01Z</time>
      </trkpt>
      <trkpt lat="47.25055" lon="-1.58035">
        <ele>15.9</ele>
        <time>2020-06-07T08:34:02Z</time>
      </trkpt>
      <trkpt lat="47.25056" lon="-1.58035">
        <ele>15.9</ele>
        <time>2020-06-07T08:34:03Z</time>
      </trkpt>
      <trkpt lat="47.25057" lon="-1.58036">
        <ele>15.9</ele>
        <time>2020-06-07T08:34:04Z</time>
      </trkpt>
      <trkpt lat="47.25059" lon="-1.58037">
        <ele>15.9</ele>
        <time>2020-06-07T08:34:05Z</time>
      </trkpt>
      <trkpt lat="47.2506" lon="-1.58037">
        <ele>15.9</ele>
        <time>2020-06-07T08:34:06Z</time>
      </trkpt>
      <trkpt lat="47.25061" lon="-1.58038">
        <ele>15.9</ele>
        <time>2020-06-07T08:34:07Z</time>
      </trkpt>
      <trkpt lat="47.25062" lon="-1.58039">
        <ele>15.8</ele>
        <time>2020-06-07T08:34:08Z</time>
      </trkpt>
      <trkpt lat="47.25063" lon="-1.5804">
        <ele>15.8</ele>
        <time>2020-06-07T08:34:09Z</time>
      </trkpt>
      <trkpt lat="47.25064" lon="-1.5804">
        <ele>15.8</ele>
        <time>2020-06-07T08:34:10Z</time>
      </trkpt>
      <trkpt lat="47.25065" lon="-1.58041">
        <ele>15.8</ele>
        <time>2020-06-07T08:34:11Z</time>
      </trkpt>
      <trkpt lat="47.25066" lon="-1.58042">
        <ele>15.8</ele>
        <time>2020-06-07T08:34:12Z</time>
      </trkpt>
      <trkpt lat="47.25067" lon="-1.58043">
        <ele>15.7</ele>
        <time>2020-06-07T08:34:13Z</time>
      </trkpt>
      <trkpt lat="47.25068" lon="-1.58044">
        <ele>15.7</ele>
        <time>2020-06-07T08:34:14Z</time>
      </trkpt>
      <trkpt lat="47.25069" lon="-1.58045">
        <ele>15.7</ele>
        <time>2020-06-07T08:34:15Z</time>
      </trkpt>
      <trkpt lat="47.2507" lon="-1.58046">
        <ele>15.7</ele>
        <time>2020-06-07T08:34:16Z</time>
      </trkpt>
      <trkpt lat="47.2507" lon="-1.58047">
        <ele>15.6</ele>
        <time>2020-06-07T08:34:17Z</time>
      </trkpt>
      <trkpt lat="47.25071" lon="-1.58048">
        <ele>15.6</ele>
        <time>2020-06-07T08:34:18Z</time>
      </trkpt>
      <trkpt lat="47.25072" lon="-1.58049">
        <ele>15.6</ele>
        <time>2020-06-07T08:34:19Z</time>
      </trkpt>
      <trkpt lat="47.25073" lon="-1.5805">
        <ele>15.5</ele>
        <time>2020-06-07T08:34:20Z</time>
      </trkpt>
      <trkpt lat="47.25073" lon="-1.58051">
        <ele>15.5</ele>
        <time>2020-06-07T08:34:21Z</time>
      </trkpt>
      <trkpt lat="47.25074" lon="-1.58052">
        <ele>15.4</ele>
        <time>2020-06-07T08:34:22Z</time>
      </trkpt>
      <trkpt lat="47.25074" lon="-1.58054">
        <ele>15.4</ele>
        <time>2020-06-07T08:34:23Z</time>
      </trkpt>
      <trkpt lat="47.25075" lon="-1.58055">
        <ele>15.3</ele>
        <time>2020-06-07T08:34:24Z</time>
      </trkpt>
      <trkpt lat="47.25075" lon="-1.58057">
        <ele>15.2</ele>
        <time>2020-06-07T08:34:25Z</time>
      </trkpt>
      <trkpt lat="47.25076" lon="-1.58058">
        <ele>15.2</ele>
        <time>2020-06-07T08:34:26Z</time>
      </trkpt>
      <trkpt lat="47.25077" lon="-1.5806">
        <ele>15.1</ele>
        <time>2020-06-07T08:34:27Z</time>
      </trkpt>
      <trkpt lat="47.25077" lon="-1.58061">
        <ele>15.1</ele>
        <time>2020-06-07T08:34:28Z</time>
      </trkpt>
      <trkpt lat="47.25078" lon="-1.58062">
        <ele>15</ele>
        <time>2020-06-07T08:34:29Z</time>
      </trkpt>
      <trkpt lat="47.25079" lon="-1.58064">
        <ele>15</ele>
        <time>2020-06-07T08:34:30Z</time>
      </trkpt>
      <trkpt lat="47.2508" lon="-1.58065">
        <ele>14.9</ele>
        <time>2020-06-07T08:34:31Z</time>
      </trkpt>
      <trkpt lat="47.2508" lon="-1.58066">
        <ele>14.8</ele>
        <time>2020-06-07T08:34:32Z</time>
      </trkpt>
      <trkpt lat="47.25081" lon="-1.58067">
        <ele>14.8</ele>
        <time>2020-06-07T08:34:33Z</time>
      </trkpt>
      <trkpt lat="47.25082" lon="-1.58069">
        <ele>14.7</ele>
        <time>2020-06-07T08:34:34Z</time>
      </trkpt>
      <trkpt lat="47.25082" lon="-1.5807">
        <ele>14.6</ele>
        <time>2020-06-07T08:34:35Z</time>
      </trkpt>
      <trkpt lat="47.25083" lon="-1.58072">
        <ele>14.6</ele>
        <time>2020-06-07T08:34:36Z</time>
      </trkpt>
      <trkpt lat="47.25083" lon="-1.58073">
        <ele>14.5</ele>
        <time>2020-06-07T08:34:37Z</time>
      </trkpt>
      <trkpt lat="47.25084" lon="-1.58075">
        <ele>14.5</ele>
        <time>2020-06-07T08:34:38Z</time>
      </trkpt>
      <trkpt lat="47.25084" lon="-1.58076">
        <ele>14.4</ele>
        <time>2020-06-07T08:34:39Z</time>
      </trkpt>
      <trkpt lat="47.25085" lon="-1.58078">
        <ele>14.4</ele>
        <time>2020-06-07T08:34:40Z</time>
      </trkpt>
      <trkpt lat="47.25085" lon="-1.58079">
        <ele>14.3</ele>
        <time>2020-06-07T08:34:41Z</time>
      </trkpt>
      <trkpt lat="47.25085" lon="-1.58081">
        <ele>14.3</ele>
        <time>2020-06-07T08:34:42Z</time>
      </trkpt>
      <trkpt lat="47.25086" lon="-1.58083">
        <ele>14.2</ele>
        <time>2020-06-07T08:34:43Z</time>
      </trkpt>
      <trkpt lat="47.25086" lon="-1.58084">
        <ele>14.2</ele>
        <time>2020-06-07T08:34:44Z</time>
      </trkpt>
      <trkpt lat="47.25086" lon="-1.58086">
        <ele>14.2</ele>
        <time>2020-06-07T08:34:45Z</time>
      </trkpt>
      <trkpt lat="47.25086" lon="-1.58088">
        <ele>14.2</ele>
        <time>2020-06-07T08:34:46Z</time>
      </trkpt>
      <trkpt lat="47.25086" lon="-1.58089">
        <ele>14.2</ele>
        <time>2020-06-07T08:34:47Z</time>
      </trkpt>
      <trkpt lat="47.25086" lon="-1.58091">
        <ele>14.1</ele>
        <time>2020-06-07T08:34:48Z</time>
      </trkpt>
      <trkpt lat="47.25086" lon="-1.58093">
        <ele>14.1</ele>
        <time>2020-06-07T08:34:49Z</time>
      </trkpt>
      <trkpt lat="47.25086" lon="-1.58094">
        <ele>14.1</ele>
        <time>2020-06-07T08:34:50Z</time>
      </trkpt>
      <trkpt lat="47.25086" lon="-1.58096">
        <ele>14.1</ele>
        <time>2020-06-07T08:34:51Z</time>
      </trkpt>
      <trkpt lat="47.25086" lon="-1.58098">
        <ele>14</ele>
        <time>2020-06-07T08:34:52Z</time>
      </trkpt>
      <trkpt lat="47.25086" lon="-1.58099">
        <ele>14</ele>
        <time>2020-06-07T08:34:53Z</time>
      </trkpt>
      <trkpt lat="47.25085" lon="-1.58101">
        <ele>14</ele>
        <time>2020-06-07T08:34:54Z</time>
      </trkpt>
      <trkpt lat="47.25085" lon="-1.58103">
        <ele>13.9</ele>
        <time>2020-06-07T08:34:55Z</time>
      </trkpt>
      <trkpt lat="47.25085" lon="-1.58104">
        <ele>13.9</ele>
        <time>2020-06-07T08:34:56Z</time>
      </trkpt>
      <trkpt lat="47.25085" lon="-1.58106">
        <ele>13.9</ele>
        <time>2020-06-07T08:34:57Z</time>
      </trkpt>
      <trkpt lat="47.25085" lon="-1.58107">
        <ele>13.8</ele>
        <time>2020-06-07T08:34:58Z</time>
      </trkpt>
      <trkpt lat="47.25084" lon="-1.58109">
        <ele>13.8</ele>
        <time>2020-06-07T08:34:59Z</time>
      </trkpt>
      <trkpt lat="47.25084" lon="-1.58111">
        <ele>13.7</ele>
        <time>2020-06-07T08:35:00Z</time>
      </trkpt>
      <trkpt lat="47.25084" lon="-1.58112">
        <ele>13.7</ele>
        <time>2020-06-07T08:35:01Z</time>
      </trkpt>
      <trkpt lat="47.25084" lon="-1.58114">
        <ele>13.7</ele>
        <time>2020-06-07T08:35:02Z</time>
      </trkpt>
      <trkpt lat="47.25084" lon="-1.58115">
        <ele>13.6</ele>
        <time>2020-06-07T08:35:03Z</time>
      </trkpt>
      <trkpt lat="47.25083" lon="-1.58117">
        <ele>13.6</ele>
        <time>2020-06-07T08:35:04Z</time>
      </trkpt>
      <trkpt lat="47.25083" lon="-1.58118">
        <ele>13.6</ele>
        <time>2020-06-07T08:35:05Z</time>
      </trkpt>
      <trkpt lat="47.25083" lon="-1.5812">
        <ele>13.6</ele>
        <time>2020-06-07T08:35:06Z</time>
      </trkpt>
      <trkpt lat="47.25083" lon="-1.58121">
        <ele>13.6</ele>
        <time>2020-06-07T08:35:07Z</time>
      </trkpt>
      <trkpt lat="47.25082" lon="-1.58123">
        <ele>13.5</ele>
        <time>2020-06-07T08:35:08Z</time>
      </trkpt>
      <trkpt lat="47.25082" lon="-1.58124">
        <ele>13.5</ele>
        <time>2020-06-07T08:35:09Z</time>
      </trkpt>
      <trkpt lat="47.25082" lon="-1.58126">
        <ele>13.5</ele>
        <time>2020-06-07T08:35:10Z</time>
      </trkpt>
      <trkpt lat="47.25082" lon="-1.58127">
        <ele>13.5</ele>
        <time>2020-06-07T08:35:11Z</time>
      </trkpt>
      <trkpt lat="47.25082" lon="-1.58129">
        <ele>13.5</ele>
        <time>2020-06-07T08:35:12Z</time>
      </trkpt>
      <trkpt lat="47.25082" lon="-1.5813">
        <ele>13.5</ele>
        <time>2020-06-07T08:35:13Z</time>
      </trkpt>
      <trkpt lat="47.25082" lon="-1.58132">
        <ele>13.5</ele>
        <time>2020-06-07T08:35:14Z</time>
      </trkpt>
      <trkpt lat="47.25082" lon="-1.58133">
        <ele>13.4</ele>
        <time>2020-06-07T08:35:15Z</time>
      </trkpt>
      <trkpt lat="47.25082" lon="-1.58135">
        <ele>13.4</ele>
        <time>2020-06-07T08:35:16Z</time>
      </trkpt>
      <trkpt lat="47.25082" lon="-1.58136">
        <ele>13.4</ele>
        <time>2020-06-07T08:35:17Z</time>
      </trkpt>
      <trkpt lat="47.25082" lon="-1.58138">
        <ele>13.4</ele>
        <time>2020-06-07T08:35:18Z</time>
      </trkpt>
      <trkpt lat="47.25082" lon="-1.58139">
        <ele>13.4</ele>
        <time>2020-06-07T08:35:19Z</time>
      </trkpt>
      <trkpt lat="47.25082" lon="-1.58141">
        <ele>13.3</ele>
        <time>2020-06-07T08:35:20Z</time>
      </trkpt>
      <trkpt lat="47.25082" lon="-1.58143">
        <ele>13.3</ele>
        <time>2020-06-07T08:35:21Z</time>
      </trkpt>
      <trkpt lat="47.25083" lon="-1.58144">
        <ele>13.3</ele>
        <time>2020-06-07T08:35:22Z</time>
      </trkpt>
      <trkpt lat="47.25083" lon="-1.58146">
        <ele>13.3</ele>
        <time>2020-06-07T08:35:23Z</time>
      </trkpt>
      <trkpt lat="47.25083" lon="-1.58148">
        <ele>13.2</ele>
        <time>2020-06-07T08:35:24Z</time>
      </trkpt>
      <trkpt lat="47.25083" lon="-1.58149">
        <ele>13.2</ele>
        <time>2020-06-07T08:35:25Z</time>
      </trkpt>
      <trkpt lat="47.25084" lon="-1.58151">
        <ele>13.2</ele>
        <time>2020-06-07T08:35:26Z</time>
      </trkpt>
      <trkpt lat="47.25084" lon="-1.58153">
        <ele>13.2</ele>
        <time>2020-06-07T08:35:27Z</time>
      </trkpt>
      <trkpt lat="47.25084" lon="-1.58154">
        <ele>13.2</ele>
        <time>2020-06-07T08:35:28Z</time>
      </trkpt>
      <trkpt lat="47.25085" lon="-1.58156">
        <ele>13.2</ele>
        <time>2020-06-07T08:35:29Z</time>
      </trkpt>
      <trkpt lat="47.25085" lon="-1.58158">
        <ele>13.2</ele>
        <time>2020-06-07T08:35:30Z</time>
      </trkpt>
      <trkpt lat="47.25085" lon="-1.58159">
        <ele>13.2</ele>
        <time>2020-06-07T08:35:31Z</time>
      </trkpt>
      <trkpt lat="47.25085" lon="-1.58161">
        <ele>13.2</ele>
        <time>2020-06-07T08:35:32Z</time>
      </trkpt>
      <trkpt lat="47.25086" lon="-1.58163">
        <ele>13.2</ele>
        <time>2020-06-07T08:35:33Z</time>
      </trkpt>
      <trkpt lat="47.25086" lon="-1.58164">
        <ele>13.2</ele>
        <time>2020-06-07T08:35:34Z</time>
      </trkpt>
      <trkpt lat="47.25086" lon="-1.58166">
        <ele>13.2</ele>
        <time>2020-06-07T08:35:35Z</time>
      </trkpt>
      <trkpt lat="47.25087" lon="-1.58167">
        <ele>13.3</ele>
        <time>2020-06-07T08:35:36Z</time>
      </trkpt>
      <trkpt lat="47.25087" lon="-1.58169">
        <ele>13.3</ele>
        <time>2020-06-07T08:35:37Z</time>
      </trkpt>
      <trkpt lat="47.25087" lon="-1.58171">
        <ele>13.4</ele>
        <time>2020-06-07T08:35:38Z</time>
      </trkpt>
      <trkpt lat="47.25088" lon="-1.58172">
        <ele>13.4</ele>
        <time>2020-06-07T08:35:39Z</time>
      </trkpt>
      <trkpt lat="47.25088" lon="-1.58174">
        <ele>13.5</ele>
        <time>2020-06-07T08:35:40Z</time>
      </trkpt>
      <trkpt lat="47.25088" lon="-1.58176">
        <ele>13.6</ele>
        <time>2020-06-07T08:35:41Z</time>
      </trkpt>
      <trkpt lat="47.25089" lon="-1.58177">
        <ele>13.6</ele>
        <time>2020-06-07T08:35:42Z</time>
      </trkpt>
      <trkpt lat="47.25089" lon="-1.58179">
        <ele>13.7</ele>
        <time>2020-06-07T08:35:43Z</time>
      </trkpt>
      <trkpt lat="47.2509" lon="-1.58181">
        <ele>13.8</ele>
        <time>2020-06-07T08:35:44Z</time>
      </trkpt>
      <trkpt lat="47.2509" lon="-1.58182">
        <ele>13.8</ele>
        <time>2020-06-07T08:35:45Z</time>
      </trkpt>
      <trkpt lat="47.2509" lon="-1.58183">
        <ele>13.9</ele>
        <time>2020-06-07T08:35:46Z</time>
      </trkpt>
      <trkpt lat="47.2509" lon="-1.58184">
        <ele>13.9</ele>
        <time>2020-06-07T08:35:47Z</time>
      </trkpt>
      <trkpt lat="47.2509" lon="-1.58184">
        <ele>13.9</ele>
        <time>2020-06-07T08:35:48Z</time>
      </trkpt>
      <trkpt lat="47.2509" lon="-1.58184">
        <ele>13.9</ele>
        <time>2020-06-07T08:35:49Z</time>
      </trkpt>
      <trkpt lat="47.25091" lon="-1.58185">
        <ele>13.9</ele>
        <time>2020-06-07T08:35:50Z</time>
      </trkpt>
      <trkpt lat="47.25091" lon="-1.58185">
        <ele>14</ele>
        <time>2020-06-07T08:35:51Z</time>
      </trkpt>
      <trkpt lat="47.25091" lon="-1.58187">
        <ele>14</ele>
        <time>2020-06-07T08:35:52Z</time>
      </trkpt>
      <trkpt lat="47.25092" lon="-1.58188">
        <ele>14.1</ele>
        <time>2020-06-07T08:35:53Z</time>
      </trkpt>
      <trkpt lat="47.25093" lon="-1.58189">
        <ele>14.2</ele>
        <time>2020-06-07T08:35:54Z</time>
      </trkpt>
      <trkpt lat="47.25093" lon="-1.58191">
        <ele>14.3</ele>
        <time>2020-06-07T08:35:55Z</time>
      </trkpt>
      <trkpt lat="47.25094" lon="-1.58193">
        <ele>14.4</ele>
        <time>2020-06-07T08:35:56Z</time>
      </trkpt>
      <trkpt lat="47.25095" lon="-1.58195">
        <ele>14.5</ele>
        <time>2020-06-07T08:35:57Z</time>
      </trkpt>
      <trkpt lat="47.25096" lon="-1.58197">
        <ele>14.5</ele>
        <time>2020-06-07T08:35:58Z</time>
      </trkpt>
      <trkpt lat="47.25096" lon="-1.58198">
        <ele>14.6</ele>
        <time>2020-06-07T08:35:59Z</time>
      </trkpt>
      <trkpt lat="47.25097" lon="-1.582">
        <ele>14.7</ele>
        <time>2020-06-07T08:36:00Z</time>
      </trkpt>
      <trkpt lat="47.25098" lon="-1.58202">
        <ele>14.8</ele>
        <time>2020-06-07T08:36:01Z</time>
      </trkpt>
      <trkpt lat="47.25098" lon="-1.58204">
        <ele>14.9</ele>
        <time>2020-06-07T08:36:02Z</time>
      </trkpt>
      <trkpt lat="47.25099" lon="-1.58205">
        <ele>15</ele>
        <time>2020-06-07T08:36:03Z</time>
      </trkpt>
      <trkpt lat="47.25099" lon="-1.58207">
        <ele>15</ele>
        <time>2020-06-07T08:36:04Z</time>
      </trkpt>
      <trkpt lat="47.251" lon="-1.58208">
        <ele>15.1</ele>
        <time>2020-06-07T08:36:05Z</time>
      </trkpt>
      <trkpt lat="47.251" lon="-1.5821">
        <ele>15.1</ele>
        <time>2020-06-07T08:36:06Z</time>
      </trkpt>
      <trkpt lat="47.25101" lon="-1.58211">
        <ele>15.2</ele>
        <time>2020-06-07T08:36:07Z</time>
      </trkpt>
      <trkpt lat="47.25101" lon="-1.58213">
        <ele>15.2</ele>
        <time>2020-06-07T08:36:08Z</time>
      </trkpt>
      <trkpt lat="47.25101" lon="-1.58214">
        <ele>15.3</ele>
        <time>2020-06-07T08:36:09Z</time>
      </trkpt>
      <trkpt lat="47.25102" lon="-1.58215">
        <ele>15.4</ele>
        <time>2020-06-07T08:36:10Z</time>
      </trkpt>
      <trkpt lat="47.25102" lon="-1.58217">
        <ele>15.4</ele>
        <time>2020-06-07T08:36:11Z</time>
      </trkpt>
      <trkpt lat="47.25103" lon="-1.58218">
        <ele>15.5</ele>
        <time>2020-06-07T08:36:12Z</time>
      </trkpt>
      <trkpt lat="47.25103" lon="-1.5822">
        <ele>15.5</ele>
        <time>2020-06-07T08:36:13Z</time>
      </trkpt>
      <trkpt lat="47.25104" lon="-1.58222">
        <ele>15.6</ele>
        <time>2020-06-07T08:36:14Z</time>
      </trkpt>
      <trkpt lat="47.25104" lon="-1.58223">
        <ele>15.7</ele>
        <time>2020-06-07T08:36:15Z</time>
      </trkpt>
      <trkpt lat="47.25104" lon="-1.58225">
        <ele>15.7</ele>
        <time>2020-06-07T08:36:16Z</time>
      </trkpt>
      <trkpt lat="47.25105" lon="-1.58226">
        <ele>15.8</ele>
        <time>2020-06-07T08:36:17Z</time>
      </trkpt>
      <trkpt lat="47.25105" lon="-1.58228">
        <ele>15.8</ele>
        <time>2020-06-07T08:36:18Z</time>
      </trkpt>
      <trkpt lat="47.25106" lon="-1.58229">
        <ele>15.9</ele>
        <time>2020-06-07T08:36:19Z</time>
      </trkpt>
      <trkpt lat="47.25106" lon="-1.58231">
        <ele>16</ele>
        <time>2020-06-07T08:36:20Z</time>
      </trkpt>
      <trkpt lat="47.25106" lon="-1.58233">
        <ele>16</ele>
        <time>2020-06-07T08:36:21Z</time>
      </trkpt>
      <trkpt lat="47.25106" lon="-1.58234">
        <ele>16.1</ele>
        <time>2020-06-07T08:36:22Z</time>
      </trkpt>
      <trkpt lat="47.25106" lon="-1.58236">
        <ele>16.1</ele>
        <time>2020-06-07T08:36:23Z</time>
      </trkpt>
      <trkpt lat="47.25107" lon="-1.58238">
        <ele>16.1</ele>
        <time>2020-06-07T08:36:24Z</time>
      </trkpt>
      <trkpt lat="47.25107" lon="-1.58239">
        <ele>16.2</ele>
        <time>2020-06-07T08:36:25Z</time>
      </trkpt>
      <trkpt lat="47.25107" lon="-1.58241">
        <ele>16.2</ele>
        <time>2020-06-07T08:36:26Z</time>
      </trkpt>
      <trkpt lat="47.25107" lon="-1.58243">
        <ele>16.3</ele>
        <time>2020-06-07T08:36:27Z</time>
      </trkpt>
      <trkpt lat="47.25107" lon="-1.58244">
        <ele>16.3</ele>
        <time>2020-06-07T08:36:28Z</time>
      </trkpt>
      <trkpt lat="47.25107" lon="-1.58246">
        <ele>16.3</ele>
        <time>2020-06-07T08:36:29Z</time>
      </trkpt>
      <trkpt lat="47.25107" lon="-1.58248">
        <ele>16.4</ele>
        <time>2020-06-07T08:36:30Z</time>
      </trkpt>
      <trkpt lat="47.25107" lon="-1.5825">
        <ele>16.4</ele>
        <time>2020-06-07T08:36:31Z</time>
      </trkpt>
      <trkpt lat="47.25107" lon="-1.58251">
        <ele>16.5</ele>
        <time>2020-06-07T08:36:32Z</time>
      </trkpt>
      <trkpt lat="47.25107" lon="-1.58253">
        <ele>16.5</ele>
        <time>2020-06-07T08:36:33Z</time>
      </trkpt>
      <trkpt lat="47.25107" lon="-1.58255">
        <ele>16.6</ele>
        <time>2020-06-07T08:36:34Z</time>
      </trkpt>
      <trkpt lat="47.25107" lon="-1.58256">
        <ele>16.6</ele>
        <time>2020-06-07T08:36:35Z</time>
      </trkpt>
      <trkpt lat="47.25107" lon="-1.58258">
        <ele>16.7</ele>
        <time>2020-06-07T08:36:36Z</time>
      </trkpt>
      <trkpt lat="47.25107" lon="-1.5826">
        <ele>16.7</ele>
        <time>2020-06-07T08:36:37Z</time>
      </trkpt>
      <trkpt lat="47.25107" lon="-1.58262">
        <ele>16.8</ele>
        <time>2020-06-07T08:36:38Z</time>
      </trkpt>
      <trkpt lat="47.25107" lon="-1.58263">
        <ele>16.8</ele>
        <time>2020-06-07T08:36:39Z</time>
      </trkpt>
      <trkpt lat="47.25107" lon="-1.58265">
        <ele>16.8</ele>
        <time>2020-06-07T08:36:40Z</time>
      </trkpt>
      <trkpt lat="47.25107" lon="-1.58267">
        <ele>16.9</ele>
        <time>2020-06-07T08:36:41Z</time>
      </trkpt>
      <trkpt lat="47.25107" lon="-1.58268">
        <ele>16.9</ele>
        <time>2020-06-07T08:36:42Z</time>
      </trkpt>
      <trkpt lat="47.25107" lon="-1.5827">
        <ele>17</ele>
        <time>2020-06-07T08:36:43Z</time>
      </trkpt>
      <trkpt lat="47.25106" lon="-1.58272">
        <ele>17</ele>
        <time>2020-06-07T08:36:44Z</time>
      </trkpt>
      <trkpt lat="47.25106" lon="-1.58273">
        <ele>17</ele>
        <time>2020-06-07T08:36:45Z</time>
      </trkpt>
      <trkpt lat="47.25106" lon="-1.58275">
        <ele>17.1</ele>
        <time>2020-06-07T08:36:46Z</time>
      </trkpt>
      <trkpt lat="47.25106" lon="-1.58277">
        <ele>17.1</ele>
        <time>2020-06-07T08:36:47Z</time>
      </trkpt>
      <trkpt lat="47.25106" lon="-1.58278">
        <ele>17.1</ele>
        <time>2020-06-07T08:36:48Z</time>
      </trkpt>
      <trkpt lat="47.25106" lon="-1.5828">
        <ele>17.2</ele>
        <time>2020-06-07T08:36:49Z</time>
      </trkpt>
      <trkpt lat="47.25105" lon="-1.58282">
        <ele>17.2</ele>
        <time>2020-06-07T08:36:50Z</time>
      </trkpt>
      <trkpt lat="47.25105" lon="-1.58283">
        <ele>17.2</ele>
        <time>2020-06-07T08:36:51Z</time>
      </trkpt>
      <trkpt lat="47.25105" lon="-1.58285">
        <ele>17.3</ele>
        <time>2020-06-07T08:36:52Z</time>
      </trkpt>
      <trkpt lat="47.25105" lon="-1.58286">
        <ele>17.3</ele>
        <time>2020-06-07T08:36:53Z</time>
      </trkpt>
      <trkpt lat="47.25105" lon="-1.58288">
        <ele>17.3</ele>
        <time>2020-06-07T08:36:54Z</time>
      </trkpt>
      <trkpt lat="47.25104" lon="-1.5829">
        <ele>17.3</ele>
        <time>2020-06-07T08:36:55Z</time>
      </trkpt>
      <trkpt lat="47.25104" lon="-1.58291">
        <ele>17.4</ele>
        <time>2020-06-07T08:36:56Z</time>
      </trkpt>
      <trkpt lat="47.25104" lon="-1.58293">
        <ele>17.4</ele>
        <time>2020-06-07T08:36:57Z</time>
      </trkpt>
      <trkpt lat="47.25104" lon="-1.58294">
        <ele>17.4</ele>
        <time>2020-06-07T08:36:58Z</time>
      </trkpt>
      <trkpt lat="47.25104" lon="-1.58296">
        <ele>17.5</ele>
        <time>2020-06-07T08:36:59Z</time>
      </trkpt>
      <trkpt lat="47.25104" lon="-1.58297">
        <ele>17.5</ele>
        <time>2020-06-07T08:37:00Z</time>
      </trkpt>
      <trkpt lat="47.25104" lon="-1.58299">
        <ele>17.5</ele>
        <time>2020-06-07T08:37:01Z</time>
      </trkpt>
      <trkpt lat="47.25104" lon="-1.583">
        <ele>17.5</ele>
        <time>2020-06-07T08:37:02Z</time>
      </trkpt>
      <trkpt lat="47.25103" lon="-1.58302">
        <ele>17.6</ele>
        <time>2020-06-07T08:37:03Z</time>
      </trkpt>
      <trkpt lat="47.25103" lon="-1.58303">
        <ele>17.6</ele>
        <time>2020-06-07T08:37:04Z</time>
      </trkpt>
      <trkpt lat="47.25103" lon="-1.58305">
        <ele>17.6</ele>
        <time>2020-06-07T08:37:05Z</time>
      </trkpt>
      <trkpt lat="47.25103" lon="-1.58306">
        <ele>17.7</ele>
        <time>2020-06-07T08:37:06Z</time>
      </trkpt>
      <trkpt lat="47.25103" lon="-1.58308">
        <ele>17.7</ele>
        <time>2020-06-07T08:37:07Z</time>
      </trkpt>
      <trkpt lat="47.25103" lon="-1.58309">
        <ele>17.7</ele>
        <time>2020-06-07T08:37:08Z</time>
      </trkpt>
      <trkpt lat="47.25103" lon="-1.58311">
        <ele>17.8</ele>
        <time>2020-06-07T08:37:09Z</time>
      </trkpt>
      <trkpt lat="47.25103" lon="-1.58312">
        <ele>17.8</ele>
        <time>2020-06-07T08:37:10Z</time>
      </trkpt>
      <trkpt lat="47.25103" lon="-1.58314">
        <ele>17.8</ele>
        <time>2020-06-07T08:37:11Z</time>
      </trkpt>
      <trkpt lat="47.25102" lon="-1.58315">
        <ele>17.8</ele>
        <time>2020-06-07T08:37:12Z</time>
      </trkpt>
      <trkpt lat="47.25102" lon="-1.58316">
        <ele>17.8</ele>
        <time>2020-06-07T08:37:13Z</time>
      </trkpt>
      <trkpt lat="47.25101" lon="-1.58318">
        <ele>17.8</ele>
        <time>2020-06-07T08:37:14Z</time>
      </trkpt>
      <trkpt lat="47.25101" lon="-1.58319">
        <ele>17.8</ele>
        <time>2020-06-07T08:37:15Z</time>
      </trkpt>
      <trkpt lat="47.25101" lon="-1.5832">
        <ele>17.7</ele>
        <time>2020-06-07T08:37:16Z</time>
      </trkpt>
      <trkpt lat="47.251" lon="-1.58321">
        <ele>17.7</ele>
        <time>2020-06-07T08:37:17Z</time>
      </trkpt>
      <trkpt lat="47.25099" lon="-1.58323">
        <ele>17.7</ele>
        <time>2020-06-07T08:37:18Z</time>
      </trkpt>
      <trkpt lat="47.25099" lon="-1.58324">
        <ele>17.7</ele>
        <time>2020-06-07T08:37:19Z</time>
      </trkpt>
      <trkpt lat="47.25098" lon="-1.58325">
        <ele>17.6</ele>
        <time>2020-06-07T08:37:20Z</time>
      </trkpt>
      <trkpt lat="47.25098" lon="-1.58327">
        <ele>17.6</ele>
        <time>2020-06-07T08:37:21Z</time>
      </trkpt>
      <trkpt lat="47.25097" lon="-1.58328">
        <ele>17.5</ele>
        <time>2020-06-07T08:37:22Z</time>
      </trkpt>
      <trkpt lat="47.25096" lon="-1.58329">
        <ele>17.5</ele>
        <time>2020-06-07T08:37:23Z</time>
      </trkpt>
      <trkpt lat="47.25096" lon="-1.58331">
        <ele>17.4</ele>
        <time>2020-06-07T08:37:24Z</time>
      </trkpt>
      <trkpt lat="47.25095" lon="-1.58332">
        <ele>17.4</ele>
        <time>2020-06-07T08:37:25Z</time>
      </trkpt>
      <trkpt lat="47.25095" lon="-1.58333">
        <ele>17.4</ele>
        <time>2020-06-07T08:37:26Z</time>
      </trkpt>
      <trkpt lat="47.25094" lon="-1.58335">
        <ele>17.3</ele>
        <time>2020-06-07T08:37:27Z</time>
      </trkpt>
      <trkpt lat="47.25094" lon="-1.58336">
        <ele>17.3</ele>
        <time>2020-06-07T08:37:28Z</time>
      </trkpt>
      <trkpt lat="47.25093" lon="-1.58338">
        <ele>17.3</ele>
        <time>2020-06-07T08:37:29Z</time>
      </trkpt>
      <trkpt lat="47.25093" lon="-1.58339">
        <ele>17.3</ele>
        <time>2020-06-07T08:37:30Z</time>
      </trkpt>
      <trkpt lat="47.25093" lon="-1.5834">
        <ele>17.3</ele>
        <time>2020-06-07T08:37:31Z</time>
      </trkpt>
      <trkpt lat="47.25092" lon="-1.58342">
        <ele>17.3</ele>
        <time>2020-06-07T08:37:32Z</time>
      </trkpt>
      <trkpt lat="47.25092" lon="-1.58343">
        <ele>17.3</ele>
        <time>2020-06-07T08:37:33Z</time>
      </trkpt>
      <trkpt lat="47.25092" lon="-1.58345">
        <ele>17.3</ele>
        <time>2020-06-07T08:37:34Z</time>
      </trkpt>
      <trkpt lat="47.25092" lon="-1.58346">
        <ele>17.3</ele>
        <time>2020-06-07T08:37:35Z</time>
      </trkpt>
      <trkpt lat="47.25091" lon="-1.58348">
        <ele>17.3</ele>
        <time>2020-06-07T08:37:36Z</time>
      </trkpt>
      <trkpt lat="47.25091" lon="-1.5835">
        <ele>17.3</ele>
        <time>2020-06-07T08:37:37Z</time>
      </trkpt>
      <trkpt lat="47.25091" lon="-1.58352">
        <ele>17.3</ele>
        <time>2020-06-07T08:37:38Z</time>
      </trkpt>
      <trkpt lat="47.2509" lon="-1.58353">
        <ele>17.3</ele>
        <time>2020-06-07T08:37:39Z</time>
      </trkpt>
      <trkpt lat="47.2509" lon="-1.58355">
        <ele>17.3</ele>
        <time>2020-06-07T08:37:40Z</time>
      </trkpt>
      <trkpt lat="47.2509" lon="-1.58357">
        <ele>17.3</ele>
        <time>2020-06-07T08:37:41Z</time>
      </trkpt>
      <trkpt lat="47.2509" lon="-1.58359">
        <ele>17.3</ele>
        <time>2020-06-07T08:37:42Z</time>
      </trkpt>
      <trkpt lat="47.25089" lon="-1.5836">
        <ele>17.4</ele>
        <time>2020-06-07T08:37:43Z</time>
      </trkpt>
      <trkpt lat="47.25089" lon="-1.58362">
        <ele>17.4</ele>
        <time>2020-06-07T08:37:44Z</time>
      </trkpt>
      <trkpt lat="47.2509" lon="-1.58363">
        <ele>17.5</ele>
        <time>2020-06-07T08:37:45Z</time>
      </trkpt>
      <trkpt lat="47.2509" lon="-1.58364">
        <ele>17.5</ele>
        <time>2020-06-07T08:37:46Z</time>
      </trkpt>
      <trkpt lat="47.2509" lon="-1.58365">
        <ele>17.6</ele>
        <time>2020-06-07T08:37:47Z</time>
      </trkpt>
      <trkpt lat="47.25091" lon="-1.58366">
        <ele>17.7</ele>
        <time>2020-06-07T08:37:48Z</time>
      </trkpt>
      <trkpt lat="47.25091" lon="-1.58368">
        <ele>17.7</ele>
        <time>2020-06-07T08:37:49Z</time>
      </trkpt>
      <trkpt lat="47.25091" lon="-1.58369">
        <ele>17.8</ele>
        <time>2020-06-07T08:37:50Z</time>
      </trkpt>
      <trkpt lat="47.25091" lon="-1.58371">
        <ele>17.8</ele>
        <time>2020-06-07T08:37:51Z</time>
      </trkpt>
      <trkpt lat="47.2509" lon="-1.58373">
        <ele>17.8</ele>
        <time>2020-06-07T08:37:52Z</time>
      </trkpt>
      <trkpt lat="47.2509" lon="-1.58374">
        <ele>17.8</ele>
        <time>2020-06-07T08:37:53Z</time>
      </trkpt>
      <trkpt lat="47.2509" lon="-1.58376">
        <ele>17.8</ele>
        <time>2020-06-07T08:37:54Z</time>
      </trkpt>
      <trkpt lat="47.2509" lon="-1.58378">
        <ele>17.8</ele>
        <time>2020-06-07T08:37:55Z</time>
      </trkpt>
      <trkpt lat="47.25089" lon="-1.5838">
        <ele>17.8</ele>
        <time>2020-06-07T08:37:56Z</time>
      </trkpt>
      <trkpt lat="47.25089" lon="-1.58382">
        <ele>17.8</ele>
        <time>2020-06-07T08:37:57Z</time>
      </trkpt>
      <trkpt lat="47.25089" lon="-1.58384">
        <ele>17.9</ele>
        <time>2020-06-07T08:37:58Z</time>
      </trkpt>
      <trkpt lat="47.25089" lon="-1.58386">
        <ele>17.9</ele>
        <time>2020-06-07T08:37:59Z</time>
      </trkpt>
      <trkpt lat="47.25089" lon="-1.58388">
        <ele>17.9</ele>
        <time>2020-06-07T08:38:00Z</time>
      </trkpt>
      <trkpt lat="47.25089" lon="-1.58389">
        <ele>18</ele>
        <time>2020-06-07T08:38:01Z</time>
      </trkpt>
      <trkpt lat="47.25088" lon="-1.58391">
        <ele>18</ele>
        <time>2020-06-07T08:38:02Z</time>
      </trkpt>
      <trkpt lat="47.25088" lon="-1.58393">
        <ele>18</ele>
        <time>2020-06-07T08:38:03Z</time>
      </trkpt>
      <trkpt lat="47.25089" lon="-1.58395">
        <ele>18.1</ele>
        <time>2020-06-07T08:38:04Z</time>
      </trkpt>
      <trkpt lat="47.25089" lon="-1.58396">
        <ele>18.1</ele>
        <time>2020-06-07T08:38:05Z</time>
      </trkpt>
      <trkpt lat="47.25089" lon="-1.58398">
        <ele>18.2</ele>
        <time>2020-06-07T08:38:06Z</time>
      </trkpt>
      <trkpt lat="47.25089" lon="-1.584">
        <ele>18.2</ele>
        <time>2020-06-07T08:38:07Z</time>
      </trkpt>
      <trkpt lat="47.25089" lon="-1.58401">
        <ele>18.3</ele>
        <time>2020-06-07T08:38:08Z</time>
      </trkpt>
      <trkpt lat="47.25089" lon="-1.58403">
        <ele>18.4</ele>
        <time>2020-06-07T08:38:09Z</time>
      </trkpt>
      <trkpt lat="47.25089" lon="-1.58404">
        <ele>18.4</ele>
        <time>2020-06-07T08:38:10Z</time>
      </trkpt>
      <trkpt lat="47.2509" lon="-1.58406">
        <ele>18.5</ele>
        <time>2020-06-07T08:38:11Z</time>
      </trkpt>
      <trkpt lat="47.2509" lon="-1.58407">
        <ele>18.6</ele>
        <time>2020-06-07T08:38:12Z</time>
      </trkpt>
      <trkpt lat="47.25091" lon="-1.58408">
        <ele>18.7</ele>
        <time>2020-06-07T08:38:13Z</time>
      </trkpt>
      <trkpt lat="47.25091" lon="-1.58409">
        <ele>18.7</ele>
        <time>2020-06-07T08:38:14Z</time>
      </trkpt>
      <trkpt lat="47.25091" lon="-1.58411">
        <ele>18.8</ele>
        <time>2020-06-07T08:38:15Z</time>
      </trkpt>
      <trkpt lat="47.25092" lon="-1.58412">
        <ele>18.9</ele>
        <time>2020-06-07T08:38:16Z</time>
      </trkpt>
      <trkpt lat="47.25092" lon="-1.58414">
        <ele>19</ele>
        <time>2020-06-07T08:38:17Z</time>
      </trkpt>
      <trkpt lat="47.25093" lon="-1.58416">
        <ele>19.1</ele>
        <time>2020-06-07T08:38:18Z</time>
      </trkpt>
      <trkpt lat="47.25094" lon="-1.58418">
        <ele>19.3</ele>
        <time>2020-06-07T08:38:19Z</time>
      </trkpt>
      <trkpt lat="47.25094" lon="-1.5842">
        <ele>19.4</ele>
        <time>2020-06-07T08:38:20Z</time>
      </trkpt>
      <trkpt lat="47.25095" lon="-1.58421">
        <ele>19.5</ele>
        <time>2020-06-07T08:38:21Z</time>
      </trkpt>
      <trkpt lat="47.25095" lon="-1.58423">
        <ele>19.5</ele>
        <time>2020-06-07T08:38:22Z</time>
      </trkpt>
      <trkpt lat="47.25095" lon="-1.58424">
        <ele>19.6</ele>
        <time>2020-06-07T08:38:23Z</time>
      </trkpt>
      <trkpt lat="47.25096" lon="-1.58426">
        <ele>19.7</ele>
        <time>2020-06-07T08:38:24Z</time>
      </trkpt>
      <trkpt lat="47.25096" lon="-1.58427">
        <ele>19.7</ele>
        <time>2020-06-07T08:38:25Z</time>
      </trkpt>
      <trkpt lat="47.25096" lon="-1.58428">
        <ele>19.8</ele>
        <time>2020-06-07T08:38:26Z</time>
      </trkpt>
      <trkpt lat="47.25096" lon="-1.5843">
        <ele>19.8</ele>
        <time>2020-06-07T08:38:27Z</time>
      </trkpt>
      <trkpt lat="47.25097" lon="-1.58431">
        <ele>19.9</ele>
        <time>2020-06-07T08:38:28Z</time>
      </trkpt>
      <trkpt lat="47.25097" lon="-1.58433">
        <ele>20</ele>
        <time>2020-06-07T08:38:29Z</time>
      </trkpt>
      <trkpt lat="47.25097" lon="-1.58434">
        <ele>20</ele>
        <time>2020-06-07T08:38:30Z</time>
      </trkpt>
      <trkpt lat="47.25098" lon="-1.58436">
        <ele>20.1</ele>
        <time>2020-06-07T08:38:31Z</time>
      </trkpt>
      <trkpt lat="47.25098" lon="-1.58438">
        <ele>20.2</ele>
        <time>2020-06-07T08:38:32Z</time>
      </trkpt>
      <trkpt lat="47.25098" lon="-1.5844">
        <ele>20.3</ele>
        <time>2020-06-07T08:38:33Z</time>
      </trkpt>
      <trkpt lat="47.25099" lon="-1.58441">
        <ele>20.3</ele>
        <time>2020-06-07T08:38:34Z</time>
      </trkpt>
      <trkpt lat="47.25099" lon="-1.58443">
        <ele>20.4</ele>
        <time>2020-06-07T08:38:35Z</time>
      </trkpt>
      <trkpt lat="47.251" lon="-1.58445">
        <ele>20.5</ele>
        <time>2020-06-07T08:38:36Z</time>
      </trkpt>
      <trkpt lat="47.251" lon="-1.58446">
        <ele>20.6</ele>
        <time>2020-06-07T08:38:37Z</time>
      </trkpt>
      <trkpt lat="47.25101" lon="-1.58448">
        <ele>20.7</ele>
        <time>2020-06-07T08:38:38Z</time>
      </trkpt>
      <trkpt lat="47.25101" lon="-1.58449">
        <ele>20.7</ele>
        <time>2020-06-07T08:38:39Z</time>
      </trkpt>
      <trkpt lat="47.25102" lon="-1.5845">
        <ele>20.8</ele>
        <time>2020-06-07T08:38:40Z</time>
      </trkpt>
      <trkpt lat="47.25103" lon="-1.58452">
        <ele>20.9</ele>
        <time>2020-06-07T08:38:41Z</time>
      </trkpt>
      <trkpt lat="47.25103" lon="-1.58453">
        <ele>21</ele>
        <time>2020-06-07T08:38:42Z</time>
      </trkpt>
      <trkpt lat="47.25104" lon="-1.58454">
        <ele>21</ele>
        <time>2020-06-07T08:38:43Z</time>
      </trkpt>
      <trkpt lat="47.25105" lon="-1.58455">
        <ele>21.1</ele>
        <time>2020-06-07T08:38:44Z</time>
      </trkpt>
      <trkpt lat="47.25105" lon="-1.58456">
        <ele>21.2</ele>
        <time>2020-06-07T08:38:45Z</time>
      </trkpt>
      <trkpt lat="47.25106" lon="-1.58458">
        <ele>21.2</ele>
        <time>2020-06-07T08:38:46Z</time>
      </trkpt>
      <trkpt lat="47.25106" lon="-1.58459">
        <ele>21.3</ele>
        <time>2020-06-07T08:38:47Z</time>
      </trkpt>
      <trkpt lat="47.25107" lon="-1.5846">
        <ele>21.4</ele>
        <time>2020-06-07T08:38:48Z</time>
      </trkpt>
      <trkpt lat="47.25108" lon="-1.58462">
        <ele>21.4</ele>
        <time>2020-06-07T08:38:49Z</time>
      </trkpt>
      <trkpt lat="47.25108" lon="-1.58463">
        <ele>21.5</ele>
        <time>2020-06-07T08:38:50Z</time>
      </trkpt>
      <trkpt lat="47.25109" lon="-1.58465">
        <ele>21.5</ele>
        <time>2020-06-07T08:38:51Z</time>
      </trkpt>
      <trkpt lat="47.25109" lon="-1.58466">
        <ele>21.6</ele>
        <time>2020-06-07T08:38:52Z</time>
      </trkpt>
      <trkpt lat="47.2511" lon="-1.58468">
        <ele>21.6</ele>
        <time>2020-06-07T08:38:53Z</time>
      </trkpt>
      <trkpt lat="47.2511" lon="-1.58469">
        <ele>21.7</ele>
        <time>2020-06-07T08:38:54Z</time>
      </trkpt>
      <trkpt lat="47.2511" lon="-1.58471">
        <ele>21.7</ele>
        <time>2020-06-07T08:38:55Z</time>
      </trkpt>
      <trkpt lat="47.25111" lon="-1.58472">
        <ele>21.8</ele>
        <time>2020-06-07T08:38:56Z</time>
      </trkpt>
      <trkpt lat="47.25111" lon="-1.58474">
        <ele>21.8</ele>
        <time>2020-06-07T08:38:57Z</time>
      </trkpt>
      <trkpt lat="47.25112" lon="-1.58475">
        <ele>21.8</ele>
        <time>2020-06-07T08:38:58Z</time>
      </trkpt>
      <trkpt lat="47.25112" lon="-1.58477">
        <ele>21.9</ele>
        <time>2020-06-07T08:38:59Z</time>
      </trkpt>
      <trkpt lat="47.25112" lon="-1.58478">
        <ele>21.9</ele>
        <time>2020-06-07T08:39:00Z</time>
      </trkpt>
      <trkpt lat="47.25113" lon="-1.5848">
        <ele>21.9</ele>
        <time>2020-06-07T08:39:01Z</time>
      </trkpt>
      <trkpt lat="47.25113" lon="-1.58481">
        <ele>22</ele>
        <time>2020-06-07T08:39:02Z</time>
      </trkpt>
      <trkpt lat="47.25114" lon="-1.58482">
        <ele>22</ele>
        <time>2020-06-07T08:39:03Z</time>
      </trkpt>
      <trkpt lat="47.25114" lon="-1.58483">
        <ele>22</ele>
        <time>2020-06-07T08:39:04Z</time>
      </trkpt>
      <trkpt lat="47.25115" lon="-1.58484">
        <ele>22.1</ele>
        <time>2020-06-07T08:39:05Z</time>
      </trkpt>
      <trkpt lat="47.25116" lon="-1.58486">
        <ele>22.1</ele>
        <time>2020-06-07T08:39:06Z</time>
      </trkpt>
      <trkpt lat="47.25117" lon="-1.58487">
        <ele>22.2</ele>
        <time>2020-06-07T08:39:07Z</time>
      </trkpt>
      <trkpt lat="47.25117" lon="-1.58488">
        <ele>22.2</ele>
        <time>2020-06-07T08:39:08Z</time>
      </trkpt>
      <trkpt lat="47.25118" lon="-1.58489">
        <ele>22.2</ele>
        <time>2020-06-07T08:39:09Z</time>
      </trkpt>
      <trkpt lat="47.25119" lon="-1.5849">
        <ele>22.3</ele>
        <time>2020-06-07T08:39:10Z</time>
      </trkpt>
      <trkpt lat="47.2512" lon="-1.58491">
        <ele>22.3</ele>
        <time>2020-06-07T08:39:11Z</time>
      </trkpt>
      <trkpt lat="47.25121" lon="-1.58493">
        <ele>22.4</ele>
        <time>2020-06-07T08:39:12Z</time>
      </trkpt>
      <trkpt lat="47.25121" lon="-1.58494">
        <ele>22.4</ele>
        <time>2020-06-07T08:39:13Z</time>
      </trkpt>
      <trkpt lat="47.25122" lon="-1.58496">
        <ele>22.4</ele>
        <time>2020-06-07T08:39:14Z</time>
      </trkpt>
      <trkpt lat="47.25123" lon="-1.58497">
        <ele>22.4</ele>
        <time>2020-06-07T08:39:15Z</time>
      </trkpt>
      <trkpt lat="47.25124" lon="-1.58499">
        <ele>22.5</ele>
        <time>2020-06-07T08:39:16Z</time>
      </trkpt>
      <trkpt lat="47.25125" lon="-1.585">
        <ele>22.5</ele>
        <time>2020-06-07T08:39:17Z</time>
      </trkpt>
      <trkpt lat="47.25126" lon="-1.58501">
        <ele>22.5</ele>
        <time>2020-06-07T08:39:18Z</time>
      </trkpt>
      <trkpt lat="47.25126" lon="-1.58502">
        <ele>22.6</ele>
        <time>2020-06-07T08:39:19Z</time>
      </trkpt>
      <trkpt lat="47.25128" lon="-1.58503">
        <ele>22.6</ele>
        <time>2020-06-07T08:39:20Z</time>
      </trkpt>
      <trkpt lat="47.25129" lon="-1.58504">
        <ele>22.7</ele>
        <time>2020-06-07T08:39:21Z</time>
      </trkpt>
      <trkpt lat="47.2513" lon="-1.58504">
        <ele>22.7</ele>
        <time>2020-06-07T08:39:22Z</time>
      </trkpt>
      <trkpt lat="47.25131" lon="-1.58505">
        <ele>22.8</ele>
        <time>2020-06-07T08:39:23Z</time>
      </trkpt>
      <trkpt lat="47.25132" lon="-1.58506">
        <ele>22.8</ele>
        <time>2020-06-07T08:39:24Z</time>
      </trkpt>
      <trkpt lat="47.25133" lon="-1.58507">
        <ele>22.8</ele>
        <time>2020-06-07T08:39:25Z</time>
      </trkpt>
      <trkpt lat="47.25134" lon="-1.58508">
        <ele>22.9</ele>
        <time>2020-06-07T08:39:26Z</time>
      </trkpt>
      <trkpt lat="47.25135" lon="-1.58509">
        <ele>22.9</ele>
        <time>2020-06-07T08:39:27Z</time>
      </trkpt>
      <trkpt lat="47.25136" lon="-1.58509">
        <ele>22.9</ele>
        <time>2020-06-07T08:39:28Z</time>
      </trkpt>
      <trkpt lat="47.25137" lon="-1.5851">
        <ele>23</ele>
        <time>2020-06-07T08:39:29Z</time>
      </trkpt>
      <trkpt lat="47.25138" lon="-1.58511">
        <ele>23</ele>
        <time>2020-06-07T08:39:30Z</time>
      </trkpt>
      <trkpt lat="47.25139" lon="-1.58512">
        <ele>23</ele>
        <time>2020-06-07T08:39:31Z</time>
      </trkpt>
      <trkpt lat="47.2514" lon="-1.58513">
        <ele>23</ele>
        <time>2020-06-07T08:39:32Z</time>
      </trkpt>
      <trkpt lat="47.25141" lon="-1.58514">
        <ele>23</ele>
        <time>2020-06-07T08:39:33Z</time>
      </trkpt>
      <trkpt lat="47.25141" lon="-1.58515">
        <ele>23</ele>
        <time>2020-06-07T08:39:34Z</time>
      </trkpt>
      <trkpt lat="47.25142" lon="-1.58515">
        <ele>23.1</ele>
        <time>2020-06-07T08:39:35Z</time>
      </trkpt>
      <trkpt lat="47.25143" lon="-1.58516">
        <ele>23.1</ele>
        <time>2020-06-07T08:39:36Z</time>
      </trkpt>
      <trkpt lat="47.25144" lon="-1.58517">
        <ele>23.1</ele>
        <time>2020-06-07T08:39:37Z</time>
      </trkpt>
      <trkpt lat="47.25145" lon="-1.58518">
        <ele>23.1</ele>
        <time>2020-06-07T08:39:38Z</time>
      </trkpt>
      <trkpt lat="47.25145" lon="-1.58519">
        <ele>23.1</ele>
        <time>2020-06-07T08:39:39Z</time>
      </trkpt>
      <trkpt lat="47.25146" lon="-1.58521">
        <ele>23.1</ele>
        <time>2020-06-07T08:39:40Z</time>
      </trkpt>
      <trkpt lat="47.25147" lon="-1.58522">
        <ele>23.1</ele>
        <time>2020-06-07T08:39:41Z</time>
      </trkpt>
      <trkpt lat="47.25148" lon="-1.58523">
        <ele>23.1</ele>
        <time>2020-06-07T08:39:42Z</time>
      </trkpt>
      <trkpt lat="47.25149" lon="-1.58524">
        <ele>23</ele>
        <time>2020-06-07T08:39:43Z</time>
      </trkpt>
      <trkpt lat="47.25149" lon="-1.58525">
        <ele>23</ele>
        <time>2020-06-07T08:39:44Z</time>
      </trkpt>
      <trkpt lat="47.2515" lon="-1.58526">
        <ele>23</ele>
        <time>2020-06-07T08:39:45Z</time>
      </trkpt>
      <trkpt lat="47.25151" lon="-1.58527">
        <ele>23</ele>
        <time>2020-06-07T08:39:46Z</time>
      </trkpt>
      <trkpt lat="47.25152" lon="-1.58528">
        <ele>23</ele>
        <time>2020-06-07T08:39:47Z</time>
      </trkpt>
      <trkpt lat="47.25153" lon="-1.58529">
        <ele>23</ele>
        <time>2020-06-07T08:39:48Z</time>
      </trkpt>
      <trkpt lat="47.25154" lon="-1.5853">
        <ele>23</ele>
        <time>2020-06-07T08:39:49Z</time>
      </trkpt>
      <trkpt lat="47.25155" lon="-1.5853">
        <ele>22.9</ele>
        <time>2020-06-07T08:39:50Z</time>
      </trkpt>
      <trkpt lat="47.25156" lon="-1.58531">
        <ele>22.9</ele>
        <time>2020-06-07T08:39:51Z</time>
      </trkpt>
      <trkpt lat="47.25157" lon="-1.58532">
        <ele>22.9</ele>
        <time>2020-06-07T08:39:52Z</time>
      </trkpt>
      <trkpt lat="47.25158" lon="-1.58533">
        <ele>22.9</ele>
        <time>2020-06-07T08:39:53Z</time>
      </trkpt>
      <trkpt lat="47.25159" lon="-1.58534">
        <ele>22.9</ele>
        <time>2020-06-07T08:39:54Z</time>
      </trkpt>
      <trkpt lat="47.25159" lon="-1.58534">
        <ele>22.8</ele>
        <time>2020-06-07T08:39:55Z</time>
      </trkpt>
      <trkpt lat="47.2516" lon="-1.58535">
        <ele>22.8</ele>
        <time>2020-06-07T08:39:56Z</time>
      </trkpt>
      <trkpt lat="47.25161" lon="-1.58537">
        <ele>22.7</ele>
        <time>2020-06-07T08:39:57Z</time>
      </trkpt>
      <trkpt lat="47.25162" lon="-1.58538">
        <ele>22.7</ele>
        <time>2020-06-07T08:39:58Z</time>
      </trkpt>
      <trkpt lat="47.25163" lon="-1.58539">
        <ele>22.7</ele>
        <time>2020-06-07T08:39:59Z</time>
      </trkpt>
      <trkpt lat="47.25164" lon="-1.5854">
        <ele>22.6</ele>
        <time>2020-06-07T08:40:00Z</time>
      </trkpt>
      <trkpt lat="47.25165" lon="-1.58542">
        <ele>22.5</ele>
        <time>2020-06-07T08:40:01Z</time>
      </trkpt>
      <trkpt lat="47.25165" lon="-1.58543">
        <ele>22.5</ele>
        <time>2020-06-07T08:40:02Z</time>
      </trkpt>
      <trkpt lat="47.25166" lon="-1.58544">
        <ele>22.4</ele>
        <time>2020-06-07T08:40:03Z</time>
      </trkpt>
      <trkpt lat="47.25167" lon="-1.58546">
        <ele>22.4</ele>
        <time>2020-06-07T08:40:04Z</time>
      </trkpt>
      <trkpt lat="47.25168" lon="-1.58547">
        <ele>22.3</ele>
        <time>2020-06-07T08:40:05Z</time>
      </trkpt>
      <trkpt lat="47.25169" lon="-1.58548">
        <ele>22.3</ele>
        <time>2020-06-07T08:40:06Z</time>
      </trkpt>
      <trkpt lat="47.25169" lon="-1.5855">
        <ele>22.2</ele>
        <time>2020-06-07T08:40:07Z</time>
      </trkpt>
      <trkpt lat="47.2517" lon="-1.58551">
        <ele>22.2</ele>
        <time>2020-06-07T08:40:08Z</time>
      </trkpt>
      <trkpt lat="47.25171" lon="-1.58552">
        <ele>22.1</ele>
        <time>2020-06-07T08:40:09Z</time>
      </trkpt>
      <trkpt lat="47.25172" lon="-1.58553">
        <ele>22.1</ele>
        <time>2020-06-07T08:40:10Z</time>
      </trkpt>
      <trkpt lat="47.25173" lon="-1.58555">
        <ele>22</ele>
        <time>2020-06-07T08:40:11Z</time>
      </trkpt>
      <trkpt lat="47.25174" lon="-1.58556">
        <ele>22</ele>
        <time>2020-06-07T08:40:12Z</time>
      </trkpt>
      <trkpt lat="47.25175" lon="-1.58556">
        <ele>21.9</ele>
        <time>2020-06-07T08:40:13Z</time>
      </trkpt>
      <trkpt lat="47.25176" lon="-1.58557">
        <ele>21.9</ele>
        <time>2020-06-07T08:40:14Z</time>
      </trkpt>
      <trkpt lat="47.25177" lon="-1.58558">
        <ele>21.9</ele>
        <time>2020-06-07T08:40:15Z</time>
      </trkpt>
      <trkpt lat="47.25178" lon="-1.58559">
        <ele>21.8</ele>
        <time>2020-06-07T08:40:16Z</time>
      </trkpt>
      <trkpt lat="47.25179" lon="-1.5856">
        <ele>21.8</ele>
        <time>2020-06-07T08:40:17Z</time>
      </trkpt>
      <trkpt lat="47.2518" lon="-1.5856">
        <ele>21.7</ele>
        <time>2020-06-07T08:40:18Z</time>
      </trkpt>
      <trkpt lat="47.25181" lon="-1.58561">
        <ele>21.7</ele>
        <time>2020-06-07T08:40:19Z</time>
      </trkpt>
      <trkpt lat="47.25181" lon="-1.58562">
        <ele>21.7</ele>
        <time>2020-06-07T08:40:20Z</time>
      </trkpt>
      <trkpt lat="47.25182" lon="-1.58562">
        <ele>21.6</ele>
        <time>2020-06-07T08:40:21Z</time>
      </trkpt>
      <trkpt lat="47.25183" lon="-1.58563">
        <ele>21.6</ele>
        <time>2020-06-07T08:40:22Z</time>
      </trkpt>
      <trkpt lat="47.25185" lon="-1.58563">
        <ele>21.6</ele>
        <time>2020-06-07T08:40:23Z</time>
      </trkpt>
      <trkpt lat="47.25186" lon="-1.58563">
        <ele>21.5</ele>
        <time>2020-06-07T08:40:24Z</time>
      </trkpt>
      <trkpt lat="47.25187" lon="-1.58564">
        <ele>21.5</ele>
        <time>2020-06-07T08:40:25Z</time>
      </trkpt>
      <trkpt lat="47.25188" lon="-1.58564">
        <ele>21.5</ele>
        <time>2020-06-07T08:40:26Z</time>
      </trkpt>
      <trkpt lat="47.25189" lon="-1.58564">
        <ele>21.5</ele>
        <time>2020-06-07T08:40:27Z</time>
      </trkpt>
      <trkpt lat="47.2519" lon="-1.58564">
        <ele>21.5</ele>
        <time>2020-06-07T08:40:28Z</time>
      </trkpt>
      <trkpt lat="47.25192" lon="-1.58564">
        <ele>21.4</ele>
        <time>2020-06-07T08:40:29Z</time>
      </trkpt>
      <trkpt lat="47.25193" lon="-1.58564">
        <ele>21.4</ele>
        <time>2020-06-07T08:40:30Z</time>
      </trkpt>
      <trkpt lat="47.25194" lon="-1.58564">
        <ele>21.4</ele>
        <time>2020-06-07T08:40:31Z</time>
      </trkpt>
      <trkpt lat="47.25195" lon="-1.58564">
        <ele>21.4</ele>
        <time>2020-06-07T08:40:32Z</time>
      </trkpt>
      <trkpt lat="47.25196" lon="-1.58565">
        <ele>21.4</ele>
        <time>2020-06-07T08:40:33Z</time>
      </trkpt>
      <trkpt lat="47.25197" lon="-1.58565">
        <ele>21.3</ele>
        <time>2020-06-07T08:40:34Z</time>
      </trkpt>
      <trkpt lat="47.25198" lon="-1.58565">
        <ele>21.3</ele>
        <time>2020-06-07T08:40:35Z</time>
      </trkpt>
      <trkpt lat="47.25199" lon="-1.58565">
        <ele>21.3</ele>
        <time>2020-06-07T08:40:36Z</time>
      </trkpt>
      <trkpt lat="47.252" lon="-1.58565">
        <ele>21.3</ele>
        <time>2020-06-07T08:40:37Z</time>
      </trkpt>
      <trkpt lat="47.252" lon="-1.58566">
        <ele>21.3</ele>
        <time>2020-06-07T08:40:38Z</time>
      </trkpt>
      <trkpt lat="47.25201" lon="-1.58566">
        <ele>21.2</ele>
        <time>2020-06-07T08:40:39Z</time>
      </trkpt>
      <trkpt lat="47.25202" lon="-1.58566">
        <ele>21.2</ele>
        <time>2020-06-07T08:40:40Z</time>
      </trkpt>
      <trkpt lat="47.25203" lon="-1.58566">
        <ele>21.2</ele>
        <time>2020-06-07T08:40:41Z</time>
      </trkpt>
      <trkpt lat="47.25204" lon="-1.58566">
        <ele>21.2</ele>
        <time>2020-06-07T08:40:42Z</time>
      </trkpt>
      <trkpt lat="47.25205" lon="-1.58566">
        <ele>21.2</ele>
        <time>2020-06-07T08:40:43Z</time>
      </trkpt>
      <trkpt lat="47.25206" lon="-1.58566">
        <ele>21.2</ele>
        <time>2020-06-07T08:40:44Z</time>
      </trkpt>
      <trkpt lat="47.25207" lon="-1.58566">
        <ele>21.2</ele>
        <time>2020-06-07T08:40:45Z</time>
      </trkpt>
      <trkpt lat="47.25208" lon="-1.58566">
        <ele>21.2</ele>
        <time>2020-06-07T08:40:46Z</time>
      </trkpt>
      <trkpt lat="47.25209" lon="-1.58565">
        <ele>21.2</ele>
        <time>2020-06-07T08:40:47Z</time>
      </trkpt>
      <trkpt lat="47.2521" lon="-1.58565">
        <ele>21.2</ele>
        <time>2020-06-07T08:40:48Z</time>
      </trkpt>
      <trkpt lat="47.25212" lon="-1.58564">
        <ele>21.2</ele>
        <time>2020-06-07T08:40:49Z</time>
      </trkpt>
      <trkpt lat="47.25213" lon="-1.58564">
        <ele>21.2</ele>
        <time>2020-06-07T08:40:50Z</time>
      </trkpt>
      <trkpt lat="47.25214" lon="-1.58564">
        <ele>21.3</ele>
        <time>2020-06-07T08:40:51Z</time>
      </trkpt>
      <trkpt lat="47.25215" lon="-1.58563">
        <ele>21.3</ele>
        <time>2020-06-07T08:40:52Z</time>
      </trkpt>
      <trkpt lat="47.25216" lon="-1.58563">
        <ele>21.3</ele>
        <time>2020-06-07T08:40:53Z</time>
      </trkpt>
      <trkpt lat="47.25216" lon="-1.58562">
        <ele>21.3</ele>
        <time>2020-06-07T08:40:54Z</time>
      </trkpt>
      <trkpt lat="47.25217" lon="-1.58562">
        <ele>21.4</ele>
        <time>2020-06-07T08:40:55Z</time>
      </trkpt>
      <trkpt lat="47.25218" lon="-1.58561">
        <ele>21.4</ele>
        <time>2020-06-07T08:40:56Z</time>
      </trkpt>
      <trkpt lat="47.25218" lon="-1.58561">
        <ele>21.4</ele>
        <time>2020-06-07T08:40:57Z</time>
      </trkpt>
      <trkpt lat="47.25219" lon="-1.5856">
        <ele>21.4</ele>
        <time>2020-06-07T08:40:58Z</time>
      </trkpt>
      <trkpt lat="47.2522" lon="-1.5856">
        <ele>21.5</ele>
        <time>2020-06-07T08:40:59Z</time>
      </trkpt>
      <trkpt lat="47.25221" lon="-1.5856">
        <ele>21.5</ele>
        <time>2020-06-07T08:41:00Z</time>
      </trkpt>
      <trkpt lat="47.25222" lon="-1.58559">
        <ele>21.5</ele>
        <time>2020-06-07T08:41:01Z</time>
      </trkpt>
      <trkpt lat="47.25223" lon="-1.58559">
        <ele>21.5</ele>
        <time>2020-06-07T08:41:02Z</time>
      </trkpt>
      <trkpt lat="47.25224" lon="-1.5856">
        <ele>21.5</ele>
        <time>2020-06-07T08:41:03Z</time>
      </trkpt>
      <trkpt lat="47.25225" lon="-1.5856">
        <ele>21.4</ele>
        <time>2020-06-07T08:41:04Z</time>
      </trkpt>
      <trkpt lat="47.25226" lon="-1.5856">
        <ele>21.4</ele>
        <time>2020-06-07T08:41:05Z</time>
      </trkpt>
      <trkpt lat="47.25227" lon="-1.5856">
        <ele>21.4</ele>
        <time>2020-06-07T08:41:06Z</time>
      </trkpt>
      <trkpt lat="47.25228" lon="-1.5856">
        <ele>21.4</ele>
        <time>2020-06-07T08:41:07Z</time>
      </trkpt>
      <trkpt lat="47.25229" lon="-1.5856">
        <ele>21.4</ele>
        <time>2020-06-07T08:41:08Z</time>
      </trkpt>
      <trkpt lat="47.25231" lon="-1.58561">
        <ele>21.3</ele>
        <time>2020-06-07T08:41:09Z</time>
      </trkpt>
      <trkpt lat="47.25232" lon="-1.58561">
        <ele>21.3</ele>
        <time>2020-06-07T08:41:10Z</time>
      </trkpt>
      <trkpt lat="47.25233" lon="-1.58561">
        <ele>21.3</ele>
        <time>2020-06-07T08:41:11Z</time>
      </trkpt>
      <trkpt lat="47.25234" lon="-1.58561">
        <ele>21.3</ele>
        <time>2020-06-07T08:41:12Z</time>
      </trkpt>
      <trkpt lat="47.25236" lon="-1.58561">
        <ele>21.3</ele>
        <time>2020-06-07T08:41:13Z</time>
      </trkpt>
      <trkpt lat="47.25237" lon="-1.58561">
        <ele>21.3</ele>
        <time>2020-06-07T08:41:14Z</time>
      </trkpt>
      <trkpt lat="47.25238" lon="-1.58561">
        <ele>21.2</ele>
        <time>2020-06-07T08:41:15Z</time>
      </trkpt>
      <trkpt lat="47.25239" lon="-1.58561">
        <ele>21.2</ele>
        <time>2020-06-07T08:41:16Z</time>
      </trkpt>
      <trkpt lat="47.2524" lon="-1.58561">
        <ele>21.2</ele>
        <time>2020-06-07T08:41:17Z</time>
      </trkpt>
      <trkpt lat="47.25242" lon="-1.58561">
        <ele>21.2</ele>
        <time>2020-06-07T08:41:18Z</time>
      </trkpt>
      <trkpt lat="47.25243" lon="-1.58561">
        <ele>21.2</ele>
        <time>2020-06-07T08:41:19Z</time>
      </trkpt>
      <trkpt lat="47.25244" lon="-1.58561">
        <ele>21.2</ele>
        <time>2020-06-07T08:41:20Z</time>
      </trkpt>
      <trkpt lat="47.25245" lon="-1.58561">
        <ele>21.2</ele>
        <time>2020-06-07T08:41:21Z</time>
      </trkpt>
      <trkpt lat="47.25246" lon="-1.58561">
        <ele>21.1</ele>
        <time>2020-06-07T08:41:22Z</time>
      </trkpt>
      <trkpt lat="47.25247" lon="-1.58562">
        <ele>21.1</ele>
        <time>2020-06-07T08:41:23Z</time>
      </trkpt>
      <trkpt lat="47.25248" lon="-1.58562">
        <ele>21.1</ele>
        <time>2020-06-07T08:41:24Z</time>
      </trkpt>
      <trkpt lat="47.25249" lon="-1.58562">
        <ele>21</ele>
        <time>2020-06-07T08:41:25Z</time>
      </trkpt>
      <trkpt lat="47.25251" lon="-1.58562">
        <ele>21</ele>
        <time>2020-06-07T08:41:26Z</time>
      </trkpt>
      <trkpt lat="47.25252" lon="-1.58563">
        <ele>21</ele>
        <time>2020-06-07T08:41:27Z</time>
      </trkpt>
      <trkpt lat="47.25253" lon="-1.58563">
        <ele>21</ele>
        <time>2020-06-07T08:41:28Z</time>
      </trkpt>
      <trkpt lat="47.25254" lon="-1.58563">
        <ele>21</ele>
        <time>2020-06-07T08:41:29Z</time>
      </trkpt>
      <trkpt lat="47.25255" lon="-1.58564">
        <ele>21</ele>
        <time>2020-06-07T08:41:30Z</time>
      </trkpt>
      <trkpt lat="47.25257" lon="-1.58564">
        <ele>21</ele>
        <time>2020-06-07T08:41:31Z</time>
      </trkpt>
      <trkpt lat="47.25258" lon="-1.58565">
        <ele>21</ele>
        <time>2020-06-07T08:41:32Z</time>
      </trkpt>
      <trkpt lat="47.25259" lon="-1.58565">
        <ele>21</ele>
        <time>2020-06-07T08:41:33Z</time>
      </trkpt>
      <trkpt lat="47.2526" lon="-1.58566">
        <ele>21</ele>
        <time>2020-06-07T08:41:34Z</time>
      </trkpt>
      <trkpt lat="47.25261" lon="-1.58566">
        <ele>21</ele>
        <time>2020-06-07T08:41:35Z</time>
      </trkpt>
      <trkpt lat="47.25262" lon="-1.58566">
        <ele>21</ele>
        <time>2020-06-07T08:41:36Z</time>
      </trkpt>
      <trkpt lat="47.25263" lon="-1.58567">
        <ele>20.9</ele>
        <time>2020-06-07T08:41:37Z</time>
      </trkpt>
      <trkpt lat="47.25264" lon="-1.58567">
        <ele>20.9</ele>
        <time>2020-06-07T08:41:38Z</time>
      </trkpt>
      <trkpt lat="47.25265" lon="-1.58568">
        <ele>20.9</ele>
        <time>2020-06-07T08:41:39Z</time>
      </trkpt>
      <trkpt lat="47.25266" lon="-1.58568">
        <ele>20.9</ele>
        <time>2020-06-07T08:41:40Z</time>
      </trkpt>
      <trkpt lat="47.25267" lon="-1.58568">
        <ele>20.9</ele>
        <time>2020-06-07T08:41:41Z</time>
      </trkpt>
      <trkpt lat="47.25268" lon="-1.58569">
        <ele>20.9</ele>
        <time>2020-06-07T08:41:42Z</time>
      </trkpt>
      <trkpt lat="47.25269" lon="-1.58569">
        <ele>20.9</ele>
        <time>2020-06-07T08:41:43Z</time>
      </trkpt>
      <trkpt lat="47.2527" lon="-1.58569">
        <ele>20.9</ele>
        <time>2020-06-07T08:41:44Z</time>
      </trkpt>
      <trkpt lat="47.25271" lon="-1.5857">
        <ele>20.9</ele>
        <time>2020-06-07T08:41:45Z</time>
      </trkpt>
      <trkpt lat="47.25272" lon="-1.5857">
        <ele>20.9</ele>
        <time>2020-06-07T08:41:46Z</time>
      </trkpt>
      <trkpt lat="47.25273" lon="-1.5857">
        <ele>20.8</ele>
        <time>2020-06-07T08:41:47Z</time>
      </trkpt>
      <trkpt lat="47.25274" lon="-1.58571">
        <ele>20.8</ele>
        <time>2020-06-07T08:41:48Z</time>
      </trkpt>
      <trkpt lat="47.25275" lon="-1.58571">
        <ele>20.8</ele>
        <time>2020-06-07T08:41:49Z</time>
      </trkpt>
      <trkpt lat="47.25276" lon="-1.58572">
        <ele>20.8</ele>
        <time>2020-06-07T08:41:50Z</time>
      </trkpt>
      <trkpt lat="47.25277" lon="-1.58572">
        <ele>20.8</ele>
        <time>2020-06-07T08:41:51Z</time>
      </trkpt>
      <trkpt lat="47.25278" lon="-1.58572">
        <ele>20.8</ele>
        <time>2020-06-07T08:41:52Z</time>
      </trkpt>
      <trkpt lat="47.25279" lon="-1.58573">
        <ele>20.8</ele>
        <time>2020-06-07T08:41:53Z</time>
      </trkpt>
      <trkpt lat="47.2528" lon="-1.58573">
        <ele>20.7</ele>
        <time>2020-06-07T08:41:54Z</time>
      </trkpt>
      <trkpt lat="47.25281" lon="-1.58574">
        <ele>20.7</ele>
        <time>2020-06-07T08:41:55Z</time>
      </trkpt>
      <trkpt lat="47.25282" lon="-1.58574">
        <ele>20.7</ele>
        <time>2020-06-07T08:41:56Z</time>
      </trkpt>
      <trkpt lat="47.25284" lon="-1.58575">
        <ele>20.7</ele>
        <time>2020-06-07T08:41:57Z</time>
      </trkpt>
      <trkpt lat="47.25285" lon="-1.58575">
        <ele>20.7</ele>
        <time>2020-06-07T08:41:58Z</time>
      </trkpt>
      <trkpt lat="47.25286" lon="-1.58575">
        <ele>20.7</ele>
        <time>2020-06-07T08:41:59Z</time>
      </trkpt>
      <trkpt lat="47.25287" lon="-1.58576">
        <ele>20.7</ele>
        <time>2020-06-07T08:42:00Z</time>
      </trkpt>
      <trkpt lat="47.25288" lon="-1.58576">
        <ele>20.7</ele>
        <time>2020-06-07T08:42:01Z</time>
      </trkpt>
      <trkpt lat="47.25289" lon="-1.58576">
        <ele>20.7</ele>
        <time>2020-06-07T08:42:02Z</time>
      </trkpt>
      <trkpt lat="47.2529" lon="-1.58577">
        <ele>20.7</ele>
        <time>2020-06-07T08:42:03Z</time>
      </trkpt>
      <trkpt lat="47.25291" lon="-1.58577">
        <ele>20.6</ele>
        <time>2020-06-07T08:42:04Z</time>
      </trkpt>
      <trkpt lat="47.25292" lon="-1.58577">
        <ele>20.6</ele>
        <time>2020-06-07T08:42:05Z</time>
      </trkpt>
      <trkpt lat="47.25293" lon="-1.58578">
        <ele>20.6</ele>
        <time>2020-06-07T08:42:06Z</time>
      </trkpt>
      <trkpt lat="47.25294" lon="-1.58578">
        <ele>20.6</ele>
        <time>2020-06-07T08:42:07Z</time>
      </trkpt>
      <trkpt lat="47.25295" lon="-1.58578">
        <ele>20.6</ele>
        <time>2020-06-07T08:42:08Z</time>
      </trkpt>
      <trkpt lat="47.25296" lon="-1.58579">
        <ele>20.6</ele>
        <time>2020-06-07T08:42:09Z</time>
      </trkpt>
      <trkpt lat="47.25297" lon="-1.58579">
        <ele>20.6</ele>
        <time>2020-06-07T08:42:10Z</time>
      </trkpt>
      <trkpt lat="47.25298" lon="-1.58579">
        <ele>20.6</ele>
        <time>2020-06-07T08:42:11Z</time>
      </trkpt>
      <trkpt lat="47.25299" lon="-1.5858">
        <ele>20.6</ele>
        <time>2020-06-07T08:42:12Z</time>
      </trkpt>
      <trkpt lat="47.25301" lon="-1.5858">
        <ele>20.6</ele>
        <time>2020-06-07T08:42:13Z</time>
      </trkpt>
      <trkpt lat="47.25302" lon="-1.58581">
        <ele>20.5</ele>
        <time>2020-06-07T08:42:14Z</time>
      </trkpt>
      <trkpt lat="47.25303" lon="-1.58581">
        <ele>20.5</ele>
        <time>2020-06-07T08:42:15Z</time>
      </trkpt>
      <trkpt lat="47.25304" lon="-1.58582">
        <ele>20.5</ele>
        <time>2020-06-07T08:42:16Z</time>
      </trkpt>
      <trkpt lat="47.25305" lon="-1.58582">
        <ele>20.5</ele>
        <time>2020-06-07T08:42:17Z</time>
      </trkpt>
      <trkpt lat="47.25306" lon="-1.58583">
        <ele>20.4</ele>
        <time>2020-06-07T08:42:18Z</time>
      </trkpt>
      <trkpt lat="47.25307" lon="-1.58583">
        <ele>20.4</ele>
        <time>2020-06-07T08:42:19Z</time>
      </trkpt>
      <trkpt lat="47.25309" lon="-1.58584">
        <ele>20.4</ele>
        <time>2020-06-07T08:42:20Z</time>
      </trkpt>
      <trkpt lat="47.2531" lon="-1.58585">
        <ele>20.4</ele>
        <time>2020-06-07T08:42:21Z</time>
      </trkpt>
      <trkpt lat="47.25311" lon="-1.58585">
        <ele>20.4</ele>
        <time>2020-06-07T08:42:22Z</time>
      </trkpt>
      <trkpt lat="47.25312" lon="-1.58586">
        <ele>20.4</ele>
        <time>2020-06-07T08:42:23Z</time>
      </trkpt>
      <trkpt lat="47.25313" lon="-1.58587">
        <ele>20.5</ele>
        <time>2020-06-07T08:42:24Z</time>
      </trkpt>
      <trkpt lat="47.25314" lon="-1.58587">
        <ele>20.5</ele>
        <time>2020-06-07T08:42:25Z</time>
      </trkpt>
      <trkpt lat="47.25315" lon="-1.58588">
        <ele>20.5</ele>
        <time>2020-06-07T08:42:26Z</time>
      </trkpt>
      <trkpt lat="47.25316" lon="-1.58589">
        <ele>20.5</ele>
        <time>2020-06-07T08:42:27Z</time>
      </trkpt>
      <trkpt lat="47.25317" lon="-1.5859">
        <ele>20.5</ele>
        <time>2020-06-07T08:42:28Z</time>
      </trkpt>
      <trkpt lat="47.25318" lon="-1.5859">
        <ele>20.5</ele>
        <time>2020-06-07T08:42:29Z</time>
      </trkpt>
      <trkpt lat="47.25319" lon="-1.58591">
        <ele>20.5</ele>
        <time>2020-06-07T08:42:30Z</time>
      </trkpt>
      <trkpt lat="47.2532" lon="-1.58592">
        <ele>20.5</ele>
        <time>2020-06-07T08:42:31Z</time>
      </trkpt>
      <trkpt lat="47.25321" lon="-1.58593">
        <ele>20.5</ele>
        <time>2020-06-07T08:42:32Z</time>
      </trkpt>
      <trkpt lat="47.25322" lon="-1.58594">
        <ele>20.5</ele>
        <time>2020-06-07T08:42:33Z</time>
      </trkpt>
      <trkpt lat="47.25323" lon="-1.58595">
        <ele>20.5</ele>
        <time>2020-06-07T08:42:34Z</time>
      </trkpt>
      <trkpt lat="47.25323" lon="-1.58596">
        <ele>20.5</ele>
        <time>2020-06-07T08:42:35Z</time>
      </trkpt>
      <trkpt lat="47.25324" lon="-1.58598">
        <ele>20.5</ele>
        <time>2020-06-07T08:42:36Z</time>
      </trkpt>
      <trkpt lat="47.25324" lon="-1.58599">
        <ele>20.4</ele>
        <time>2020-06-07T08:42:37Z</time>
      </trkpt>
      <trkpt lat="47.25325" lon="-1.586">
        <ele>20.4</ele>
        <time>2020-06-07T08:42:38Z</time>
      </trkpt>
      <trkpt lat="47.25325" lon="-1.58602">
        <ele>20.4</ele>
        <time>2020-06-07T08:42:39Z</time>
      </trkpt>
      <trkpt lat="47.25326" lon="-1.58603">
        <ele>20.4</ele>
        <time>2020-06-07T08:42:40Z</time>
      </trkpt>
      <trkpt lat="47.25326" lon="-1.58605">
        <ele>20.3</ele>
        <time>2020-06-07T08:42:41Z</time>
      </trkpt>
      <trkpt lat="47.25326" lon="-1.58607">
        <ele>20.3</ele>
        <time>2020-06-07T08:42:42Z</time>
      </trkpt>
      <trkpt lat="47.25326" lon="-1.58608">
        <ele>20.3</ele>
        <time>2020-06-07T08:42:43Z</time>
      </trkpt>
      <trkpt lat="47.25327" lon="-1.5861">
        <ele>20.2</ele>
        <time>2020-06-07T08:42:44Z</time>
      </trkpt>
      <trkpt lat="47.25327" lon="-1.58612">
        <ele>20.2</ele>
        <time>2020-06-07T08:42:45Z</time>
      </trkpt>
      <trkpt lat="47.25327" lon="-1.58613">
        <ele>20.2</ele>
        <time>2020-06-07T08:42:46Z</time>
      </trkpt>
      <trkpt lat="47.25327" lon="-1.58615">
        <ele>20.1</ele>
        <time>2020-06-07T08:42:47Z</time>
      </trkpt>
      <trkpt lat="47.25327" lon="-1.58617">
        <ele>20.1</ele>
        <time>2020-06-07T08:42:48Z</time>
      </trkpt>
      <trkpt lat="47.25327" lon="-1.58618">
        <ele>20.1</ele>
        <time>2020-06-07T08:42:49Z</time>
      </trkpt>
      <trkpt lat="47.25327" lon="-1.58619">
        <ele>20</ele>
        <time>2020-06-07T08:42:50Z</time>
      </trkpt>
      <trkpt lat="47.25327" lon="-1.58621">
        <ele>20</ele>
        <time>2020-06-07T08:42:51Z</time>
      </trkpt>
      <trkpt lat="47.25327" lon="-1.58622">
        <ele>20</ele>
        <time>2020-06-07T08:42:52Z</time>
      </trkpt>
      <trkpt lat="47.25328" lon="-1.58623">
        <ele>20</ele>
        <time>2020-06-07T08:42:53Z</time>
      </trkpt>
      <trkpt lat="47.25328" lon="-1.58625">
        <ele>19.9</ele>
        <time>2020-06-07T08:42:54Z</time>
      </trkpt>
      <trkpt lat="47.25328" lon="-1.58626">
        <ele>19.9</ele>
        <time>2020-06-07T08:42:55Z</time>
      </trkpt>
      <trkpt lat="47.25327" lon="-1.58627">
        <ele>19.9</ele>
        <time>2020-06-07T08:42:56Z</time>
      </trkpt>
      <trkpt lat="47.25327" lon="-1.58629">
        <ele>19.8</ele>
        <time>2020-06-07T08:42:57Z</time>
      </trkpt>
      <trkpt lat="47.25326" lon="-1.58631">
        <ele>19.8</ele>
        <time>2020-06-07T08:42:58Z</time>
      </trkpt>
      <trkpt lat="47.25326" lon="-1.58632">
        <ele>19.8</ele>
        <time>2020-06-07T08:42:59Z</time>
      </trkpt>
      <trkpt lat="47.25325" lon="-1.58634">
        <ele>19.7</ele>
        <time>2020-06-07T08:43:00Z</time>
      </trkpt>
      <trkpt lat="47.25325" lon="-1.58635">
        <ele>19.7</ele>
        <time>2020-06-07T08:43:01Z</time>
      </trkpt>
      <trkpt lat="47.25325" lon="-1.58637">
        <ele>19.6</ele>
        <time>2020-06-07T08:43:02Z</time>
      </trkpt>
      <trkpt lat="47.25324" lon="-1.58638">
        <ele>19.6</ele>
        <time>2020-06-07T08:43:03Z</time>
      </trkpt>
      <trkpt lat="47.25324" lon="-1.5864">
        <ele>19.6</ele>
        <time>2020-06-07T08:43:04Z</time>
      </trkpt>
      <trkpt lat="47.25324" lon="-1.58641">
        <ele>19.5</ele>
        <time>2020-06-07T08:43:05Z</time>
      </trkpt>
      <trkpt lat="47.25324" lon="-1.58642">
        <ele>19.5</ele>
        <time>2020-06-07T08:43:06Z</time>
      </trkpt>
      <trkpt lat="47.25323" lon="-1.58644">
        <ele>19.5</ele>
        <time>2020-06-07T08:43:07Z</time>
      </trkpt>
      <trkpt lat="47.25323" lon="-1.58645">
        <ele>19.5</ele>
        <time>2020-06-07T08:43:08Z</time>
      </trkpt>
      <trkpt lat="47.25323" lon="-1.58646">
        <ele>19.4</ele>
        <time>2020-06-07T08:43:09Z</time>
      </trkpt>
      <trkpt lat="47.25323" lon="-1.58648">
        <ele>19.4</ele>
        <time>2020-06-07T08:43:10Z</time>
      </trkpt>
      <trkpt lat="47.25322" lon="-1.58649">
        <ele>19.4</ele>
        <time>2020-06-07T08:43:11Z</time>
      </trkpt>
      <trkpt lat="47.25322" lon="-1.5865">
        <ele>19.3</ele>
        <time>2020-06-07T08:43:12Z</time>
      </trkpt>
      <trkpt lat="47.25322" lon="-1.58652">
        <ele>19.3</ele>
        <time>2020-06-07T08:43:13Z</time>
      </trkpt>
      <trkpt lat="47.25322" lon="-1.58653">
        <ele>19.3</ele>
        <time>2020-06-07T08:43:14Z</time>
      </trkpt>
      <trkpt lat="47.25322" lon="-1.58654">
        <ele>19.3</ele>
        <time>2020-06-07T08:43:15Z</time>
      </trkpt>
      <trkpt lat="47.25321" lon="-1.58656">
        <ele>19.2</ele>
        <time>2020-06-07T08:43:16Z</time>
      </trkpt>
      <trkpt lat="47.25321" lon="-1.58657">
        <ele>19.2</ele>
        <time>2020-06-07T08:43:17Z</time>
      </trkpt>
      <trkpt lat="47.25321" lon="-1.58659">
        <ele>19.2</ele>
        <time>2020-06-07T08:43:18Z</time>
      </trkpt>
      <trkpt lat="47.25321" lon="-1.5866">
        <ele>19.1</ele>
        <time>2020-06-07T08:43:19Z</time>
      </trkpt>
      <trkpt lat="47.2532" lon="-1.58661">
        <ele>19.1</ele>
        <time>2020-06-07T08:43:20Z</time>
      </trkpt>
      <trkpt lat="47.2532" lon="-1.58663">
        <ele>19.1</ele>
        <time>2020-06-07T08:43:21Z</time>
      </trkpt>
      <trkpt lat="47.2532" lon="-1.58664">
        <ele>19</ele>
        <time>2020-06-07T08:43:22Z</time>
      </trkpt>
      <trkpt lat="47.25319" lon="-1.58666">
        <ele>19</ele>
        <time>2020-06-07T08:43:23Z</time>
      </trkpt>
      <trkpt lat="47.25319" lon="-1.58667">
        <ele>19</ele>
        <time>2020-06-07T08:43:24Z</time>
      </trkpt>
      <trkpt lat="47.25319" lon="-1.58668">
        <ele>19</ele>
        <time>2020-06-07T08:43:25Z</time>
      </trkpt>
      <trkpt lat="47.25318" lon="-1.5867">
        <ele>19.1</ele>
        <time>2020-06-07T08:43:26Z</time>
      </trkpt>
      <trkpt lat="47.25318" lon="-1.58671">
        <ele>19.1</ele>
        <time>2020-06-07T08:43:27Z</time>
      </trkpt>
      <trkpt lat="47.25318" lon="-1.58672">
        <ele>19.2</ele>
        <time>2020-06-07T08:43:28Z</time>
      </trkpt>
      <trkpt lat="47.25317" lon="-1.58674">
        <ele>19.2</ele>
        <time>2020-06-07T08:43:29Z</time>
      </trkpt>
      <trkpt lat="47.25317" lon="-1.58675">
        <ele>19.2</ele>
        <time>2020-06-07T08:43:30Z</time>
      </trkpt>
      <trkpt lat="47.25316" lon="-1.58676">
        <ele>19.3</ele>
        <time>2020-06-07T08:43:31Z</time>
      </trkpt>
      <trkpt lat="47.25316" lon="-1.58678">
        <ele>19.3</ele>
        <time>2020-06-07T08:43:32Z</time>
      </trkpt>
      <trkpt lat="47.25315" lon="-1.58679">
        <ele>19.3</ele>
        <time>2020-06-07T08:43:33Z</time>
      </trkpt>
      <trkpt lat="47.25315" lon="-1.5868">
        <ele>19.4</ele>
        <time>2020-06-07T08:43:34Z</time>
      </trkpt>
      <trkpt lat="47.25314" lon="-1.58682">
        <ele>19.4</ele>
        <time>2020-06-07T08:43:35Z</time>
      </trkpt>
      <trkpt lat="47.25314" lon="-1.58683">
        <ele>19.5</ele>
        <time>2020-06-07T08:43:36Z</time>
      </trkpt>
      <trkpt lat="47.25313" lon="-1.58684">
        <ele>19.5</ele>
        <time>2020-06-07T08:43:37Z</time>
      </trkpt>
      <trkpt lat="47.25313" lon="-1.58686">
        <ele>19.5</ele>
        <time>2020-06-07T08:43:38Z</time>
      </trkpt>
      <trkpt lat="47.25312" lon="-1.58687">
        <ele>19.6</ele>
        <time>2020-06-07T08:43:39Z</time>
      </trkpt>
      <trkpt lat="47.25312" lon="-1.58689">
        <ele>19.6</ele>
        <time>2020-06-07T08:43:40Z</time>
      </trkpt>
      <trkpt lat="47.25312" lon="-1.5869">
        <ele>19.6</ele>
        <time>2020-06-07T08:43:41Z</time>
      </trkpt>
      <trkpt lat="47.25311" lon="-1.58692">
        <ele>19.7</ele>
        <time>2020-06-07T08:43:42Z</time>
      </trkpt>
      <trkpt lat="47.25311" lon="-1.58693">
        <ele>19.7</ele>
        <time>2020-06-07T08:43:43Z</time>
      </trkpt>
      <trkpt lat="47.2531" lon="-1.58695">
        <ele>19.7</ele>
        <time>2020-06-07T08:43:44Z</time>
      </trkpt>
      <trkpt lat="47.2531" lon="-1.58696">
        <ele>19.8</ele>
        <time>2020-06-07T08:43:45Z</time>
      </trkpt>
      <trkpt lat="47.25309" lon="-1.58698">
        <ele>19.8</ele>
        <time>2020-06-07T08:43:46Z</time>
      </trkpt>
      <trkpt lat="47.25309" lon="-1.58699">
        <ele>19.8</ele>
        <time>2020-06-07T08:43:47Z</time>
      </trkpt>
      <trkpt lat="47.25309" lon="-1.58701">
        <ele>19.9</ele>
        <time>2020-06-07T08:43:48Z</time>
      </trkpt>
      <trkpt lat="47.25308" lon="-1.58702">
        <ele>19.9</ele>
        <time>2020-06-07T08:43:49Z</time>
      </trkpt>
      <trkpt lat="47.25308" lon="-1.58704">
        <ele>19.9</ele>
        <time>2020-06-07T08:43:50Z</time>
      </trkpt>
      <trkpt lat="47.25308" lon="-1.58705">
        <ele>20</ele>
        <time>2020-06-07T08:43:51Z</time>
      </trkpt>
      <trkpt lat="47.25307" lon="-1.58707">
        <ele>20</ele>
        <time>2020-06-07T08:43:52Z</time>
      </trkpt>
      <trkpt lat="47.25307" lon="-1.58708">
        <ele>20</ele>
        <time>2020-06-07T08:43:53Z</time>
      </trkpt>
      <trkpt lat="47.25307" lon="-1.5871">
        <ele>20.1</ele>
        <time>2020-06-07T08:43:54Z</time>
      </trkpt>
      <trkpt lat="47.25307" lon="-1.58711">
        <ele>20.1</ele>
        <time>2020-06-07T08:43:55Z</time>
      </trkpt>
      <trkpt lat="47.25307" lon="-1.58712">
        <ele>20.1</ele>
        <time>2020-06-07T08:43:56Z</time>
      </trkpt>
      <trkpt lat="47.25306" lon="-1.58714">
        <ele>20.2</ele>
        <time>2020-06-07T08:43:57Z</time>
      </trkpt>
      <trkpt lat="47.25306" lon="-1.58715">
        <ele>20.2</ele>
        <time>2020-06-07T08:43:58Z</time>
      </trkpt>
      <trkpt lat="47.25306" lon="-1.58717">
        <ele>20.2</ele>
        <time>2020-06-07T08:43:59Z</time>
      </trkpt>
      <trkpt lat="47.25306" lon="-1.58718">
        <ele>20.2</ele>
        <time>2020-06-07T08:44:00Z</time>
      </trkpt>
      <trkpt lat="47.25306" lon="-1.5872">
        <ele>20.3</ele>
        <time>2020-06-07T08:44:01Z</time>
      </trkpt>
      <trkpt lat="47.25305" lon="-1.58721">
        <ele>20.3</ele>
        <time>2020-06-07T08:44:02Z</time>
      </trkpt>
      <trkpt lat="47.25305" lon="-1.58723">
        <ele>20.3</ele>
        <time>2020-06-07T08:44:03Z</time>
      </trkpt>
      <trkpt lat="47.25304" lon="-1.58725">
        <ele>20.4</ele>
        <time>2020-06-07T08:44:04Z</time>
      </trkpt>
      <trkpt lat="47.25304" lon="-1.58726">
        <ele>20.4</ele>
        <time>2020-06-07T08:44:05Z</time>
      </trkpt>
      <trkpt lat="47.25304" lon="-1.58728">
        <ele>20.4</ele>
        <time>2020-06-07T08:44:06Z</time>
      </trkpt>
      <trkpt lat="47.25303" lon="-1.58729">
        <ele>20.4</ele>
        <time>2020-06-07T08:44:07Z</time>
      </trkpt>
      <trkpt lat="47.25302" lon="-1.5873">
        <ele>20.4</ele>
        <time>2020-06-07T08:44:08Z</time>
      </trkpt>
      <trkpt lat="47.25302" lon="-1.58731">
        <ele>20.4</ele>
        <time>2020-06-07T08:44:09Z</time>
      </trkpt>
      <trkpt lat="47.25301" lon="-1.58733">
        <ele>20.4</ele>
        <time>2020-06-07T08:44:10Z</time>
      </trkpt>
      <trkpt lat="47.253" lon="-1.58734">
        <ele>20.4</ele>
        <time>2020-06-07T08:44:11Z</time>
      </trkpt>
      <trkpt lat="47.25299" lon="-1.58735">
        <ele>20.4</ele>
        <time>2020-06-07T08:44:12Z</time>
      </trkpt>
      <trkpt lat="47.25298" lon="-1.58736">
        <ele>20.4</ele>
        <time>2020-06-07T08:44:13Z</time>
      </trkpt>
      <trkpt lat="47.25298" lon="-1.58737">
        <ele>20.4</ele>
        <time>2020-06-07T08:44:14Z</time>
      </trkpt>
      <trkpt lat="47.25297" lon="-1.58738">
        <ele>20.4</ele>
        <time>2020-06-07T08:44:15Z</time>
      </trkpt>
      <trkpt lat="47.25296" lon="-1.58739">
        <ele>20.4</ele>
        <time>2020-06-07T08:44:16Z</time>
      </trkpt>
      <trkpt lat="47.25296" lon="-1.5874">
        <ele>20.4</ele>
        <time>2020-06-07T08:44:17Z</time>
      </trkpt>
      <trkpt lat="47.25295" lon="-1.58741">
        <ele>20.4</ele>
        <time>2020-06-07T08:44:18Z</time>
      </trkpt>
      <trkpt lat="47.25295" lon="-1.58742">
        <ele>20.5</ele>
        <time>2020-06-07T08:44:19Z</time>
      </trkpt>
      <trkpt lat="47.25294" lon="-1.58743">
        <ele>20.5</ele>
        <time>2020-06-07T08:44:20Z</time>
      </trkpt>
      <trkpt lat="47.25294" lon="-1.58744">
        <ele>20.5</ele>
        <time>2020-06-07T08:44:21Z</time>
      </trkpt>
      <trkpt lat="47.25294" lon="-1.58745">
        <ele>20.5</ele>
        <time>2020-06-07T08:44:22Z</time>
      </trkpt>
      <trkpt lat="47.25293" lon="-1.58746">
        <ele>20.5</ele>
        <time>2020-06-07T08:44:23Z</time>
      </trkpt>
      <trkpt lat="47.25293" lon="-1.58748">
        <ele>20.5</ele>
        <time>2020-06-07T08:44:24Z</time>
      </trkpt>
      <trkpt lat="47.25292" lon="-1.58749">
        <ele>20.5</ele>
        <time>2020-06-07T08:44:25Z</time>
      </trkpt>
      <trkpt lat="47.25292" lon="-1.5875">
        <ele>20.5</ele>
        <time>2020-06-07T08:44:26Z</time>
      </trkpt>
      <trkpt lat="47.25291" lon="-1.58751">
        <ele>20.5</ele>
        <time>2020-06-07T08:44:27Z</time>
      </trkpt>
      <trkpt lat="47.2529" lon="-1.58753">
        <ele>20.4</ele>
        <time>2020-06-07T08:44:28Z</time>
      </trkpt>
      <trkpt lat="47.2529" lon="-1.58754">
        <ele>20.4</ele>
        <time>2020-06-07T08:44:29Z</time>
      </trkpt>
      <trkpt lat="47.25289" lon="-1.58755">
        <ele>20.3</ele>
        <time>2020-06-07T08:44:30Z</time>
      </trkpt>
      <trkpt lat="47.25288" lon="-1.58757">
        <ele>20.3</ele>
        <time>2020-06-07T08:44:31Z</time>
      </trkpt>
      <trkpt lat="47.25288" lon="-1.58758">
        <ele>20.3</ele>
        <time>2020-06-07T08:44:32Z</time>
      </trkpt>
      <trkpt lat="47.25287" lon="-1.58759">
        <ele>20.2</ele>
        <time>2020-06-07T08:44:33Z</time>
      </trkpt>
      <trkpt lat="47.25287" lon="-1.5876">
        <ele>20.2</ele>
        <time>2020-06-07T08:44:34Z</time>
      </trkpt>
      <trkpt lat="47.25286" lon="-1.58762">
        <ele>20.2</ele>
        <time>2020-06-07T08:44:35Z</time>
      </trkpt>
      <trkpt lat="47.25286" lon="-1.58763">
        <ele>20.1</ele>
        <time>2020-06-07T08:44:36Z</time>
      </trkpt>
      <trkpt lat="47.25286" lon="-1.58765">
        <ele>20.1</ele>
        <time>2020-06-07T08:44:37Z</time>
      </trkpt>
      <trkpt lat="47.25286" lon="-1.58766">
        <ele>20.1</ele>
        <time>2020-06-07T08:44:38Z</time>
      </trkpt>
      <trkpt lat="47.25286" lon="-1.58768">
        <ele>20.1</ele>
        <time>2020-06-07T08:44:39Z</time>
      </trkpt>
      <trkpt lat="47.25286" lon="-1.5877">
        <ele>20</ele>
        <time>2020-06-07T08:44:40Z</time>
      </trkpt>
      <trkpt lat="47.25286" lon="-1.58772">
        <ele>20</ele>
        <time>2020-06-07T08:44:41Z</time>
      </trkpt>
      <trkpt lat="47.25286" lon="-1.58774">
        <ele>20</ele>
        <time>2020-06-07T08:44:42Z</time>
      </trkpt>
      <trkpt lat="47.25286" lon="-1.58776">
        <ele>20</ele>
        <time>2020-06-07T08:44:43Z</time>
      </trkpt>
      <trkpt lat="47.25286" lon="-1.58778">
        <ele>19.9</ele>
        <time>2020-06-07T08:44:44Z</time>
      </trkpt>
      <trkpt lat="47.25286" lon="-1.5878">
        <ele>19.9</ele>
        <time>2020-06-07T08:44:45Z</time>
      </trkpt>
      <trkpt lat="47.25286" lon="-1.58782">
        <ele>19.9</ele>
        <time>2020-06-07T08:44:46Z</time>
      </trkpt>
      <trkpt lat="47.25286" lon="-1.58784">
        <ele>19.9</ele>
        <time>2020-06-07T08:44:47Z</time>
      </trkpt>
      <trkpt lat="47.25286" lon="-1.58786">
        <ele>19.9</ele>
        <time>2020-06-07T08:44:48Z</time>
      </trkpt>
      <trkpt lat="47.25286" lon="-1.58788">
        <ele>19.8</ele>
        <time>2020-06-07T08:44:49Z</time>
      </trkpt>
      <trkpt lat="47.25286" lon="-1.5879">
        <ele>19.8</ele>
        <time>2020-06-07T08:44:50Z</time>
      </trkpt>
      <trkpt lat="47.25286" lon="-1.58792">
        <ele>19.8</ele>
        <time>2020-06-07T08:44:51Z</time>
      </trkpt>
      <trkpt lat="47.25287" lon="-1.58794">
        <ele>19.8</ele>
        <time>2020-06-07T08:44:52Z</time>
      </trkpt>
      <trkpt lat="47.25287" lon="-1.58796">
        <ele>19.8</ele>
        <time>2020-06-07T08:44:53Z</time>
      </trkpt>
      <trkpt lat="47.25287" lon="-1.58798">
        <ele>19.8</ele>
        <time>2020-06-07T08:44:54Z</time>
      </trkpt>
      <trkpt lat="47.25287" lon="-1.58799">
        <ele>19.7</ele>
        <time>2020-06-07T08:44:55Z</time>
      </trkpt>
      <trkpt lat="47.25287" lon="-1.58801">
        <ele>19.7</ele>
        <time>2020-06-07T08:44:56Z</time>
      </trkpt>
      <trkpt lat="47.25287" lon="-1.58803">
        <ele>19.7</ele>
        <time>2020-06-07T08:44:57Z</time>
      </trkpt>
      <trkpt lat="47.25287" lon="-1.58804">
        <ele>19.7</ele>
        <time>2020-06-07T08:44:58Z</time>
      </trkpt>
      <trkpt lat="47.25287" lon="-1.58806">
        <ele>19.7</ele>
        <time>2020-06-07T08:44:59Z</time>
      </trkpt>
      <trkpt lat="47.25288" lon="-1.58807">
        <ele>19.7</ele>
        <time>2020-06-07T08:45:00Z</time>
      </trkpt>
      <trkpt lat="47.25288" lon="-1.58808">
        <ele>19.7</ele>
        <time>2020-06-07T08:45:01Z</time>
      </trkpt>
      <trkpt lat="47.25288" lon="-1.58809">
        <ele>19.7</ele>
        <time>2020-06-07T08:45:02Z</time>
      </trkpt>
      <trkpt lat="47.25288" lon="-1.5881">
        <ele>19.6</ele>
        <time>2020-06-07T08:45:03Z</time>
      </trkpt>
      <trkpt lat="47.25288" lon="-1.58811">
        <ele>19.6</ele>
        <time>2020-06-07T08:45:04Z</time>
      </trkpt>
      <trkpt lat="47.25288" lon="-1.58812">
        <ele>19.6</ele>
        <time>2020-06-07T08:45:05Z</time>
      </trkpt>
      <trkpt lat="47.25288" lon="-1.58812">
        <ele>19.6</ele>
        <time>2020-06-07T08:45:06Z</time>
      </trkpt>
      <trkpt lat="47.25288" lon="-1.58813">
        <ele>19.6</ele>
        <time>2020-06-07T08:45:07Z</time>
      </trkpt>
      <trkpt lat="47.25288" lon="-1.58814">
        <ele>19.6</ele>
        <time>2020-06-07T08:45:08Z</time>
      </trkpt>
      <trkpt lat="47.25288" lon="-1.58815">
        <ele>19.6</ele>
        <time>2020-06-07T08:45:09Z</time>
      </trkpt>
      <trkpt lat="47.25288" lon="-1.58816">
        <ele>19.6</ele>
        <time>2020-06-07T08:45:10Z</time>
      </trkpt>
      <trkpt lat="47.25288" lon="-1.58818">
        <ele>19.6</ele>
        <time>2020-06-07T08:45:11Z</time>
      </trkpt>
      <trkpt lat="47.25288" lon="-1.58819">
        <ele>19.6</ele>
        <time>2020-06-07T08:45:12Z</time>
      </trkpt>
      <trkpt lat="47.25289" lon="-1.58821">
        <ele>19.5</ele>
        <time>2020-06-07T08:45:13Z</time>
      </trkpt>
      <trkpt lat="47.25289" lon="-1.58822">
        <ele>19.5</ele>
        <time>2020-06-07T08:45:14Z</time>
      </trkpt>
      <trkpt lat="47.25289" lon="-1.58822">
        <ele>19.5</ele>
        <time>2020-06-07T08:45:15Z</time>
      </trkpt>
      <trkpt lat="47.25289" lon="-1.58823">
        <ele>19.5</ele>
        <time>2020-06-07T08:45:16Z</time>
      </trkpt>
      <trkpt lat="47.25289" lon="-1.58823">
        <ele>19.5</ele>
        <time>2020-06-07T08:45:17Z</time>
      </trkpt>
      <trkpt lat="47.25289" lon="-1.58823">
        <ele>19.5</ele>
        <time>2020-06-07T08:45:18Z</time>
      </trkpt>
      <trkpt lat="47.25289" lon="-1.58824">
        <ele>19.5</ele>
        <time>2020-06-07T08:45:19Z</time>
      </trkpt>
      <trkpt lat="47.25289" lon="-1.58824">
        <ele>19.5</ele>
        <time>2020-06-07T08:45:20Z</time>
      </trkpt>
      <trkpt lat="47.25289" lon="-1.58825">
        <ele>19.5</ele>
        <time>2020-06-07T08:45:21Z</time>
      </trkpt>
      <trkpt lat="47.25289" lon="-1.58826">
        <ele>19.5</ele>
        <time>2020-06-07T08:45:22Z</time>
      </trkpt>
      <trkpt lat="47.2529" lon="-1.58828">
        <ele>19.5</ele>
        <time>2020-06-07T08:45:23Z</time>
      </trkpt>
      <trkpt lat="47.2529" lon="-1.58829">
        <ele>19.5</ele>
        <time>2020-06-07T08:45:24Z</time>
      </trkpt>
      <trkpt lat="47.2529" lon="-1.58831">
        <ele>19.5</ele>
        <time>2020-06-07T08:45:25Z</time>
      </trkpt>
      <trkpt lat="47.2529" lon="-1.58832">
        <ele>19.4</ele>
        <time>2020-06-07T08:45:26Z</time>
      </trkpt>
      <trkpt lat="47.25289" lon="-1.58833">
        <ele>19.4</ele>
        <time>2020-06-07T08:45:27Z</time>
      </trkpt>
      <trkpt lat="47.25289" lon="-1.58833">
        <ele>19.4</ele>
        <time>2020-06-07T08:45:28Z</time>
      </trkpt>
      <trkpt lat="47.25288" lon="-1.58834">
        <ele>19.4</ele>
        <time>2020-06-07T08:45:29Z</time>
      </trkpt>
      <trkpt lat="47.25288" lon="-1.58835">
        <ele>19.4</ele>
        <time>2020-06-07T08:45:30Z</time>
      </trkpt>
      <trkpt lat="47.25287" lon="-1.58835">
        <ele>19.3</ele>
        <time>2020-06-07T08:45:31Z</time>
      </trkpt>
      <trkpt lat="47.25286" lon="-1.58835">
        <ele>19.3</ele>
        <time>2020-06-07T08:45:32Z</time>
      </trkpt>
      <trkpt lat="47.25286" lon="-1.58835">
        <ele>19.3</ele>
        <time>2020-06-07T08:45:33Z</time>
      </trkpt>
      <trkpt lat="47.25285" lon="-1.58835">
        <ele>19.3</ele>
        <time>2020-06-07T08:45:34Z</time>
      </trkpt>
      <trkpt lat="47.25284" lon="-1.58835">
        <ele>19.2</ele>
        <time>2020-06-07T08:45:35Z</time>
      </trkpt>
      <trkpt lat="47.25283" lon="-1.58835">
        <ele>19.2</ele>
        <time>2020-06-07T08:45:36Z</time>
      </trkpt>
      <trkpt lat="47.25282" lon="-1.58835">
        <ele>19.2</ele>
        <time>2020-06-07T08:45:37Z</time>
      </trkpt>
      <trkpt lat="47.25281" lon="-1.58835">
        <ele>19.1</ele>
        <time>2020-06-07T08:45:38Z</time>
      </trkpt>
      <trkpt lat="47.2528" lon="-1.58834">
        <ele>19.1</ele>
        <time>2020-06-07T08:45:39Z</time>
      </trkpt>
      <trkpt lat="47.25279" lon="-1.58834">
        <ele>19.1</ele>
        <time>2020-06-07T08:45:40Z</time>
      </trkpt>
      <trkpt lat="47.25278" lon="-1.58834">
        <ele>19</ele>
        <time>2020-06-07T08:45:41Z</time>
      </trkpt>
      <trkpt lat="47.25277" lon="-1.58833">
        <ele>19</ele>
        <time>2020-06-07T08:45:42Z</time>
      </trkpt>
      <trkpt lat="47.25276" lon="-1.58833">
        <ele>18.9</ele>
        <time>2020-06-07T08:45:43Z</time>
      </trkpt>
      <trkpt lat="47.25275" lon="-1.58832">
        <ele>18.9</ele>
        <time>2020-06-07T08:45:44Z</time>
      </trkpt>
      <trkpt lat="47.25274" lon="-1.58832">
        <ele>18.9</ele>
        <time>2020-06-07T08:45:45Z</time>
      </trkpt>
      <trkpt lat="47.25273" lon="-1.58831">
        <ele>18.9</ele>
        <time>2020-06-07T08:45:46Z</time>
      </trkpt>
      <trkpt lat="47.25272" lon="-1.5883">
        <ele>18.8</ele>
        <time>2020-06-07T08:45:47Z</time>
      </trkpt>
      <trkpt lat="47.25271" lon="-1.5883">
        <ele>18.8</ele>
        <time>2020-06-07T08:45:48Z</time>
      </trkpt>
      <trkpt lat="47.2527" lon="-1.58829">
        <ele>18.8</ele>
        <time>2020-06-07T08:45:49Z</time>
      </trkpt>
      <trkpt lat="47.25269" lon="-1.58828">
        <ele>18.7</ele>
        <time>2020-06-07T08:45:50Z</time>
      </trkpt>
      <trkpt lat="47.25268" lon="-1.58827">
        <ele>18.7</ele>
        <time>2020-06-07T08:45:51Z</time>
      </trkpt>
      <trkpt lat="47.25267" lon="-1.58827">
        <ele>18.7</ele>
        <time>2020-06-07T08:45:52Z</time>
      </trkpt>
      <trkpt lat="47.25266" lon="-1.58826">
        <ele>18.7</ele>
        <time>2020-06-07T08:45:53Z</time>
      </trkpt>
      <trkpt lat="47.25265" lon="-1.58825">
        <ele>18.6</ele>
        <time>2020-06-07T08:45:54Z</time>
      </trkpt>
      <trkpt lat="47.25264" lon="-1.58825">
        <ele>18.6</ele>
        <time>2020-06-07T08:45:55Z</time>
      </trkpt>
      <trkpt lat="47.25263" lon="-1.58824">
        <ele>18.6</ele>
        <time>2020-06-07T08:45:56Z</time>
      </trkpt>
      <trkpt lat="47.25262" lon="-1.58824">
        <ele>18.5</ele>
        <time>2020-06-07T08:45:57Z</time>
      </trkpt>
      <trkpt lat="47.25261" lon="-1.58823">
        <ele>18.5</ele>
        <time>2020-06-07T08:45:58Z</time>
      </trkpt>
      <trkpt lat="47.2526" lon="-1.58823">
        <ele>18.5</ele>
        <time>2020-06-07T08:45:59Z</time>
      </trkpt>
      <trkpt lat="47.25259" lon="-1.58823">
        <ele>18.5</ele>
        <time>2020-06-07T08:46:00Z</time>
      </trkpt>
      <trkpt lat="47.25258" lon="-1.58823">
        <ele>18.4</ele>
        <time>2020-06-07T08:46:01Z</time>
      </trkpt>
      <trkpt lat="47.25257" lon="-1.58823">
        <ele>18.4</ele>
        <time>2020-06-07T08:46:02Z</time>
      </trkpt>
      <trkpt lat="47.25256" lon="-1.58823">
        <ele>18.4</ele>
        <time>2020-06-07T08:46:03Z</time>
      </trkpt>
      <trkpt lat="47.25256" lon="-1.58823">
        <ele>18.3</ele>
        <time>2020-06-07T08:46:04Z</time>
      </trkpt>
      <trkpt lat="47.25255" lon="-1.58823">
        <ele>18.3</ele>
        <time>2020-06-07T08:46:05Z</time>
      </trkpt>
      <trkpt lat="47.25254" lon="-1.58823">
        <ele>18.3</ele>
        <time>2020-06-07T08:46:06Z</time>
      </trkpt>
      <trkpt lat="47.25253" lon="-1.58824">
        <ele>18.2</ele>
        <time>2020-06-07T08:46:07Z</time>
      </trkpt>
      <trkpt lat="47.25252" lon="-1.58824">
        <ele>18.2</ele>
        <time>2020-06-07T08:46:08Z</time>
      </trkpt>
      <trkpt lat="47.25252" lon="-1.58825">
        <ele>18.2</ele>
        <time>2020-06-07T08:46:09Z</time>
      </trkpt>
      <trkpt lat="47.25251" lon="-1.58825">
        <ele>18.1</ele>
        <time>2020-06-07T08:46:10Z</time>
      </trkpt>
      <trkpt lat="47.2525" lon="-1.58826">
        <ele>18.1</ele>
        <time>2020-06-07T08:46:11Z</time>
      </trkpt>
      <trkpt lat="47.25249" lon="-1.58827">
        <ele>18.1</ele>
        <time>2020-06-07T08:46:12Z</time>
      </trkpt>
      <trkpt lat="47.25249" lon="-1.58827">
        <ele>18.2</ele>
        <time>2020-06-07T08:46:13Z</time>
      </trkpt>
      <trkpt lat="47.25248" lon="-1.58828">
        <ele>18.2</ele>
        <time>2020-06-07T08:46:14Z</time>
      </trkpt>
      <trkpt lat="47.25247" lon="-1.58829">
        <ele>18.3</ele>
        <time>2020-06-07T08:46:15Z</time>
      </trkpt>
      <trkpt lat="47.25246" lon="-1.5883">
        <ele>18.3</ele>
        <time>2020-06-07T08:46:16Z</time>
      </trkpt>
      <trkpt lat="47.25246" lon="-1.58831">
        <ele>18.3</ele>
        <time>2020-06-07T08:46:17Z</time>
      </trkpt>
      <trkpt lat="47.25245" lon="-1.58832">
        <ele>18.4</ele>
        <time>2020-06-07T08:46:18Z</time>
      </trkpt>
      <trkpt lat="47.25244" lon="-1.58833">
        <ele>18.4</ele>
        <time>2020-06-07T08:46:19Z</time>
      </trkpt>
      <trkpt lat="47.25244" lon="-1.58834">
        <ele>18.5</ele>
        <time>2020-06-07T08:46:20Z</time>
      </trkpt>
      <trkpt lat="47.25243" lon="-1.58836">
        <ele>18.6</ele>
        <time>2020-06-07T08:46:21Z</time>
      </trkpt>
      <trkpt lat="47.25243" lon="-1.58837">
        <ele>18.7</ele>
        <time>2020-06-07T08:46:22Z</time>
      </trkpt>
      <trkpt lat="47.25242" lon="-1.58838">
        <ele>18.7</ele>
        <time>2020-06-07T08:46:23Z</time>
      </trkpt>
      <trkpt lat="47.25241" lon="-1.58839">
        <ele>18.8</ele>
        <time>2020-06-07T08:46:24Z</time>
      </trkpt>
      <trkpt lat="47.25241" lon="-1.5884">
        <ele>18.9</ele>
        <time>2020-06-07T08:46:25Z</time>
      </trkpt>
      <trkpt lat="47.2524" lon="-1.58842">
        <ele>19</ele>
        <time>2020-06-07T08:46:26Z</time>
      </trkpt>
      <trkpt lat="47.2524" lon="-1.58843">
        <ele>19.1</ele>
        <time>2020-06-07T08:46:27Z</time>
      </trkpt>
      <trkpt lat="47.25239" lon="-1.58844">
        <ele>19.2</ele>
        <time>2020-06-07T08:46:28Z</time>
      </trkpt>
      <trkpt lat="47.25239" lon="-1.58846">
        <ele>19.3</ele>
        <time>2020-06-07T08:46:29Z</time>
      </trkpt>
      <trkpt lat="47.25238" lon="-1.58847">
        <ele>19.4</ele>
        <time>2020-06-07T08:46:30Z</time>
      </trkpt>
      <trkpt lat="47.25237" lon="-1.58848">
        <ele>19.5</ele>
        <time>2020-06-07T08:46:31Z</time>
      </trkpt>
      <trkpt lat="47.25237" lon="-1.58849">
        <ele>19.6</ele>
        <time>2020-06-07T08:46:32Z</time>
      </trkpt>
      <trkpt lat="47.25236" lon="-1.58851">
        <ele>19.6</ele>
        <time>2020-06-07T08:46:33Z</time>
      </trkpt>
      <trkpt lat="47.25236" lon="-1.58852">
        <ele>19.7</ele>
        <time>2020-06-07T08:46:34Z</time>
      </trkpt>
      <trkpt lat="47.25235" lon="-1.58853">
        <ele>19.8</ele>
        <time>2020-06-07T08:46:35Z</time>
      </trkpt>
      <trkpt lat="47.25235" lon="-1.58854">
        <ele>19.9</ele>
        <time>2020-06-07T08:46:36Z</time>
      </trkpt>
      <trkpt lat="47.25234" lon="-1.58855">
        <ele>20</ele>
        <time>2020-06-07T08:46:37Z</time>
      </trkpt>
      <trkpt lat="47.25233" lon="-1.58856">
        <ele>20.1</ele>
        <time>2020-06-07T08:46:38Z</time>
      </trkpt>
      <trkpt lat="47.25233" lon="-1.58857">
        <ele>20.2</ele>
        <time>2020-06-07T08:46:39Z</time>
      </trkpt>
      <trkpt lat="47.25232" lon="-1.58858">
        <ele>20.2</ele>
        <time>2020-06-07T08:46:40Z</time>
      </trkpt>
      <trkpt lat="47.25232" lon="-1.58859">
        <ele>20.3</ele>
        <time>2020-06-07T08:46:41Z</time>
      </trkpt>
      <trkpt lat="47.25231" lon="-1.5886">
        <ele>20.4</ele>
        <time>2020-06-07T08:46:42Z</time>
      </trkpt>
      <trkpt lat="47.25231" lon="-1.58861">
        <ele>20.5</ele>
        <time>2020-06-07T08:46:43Z</time>
      </trkpt>
      <trkpt lat="47.2523" lon="-1.58862">
        <ele>20.6</ele>
        <time>2020-06-07T08:46:44Z</time>
      </trkpt>
      <trkpt lat="47.25229" lon="-1.58863">
        <ele>20.6</ele>
        <time>2020-06-07T08:46:45Z</time>
      </trkpt>
      <trkpt lat="47.25229" lon="-1.58864">
        <ele>20.7</ele>
        <time>2020-06-07T08:46:46Z</time>
      </trkpt>
      <trkpt lat="47.25228" lon="-1.58865">
        <ele>20.8</ele>
        <time>2020-06-07T08:46:47Z</time>
      </trkpt>
      <trkpt lat="47.25228" lon="-1.58866">
        <ele>20.9</ele>
        <time>2020-06-07T08:46:48Z</time>
      </trkpt>
      <trkpt lat="47.25227" lon="-1.58867">
        <ele>21</ele>
        <time>2020-06-07T08:46:49Z</time>
      </trkpt>
      <trkpt lat="47.25227" lon="-1.58868">
        <ele>21</ele>
        <time>2020-06-07T08:46:50Z</time>
      </trkpt>
      <trkpt lat="47.25226" lon="-1.58869">
        <ele>21.1</ele>
        <time>2020-06-07T08:46:51Z</time>
      </trkpt>
      <trkpt lat="47.25226" lon="-1.5887">
        <ele>21.2</ele>
        <time>2020-06-07T08:46:52Z</time>
      </trkpt>
      <trkpt lat="47.25225" lon="-1.58871">
        <ele>21.3</ele>
        <time>2020-06-07T08:46:53Z</time>
      </trkpt>
      <trkpt lat="47.25225" lon="-1.58872">
        <ele>21.3</ele>
        <time>2020-06-07T08:46:54Z</time>
      </trkpt>
      <trkpt lat="47.25225" lon="-1.58873">
        <ele>21.4</ele>
        <time>2020-06-07T08:46:55Z</time>
      </trkpt>
      <trkpt lat="47.25224" lon="-1.58875">
        <ele>21.5</ele>
        <time>2020-06-07T08:46:56Z</time>
      </trkpt>
      <trkpt lat="47.25224" lon="-1.58876">
        <ele>21.6</ele>
        <time>2020-06-07T08:46:57Z</time>
      </trkpt>
      <trkpt lat="47.25224" lon="-1.58877">
        <ele>21.6</ele>
        <time>2020-06-07T08:46:58Z</time>
      </trkpt>
      <trkpt lat="47.25223" lon="-1.58878">
        <ele>21.7</ele>
        <time>2020-06-07T08:46:59Z</time>
      </trkpt>
      <trkpt lat="47.25223" lon="-1.58879">
        <ele>21.8</ele>
        <time>2020-06-07T08:47:00Z</time>
      </trkpt>
      <trkpt lat="47.25223" lon="-1.5888">
        <ele>21.8</ele>
        <time>2020-06-07T08:47:01Z</time>
      </trkpt>
      <trkpt lat="47.25223" lon="-1.58882">
        <ele>21.9</ele>
        <time>2020-06-07T08:47:02Z</time>
      </trkpt>
      <trkpt lat="47.25223" lon="-1.58883">
        <ele>22</ele>
        <time>2020-06-07T08:47:03Z</time>
      </trkpt>
      <trkpt lat="47.25222" lon="-1.58884">
        <ele>22</ele>
        <time>2020-06-07T08:47:04Z</time>
      </trkpt>
      <trkpt lat="47.25222" lon="-1.58885">
        <ele>22.1</ele>
        <time>2020-06-07T08:47:05Z</time>
      </trkpt>
      <trkpt lat="47.25223" lon="-1.58886">
        <ele>22.1</ele>
        <time>2020-06-07T08:47:06Z</time>
      </trkpt>
      <trkpt lat="47.25223" lon="-1.58887">
        <ele>22.1</ele>
        <time>2020-06-07T08:47:07Z</time>
      </trkpt>
      <trkpt lat="47.25223" lon="-1.58889">
        <ele>22.2</ele>
        <time>2020-06-07T08:47:08Z</time>
      </trkpt>
      <trkpt lat="47.25223" lon="-1.5889">
        <ele>22.2</ele>
        <time>2020-06-07T08:47:09Z</time>
      </trkpt>
      <trkpt lat="47.25224" lon="-1.58891">
        <ele>22.2</ele>
        <time>2020-06-07T08:47:10Z</time>
      </trkpt>
      <trkpt lat="47.25224" lon="-1.58892">
        <ele>22.2</ele>
        <time>2020-06-07T08:47:11Z</time>
      </trkpt>
      <trkpt lat="47.25225" lon="-1.58893">
        <ele>22.2</ele>
        <time>2020-06-07T08:47:12Z</time>
      </trkpt>
      <trkpt lat="47.25225" lon="-1.58893">
        <ele>22.2</ele>
        <time>2020-06-07T08:47:13Z</time>
      </trkpt>
      <trkpt lat="47.25226" lon="-1.58894">
        <ele>22.1</ele>
        <time>2020-06-07T08:47:14Z</time>
      </trkpt>
      <trkpt lat="47.25227" lon="-1.58895">
        <ele>22.1</ele>
        <time>2020-06-07T08:47:15Z</time>
      </trkpt>
      <trkpt lat="47.25227" lon="-1.58896">
        <ele>22.1</ele>
        <time>2020-06-07T08:47:16Z</time>
      </trkpt>
      <trkpt lat="47.25228" lon="-1.58897">
        <ele>22.1</ele>
        <time>2020-06-07T08:47:17Z</time>
      </trkpt>
      <trkpt lat="47.25229" lon="-1.58898">
        <ele>22</ele>
        <time>2020-06-07T08:47:18Z</time>
      </trkpt>
      <trkpt lat="47.2523" lon="-1.58899">
        <ele>22</ele>
        <time>2020-06-07T08:47:19Z</time>
      </trkpt>
      <trkpt lat="47.25231" lon="-1.589">
        <ele>22</ele>
        <time>2020-06-07T08:47:20Z</time>
      </trkpt>
      <trkpt lat="47.25232" lon="-1.58901">
        <ele>21.9</ele>
        <time>2020-06-07T08:47:21Z</time>
      </trkpt>
      <trkpt lat="47.25233" lon="-1.58902">
        <ele>21.9</ele>
        <time>2020-06-07T08:47:22Z</time>
      </trkpt>
      <trkpt lat="47.25233" lon="-1.58903">
        <ele>21.9</ele>
        <time>2020-06-07T08:47:23Z</time>
      </trkpt>
      <trkpt lat="47.25234" lon="-1.58904">
        <ele>21.8</ele>
        <time>2020-06-07T08:47:24Z</time>
      </trkpt>
      <trkpt lat="47.25235" lon="-1.58906">
        <ele>21.8</ele>
        <time>2020-06-07T08:47:25Z</time>
      </trkpt>
      <trkpt lat="47.25236" lon="-1.58907">
        <ele>21.8</ele>
        <time>2020-06-07T08:47:26Z</time>
      </trkpt>
      <trkpt lat="47.25237" lon="-1.58908">
        <ele>21.7</ele>
        <time>2020-06-07T08:47:27Z</time>
      </trkpt>
      <trkpt lat="47.25238" lon="-1.58909">
        <ele>21.7</ele>
        <time>2020-06-07T08:47:28Z</time>
      </trkpt>
      <trkpt lat="47.25239" lon="-1.5891">
        <ele>21.7</ele>
        <time>2020-06-07T08:47:29Z</time>
      </trkpt>
      <trkpt lat="47.2524" lon="-1.58911">
        <ele>21.6</ele>
        <time>2020-06-07T08:47:30Z</time>
      </trkpt>
      <trkpt lat="47.25241" lon="-1.58912">
        <ele>21.6</ele>
        <time>2020-06-07T08:47:31Z</time>
      </trkpt>
      <trkpt lat="47.25242" lon="-1.58913">
        <ele>21.5</ele>
        <time>2020-06-07T08:47:32Z</time>
      </trkpt>
      <trkpt lat="47.25243" lon="-1.58914">
        <ele>21.5</ele>
        <time>2020-06-07T08:47:33Z</time>
      </trkpt>
      <trkpt lat="47.25244" lon="-1.58915">
        <ele>21.5</ele>
        <time>2020-06-07T08:47:34Z</time>
      </trkpt>
      <trkpt lat="47.25244" lon="-1.58915">
        <ele>21.4</ele>
        <time>2020-06-07T08:47:35Z</time>
      </trkpt>
      <trkpt lat="47.25245" lon="-1.58916">
        <ele>21.4</ele>
        <time>2020-06-07T08:47:36Z</time>
      </trkpt>
      <trkpt lat="47.25246" lon="-1.58917">
        <ele>21.4</ele>
        <time>2020-06-07T08:47:37Z</time>
      </trkpt>
      <trkpt lat="47.25247" lon="-1.58918">
        <ele>21.4</ele>
        <time>2020-06-07T08:47:38Z</time>
      </trkpt>
      <trkpt lat="47.25248" lon="-1.58919">
        <ele>21.5</ele>
        <time>2020-06-07T08:47:39Z</time>
      </trkpt>
      <trkpt lat="47.25248" lon="-1.5892">
        <ele>21.5</ele>
        <time>2020-06-07T08:47:40Z</time>
      </trkpt>
      <trkpt lat="47.25249" lon="-1.58921">
        <ele>21.5</ele>
        <time>2020-06-07T08:47:41Z</time>
      </trkpt>
      <trkpt lat="47.2525" lon="-1.58922">
        <ele>21.6</ele>
        <time>2020-06-07T08:47:42Z</time>
      </trkpt>
      <trkpt lat="47.25251" lon="-1.58923">
        <ele>21.7</ele>
        <time>2020-06-07T08:47:43Z</time>
      </trkpt>
      <trkpt lat="47.25252" lon="-1.58924">
        <ele>21.7</ele>
        <time>2020-06-07T08:47:44Z</time>
      </trkpt>
      <trkpt lat="47.25252" lon="-1.58925">
        <ele>21.8</ele>
        <time>2020-06-07T08:47:45Z</time>
      </trkpt>
      <trkpt lat="47.25253" lon="-1.58926">
        <ele>21.9</ele>
        <time>2020-06-07T08:47:46Z</time>
      </trkpt>
      <trkpt lat="47.25254" lon="-1.58927">
        <ele>22</ele>
        <time>2020-06-07T08:47:47Z</time>
      </trkpt>
      <trkpt lat="47.25255" lon="-1.58928">
        <ele>22</ele>
        <time>2020-06-07T08:47:48Z</time>
      </trkpt>
      <trkpt lat="47.25256" lon="-1.58929">
        <ele>22.1</ele>
        <time>2020-06-07T08:47:49Z</time>
      </trkpt>
      <trkpt lat="47.25257" lon="-1.5893">
        <ele>22.2</ele>
        <time>2020-06-07T08:47:50Z</time>
      </trkpt>
      <trkpt lat="47.25258" lon="-1.58931">
        <ele>22.2</ele>
        <time>2020-06-07T08:47:51Z</time>
      </trkpt>
      <trkpt lat="47.25259" lon="-1.58932">
        <ele>22.3</ele>
        <time>2020-06-07T08:47:52Z</time>
      </trkpt>
      <trkpt lat="47.2526" lon="-1.58933">
        <ele>22.3</ele>
        <time>2020-06-07T08:47:53Z</time>
      </trkpt>
      <trkpt lat="47.25261" lon="-1.58934">
        <ele>22.4</ele>
        <time>2020-06-07T08:47:54Z</time>
      </trkpt>
      <trkpt lat="47.25262" lon="-1.58935">
        <ele>22.4</ele>
        <time>2020-06-07T08:47:55Z</time>
      </trkpt>
      <trkpt lat="47.25263" lon="-1.58936">
        <ele>22.5</ele>
        <time>2020-06-07T08:47:56Z</time>
      </trkpt>
      <trkpt lat="47.25264" lon="-1.58937">
        <ele>22.5</ele>
        <time>2020-06-07T08:47:57Z</time>
      </trkpt>
      <trkpt lat="47.25265" lon="-1.58938">
        <ele>22.5</ele>
        <time>2020-06-07T08:47:58Z</time>
      </trkpt>
      <trkpt lat="47.25266" lon="-1.58939">
        <ele>22.6</ele>
        <time>2020-06-07T08:47:59Z</time>
      </trkpt>
      <trkpt lat="47.25267" lon="-1.5894">
        <ele>22.6</ele>
        <time>2020-06-07T08:48:00Z</time>
      </trkpt>
      <trkpt lat="47.25268" lon="-1.58941">
        <ele>22.6</ele>
        <time>2020-06-07T08:48:01Z</time>
      </trkpt>
      <trkpt lat="47.25269" lon="-1.58942">
        <ele>22.7</ele>
        <time>2020-06-07T08:48:02Z</time>
      </trkpt>
      <trkpt lat="47.2527" lon="-1.58943">
        <ele>22.7</ele>
        <time>2020-06-07T08:48:03Z</time>
      </trkpt>
      <trkpt lat="47.25271" lon="-1.58944">
        <ele>22.7</ele>
        <time>2020-06-07T08:48:04Z</time>
      </trkpt>
      <trkpt lat="47.25272" lon="-1.58945">
        <ele>22.7</ele>
        <time>2020-06-07T08:48:05Z</time>
      </trkpt>
      <trkpt lat="47.25272" lon="-1.58946">
        <ele>22.7</ele>
        <time>2020-06-07T08:48:06Z</time>
      </trkpt>
      <trkpt lat="47.25273" lon="-1.58947">
        <ele>22.8</ele>
        <time>2020-06-07T08:48:07Z</time>
      </trkpt>
      <trkpt lat="47.25274" lon="-1.58947">
        <ele>22.8</ele>
        <time>2020-06-07T08:48:08Z</time>
      </trkpt>
      <trkpt lat="47.25275" lon="-1.58948">
        <ele>22.8</ele>
        <time>2020-06-07T08:48:09Z</time>
      </trkpt>
      <trkpt lat="47.25276" lon="-1.58949">
        <ele>22.8</ele>
        <time>2020-06-07T08:48:10Z</time>
      </trkpt>
      <trkpt lat="47.25277" lon="-1.5895">
        <ele>22.8</ele>
        <time>2020-06-07T08:48:11Z</time>
      </trkpt>
      <trkpt lat="47.25277" lon="-1.58951">
        <ele>22.8</ele>
        <time>2020-06-07T08:48:12Z</time>
      </trkpt>
      <trkpt lat="47.25278" lon="-1.58952">
        <ele>22.8</ele>
        <time>2020-06-07T08:48:13Z</time>
      </trkpt>
      <trkpt lat="47.25279" lon="-1.58953">
        <ele>22.8</ele>
        <time>2020-06-07T08:48:14Z</time>
      </trkpt>
      <trkpt lat="47.2528" lon="-1.58953">
        <ele>22.8</ele>
        <time>2020-06-07T08:48:15Z</time>
      </trkpt>
      <trkpt lat="47.25281" lon="-1.58954">
        <ele>22.8</ele>
        <time>2020-06-07T08:48:16Z</time>
      </trkpt>
      <trkpt lat="47.25281" lon="-1.58955">
        <ele>22.8</ele>
        <time>2020-06-07T08:48:17Z</time>
      </trkpt>
      <trkpt lat="47.25282" lon="-1.58956">
        <ele>22.8</ele>
        <time>2020-06-07T08:48:18Z</time>
      </trkpt>
      <trkpt lat="47.25283" lon="-1.58957">
        <ele>22.8</ele>
        <time>2020-06-07T08:48:19Z</time>
      </trkpt>
      <trkpt lat="47.25284" lon="-1.58957">
        <ele>22.8</ele>
        <time>2020-06-07T08:48:20Z</time>
      </trkpt>
      <trkpt lat="47.25285" lon="-1.58958">
        <ele>22.8</ele>
        <time>2020-06-07T08:48:21Z</time>
      </trkpt>
      <trkpt lat="47.25286" lon="-1.58959">
        <ele>22.8</ele>
        <time>2020-06-07T08:48:22Z</time>
      </trkpt>
      <trkpt lat="47.25286" lon="-1.5896">
        <ele>22.7</ele>
        <time>2020-06-07T08:48:23Z</time>
      </trkpt>
      <trkpt lat="47.25287" lon="-1.5896">
        <ele>22.7</ele>
        <time>2020-06-07T08:48:24Z</time>
      </trkpt>
      <trkpt lat="47.25288" lon="-1.58961">
        <ele>22.7</ele>
        <time>2020-06-07T08:48:25Z</time>
      </trkpt>
      <trkpt lat="47.25289" lon="-1.58962">
        <ele>22.7</ele>
        <time>2020-06-07T08:48:26Z</time>
      </trkpt>
      <trkpt lat="47.2529" lon="-1.58962">
        <ele>22.6</ele>
        <time>2020-06-07T08:48:27Z</time>
      </trkpt>
      <trkpt lat="47.25291" lon="-1.58963">
        <ele>22.6</ele>
        <time>2020-06-07T08:48:28Z</time>
      </trkpt>
      <trkpt lat="47.25291" lon="-1.58964">
        <ele>22.6</ele>
        <time>2020-06-07T08:48:29Z</time>
      </trkpt>
      <trkpt lat="47.25292" lon="-1.58965">
        <ele>22.5</ele>
        <time>2020-06-07T08:48:30Z</time>
      </trkpt>
      <trkpt lat="47.25293" lon="-1.58966">
        <ele>22.5</ele>
        <time>2020-06-07T08:48:31Z</time>
      </trkpt>
      <trkpt lat="47.25294" lon="-1.58966">
        <ele>22.5</ele>
        <time>2020-06-07T08:48:32Z</time>
      </trkpt>
      <trkpt lat="47.25294" lon="-1.58967">
        <ele>22.5</ele>
        <time>2020-06-07T08:48:33Z</time>
      </trkpt>
      <trkpt lat="47.25295" lon="-1.58968">
        <ele>22.5</ele>
        <time>2020-06-07T08:48:34Z</time>
      </trkpt>
      <trkpt lat="47.25296" lon="-1.58969">
        <ele>22.5</ele>
        <time>2020-06-07T08:48:35Z</time>
      </trkpt>
      <trkpt lat="47.25296" lon="-1.5897">
        <ele>22.4</ele>
        <time>2020-06-07T08:48:36Z</time>
      </trkpt>
      <trkpt lat="47.25297" lon="-1.58971">
        <ele>22.4</ele>
        <time>2020-06-07T08:48:37Z</time>
      </trkpt>
      <trkpt lat="47.25298" lon="-1.58972">
        <ele>22.4</ele>
        <time>2020-06-07T08:48:38Z</time>
      </trkpt>
      <trkpt lat="47.25298" lon="-1.58973">
        <ele>22.4</ele>
        <time>2020-06-07T08:48:39Z</time>
      </trkpt>
      <trkpt lat="47.25299" lon="-1.58974">
        <ele>22.3</ele>
        <time>2020-06-07T08:48:40Z</time>
      </trkpt>
      <trkpt lat="47.253" lon="-1.58975">
        <ele>22.3</ele>
        <time>2020-06-07T08:48:41Z</time>
      </trkpt>
      <trkpt lat="47.25301" lon="-1.58976">
        <ele>22.3</ele>
        <time>2020-06-07T08:48:42Z</time>
      </trkpt>
      <trkpt lat="47.25302" lon="-1.58977">
        <ele>22.2</ele>
        <time>2020-06-07T08:48:43Z</time>
      </trkpt>
      <trkpt lat="47.25303" lon="-1.58977">
        <ele>22.1</ele>
        <time>2020-06-07T08:48:44Z</time>
      </trkpt>
      <trkpt lat="47.25304" lon="-1.58978">
        <ele>22.1</ele>
        <time>2020-06-07T08:48:45Z</time>
      </trkpt>
      <trkpt lat="47.25305" lon="-1.58979">
        <ele>22</ele>
        <time>2020-06-07T08:48:46Z</time>
      </trkpt>
      <trkpt lat="47.25306" lon="-1.5898">
        <ele>21.9</ele>
        <time>2020-06-07T08:48:47Z</time>
      </trkpt>
      <trkpt lat="47.25307" lon="-1.58981">
        <ele>21.8</ele>
        <time>2020-06-07T08:48:48Z</time>
      </trkpt>
      <trkpt lat="47.25308" lon="-1.58982">
        <ele>21.7</ele>
        <time>2020-06-07T08:48:49Z</time>
      </trkpt>
      <trkpt lat="47.25309" lon="-1.58982">
        <ele>21.6</ele>
        <time>2020-06-07T08:48:50Z</time>
      </trkpt>
      <trkpt lat="47.2531" lon="-1.58983">
        <ele>21.5</ele>
        <time>2020-06-07T08:48:51Z</time>
      </trkpt>
      <trkpt lat="47.25311" lon="-1.58984">
        <ele>21.4</ele>
        <time>2020-06-07T08:48:52Z</time>
      </trkpt>
      <trkpt lat="47.25313" lon="-1.58984">
        <ele>21.3</ele>
        <time>2020-06-07T08:48:53Z</time>
      </trkpt>
      <trkpt lat="47.25314" lon="-1.58985">
        <ele>21.2</ele>
        <time>2020-06-07T08:48:54Z</time>
      </trkpt>
      <trkpt lat="47.25315" lon="-1.58985">
        <ele>21.1</ele>
        <time>2020-06-07T08:48:55Z</time>
      </trkpt>
      <trkpt lat="47.25316" lon="-1.58986">
        <ele>21</ele>
        <time>2020-06-07T08:48:56Z</time>
      </trkpt>
      <trkpt lat="47.25317" lon="-1.58987">
        <ele>20.9</ele>
        <time>2020-06-07T08:48:57Z</time>
      </trkpt>
      <trkpt lat="47.25318" lon="-1.58987">
        <ele>20.7</ele>
        <time>2020-06-07T08:48:58Z</time>
      </trkpt>
      <trkpt lat="47.25319" lon="-1.58988">
        <ele>20.6</ele>
        <time>2020-06-07T08:48:59Z</time>
      </trkpt>
      <trkpt lat="47.2532" lon="-1.58988">
        <ele>20.5</ele>
        <time>2020-06-07T08:49:00Z</time>
      </trkpt>
      <trkpt lat="47.25321" lon="-1.58989">
        <ele>20.4</ele>
        <time>2020-06-07T08:49:01Z</time>
      </trkpt>
      <trkpt lat="47.25322" lon="-1.5899">
        <ele>20.3</ele>
        <time>2020-06-07T08:49:02Z</time>
      </trkpt>
      <trkpt lat="47.25323" lon="-1.58991">
        <ele>20.2</ele>
        <time>2020-06-07T08:49:03Z</time>
      </trkpt>
      <trkpt lat="47.25324" lon="-1.58991">
        <ele>20.2</ele>
        <time>2020-06-07T08:49:04Z</time>
      </trkpt>
      <trkpt lat="47.25324" lon="-1.58992">
        <ele>20.1</ele>
        <time>2020-06-07T08:49:05Z</time>
      </trkpt>
      <trkpt lat="47.25325" lon="-1.58993">
        <ele>20</ele>
        <time>2020-06-07T08:49:06Z</time>
      </trkpt>
      <trkpt lat="47.25326" lon="-1.58994">
        <ele>19.9</ele>
        <time>2020-06-07T08:49:07Z</time>
      </trkpt>
      <trkpt lat="47.25326" lon="-1.58995">
        <ele>19.9</ele>
        <time>2020-06-07T08:49:08Z</time>
      </trkpt>
      <trkpt lat="47.25327" lon="-1.58996">
        <ele>19.8</ele>
        <time>2020-06-07T08:49:09Z</time>
      </trkpt>
      <trkpt lat="47.25328" lon="-1.58997">
        <ele>19.8</ele>
        <time>2020-06-07T08:49:10Z</time>
      </trkpt>
      <trkpt lat="47.25328" lon="-1.58999">
        <ele>19.7</ele>
        <time>2020-06-07T08:49:11Z</time>
      </trkpt>
      <trkpt lat="47.25329" lon="-1.59">
        <ele>19.6</ele>
        <time>2020-06-07T08:49:12Z</time>
      </trkpt>
      <trkpt lat="47.2533" lon="-1.59001">
        <ele>19.6</ele>
        <time>2020-06-07T08:49:13Z</time>
      </trkpt>
      <trkpt lat="47.2533" lon="-1.59002">
        <ele>19.5</ele>
        <time>2020-06-07T08:49:14Z</time>
      </trkpt>
      <trkpt lat="47.25331" lon="-1.59003">
        <ele>19.5</ele>
        <time>2020-06-07T08:49:15Z</time>
      </trkpt>
      <trkpt lat="47.25332" lon="-1.59004">
        <ele>19.5</ele>
        <time>2020-06-07T08:49:16Z</time>
      </trkpt>
      <trkpt lat="47.25333" lon="-1.59006">
        <ele>19.5</ele>
        <time>2020-06-07T08:49:17Z</time>
      </trkpt>
      <trkpt lat="47.25334" lon="-1.59007">
        <ele>19.5</ele>
        <time>2020-06-07T08:49:18Z</time>
      </trkpt>
      <trkpt lat="47.25335" lon="-1.59008">
        <ele>19.5</ele>
        <time>2020-06-07T08:49:19Z</time>
      </trkpt>
      <trkpt lat="47.25336" lon="-1.59009">
        <ele>19.6</ele>
        <time>2020-06-07T08:49:20Z</time>
      </trkpt>
      <trkpt lat="47.25336" lon="-1.5901">
        <ele>19.6</ele>
        <time>2020-06-07T08:49:21Z</time>
      </trkpt>
      <trkpt lat="47.25337" lon="-1.59011">
        <ele>19.7</ele>
        <time>2020-06-07T08:49:22Z</time>
      </trkpt>
      <trkpt lat="47.25338" lon="-1.59013">
        <ele>19.7</ele>
        <time>2020-06-07T08:49:23Z</time>
      </trkpt>
      <trkpt lat="47.25339" lon="-1.59014">
        <ele>19.8</ele>
        <time>2020-06-07T08:49:24Z</time>
      </trkpt>
      <trkpt lat="47.2534" lon="-1.59015">
        <ele>19.8</ele>
        <time>2020-06-07T08:49:25Z</time>
      </trkpt>
      <trkpt lat="47.25341" lon="-1.59016">
        <ele>19.9</ele>
        <time>2020-06-07T08:49:26Z</time>
      </trkpt>
      <trkpt lat="47.25342" lon="-1.59018">
        <ele>19.9</ele>
        <time>2020-06-07T08:49:27Z</time>
      </trkpt>
      <trkpt lat="47.25342" lon="-1.59019">
        <ele>20</ele>
        <time>2020-06-07T08:49:28Z</time>
      </trkpt>
      <trkpt lat="47.25343" lon="-1.5902">
        <ele>20</ele>
        <time>2020-06-07T08:49:29Z</time>
      </trkpt>
      <trkpt lat="47.25344" lon="-1.59021">
        <ele>20.1</ele>
        <time>2020-06-07T08:49:30Z</time>
      </trkpt>
      <trkpt lat="47.25344" lon="-1.59023">
        <ele>20.2</ele>
        <time>2020-06-07T08:49:31Z</time>
      </trkpt>
      <trkpt lat="47.25345" lon="-1.59024">
        <ele>20.2</ele>
        <time>2020-06-07T08:49:32Z</time>
      </trkpt>
      <trkpt lat="47.25345" lon="-1.59025">
        <ele>20.3</ele>
        <time>2020-06-07T08:49:33Z</time>
      </trkpt>
      <trkpt lat="47.25346" lon="-1.59026">
        <ele>20.4</ele>
        <time>2020-06-07T08:49:34Z</time>
      </trkpt>
      <trkpt lat="47.25346" lon="-1.59028">
        <ele>20.4</ele>
        <time>2020-06-07T08:49:35Z</time>
      </trkpt>
      <trkpt lat="47.25347" lon="-1.59029">
        <ele>20.5</ele>
        <time>2020-06-07T08:49:36Z</time>
      </trkpt>
      <trkpt lat="47.25347" lon="-1.5903">
        <ele>20.6</ele>
        <time>2020-06-07T08:49:37Z</time>
      </trkpt>
      <trkpt lat="47.25348" lon="-1.59032">
        <ele>20.6</ele>
        <time>2020-06-07T08:49:38Z</time>
      </trkpt>
      <trkpt lat="47.25348" lon="-1.59033">
        <ele>20.7</ele>
        <time>2020-06-07T08:49:39Z</time>
      </trkpt>
      <trkpt lat="47.25348" lon="-1.59034">
        <ele>20.8</ele>
        <time>2020-06-07T08:49:40Z</time>
      </trkpt>
      <trkpt lat="47.25349" lon="-1.59036">
        <ele>20.9</ele>
        <time>2020-06-07T08:49:41Z</time>
      </trkpt>
      <trkpt lat="47.25349" lon="-1.59037">
        <ele>20.9</ele>
        <time>2020-06-07T08:49:42Z</time>
      </trkpt>
      <trkpt lat="47.25349" lon="-1.59038">
        <ele>21</ele>
        <time>2020-06-07T08:49:43Z</time>
      </trkpt>
      <trkpt lat="47.2535" lon="-1.5904">
        <ele>21.1</ele>
        <time>2020-06-07T08:49:44Z</time>
      </trkpt>
      <trkpt lat="47.2535" lon="-1.59041">
        <ele>21.2</ele>
        <time>2020-06-07T08:49:45Z</time>
      </trkpt>
      <trkpt lat="47.2535" lon="-1.59043">
        <ele>21.3</ele>
        <time>2020-06-07T08:49:46Z</time>
      </trkpt>
      <trkpt lat="47.25351" lon="-1.59044">
        <ele>21.3</ele>
        <time>2020-06-07T08:49:47Z</time>
      </trkpt>
      <trkpt lat="47.25351" lon="-1.59046">
        <ele>21.4</ele>
        <time>2020-06-07T08:49:48Z</time>
      </trkpt>
      <trkpt lat="47.25352" lon="-1.59047">
        <ele>21.5</ele>
        <time>2020-06-07T08:49:49Z</time>
      </trkpt>
      <trkpt lat="47.25352" lon="-1.59049">
        <ele>21.6</ele>
        <time>2020-06-07T08:49:50Z</time>
      </trkpt>
      <trkpt lat="47.25353" lon="-1.5905">
        <ele>21.6</ele>
        <time>2020-06-07T08:49:51Z</time>
      </trkpt>
      <trkpt lat="47.25353" lon="-1.59052">
        <ele>21.7</ele>
        <time>2020-06-07T08:49:52Z</time>
      </trkpt>
      <trkpt lat="47.25354" lon="-1.59053">
        <ele>21.8</ele>
        <time>2020-06-07T08:49:53Z</time>
      </trkpt>
      <trkpt lat="47.25354" lon="-1.59054">
        <ele>21.8</ele>
        <time>2020-06-07T08:49:54Z</time>
      </trkpt>
      <trkpt lat="47.25355" lon="-1.59056">
        <ele>21.9</ele>
        <time>2020-06-07T08:49:55Z</time>
      </trkpt>
      <trkpt lat="47.25355" lon="-1.59057">
        <ele>22</ele>
        <time>2020-06-07T08:49:56Z</time>
      </trkpt>
      <trkpt lat="47.25356" lon="-1.59058">
        <ele>22</ele>
        <time>2020-06-07T08:49:57Z</time>
      </trkpt>
      <trkpt lat="47.25356" lon="-1.59059">
        <ele>22.1</ele>
        <time>2020-06-07T08:49:58Z</time>
      </trkpt>
      <trkpt lat="47.25357" lon="-1.5906">
        <ele>22.1</ele>
        <time>2020-06-07T08:49:59Z</time>
      </trkpt>
      <trkpt lat="47.25357" lon="-1.59061">
        <ele>22.1</ele>
        <time>2020-06-07T08:50:00Z</time>
      </trkpt>
      <trkpt lat="47.25358" lon="-1.59062">
        <ele>22.2</ele>
        <time>2020-06-07T08:50:01Z</time>
      </trkpt>
      <trkpt lat="47.25358" lon="-1.59063">
        <ele>22.2</ele>
        <time>2020-06-07T08:50:02Z</time>
      </trkpt>
      <trkpt lat="47.25359" lon="-1.59064">
        <ele>22.2</ele>
        <time>2020-06-07T08:50:03Z</time>
      </trkpt>
      <trkpt lat="47.2536" lon="-1.59065">
        <ele>22.2</ele>
        <time>2020-06-07T08:50:04Z</time>
      </trkpt>
      <trkpt lat="47.2536" lon="-1.59065">
        <ele>22.2</ele>
        <time>2020-06-07T08:50:05Z</time>
      </trkpt>
      <trkpt lat="47.25361" lon="-1.59066">
        <ele>22.2</ele>
        <time>2020-06-07T08:50:06Z</time>
      </trkpt>
      <trkpt lat="47.25362" lon="-1.59067">
        <ele>22.3</ele>
        <time>2020-06-07T08:50:07Z</time>
      </trkpt>
      <trkpt lat="47.25363" lon="-1.59068">
        <ele>22.3</ele>
        <time>2020-06-07T08:50:08Z</time>
      </trkpt>
      <trkpt lat="47.25363" lon="-1.59069">
        <ele>22.3</ele>
        <time>2020-06-07T08:50:09Z</time>
      </trkpt>
      <trkpt lat="47.25364" lon="-1.5907">
        <ele>22.3</ele>
        <time>2020-06-07T08:50:10Z</time>
      </trkpt>
      <trkpt lat="47.25365" lon="-1.59071">
        <ele>22.3</ele>
        <time>2020-06-07T08:50:11Z</time>
      </trkpt>
      <trkpt lat="47.25366" lon="-1.59072">
        <ele>22.3</ele>
        <time>2020-06-07T08:50:12Z</time>
      </trkpt>
      <trkpt lat="47.25367" lon="-1.59072">
        <ele>22.3</ele>
        <time>2020-06-07T08:50:13Z</time>
      </trkpt>
      <trkpt lat="47.25368" lon="-1.59073">
        <ele>22.3</ele>
        <time>2020-06-07T08:50:14Z</time>
      </trkpt>
      <trkpt lat="47.25368" lon="-1.59074">
        <ele>22.3</ele>
        <time>2020-06-07T08:50:15Z</time>
      </trkpt>
      <trkpt lat="47.25369" lon="-1.59074">
        <ele>22.3</ele>
        <time>2020-06-07T08:50:16Z</time>
      </trkpt>
      <trkpt lat="47.2537" lon="-1.59075">
        <ele>22.3</ele>
        <time>2020-06-07T08:50:17Z</time>
      </trkpt>
      <trkpt lat="47.25371" lon="-1.59075">
        <ele>22.3</ele>
        <time>2020-06-07T08:50:18Z</time>
      </trkpt>
      <trkpt lat="47.25372" lon="-1.59076">
        <ele>22.2</ele>
        <time>2020-06-07T08:50:19Z</time>
      </trkpt>
      <trkpt lat="47.25373" lon="-1.59076">
        <ele>22.2</ele>
        <time>2020-06-07T08:50:20Z</time>
      </trkpt>
      <trkpt lat="47.25374" lon="-1.59077">
        <ele>22.2</ele>
        <time>2020-06-07T08:50:21Z</time>
      </trkpt>
      <trkpt lat="47.25375" lon="-1.59077">
        <ele>22.2</ele>
        <time>2020-06-07T08:50:22Z</time>
      </trkpt>
      <trkpt lat="47.25376" lon="-1.59078">
        <ele>22.1</ele>
        <time>2020-06-07T08:50:23Z</time>
      </trkpt>
      <trkpt lat="47.25376" lon="-1.59078">
        <ele>22.1</ele>
        <time>2020-06-07T08:50:24Z</time>
      </trkpt>
      <trkpt lat="47.25377" lon="-1.59078">
        <ele>22.1</ele>
        <time>2020-06-07T08:50:25Z</time>
      </trkpt>
      <trkpt lat="47.25378" lon="-1.59079">
        <ele>22</ele>
        <time>2020-06-07T08:50:26Z</time>
      </trkpt>
      <trkpt lat="47.25379" lon="-1.59079">
        <ele>22</ele>
        <time>2020-06-07T08:50:27Z</time>
      </trkpt>
      <trkpt lat="47.25381" lon="-1.59079">
        <ele>21.9</ele>
        <time>2020-06-07T08:50:28Z</time>
      </trkpt>
      <trkpt lat="47.25382" lon="-1.59079">
        <ele>21.9</ele>
        <time>2020-06-07T08:50:29Z</time>
      </trkpt>
      <trkpt lat="47.25383" lon="-1.5908">
        <ele>21.8</ele>
        <time>2020-06-07T08:50:30Z</time>
      </trkpt>
      <trkpt lat="47.25384" lon="-1.5908">
        <ele>21.8</ele>
        <time>2020-06-07T08:50:31Z</time>
      </trkpt>
      <trkpt lat="47.25385" lon="-1.5908">
        <ele>21.7</ele>
        <time>2020-06-07T08:50:32Z</time>
      </trkpt>
      <trkpt lat="47.25386" lon="-1.5908">
        <ele>21.7</ele>
        <time>2020-06-07T08:50:33Z</time>
      </trkpt>
      <trkpt lat="47.25387" lon="-1.5908">
        <ele>21.6</ele>
        <time>2020-06-07T08:50:34Z</time>
      </trkpt>
      <trkpt lat="47.25388" lon="-1.59081">
        <ele>21.6</ele>
        <time>2020-06-07T08:50:35Z</time>
      </trkpt>
      <trkpt lat="47.25389" lon="-1.59081">
        <ele>21.5</ele>
        <time>2020-06-07T08:50:36Z</time>
      </trkpt>
      <trkpt lat="47.2539" lon="-1.59081">
        <ele>21.5</ele>
        <time>2020-06-07T08:50:37Z</time>
      </trkpt>
      <trkpt lat="47.25391" lon="-1.59081">
        <ele>21.4</ele>
        <time>2020-06-07T08:50:38Z</time>
      </trkpt>
      <trkpt lat="47.25392" lon="-1.59081">
        <ele>21.3</ele>
        <time>2020-06-07T08:50:39Z</time>
      </trkpt>
      <trkpt lat="47.25394" lon="-1.59082">
        <ele>21.3</ele>
        <time>2020-06-07T08:50:40Z</time>
      </trkpt>
      <trkpt lat="47.25395" lon="-1.59082">
        <ele>21.2</ele>
        <time>2020-06-07T08:50:41Z</time>
      </trkpt>
      <trkpt lat="47.25396" lon="-1.59082">
        <ele>21.2</ele>
        <time>2020-06-07T08:50:42Z</time>
      </trkpt>
      <trkpt lat="47.25397" lon="-1.59083">
        <ele>21.2</ele>
        <time>2020-06-07T08:50:43Z</time>
      </trkpt>
      <trkpt lat="47.25398" lon="-1.59083">
        <ele>21.1</ele>
        <time>2020-06-07T08:50:44Z</time>
      </trkpt>
      <trkpt lat="47.25399" lon="-1.59083">
        <ele>21.1</ele>
        <time>2020-06-07T08:50:45Z</time>
      </trkpt>
      <trkpt lat="47.254" lon="-1.59083">
        <ele>21</ele>
        <time>2020-06-07T08:50:46Z</time>
      </trkpt>
      <trkpt lat="47.254" lon="-1.59084">
        <ele>21</ele>
        <time>2020-06-07T08:50:47Z</time>
      </trkpt>
      <trkpt lat="47.25401" lon="-1.59084">
        <ele>21</ele>
        <time>2020-06-07T08:50:48Z</time>
      </trkpt>
      <trkpt lat="47.25402" lon="-1.59084">
        <ele>21</ele>
        <time>2020-06-07T08:50:49Z</time>
      </trkpt>
      <trkpt lat="47.25403" lon="-1.59085">
        <ele>21</ele>
        <time>2020-06-07T08:50:50Z</time>
      </trkpt>
      <trkpt lat="47.25404" lon="-1.59085">
        <ele>21</ele>
        <time>2020-06-07T08:50:51Z</time>
      </trkpt>
      <trkpt lat="47.25404" lon="-1.59085">
        <ele>20.9</ele>
        <time>2020-06-07T08:50:52Z</time>
      </trkpt>
      <trkpt lat="47.25405" lon="-1.59086">
        <ele>20.9</ele>
        <time>2020-06-07T08:50:53Z</time>
      </trkpt>
      <trkpt lat="47.25406" lon="-1.59086">
        <ele>20.9</ele>
        <time>2020-06-07T08:50:54Z</time>
      </trkpt>
      <trkpt lat="47.25406" lon="-1.59086">
        <ele>20.9</ele>
        <time>2020-06-07T08:50:55Z</time>
      </trkpt>
      <trkpt lat="47.25407" lon="-1.59086">
        <ele>20.8</ele>
        <time>2020-06-07T08:50:56Z</time>
      </trkpt>
      <trkpt lat="47.25408" lon="-1.59086">
        <ele>20.8</ele>
        <time>2020-06-07T08:50:57Z</time>
      </trkpt>
      <trkpt lat="47.25409" lon="-1.59086">
        <ele>20.8</ele>
        <time>2020-06-07T08:50:58Z</time>
      </trkpt>
      <trkpt lat="47.2541" lon="-1.59086">
        <ele>20.7</ele>
        <time>2020-06-07T08:50:59Z</time>
      </trkpt>
      <trkpt lat="47.25411" lon="-1.59086">
        <ele>20.6</ele>
        <time>2020-06-07T08:51:00Z</time>
      </trkpt>
      <trkpt lat="47.25412" lon="-1.59086">
        <ele>20.6</ele>
        <time>2020-06-07T08:51:01Z</time>
      </trkpt>
      <trkpt lat="47.25413" lon="-1.59086">
        <ele>20.5</ele>
        <time>2020-06-07T08:51:02Z</time>
      </trkpt>
      <trkpt lat="47.25414" lon="-1.59086">
        <ele>20.4</ele>
        <time>2020-06-07T08:51:03Z</time>
      </trkpt>
      <trkpt lat="47.25415" lon="-1.59086">
        <ele>20.3</ele>
        <time>2020-06-07T08:51:04Z</time>
      </trkpt>
      <trkpt lat="47.25416" lon="-1.59085">
        <ele>20.2</ele>
        <time>2020-06-07T08:51:05Z</time>
      </trkpt>
      <trkpt lat="47.25418" lon="-1.59085">
        <ele>20.2</ele>
        <time>2020-06-07T08:51:06Z</time>
      </trkpt>
      <trkpt lat="47.25419" lon="-1.59085">
        <ele>20.3</ele>
        <time>2020-06-07T08:51:07Z</time>
      </trkpt>
      <trkpt lat="47.2542" lon="-1.59085">
        <ele>20.3</ele>
        <time>2020-06-07T08:51:08Z</time>
      </trkpt>
      <trkpt lat="47.25422" lon="-1.59084">
        <ele>20.4</ele>
        <time>2020-06-07T08:51:09Z</time>
      </trkpt>
      <trkpt lat="47.25423" lon="-1.59084">
        <ele>20.4</ele>
        <time>2020-06-07T08:51:10Z</time>
      </trkpt>
      <trkpt lat="47.25424" lon="-1.59083">
        <ele>20.5</ele>
        <time>2020-06-07T08:51:11Z</time>
      </trkpt>
      <trkpt lat="47.25426" lon="-1.59083">
        <ele>20.5</ele>
        <time>2020-06-07T08:51:12Z</time>
      </trkpt>
      <trkpt lat="47.25427" lon="-1.59082">
        <ele>20.6</ele>
        <time>2020-06-07T08:51:13Z</time>
      </trkpt>
      <trkpt lat="47.25428" lon="-1.59082">
        <ele>20.6</ele>
        <time>2020-06-07T08:51:14Z</time>
      </trkpt>
      <trkpt lat="47.2543" lon="-1.59082">
        <ele>20.7</ele>
        <time>2020-06-07T08:51:15Z</time>
      </trkpt>
      <trkpt lat="47.25431" lon="-1.59081">
        <ele>20.7</ele>
        <time>2020-06-07T08:51:16Z</time>
      </trkpt>
      <trkpt lat="47.25432" lon="-1.59081">
        <ele>20.8</ele>
        <time>2020-06-07T08:51:17Z</time>
      </trkpt>
      <trkpt lat="47.25433" lon="-1.5908">
        <ele>20.8</ele>
        <time>2020-06-07T08:51:18Z</time>
      </trkpt>
      <trkpt lat="47.25434" lon="-1.5908">
        <ele>20.9</ele>
        <time>2020-06-07T08:51:19Z</time>
      </trkpt>
      <trkpt lat="47.25435" lon="-1.5908">
        <ele>20.9</ele>
        <time>2020-06-07T08:51:20Z</time>
      </trkpt>
      <trkpt lat="47.25436" lon="-1.5908">
        <ele>21</ele>
        <time>2020-06-07T08:51:21Z</time>
      </trkpt>
      <trkpt lat="47.25437" lon="-1.5908">
        <ele>21</ele>
        <time>2020-06-07T08:51:22Z</time>
      </trkpt>
      <trkpt lat="47.25438" lon="-1.59079">
        <ele>21</ele>
        <time>2020-06-07T08:51:23Z</time>
      </trkpt>
      <trkpt lat="47.25439" lon="-1.59079">
        <ele>21.1</ele>
        <time>2020-06-07T08:51:24Z</time>
      </trkpt>
      <trkpt lat="47.2544" lon="-1.59079">
        <ele>21.1</ele>
        <time>2020-06-07T08:51:25Z</time>
      </trkpt>
      <trkpt lat="47.25441" lon="-1.59078">
        <ele>21.1</ele>
        <time>2020-06-07T08:51:26Z</time>
      </trkpt>
      <trkpt lat="47.25442" lon="-1.59078">
        <ele>21.1</ele>
        <time>2020-06-07T08:51:27Z</time>
      </trkpt>
      <trkpt lat="47.25443" lon="-1.59077">
        <ele>21.2</ele>
        <time>2020-06-07T08:51:28Z</time>
      </trkpt>
      <trkpt lat="47.25444" lon="-1.59076">
        <ele>21.2</ele>
        <time>2020-06-07T08:51:29Z</time>
      </trkpt>
      <trkpt lat="47.25445" lon="-1.59076">
        <ele>21.2</ele>
        <time>2020-06-07T08:51:30Z</time>
      </trkpt>
      <trkpt lat="47.25446" lon="-1.59075">
        <ele>21.2</ele>
        <time>2020-06-07T08:51:31Z</time>
      </trkpt>
      <trkpt lat="47.25447" lon="-1.59074">
        <ele>21.2</ele>
        <time>2020-06-07T08:51:32Z</time>
      </trkpt>
      <trkpt lat="47.25447" lon="-1.59073">
        <ele>21.2</ele>
        <time>2020-06-07T08:51:33Z</time>
      </trkpt>
      <trkpt lat="47.25448" lon="-1.59073">
        <ele>21.2</ele>
        <time>2020-06-07T08:51:34Z</time>
      </trkpt>
      <trkpt lat="47.25449" lon="-1.59072">
        <ele>21.2</ele>
        <time>2020-06-07T08:51:35Z</time>
      </trkpt>
      <trkpt lat="47.2545" lon="-1.59072">
        <ele>21.2</ele>
        <time>2020-06-07T08:51:36Z</time>
      </trkpt>
      <trkpt lat="47.2545" lon="-1.59071">
        <ele>21.2</ele>
        <time>2020-06-07T08:51:37Z</time>
      </trkpt>
      <trkpt lat="47.25451" lon="-1.5907">
        <ele>21.2</ele>
        <time>2020-06-07T08:51:38Z</time>
      </trkpt>
      <trkpt lat="47.25451" lon="-1.5907">
        <ele>21.2</ele>
        <time>2020-06-07T08:51:39Z</time>
      </trkpt>
      <trkpt lat="47.25452" lon="-1.59069">
        <ele>21.1</ele>
        <time>2020-06-07T08:51:40Z</time>
      </trkpt>
      <trkpt lat="47.25452" lon="-1.59068">
        <ele>21.1</ele>
        <time>2020-06-07T08:51:41Z</time>
      </trkpt>
      <trkpt lat="47.25453" lon="-1.59068">
        <ele>21.1</ele>
        <time>2020-06-07T08:51:42Z</time>
      </trkpt>
      <trkpt lat="47.25453" lon="-1.59067">
        <ele>21.1</ele>
        <time>2020-06-07T08:51:43Z</time>
      </trkpt>
      <trkpt lat="47.25454" lon="-1.59066">
        <ele>21</ele>
        <time>2020-06-07T08:51:44Z</time>
      </trkpt>
      <trkpt lat="47.25454" lon="-1.59066">
        <ele>21</ele>
        <time>2020-06-07T08:51:45Z</time>
      </trkpt>
      <trkpt lat="47.25455" lon="-1.59065">
        <ele>21</ele>
        <time>2020-06-07T08:51:46Z</time>
      </trkpt>
      <trkpt lat="47.25455" lon="-1.59064">
        <ele>21</ele>
        <time>2020-06-07T08:51:47Z</time>
      </trkpt>
      <trkpt lat="47.25456" lon="-1.59063">
        <ele>20.9</ele>
        <time>2020-06-07T08:51:48Z</time>
      </trkpt>
      <trkpt lat="47.25456" lon="-1.59063">
        <ele>20.9</ele>
        <time>2020-06-07T08:51:49Z</time>
      </trkpt>
      <trkpt lat="47.25457" lon="-1.59062">
        <ele>20.9</ele>
        <time>2020-06-07T08:51:50Z</time>
      </trkpt>
      <trkpt lat="47.25457" lon="-1.59061">
        <ele>20.8</ele>
        <time>2020-06-07T08:51:51Z</time>
      </trkpt>
      <trkpt lat="47.25458" lon="-1.5906">
        <ele>20.8</ele>
        <time>2020-06-07T08:51:52Z</time>
      </trkpt>
      <trkpt lat="47.25458" lon="-1.59059">
        <ele>20.7</ele>
        <time>2020-06-07T08:51:53Z</time>
      </trkpt>
      <trkpt lat="47.25459" lon="-1.59058">
        <ele>20.7</ele>
        <time>2020-06-07T08:51:54Z</time>
      </trkpt>
      <trkpt lat="47.2546" lon="-1.59057">
        <ele>20.6</ele>
        <time>2020-06-07T08:51:55Z</time>
      </trkpt>
      <trkpt lat="47.2546" lon="-1.59056">
        <ele>20.6</ele>
        <time>2020-06-07T08:51:56Z</time>
      </trkpt>
      <trkpt lat="47.25461" lon="-1.59055">
        <ele>20.5</ele>
        <time>2020-06-07T08:51:57Z</time>
      </trkpt>
      <trkpt lat="47.25461" lon="-1.59054">
        <ele>20.5</ele>
        <time>2020-06-07T08:51:58Z</time>
      </trkpt>
      <trkpt lat="47.25462" lon="-1.59053">
        <ele>20.4</ele>
        <time>2020-06-07T08:51:59Z</time>
      </trkpt>
      <trkpt lat="47.25462" lon="-1.59052">
        <ele>20.4</ele>
        <time>2020-06-07T08:52:00Z</time>
      </trkpt>
      <trkpt lat="47.25463" lon="-1.59051">
        <ele>20.3</ele>
        <time>2020-06-07T08:52:01Z</time>
      </trkpt>
      <trkpt lat="47.25463" lon="-1.5905">
        <ele>20.3</ele>
        <time>2020-06-07T08:52:02Z</time>
      </trkpt>
      <trkpt lat="47.25464" lon="-1.59049">
        <ele>20.2</ele>
        <time>2020-06-07T08:52:03Z</time>
      </trkpt>
      <trkpt lat="47.25465" lon="-1.59048">
        <ele>20.2</ele>
        <time>2020-06-07T08:52:04Z</time>
      </trkpt>
      <trkpt lat="47.25465" lon="-1.59047">
        <ele>20.1</ele>
        <time>2020-06-07T08:52:05Z</time>
      </trkpt>
      <trkpt lat="47.25466" lon="-1.59046">
        <ele>20.1</ele>
        <time>2020-06-07T08:52:06Z</time>
      </trkpt>
      <trkpt lat="47.25466" lon="-1.59045">
        <ele>20</ele>
        <time>2020-06-07T08:52:07Z</time>
      </trkpt>
      <trkpt lat="47.25467" lon="-1.59044">
        <ele>20</ele>
        <time>2020-06-07T08:52:08Z</time>
      </trkpt>
      <trkpt lat="47.25467" lon="-1.59043">
        <ele>19.9</ele>
        <time>2020-06-07T08:52:09Z</time>
      </trkpt>
      <trkpt lat="47.25468" lon="-1.59043">
        <ele>19.9</ele>
        <time>2020-06-07T08:52:10Z</time>
      </trkpt>
      <trkpt lat="47.25468" lon="-1.59042">
        <ele>19.9</ele>
        <time>2020-06-07T08:52:11Z</time>
      </trkpt>
      <trkpt lat="47.25469" lon="-1.59041">
        <ele>19.8</ele>
        <time>2020-06-07T08:52:12Z</time>
      </trkpt>
      <trkpt lat="47.25469" lon="-1.5904">
        <ele>19.8</ele>
        <time>2020-06-07T08:52:13Z</time>
      </trkpt>
      <trkpt lat="47.2547" lon="-1.59039">
        <ele>19.7</ele>
        <time>2020-06-07T08:52:14Z</time>
      </trkpt>
      <trkpt lat="47.25471" lon="-1.59038">
        <ele>19.7</ele>
        <time>2020-06-07T08:52:15Z</time>
      </trkpt>
      <trkpt lat="47.25471" lon="-1.59038">
        <ele>19.6</ele>
        <time>2020-06-07T08:52:16Z</time>
      </trkpt>
      <trkpt lat="47.25472" lon="-1.59037">
        <ele>19.6</ele>
        <time>2020-06-07T08:52:17Z</time>
      </trkpt>
      <trkpt lat="47.25472" lon="-1.59036">
        <ele>19.5</ele>
        <time>2020-06-07T08:52:18Z</time>
      </trkpt>
      <trkpt lat="47.25473" lon="-1.59035">
        <ele>19.5</ele>
        <time>2020-06-07T08:52:19Z</time>
      </trkpt>
      <trkpt lat="47.25474" lon="-1.59034">
        <ele>19.5</ele>
        <time>2020-06-07T08:52:20Z</time>
      </trkpt>
      <trkpt lat="47.25474" lon="-1.59034">
        <ele>19.4</ele>
        <time>2020-06-07T08:52:21Z</time>
      </trkpt>
      <trkpt lat="47.25475" lon="-1.59033">
        <ele>19.4</ele>
        <time>2020-06-07T08:52:22Z</time>
      </trkpt>
      <trkpt lat="47.25475" lon="-1.59032">
        <ele>19.3</ele>
        <time>2020-06-07T08:52:23Z</time>
      </trkpt>
      <trkpt lat="47.25476" lon="-1.59031">
        <ele>19.3</ele>
        <time>2020-06-07T08:52:24Z</time>
      </trkpt>
      <trkpt lat="47.25477" lon="-1.5903">
        <ele>19.2</ele>
        <time>2020-06-07T08:52:25Z</time>
      </trkpt>
      <trkpt lat="47.25477" lon="-1.59029">
        <ele>19.1</ele>
        <time>2020-06-07T08:52:26Z</time>
      </trkpt>
      <trkpt lat="47.25478" lon="-1.59028">
        <ele>19.1</ele>
        <time>2020-06-07T08:52:27Z</time>
      </trkpt>
      <trkpt lat="47.25479" lon="-1.59027">
        <ele>19</ele>
        <time>2020-06-07T08:52:28Z</time>
      </trkpt>
      <trkpt lat="47.25479" lon="-1.59026">
        <ele>18.9</ele>
        <time>2020-06-07T08:52:29Z</time>
      </trkpt>
      <trkpt lat="47.2548" lon="-1.59025">
        <ele>18.9</ele>
        <time>2020-06-07T08:52:30Z</time>
      </trkpt>
      <trkpt lat="47.25481" lon="-1.59024">
        <ele>18.8</ele>
        <time>2020-06-07T08:52:31Z</time>
      </trkpt>
      <trkpt lat="47.25481" lon="-1.59023">
        <ele>18.7</ele>
        <time>2020-06-07T08:52:32Z</time>
      </trkpt>
      <trkpt lat="47.25482" lon="-1.59022">
        <ele>18.7</ele>
        <time>2020-06-07T08:52:33Z</time>
      </trkpt>
      <trkpt lat="47.25482" lon="-1.59021">
        <ele>18.6</ele>
        <time>2020-06-07T08:52:34Z</time>
      </trkpt>
      <trkpt lat="47.25483" lon="-1.5902">
        <ele>18.5</ele>
        <time>2020-06-07T08:52:35Z</time>
      </trkpt>
      <trkpt lat="47.25484" lon="-1.59019">
        <ele>18.5</ele>
        <time>2020-06-07T08:52:36Z</time>
      </trkpt>
      <trkpt lat="47.25484" lon="-1.59018">
        <ele>18.4</ele>
        <time>2020-06-07T08:52:37Z</time>
      </trkpt>
      <trkpt lat="47.25485" lon="-1.59018">
        <ele>18.3</ele>
        <time>2020-06-07T08:52:38Z</time>
      </trkpt>
      <trkpt lat="47.25486" lon="-1.59017">
        <ele>18.3</ele>
        <time>2020-06-07T08:52:39Z</time>
      </trkpt>
      <trkpt lat="47.25486" lon="-1.59016">
        <ele>18.2</ele>
        <time>2020-06-07T08:52:40Z</time>
      </trkpt>
      <trkpt lat="47.25487" lon="-1.59015">
        <ele>18.2</ele>
        <time>2020-06-07T08:52:41Z</time>
      </trkpt>
      <trkpt lat="47.25488" lon="-1.59015">
        <ele>18.2</ele>
        <time>2020-06-07T08:52:42Z</time>
      </trkpt>
      <trkpt lat="47.25488" lon="-1.59015">
        <ele>18.2</ele>
        <time>2020-06-07T08:52:43Z</time>
      </trkpt>
      <trkpt lat="47.25489" lon="-1.59014">
        <ele>18.1</ele>
        <time>2020-06-07T08:52:44Z</time>
      </trkpt>
      <trkpt lat="47.2549" lon="-1.59014">
        <ele>18.1</ele>
        <time>2020-06-07T08:52:45Z</time>
      </trkpt>
      <trkpt lat="47.25491" lon="-1.59014">
        <ele>18.1</ele>
        <time>2020-06-07T08:52:46Z</time>
      </trkpt>
      <trkpt lat="47.25492" lon="-1.59014">
        <ele>18.1</ele>
        <time>2020-06-07T08:52:47Z</time>
      </trkpt>
      <trkpt lat="47.25492" lon="-1.59013">
        <ele>18.1</ele>
        <time>2020-06-07T08:52:48Z</time>
      </trkpt>
      <trkpt lat="47.25493" lon="-1.59013">
        <ele>18.1</ele>
        <time>2020-06-07T08:52:49Z</time>
      </trkpt>
      <trkpt lat="47.25494" lon="-1.59013">
        <ele>18.1</ele>
        <time>2020-06-07T08:52:50Z</time>
      </trkpt>
      <trkpt lat="47.25495" lon="-1.59013">
        <ele>18.1</ele>
        <time>2020-06-07T08:52:51Z</time>
      </trkpt>
      <trkpt lat="47.25496" lon="-1.59012">
        <ele>18.1</ele>
        <time>2020-06-07T08:52:52Z</time>
      </trkpt>
      <trkpt lat="47.25497" lon="-1.59012">
        <ele>18.1</ele>
        <time>2020-06-07T08:52:53Z</time>
      </trkpt>
      <trkpt lat="47.25498" lon="-1.59011">
        <ele>18</ele>
        <time>2020-06-07T08:52:54Z</time>
      </trkpt>
      <trkpt lat="47.25499" lon="-1.5901">
        <ele>18</ele>
        <time>2020-06-07T08:52:55Z</time>
      </trkpt>
      <trkpt lat="47.255" lon="-1.5901">
        <ele>17.9</ele>
        <time>2020-06-07T08:52:56Z</time>
      </trkpt>
      <trkpt lat="47.25501" lon="-1.59009">
        <ele>17.9</ele>
        <time>2020-06-07T08:52:57Z</time>
      </trkpt>
      <trkpt lat="47.25502" lon="-1.59008">
        <ele>17.9</ele>
        <time>2020-06-07T08:52:58Z</time>
      </trkpt>
      <trkpt lat="47.25502" lon="-1.59008">
        <ele>17.8</ele>
        <time>2020-06-07T08:52:59Z</time>
      </trkpt>
      <trkpt lat="47.25503" lon="-1.59007">
        <ele>17.8</ele>
        <time>2020-06-07T08:53:00Z</time>
      </trkpt>
      <trkpt lat="47.25504" lon="-1.59006">
        <ele>17.7</ele>
        <time>2020-06-07T08:53:01Z</time>
      </trkpt>
      <trkpt lat="47.25505" lon="-1.59005">
        <ele>17.7</ele>
        <time>2020-06-07T08:53:02Z</time>
      </trkpt>
      <trkpt lat="47.25506" lon="-1.59005">
        <ele>17.6</ele>
        <time>2020-06-07T08:53:03Z</time>
      </trkpt>
      <trkpt lat="47.25507" lon="-1.59004">
        <ele>17.6</ele>
        <time>2020-06-07T08:53:04Z</time>
      </trkpt>
      <trkpt lat="47.25507" lon="-1.59003">
        <ele>17.6</ele>
        <time>2020-06-07T08:53:05Z</time>
      </trkpt>
      <trkpt lat="47.25508" lon="-1.59002">
        <ele>17.5</ele>
        <time>2020-06-07T08:53:06Z</time>
      </trkpt>
      <trkpt lat="47.25509" lon="-1.59002">
        <ele>17.5</ele>
        <time>2020-06-07T08:53:07Z</time>
      </trkpt>
      <trkpt lat="47.2551" lon="-1.59001">
        <ele>17.4</ele>
        <time>2020-06-07T08:53:08Z</time>
      </trkpt>
      <trkpt lat="47.25511" lon="-1.59">
        <ele>17.4</ele>
        <time>2020-06-07T08:53:09Z</time>
      </trkpt>
      <trkpt lat="47.25512" lon="-1.59">
        <ele>17.4</ele>
        <time>2020-06-07T08:53:10Z</time>
      </trkpt>
      <trkpt lat="47.25513" lon="-1.58999">
        <ele>17.5</ele>
        <time>2020-06-07T08:53:11Z</time>
      </trkpt>
      <trkpt lat="47.25514" lon="-1.58998">
        <ele>17.5</ele>
        <time>2020-06-07T08:53:12Z</time>
      </trkpt>
      <trkpt lat="47.25515" lon="-1.58998">
        <ele>17.5</ele>
        <time>2020-06-07T08:53:13Z</time>
      </trkpt>
      <trkpt lat="47.25516" lon="-1.58997">
        <ele>17.6</ele>
        <time>2020-06-07T08:53:14Z</time>
      </trkpt>
      <trkpt lat="47.25517" lon="-1.58996">
        <ele>17.6</ele>
        <time>2020-06-07T08:53:15Z</time>
      </trkpt>
      <trkpt lat="47.25518" lon="-1.58996">
        <ele>17.6</ele>
        <time>2020-06-07T08:53:16Z</time>
      </trkpt>
      <trkpt lat="47.25519" lon="-1.58995">
        <ele>17.6</ele>
        <time>2020-06-07T08:53:17Z</time>
      </trkpt>
      <trkpt lat="47.25519" lon="-1.58994">
        <ele>17.7</ele>
        <time>2020-06-07T08:53:18Z</time>
      </trkpt>
      <trkpt lat="47.2552" lon="-1.58993">
        <ele>17.7</ele>
        <time>2020-06-07T08:53:19Z</time>
      </trkpt>
      <trkpt lat="47.25521" lon="-1.58992">
        <ele>17.7</ele>
        <time>2020-06-07T08:53:20Z</time>
      </trkpt>
      <trkpt lat="47.25522" lon="-1.58991">
        <ele>17.7</ele>
        <time>2020-06-07T08:53:21Z</time>
      </trkpt>
      <trkpt lat="47.25522" lon="-1.5899">
        <ele>17.7</ele>
        <time>2020-06-07T08:53:22Z</time>
      </trkpt>
      <trkpt lat="47.25523" lon="-1.58989">
        <ele>17.7</ele>
        <time>2020-06-07T08:53:23Z</time>
      </trkpt>
      <trkpt lat="47.25523" lon="-1.58988">
        <ele>17.7</ele>
        <time>2020-06-07T08:53:24Z</time>
      </trkpt>
      <trkpt lat="47.25524" lon="-1.58987">
        <ele>17.7</ele>
        <time>2020-06-07T08:53:25Z</time>
      </trkpt>
      <trkpt lat="47.25524" lon="-1.58985">
        <ele>17.7</ele>
        <time>2020-06-07T08:53:26Z</time>
      </trkpt>
      <trkpt lat="47.25525" lon="-1.58984">
        <ele>17.7</ele>
        <time>2020-06-07T08:53:27Z</time>
      </trkpt>
      <trkpt lat="47.25525" lon="-1.58982">
        <ele>17.7</ele>
        <time>2020-06-07T08:53:28Z</time>
      </trkpt>
      <trkpt lat="47.25525" lon="-1.58981">
        <ele>17.7</ele>
        <time>2020-06-07T08:53:29Z</time>
      </trkpt>
      <trkpt lat="47.25526" lon="-1.58979">
        <ele>17.7</ele>
        <time>2020-06-07T08:53:30Z</time>
      </trkpt>
      <trkpt lat="47.25526" lon="-1.58978">
        <ele>17.7</ele>
        <time>2020-06-07T08:53:31Z</time>
      </trkpt>
      <trkpt lat="47.25526" lon="-1.58976">
        <ele>17.7</ele>
        <time>2020-06-07T08:53:32Z</time>
      </trkpt>
      <trkpt lat="47.25526" lon="-1.58975">
        <ele>17.7</ele>
        <time>2020-06-07T08:53:33Z</time>
      </trkpt>
      <trkpt lat="47.25527" lon="-1.58973">
        <ele>17.7</ele>
        <time>2020-06-07T08:53:34Z</time>
      </trkpt>
      <trkpt lat="47.25527" lon="-1.58971">
        <ele>17.6</ele>
        <time>2020-06-07T08:53:35Z</time>
      </trkpt>
      <trkpt lat="47.25527" lon="-1.5897">
        <ele>17.6</ele>
        <time>2020-06-07T08:53:36Z</time>
      </trkpt>
      <trkpt lat="47.25528" lon="-1.58968">
        <ele>17.6</ele>
        <time>2020-06-07T08:53:37Z</time>
      </trkpt>
      <trkpt lat="47.25528" lon="-1.58967">
        <ele>17.6</ele>
        <time>2020-06-07T08:53:38Z</time>
      </trkpt>
      <trkpt lat="47.25528" lon="-1.58965">
        <ele>17.6</ele>
        <time>2020-06-07T08:53:39Z</time>
      </trkpt>
      <trkpt lat="47.25529" lon="-1.58964">
        <ele>17.6</ele>
        <time>2020-06-07T08:53:40Z</time>
      </trkpt>
      <trkpt lat="47.25529" lon="-1.58962">
        <ele>17.5</ele>
        <time>2020-06-07T08:53:41Z</time>
      </trkpt>
      <trkpt lat="47.2553" lon="-1.5896">
        <ele>17.5</ele>
        <time>2020-06-07T08:53:42Z</time>
      </trkpt>
      <trkpt lat="47.2553" lon="-1.58959">
        <ele>17.5</ele>
        <time>2020-06-07T08:53:43Z</time>
      </trkpt>
      <trkpt lat="47.2553" lon="-1.58957">
        <ele>17.5</ele>
        <time>2020-06-07T08:53:44Z</time>
      </trkpt>
      <trkpt lat="47.25531" lon="-1.58956">
        <ele>17.5</ele>
        <time>2020-06-07T08:53:45Z</time>
      </trkpt>
      <trkpt lat="47.25531" lon="-1.58954">
        <ele>17.4</ele>
        <time>2020-06-07T08:53:46Z</time>
      </trkpt>
      <trkpt lat="47.25531" lon="-1.58953">
        <ele>17.4</ele>
        <time>2020-06-07T08:53:47Z</time>
      </trkpt>
      <trkpt lat="47.25531" lon="-1.58951">
        <ele>17.4</ele>
        <time>2020-06-07T08:53:48Z</time>
      </trkpt>
      <trkpt lat="47.25532" lon="-1.5895">
        <ele>17.4</ele>
        <time>2020-06-07T08:53:49Z</time>
      </trkpt>
      <trkpt lat="47.25532" lon="-1.58948">
        <ele>17.3</ele>
        <time>2020-06-07T08:53:50Z</time>
      </trkpt>
      <trkpt lat="47.25532" lon="-1.58946">
        <ele>17.3</ele>
        <time>2020-06-07T08:53:51Z</time>
      </trkpt>
      <trkpt lat="47.25532" lon="-1.58945">
        <ele>17.3</ele>
        <time>2020-06-07T08:53:52Z</time>
      </trkpt>
      <trkpt lat="47.25532" lon="-1.58943">
        <ele>17.3</ele>
        <time>2020-06-07T08:53:53Z</time>
      </trkpt>
      <trkpt lat="47.25532" lon="-1.58942">
        <ele>17.2</ele>
        <time>2020-06-07T08:53:54Z</time>
      </trkpt>
      <trkpt lat="47.25532" lon="-1.5894">
        <ele>17.2</ele>
        <time>2020-06-07T08:53:55Z</time>
      </trkpt>
      <trkpt lat="47.25532" lon="-1.58939">
        <ele>17.2</ele>
        <time>2020-06-07T08:53:56Z</time>
      </trkpt>
      <trkpt lat="47.25532" lon="-1.58937">
        <ele>17.2</ele>
        <time>2020-06-07T08:53:57Z</time>
      </trkpt>
      <trkpt lat="47.25532" lon="-1.58936">
        <ele>17.2</ele>
        <time>2020-06-07T08:53:58Z</time>
      </trkpt>
      <trkpt lat="47.25532" lon="-1.58934">
        <ele>17.1</ele>
        <time>2020-06-07T08:53:59Z</time>
      </trkpt>
      <trkpt lat="47.25532" lon="-1.58933">
        <ele>17.1</ele>
        <time>2020-06-07T08:54:00Z</time>
      </trkpt>
      <trkpt lat="47.25531" lon="-1.58931">
        <ele>17.1</ele>
        <time>2020-06-07T08:54:01Z</time>
      </trkpt>
      <trkpt lat="47.25531" lon="-1.58929">
        <ele>17.1</ele>
        <time>2020-06-07T08:54:02Z</time>
      </trkpt>
      <trkpt lat="47.25531" lon="-1.58928">
        <ele>17</ele>
        <time>2020-06-07T08:54:03Z</time>
      </trkpt>
      <trkpt lat="47.25531" lon="-1.58926">
        <ele>17</ele>
        <time>2020-06-07T08:54:04Z</time>
      </trkpt>
      <trkpt lat="47.25531" lon="-1.58925">
        <ele>17</ele>
        <time>2020-06-07T08:54:05Z</time>
      </trkpt>
      <trkpt lat="47.25531" lon="-1.58923">
        <ele>17</ele>
        <time>2020-06-07T08:54:06Z</time>
      </trkpt>
      <trkpt lat="47.25532" lon="-1.58921">
        <ele>16.9</ele>
        <time>2020-06-07T08:54:07Z</time>
      </trkpt>
      <trkpt lat="47.25532" lon="-1.5892">
        <ele>16.9</ele>
        <time>2020-06-07T08:54:08Z</time>
      </trkpt>
      <trkpt lat="47.25532" lon="-1.58918">
        <ele>16.9</ele>
        <time>2020-06-07T08:54:09Z</time>
      </trkpt>
      <trkpt lat="47.25532" lon="-1.58916">
        <ele>16.8</ele>
        <time>2020-06-07T08:54:10Z</time>
      </trkpt>
      <trkpt lat="47.25533" lon="-1.58915">
        <ele>16.9</ele>
        <time>2020-06-07T08:54:11Z</time>
      </trkpt>
      <trkpt lat="47.25533" lon="-1.58913">
        <ele>16.9</ele>
        <time>2020-06-07T08:54:12Z</time>
      </trkpt>
      <trkpt lat="47.25533" lon="-1.58912">
        <ele>16.9</ele>
        <time>2020-06-07T08:54:13Z</time>
      </trkpt>
      <trkpt lat="47.25534" lon="-1.5891">
        <ele>16.9</ele>
        <time>2020-06-07T08:54:14Z</time>
      </trkpt>
      <trkpt lat="47.25534" lon="-1.58908">
        <ele>16.9</ele>
        <time>2020-06-07T08:54:15Z</time>
      </trkpt>
      <trkpt lat="47.25534" lon="-1.58907">
        <ele>16.9</ele>
        <time>2020-06-07T08:54:16Z</time>
      </trkpt>
      <trkpt lat="47.25535" lon="-1.58905">
        <ele>16.9</ele>
        <time>2020-06-07T08:54:17Z</time>
      </trkpt>
      <trkpt lat="47.25535" lon="-1.58904">
        <ele>16.9</ele>
        <time>2020-06-07T08:54:18Z</time>
      </trkpt>
      <trkpt lat="47.25535" lon="-1.58902">
        <ele>16.9</ele>
        <time>2020-06-07T08:54:19Z</time>
      </trkpt>
      <trkpt lat="47.25535" lon="-1.589">
        <ele>16.9</ele>
        <time>2020-06-07T08:54:20Z</time>
      </trkpt>
      <trkpt lat="47.25536" lon="-1.58899">
        <ele>16.9</ele>
        <time>2020-06-07T08:54:21Z</time>
      </trkpt>
      <trkpt lat="47.25536" lon="-1.58897">
        <ele>16.9</ele>
        <time>2020-06-07T08:54:22Z</time>
      </trkpt>
      <trkpt lat="47.25536" lon="-1.58895">
        <ele>17</ele>
        <time>2020-06-07T08:54:23Z</time>
      </trkpt>
      <trkpt lat="47.25536" lon="-1.58894">
        <ele>17</ele>
        <time>2020-06-07T08:54:24Z</time>
      </trkpt>
      <trkpt lat="47.25536" lon="-1.58892">
        <ele>17</ele>
        <time>2020-06-07T08:54:25Z</time>
      </trkpt>
      <trkpt lat="47.25537" lon="-1.58891">
        <ele>17</ele>
        <time>2020-06-07T08:54:26Z</time>
      </trkpt>
      <trkpt lat="47.25537" lon="-1.58889">
        <ele>17</ele>
        <time>2020-06-07T08:54:27Z</time>
      </trkpt>
      <trkpt lat="47.25537" lon="-1.58887">
        <ele>17</ele>
        <time>2020-06-07T08:54:28Z</time>
      </trkpt>
      <trkpt lat="47.25537" lon="-1.58886">
        <ele>17</ele>
        <time>2020-06-07T08:54:29Z</time>
      </trkpt>
      <trkpt lat="47.25538" lon="-1.58884">
        <ele>17</ele>
        <time>2020-06-07T08:54:30Z</time>
      </trkpt>
      <trkpt lat="47.25538" lon="-1.58883">
        <ele>17</ele>
        <time>2020-06-07T08:54:31Z</time>
      </trkpt>
      <trkpt lat="47.25538" lon="-1.58881">
        <ele>17</ele>
        <time>2020-06-07T08:54:32Z</time>
      </trkpt>
      <trkpt lat="47.25539" lon="-1.5888">
        <ele>17</ele>
        <time>2020-06-07T08:54:33Z</time>
      </trkpt>
      <trkpt lat="47.25539" lon="-1.58878">
        <ele>16.9</ele>
        <time>2020-06-07T08:54:34Z</time>
      </trkpt>
      <trkpt lat="47.25539" lon="-1.58876">
        <ele>16.9</ele>
        <time>2020-06-07T08:54:35Z</time>
      </trkpt>
      <trkpt lat="47.2554" lon="-1.58875">
        <ele>16.9</ele>
        <time>2020-06-07T08:54:36Z</time>
      </trkpt>
      <trkpt lat="47.2554" lon="-1.58873">
        <ele>16.9</ele>
        <time>2020-06-07T08:54:37Z</time>
      </trkpt>
      <trkpt lat="47.2554" lon="-1.58872">
        <ele>16.9</ele>
        <time>2020-06-07T08:54:38Z</time>
      </trkpt>
      <trkpt lat="47.25541" lon="-1.5887">
        <ele>16.8</ele>
        <time>2020-06-07T08:54:39Z</time>
      </trkpt>
      <trkpt lat="47.25541" lon="-1.58869">
        <ele>16.8</ele>
        <time>2020-06-07T08:54:40Z</time>
      </trkpt>
      <trkpt lat="47.25542" lon="-1.58867">
        <ele>16.8</ele>
        <time>2020-06-07T08:54:41Z</time>
      </trkpt>
      <trkpt lat="47.25542" lon="-1.58866">
        <ele>16.7</ele>
        <time>2020-06-07T08:54:42Z</time>
      </trkpt>
      <trkpt lat="47.25543" lon="-1.58865">
        <ele>16.7</ele>
        <time>2020-06-07T08:54:43Z</time>
      </trkpt>
      <trkpt lat="47.25543" lon="-1.58863">
        <ele>16.7</ele>
        <time>2020-06-07T08:54:44Z</time>
      </trkpt>
      <trkpt lat="47.25544" lon="-1.58862">
        <ele>16.6</ele>
        <time>2020-06-07T08:54:45Z</time>
      </trkpt>
      <trkpt lat="47.25545" lon="-1.5886">
        <ele>16.6</ele>
        <time>2020-06-07T08:54:46Z</time>
      </trkpt>
      <trkpt lat="47.25545" lon="-1.58859">
        <ele>16.5</ele>
        <time>2020-06-07T08:54:47Z</time>
      </trkpt>
      <trkpt lat="47.25546" lon="-1.58858">
        <ele>16.5</ele>
        <time>2020-06-07T08:54:48Z</time>
      </trkpt>
      <trkpt lat="47.25546" lon="-1.58856">
        <ele>16.4</ele>
        <time>2020-06-07T08:54:49Z</time>
      </trkpt>
      <trkpt lat="47.25547" lon="-1.58855">
        <ele>16.4</ele>
        <time>2020-06-07T08:54:50Z</time>
      </trkpt>
      <trkpt lat="47.25547" lon="-1.58853">
        <ele>16.3</ele>
        <time>2020-06-07T08:54:51Z</time>
      </trkpt>
      <trkpt lat="47.25548" lon="-1.58852">
        <ele>16.3</ele>
        <time>2020-06-07T08:54:52Z</time>
      </trkpt>
      <trkpt lat="47.25548" lon="-1.58851">
        <ele>16.2</ele>
        <time>2020-06-07T08:54:53Z</time>
      </trkpt>
      <trkpt lat="47.25548" lon="-1.58849">
        <ele>16.2</ele>
        <time>2020-06-07T08:54:54Z</time>
      </trkpt>
      <trkpt lat="47.25549" lon="-1.58848">
        <ele>16.2</ele>
        <time>2020-06-07T08:54:55Z</time>
      </trkpt>
      <trkpt lat="47.25549" lon="-1.58846">
        <ele>16.1</ele>
        <time>2020-06-07T08:54:56Z</time>
      </trkpt>
      <trkpt lat="47.25549" lon="-1.58845">
        <ele>16.1</ele>
        <time>2020-06-07T08:54:57Z</time>
      </trkpt>
      <trkpt lat="47.2555" lon="-1.58843">
        <ele>16.1</ele>
        <time>2020-06-07T08:54:58Z</time>
      </trkpt>
      <trkpt lat="47.2555" lon="-1.58842">
        <ele>16</ele>
        <time>2020-06-07T08:54:59Z</time>
      </trkpt>
      <trkpt lat="47.2555" lon="-1.58841">
        <ele>16</ele>
        <time>2020-06-07T08:55:00Z</time>
      </trkpt>
      <trkpt lat="47.25551" lon="-1.58839">
        <ele>15.9</ele>
        <time>2020-06-07T08:55:01Z</time>
      </trkpt>
      <trkpt lat="47.25551" lon="-1.58838">
        <ele>15.9</ele>
        <time>2020-06-07T08:55:02Z</time>
      </trkpt>
      <trkpt lat="47.25552" lon="-1.58837">
        <ele>15.8</ele>
        <time>2020-06-07T08:55:03Z</time>
      </trkpt>
      <trkpt lat="47.25552" lon="-1.58835">
        <ele>15.8</ele>
        <time>2020-06-07T08:55:04Z</time>
      </trkpt>
      <trkpt lat="47.25553" lon="-1.58834">
        <ele>15.7</ele>
        <time>2020-06-07T08:55:05Z</time>
      </trkpt>
      <trkpt lat="47.25553" lon="-1.58833">
        <ele>15.7</ele>
        <time>2020-06-07T08:55:06Z</time>
      </trkpt>
      <trkpt lat="47.25554" lon="-1.58832">
        <ele>15.6</ele>
        <time>2020-06-07T08:55:07Z</time>
      </trkpt>
      <trkpt lat="47.25554" lon="-1.58831">
        <ele>15.6</ele>
        <time>2020-06-07T08:55:08Z</time>
      </trkpt>
      <trkpt lat="47.25555" lon="-1.5883">
        <ele>15.6</ele>
        <time>2020-06-07T08:55:09Z</time>
      </trkpt>
      <trkpt lat="47.25556" lon="-1.58829">
        <ele>15.6</ele>
        <time>2020-06-07T08:55:10Z</time>
      </trkpt>
      <trkpt lat="47.25556" lon="-1.58828">
        <ele>15.5</ele>
        <time>2020-06-07T08:55:11Z</time>
      </trkpt>
      <trkpt lat="47.25557" lon="-1.58828">
        <ele>15.5</ele>
        <time>2020-06-07T08:55:12Z</time>
      </trkpt>
      <trkpt lat="47.25558" lon="-1.58827">
        <ele>15.4</ele>
        <time>2020-06-07T08:55:13Z</time>
      </trkpt>
      <trkpt lat="47.25559" lon="-1.58826">
        <ele>15.3</ele>
        <time>2020-06-07T08:55:14Z</time>
      </trkpt>
      <trkpt lat="47.2556" lon="-1.58826">
        <ele>15.3</ele>
        <time>2020-06-07T08:55:15Z</time>
      </trkpt>
      <trkpt lat="47.25561" lon="-1.58826">
        <ele>15.2</ele>
        <time>2020-06-07T08:55:16Z</time>
      </trkpt>
      <trkpt lat="47.25562" lon="-1.58826">
        <ele>15</ele>
        <time>2020-06-07T08:55:17Z</time>
      </trkpt>
      <trkpt lat="47.25563" lon="-1.58826">
        <ele>14.9</ele>
        <time>2020-06-07T08:55:18Z</time>
      </trkpt>
      <trkpt lat="47.25564" lon="-1.58826">
        <ele>14.8</ele>
        <time>2020-06-07T08:55:19Z</time>
      </trkpt>
      <trkpt lat="47.25565" lon="-1.58826">
        <ele>14.7</ele>
        <time>2020-06-07T08:55:20Z</time>
      </trkpt>
      <trkpt lat="47.25566" lon="-1.58826">
        <ele>14.5</ele>
        <time>2020-06-07T08:55:21Z</time>
      </trkpt>
      <trkpt lat="47.25567" lon="-1.58827">
        <ele>14.4</ele>
        <time>2020-06-07T08:55:22Z</time>
      </trkpt>
      <trkpt lat="47.25568" lon="-1.58827">
        <ele>14.3</ele>
        <time>2020-06-07T08:55:23Z</time>
      </trkpt>
      <trkpt lat="47.25569" lon="-1.58827">
        <ele>14.1</ele>
        <time>2020-06-07T08:55:24Z</time>
      </trkpt>
      <trkpt lat="47.2557" lon="-1.58827">
        <ele>14</ele>
        <time>2020-06-07T08:55:25Z</time>
      </trkpt>
      <trkpt lat="47.25571" lon="-1.58828">
        <ele>13.9</ele>
        <time>2020-06-07T08:55:26Z</time>
      </trkpt>
      <trkpt lat="47.25572" lon="-1.58828">
        <ele>13.7</ele>
        <time>2020-06-07T08:55:27Z</time>
      </trkpt>
      <trkpt lat="47.25573" lon="-1.58827">
        <ele>13.6</ele>
        <time>2020-06-07T08:55:28Z</time>
      </trkpt>
      <trkpt lat="47.25574" lon="-1.58827">
        <ele>13.5</ele>
        <time>2020-06-07T08:55:29Z</time>
      </trkpt>
      <trkpt lat="47.25575" lon="-1.58827">
        <ele>13.4</ele>
        <time>2020-06-07T08:55:30Z</time>
      </trkpt>
      <trkpt lat="47.25576" lon="-1.58827">
        <ele>13.3</ele>
        <time>2020-06-07T08:55:31Z</time>
      </trkpt>
      <trkpt lat="47.25577" lon="-1.58826">
        <ele>13.3</ele>
        <time>2020-06-07T08:55:32Z</time>
      </trkpt>
      <trkpt lat="47.25578" lon="-1.58826">
        <ele>13.2</ele>
        <time>2020-06-07T08:55:33Z</time>
      </trkpt>
      <trkpt lat="47.25579" lon="-1.58825">
        <ele>13.1</ele>
        <time>2020-06-07T08:55:34Z</time>
      </trkpt>
      <trkpt lat="47.2558" lon="-1.58825">
        <ele>13</ele>
        <time>2020-06-07T08:55:35Z</time>
      </trkpt>
      <trkpt lat="47.25581" lon="-1.58824">
        <ele>12.9</ele>
        <time>2020-06-07T08:55:36Z</time>
      </trkpt>
      <trkpt lat="47.25582" lon="-1.58824">
        <ele>12.8</ele>
        <time>2020-06-07T08:55:37Z</time>
      </trkpt>
      <trkpt lat="47.25583" lon="-1.58824">
        <ele>12.6</ele>
        <time>2020-06-07T08:55:38Z</time>
      </trkpt>
      <trkpt lat="47.25584" lon="-1.58824">
        <ele>12.6</ele>
        <time>2020-06-07T08:55:39Z</time>
      </trkpt>
      <trkpt lat="47.25585" lon="-1.58824">
        <ele>12.7</ele>
        <time>2020-06-07T08:55:40Z</time>
      </trkpt>
      <trkpt lat="47.25586" lon="-1.58824">
        <ele>12.8</ele>
        <time>2020-06-07T08:55:41Z</time>
      </trkpt>
      <trkpt lat="47.25587" lon="-1.58824">
        <ele>12.8</ele>
        <time>2020-06-07T08:55:42Z</time>
      </trkpt>
      <trkpt lat="47.25588" lon="-1.58824">
        <ele>12.9</ele>
        <time>2020-06-07T08:55:43Z</time>
      </trkpt>
      <trkpt lat="47.25589" lon="-1.58824">
        <ele>13</ele>
        <time>2020-06-07T08:55:44Z</time>
      </trkpt>
      <trkpt lat="47.2559" lon="-1.58824">
        <ele>13</ele>
        <time>2020-06-07T08:55:45Z</time>
      </trkpt>
      <trkpt lat="47.25591" lon="-1.58825">
        <ele>13.1</ele>
        <time>2020-06-07T08:55:46Z</time>
      </trkpt>
      <trkpt lat="47.25592" lon="-1.58825">
        <ele>13.2</ele>
        <time>2020-06-07T08:55:47Z</time>
      </trkpt>
      <trkpt lat="47.25593" lon="-1.58825">
        <ele>13.2</ele>
        <time>2020-06-07T08:55:48Z</time>
      </trkpt>
      <trkpt lat="47.25594" lon="-1.58826">
        <ele>13.3</ele>
        <time>2020-06-07T08:55:49Z</time>
      </trkpt>
      <trkpt lat="47.25595" lon="-1.58826">
        <ele>13.3</ele>
        <time>2020-06-07T08:55:50Z</time>
      </trkpt>
      <trkpt lat="47.25596" lon="-1.58826">
        <ele>13.3</ele>
        <time>2020-06-07T08:55:51Z</time>
      </trkpt>
      <trkpt lat="47.25597" lon="-1.58827">
        <ele>13.4</ele>
        <time>2020-06-07T08:55:52Z</time>
      </trkpt>
      <trkpt lat="47.25598" lon="-1.58827">
        <ele>13.4</ele>
        <time>2020-06-07T08:55:53Z</time>
      </trkpt>
      <trkpt lat="47.25599" lon="-1.58827">
        <ele>13.5</ele>
        <time>2020-06-07T08:55:54Z</time>
      </trkpt>
      <trkpt lat="47.256" lon="-1.58828">
        <ele>13.5</ele>
        <time>2020-06-07T08:55:55Z</time>
      </trkpt>
      <trkpt lat="47.25601" lon="-1.58828">
        <ele>13.6</ele>
        <time>2020-06-07T08:55:56Z</time>
      </trkpt>
      <trkpt lat="47.25602" lon="-1.58828">
        <ele>13.6</ele>
        <time>2020-06-07T08:55:57Z</time>
      </trkpt>
      <trkpt lat="47.25603" lon="-1.58829">
        <ele>13.7</ele>
        <time>2020-06-07T08:55:58Z</time>
      </trkpt>
      <trkpt lat="47.25604" lon="-1.58829">
        <ele>13.7</ele>
        <time>2020-06-07T08:55:59Z</time>
      </trkpt>
      <trkpt lat="47.25605" lon="-1.58829">
        <ele>13.8</ele>
        <time>2020-06-07T08:56:00Z</time>
      </trkpt>
      <trkpt lat="47.25606" lon="-1.58829">
        <ele>13.9</ele>
        <time>2020-06-07T08:56:01Z</time>
      </trkpt>
      <trkpt lat="47.25607" lon="-1.58829">
        <ele>13.9</ele>
        <time>2020-06-07T08:56:02Z</time>
      </trkpt>
      <trkpt lat="47.25608" lon="-1.58829">
        <ele>14</ele>
        <time>2020-06-07T08:56:03Z</time>
      </trkpt>
      <trkpt lat="47.25608" lon="-1.58829">
        <ele>14</ele>
        <time>2020-06-07T08:56:04Z</time>
      </trkpt>
      <trkpt lat="47.25609" lon="-1.58829">
        <ele>14.1</ele>
        <time>2020-06-07T08:56:05Z</time>
      </trkpt>
      <trkpt lat="47.2561" lon="-1.58829">
        <ele>14.2</ele>
        <time>2020-06-07T08:56:06Z</time>
      </trkpt>
      <trkpt lat="47.25611" lon="-1.58829">
        <ele>14.2</ele>
        <time>2020-06-07T08:56:07Z</time>
      </trkpt>
      <trkpt lat="47.25612" lon="-1.58829">
        <ele>14.3</ele>
        <time>2020-06-07T08:56:08Z</time>
      </trkpt>
      <trkpt lat="47.25613" lon="-1.58829">
        <ele>14.4</ele>
        <time>2020-06-07T08:56:09Z</time>
      </trkpt>
      <trkpt lat="47.25613" lon="-1.58828">
        <ele>14.5</ele>
        <time>2020-06-07T08:56:10Z</time>
      </trkpt>
      <trkpt lat="47.25614" lon="-1.58828">
        <ele>14.5</ele>
        <time>2020-06-07T08:56:11Z</time>
      </trkpt>
      <trkpt lat="47.25615" lon="-1.58827">
        <ele>14.6</ele>
        <time>2020-06-07T08:56:12Z</time>
      </trkpt>
      <trkpt lat="47.25615" lon="-1.58827">
        <ele>14.7</ele>
        <time>2020-06-07T08:56:13Z</time>
      </trkpt>
      <trkpt lat="47.25616" lon="-1.58826">
        <ele>14.8</ele>
        <time>2020-06-07T08:56:14Z</time>
      </trkpt>
      <trkpt lat="47.25616" lon="-1.58825">
        <ele>14.9</ele>
        <time>2020-06-07T08:56:15Z</time>
      </trkpt>
      <trkpt lat="47.25617" lon="-1.58825">
        <ele>14.9</ele>
        <time>2020-06-07T08:56:16Z</time>
      </trkpt>
      <trkpt lat="47.25617" lon="-1.58824">
        <ele>15</ele>
        <time>2020-06-07T08:56:17Z</time>
      </trkpt>
      <trkpt lat="47.25617" lon="-1.58823">
        <ele>15</ele>
        <time>2020-06-07T08:56:18Z</time>
      </trkpt>
      <trkpt lat="47.25618" lon="-1.58823">
        <ele>15.1</ele>
        <time>2020-06-07T08:56:19Z</time>
      </trkpt>
      <trkpt lat="47.25618" lon="-1.58823">
        <ele>15.1</ele>
        <time>2020-06-07T08:56:20Z</time>
      </trkpt>
      <trkpt lat="47.25618" lon="-1.58822">
        <ele>15.2</ele>
        <time>2020-06-07T08:56:21Z</time>
      </trkpt>
      <trkpt lat="47.25618" lon="-1.58822">
        <ele>15.2</ele>
        <time>2020-06-07T08:56:22Z</time>
      </trkpt>
      <trkpt lat="47.25618" lon="-1.58822">
        <ele>15.2</ele>
        <time>2020-06-07T08:56:23Z</time>
      </trkpt>
      <trkpt lat="47.25618" lon="-1.58822">
        <ele>15.2</ele>
        <time>2020-06-07T08:56:24Z</time>
      </trkpt>
      <trkpt lat="47.25618" lon="-1.58822">
        <ele>15.2</ele>
        <time>2020-06-07T08:56:25Z</time>
      </trkpt>
      <trkpt lat="47.25618" lon="-1.58822">
        <ele>15.2</ele>
        <time>2020-06-07T08:56:26Z</time>
      </trkpt>
      <trkpt lat="47.25618" lon="-1.58822">
        <ele>15.2</ele>
        <time>2020-06-07T08:56:27Z</time>
      </trkpt>
      <trkpt lat="47.25618" lon="-1.58822">
        <ele>15.2</ele>
        <time>2020-06-07T08:56:28Z</time>
      </trkpt>
      <trkpt lat="47.25618" lon="-1.58822">
        <ele>15.2</ele>
        <time>2020-06-07T08:56:29Z</time>
      </trkpt>
      <trkpt lat="47.25618" lon="-1.58822">
        <ele>15.2</ele>
        <time>2020-06-07T08:56:30Z</time>
      </trkpt>
      <trkpt lat="47.25618" lon="-1.58822">
        <ele>15.2</ele>
        <time>2020-06-07T08:56:31Z</time>
      </trkpt>
      <trkpt lat="47.25618" lon="-1.58822">
        <ele>15.2</ele>
        <time>2020-06-07T08:56:32Z</time>
      </trkpt>
      <trkpt lat="47.25618" lon="-1.58822">
        <ele>15.2</ele>
        <time>2020-06-07T08:56:33Z</time>
      </trkpt>
      <trkpt lat="47.25618" lon="-1.58822">
        <ele>15.2</ele>
        <time>2020-06-07T08:56:34Z</time>
      </trkpt>
      <trkpt lat="47.25618" lon="-1.58822">
        <ele>15.2</ele>
        <time>2020-06-07T08:56:35Z</time>
      </trkpt>
      <trkpt lat="47.25618" lon="-1.58822">
        <ele>15.2</ele>
        <time>2020-06-07T08:56:36Z</time>
      </trkpt>
      <trkpt lat="47.25618" lon="-1.58822">
        <ele>15.2</ele>
        <time>2020-06-07T08:56:37Z</time>
      </trkpt>
      <trkpt lat="47.25618" lon="-1.58822">
        <ele>15.2</ele>
        <time>2020-06-07T08:56:38Z</time>
      </trkpt>
      <trkpt lat="47.25618" lon="-1.58822">
        <ele>15.2</ele>
        <time>2020-06-07T08:56:39Z</time>
      </trkpt>
      <trkpt lat="47.25618" lon="-1.58822">
        <ele>15.2</ele>
        <time>2020-06-07T08:56:40Z</time>
      </trkpt>
      <trkpt lat="47.25618" lon="-1.58822">
        <ele>15.2</ele>
        <time>2020-06-07T08:56:41Z</time>
      </trkpt>
      <trkpt lat="47.25618" lon="-1.58822">
        <ele>15.2</ele>
        <time>2020-06-07T08:56:42Z</time>
      </trkpt>
      <trkpt lat="47.25618" lon="-1.58822">
        <ele>15.2</ele>
        <time>2020-06-07T08:56:43Z</time>
      </trkpt>
      <trkpt lat="47.25618" lon="-1.58822">
        <ele>15.2</ele>
        <time>2020-06-07T08:56:44Z</time>
      </trkpt>
      <trkpt lat="47.25618" lon="-1.58822">
        <ele>15.2</ele>
        <time>2020-06-07T08:56:45Z</time>
      </trkpt>
      <trkpt lat="47.25618" lon="-1.58822">
        <ele>15.2</ele>
        <time>2020-06-07T08:56:46Z</time>
      </trkpt>
      <trkpt lat="47.25618" lon="-1.58822">
        <ele>15.2</ele>
        <time>2020-06-07T08:56:47Z</time>
      </trkpt>
      <trkpt lat="47.25618" lon="-1.58822">
        <ele>15.2</ele>
        <time>2020-06-07T08:56:48Z</time>
      </trkpt>
      <trkpt lat="47.25618" lon="-1.58822">
        <ele>15.2</ele>
        <time>2020-06-07T08:56:49Z</time>
      </trkpt>
      <trkpt lat="47.25618" lon="-1.58822">
        <ele>15.2</ele>
        <time>2020-06-07T08:56:50Z</time>
      </trkpt>
      <trkpt lat="47.25618" lon="-1.58822">
        <ele>15.2</ele>
        <time>2020-06-07T08:56:51Z</time>
      </trkpt>
      <trkpt lat="47.25618" lon="-1.58822">
        <ele>15.2</ele>
        <time>2020-06-07T08:56:52Z</time>
      </trkpt>
      <trkpt lat="47.25618" lon="-1.58822">
        <ele>15.2</ele>
        <time>2020-06-07T08:56:53Z</time>
      </trkpt>
      <trkpt lat="47.25618" lon="-1.58822">
        <ele>15.2</ele>
        <time>2020-06-07T08:56:54Z</time>
      </trkpt>
      <trkpt lat="47.25618" lon="-1.58822">
        <ele>15.2</ele>
        <time>2020-06-07T08:56:55Z</time>
      </trkpt>
      <trkpt lat="47.25619" lon="-1.58822">
        <ele>15.2</ele>
        <time>2020-06-07T08:56:56Z</time>
      </trkpt>
      <trkpt lat="47.25619" lon="-1.58822">
        <ele>15.2</ele>
        <time>2020-06-07T08:56:57Z</time>
      </trkpt>
      <trkpt lat="47.25619" lon="-1.58822">
        <ele>15.2</ele>
        <time>2020-06-07T08:56:58Z</time>
      </trkpt>
      <trkpt lat="47.25619" lon="-1.58822">
        <ele>15.3</ele>
        <time>2020-06-07T08:56:59Z</time>
      </trkpt>
      <trkpt lat="47.25619" lon="-1.58822">
        <ele>15.3</ele>
        <time>2020-06-07T08:57:00Z</time>
      </trkpt>
      <trkpt lat="47.2562" lon="-1.58821">
        <ele>15.3</ele>
        <time>2020-06-07T08:57:01Z</time>
      </trkpt>
      <trkpt lat="47.2562" lon="-1.58821">
        <ele>15.4</ele>
        <time>2020-06-07T08:57:02Z</time>
      </trkpt>
      <trkpt lat="47.2562" lon="-1.58821">
        <ele>15.4</ele>
        <time>2020-06-07T08:57:03Z</time>
      </trkpt>
      <trkpt lat="47.25621" lon="-1.58821">
        <ele>15.5</ele>
        <time>2020-06-07T08:57:04Z</time>
      </trkpt>
      <trkpt lat="47.25621" lon="-1.5882">
        <ele>15.5</ele>
        <time>2020-06-07T08:57:05Z</time>
      </trkpt>
      <trkpt lat="47.25622" lon="-1.5882">
        <ele>15.6</ele>
        <time>2020-06-07T08:57:06Z</time>
      </trkpt>
      <trkpt lat="47.25623" lon="-1.5882">
        <ele>15.6</ele>
        <time>2020-06-07T08:57:07Z</time>
      </trkpt>
      <trkpt lat="47.25623" lon="-1.5882">
        <ele>15.7</ele>
        <time>2020-06-07T08:57:08Z</time>
      </trkpt>
      <trkpt lat="47.25624" lon="-1.5882">
        <ele>15.7</ele>
        <time>2020-06-07T08:57:09Z</time>
      </trkpt>
      <trkpt lat="47.25625" lon="-1.5882">
        <ele>15.8</ele>
        <time>2020-06-07T08:57:10Z</time>
      </trkpt>
      <trkpt lat="47.25626" lon="-1.58821">
        <ele>15.8</ele>
        <time>2020-06-07T08:57:11Z</time>
      </trkpt>
      <trkpt lat="47.25627" lon="-1.58821">
        <ele>15.8</ele>
        <time>2020-06-07T08:57:12Z</time>
      </trkpt>
      <trkpt lat="47.25628" lon="-1.58822">
        <ele>15.9</ele>
        <time>2020-06-07T08:57:13Z</time>
      </trkpt>
      <trkpt lat="47.25629" lon="-1.58823">
        <ele>15.9</ele>
        <time>2020-06-07T08:57:14Z</time>
      </trkpt>
      <trkpt lat="47.2563" lon="-1.58824">
        <ele>15.9</ele>
        <time>2020-06-07T08:57:15Z</time>
      </trkpt>
      <trkpt lat="47.25631" lon="-1.58825">
        <ele>15.9</ele>
        <time>2020-06-07T08:57:16Z</time>
      </trkpt>
      <trkpt lat="47.25632" lon="-1.58826">
        <ele>15.9</ele>
        <time>2020-06-07T08:57:17Z</time>
      </trkpt>
      <trkpt lat="47.25633" lon="-1.58827">
        <ele>15.9</ele>
        <time>2020-06-07T08:57:18Z</time>
      </trkpt>
      <trkpt lat="47.25633" lon="-1.58829">
        <ele>15.9</ele>
        <time>2020-06-07T08:57:19Z</time>
      </trkpt>
      <trkpt lat="47.25634" lon="-1.5883">
        <ele>15.9</ele>
        <time>2020-06-07T08:57:20Z</time>
      </trkpt>
      <trkpt lat="47.25635" lon="-1.58831">
        <ele>15.9</ele>
        <time>2020-06-07T08:57:21Z</time>
      </trkpt>
      <trkpt lat="47.25636" lon="-1.58832">
        <ele>15.9</ele>
        <time>2020-06-07T08:57:22Z</time>
      </trkpt>
      <trkpt lat="47.25636" lon="-1.58833">
        <ele>15.8</ele>
        <time>2020-06-07T08:57:23Z</time>
      </trkpt>
      <trkpt lat="47.25637" lon="-1.58834">
        <ele>15.8</ele>
        <time>2020-06-07T08:57:24Z</time>
      </trkpt>
      <trkpt lat="47.25637" lon="-1.58835">
        <ele>15.8</ele>
        <time>2020-06-07T08:57:25Z</time>
      </trkpt>
      <trkpt lat="47.25638" lon="-1.58836">
        <ele>15.9</ele>
        <time>2020-06-07T08:57:26Z</time>
      </trkpt>
      <trkpt lat="47.25638" lon="-1.58837">
        <ele>15.9</ele>
        <time>2020-06-07T08:57:27Z</time>
      </trkpt>
      <trkpt lat="47.25639" lon="-1.58838">
        <ele>15.9</ele>
        <time>2020-06-07T08:57:28Z</time>
      </trkpt>
      <trkpt lat="47.25639" lon="-1.58839">
        <ele>15.9</ele>
        <time>2020-06-07T08:57:29Z</time>
      </trkpt>
      <trkpt lat="47.2564" lon="-1.5884">
        <ele>15.9</ele>
        <time>2020-06-07T08:57:30Z</time>
      </trkpt>
      <trkpt lat="47.2564" lon="-1.58841">
        <ele>15.9</ele>
        <time>2020-06-07T08:57:31Z</time>
      </trkpt>
      <trkpt lat="47.25641" lon="-1.58843">
        <ele>15.9</ele>
        <time>2020-06-07T08:57:32Z</time>
      </trkpt>
      <trkpt lat="47.25641" lon="-1.58844">
        <ele>15.8</ele>
        <time>2020-06-07T08:57:33Z</time>
      </trkpt>
      <trkpt lat="47.25642" lon="-1.58845">
        <ele>15.8</ele>
        <time>2020-06-07T08:57:34Z</time>
      </trkpt>
      <trkpt lat="47.25642" lon="-1.58846">
        <ele>15.8</ele>
        <time>2020-06-07T08:57:35Z</time>
      </trkpt>
      <trkpt lat="47.25643" lon="-1.58847">
        <ele>15.8</ele>
        <time>2020-06-07T08:57:36Z</time>
      </trkpt>
      <trkpt lat="47.25643" lon="-1.58848">
        <ele>15.8</ele>
        <time>2020-06-07T08:57:37Z</time>
      </trkpt>
      <trkpt lat="47.25644" lon="-1.5885">
        <ele>15.8</ele>
        <time>2020-06-07T08:57:38Z</time>
      </trkpt>
      <trkpt lat="47.25645" lon="-1.58851">
        <ele>15.8</ele>
        <time>2020-06-07T08:57:39Z</time>
      </trkpt>
      <trkpt lat="47.25645" lon="-1.58852">
        <ele>15.8</ele>
        <time>2020-06-07T08:57:40Z</time>
      </trkpt>
      <trkpt lat="47.25646" lon="-1.58853">
        <ele>15.8</ele>
        <time>2020-06-07T08:57:41Z</time>
      </trkpt>
      <trkpt lat="47.25647" lon="-1.58854">
        <ele>15.8</ele>
        <time>2020-06-07T08:57:42Z</time>
      </trkpt>
      <trkpt lat="47.25647" lon="-1.58855">
        <ele>15.8</ele>
        <time>2020-06-07T08:57:43Z</time>
      </trkpt>
      <trkpt lat="47.25648" lon="-1.58856">
        <ele>15.8</ele>
        <time>2020-06-07T08:57:44Z</time>
      </trkpt>
      <trkpt lat="47.25649" lon="-1.58857">
        <ele>15.8</ele>
        <time>2020-06-07T08:57:45Z</time>
      </trkpt>
      <trkpt lat="47.25649" lon="-1.58858">
        <ele>15.8</ele>
        <time>2020-06-07T08:57:46Z</time>
      </trkpt>
      <trkpt lat="47.2565" lon="-1.58859">
        <ele>15.7</ele>
        <time>2020-06-07T08:57:47Z</time>
      </trkpt>
      <trkpt lat="47.25651" lon="-1.5886">
        <ele>15.7</ele>
        <time>2020-06-07T08:57:48Z</time>
      </trkpt>
      <trkpt lat="47.25651" lon="-1.58862">
        <ele>15.7</ele>
        <time>2020-06-07T08:57:49Z</time>
      </trkpt>
      <trkpt lat="47.25652" lon="-1.58863">
        <ele>15.7</ele>
        <time>2020-06-07T08:57:50Z</time>
      </trkpt>
      <trkpt lat="47.25652" lon="-1.58864">
        <ele>15.6</ele>
        <time>2020-06-07T08:57:51Z</time>
      </trkpt>
      <trkpt lat="47.25653" lon="-1.58865">
        <ele>15.6</ele>
        <time>2020-06-07T08:57:52Z</time>
      </trkpt>
      <trkpt lat="47.25654" lon="-1.58866">
        <ele>15.6</ele>
        <time>2020-06-07T08:57:53Z</time>
      </trkpt>
      <trkpt lat="47.25654" lon="-1.58867">
        <ele>15.6</ele>
        <time>2020-06-07T08:57:54Z</time>
      </trkpt>
      <trkpt lat="47.25655" lon="-1.58869">
        <ele>15.5</ele>
        <time>2020-06-07T08:57:55Z</time>
      </trkpt>
      <trkpt lat="47.25656" lon="-1.5887">
        <ele>15.5</ele>
        <time>2020-06-07T08:57:56Z</time>
      </trkpt>
      <trkpt lat="47.25656" lon="-1.58871">
        <ele>15.5</ele>
        <time>2020-06-07T08:57:57Z</time>
      </trkpt>
      <trkpt lat="47.25657" lon="-1.58872">
        <ele>15.4</ele>
        <time>2020-06-07T08:57:58Z</time>
      </trkpt>
      <trkpt lat="47.25658" lon="-1.58873">
        <ele>15.4</ele>
        <time>2020-06-07T08:57:59Z</time>
      </trkpt>
      <trkpt lat="47.25659" lon="-1.58874">
        <ele>15.4</ele>
        <time>2020-06-07T08:58:00Z</time>
      </trkpt>
      <trkpt lat="47.25659" lon="-1.58875">
        <ele>15.3</ele>
        <time>2020-06-07T08:58:01Z</time>
      </trkpt>
      <trkpt lat="47.2566" lon="-1.58876">
        <ele>15.3</ele>
        <time>2020-06-07T08:58:02Z</time>
      </trkpt>
      <trkpt lat="47.25661" lon="-1.58877">
        <ele>15.3</ele>
        <time>2020-06-07T08:58:03Z</time>
      </trkpt>
      <trkpt lat="47.25662" lon="-1.58878">
        <ele>15.2</ele>
        <time>2020-06-07T08:58:04Z</time>
      </trkpt>
      <trkpt lat="47.25662" lon="-1.58878">
        <ele>15.2</ele>
        <time>2020-06-07T08:58:05Z</time>
      </trkpt>
      <trkpt lat="47.25663" lon="-1.58879">
        <ele>15.2</ele>
        <time>2020-06-07T08:58:06Z</time>
      </trkpt>
      <trkpt lat="47.25664" lon="-1.5888">
        <ele>15.1</ele>
        <time>2020-06-07T08:58:07Z</time>
      </trkpt>
      <trkpt lat="47.25664" lon="-1.58881">
        <ele>15.1</ele>
        <time>2020-06-07T08:58:08Z</time>
      </trkpt>
      <trkpt lat="47.25665" lon="-1.58882">
        <ele>15.1</ele>
        <time>2020-06-07T08:58:09Z</time>
      </trkpt>
      <trkpt lat="47.25666" lon="-1.58883">
        <ele>15</ele>
        <time>2020-06-07T08:58:10Z</time>
      </trkpt>
      <trkpt lat="47.25666" lon="-1.58884">
        <ele>15</ele>
        <time>2020-06-07T08:58:11Z</time>
      </trkpt>
      <trkpt lat="47.25667" lon="-1.58884">
        <ele>15</ele>
        <time>2020-06-07T08:58:12Z</time>
      </trkpt>
      <trkpt lat="47.25668" lon="-1.58885">
        <ele>15</ele>
        <time>2020-06-07T08:58:13Z</time>
      </trkpt>
      <trkpt lat="47.25668" lon="-1.58886">
        <ele>15</ele>
        <time>2020-06-07T08:58:14Z</time>
      </trkpt>
      <trkpt lat="47.25669" lon="-1.58887">
        <ele>15</ele>
        <time>2020-06-07T08:58:15Z</time>
      </trkpt>
      <trkpt lat="47.25669" lon="-1.58887">
        <ele>15</ele>
        <time>2020-06-07T08:58:16Z</time>
      </trkpt>
      <trkpt lat="47.25669" lon="-1.58888">
        <ele>15</ele>
        <time>2020-06-07T08:58:17Z</time>
      </trkpt>
      <trkpt lat="47.2567" lon="-1.58889">
        <ele>15</ele>
        <time>2020-06-07T08:58:18Z</time>
      </trkpt>
      <trkpt lat="47.2567" lon="-1.5889">
        <ele>14.9</ele>
        <time>2020-06-07T08:58:19Z</time>
      </trkpt>
      <trkpt lat="47.2567" lon="-1.58891">
        <ele>14.9</ele>
        <time>2020-06-07T08:58:20Z</time>
      </trkpt>
      <trkpt lat="47.2567" lon="-1.58892">
        <ele>14.8</ele>
        <time>2020-06-07T08:58:21Z</time>
      </trkpt>
      <trkpt lat="47.2567" lon="-1.58893">
        <ele>14.8</ele>
        <time>2020-06-07T08:58:22Z</time>
      </trkpt>
      <trkpt lat="47.2567" lon="-1.58894">
        <ele>14.7</ele>
        <time>2020-06-07T08:58:23Z</time>
      </trkpt>
      <trkpt lat="47.2567" lon="-1.58895">
        <ele>14.6</ele>
        <time>2020-06-07T08:58:24Z</time>
      </trkpt>
      <trkpt lat="47.2567" lon="-1.58896">
        <ele>14.5</ele>
        <time>2020-06-07T08:58:25Z</time>
      </trkpt>
      <trkpt lat="47.25669" lon="-1.58897">
        <ele>14.4</ele>
        <time>2020-06-07T08:58:26Z</time>
      </trkpt>
      <trkpt lat="47.25669" lon="-1.58898">
        <ele>14.4</ele>
        <time>2020-06-07T08:58:27Z</time>
      </trkpt>
      <trkpt lat="47.25668" lon="-1.58899">
        <ele>14.3</ele>
        <time>2020-06-07T08:58:28Z</time>
      </trkpt>
      <trkpt lat="47.25668" lon="-1.589">
        <ele>14.1</ele>
        <time>2020-06-07T08:58:29Z</time>
      </trkpt>
      <trkpt lat="47.25667" lon="-1.589">
        <ele>14</ele>
        <time>2020-06-07T08:58:30Z</time>
      </trkpt>
      <trkpt lat="47.25667" lon="-1.58901">
        <ele>13.9</ele>
        <time>2020-06-07T08:58:31Z</time>
      </trkpt>
      <trkpt lat="47.25666" lon="-1.58902">
        <ele>13.9</ele>
        <time>2020-06-07T08:58:32Z</time>
      </trkpt>
      <trkpt lat="47.25665" lon="-1.58903">
        <ele>13.9</ele>
        <time>2020-06-07T08:58:33Z</time>
      </trkpt>
      <trkpt lat="47.25664" lon="-1.58903">
        <ele>13.8</ele>
        <time>2020-06-07T08:58:34Z</time>
      </trkpt>
      <trkpt lat="47.25664" lon="-1.58904">
        <ele>13.8</ele>
        <time>2020-06-07T08:58:35Z</time>
      </trkpt>
      <trkpt lat="47.25663" lon="-1.58904">
        <ele>13.8</ele>
        <time>2020-06-07T08:58:36Z</time>
      </trkpt>
      <trkpt lat="47.25662" lon="-1.58904">
        <ele>13.8</ele>
        <time>2020-06-07T08:58:37Z</time>
      </trkpt>
      <trkpt lat="47.25661" lon="-1.58905">
        <ele>13.8</ele>
        <time>2020-06-07T08:58:38Z</time>
      </trkpt>
      <trkpt lat="47.25661" lon="-1.58905">
        <ele>13.8</ele>
        <time>2020-06-07T08:58:39Z</time>
      </trkpt>
      <trkpt lat="47.2566" lon="-1.58906">
        <ele>13.7</ele>
        <time>2020-06-07T08:58:40Z</time>
      </trkpt>
      <trkpt lat="47.2566" lon="-1.58906">
        <ele>13.7</ele>
        <time>2020-06-07T08:58:41Z</time>
      </trkpt>
      <trkpt lat="47.25659" lon="-1.58906">
        <ele>13.7</ele>
        <time>2020-06-07T08:58:42Z</time>
      </trkpt>
      <trkpt lat="47.25659" lon="-1.58906">
        <ele>13.7</ele>
        <time>2020-06-07T08:58:43Z</time>
      </trkpt>
      <trkpt lat="47.25658" lon="-1.58907">
        <ele>13.7</ele>
        <time>2020-06-07T08:58:44Z</time>
      </trkpt>
      <trkpt lat="47.25658" lon="-1.58907">
        <ele>13.7</ele>
        <time>2020-06-07T08:58:45Z</time>
      </trkpt>
      <trkpt lat="47.25657" lon="-1.58907">
        <ele>13.7</ele>
        <time>2020-06-07T08:58:46Z</time>
      </trkpt>
      <trkpt lat="47.25656" lon="-1.58908">
        <ele>13.7</ele>
        <time>2020-06-07T08:58:47Z</time>
      </trkpt>
      <trkpt lat="47.25656" lon="-1.58908">
        <ele>13.7</ele>
        <time>2020-06-07T08:58:48Z</time>
      </trkpt>
      <trkpt lat="47.25655" lon="-1.58908">
        <ele>13.7</ele>
        <time>2020-06-07T08:58:49Z</time>
      </trkpt>
      <trkpt lat="47.25654" lon="-1.58908">
        <ele>13.7</ele>
        <time>2020-06-07T08:58:50Z</time>
      </trkpt>
      <trkpt lat="47.25653" lon="-1.58909">
        <ele>13.7</ele>
        <time>2020-06-07T08:58:51Z</time>
      </trkpt>
      <trkpt lat="47.25652" lon="-1.58909">
        <ele>13.7</ele>
        <time>2020-06-07T08:58:52Z</time>
      </trkpt>
      <trkpt lat="47.25652" lon="-1.5891">
        <ele>13.7</ele>
        <time>2020-06-07T08:58:53Z</time>
      </trkpt>
      <trkpt lat="47.25651" lon="-1.5891">
        <ele>13.7</ele>
        <time>2020-06-07T08:58:54Z</time>
      </trkpt>
      <trkpt lat="47.2565" lon="-1.58911">
        <ele>13.6</ele>
        <time>2020-06-07T08:58:55Z</time>
      </trkpt>
      <trkpt lat="47.25649" lon="-1.58911">
        <ele>13.6</ele>
        <time>2020-06-07T08:58:56Z</time>
      </trkpt>
      <trkpt lat="47.25648" lon="-1.58912">
        <ele>13.6</ele>
        <time>2020-06-07T08:58:57Z</time>
      </trkpt>
      <trkpt lat="47.25647" lon="-1.58913">
        <ele>13.6</ele>
        <time>2020-06-07T08:58:58Z</time>
      </trkpt>
      <trkpt lat="47.25646" lon="-1.58914">
        <ele>13.6</ele>
        <time>2020-06-07T08:58:59Z</time>
      </trkpt>
      <trkpt lat="47.25646" lon="-1.58915">
        <ele>13.6</ele>
        <time>2020-06-07T08:59:00Z</time>
      </trkpt>
      <trkpt lat="47.25645" lon="-1.58915">
        <ele>13.6</ele>
        <time>2020-06-07T08:59:01Z</time>
      </trkpt>
      <trkpt lat="47.25644" lon="-1.58916">
        <ele>13.6</ele>
        <time>2020-06-07T08:59:02Z</time>
      </trkpt>
      <trkpt lat="47.25643" lon="-1.58917">
        <ele>13.6</ele>
        <time>2020-06-07T08:59:03Z</time>
      </trkpt>
      <trkpt lat="47.25643" lon="-1.58918">
        <ele>13.6</ele>
        <time>2020-06-07T08:59:04Z</time>
      </trkpt>
      <trkpt lat="47.25642" lon="-1.58919">
        <ele>13.7</ele>
        <time>2020-06-07T08:59:05Z</time>
      </trkpt>
      <trkpt lat="47.25642" lon="-1.58919">
        <ele>13.7</ele>
        <time>2020-06-07T08:59:06Z</time>
      </trkpt>
      <trkpt lat="47.25641" lon="-1.5892">
        <ele>13.8</ele>
        <time>2020-06-07T08:59:07Z</time>
      </trkpt>
      <trkpt lat="47.25641" lon="-1.58921">
        <ele>13.8</ele>
        <time>2020-06-07T08:59:08Z</time>
      </trkpt>
      <trkpt lat="47.2564" lon="-1.58922">
        <ele>13.9</ele>
        <time>2020-06-07T08:59:09Z</time>
      </trkpt>
      <trkpt lat="47.2564" lon="-1.58923">
        <ele>13.9</ele>
        <time>2020-06-07T08:59:10Z</time>
      </trkpt>
      <trkpt lat="47.25639" lon="-1.58924">
        <ele>14</ele>
        <time>2020-06-07T08:59:11Z</time>
      </trkpt>
      <trkpt lat="47.25639" lon="-1.58924">
        <ele>14</ele>
        <time>2020-06-07T08:59:12Z</time>
      </trkpt>
      <trkpt lat="47.25638" lon="-1.58925">
        <ele>14.1</ele>
        <time>2020-06-07T08:59:13Z</time>
      </trkpt>
      <trkpt lat="47.25637" lon="-1.58926">
        <ele>14.1</ele>
        <time>2020-06-07T08:59:14Z</time>
      </trkpt>
      <trkpt lat="47.25637" lon="-1.58927">
        <ele>14.2</ele>
        <time>2020-06-07T08:59:15Z</time>
      </trkpt>
      <trkpt lat="47.25636" lon="-1.58928">
        <ele>14.2</ele>
        <time>2020-06-07T08:59:16Z</time>
      </trkpt>
      <trkpt lat="47.25636" lon="-1.5893">
        <ele>14.3</ele>
        <time>2020-06-07T08:59:17Z</time>
      </trkpt>
      <trkpt lat="47.25636" lon="-1.58931">
        <ele>14.4</ele>
        <time>2020-06-07T08:59:18Z</time>
      </trkpt>
      <trkpt lat="47.25636" lon="-1.58933">
        <ele>14.5</ele>
        <time>2020-06-07T08:59:19Z</time>
      </trkpt>
      <trkpt lat="47.25637" lon="-1.58935">
        <ele>14.5</ele>
        <time>2020-06-07T08:59:20Z</time>
      </trkpt>
      <trkpt lat="47.25637" lon="-1.58936">
        <ele>14.6</ele>
        <time>2020-06-07T08:59:21Z</time>
      </trkpt>
      <trkpt lat="47.25637" lon="-1.58937">
        <ele>14.6</ele>
        <time>2020-06-07T08:59:22Z</time>
      </trkpt>
      <trkpt lat="47.25637" lon="-1.58938">
        <ele>14.7</ele>
        <time>2020-06-07T08:59:23Z</time>
      </trkpt>
      <trkpt lat="47.25638" lon="-1.58939">
        <ele>14.7</ele>
        <time>2020-06-07T08:59:24Z</time>
      </trkpt>
      <trkpt lat="47.25638" lon="-1.5894">
        <ele>14.7</ele>
        <time>2020-06-07T08:59:25Z</time>
      </trkpt>
      <trkpt lat="47.25638" lon="-1.5894">
        <ele>14.7</ele>
        <time>2020-06-07T08:59:26Z</time>
      </trkpt>
      <trkpt lat="47.25638" lon="-1.58941">
        <ele>14.8</ele>
        <time>2020-06-07T08:59:27Z</time>
      </trkpt>
      <trkpt lat="47.25638" lon="-1.58942">
        <ele>14.8</ele>
        <time>2020-06-07T08:59:28Z</time>
      </trkpt>
      <trkpt lat="47.25639" lon="-1.58942">
        <ele>14.8</ele>
        <time>2020-06-07T08:59:29Z</time>
      </trkpt>
      <trkpt lat="47.25639" lon="-1.58943">
        <ele>14.8</ele>
        <time>2020-06-07T08:59:30Z</time>
      </trkpt>
      <trkpt lat="47.25639" lon="-1.58943">
        <ele>14.8</ele>
        <time>2020-06-07T08:59:31Z</time>
      </trkpt>
      <trkpt lat="47.25639" lon="-1.58943">
        <ele>14.8</ele>
        <time>2020-06-07T08:59:32Z</time>
      </trkpt>
      <trkpt lat="47.25639" lon="-1.58944">
        <ele>14.8</ele>
        <time>2020-06-07T08:59:33Z</time>
      </trkpt>
      <trkpt lat="47.25639" lon="-1.58944">
        <ele>14.8</ele>
        <time>2020-06-07T08:59:34Z</time>
      </trkpt>
      <trkpt lat="47.25639" lon="-1.58944">
        <ele>14.8</ele>
        <time>2020-06-07T08:59:35Z</time>
      </trkpt>
      <trkpt lat="47.25639" lon="-1.58944">
        <ele>14.8</ele>
        <time>2020-06-07T08:59:36Z</time>
      </trkpt>
      <trkpt lat="47.25639" lon="-1.58944">
        <ele>14.8</ele>
        <time>2020-06-07T08:59:37Z</time>
      </trkpt>
      <trkpt lat="47.25639" lon="-1.58944">
        <ele>14.9</ele>
        <time>2020-06-07T08:59:38Z</time>
      </trkpt>
      <trkpt lat="47.25639" lon="-1.58944">
        <ele>14.9</ele>
        <time>2020-06-07T08:59:39Z</time>
      </trkpt>
      <trkpt lat="47.25639" lon="-1.58945">
        <ele>14.9</ele>
        <time>2020-06-07T08:59:40Z</time>
      </trkpt>
      <trkpt lat="47.2564" lon="-1.58946">
        <ele>14.9</ele>
        <time>2020-06-07T08:59:41Z</time>
      </trkpt>
      <trkpt lat="47.2564" lon="-1.58947">
        <ele>15</ele>
        <time>2020-06-07T08:59:42Z</time>
      </trkpt>
      <trkpt lat="47.2564" lon="-1.58948">
        <ele>15</ele>
        <time>2020-06-07T08:59:43Z</time>
      </trkpt>
      <trkpt lat="47.2564" lon="-1.58949">
        <ele>15</ele>
        <time>2020-06-07T08:59:44Z</time>
      </trkpt>
      <trkpt lat="47.25641" lon="-1.5895">
        <ele>15</ele>
        <time>2020-06-07T08:59:45Z</time>
      </trkpt>
      <trkpt lat="47.25642" lon="-1.58951">
        <ele>15.1</ele>
        <time>2020-06-07T08:59:46Z</time>
      </trkpt>
      <trkpt lat="47.25642" lon="-1.58952">
        <ele>15.1</ele>
        <time>2020-06-07T08:59:47Z</time>
      </trkpt>
      <trkpt lat="47.25643" lon="-1.58953">
        <ele>15.1</ele>
        <time>2020-06-07T08:59:48Z</time>
      </trkpt>
      <trkpt lat="47.25644" lon="-1.58954">
        <ele>15.2</ele>
        <time>2020-06-07T08:59:49Z</time>
      </trkpt>
      <trkpt lat="47.25645" lon="-1.58955">
        <ele>15.2</ele>
        <time>2020-06-07T08:59:50Z</time>
      </trkpt>
      <trkpt lat="47.25645" lon="-1.58957">
        <ele>15.2</ele>
        <time>2020-06-07T08:59:51Z</time>
      </trkpt>
      <trkpt lat="47.25646" lon="-1.58958">
        <ele>15.2</ele>
        <time>2020-06-07T08:59:52Z</time>
      </trkpt>
      <trkpt lat="47.25647" lon="-1.58959">
        <ele>15.2</ele>
        <time>2020-06-07T08:59:53Z</time>
      </trkpt>
      <trkpt lat="47.25647" lon="-1.5896">
        <ele>15.3</ele>
        <time>2020-06-07T08:59:54Z</time>
      </trkpt>
      <trkpt lat="47.25648" lon="-1.58961">
        <ele>15.3</ele>
        <time>2020-06-07T08:59:55Z</time>
      </trkpt>
      <trkpt lat="47.25649" lon="-1.58962">
        <ele>15.3</ele>
        <time>2020-06-07T08:59:56Z</time>
      </trkpt>
      <trkpt lat="47.25649" lon="-1.58963">
        <ele>15.3</ele>
        <time>2020-06-07T08:59:57Z</time>
      </trkpt>
      <trkpt lat="47.2565" lon="-1.58964">
        <ele>15.3</ele>
        <time>2020-06-07T08:59:58Z</time>
      </trkpt>
      <trkpt lat="47.25651" lon="-1.58965">
        <ele>15.3</ele>
        <time>2020-06-07T08:59:59Z</time>
      </trkpt>
      <trkpt lat="47.25652" lon="-1.58966">
        <ele>15.3</ele>
        <time>2020-06-07T09:00:00Z</time>
      </trkpt>
      <trkpt lat="47.25652" lon="-1.58967">
        <ele>15.3</ele>
        <time>2020-06-07T09:00:01Z</time>
      </trkpt>
      <trkpt lat="47.25653" lon="-1.58968">
        <ele>15.4</ele>
        <time>2020-06-07T09:00:02Z</time>
      </trkpt>
      <trkpt lat="47.25654" lon="-1.58969">
        <ele>15.4</ele>
        <time>2020-06-07T09:00:03Z</time>
      </trkpt>
      <trkpt lat="47.25655" lon="-1.5897">
        <ele>15.4</ele>
        <time>2020-06-07T09:00:04Z</time>
      </trkpt>
      <trkpt lat="47.25655" lon="-1.58971">
        <ele>15.4</ele>
        <time>2020-06-07T09:00:05Z</time>
      </trkpt>
      <trkpt lat="47.25656" lon="-1.58972">
        <ele>15.4</ele>
        <time>2020-06-07T09:00:06Z</time>
      </trkpt>
      <trkpt lat="47.25657" lon="-1.58973">
        <ele>15.4</ele>
        <time>2020-06-07T09:00:07Z</time>
      </trkpt>
      <trkpt lat="47.25657" lon="-1.58974">
        <ele>15.4</ele>
        <time>2020-06-07T09:00:08Z</time>
      </trkpt>
      <trkpt lat="47.25658" lon="-1.58975">
        <ele>15.5</ele>
        <time>2020-06-07T09:00:09Z</time>
      </trkpt>
      <trkpt lat="47.25658" lon="-1.58976">
        <ele>15.5</ele>
        <time>2020-06-07T09:00:10Z</time>
      </trkpt>
      <trkpt lat="47.25659" lon="-1.58977">
        <ele>15.5</ele>
        <time>2020-06-07T09:00:11Z</time>
      </trkpt>
      <trkpt lat="47.25659" lon="-1.58979">
        <ele>15.5</ele>
        <time>2020-06-07T09:00:12Z</time>
      </trkpt>
      <trkpt lat="47.2566" lon="-1.5898">
        <ele>15.6</ele>
        <time>2020-06-07T09:00:13Z</time>
      </trkpt>
      <trkpt lat="47.2566" lon="-1.58981">
        <ele>15.6</ele>
        <time>2020-06-07T09:00:14Z</time>
      </trkpt>
      <trkpt lat="47.25661" lon="-1.58983">
        <ele>15.6</ele>
        <time>2020-06-07T09:00:15Z</time>
      </trkpt>
      <trkpt lat="47.25661" lon="-1.58984">
        <ele>15.7</ele>
        <time>2020-06-07T09:00:16Z</time>
      </trkpt>
      <trkpt lat="47.25661" lon="-1.58986">
        <ele>15.7</ele>
        <time>2020-06-07T09:00:17Z</time>
      </trkpt>
      <trkpt lat="47.25662" lon="-1.58987">
        <ele>15.8</ele>
        <time>2020-06-07T09:00:18Z</time>
      </trkpt>
      <trkpt lat="47.25662" lon="-1.58989">
        <ele>15.8</ele>
        <time>2020-06-07T09:00:19Z</time>
      </trkpt>
      <trkpt lat="47.25662" lon="-1.5899">
        <ele>15.8</ele>
        <time>2020-06-07T09:00:20Z</time>
      </trkpt>
      <trkpt lat="47.25662" lon="-1.58991">
        <ele>15.9</ele>
        <time>2020-06-07T09:00:21Z</time>
      </trkpt>
      <trkpt lat="47.25663" lon="-1.58993">
        <ele>15.9</ele>
        <time>2020-06-07T09:00:22Z</time>
      </trkpt>
      <trkpt lat="47.25663" lon="-1.58994">
        <ele>16</ele>
        <time>2020-06-07T09:00:23Z</time>
      </trkpt>
      <trkpt lat="47.25663" lon="-1.58995">
        <ele>16</ele>
        <time>2020-06-07T09:00:24Z</time>
      </trkpt>
      <trkpt lat="47.25664" lon="-1.58997">
        <ele>16</ele>
        <time>2020-06-07T09:00:25Z</time>
      </trkpt>
      <trkpt lat="47.25664" lon="-1.58998">
        <ele>16</ele>
        <time>2020-06-07T09:00:26Z</time>
      </trkpt>
      <trkpt lat="47.25664" lon="-1.58999">
        <ele>16.1</ele>
        <time>2020-06-07T09:00:27Z</time>
      </trkpt>
      <trkpt lat="47.25664" lon="-1.59">
        <ele>16.1</ele>
        <time>2020-06-07T09:00:28Z</time>
      </trkpt>
      <trkpt lat="47.25665" lon="-1.59001">
        <ele>16.2</ele>
        <time>2020-06-07T09:00:29Z</time>
      </trkpt>
      <trkpt lat="47.25665" lon="-1.59002">
        <ele>16.2</ele>
        <time>2020-06-07T09:00:30Z</time>
      </trkpt>
      <trkpt lat="47.25666" lon="-1.59004">
        <ele>16.3</ele>
        <time>2020-06-07T09:00:31Z</time>
      </trkpt>
      <trkpt lat="47.25666" lon="-1.59005">
        <ele>16.3</ele>
        <time>2020-06-07T09:00:32Z</time>
      </trkpt>
      <trkpt lat="47.25667" lon="-1.59006">
        <ele>16.4</ele>
        <time>2020-06-07T09:00:33Z</time>
      </trkpt>
      <trkpt lat="47.25668" lon="-1.59008">
        <ele>16.5</ele>
        <time>2020-06-07T09:00:34Z</time>
      </trkpt>
      <trkpt lat="47.25668" lon="-1.5901">
        <ele>16.6</ele>
        <time>2020-06-07T09:00:35Z</time>
      </trkpt>
      <trkpt lat="47.25669" lon="-1.59011">
        <ele>16.8</ele>
        <time>2020-06-07T09:00:36Z</time>
      </trkpt>
      <trkpt lat="47.2567" lon="-1.59013">
        <ele>16.9</ele>
        <time>2020-06-07T09:00:37Z</time>
      </trkpt>
      <trkpt lat="47.25671" lon="-1.59015">
        <ele>17</ele>
        <time>2020-06-07T09:00:38Z</time>
      </trkpt>
      <trkpt lat="47.25671" lon="-1.59016">
        <ele>17.1</ele>
        <time>2020-06-07T09:00:39Z</time>
      </trkpt>
      <trkpt lat="47.25672" lon="-1.59018">
        <ele>17.2</ele>
        <time>2020-06-07T09:00:40Z</time>
      </trkpt>
      <trkpt lat="47.25672" lon="-1.59019">
        <ele>17.3</ele>
        <time>2020-06-07T09:00:41Z</time>
      </trkpt>
      <trkpt lat="47.25673" lon="-1.59021">
        <ele>17.4</ele>
        <time>2020-06-07T09:00:42Z</time>
      </trkpt>
      <trkpt lat="47.25673" lon="-1.59022">
        <ele>17.5</ele>
        <time>2020-06-07T09:00:43Z</time>
      </trkpt>
      <trkpt lat="47.25673" lon="-1.59023">
        <ele>17.6</ele>
        <time>2020-06-07T09:00:44Z</time>
      </trkpt>
      <trkpt lat="47.25674" lon="-1.59025">
        <ele>17.7</ele>
        <time>2020-06-07T09:00:45Z</time>
      </trkpt>
      <trkpt lat="47.25674" lon="-1.59026">
        <ele>17.7</ele>
        <time>2020-06-07T09:00:46Z</time>
      </trkpt>
      <trkpt lat="47.25674" lon="-1.59027">
        <ele>17.8</ele>
        <time>2020-06-07T09:00:47Z</time>
      </trkpt>
      <trkpt lat="47.25674" lon="-1.59028">
        <ele>17.8</ele>
        <time>2020-06-07T09:00:48Z</time>
      </trkpt>
      <trkpt lat="47.25675" lon="-1.59029">
        <ele>17.9</ele>
        <time>2020-06-07T09:00:49Z</time>
      </trkpt>
      <trkpt lat="47.25675" lon="-1.5903">
        <ele>18</ele>
        <time>2020-06-07T09:00:50Z</time>
      </trkpt>
      <trkpt lat="47.25675" lon="-1.59031">
        <ele>18</ele>
        <time>2020-06-07T09:00:51Z</time>
      </trkpt>
      <trkpt lat="47.25676" lon="-1.59031">
        <ele>18.1</ele>
        <time>2020-06-07T09:00:52Z</time>
      </trkpt>
      <trkpt lat="47.25676" lon="-1.59032">
        <ele>18.1</ele>
        <time>2020-06-07T09:00:53Z</time>
      </trkpt>
      <trkpt lat="47.25677" lon="-1.59033">
        <ele>18.2</ele>
        <time>2020-06-07T09:00:54Z</time>
      </trkpt>
      <trkpt lat="47.25677" lon="-1.59034">
        <ele>18.2</ele>
        <time>2020-06-07T09:00:55Z</time>
      </trkpt>
      <trkpt lat="47.25678" lon="-1.59035">
        <ele>18.3</ele>
        <time>2020-06-07T09:00:56Z</time>
      </trkpt>
      <trkpt lat="47.25679" lon="-1.59036">
        <ele>18.3</ele>
        <time>2020-06-07T09:00:57Z</time>
      </trkpt>
      <trkpt lat="47.25679" lon="-1.59036">
        <ele>18.4</ele>
        <time>2020-06-07T09:00:58Z</time>
      </trkpt>
      <trkpt lat="47.2568" lon="-1.59037">
        <ele>18.4</ele>
        <time>2020-06-07T09:00:59Z</time>
      </trkpt>
      <trkpt lat="47.2568" lon="-1.59038">
        <ele>18.5</ele>
        <time>2020-06-07T09:01:00Z</time>
      </trkpt>
      <trkpt lat="47.25681" lon="-1.59039">
        <ele>18.5</ele>
        <time>2020-06-07T09:01:01Z</time>
      </trkpt>
      <trkpt lat="47.25682" lon="-1.5904">
        <ele>18.6</ele>
        <time>2020-06-07T09:01:02Z</time>
      </trkpt>
      <trkpt lat="47.25683" lon="-1.59041">
        <ele>18.6</ele>
        <time>2020-06-07T09:01:03Z</time>
      </trkpt>
      <trkpt lat="47.25683" lon="-1.59041">
        <ele>18.7</ele>
        <time>2020-06-07T09:01:04Z</time>
      </trkpt>
      <trkpt lat="47.25684" lon="-1.59042">
        <ele>18.7</ele>
        <time>2020-06-07T09:01:05Z</time>
      </trkpt>
      <trkpt lat="47.25685" lon="-1.59043">
        <ele>18.8</ele>
        <time>2020-06-07T09:01:06Z</time>
      </trkpt>
      <trkpt lat="47.25685" lon="-1.59044">
        <ele>18.8</ele>
        <time>2020-06-07T09:01:07Z</time>
      </trkpt>
      <trkpt lat="47.25686" lon="-1.59045">
        <ele>18.9</ele>
        <time>2020-06-07T09:01:08Z</time>
      </trkpt>
      <trkpt lat="47.25687" lon="-1.59046">
        <ele>18.9</ele>
        <time>2020-06-07T09:01:09Z</time>
      </trkpt>
      <trkpt lat="47.25688" lon="-1.59047">
        <ele>19</ele>
        <time>2020-06-07T09:01:10Z</time>
      </trkpt>
      <trkpt lat="47.25689" lon="-1.59048">
        <ele>19</ele>
        <time>2020-06-07T09:01:11Z</time>
      </trkpt>
      <trkpt lat="47.25689" lon="-1.59049">
        <ele>19</ele>
        <time>2020-06-07T09:01:12Z</time>
      </trkpt>
      <trkpt lat="47.2569" lon="-1.5905">
        <ele>19.1</ele>
        <time>2020-06-07T09:01:13Z</time>
      </trkpt>
      <trkpt lat="47.25691" lon="-1.5905">
        <ele>19.1</ele>
        <time>2020-06-07T09:01:14Z</time>
      </trkpt>
      <trkpt lat="47.25692" lon="-1.59051">
        <ele>19.2</ele>
        <time>2020-06-07T09:01:15Z</time>
      </trkpt>
      <trkpt lat="47.25693" lon="-1.59052">
        <ele>19.2</ele>
        <time>2020-06-07T09:01:16Z</time>
      </trkpt>
      <trkpt lat="47.25693" lon="-1.59053">
        <ele>19.2</ele>
        <time>2020-06-07T09:01:17Z</time>
      </trkpt>
      <trkpt lat="47.25694" lon="-1.59054">
        <ele>19.3</ele>
        <time>2020-06-07T09:01:18Z</time>
      </trkpt>
      <trkpt lat="47.25695" lon="-1.59055">
        <ele>19.3</ele>
        <time>2020-06-07T09:01:19Z</time>
      </trkpt>
      <trkpt lat="47.25696" lon="-1.59056">
        <ele>19.3</ele>
        <time>2020-06-07T09:01:20Z</time>
      </trkpt>
      <trkpt lat="47.25697" lon="-1.59057">
        <ele>19.4</ele>
        <time>2020-06-07T09:01:21Z</time>
      </trkpt>
      <trkpt lat="47.25697" lon="-1.59058">
        <ele>19.4</ele>
        <time>2020-06-07T09:01:22Z</time>
      </trkpt>
      <trkpt lat="47.25698" lon="-1.59059">
        <ele>19.4</ele>
        <time>2020-06-07T09:01:23Z</time>
      </trkpt>
      <trkpt lat="47.25699" lon="-1.5906">
        <ele>19.5</ele>
        <time>2020-06-07T09:01:24Z</time>
      </trkpt>
      <trkpt lat="47.257" lon="-1.5906">
        <ele>19.5</ele>
        <time>2020-06-07T09:01:25Z</time>
      </trkpt>
      <trkpt lat="47.25701" lon="-1.59061">
        <ele>19.5</ele>
        <time>2020-06-07T09:01:26Z</time>
      </trkpt>
      <trkpt lat="47.25701" lon="-1.59062">
        <ele>19.5</ele>
        <time>2020-06-07T09:01:27Z</time>
      </trkpt>
      <trkpt lat="47.25702" lon="-1.59063">
        <ele>19.5</ele>
        <time>2020-06-07T09:01:28Z</time>
      </trkpt>
      <trkpt lat="47.25703" lon="-1.59063">
        <ele>19.6</ele>
        <time>2020-06-07T09:01:29Z</time>
      </trkpt>
      <trkpt lat="47.25704" lon="-1.59064">
        <ele>19.6</ele>
        <time>2020-06-07T09:01:30Z</time>
      </trkpt>
      <trkpt lat="47.25705" lon="-1.59064">
        <ele>19.6</ele>
        <time>2020-06-07T09:01:31Z</time>
      </trkpt>
      <trkpt lat="47.25706" lon="-1.59065">
        <ele>19.6</ele>
        <time>2020-06-07T09:01:32Z</time>
      </trkpt>
      <trkpt lat="47.25707" lon="-1.59066">
        <ele>19.6</ele>
        <time>2020-06-07T09:01:33Z</time>
      </trkpt>
      <trkpt lat="47.25707" lon="-1.59066">
        <ele>19.6</ele>
        <time>2020-06-07T09:01:34Z</time>
      </trkpt>
      <trkpt lat="47.25708" lon="-1.59066">
        <ele>19.6</ele>
        <time>2020-06-07T09:01:35Z</time>
      </trkpt>
      <trkpt lat="47.25709" lon="-1.59067">
        <ele>19.6</ele>
        <time>2020-06-07T09:01:36Z</time>
      </trkpt>
      <trkpt lat="47.2571" lon="-1.59067">
        <ele>19.6</ele>
        <time>2020-06-07T09:01:37Z</time>
      </trkpt>
      <trkpt lat="47.25711" lon="-1.59067">
        <ele>19.6</ele>
        <time>2020-06-07T09:01:38Z</time>
      </trkpt>
      <trkpt lat="47.25712" lon="-1.59067">
        <ele>19.6</ele>
        <time>2020-06-07T09:01:39Z</time>
      </trkpt>
      <trkpt lat="47.25713" lon="-1.59068">
        <ele>19.6</ele>
        <time>2020-06-07T09:01:40Z</time>
      </trkpt>
      <trkpt lat="47.25714" lon="-1.59068">
        <ele>19.6</ele>
        <time>2020-06-07T09:01:41Z</time>
      </trkpt>
      <trkpt lat="47.25715" lon="-1.59067">
        <ele>19.6</ele>
        <time>2020-06-07T09:01:42Z</time>
      </trkpt>
      <trkpt lat="47.25715" lon="-1.59067">
        <ele>19.5</ele>
        <time>2020-06-07T09:01:43Z</time>
      </trkpt>
      <trkpt lat="47.25716" lon="-1.59067">
        <ele>19.5</ele>
        <time>2020-06-07T09:01:44Z</time>
      </trkpt>
      <trkpt lat="47.25717" lon="-1.59067">
        <ele>19.5</ele>
        <time>2020-06-07T09:01:45Z</time>
      </trkpt>
      <trkpt lat="47.25718" lon="-1.59067">
        <ele>19.5</ele>
        <time>2020-06-07T09:01:46Z</time>
      </trkpt>
      <trkpt lat="47.25719" lon="-1.59066">
        <ele>19.5</ele>
        <time>2020-06-07T09:01:47Z</time>
      </trkpt>
      <trkpt lat="47.25719" lon="-1.59066">
        <ele>19.5</ele>
        <time>2020-06-07T09:01:48Z</time>
      </trkpt>
      <trkpt lat="47.2572" lon="-1.59066">
        <ele>19.5</ele>
        <time>2020-06-07T09:01:49Z</time>
      </trkpt>
      <trkpt lat="47.25721" lon="-1.59067">
        <ele>19.5</ele>
        <time>2020-06-07T09:01:50Z</time>
      </trkpt>
      <trkpt lat="47.25722" lon="-1.59067">
        <ele>19.5</ele>
        <time>2020-06-07T09:01:51Z</time>
      </trkpt>
      <trkpt lat="47.25722" lon="-1.59068">
        <ele>19.5</ele>
        <time>2020-06-07T09:01:52Z</time>
      </trkpt>
      <trkpt lat="47.25723" lon="-1.59068">
        <ele>19.5</ele>
        <time>2020-06-07T09:01:53Z</time>
      </trkpt>
      <trkpt lat="47.25724" lon="-1.59069">
        <ele>19.5</ele>
        <time>2020-06-07T09:01:54Z</time>
      </trkpt>
      <trkpt lat="47.25725" lon="-1.5907">
        <ele>19.5</ele>
        <time>2020-06-07T09:01:55Z</time>
      </trkpt>
      <trkpt lat="47.25725" lon="-1.5907">
        <ele>19.5</ele>
        <time>2020-06-07T09:01:56Z</time>
      </trkpt>
      <trkpt lat="47.25726" lon="-1.59071">
        <ele>19.5</ele>
        <time>2020-06-07T09:01:57Z</time>
      </trkpt>
      <trkpt lat="47.25727" lon="-1.59072">
        <ele>19.5</ele>
        <time>2020-06-07T09:01:58Z</time>
      </trkpt>
      <trkpt lat="47.25727" lon="-1.59072">
        <ele>19.5</ele>
        <time>2020-06-07T09:01:59Z</time>
      </trkpt>
      <trkpt lat="47.25727" lon="-1.59073">
        <ele>19.5</ele>
        <time>2020-06-07T09:02:00Z</time>
      </trkpt>
      <trkpt lat="47.25728" lon="-1.59073">
        <ele>19.5</ele>
        <time>2020-06-07T09:02:01Z</time>
      </trkpt>
      <trkpt lat="47.25728" lon="-1.59073">
        <ele>19.5</ele>
        <time>2020-06-07T09:02:02Z</time>
      </trkpt>
      <trkpt lat="47.25728" lon="-1.59073">
        <ele>19.5</ele>
        <time>2020-06-07T09:02:03Z</time>
      </trkpt>
      <trkpt lat="47.25728" lon="-1.59073">
        <ele>19.5</ele>
        <time>2020-06-07T09:02:04Z</time>
      </trkpt>
      <trkpt lat="47.25728" lon="-1.59073">
        <ele>19.5</ele>
        <time>2020-06-07T09:02:05Z</time>
      </trkpt>
      <trkpt lat="47.25728" lon="-1.59073">
        <ele>19.5</ele>
        <time>2020-06-07T09:02:06Z</time>
      </trkpt>
      <trkpt lat="47.25728" lon="-1.59073">
        <ele>19.5</ele>
        <time>2020-06-07T09:02:07Z</time>
      </trkpt>
      <trkpt lat="47.25728" lon="-1.59073">
        <ele>19.5</ele>
        <time>2020-06-07T09:02:08Z</time>
      </trkpt>
      <trkpt lat="47.25728" lon="-1.59073">
        <ele>19.5</ele>
        <time>2020-06-07T09:02:09Z</time>
      </trkpt>
      <trkpt lat="47.25728" lon="-1.59074">
        <ele>19.5</ele>
        <time>2020-06-07T09:02:10Z</time>
      </trkpt>
      <trkpt lat="47.25728" lon="-1.59074">
        <ele>19.5</ele>
        <time>2020-06-07T09:02:11Z</time>
      </trkpt>
      <trkpt lat="47.25728" lon="-1.59074">
        <ele>19.5</ele>
        <time>2020-06-07T09:02:12Z</time>
      </trkpt>
      <trkpt lat="47.25728" lon="-1.59074">
        <ele>19.5</ele>
        <time>2020-06-07T09:02:13Z</time>
      </trkpt>
      <trkpt lat="47.25728" lon="-1.59074">
        <ele>19.5</ele>
        <time>2020-06-07T09:02:14Z</time>
      </trkpt>
      <trkpt lat="47.25728" lon="-1.59075">
        <ele>19.5</ele>
        <time>2020-06-07T09:02:15Z</time>
      </trkpt>
      <trkpt lat="47.25728" lon="-1.59076">
        <ele>19.5</ele>
        <time>2020-06-07T09:02:16Z</time>
      </trkpt>
      <trkpt lat="47.25728" lon="-1.59076">
        <ele>19.5</ele>
        <time>2020-06-07T09:02:17Z</time>
      </trkpt>
      <trkpt lat="47.25728" lon="-1.59077">
        <ele>19.5</ele>
        <time>2020-06-07T09:02:18Z</time>
      </trkpt>
      <trkpt lat="47.25728" lon="-1.59078">
        <ele>19.5</ele>
        <time>2020-06-07T09:02:19Z</time>
      </trkpt>
      <trkpt lat="47.25728" lon="-1.59079">
        <ele>19.5</ele>
        <time>2020-06-07T09:02:20Z</time>
      </trkpt>
      <trkpt lat="47.25728" lon="-1.5908">
        <ele>19.5</ele>
        <time>2020-06-07T09:02:21Z</time>
      </trkpt>
      <trkpt lat="47.25728" lon="-1.59081">
        <ele>19.5</ele>
        <time>2020-06-07T09:02:22Z</time>
      </trkpt>
      <trkpt lat="47.25728" lon="-1.59082">
        <ele>19.5</ele>
        <time>2020-06-07T09:02:23Z</time>
      </trkpt>
      <trkpt lat="47.25728" lon="-1.59083">
        <ele>19.5</ele>
        <time>2020-06-07T09:02:24Z</time>
      </trkpt>
      <trkpt lat="47.25728" lon="-1.59084">
        <ele>19.5</ele>
        <time>2020-06-07T09:02:25Z</time>
      </trkpt>
      <trkpt lat="47.25728" lon="-1.59085">
        <ele>19.5</ele>
        <time>2020-06-07T09:02:26Z</time>
      </trkpt>
      <trkpt lat="47.25728" lon="-1.59086">
        <ele>19.6</ele>
        <time>2020-06-07T09:02:27Z</time>
      </trkpt>
      <trkpt lat="47.25728" lon="-1.59087">
        <ele>19.6</ele>
        <time>2020-06-07T09:02:28Z</time>
      </trkpt>
      <trkpt lat="47.25728" lon="-1.59088">
        <ele>19.6</ele>
        <time>2020-06-07T09:02:29Z</time>
      </trkpt>
      <trkpt lat="47.25728" lon="-1.59089">
        <ele>19.7</ele>
        <time>2020-06-07T09:02:30Z</time>
      </trkpt>
      <trkpt lat="47.25728" lon="-1.5909">
        <ele>19.7</ele>
        <time>2020-06-07T09:02:31Z</time>
      </trkpt>
      <trkpt lat="47.25728" lon="-1.59091">
        <ele>19.7</ele>
        <time>2020-06-07T09:02:32Z</time>
      </trkpt>
      <trkpt lat="47.25728" lon="-1.59093">
        <ele>19.7</ele>
        <time>2020-06-07T09:02:33Z</time>
      </trkpt>
      <trkpt lat="47.25728" lon="-1.59094">
        <ele>19.8</ele>
        <time>2020-06-07T09:02:34Z</time>
      </trkpt>
      <trkpt lat="47.25728" lon="-1.59095">
        <ele>19.8</ele>
        <time>2020-06-07T09:02:35Z</time>
      </trkpt>
      <trkpt lat="47.25728" lon="-1.59096">
        <ele>19.8</ele>
        <time>2020-06-07T09:02:36Z</time>
      </trkpt>
      <trkpt lat="47.25728" lon="-1.59097">
        <ele>19.9</ele>
        <time>2020-06-07T09:02:37Z</time>
      </trkpt>
      <trkpt lat="47.25728" lon="-1.59098">
        <ele>19.9</ele>
        <time>2020-06-07T09:02:38Z</time>
      </trkpt>
      <trkpt lat="47.25727" lon="-1.59099">
        <ele>19.9</ele>
        <time>2020-06-07T09:02:39Z</time>
      </trkpt>
      <trkpt lat="47.25727" lon="-1.591">
        <ele>20</ele>
        <time>2020-06-07T09:02:40Z</time>
      </trkpt>
      <trkpt lat="47.25727" lon="-1.59101">
        <ele>20</ele>
        <time>2020-06-07T09:02:41Z</time>
      </trkpt>
      <trkpt lat="47.25727" lon="-1.59102">
        <ele>20</ele>
        <time>2020-06-07T09:02:42Z</time>
      </trkpt>
      <trkpt lat="47.25726" lon="-1.59103">
        <ele>20.1</ele>
        <time>2020-06-07T09:02:43Z</time>
      </trkpt>
      <trkpt lat="47.25726" lon="-1.59104">
        <ele>20.1</ele>
        <time>2020-06-07T09:02:44Z</time>
      </trkpt>
      <trkpt lat="47.25725" lon="-1.59104">
        <ele>20.1</ele>
        <time>2020-06-07T09:02:45Z</time>
      </trkpt>
      <trkpt lat="47.25725" lon="-1.59105">
        <ele>20.2</ele>
        <time>2020-06-07T09:02:46Z</time>
      </trkpt>
      <trkpt lat="47.25725" lon="-1.59106">
        <ele>20.2</ele>
        <time>2020-06-07T09:02:47Z</time>
      </trkpt>
      <trkpt lat="47.25724" lon="-1.59107">
        <ele>20.3</ele>
        <time>2020-06-07T09:02:48Z</time>
      </trkpt>
      <trkpt lat="47.25724" lon="-1.59108">
        <ele>20.3</ele>
        <time>2020-06-07T09:02:49Z</time>
      </trkpt>
      <trkpt lat="47.25724" lon="-1.59109">
        <ele>20.3</ele>
        <time>2020-06-07T09:02:50Z</time>
      </trkpt>
      <trkpt lat="47.25724" lon="-1.5911">
        <ele>20.4</ele>
        <time>2020-06-07T09:02:51Z</time>
      </trkpt>
      <trkpt lat="47.25724" lon="-1.59111">
        <ele>20.4</ele>
        <time>2020-06-07T09:02:52Z</time>
      </trkpt>
      <trkpt lat="47.25724" lon="-1.59112">
        <ele>20.4</ele>
        <time>2020-06-07T09:02:53Z</time>
      </trkpt>
      <trkpt lat="47.25724" lon="-1.59113">
        <ele>20.4</ele>
        <time>2020-06-07T09:02:54Z</time>
      </trkpt>
      <trkpt lat="47.25724" lon="-1.59114">
        <ele>20.5</ele>
        <time>2020-06-07T09:02:55Z</time>
      </trkpt>
      <trkpt lat="47.25724" lon="-1.59114">
        <ele>20.5</ele>
        <time>2020-06-07T09:02:56Z</time>
      </trkpt>
      <trkpt lat="47.25724" lon="-1.59115">
        <ele>20.5</ele>
        <time>2020-06-07T09:02:57Z</time>
      </trkpt>
      <trkpt lat="47.25724" lon="-1.59115">
        <ele>20.5</ele>
        <time>2020-06-07T09:02:58Z</time>
      </trkpt>
      <trkpt lat="47.25724" lon="-1.59115">
        <ele>20.5</ele>
        <time>2020-06-07T09:02:59Z</time>
      </trkpt>
      <trkpt lat="47.25724" lon="-1.59115">
        <ele>20.5</ele>
        <time>2020-06-07T09:03:00Z</time>
      </trkpt>
      <trkpt lat="47.25724" lon="-1.59115">
        <ele>20.5</ele>
        <time>2020-06-07T09:03:01Z</time>
      </trkpt>
      <trkpt lat="47.25724" lon="-1.59115">
        <ele>20.5</ele>
        <time>2020-06-07T09:03:02Z</time>
      </trkpt>
      <trkpt lat="47.25724" lon="-1.59115">
        <ele>20.5</ele>
        <time>2020-06-07T09:03:03Z</time>
      </trkpt>
      <trkpt lat="47.25724" lon="-1.59116">
        <ele>20.5</ele>
        <time>2020-06-07T09:03:04Z</time>
      </trkpt>
      <trkpt lat="47.25724" lon="-1.59117">
        <ele>20.5</ele>
        <time>2020-06-07T09:03:05Z</time>
      </trkpt>
      <trkpt lat="47.25724" lon="-1.59118">
        <ele>20.5</ele>
        <time>2020-06-07T09:03:06Z</time>
      </trkpt>
      <trkpt lat="47.25725" lon="-1.5912">
        <ele>20.6</ele>
        <time>2020-06-07T09:03:07Z</time>
      </trkpt>
      <trkpt lat="47.25725" lon="-1.59121">
        <ele>20.6</ele>
        <time>2020-06-07T09:03:08Z</time>
      </trkpt>
      <trkpt lat="47.25726" lon="-1.59122">
        <ele>20.6</ele>
        <time>2020-06-07T09:03:09Z</time>
      </trkpt>
      <trkpt lat="47.25726" lon="-1.59123">
        <ele>20.6</ele>
        <time>2020-06-07T09:03:10Z</time>
      </trkpt>
      <trkpt lat="47.25727" lon="-1.59125">
        <ele>20.6</ele>
        <time>2020-06-07T09:03:11Z</time>
      </trkpt>
      <trkpt lat="47.25728" lon="-1.59126">
        <ele>20.6</ele>
        <time>2020-06-07T09:03:12Z</time>
      </trkpt>
      <trkpt lat="47.25729" lon="-1.59127">
        <ele>20.6</ele>
        <time>2020-06-07T09:03:13Z</time>
      </trkpt>
      <trkpt lat="47.2573" lon="-1.59128">
        <ele>20.5</ele>
        <time>2020-06-07T09:03:14Z</time>
      </trkpt>
      <trkpt lat="47.25731" lon="-1.59128">
        <ele>20.5</ele>
        <time>2020-06-07T09:03:15Z</time>
      </trkpt>
      <trkpt lat="47.25732" lon="-1.59129">
        <ele>20.5</ele>
        <time>2020-06-07T09:03:16Z</time>
      </trkpt>
      <trkpt lat="47.25733" lon="-1.5913">
        <ele>20.4</ele>
        <time>2020-06-07T09:03:17Z</time>
      </trkpt>
      <trkpt lat="47.25735" lon="-1.59131">
        <ele>20.4</ele>
        <time>2020-06-07T09:03:18Z</time>
      </trkpt>
      <trkpt lat="47.25736" lon="-1.59131">
        <ele>20.3</ele>
        <time>2020-06-07T09:03:19Z</time>
      </trkpt>
      <trkpt lat="47.25737" lon="-1.59131">
        <ele>20.3</ele>
        <time>2020-06-07T09:03:20Z</time>
      </trkpt>
      <trkpt lat="47.25738" lon="-1.59132">
        <ele>20.2</ele>
        <time>2020-06-07T09:03:21Z</time>
      </trkpt>
      <trkpt lat="47.25738" lon="-1.59132">
        <ele>20.2</ele>
        <time>2020-06-07T09:03:22Z</time>
      </trkpt>
      <trkpt lat="47.25738" lon="-1.59132">
        <ele>20.2</ele>
        <time>2020-06-07T09:03:23Z</time>
      </trkpt>
      <trkpt lat="47.25738" lon="-1.59132">
        <ele>20.2</ele>
        <time>2020-06-07T09:03:24Z</time>
      </trkpt>
      <trkpt lat="47.25738" lon="-1.59132">
        <ele>20.2</ele>
        <time>2020-06-07T09:03:25Z</time>
      </trkpt>
      <trkpt lat="47.25738" lon="-1.59132">
        <ele>20.2</ele>
        <time>2020-06-07T09:03:26Z</time>
      </trkpt>
      <trkpt lat="47.25738" lon="-1.59132">
        <ele>20.2</ele>
        <time>2020-06-07T09:03:27Z</time>
      </trkpt>
      <trkpt lat="47.25738" lon="-1.59132">
        <ele>20.2</ele>
        <time>2020-06-07T09:03:28Z</time>
      </trkpt>
      <trkpt lat="47.25738" lon="-1.59132">
        <ele>20.2</ele>
        <time>2020-06-07T09:03:29Z</time>
      </trkpt>
      <trkpt lat="47.25738" lon="-1.59132">
        <ele>20.2</ele>
        <time>2020-06-07T09:03:30Z</time>
      </trkpt>
      <trkpt lat="47.25738" lon="-1.59132">
        <ele>20.2</ele>
        <time>2020-06-07T09:03:31Z</time>
      </trkpt>
      <trkpt lat="47.25738" lon="-1.59132">
        <ele>20.2</ele>
        <time>2020-06-07T09:03:32Z</time>
      </trkpt>
      <trkpt lat="47.25738" lon="-1.59132">
        <ele>20.2</ele>
        <time>2020-06-07T09:03:33Z</time>
      </trkpt>
      <trkpt lat="47.25738" lon="-1.59132">
        <ele>20.2</ele>
        <time>2020-06-07T09:03:34Z</time>
      </trkpt>
      <trkpt lat="47.25738" lon="-1.59132">
        <ele>20.2</ele>
        <time>2020-06-07T09:03:35Z</time>
      </trkpt>
      <trkpt lat="47.25738" lon="-1.59132">
        <ele>20.2</ele>
        <time>2020-06-07T09:03:36Z</time>
      </trkpt>
      <trkpt lat="47.25738" lon="-1.59132">
        <ele>20.2</ele>
        <time>2020-06-07T09:03:37Z</time>
      </trkpt>
      <trkpt lat="47.25738" lon="-1.59132">
        <ele>20.2</ele>
        <time>2020-06-07T09:03:38Z</time>
      </trkpt>
      <trkpt lat="47.25738" lon="-1.59132">
        <ele>20.2</ele>
        <time>2020-06-07T09:03:39Z</time>
      </trkpt>
      <trkpt lat="47.25738" lon="-1.59132">
        <ele>20.2</ele>
        <time>2020-06-07T09:03:40Z</time>
      </trkpt>
      <trkpt lat="47.25738" lon="-1.59132">
        <ele>20.2</ele>
        <time>2020-06-07T09:03:41Z</time>
      </trkpt>
      <trkpt lat="47.25738" lon="-1.59132">
        <ele>20.2</ele>
        <time>2020-06-07T09:03:42Z</time>
      </trkpt>
      <trkpt lat="47.25738" lon="-1.59132">
        <ele>20.2</ele>
        <time>2020-06-07T09:03:43Z</time>
      </trkpt>
      <trkpt lat="47.25738" lon="-1.59132">
        <ele>20.2</ele>
        <time>2020-06-07T09:03:44Z</time>
      </trkpt>
      <trkpt lat="47.25738" lon="-1.59132">
        <ele>20.2</ele>
        <time>2020-06-07T09:03:45Z</time>
      </trkpt>
      <trkpt lat="47.25738" lon="-1.59132">
        <ele>20.2</ele>
        <time>2020-06-07T09:03:46Z</time>
      </trkpt>
      <trkpt lat="47.25738" lon="-1.59132">
        <ele>20.2</ele>
        <time>2020-06-07T09:03:47Z</time>
      </trkpt>
      <trkpt lat="47.25738" lon="-1.59132">
        <ele>20.2</ele>
        <time>2020-06-07T09:03:48Z</time>
      </trkpt>
      <trkpt lat="47.25738" lon="-1.59132">
        <ele>20.2</ele>
        <time>2020-06-07T09:03:49Z</time>
      </trkpt>
      <trkpt lat="47.25738" lon="-1.59132">
        <ele>20.2</ele>
        <time>2020-06-07T09:03:50Z</time>
      </trkpt>
      <trkpt lat="47.25738" lon="-1.59132">
        <ele>20.2</ele>
        <time>2020-06-07T09:03:51Z</time>
      </trkpt>
      <trkpt lat="47.25738" lon="-1.59132">
        <ele>20.2</ele>
        <time>2020-06-07T09:03:52Z</time>
      </trkpt>
      <trkpt lat="47.25738" lon="-1.59132">
        <ele>20.2</ele>
        <time>2020-06-07T09:03:53Z</time>
      </trkpt>
      <trkpt lat="47.25738" lon="-1.59132">
        <ele>20.2</ele>
        <time>2020-06-07T09:03:54Z</time>
      </trkpt>
      <trkpt lat="47.25738" lon="-1.59132">
        <ele>20.2</ele>
        <time>2020-06-07T09:03:55Z</time>
      </trkpt>
      <trkpt lat="47.25738" lon="-1.59132">
        <ele>20.2</ele>
        <time>2020-06-07T09:03:56Z</time>
      </trkpt>
      <trkpt lat="47.25738" lon="-1.59132">
        <ele>20.2</ele>
        <time>2020-06-07T09:03:57Z</time>
      </trkpt>
      <trkpt lat="47.25738" lon="-1.59132">
        <ele>20.2</ele>
        <time>2020-06-07T09:03:58Z</time>
      </trkpt>
      <trkpt lat="47.25738" lon="-1.59132">
        <ele>20.2</ele>
        <time>2020-06-07T09:03:59Z</time>
      </trkpt>
      <trkpt lat="47.25738" lon="-1.59132">
        <ele>20.2</ele>
        <time>2020-06-07T09:04:00Z</time>
      </trkpt>
      <trkpt lat="47.25738" lon="-1.59132">
        <ele>20.2</ele>
        <time>2020-06-07T09:04:01Z</time>
      </trkpt>
      <trkpt lat="47.25738" lon="-1.59132">
        <ele>20.2</ele>
        <time>2020-06-07T09:04:02Z</time>
      </trkpt>
      <trkpt lat="47.25738" lon="-1.59132">
        <ele>20.2</ele>
        <time>2020-06-07T09:04:03Z</time>
      </trkpt>
      <trkpt lat="47.25738" lon="-1.59132">
        <ele>20.2</ele>
        <time>2020-06-07T09:04:04Z</time>
      </trkpt>
      <trkpt lat="47.25738" lon="-1.59132">
        <ele>20.2</ele>
        <time>2020-06-07T09:04:05Z</time>
      </trkpt>
      <trkpt lat="47.25738" lon="-1.59132">
        <ele>20.2</ele>
        <time>2020-06-07T09:04:06Z</time>
      </trkpt>
      <trkpt lat="47.25738" lon="-1.59132">
        <ele>20.2</ele>
        <time>2020-06-07T09:04:07Z</time>
      </trkpt>
      <trkpt lat="47.25738" lon="-1.59132">
        <ele>20.2</ele>
        <time>2020-06-07T09:04:08Z</time>
      </trkpt>
      <trkpt lat="47.25738" lon="-1.59132">
        <ele>20.2</ele>
        <time>2020-06-07T09:04:09Z</time>
      </trkpt>
      <trkpt lat="47.25738" lon="-1.59132">
        <ele>20.2</ele>
        <time>2020-06-07T09:04:10Z</time>
      </trkpt>
      <trkpt lat="47.25739" lon="-1.59132">
        <ele>20.2</ele>
        <time>2020-06-07T09:04:11Z</time>
      </trkpt>
      <trkpt lat="47.25739" lon="-1.59132">
        <ele>20.2</ele>
        <time>2020-06-07T09:04:12Z</time>
      </trkpt>
      <trkpt lat="47.2574" lon="-1.59133">
        <ele>20.1</ele>
        <time>2020-06-07T09:04:13Z</time>
      </trkpt>
      <trkpt lat="47.25741" lon="-1.59134">
        <ele>20.1</ele>
        <time>2020-06-07T09:04:14Z</time>
      </trkpt>
      <trkpt lat="47.25742" lon="-1.59135">
        <ele>20.1</ele>
        <time>2020-06-07T09:04:15Z</time>
      </trkpt>
      <trkpt lat="47.25743" lon="-1.59136">
        <ele>20</ele>
        <time>2020-06-07T09:04:16Z</time>
      </trkpt>
      <trkpt lat="47.25744" lon="-1.59137">
        <ele>20</ele>
        <time>2020-06-07T09:04:17Z</time>
      </trkpt>
      <trkpt lat="47.25744" lon="-1.59138">
        <ele>20</ele>
        <time>2020-06-07T09:04:18Z</time>
      </trkpt>
      <trkpt lat="47.25745" lon="-1.5914">
        <ele>19.9</ele>
        <time>2020-06-07T09:04:19Z</time>
      </trkpt>
      <trkpt lat="47.25746" lon="-1.59141">
        <ele>19.9</ele>
        <time>2020-06-07T09:04:20Z</time>
      </trkpt>
      <trkpt lat="47.25747" lon="-1.59141">
        <ele>19.9</ele>
        <time>2020-06-07T09:04:21Z</time>
      </trkpt>
      <trkpt lat="47.25748" lon="-1.59142">
        <ele>19.8</ele>
        <time>2020-06-07T09:04:22Z</time>
      </trkpt>
      <trkpt lat="47.25748" lon="-1.59143">
        <ele>19.8</ele>
        <time>2020-06-07T09:04:23Z</time>
      </trkpt>
      <trkpt lat="47.25749" lon="-1.59144">
        <ele>19.8</ele>
        <time>2020-06-07T09:04:24Z</time>
      </trkpt>
      <trkpt lat="47.2575" lon="-1.59144">
        <ele>19.8</ele>
        <time>2020-06-07T09:04:25Z</time>
      </trkpt>
      <trkpt lat="47.2575" lon="-1.59145">
        <ele>19.8</ele>
        <time>2020-06-07T09:04:26Z</time>
      </trkpt>
      <trkpt lat="47.25751" lon="-1.59146">
        <ele>19.8</ele>
        <time>2020-06-07T09:04:27Z</time>
      </trkpt>
      <trkpt lat="47.25751" lon="-1.59147">
        <ele>19.8</ele>
        <time>2020-06-07T09:04:28Z</time>
      </trkpt>
      <trkpt lat="47.25752" lon="-1.59148">
        <ele>19.9</ele>
        <time>2020-06-07T09:04:29Z</time>
      </trkpt>
      <trkpt lat="47.25753" lon="-1.59148">
        <ele>19.9</ele>
        <time>2020-06-07T09:04:30Z</time>
      </trkpt>
      <trkpt lat="47.25753" lon="-1.59149">
        <ele>19.9</ele>
        <time>2020-06-07T09:04:31Z</time>
      </trkpt>
      <trkpt lat="47.25754" lon="-1.5915">
        <ele>20</ele>
        <time>2020-06-07T09:04:32Z</time>
      </trkpt>
      <trkpt lat="47.25755" lon="-1.59151">
        <ele>20</ele>
        <time>2020-06-07T09:04:33Z</time>
      </trkpt>
      <trkpt lat="47.25756" lon="-1.59152">
        <ele>20.1</ele>
        <time>2020-06-07T09:04:34Z</time>
      </trkpt>
      <trkpt lat="47.25756" lon="-1.59153">
        <ele>20.1</ele>
        <time>2020-06-07T09:04:35Z</time>
      </trkpt>
      <trkpt lat="47.25757" lon="-1.59154">
        <ele>20.1</ele>
        <time>2020-06-07T09:04:36Z</time>
      </trkpt>
      <trkpt lat="47.25758" lon="-1.59155">
        <ele>20.2</ele>
        <time>2020-06-07T09:04:37Z</time>
      </trkpt>
      <trkpt lat="47.25759" lon="-1.59156">
        <ele>20.2</ele>
        <time>2020-06-07T09:04:38Z</time>
      </trkpt>
      <trkpt lat="47.25759" lon="-1.59157">
        <ele>20.3</ele>
        <time>2020-06-07T09:04:39Z</time>
      </trkpt>
      <trkpt lat="47.2576" lon="-1.59158">
        <ele>20.3</ele>
        <time>2020-06-07T09:04:40Z</time>
      </trkpt>
      <trkpt lat="47.25761" lon="-1.59159">
        <ele>20.3</ele>
        <time>2020-06-07T09:04:41Z</time>
      </trkpt>
      <trkpt lat="47.25762" lon="-1.5916">
        <ele>20.4</ele>
        <time>2020-06-07T09:04:42Z</time>
      </trkpt>
      <trkpt lat="47.25763" lon="-1.59161">
        <ele>20.4</ele>
        <time>2020-06-07T09:04:43Z</time>
      </trkpt>
      <trkpt lat="47.25764" lon="-1.59162">
        <ele>20.5</ele>
        <time>2020-06-07T09:04:44Z</time>
      </trkpt>
      <trkpt lat="47.25765" lon="-1.59164">
        <ele>20.5</ele>
        <time>2020-06-07T09:04:45Z</time>
      </trkpt>
      <trkpt lat="47.25765" lon="-1.59165">
        <ele>20.5</ele>
        <time>2020-06-07T09:04:46Z</time>
      </trkpt>
      <trkpt lat="47.25766" lon="-1.59166">
        <ele>20.6</ele>
        <time>2020-06-07T09:04:47Z</time>
      </trkpt>
      <trkpt lat="47.25767" lon="-1.59167">
        <ele>20.6</ele>
        <time>2020-06-07T09:04:48Z</time>
      </trkpt>
      <trkpt lat="47.25768" lon="-1.59168">
        <ele>20.7</ele>
        <time>2020-06-07T09:04:49Z</time>
      </trkpt>
      <trkpt lat="47.25769" lon="-1.59169">
        <ele>20.8</ele>
        <time>2020-06-07T09:04:50Z</time>
      </trkpt>
      <trkpt lat="47.2577" lon="-1.5917">
        <ele>20.9</ele>
        <time>2020-06-07T09:04:51Z</time>
      </trkpt>
      <trkpt lat="47.25771" lon="-1.59171">
        <ele>21</ele>
        <time>2020-06-07T09:04:52Z</time>
      </trkpt>
      <trkpt lat="47.25771" lon="-1.59172">
        <ele>21.1</ele>
        <time>2020-06-07T09:04:53Z</time>
      </trkpt>
      <trkpt lat="47.25772" lon="-1.59173">
        <ele>21.1</ele>
        <time>2020-06-07T09:04:54Z</time>
      </trkpt>
      <trkpt lat="47.25773" lon="-1.59175">
        <ele>21.2</ele>
        <time>2020-06-07T09:04:55Z</time>
      </trkpt>
      <trkpt lat="47.25774" lon="-1.59176">
        <ele>21.3</ele>
        <time>2020-06-07T09:04:56Z</time>
      </trkpt>
      <trkpt lat="47.25775" lon="-1.59177">
        <ele>21.4</ele>
        <time>2020-06-07T09:04:57Z</time>
      </trkpt>
      <trkpt lat="47.25775" lon="-1.59178">
        <ele>21.4</ele>
        <time>2020-06-07T09:04:58Z</time>
      </trkpt>
      <trkpt lat="47.25776" lon="-1.59179">
        <ele>21.5</ele>
        <time>2020-06-07T09:04:59Z</time>
      </trkpt>
      <trkpt lat="47.25777" lon="-1.5918">
        <ele>21.6</ele>
        <time>2020-06-07T09:05:00Z</time>
      </trkpt>
      <trkpt lat="47.25778" lon="-1.59181">
        <ele>21.6</ele>
        <time>2020-06-07T09:05:01Z</time>
      </trkpt>
      <trkpt lat="47.25778" lon="-1.59182">
        <ele>21.7</ele>
        <time>2020-06-07T09:05:02Z</time>
      </trkpt>
      <trkpt lat="47.25779" lon="-1.59183">
        <ele>21.8</ele>
        <time>2020-06-07T09:05:03Z</time>
      </trkpt>
      <trkpt lat="47.2578" lon="-1.59184">
        <ele>21.8</ele>
        <time>2020-06-07T09:05:04Z</time>
      </trkpt>
      <trkpt lat="47.25781" lon="-1.59185">
        <ele>21.9</ele>
        <time>2020-06-07T09:05:05Z</time>
      </trkpt>
      <trkpt lat="47.25781" lon="-1.59186">
        <ele>21.9</ele>
        <time>2020-06-07T09:05:06Z</time>
      </trkpt>
      <trkpt lat="47.25782" lon="-1.59188">
        <ele>22</ele>
        <time>2020-06-07T09:05:07Z</time>
      </trkpt>
      <trkpt lat="47.25783" lon="-1.59189">
        <ele>22</ele>
        <time>2020-06-07T09:05:08Z</time>
      </trkpt>
      <trkpt lat="47.25783" lon="-1.5919">
        <ele>22.1</ele>
        <time>2020-06-07T09:05:09Z</time>
      </trkpt>
      <trkpt lat="47.25784" lon="-1.59191">
        <ele>22.1</ele>
        <time>2020-06-07T09:05:10Z</time>
      </trkpt>
      <trkpt lat="47.25785" lon="-1.59192">
        <ele>22.2</ele>
        <time>2020-06-07T09:05:11Z</time>
      </trkpt>
      <trkpt lat="47.25785" lon="-1.59193">
        <ele>22.2</ele>
        <time>2020-06-07T09:05:12Z</time>
      </trkpt>
      <trkpt lat="47.25786" lon="-1.59194">
        <ele>22.3</ele>
        <time>2020-06-07T09:05:13Z</time>
      </trkpt>
      <trkpt lat="47.25786" lon="-1.59195">
        <ele>22.3</ele>
        <time>2020-06-07T09:05:14Z</time>
      </trkpt>
      <trkpt lat="47.25787" lon="-1.59196">
        <ele>22.3</ele>
        <time>2020-06-07T09:05:15Z</time>
      </trkpt>
      <trkpt lat="47.25788" lon="-1.59197">
        <ele>22.4</ele>
        <time>2020-06-07T09:05:16Z</time>
      </trkpt>
      <trkpt lat="47.25788" lon="-1.59198">
        <ele>22.4</ele>
        <time>2020-06-07T09:05:17Z</time>
      </trkpt>
      <trkpt lat="47.25789" lon="-1.59199">
        <ele>22.4</ele>
        <time>2020-06-07T09:05:18Z</time>
      </trkpt>
      <trkpt lat="47.2579" lon="-1.592">
        <ele>22.5</ele>
        <time>2020-06-07T09:05:19Z</time>
      </trkpt>
      <trkpt lat="47.2579" lon="-1.59201">
        <ele>22.5</ele>
        <time>2020-06-07T09:05:20Z</time>
      </trkpt>
      <trkpt lat="47.25791" lon="-1.59202">
        <ele>22.6</ele>
        <time>2020-06-07T09:05:21Z</time>
      </trkpt>
      <trkpt lat="47.25791" lon="-1.59203">
        <ele>22.6</ele>
        <time>2020-06-07T09:05:22Z</time>
      </trkpt>
      <trkpt lat="47.25792" lon="-1.59204">
        <ele>22.6</ele>
        <time>2020-06-07T09:05:23Z</time>
      </trkpt>
      <trkpt lat="47.25793" lon="-1.59205">
        <ele>22.6</ele>
        <time>2020-06-07T09:05:24Z</time>
      </trkpt>
      <trkpt lat="47.25793" lon="-1.59206">
        <ele>22.7</ele>
        <time>2020-06-07T09:05:25Z</time>
      </trkpt>
      <trkpt lat="47.25794" lon="-1.59207">
        <ele>22.7</ele>
        <time>2020-06-07T09:05:26Z</time>
      </trkpt>
      <trkpt lat="47.25795" lon="-1.59208">
        <ele>22.7</ele>
        <time>2020-06-07T09:05:27Z</time>
      </trkpt>
      <trkpt lat="47.25795" lon="-1.59209">
        <ele>22.7</ele>
        <time>2020-06-07T09:05:28Z</time>
      </trkpt>
      <trkpt lat="47.25796" lon="-1.5921">
        <ele>22.8</ele>
        <time>2020-06-07T09:05:29Z</time>
      </trkpt>
      <trkpt lat="47.25797" lon="-1.59211">
        <ele>22.8</ele>
        <time>2020-06-07T09:05:30Z</time>
      </trkpt>
      <trkpt lat="47.25798" lon="-1.59212">
        <ele>22.8</ele>
        <time>2020-06-07T09:05:31Z</time>
      </trkpt>
      <trkpt lat="47.25798" lon="-1.59212">
        <ele>22.8</ele>
        <time>2020-06-07T09:05:32Z</time>
      </trkpt>
      <trkpt lat="47.25799" lon="-1.59213">
        <ele>22.8</ele>
        <time>2020-06-07T09:05:33Z</time>
      </trkpt>
      <trkpt lat="47.258" lon="-1.59214">
        <ele>22.8</ele>
        <time>2020-06-07T09:05:34Z</time>
      </trkpt>
      <trkpt lat="47.25801" lon="-1.59215">
        <ele>22.8</ele>
        <time>2020-06-07T09:05:35Z</time>
      </trkpt>
      <trkpt lat="47.25801" lon="-1.59216">
        <ele>22.8</ele>
        <time>2020-06-07T09:05:36Z</time>
      </trkpt>
      <trkpt lat="47.25802" lon="-1.59217">
        <ele>22.8</ele>
        <time>2020-06-07T09:05:37Z</time>
      </trkpt>
      <trkpt lat="47.25803" lon="-1.59218">
        <ele>22.9</ele>
        <time>2020-06-07T09:05:38Z</time>
      </trkpt>
      <trkpt lat="47.25804" lon="-1.59218">
        <ele>22.9</ele>
        <time>2020-06-07T09:05:39Z</time>
      </trkpt>
      <trkpt lat="47.25804" lon="-1.59219">
        <ele>22.9</ele>
        <time>2020-06-07T09:05:40Z</time>
      </trkpt>
      <trkpt lat="47.25805" lon="-1.5922">
        <ele>22.9</ele>
        <time>2020-06-07T09:05:41Z</time>
      </trkpt>
      <trkpt lat="47.25806" lon="-1.59221">
        <ele>22.9</ele>
        <time>2020-06-07T09:05:42Z</time>
      </trkpt>
      <trkpt lat="47.25806" lon="-1.59222">
        <ele>22.9</ele>
        <time>2020-06-07T09:05:43Z</time>
      </trkpt>
      <trkpt lat="47.25807" lon="-1.59223">
        <ele>22.9</ele>
        <time>2020-06-07T09:05:44Z</time>
      </trkpt>
      <trkpt lat="47.25808" lon="-1.59224">
        <ele>22.9</ele>
        <time>2020-06-07T09:05:45Z</time>
      </trkpt>
      <trkpt lat="47.25808" lon="-1.59225">
        <ele>22.9</ele>
        <time>2020-06-07T09:05:46Z</time>
      </trkpt>
      <trkpt lat="47.25809" lon="-1.59226">
        <ele>22.9</ele>
        <time>2020-06-07T09:05:47Z</time>
      </trkpt>
      <trkpt lat="47.25809" lon="-1.59227">
        <ele>22.9</ele>
        <time>2020-06-07T09:05:48Z</time>
      </trkpt>
      <trkpt lat="47.2581" lon="-1.59228">
        <ele>22.9</ele>
        <time>2020-06-07T09:05:49Z</time>
      </trkpt>
      <trkpt lat="47.25811" lon="-1.5923">
        <ele>22.9</ele>
        <time>2020-06-07T09:05:50Z</time>
      </trkpt>
      <trkpt lat="47.25812" lon="-1.59232">
        <ele>22.9</ele>
        <time>2020-06-07T09:05:51Z</time>
      </trkpt>
      <trkpt lat="47.25812" lon="-1.59234">
        <ele>22.9</ele>
        <time>2020-06-07T09:05:52Z</time>
      </trkpt>
      <trkpt lat="47.25813" lon="-1.59235">
        <ele>22.9</ele>
        <time>2020-06-07T09:05:53Z</time>
      </trkpt>
      <trkpt lat="47.25813" lon="-1.59237">
        <ele>22.9</ele>
        <time>2020-06-07T09:05:54Z</time>
      </trkpt>
      <trkpt lat="47.25814" lon="-1.59238">
        <ele>22.8</ele>
        <time>2020-06-07T09:05:55Z</time>
      </trkpt>
      <trkpt lat="47.25814" lon="-1.59239">
        <ele>22.8</ele>
        <time>2020-06-07T09:05:56Z</time>
      </trkpt>
      <trkpt lat="47.25815" lon="-1.5924">
        <ele>22.8</ele>
        <time>2020-06-07T09:05:57Z</time>
      </trkpt>
      <trkpt lat="47.25815" lon="-1.59241">
        <ele>22.8</ele>
        <time>2020-06-07T09:05:58Z</time>
      </trkpt>
      <trkpt lat="47.25816" lon="-1.59241">
        <ele>22.8</ele>
        <time>2020-06-07T09:05:59Z</time>
      </trkpt>
      <trkpt lat="47.25817" lon="-1.59242">
        <ele>22.8</ele>
        <time>2020-06-07T09:06:00Z</time>
      </trkpt>
      <trkpt lat="47.25817" lon="-1.59242">
        <ele>22.7</ele>
        <time>2020-06-07T09:06:01Z</time>
      </trkpt>
      <trkpt lat="47.25818" lon="-1.59243">
        <ele>22.7</ele>
        <time>2020-06-07T09:06:02Z</time>
      </trkpt>
      <trkpt lat="47.25819" lon="-1.59244">
        <ele>22.7</ele>
        <time>2020-06-07T09:06:03Z</time>
      </trkpt>
      <trkpt lat="47.25819" lon="-1.59245">
        <ele>22.7</ele>
        <time>2020-06-07T09:06:04Z</time>
      </trkpt>
      <trkpt lat="47.2582" lon="-1.59246">
        <ele>22.6</ele>
        <time>2020-06-07T09:06:05Z</time>
      </trkpt>
      <trkpt lat="47.25821" lon="-1.59247">
        <ele>22.6</ele>
        <time>2020-06-07T09:06:06Z</time>
      </trkpt>
      <trkpt lat="47.25821" lon="-1.59247">
        <ele>22.6</ele>
        <time>2020-06-07T09:06:07Z</time>
      </trkpt>
      <trkpt lat="47.25821" lon="-1.59248">
        <ele>22.6</ele>
        <time>2020-06-07T09:06:08Z</time>
      </trkpt>
      <trkpt lat="47.25822" lon="-1.59249">
        <ele>22.5</ele>
        <time>2020-06-07T09:06:09Z</time>
      </trkpt>
      <trkpt lat="47.25822" lon="-1.5925">
        <ele>22.5</ele>
        <time>2020-06-07T09:06:10Z</time>
      </trkpt>
      <trkpt lat="47.25823" lon="-1.59251">
        <ele>22.6</ele>
        <time>2020-06-07T09:06:11Z</time>
      </trkpt>
      <trkpt lat="47.25824" lon="-1.59252">
        <ele>22.6</ele>
        <time>2020-06-07T09:06:12Z</time>
      </trkpt>
      <trkpt lat="47.25824" lon="-1.59253">
        <ele>22.7</ele>
        <time>2020-06-07T09:06:13Z</time>
      </trkpt>
      <trkpt lat="47.25825" lon="-1.59254">
        <ele>22.7</ele>
        <time>2020-06-07T09:06:14Z</time>
      </trkpt>
      <trkpt lat="47.25826" lon="-1.59255">
        <ele>22.7</ele>
        <time>2020-06-07T09:06:15Z</time>
      </trkpt>
      <trkpt lat="47.25827" lon="-1.59256">
        <ele>22.7</ele>
        <time>2020-06-07T09:06:16Z</time>
      </trkpt>
      <trkpt lat="47.25827" lon="-1.59257">
        <ele>22.8</ele>
        <time>2020-06-07T09:06:17Z</time>
      </trkpt>
      <trkpt lat="47.25828" lon="-1.59258">
        <ele>22.8</ele>
        <time>2020-06-07T09:06:18Z</time>
      </trkpt>
      <trkpt lat="47.25829" lon="-1.59258">
        <ele>22.8</ele>
        <time>2020-06-07T09:06:19Z</time>
      </trkpt>
      <trkpt lat="47.2583" lon="-1.59259">
        <ele>22.8</ele>
        <time>2020-06-07T09:06:20Z</time>
      </trkpt>
      <trkpt lat="47.25831" lon="-1.59259">
        <ele>22.8</ele>
        <time>2020-06-07T09:06:21Z</time>
      </trkpt>
      <trkpt lat="47.25832" lon="-1.5926">
        <ele>22.8</ele>
        <time>2020-06-07T09:06:22Z</time>
      </trkpt>
      <trkpt lat="47.25833" lon="-1.5926">
        <ele>22.8</ele>
        <time>2020-06-07T09:06:23Z</time>
      </trkpt>
      <trkpt lat="47.25833" lon="-1.59261">
        <ele>22.8</ele>
        <time>2020-06-07T09:06:24Z</time>
      </trkpt>
      <trkpt lat="47.25834" lon="-1.59261">
        <ele>22.8</ele>
        <time>2020-06-07T09:06:25Z</time>
      </trkpt>
      <trkpt lat="47.25834" lon="-1.59261">
        <ele>22.8</ele>
        <time>2020-06-07T09:06:26Z</time>
      </trkpt>
      <trkpt lat="47.25835" lon="-1.59262">
        <ele>22.8</ele>
        <time>2020-06-07T09:06:27Z</time>
      </trkpt>
      <trkpt lat="47.25835" lon="-1.59262">
        <ele>22.8</ele>
        <time>2020-06-07T09:06:28Z</time>
      </trkpt>
      <trkpt lat="47.25836" lon="-1.59263">
        <ele>22.8</ele>
        <time>2020-06-07T09:06:29Z</time>
      </trkpt>
      <trkpt lat="47.25837" lon="-1.59263">
        <ele>22.8</ele>
        <time>2020-06-07T09:06:30Z</time>
      </trkpt>
      <trkpt lat="47.25837" lon="-1.59263">
        <ele>22.8</ele>
        <time>2020-06-07T09:06:31Z</time>
      </trkpt>
      <trkpt lat="47.25838" lon="-1.59264">
        <ele>22.8</ele>
        <time>2020-06-07T09:06:32Z</time>
      </trkpt>
      <trkpt lat="47.25839" lon="-1.59264">
        <ele>22.8</ele>
        <time>2020-06-07T09:06:33Z</time>
      </trkpt>
      <trkpt lat="47.25839" lon="-1.59265">
        <ele>22.8</ele>
        <time>2020-06-07T09:06:34Z</time>
      </trkpt>
      <trkpt lat="47.2584" lon="-1.59265">
        <ele>22.8</ele>
        <time>2020-06-07T09:06:35Z</time>
      </trkpt>
      <trkpt lat="47.25841" lon="-1.59266">
        <ele>22.8</ele>
        <time>2020-06-07T09:06:36Z</time>
      </trkpt>
      <trkpt lat="47.25842" lon="-1.59267">
        <ele>22.8</ele>
        <time>2020-06-07T09:06:37Z</time>
      </trkpt>
      <trkpt lat="47.25843" lon="-1.59267">
        <ele>22.8</ele>
        <time>2020-06-07T09:06:38Z</time>
      </trkpt>
      <trkpt lat="47.25844" lon="-1.59268">
        <ele>22.8</ele>
        <time>2020-06-07T09:06:39Z</time>
      </trkpt>
      <trkpt lat="47.25845" lon="-1.59269">
        <ele>22.8</ele>
        <time>2020-06-07T09:06:40Z</time>
      </trkpt>
      <trkpt lat="47.25846" lon="-1.5927">
        <ele>22.8</ele>
        <time>2020-06-07T09:06:41Z</time>
      </trkpt>
      <trkpt lat="47.25847" lon="-1.59271">
        <ele>22.9</ele>
        <time>2020-06-07T09:06:42Z</time>
      </trkpt>
      <trkpt lat="47.25849" lon="-1.59272">
        <ele>22.9</ele>
        <time>2020-06-07T09:06:43Z</time>
      </trkpt>
      <trkpt lat="47.2585" lon="-1.59273">
        <ele>22.9</ele>
        <time>2020-06-07T09:06:44Z</time>
      </trkpt>
      <trkpt lat="47.25851" lon="-1.59274">
        <ele>22.9</ele>
        <time>2020-06-07T09:06:45Z</time>
      </trkpt>
      <trkpt lat="47.25852" lon="-1.59275">
        <ele>22.9</ele>
        <time>2020-06-07T09:06:46Z</time>
      </trkpt>
      <trkpt lat="47.25853" lon="-1.59276">
        <ele>22.9</ele>
        <time>2020-06-07T09:06:47Z</time>
      </trkpt>
      <trkpt lat="47.25854" lon="-1.59276">
        <ele>22.8</ele>
        <time>2020-06-07T09:06:48Z</time>
      </trkpt>
      <trkpt lat="47.25855" lon="-1.59277">
        <ele>22.8</ele>
        <time>2020-06-07T09:06:49Z</time>
      </trkpt>
      <trkpt lat="47.25856" lon="-1.59277">
        <ele>22.8</ele>
        <time>2020-06-07T09:06:50Z</time>
      </trkpt>
      <trkpt lat="47.25857" lon="-1.59278">
        <ele>22.8</ele>
        <time>2020-06-07T09:06:51Z</time>
      </trkpt>
      <trkpt lat="47.25858" lon="-1.59278">
        <ele>22.7</ele>
        <time>2020-06-07T09:06:52Z</time>
      </trkpt>
      <trkpt lat="47.25859" lon="-1.59278">
        <ele>22.7</ele>
        <time>2020-06-07T09:06:53Z</time>
      </trkpt>
      <trkpt lat="47.2586" lon="-1.59278">
        <ele>22.7</ele>
        <time>2020-06-07T09:06:54Z</time>
      </trkpt>
      <trkpt lat="47.25861" lon="-1.59278">
        <ele>22.6</ele>
        <time>2020-06-07T09:06:55Z</time>
      </trkpt>
      <trkpt lat="47.25862" lon="-1.59278">
        <ele>22.6</ele>
        <time>2020-06-07T09:06:56Z</time>
      </trkpt>
      <trkpt lat="47.25863" lon="-1.59278">
        <ele>22.5</ele>
        <time>2020-06-07T09:06:57Z</time>
      </trkpt>
      <trkpt lat="47.25864" lon="-1.59278">
        <ele>22.4</ele>
        <time>2020-06-07T09:06:58Z</time>
      </trkpt>
      <trkpt lat="47.25865" lon="-1.59278">
        <ele>22.4</ele>
        <time>2020-06-07T09:06:59Z</time>
      </trkpt>
      <trkpt lat="47.25866" lon="-1.59278">
        <ele>22.3</ele>
        <time>2020-06-07T09:07:00Z</time>
      </trkpt>
      <trkpt lat="47.25867" lon="-1.59278">
        <ele>22.3</ele>
        <time>2020-06-07T09:07:01Z</time>
      </trkpt>
      <trkpt lat="47.25868" lon="-1.59278">
        <ele>22.2</ele>
        <time>2020-06-07T09:07:02Z</time>
      </trkpt>
      <trkpt lat="47.25869" lon="-1.59278">
        <ele>22.2</ele>
        <time>2020-06-07T09:07:03Z</time>
      </trkpt>
      <trkpt lat="47.2587" lon="-1.59278">
        <ele>22.1</ele>
        <time>2020-06-07T09:07:04Z</time>
      </trkpt>
      <trkpt lat="47.25871" lon="-1.59278">
        <ele>22.1</ele>
        <time>2020-06-07T09:07:05Z</time>
      </trkpt>
      <trkpt lat="47.25872" lon="-1.59278">
        <ele>22</ele>
        <time>2020-06-07T09:07:06Z</time>
      </trkpt>
      <trkpt lat="47.25873" lon="-1.59277">
        <ele>21.9</ele>
        <time>2020-06-07T09:07:07Z</time>
      </trkpt>
      <trkpt lat="47.25874" lon="-1.59277">
        <ele>21.8</ele>
        <time>2020-06-07T09:07:08Z</time>
      </trkpt>
      <trkpt lat="47.25876" lon="-1.59276">
        <ele>21.7</ele>
        <time>2020-06-07T09:07:09Z</time>
      </trkpt>
      <trkpt lat="47.25878" lon="-1.59275">
        <ele>21.6</ele>
        <time>2020-06-07T09:07:10Z</time>
      </trkpt>
      <trkpt lat="47.2588" lon="-1.59274">
        <ele>21.4</ele>
        <time>2020-06-07T09:07:11Z</time>
      </trkpt>
      <trkpt lat="47.25882" lon="-1.59273">
        <ele>21.3</ele>
        <time>2020-06-07T09:07:12Z</time>
      </trkpt>
      <trkpt lat="47.25884" lon="-1.59271">
        <ele>21.1</ele>
        <time>2020-06-07T09:07:13Z</time>
      </trkpt>
      <trkpt lat="47.25885" lon="-1.5927">
        <ele>21</ele>
        <time>2020-06-07T09:07:14Z</time>
      </trkpt>
      <trkpt lat="47.25886" lon="-1.59269">
        <ele>20.9</ele>
        <time>2020-06-07T09:07:15Z</time>
      </trkpt>
      <trkpt lat="47.25887" lon="-1.59268">
        <ele>20.8</ele>
        <time>2020-06-07T09:07:16Z</time>
      </trkpt>
      <trkpt lat="47.25888" lon="-1.59267">
        <ele>20.7</ele>
        <time>2020-06-07T09:07:17Z</time>
      </trkpt>
      <trkpt lat="47.25889" lon="-1.59266">
        <ele>20.6</ele>
        <time>2020-06-07T09:07:18Z</time>
      </trkpt>
      <trkpt lat="47.2589" lon="-1.59265">
        <ele>20.6</ele>
        <time>2020-06-07T09:07:19Z</time>
      </trkpt>
      <trkpt lat="47.25891" lon="-1.59264">
        <ele>20.5</ele>
        <time>2020-06-07T09:07:20Z</time>
      </trkpt>
      <trkpt lat="47.25892" lon="-1.59263">
        <ele>20.4</ele>
        <time>2020-06-07T09:07:21Z</time>
      </trkpt>
      <trkpt lat="47.25892" lon="-1.59262">
        <ele>20.3</ele>
        <time>2020-06-07T09:07:22Z</time>
      </trkpt>
      <trkpt lat="47.25893" lon="-1.59262">
        <ele>20.3</ele>
        <time>2020-06-07T09:07:23Z</time>
      </trkpt>
      <trkpt lat="47.25894" lon="-1.59261">
        <ele>20.2</ele>
        <time>2020-06-07T09:07:24Z</time>
      </trkpt>
      <trkpt lat="47.25895" lon="-1.5926">
        <ele>20.1</ele>
        <time>2020-06-07T09:07:25Z</time>
      </trkpt>
      <trkpt lat="47.25896" lon="-1.59259">
        <ele>20.1</ele>
        <time>2020-06-07T09:07:26Z</time>
      </trkpt>
      <trkpt lat="47.25897" lon="-1.59258">
        <ele>20</ele>
        <time>2020-06-07T09:07:27Z</time>
      </trkpt>
      <trkpt lat="47.25898" lon="-1.59257">
        <ele>19.9</ele>
        <time>2020-06-07T09:07:28Z</time>
      </trkpt>
      <trkpt lat="47.25898" lon="-1.59256">
        <ele>19.9</ele>
        <time>2020-06-07T09:07:29Z</time>
      </trkpt>
      <trkpt lat="47.25899" lon="-1.59255">
        <ele>19.8</ele>
        <time>2020-06-07T09:07:30Z</time>
      </trkpt>
      <trkpt lat="47.259" lon="-1.59254">
        <ele>19.7</ele>
        <time>2020-06-07T09:07:31Z</time>
      </trkpt>
      <trkpt lat="47.25901" lon="-1.59253">
        <ele>19.7</ele>
        <time>2020-06-07T09:07:32Z</time>
      </trkpt>
      <trkpt lat="47.25902" lon="-1.59253">
        <ele>19.6</ele>
        <time>2020-06-07T09:07:33Z</time>
      </trkpt>
      <trkpt lat="47.25903" lon="-1.59252">
        <ele>19.6</ele>
        <time>2020-06-07T09:07:34Z</time>
      </trkpt>
      <trkpt lat="47.25903" lon="-1.59251">
        <ele>19.5</ele>
        <time>2020-06-07T09:07:35Z</time>
      </trkpt>
      <trkpt lat="47.25904" lon="-1.5925">
        <ele>19.5</ele>
        <time>2020-06-07T09:07:36Z</time>
      </trkpt>
      <trkpt lat="47.25905" lon="-1.59249">
        <ele>19.5</ele>
        <time>2020-06-07T09:07:37Z</time>
      </trkpt>
      <trkpt lat="47.25906" lon="-1.59248">
        <ele>19.5</ele>
        <time>2020-06-07T09:07:38Z</time>
      </trkpt>
      <trkpt lat="47.25906" lon="-1.59247">
        <ele>19.6</ele>
        <time>2020-06-07T09:07:39Z</time>
      </trkpt>
      <trkpt lat="47.25907" lon="-1.59245">
        <ele>19.6</ele>
        <time>2020-06-07T09:07:40Z</time>
      </trkpt>
      <trkpt lat="47.25908" lon="-1.59244">
        <ele>19.6</ele>
        <time>2020-06-07T09:07:41Z</time>
      </trkpt>
      <trkpt lat="47.25908" lon="-1.59243">
        <ele>19.7</ele>
        <time>2020-06-07T09:07:42Z</time>
      </trkpt>
      <trkpt lat="47.25909" lon="-1.59242">
        <ele>19.8</ele>
        <time>2020-06-07T09:07:43Z</time>
      </trkpt>
      <trkpt lat="47.2591" lon="-1.5924">
        <ele>19.8</ele>
        <time>2020-06-07T09:07:44Z</time>
      </trkpt>
      <trkpt lat="47.2591" lon="-1.59239">
        <ele>19.9</ele>
        <time>2020-06-07T09:07:45Z</time>
      </trkpt>
      <trkpt lat="47.25911" lon="-1.59237">
        <ele>19.9</ele>
        <time>2020-06-07T09:07:46Z</time>
      </trkpt>
      <trkpt lat="47.25911" lon="-1.59236">
        <ele>20</ele>
        <time>2020-06-07T09:07:47Z</time>
      </trkpt>
      <trkpt lat="47.25911" lon="-1.59234">
        <ele>20.1</ele>
        <time>2020-06-07T09:07:48Z</time>
      </trkpt>
      <trkpt lat="47.25912" lon="-1.59233">
        <ele>20.2</ele>
        <time>2020-06-07T09:07:49Z</time>
      </trkpt>
      <trkpt lat="47.25912" lon="-1.59231">
        <ele>20.2</ele>
        <time>2020-06-07T09:07:50Z</time>
      </trkpt>
      <trkpt lat="47.25913" lon="-1.5923">
        <ele>20.3</ele>
        <time>2020-06-07T09:07:51Z</time>
      </trkpt>
      <trkpt lat="47.25913" lon="-1.59228">
        <ele>20.4</ele>
        <time>2020-06-07T09:07:52Z</time>
      </trkpt>
      <trkpt lat="47.25913" lon="-1.59227">
        <ele>20.5</ele>
        <time>2020-06-07T09:07:53Z</time>
      </trkpt>
      <trkpt lat="47.25914" lon="-1.59225">
        <ele>20.6</ele>
        <time>2020-06-07T09:07:54Z</time>
      </trkpt>
      <trkpt lat="47.25914" lon="-1.59224">
        <ele>20.6</ele>
        <time>2020-06-07T09:07:55Z</time>
      </trkpt>
      <trkpt lat="47.25915" lon="-1.59222">
        <ele>20.7</ele>
        <time>2020-06-07T09:07:56Z</time>
      </trkpt>
      <trkpt lat="47.25916" lon="-1.59221">
        <ele>20.8</ele>
        <time>2020-06-07T09:07:57Z</time>
      </trkpt>
      <trkpt lat="47.25916" lon="-1.5922">
        <ele>20.8</ele>
        <time>2020-06-07T09:07:58Z</time>
      </trkpt>
      <trkpt lat="47.25917" lon="-1.59219">
        <ele>20.9</ele>
        <time>2020-06-07T09:07:59Z</time>
      </trkpt>
      <trkpt lat="47.25918" lon="-1.59218">
        <ele>20.9</ele>
        <time>2020-06-07T09:08:00Z</time>
      </trkpt>
      <trkpt lat="47.25918" lon="-1.59217">
        <ele>21</ele>
        <time>2020-06-07T09:08:01Z</time>
      </trkpt>
      <trkpt lat="47.25919" lon="-1.59216">
        <ele>21</ele>
        <time>2020-06-07T09:08:02Z</time>
      </trkpt>
      <trkpt lat="47.2592" lon="-1.59215">
        <ele>21.1</ele>
        <time>2020-06-07T09:08:03Z</time>
      </trkpt>
      <trkpt lat="47.2592" lon="-1.59214">
        <ele>21.1</ele>
        <time>2020-06-07T09:08:04Z</time>
      </trkpt>
      <trkpt lat="47.25921" lon="-1.59213">
        <ele>21.2</ele>
        <time>2020-06-07T09:08:05Z</time>
      </trkpt>
      <trkpt lat="47.25922" lon="-1.59212">
        <ele>21.3</ele>
        <time>2020-06-07T09:08:06Z</time>
      </trkpt>
      <trkpt lat="47.25922" lon="-1.59211">
        <ele>21.3</ele>
        <time>2020-06-07T09:08:07Z</time>
      </trkpt>
      <trkpt lat="47.25923" lon="-1.59209">
        <ele>21.4</ele>
        <time>2020-06-07T09:08:08Z</time>
      </trkpt>
      <trkpt lat="47.25924" lon="-1.59208">
        <ele>21.5</ele>
        <time>2020-06-07T09:08:09Z</time>
      </trkpt>
      <trkpt lat="47.25925" lon="-1.59207">
        <ele>21.5</ele>
        <time>2020-06-07T09:08:10Z</time>
      </trkpt>
      <trkpt lat="47.25925" lon="-1.59206">
        <ele>21.6</ele>
        <time>2020-06-07T09:08:11Z</time>
      </trkpt>
      <trkpt lat="47.25926" lon="-1.59204">
        <ele>21.7</ele>
        <time>2020-06-07T09:08:12Z</time>
      </trkpt>
      <trkpt lat="47.25927" lon="-1.59203">
        <ele>21.7</ele>
        <time>2020-06-07T09:08:13Z</time>
      </trkpt>
      <trkpt lat="47.25928" lon="-1.59203">
        <ele>21.8</ele>
        <time>2020-06-07T09:08:14Z</time>
      </trkpt>
      <trkpt lat="47.25929" lon="-1.59202">
        <ele>21.8</ele>
        <time>2020-06-07T09:08:15Z</time>
      </trkpt>
      <trkpt lat="47.2593" lon="-1.59201">
        <ele>21.8</ele>
        <time>2020-06-07T09:08:16Z</time>
      </trkpt>
      <trkpt lat="47.25931" lon="-1.592">
        <ele>21.8</ele>
        <time>2020-06-07T09:08:17Z</time>
      </trkpt>
      <trkpt lat="47.25932" lon="-1.592">
        <ele>21.9</ele>
        <time>2020-06-07T09:08:18Z</time>
      </trkpt>
      <trkpt lat="47.25933" lon="-1.59199">
        <ele>21.9</ele>
        <time>2020-06-07T09:08:19Z</time>
      </trkpt>
      <trkpt lat="47.25934" lon="-1.59199">
        <ele>21.9</ele>
        <time>2020-06-07T09:08:20Z</time>
      </trkpt>
      <trkpt lat="47.25935" lon="-1.59198">
        <ele>21.9</ele>
        <time>2020-06-07T09:08:21Z</time>
      </trkpt>
      <trkpt lat="47.25936" lon="-1.59198">
        <ele>21.9</ele>
        <time>2020-06-07T09:08:22Z</time>
      </trkpt>
      <trkpt lat="47.25937" lon="-1.59198">
        <ele>21.9</ele>
        <time>2020-06-07T09:08:23Z</time>
      </trkpt>
      <trkpt lat="47.25937" lon="-1.59198">
        <ele>21.9</ele>
        <time>2020-06-07T09:08:24Z</time>
      </trkpt>
      <trkpt lat="47.25938" lon="-1.59198">
        <ele>21.9</ele>
        <time>2020-06-07T09:08:25Z</time>
      </trkpt>
      <trkpt lat="47.25938" lon="-1.59198">
        <ele>21.9</ele>
        <time>2020-06-07T09:08:26Z</time>
      </trkpt>
      <trkpt lat="47.25938" lon="-1.59198">
        <ele>21.9</ele>
        <time>2020-06-07T09:08:27Z</time>
      </trkpt>
      <trkpt lat="47.25939" lon="-1.59198">
        <ele>21.9</ele>
        <time>2020-06-07T09:08:28Z</time>
      </trkpt>
      <trkpt lat="47.2594" lon="-1.59198">
        <ele>21.9</ele>
        <time>2020-06-07T09:08:29Z</time>
      </trkpt>
      <trkpt lat="47.2594" lon="-1.59198">
        <ele>21.9</ele>
        <time>2020-06-07T09:08:30Z</time>
      </trkpt>
      <trkpt lat="47.25941" lon="-1.59198">
        <ele>21.9</ele>
        <time>2020-06-07T09:08:31Z</time>
      </trkpt>
      <trkpt lat="47.25942" lon="-1.59198">
        <ele>21.9</ele>
        <time>2020-06-07T09:08:32Z</time>
      </trkpt>
      <trkpt lat="47.25944" lon="-1.59198">
        <ele>21.8</ele>
        <time>2020-06-07T09:08:33Z</time>
      </trkpt>
      <trkpt lat="47.25945" lon="-1.59198">
        <ele>21.8</ele>
        <time>2020-06-07T09:08:34Z</time>
      </trkpt>
      <trkpt lat="47.25946" lon="-1.59199">
        <ele>21.8</ele>
        <time>2020-06-07T09:08:35Z</time>
      </trkpt>
      <trkpt lat="47.25947" lon="-1.59199">
        <ele>21.8</ele>
        <time>2020-06-07T09:08:36Z</time>
      </trkpt>
      <trkpt lat="47.25948" lon="-1.59199">
        <ele>21.7</ele>
        <time>2020-06-07T09:08:37Z</time>
      </trkpt>
      <trkpt lat="47.25949" lon="-1.592">
        <ele>21.7</ele>
        <time>2020-06-07T09:08:38Z</time>
      </trkpt>
      <trkpt lat="47.2595" lon="-1.592">
        <ele>21.7</ele>
        <time>2020-06-07T09:08:39Z</time>
      </trkpt>
      <trkpt lat="47.25951" lon="-1.592">
        <ele>21.7</ele>
        <time>2020-06-07T09:08:40Z</time>
      </trkpt>
      <trkpt lat="47.25951" lon="-1.59201">
        <ele>21.6</ele>
        <time>2020-06-07T09:08:41Z</time>
      </trkpt>
      <trkpt lat="47.25952" lon="-1.59201">
        <ele>21.6</ele>
        <time>2020-06-07T09:08:42Z</time>
      </trkpt>
      <trkpt lat="47.25952" lon="-1.59201">
        <ele>21.6</ele>
        <time>2020-06-07T09:08:43Z</time>
      </trkpt>
      <trkpt lat="47.25952" lon="-1.59201">
        <ele>21.6</ele>
        <time>2020-06-07T09:08:44Z</time>
      </trkpt>
      <trkpt lat="47.25952" lon="-1.59201">
        <ele>21.6</ele>
        <time>2020-06-07T09:08:45Z</time>
      </trkpt>
      <trkpt lat="47.25953" lon="-1.59201">
        <ele>21.6</ele>
        <time>2020-06-07T09:08:46Z</time>
      </trkpt>
      <trkpt lat="47.25953" lon="-1.59201">
        <ele>21.6</ele>
        <time>2020-06-07T09:08:47Z</time>
      </trkpt>
      <trkpt lat="47.25953" lon="-1.59201">
        <ele>21.6</ele>
        <time>2020-06-07T09:08:48Z</time>
      </trkpt>
      <trkpt lat="47.25953" lon="-1.59201">
        <ele>21.6</ele>
        <time>2020-06-07T09:08:49Z</time>
      </trkpt>
      <trkpt lat="47.25953" lon="-1.59201">
        <ele>21.6</ele>
        <time>2020-06-07T09:08:50Z</time>
      </trkpt>
      <trkpt lat="47.25953" lon="-1.59201">
        <ele>21.6</ele>
        <time>2020-06-07T09:08:51Z</time>
      </trkpt>
      <trkpt lat="47.25953" lon="-1.59202">
        <ele>21.6</ele>
        <time>2020-06-07T09:08:52Z</time>
      </trkpt>
      <trkpt lat="47.25954" lon="-1.59202">
        <ele>21.6</ele>
        <time>2020-06-07T09:08:53Z</time>
      </trkpt>
      <trkpt lat="47.25954" lon="-1.59202">
        <ele>21.5</ele>
        <time>2020-06-07T09:08:54Z</time>
      </trkpt>
      <trkpt lat="47.25955" lon="-1.59203">
        <ele>21.5</ele>
        <time>2020-06-07T09:08:55Z</time>
      </trkpt>
      <trkpt lat="47.25956" lon="-1.59203">
        <ele>21.5</ele>
        <time>2020-06-07T09:08:56Z</time>
      </trkpt>
      <trkpt lat="47.25956" lon="-1.59204">
        <ele>21.5</ele>
        <time>2020-06-07T09:08:57Z</time>
      </trkpt>
      <trkpt lat="47.25957" lon="-1.59204">
        <ele>21.4</ele>
        <time>2020-06-07T09:08:58Z</time>
      </trkpt>
      <trkpt lat="47.25958" lon="-1.59205">
        <ele>21.4</ele>
        <time>2020-06-07T09:08:59Z</time>
      </trkpt>
      <trkpt lat="47.25959" lon="-1.59206">
        <ele>21.4</ele>
        <time>2020-06-07T09:09:00Z</time>
      </trkpt>
      <trkpt lat="47.2596" lon="-1.59206">
        <ele>21.3</ele>
        <time>2020-06-07T09:09:01Z</time>
      </trkpt>
      <trkpt lat="47.25961" lon="-1.59207">
        <ele>21.3</ele>
        <time>2020-06-07T09:09:02Z</time>
      </trkpt>
      <trkpt lat="47.25961" lon="-1.59208">
        <ele>21.3</ele>
        <time>2020-06-07T09:09:03Z</time>
      </trkpt>
      <trkpt lat="47.25962" lon="-1.59208">
        <ele>21.2</ele>
        <time>2020-06-07T09:09:04Z</time>
      </trkpt>
      <trkpt lat="47.25963" lon="-1.59209">
        <ele>21.2</ele>
        <time>2020-06-07T09:09:05Z</time>
      </trkpt>
      <trkpt lat="47.25965" lon="-1.59209">
        <ele>21.2</ele>
        <time>2020-06-07T09:09:06Z</time>
      </trkpt>
      <trkpt lat="47.25966" lon="-1.5921">
        <ele>21.1</ele>
        <time>2020-06-07T09:09:07Z</time>
      </trkpt>
      <trkpt lat="47.25967" lon="-1.5921">
        <ele>21.1</ele>
        <time>2020-06-07T09:09:08Z</time>
      </trkpt>
      <trkpt lat="47.25968" lon="-1.5921">
        <ele>21.1</ele>
        <time>2020-06-07T09:09:09Z</time>
      </trkpt>
      <trkpt lat="47.25969" lon="-1.59211">
        <ele>21.1</ele>
        <time>2020-06-07T09:09:10Z</time>
      </trkpt>
      <trkpt lat="47.25971" lon="-1.59211">
        <ele>21.1</ele>
        <time>2020-06-07T09:09:11Z</time>
      </trkpt>
      <trkpt lat="47.25972" lon="-1.59211">
        <ele>21.1</ele>
        <time>2020-06-07T09:09:12Z</time>
      </trkpt>
      <trkpt lat="47.25973" lon="-1.59212">
        <ele>21</ele>
        <time>2020-06-07T09:09:13Z</time>
      </trkpt>
      <trkpt lat="47.25974" lon="-1.59212">
        <ele>21</ele>
        <time>2020-06-07T09:09:14Z</time>
      </trkpt>
      <trkpt lat="47.25975" lon="-1.59212">
        <ele>21</ele>
        <time>2020-06-07T09:09:15Z</time>
      </trkpt>
      <trkpt lat="47.25976" lon="-1.59212">
        <ele>21</ele>
        <time>2020-06-07T09:09:16Z</time>
      </trkpt>
      <trkpt lat="47.25977" lon="-1.59213">
        <ele>21</ele>
        <time>2020-06-07T09:09:17Z</time>
      </trkpt>
      <trkpt lat="47.25978" lon="-1.59213">
        <ele>21</ele>
        <time>2020-06-07T09:09:18Z</time>
      </trkpt>
      <trkpt lat="47.25979" lon="-1.59214">
        <ele>21</ele>
        <time>2020-06-07T09:09:19Z</time>
      </trkpt>
      <trkpt lat="47.2598" lon="-1.59214">
        <ele>20.9</ele>
        <time>2020-06-07T09:09:20Z</time>
      </trkpt>
      <trkpt lat="47.25981" lon="-1.59214">
        <ele>20.9</ele>
        <time>2020-06-07T09:09:21Z</time>
      </trkpt>
      <trkpt lat="47.25982" lon="-1.59215">
        <ele>20.9</ele>
        <time>2020-06-07T09:09:22Z</time>
      </trkpt>
      <trkpt lat="47.25983" lon="-1.59215">
        <ele>20.9</ele>
        <time>2020-06-07T09:09:23Z</time>
      </trkpt>
      <trkpt lat="47.25984" lon="-1.59216">
        <ele>20.9</ele>
        <time>2020-06-07T09:09:24Z</time>
      </trkpt>
      <trkpt lat="47.25984" lon="-1.59216">
        <ele>20.9</ele>
        <time>2020-06-07T09:09:25Z</time>
      </trkpt>
      <trkpt lat="47.25985" lon="-1.59217">
        <ele>20.8</ele>
        <time>2020-06-07T09:09:26Z</time>
      </trkpt>
      <trkpt lat="47.25986" lon="-1.59217">
        <ele>20.8</ele>
        <time>2020-06-07T09:09:27Z</time>
      </trkpt>
      <trkpt lat="47.25987" lon="-1.59217">
        <ele>20.8</ele>
        <time>2020-06-07T09:09:28Z</time>
      </trkpt>
      <trkpt lat="47.25988" lon="-1.59218">
        <ele>20.8</ele>
        <time>2020-06-07T09:09:29Z</time>
      </trkpt>
      <trkpt lat="47.25989" lon="-1.59218">
        <ele>20.8</ele>
        <time>2020-06-07T09:09:30Z</time>
      </trkpt>
      <trkpt lat="47.2599" lon="-1.59219">
        <ele>20.8</ele>
        <time>2020-06-07T09:09:31Z</time>
      </trkpt>
      <trkpt lat="47.25991" lon="-1.59219">
        <ele>20.7</ele>
        <time>2020-06-07T09:09:32Z</time>
      </trkpt>
      <trkpt lat="47.25992" lon="-1.5922">
        <ele>20.7</ele>
        <time>2020-06-07T09:09:33Z</time>
      </trkpt>
      <trkpt lat="47.25993" lon="-1.59221">
        <ele>20.7</ele>
        <time>2020-06-07T09:09:34Z</time>
      </trkpt>
      <trkpt lat="47.25994" lon="-1.59221">
        <ele>20.7</ele>
        <time>2020-06-07T09:09:35Z</time>
      </trkpt>
      <trkpt lat="47.25996" lon="-1.59222">
        <ele>20.7</ele>
        <time>2020-06-07T09:09:36Z</time>
      </trkpt>
      <trkpt lat="47.25997" lon="-1.59222">
        <ele>20.7</ele>
        <time>2020-06-07T09:09:37Z</time>
      </trkpt>
      <trkpt lat="47.25998" lon="-1.59223">
        <ele>20.7</ele>
        <time>2020-06-07T09:09:38Z</time>
      </trkpt>
      <trkpt lat="47.25999" lon="-1.59223">
        <ele>20.6</ele>
        <time>2020-06-07T09:09:39Z</time>
      </trkpt>
      <trkpt lat="47.26001" lon="-1.59224">
        <ele>20.7</ele>
        <time>2020-06-07T09:09:40Z</time>
      </trkpt>
      <trkpt lat="47.26002" lon="-1.59224">
        <ele>20.8</ele>
        <time>2020-06-07T09:09:41Z</time>
      </trkpt>
      <trkpt lat="47.26003" lon="-1.59225">
        <ele>20.8</ele>
        <time>2020-06-07T09:09:42Z</time>
      </trkpt>
      <trkpt lat="47.26004" lon="-1.59226">
        <ele>20.9</ele>
        <time>2020-06-07T09:09:43Z</time>
      </trkpt>
      <trkpt lat="47.26005" lon="-1.59226">
        <ele>21</ele>
        <time>2020-06-07T09:09:44Z</time>
      </trkpt>
      <trkpt lat="47.26006" lon="-1.59227">
        <ele>21.1</ele>
        <time>2020-06-07T09:09:45Z</time>
      </trkpt>
      <trkpt lat="47.26007" lon="-1.59227">
        <ele>21.2</ele>
        <time>2020-06-07T09:09:46Z</time>
      </trkpt>
      <trkpt lat="47.26008" lon="-1.59228">
        <ele>21.3</ele>
        <time>2020-06-07T09:09:47Z</time>
      </trkpt>
      <trkpt lat="47.26009" lon="-1.59228">
        <ele>21.3</ele>
        <time>2020-06-07T09:09:48Z</time>
      </trkpt>
      <trkpt lat="47.2601" lon="-1.59229">
        <ele>21.4</ele>
        <time>2020-06-07T09:09:49Z</time>
      </trkpt>
      <trkpt lat="47.26011" lon="-1.5923">
        <ele>21.5</ele>
        <time>2020-06-07T09:09:50Z</time>
      </trkpt>
      <trkpt lat="47.26012" lon="-1.5923">
        <ele>21.5</ele>
        <time>2020-06-07T09:09:51Z</time>
      </trkpt>
      <trkpt lat="47.26013" lon="-1.59231">
        <ele>21.6</ele>
        <time>2020-06-07T09:09:52Z</time>
      </trkpt>
      <trkpt lat="47.26014" lon="-1.59232">
        <ele>21.7</ele>
        <time>2020-06-07T09:09:53Z</time>
      </trkpt>
      <trkpt lat="47.26014" lon="-1.59233">
        <ele>21.7</ele>
        <time>2020-06-07T09:09:54Z</time>
      </trkpt>
      <trkpt lat="47.26015" lon="-1.59234">
        <ele>21.8</ele>
        <time>2020-06-07T09:09:55Z</time>
      </trkpt>
      <trkpt lat="47.26016" lon="-1.59235">
        <ele>21.8</ele>
        <time>2020-06-07T09:09:56Z</time>
      </trkpt>
      <trkpt lat="47.26017" lon="-1.59236">
        <ele>21.9</ele>
        <time>2020-06-07T09:09:57Z</time>
      </trkpt>
      <trkpt lat="47.26017" lon="-1.59238">
        <ele>21.9</ele>
        <time>2020-06-07T09:09:58Z</time>
      </trkpt>
      <trkpt lat="47.26018" lon="-1.59239">
        <ele>21.9</ele>
        <time>2020-06-07T09:09:59Z</time>
      </trkpt>
      <trkpt lat="47.26018" lon="-1.59241">
        <ele>21.9</ele>
        <time>2020-06-07T09:10:00Z</time>
      </trkpt>
      <trkpt lat="47.26019" lon="-1.59242">
        <ele>21.9</ele>
        <time>2020-06-07T09:10:01Z</time>
      </trkpt>
      <trkpt lat="47.26019" lon="-1.59244">
        <ele>21.9</ele>
        <time>2020-06-07T09:10:02Z</time>
      </trkpt>
      <trkpt lat="47.26019" lon="-1.59245">
        <ele>21.9</ele>
        <time>2020-06-07T09:10:03Z</time>
      </trkpt>
      <trkpt lat="47.2602" lon="-1.59247">
        <ele>21.9</ele>
        <time>2020-06-07T09:10:04Z</time>
      </trkpt>
      <trkpt lat="47.2602" lon="-1.59249">
        <ele>21.9</ele>
        <time>2020-06-07T09:10:05Z</time>
      </trkpt>
      <trkpt lat="47.2602" lon="-1.5925">
        <ele>21.9</ele>
        <time>2020-06-07T09:10:06Z</time>
      </trkpt>
      <trkpt lat="47.2602" lon="-1.59252">
        <ele>21.9</ele>
        <time>2020-06-07T09:10:07Z</time>
      </trkpt>
      <trkpt lat="47.2602" lon="-1.59254">
        <ele>21.9</ele>
        <time>2020-06-07T09:10:08Z</time>
      </trkpt>
      <trkpt lat="47.2602" lon="-1.59255">
        <ele>21.8</ele>
        <time>2020-06-07T09:10:09Z</time>
      </trkpt>
      <trkpt lat="47.2602" lon="-1.59257">
        <ele>21.8</ele>
        <time>2020-06-07T09:10:10Z</time>
      </trkpt>
      <trkpt lat="47.2602" lon="-1.59259">
        <ele>21.8</ele>
        <time>2020-06-07T09:10:11Z</time>
      </trkpt>
      <trkpt lat="47.2602" lon="-1.5926">
        <ele>21.8</ele>
        <time>2020-06-07T09:10:12Z</time>
      </trkpt>
      <trkpt lat="47.2602" lon="-1.59262">
        <ele>21.8</ele>
        <time>2020-06-07T09:10:13Z</time>
      </trkpt>
      <trkpt lat="47.2602" lon="-1.59263">
        <ele>21.7</ele>
        <time>2020-06-07T09:10:14Z</time>
      </trkpt>
      <trkpt lat="47.2602" lon="-1.59265">
        <ele>21.7</ele>
        <time>2020-06-07T09:10:15Z</time>
      </trkpt>
      <trkpt lat="47.2602" lon="-1.59266">
        <ele>21.7</ele>
        <time>2020-06-07T09:10:16Z</time>
      </trkpt>
      <trkpt lat="47.26021" lon="-1.59268">
        <ele>21.7</ele>
        <time>2020-06-07T09:10:17Z</time>
      </trkpt>
      <trkpt lat="47.26021" lon="-1.59269">
        <ele>21.7</ele>
        <time>2020-06-07T09:10:18Z</time>
      </trkpt>
      <trkpt lat="47.26021" lon="-1.5927">
        <ele>21.7</ele>
        <time>2020-06-07T09:10:19Z</time>
      </trkpt>
      <trkpt lat="47.26021" lon="-1.59272">
        <ele>21.7</ele>
        <time>2020-06-07T09:10:20Z</time>
      </trkpt>
      <trkpt lat="47.26021" lon="-1.59273">
        <ele>21.7</ele>
        <time>2020-06-07T09:10:21Z</time>
      </trkpt>
      <trkpt lat="47.26021" lon="-1.59274">
        <ele>21.7</ele>
        <time>2020-06-07T09:10:22Z</time>
      </trkpt>
      <trkpt lat="47.26022" lon="-1.59275">
        <ele>21.7</ele>
        <time>2020-06-07T09:10:23Z</time>
      </trkpt>
      <trkpt lat="47.26022" lon="-1.59277">
        <ele>21.7</ele>
        <time>2020-06-07T09:10:24Z</time>
      </trkpt>
      <trkpt lat="47.26022" lon="-1.59278">
        <ele>21.7</ele>
        <time>2020-06-07T09:10:25Z</time>
      </trkpt>
      <trkpt lat="47.26022" lon="-1.5928">
        <ele>21.6</ele>
        <time>2020-06-07T09:10:26Z</time>
      </trkpt>
      <trkpt lat="47.26022" lon="-1.59281">
        <ele>21.6</ele>
        <time>2020-06-07T09:10:27Z</time>
      </trkpt>
      <trkpt lat="47.26022" lon="-1.59282">
        <ele>21.6</ele>
        <time>2020-06-07T09:10:28Z</time>
      </trkpt>
      <trkpt lat="47.26022" lon="-1.59284">
        <ele>21.6</ele>
        <time>2020-06-07T09:10:29Z</time>
      </trkpt>
      <trkpt lat="47.26022" lon="-1.59285">
        <ele>21.6</ele>
        <time>2020-06-07T09:10:30Z</time>
      </trkpt>
      <trkpt lat="47.26022" lon="-1.59287">
        <ele>21.6</ele>
        <time>2020-06-07T09:10:31Z</time>
      </trkpt>
      <trkpt lat="47.26023" lon="-1.59288">
        <ele>21.6</ele>
        <time>2020-06-07T09:10:32Z</time>
      </trkpt>
      <trkpt lat="47.26023" lon="-1.59289">
        <ele>21.6</ele>
        <time>2020-06-07T09:10:33Z</time>
      </trkpt>
      <trkpt lat="47.26023" lon="-1.59291">
        <ele>21.6</ele>
        <time>2020-06-07T09:10:34Z</time>
      </trkpt>
      <trkpt lat="47.26024" lon="-1.59292">
        <ele>21.6</ele>
        <time>2020-06-07T09:10:35Z</time>
      </trkpt>
      <trkpt lat="47.26024" lon="-1.59294">
        <ele>21.6</ele>
        <time>2020-06-07T09:10:36Z</time>
      </trkpt>
      <trkpt lat="47.26024" lon="-1.59295">
        <ele>21.6</ele>
        <time>2020-06-07T09:10:37Z</time>
      </trkpt>
      <trkpt lat="47.26025" lon="-1.59296">
        <ele>21.7</ele>
        <time>2020-06-07T09:10:38Z</time>
      </trkpt>
      <trkpt lat="47.26025" lon="-1.59297">
        <ele>21.7</ele>
        <time>2020-06-07T09:10:39Z</time>
      </trkpt>
      <trkpt lat="47.26025" lon="-1.59298">
        <ele>21.7</ele>
        <time>2020-06-07T09:10:40Z</time>
      </trkpt>
      <trkpt lat="47.26026" lon="-1.59299">
        <ele>21.7</ele>
        <time>2020-06-07T09:10:41Z</time>
      </trkpt>
      <trkpt lat="47.26026" lon="-1.593">
        <ele>21.7</ele>
        <time>2020-06-07T09:10:42Z</time>
      </trkpt>
      <trkpt lat="47.26026" lon="-1.59301">
        <ele>21.7</ele>
        <time>2020-06-07T09:10:43Z</time>
      </trkpt>
      <trkpt lat="47.26026" lon="-1.59303">
        <ele>21.7</ele>
        <time>2020-06-07T09:10:44Z</time>
      </trkpt>
      <trkpt lat="47.26026" lon="-1.59304">
        <ele>21.7</ele>
        <time>2020-06-07T09:10:45Z</time>
      </trkpt>
      <trkpt lat="47.26026" lon="-1.59305">
        <ele>21.6</ele>
        <time>2020-06-07T09:10:46Z</time>
      </trkpt>
      <trkpt lat="47.26026" lon="-1.59307">
        <ele>21.6</ele>
        <time>2020-06-07T09:10:47Z</time>
      </trkpt>
      <trkpt lat="47.26026" lon="-1.59308">
        <ele>21.6</ele>
        <time>2020-06-07T09:10:48Z</time>
      </trkpt>
      <trkpt lat="47.26026" lon="-1.5931">
        <ele>21.6</ele>
        <time>2020-06-07T09:10:49Z</time>
      </trkpt>
      <trkpt lat="47.26026" lon="-1.59311">
        <ele>21.6</ele>
        <time>2020-06-07T09:10:50Z</time>
      </trkpt>
      <trkpt lat="47.26026" lon="-1.59313">
        <ele>21.5</ele>
        <time>2020-06-07T09:10:51Z</time>
      </trkpt>
      <trkpt lat="47.26026" lon="-1.59314">
        <ele>21.5</ele>
        <time>2020-06-07T09:10:52Z</time>
      </trkpt>
      <trkpt lat="47.26026" lon="-1.59316">
        <ele>21.4</ele>
        <time>2020-06-07T09:10:53Z</time>
      </trkpt>
      <trkpt lat="47.26026" lon="-1.59317">
        <ele>21.4</ele>
        <time>2020-06-07T09:10:54Z</time>
      </trkpt>
      <trkpt lat="47.26025" lon="-1.59319">
        <ele>21.4</ele>
        <time>2020-06-07T09:10:55Z</time>
      </trkpt>
      <trkpt lat="47.26025" lon="-1.5932">
        <ele>21.3</ele>
        <time>2020-06-07T09:10:56Z</time>
      </trkpt>
      <trkpt lat="47.26025" lon="-1.59321">
        <ele>21.3</ele>
        <time>2020-06-07T09:10:57Z</time>
      </trkpt>
      <trkpt lat="47.26024" lon="-1.59323">
        <ele>21.2</ele>
        <time>2020-06-07T09:10:58Z</time>
      </trkpt>
      <trkpt lat="47.26024" lon="-1.59324">
        <ele>21.2</ele>
        <time>2020-06-07T09:10:59Z</time>
      </trkpt>
      <trkpt lat="47.26023" lon="-1.59326">
        <ele>21.1</ele>
        <time>2020-06-07T09:11:00Z</time>
      </trkpt>
      <trkpt lat="47.26023" lon="-1.59327">
        <ele>21</ele>
        <time>2020-06-07T09:11:01Z</time>
      </trkpt>
      <trkpt lat="47.26022" lon="-1.59328">
        <ele>21</ele>
        <time>2020-06-07T09:11:02Z</time>
      </trkpt>
      <trkpt lat="47.26022" lon="-1.59329">
        <ele>20.9</ele>
        <time>2020-06-07T09:11:03Z</time>
      </trkpt>
      <trkpt lat="47.26021" lon="-1.5933">
        <ele>20.8</ele>
        <time>2020-06-07T09:11:04Z</time>
      </trkpt>
      <trkpt lat="47.26021" lon="-1.59332">
        <ele>20.8</ele>
        <time>2020-06-07T09:11:05Z</time>
      </trkpt>
      <trkpt lat="47.2602" lon="-1.59333">
        <ele>20.7</ele>
        <time>2020-06-07T09:11:06Z</time>
      </trkpt>
      <trkpt lat="47.2602" lon="-1.59334">
        <ele>20.6</ele>
        <time>2020-06-07T09:11:07Z</time>
      </trkpt>
      <trkpt lat="47.26019" lon="-1.59335">
        <ele>20.5</ele>
        <time>2020-06-07T09:11:08Z</time>
      </trkpt>
      <trkpt lat="47.26018" lon="-1.59336">
        <ele>20.4</ele>
        <time>2020-06-07T09:11:09Z</time>
      </trkpt>
      <trkpt lat="47.26018" lon="-1.59337">
        <ele>20.3</ele>
        <time>2020-06-07T09:11:10Z</time>
      </trkpt>
      <trkpt lat="47.26017" lon="-1.59339">
        <ele>20.3</ele>
        <time>2020-06-07T09:11:11Z</time>
      </trkpt>
      <trkpt lat="47.26016" lon="-1.5934">
        <ele>20.2</ele>
        <time>2020-06-07T09:11:12Z</time>
      </trkpt>
      <trkpt lat="47.26016" lon="-1.59341">
        <ele>20.1</ele>
        <time>2020-06-07T09:11:13Z</time>
      </trkpt>
      <trkpt lat="47.26015" lon="-1.59342">
        <ele>20</ele>
        <time>2020-06-07T09:11:14Z</time>
      </trkpt>
      <trkpt lat="47.26015" lon="-1.59343">
        <ele>19.9</ele>
        <time>2020-06-07T09:11:15Z</time>
      </trkpt>
      <trkpt lat="47.26014" lon="-1.59344">
        <ele>19.8</ele>
        <time>2020-06-07T09:11:16Z</time>
      </trkpt>
      <trkpt lat="47.26014" lon="-1.59346">
        <ele>19.7</ele>
        <time>2020-06-07T09:11:17Z</time>
      </trkpt>
      <trkpt lat="47.26013" lon="-1.59347">
        <ele>19.7</ele>
        <time>2020-06-07T09:11:18Z</time>
      </trkpt>
      <trkpt lat="47.26013" lon="-1.59348">
        <ele>19.6</ele>
        <time>2020-06-07T09:11:19Z</time>
      </trkpt>
      <trkpt lat="47.26012" lon="-1.59349">
        <ele>19.5</ele>
        <time>2020-06-07T09:11:20Z</time>
      </trkpt>
      <trkpt lat="47.26012" lon="-1.5935">
        <ele>19.4</ele>
        <time>2020-06-07T09:11:21Z</time>
      </trkpt>
      <trkpt lat="47.26011" lon="-1.59352">
        <ele>19.3</ele>
        <time>2020-06-07T09:11:22Z</time>
      </trkpt>
      <trkpt lat="47.26011" lon="-1.59353">
        <ele>19.2</ele>
        <time>2020-06-07T09:11:23Z</time>
      </trkpt>
      <trkpt lat="47.2601" lon="-1.59354">
        <ele>19.2</ele>
        <time>2020-06-07T09:11:24Z</time>
      </trkpt>
      <trkpt lat="47.2601" lon="-1.59355">
        <ele>19.1</ele>
        <time>2020-06-07T09:11:25Z</time>
      </trkpt>
      <trkpt lat="47.26009" lon="-1.59356">
        <ele>19</ele>
        <time>2020-06-07T09:11:26Z</time>
      </trkpt>
      <trkpt lat="47.26009" lon="-1.59357">
        <ele>18.9</ele>
        <time>2020-06-07T09:11:27Z</time>
      </trkpt>
      <trkpt lat="47.26008" lon="-1.59358">
        <ele>18.8</ele>
        <time>2020-06-07T09:11:28Z</time>
      </trkpt>
      <trkpt lat="47.26007" lon="-1.5936">
        <ele>18.7</ele>
        <time>2020-06-07T09:11:29Z</time>
      </trkpt>
      <trkpt lat="47.26007" lon="-1.59361">
        <ele>18.6</ele>
        <time>2020-06-07T09:11:30Z</time>
      </trkpt>
      <trkpt lat="47.26006" lon="-1.59362">
        <ele>18.5</ele>
        <time>2020-06-07T09:11:31Z</time>
      </trkpt>
      <trkpt lat="47.26006" lon="-1.59363">
        <ele>18.4</ele>
        <time>2020-06-07T09:11:32Z</time>
      </trkpt>
      <trkpt lat="47.26005" lon="-1.59364">
        <ele>18.3</ele>
        <time>2020-06-07T09:11:33Z</time>
      </trkpt>
      <trkpt lat="47.26004" lon="-1.59365">
        <ele>18.2</ele>
        <time>2020-06-07T09:11:34Z</time>
      </trkpt>
      <trkpt lat="47.26004" lon="-1.59366">
        <ele>18.1</ele>
        <time>2020-06-07T09:11:35Z</time>
      </trkpt>
      <trkpt lat="47.26003" lon="-1.59368">
        <ele>18.1</ele>
        <time>2020-06-07T09:11:36Z</time>
      </trkpt>
      <trkpt lat="47.26003" lon="-1.59369">
        <ele>18</ele>
        <time>2020-06-07T09:11:37Z</time>
      </trkpt>
      <trkpt lat="47.26002" lon="-1.5937">
        <ele>17.9</ele>
        <time>2020-06-07T09:11:38Z</time>
      </trkpt>
      <trkpt lat="47.26002" lon="-1.59371">
        <ele>17.8</ele>
        <time>2020-06-07T09:11:39Z</time>
      </trkpt>
      <trkpt lat="47.26001" lon="-1.59372">
        <ele>17.7</ele>
        <time>2020-06-07T09:11:40Z</time>
      </trkpt>
      <trkpt lat="47.26001" lon="-1.59374">
        <ele>17.6</ele>
        <time>2020-06-07T09:11:41Z</time>
      </trkpt>
      <trkpt lat="47.26" lon="-1.59375">
        <ele>17.5</ele>
        <time>2020-06-07T09:11:42Z</time>
      </trkpt>
      <trkpt lat="47.26" lon="-1.59376">
        <ele>17.5</ele>
        <time>2020-06-07T09:11:43Z</time>
      </trkpt>
      <trkpt lat="47.25999" lon="-1.59377">
        <ele>17.5</ele>
        <time>2020-06-07T09:11:44Z</time>
      </trkpt>
      <trkpt lat="47.25999" lon="-1.59378">
        <ele>17.5</ele>
        <time>2020-06-07T09:11:45Z</time>
      </trkpt>
      <trkpt lat="47.25998" lon="-1.5938">
        <ele>17.4</ele>
        <time>2020-06-07T09:11:46Z</time>
      </trkpt>
      <trkpt lat="47.25998" lon="-1.59381">
        <ele>17.4</ele>
        <time>2020-06-07T09:11:47Z</time>
      </trkpt>
      <trkpt lat="47.25997" lon="-1.59382">
        <ele>17.4</ele>
        <time>2020-06-07T09:11:48Z</time>
      </trkpt>
      <trkpt lat="47.25997" lon="-1.59383">
        <ele>17.4</ele>
        <time>2020-06-07T09:11:49Z</time>
      </trkpt>
      <trkpt lat="47.25996" lon="-1.59385">
        <ele>17.4</ele>
        <time>2020-06-07T09:11:50Z</time>
      </trkpt>
      <trkpt lat="47.25996" lon="-1.59386">
        <ele>17.3</ele>
        <time>2020-06-07T09:11:51Z</time>
      </trkpt>
      <trkpt lat="47.25995" lon="-1.59387">
        <ele>17.3</ele>
        <time>2020-06-07T09:11:52Z</time>
      </trkpt>
      <trkpt lat="47.25995" lon="-1.59388">
        <ele>17.3</ele>
        <time>2020-06-07T09:11:53Z</time>
      </trkpt>
      <trkpt lat="47.25994" lon="-1.5939">
        <ele>17.3</ele>
        <time>2020-06-07T09:11:54Z</time>
      </trkpt>
      <trkpt lat="47.25993" lon="-1.59391">
        <ele>17.3</ele>
        <time>2020-06-07T09:11:55Z</time>
      </trkpt>
      <trkpt lat="47.25993" lon="-1.59392">
        <ele>17.3</ele>
        <time>2020-06-07T09:11:56Z</time>
      </trkpt>
      <trkpt lat="47.25992" lon="-1.59393">
        <ele>17.3</ele>
        <time>2020-06-07T09:11:57Z</time>
      </trkpt>
      <trkpt lat="47.25992" lon="-1.59395">
        <ele>17.3</ele>
        <time>2020-06-07T09:11:58Z</time>
      </trkpt>
      <trkpt lat="47.25991" lon="-1.59396">
        <ele>17.3</ele>
        <time>2020-06-07T09:11:59Z</time>
      </trkpt>
      <trkpt lat="47.25991" lon="-1.59397">
        <ele>17.3</ele>
        <time>2020-06-07T09:12:00Z</time>
      </trkpt>
      <trkpt lat="47.2599" lon="-1.59398">
        <ele>17.3</ele>
        <time>2020-06-07T09:12:01Z</time>
      </trkpt>
      <trkpt lat="47.25989" lon="-1.594">
        <ele>17.3</ele>
        <time>2020-06-07T09:12:02Z</time>
      </trkpt>
      <trkpt lat="47.25989" lon="-1.59401">
        <ele>17.3</ele>
        <time>2020-06-07T09:12:03Z</time>
      </trkpt>
      <trkpt lat="47.25988" lon="-1.59402">
        <ele>17.3</ele>
        <time>2020-06-07T09:12:04Z</time>
      </trkpt>
      <trkpt lat="47.25987" lon="-1.59403">
        <ele>17.3</ele>
        <time>2020-06-07T09:12:05Z</time>
      </trkpt>
      <trkpt lat="47.25987" lon="-1.59405">
        <ele>17.3</ele>
        <time>2020-06-07T09:12:06Z</time>
      </trkpt>
      <trkpt lat="47.25986" lon="-1.59406">
        <ele>17.3</ele>
        <time>2020-06-07T09:12:07Z</time>
      </trkpt>
      <trkpt lat="47.25985" lon="-1.59407">
        <ele>17.3</ele>
        <time>2020-06-07T09:12:08Z</time>
      </trkpt>
      <trkpt lat="47.25985" lon="-1.59408">
        <ele>17.3</ele>
        <time>2020-06-07T09:12:09Z</time>
      </trkpt>
      <trkpt lat="47.25984" lon="-1.59409">
        <ele>17.3</ele>
        <time>2020-06-07T09:12:10Z</time>
      </trkpt>
      <trkpt lat="47.25983" lon="-1.59411">
        <ele>17.4</ele>
        <time>2020-06-07T09:12:11Z</time>
      </trkpt>
      <trkpt lat="47.25983" lon="-1.59412">
        <ele>17.4</ele>
        <time>2020-06-07T09:12:12Z</time>
      </trkpt>
      <trkpt lat="47.25982" lon="-1.59413">
        <ele>17.4</ele>
        <time>2020-06-07T09:12:13Z</time>
      </trkpt>
      <trkpt lat="47.25982" lon="-1.59414">
        <ele>17.4</ele>
        <time>2020-06-07T09:12:14Z</time>
      </trkpt>
      <trkpt lat="47.25981" lon="-1.59415">
        <ele>17.4</ele>
        <time>2020-06-07T09:12:15Z</time>
      </trkpt>
      <trkpt lat="47.25981" lon="-1.59416">
        <ele>17.4</ele>
        <time>2020-06-07T09:12:16Z</time>
      </trkpt>
      <trkpt lat="47.2598" lon="-1.59417">
        <ele>17.4</ele>
        <time>2020-06-07T09:12:17Z</time>
      </trkpt>
      <trkpt lat="47.2598" lon="-1.59418">
        <ele>17.5</ele>
        <time>2020-06-07T09:12:18Z</time>
      </trkpt>
      <trkpt lat="47.25979" lon="-1.5942">
        <ele>17.5</ele>
        <time>2020-06-07T09:12:19Z</time>
      </trkpt>
      <trkpt lat="47.25979" lon="-1.59421">
        <ele>17.5</ele>
        <time>2020-06-07T09:12:20Z</time>
      </trkpt>
      <trkpt lat="47.25978" lon="-1.59422">
        <ele>17.6</ele>
        <time>2020-06-07T09:12:21Z</time>
      </trkpt>
      <trkpt lat="47.25978" lon="-1.59423">
        <ele>17.6</ele>
        <time>2020-06-07T09:12:22Z</time>
      </trkpt>
      <trkpt lat="47.25977" lon="-1.59424">
        <ele>17.6</ele>
        <time>2020-06-07T09:12:23Z</time>
      </trkpt>
      <trkpt lat="47.25977" lon="-1.59425">
        <ele>17.7</ele>
        <time>2020-06-07T09:12:24Z</time>
      </trkpt>
      <trkpt lat="47.25977" lon="-1.59427">
        <ele>17.7</ele>
        <time>2020-06-07T09:12:25Z</time>
      </trkpt>
      <trkpt lat="47.25976" lon="-1.59428">
        <ele>17.7</ele>
        <time>2020-06-07T09:12:26Z</time>
      </trkpt>
      <trkpt lat="47.25976" lon="-1.59429">
        <ele>17.8</ele>
        <time>2020-06-07T09:12:27Z</time>
      </trkpt>
      <trkpt lat="47.25975" lon="-1.5943">
        <ele>17.8</ele>
        <time>2020-06-07T09:12:28Z</time>
      </trkpt>
      <trkpt lat="47.25975" lon="-1.59432">
        <ele>17.8</ele>
        <time>2020-06-07T09:12:29Z</time>
      </trkpt>
      <trkpt lat="47.25974" lon="-1.59433">
        <ele>17.9</ele>
        <time>2020-06-07T09:12:30Z</time>
      </trkpt>
      <trkpt lat="47.25974" lon="-1.59434">
        <ele>17.9</ele>
        <time>2020-06-07T09:12:31Z</time>
      </trkpt>
      <trkpt lat="47.25973" lon="-1.59436">
        <ele>17.9</ele>
        <time>2020-06-07T09:12:32Z</time>
      </trkpt>
      <trkpt lat="47.25973" lon="-1.59437">
        <ele>18</ele>
        <time>2020-06-07T09:12:33Z</time>
      </trkpt>
      <trkpt lat="47.25972" lon="-1.59439">
        <ele>18</ele>
        <time>2020-06-07T09:12:34Z</time>
      </trkpt>
      <trkpt lat="47.25972" lon="-1.5944">
        <ele>18</ele>
        <time>2020-06-07T09:12:35Z</time>
      </trkpt>
      <trkpt lat="47.25971" lon="-1.59442">
        <ele>18.1</ele>
        <time>2020-06-07T09:12:36Z</time>
      </trkpt>
      <trkpt lat="47.25971" lon="-1.59443">
        <ele>18.1</ele>
        <time>2020-06-07T09:12:37Z</time>
      </trkpt>
      <trkpt lat="47.2597" lon="-1.59445">
        <ele>18.1</ele>
        <time>2020-06-07T09:12:38Z</time>
      </trkpt>
      <trkpt lat="47.25969" lon="-1.59446">
        <ele>18.2</ele>
        <time>2020-06-07T09:12:39Z</time>
      </trkpt>
      <trkpt lat="47.25969" lon="-1.59448">
        <ele>18.2</ele>
        <time>2020-06-07T09:12:40Z</time>
      </trkpt>
      <trkpt lat="47.25968" lon="-1.59449">
        <ele>18.2</ele>
        <time>2020-06-07T09:12:41Z</time>
      </trkpt>
      <trkpt lat="47.25968" lon="-1.59451">
        <ele>18.2</ele>
        <time>2020-06-07T09:12:42Z</time>
      </trkpt>
      <trkpt lat="47.25968" lon="-1.59452">
        <ele>18.3</ele>
        <time>2020-06-07T09:12:43Z</time>
      </trkpt>
      <trkpt lat="47.25968" lon="-1.59454">
        <ele>18.3</ele>
        <time>2020-06-07T09:12:44Z</time>
      </trkpt>
      <trkpt lat="47.25967" lon="-1.59456">
        <ele>18.3</ele>
        <time>2020-06-07T09:12:45Z</time>
      </trkpt>
      <trkpt lat="47.25967" lon="-1.59457">
        <ele>18.3</ele>
        <time>2020-06-07T09:12:46Z</time>
      </trkpt>
      <trkpt lat="47.25967" lon="-1.59459">
        <ele>18.3</ele>
        <time>2020-06-07T09:12:47Z</time>
      </trkpt>
      <trkpt lat="47.25968" lon="-1.5946">
        <ele>18.3</ele>
        <time>2020-06-07T09:12:48Z</time>
      </trkpt>
      <trkpt lat="47.25968" lon="-1.59462">
        <ele>18.2</ele>
        <time>2020-06-07T09:12:49Z</time>
      </trkpt>
      <trkpt lat="47.25968" lon="-1.59463">
        <ele>18.2</ele>
        <time>2020-06-07T09:12:50Z</time>
      </trkpt>
      <trkpt lat="47.25968" lon="-1.59465">
        <ele>18.2</ele>
        <time>2020-06-07T09:12:51Z</time>
      </trkpt>
      <trkpt lat="47.25969" lon="-1.59466">
        <ele>18.2</ele>
        <time>2020-06-07T09:12:52Z</time>
      </trkpt>
      <trkpt lat="47.25969" lon="-1.59468">
        <ele>18.1</ele>
        <time>2020-06-07T09:12:53Z</time>
      </trkpt>
      <trkpt lat="47.2597" lon="-1.5947">
        <ele>18.1</ele>
        <time>2020-06-07T09:12:54Z</time>
      </trkpt>
      <trkpt lat="47.2597" lon="-1.59471">
        <ele>18.1</ele>
        <time>2020-06-07T09:12:55Z</time>
      </trkpt>
      <trkpt lat="47.25971" lon="-1.59473">
        <ele>18.1</ele>
        <time>2020-06-07T09:12:56Z</time>
      </trkpt>
      <trkpt lat="47.25971" lon="-1.59474">
        <ele>18</ele>
        <time>2020-06-07T09:12:57Z</time>
      </trkpt>
      <trkpt lat="47.25972" lon="-1.59475">
        <ele>18</ele>
        <time>2020-06-07T09:12:58Z</time>
      </trkpt>
      <trkpt lat="47.25972" lon="-1.59477">
        <ele>18</ele>
        <time>2020-06-07T09:12:59Z</time>
      </trkpt>
      <trkpt lat="47.25972" lon="-1.59478">
        <ele>18</ele>
        <time>2020-06-07T09:13:00Z</time>
      </trkpt>
      <trkpt lat="47.25973" lon="-1.5948">
        <ele>18</ele>
        <time>2020-06-07T09:13:01Z</time>
      </trkpt>
      <trkpt lat="47.25973" lon="-1.59481">
        <ele>18</ele>
        <time>2020-06-07T09:13:02Z</time>
      </trkpt>
      <trkpt lat="47.25973" lon="-1.59482">
        <ele>17.9</ele>
        <time>2020-06-07T09:13:03Z</time>
      </trkpt>
      <trkpt lat="47.25974" lon="-1.59484">
        <ele>17.9</ele>
        <time>2020-06-07T09:13:04Z</time>
      </trkpt>
      <trkpt lat="47.25974" lon="-1.59485">
        <ele>17.9</ele>
        <time>2020-06-07T09:13:05Z</time>
      </trkpt>
      <trkpt lat="47.25974" lon="-1.59487">
        <ele>17.9</ele>
        <time>2020-06-07T09:13:06Z</time>
      </trkpt>
      <trkpt lat="47.25975" lon="-1.59488">
        <ele>17.9</ele>
        <time>2020-06-07T09:13:07Z</time>
      </trkpt>
      <trkpt lat="47.25975" lon="-1.5949">
        <ele>17.9</ele>
        <time>2020-06-07T09:13:08Z</time>
      </trkpt>
      <trkpt lat="47.25975" lon="-1.59492">
        <ele>17.9</ele>
        <time>2020-06-07T09:13:09Z</time>
      </trkpt>
      <trkpt lat="47.25976" lon="-1.59493">
        <ele>17.9</ele>
        <time>2020-06-07T09:13:10Z</time>
      </trkpt>
      <trkpt lat="47.25976" lon="-1.59495">
        <ele>17.8</ele>
        <time>2020-06-07T09:13:11Z</time>
      </trkpt>
      <trkpt lat="47.25977" lon="-1.59496">
        <ele>17.8</ele>
        <time>2020-06-07T09:13:12Z</time>
      </trkpt>
      <trkpt lat="47.25977" lon="-1.59498">
        <ele>17.8</ele>
        <time>2020-06-07T09:13:13Z</time>
      </trkpt>
      <trkpt lat="47.25977" lon="-1.59499">
        <ele>17.8</ele>
        <time>2020-06-07T09:13:14Z</time>
      </trkpt>
      <trkpt lat="47.25978" lon="-1.59501">
        <ele>17.8</ele>
        <time>2020-06-07T09:13:15Z</time>
      </trkpt>
      <trkpt lat="47.25978" lon="-1.59503">
        <ele>17.8</ele>
        <time>2020-06-07T09:13:16Z</time>
      </trkpt>
      <trkpt lat="47.25978" lon="-1.59504">
        <ele>17.8</ele>
        <time>2020-06-07T09:13:17Z</time>
      </trkpt>
      <trkpt lat="47.25979" lon="-1.59506">
        <ele>17.8</ele>
        <time>2020-06-07T09:13:18Z</time>
      </trkpt>
      <trkpt lat="47.25979" lon="-1.59507">
        <ele>17.8</ele>
        <time>2020-06-07T09:13:19Z</time>
      </trkpt>
      <trkpt lat="47.25979" lon="-1.59509">
        <ele>17.8</ele>
        <time>2020-06-07T09:13:20Z</time>
      </trkpt>
      <trkpt lat="47.25979" lon="-1.59511">
        <ele>17.8</ele>
        <time>2020-06-07T09:13:21Z</time>
      </trkpt>
      <trkpt lat="47.25979" lon="-1.59512">
        <ele>17.8</ele>
        <time>2020-06-07T09:13:22Z</time>
      </trkpt>
      <trkpt lat="47.2598" lon="-1.59514">
        <ele>17.9</ele>
        <time>2020-06-07T09:13:23Z</time>
      </trkpt>
      <trkpt lat="47.25979" lon="-1.59515">
        <ele>17.9</ele>
        <time>2020-06-07T09:13:24Z</time>
      </trkpt>
      <trkpt lat="47.25979" lon="-1.59517">
        <ele>17.9</ele>
        <time>2020-06-07T09:13:25Z</time>
      </trkpt>
      <trkpt lat="47.25979" lon="-1.59518">
        <ele>17.9</ele>
        <time>2020-06-07T09:13:26Z</time>
      </trkpt>
      <trkpt lat="47.25979" lon="-1.5952">
        <ele>17.9</ele>
        <time>2020-06-07T09:13:27Z</time>
      </trkpt>
      <trkpt lat="47.25979" lon="-1.59521">
        <ele>18</ele>
        <time>2020-06-07T09:13:28Z</time>
      </trkpt>
      <trkpt lat="47.25978" lon="-1.59522">
        <ele>18</ele>
        <time>2020-06-07T09:13:29Z</time>
      </trkpt>
      <trkpt lat="47.25978" lon="-1.59524">
        <ele>18</ele>
        <time>2020-06-07T09:13:30Z</time>
      </trkpt>
      <trkpt lat="47.25977" lon="-1.59525">
        <ele>18.1</ele>
        <time>2020-06-07T09:13:31Z</time>
      </trkpt>
      <trkpt lat="47.25977" lon="-1.59526">
        <ele>18.1</ele>
        <time>2020-06-07T09:13:32Z</time>
      </trkpt>
      <trkpt lat="47.25976" lon="-1.59528">
        <ele>18.1</ele>
        <time>2020-06-07T09:13:33Z</time>
      </trkpt>
      <trkpt lat="47.25976" lon="-1.59529">
        <ele>18.2</ele>
        <time>2020-06-07T09:13:34Z</time>
      </trkpt>
      <trkpt lat="47.25976" lon="-1.59531">
        <ele>18.2</ele>
        <time>2020-06-07T09:13:35Z</time>
      </trkpt>
      <trkpt lat="47.25975" lon="-1.59532">
        <ele>18.2</ele>
        <time>2020-06-07T09:13:36Z</time>
      </trkpt>
      <trkpt lat="47.25975" lon="-1.59534">
        <ele>18.3</ele>
        <time>2020-06-07T09:13:37Z</time>
      </trkpt>
      <trkpt lat="47.25975" lon="-1.59535">
        <ele>18.3</ele>
        <time>2020-06-07T09:13:38Z</time>
      </trkpt>
      <trkpt lat="47.25974" lon="-1.59537">
        <ele>18.3</ele>
        <time>2020-06-07T09:13:39Z</time>
      </trkpt>
      <trkpt lat="47.25974" lon="-1.59538">
        <ele>18.4</ele>
        <time>2020-06-07T09:13:40Z</time>
      </trkpt>
      <trkpt lat="47.25974" lon="-1.5954">
        <ele>18.4</ele>
        <time>2020-06-07T09:13:41Z</time>
      </trkpt>
      <trkpt lat="47.25974" lon="-1.59541">
        <ele>18.4</ele>
        <time>2020-06-07T09:13:42Z</time>
      </trkpt>
      <trkpt lat="47.25974" lon="-1.59543">
        <ele>18.4</ele>
        <time>2020-06-07T09:13:43Z</time>
      </trkpt>
      <trkpt lat="47.25974" lon="-1.59544">
        <ele>18.5</ele>
        <time>2020-06-07T09:13:44Z</time>
      </trkpt>
      <trkpt lat="47.25974" lon="-1.59546">
        <ele>18.5</ele>
        <time>2020-06-07T09:13:45Z</time>
      </trkpt>
      <trkpt lat="47.25974" lon="-1.59548">
        <ele>18.5</ele>
        <time>2020-06-07T09:13:46Z</time>
      </trkpt>
      <trkpt lat="47.25974" lon="-1.59549">
        <ele>18.5</ele>
        <time>2020-06-07T09:13:47Z</time>
      </trkpt>
      <trkpt lat="47.25974" lon="-1.59551">
        <ele>18.5</ele>
        <time>2020-06-07T09:13:48Z</time>
      </trkpt>
      <trkpt lat="47.25974" lon="-1.59553">
        <ele>18.5</ele>
        <time>2020-06-07T09:13:49Z</time>
      </trkpt>
      <trkpt lat="47.25974" lon="-1.59554">
        <ele>18.5</ele>
        <time>2020-06-07T09:13:50Z</time>
      </trkpt>
      <trkpt lat="47.25975" lon="-1.59556">
        <ele>18.5</ele>
        <time>2020-06-07T09:13:51Z</time>
      </trkpt>
      <trkpt lat="47.25975" lon="-1.59557">
        <ele>18.5</ele>
        <time>2020-06-07T09:13:52Z</time>
      </trkpt>
      <trkpt lat="47.25975" lon="-1.59559">
        <ele>18.5</ele>
        <time>2020-06-07T09:13:53Z</time>
      </trkpt>
      <trkpt lat="47.25976" lon="-1.5956">
        <ele>18.5</ele>
        <time>2020-06-07T09:13:54Z</time>
      </trkpt>
      <trkpt lat="47.25976" lon="-1.59562">
        <ele>18.5</ele>
        <time>2020-06-07T09:13:55Z</time>
      </trkpt>
      <trkpt lat="47.25976" lon="-1.59563">
        <ele>18.5</ele>
        <time>2020-06-07T09:13:56Z</time>
      </trkpt>
      <trkpt lat="47.25977" lon="-1.59565">
        <ele>18.5</ele>
        <time>2020-06-07T09:13:57Z</time>
      </trkpt>
      <trkpt lat="47.25977" lon="-1.59566">
        <ele>18.5</ele>
        <time>2020-06-07T09:13:58Z</time>
      </trkpt>
      <trkpt lat="47.25978" lon="-1.59568">
        <ele>18.4</ele>
        <time>2020-06-07T09:13:59Z</time>
      </trkpt>
      <trkpt lat="47.25978" lon="-1.59569">
        <ele>18.4</ele>
        <time>2020-06-07T09:14:00Z</time>
      </trkpt>
      <trkpt lat="47.25979" lon="-1.59571">
        <ele>18.4</ele>
        <time>2020-06-07T09:14:01Z</time>
      </trkpt>
      <trkpt lat="47.2598" lon="-1.59572">
        <ele>18.4</ele>
        <time>2020-06-07T09:14:02Z</time>
      </trkpt>
      <trkpt lat="47.2598" lon="-1.59574">
        <ele>18.4</ele>
        <time>2020-06-07T09:14:03Z</time>
      </trkpt>
      <trkpt lat="47.25981" lon="-1.59575">
        <ele>18.3</ele>
        <time>2020-06-07T09:14:04Z</time>
      </trkpt>
      <trkpt lat="47.25981" lon="-1.59577">
        <ele>18.3</ele>
        <time>2020-06-07T09:14:05Z</time>
      </trkpt>
      <trkpt lat="47.25982" lon="-1.59579">
        <ele>18.3</ele>
        <time>2020-06-07T09:14:06Z</time>
      </trkpt>
      <trkpt lat="47.25983" lon="-1.5958">
        <ele>18.2</ele>
        <time>2020-06-07T09:14:07Z</time>
      </trkpt>
      <trkpt lat="47.25983" lon="-1.59582">
        <ele>18.2</ele>
        <time>2020-06-07T09:14:08Z</time>
      </trkpt>
      <trkpt lat="47.25984" lon="-1.59583">
        <ele>18.2</ele>
        <time>2020-06-07T09:14:09Z</time>
      </trkpt>
      <trkpt lat="47.25984" lon="-1.59585">
        <ele>18.2</ele>
        <time>2020-06-07T09:14:10Z</time>
      </trkpt>
      <trkpt lat="47.25985" lon="-1.59586">
        <ele>18.1</ele>
        <time>2020-06-07T09:14:11Z</time>
      </trkpt>
      <trkpt lat="47.25985" lon="-1.59588">
        <ele>18.1</ele>
        <time>2020-06-07T09:14:12Z</time>
      </trkpt>
      <trkpt lat="47.25986" lon="-1.5959">
        <ele>18.1</ele>
        <time>2020-06-07T09:14:13Z</time>
      </trkpt>
      <trkpt lat="47.25986" lon="-1.59591">
        <ele>18.1</ele>
        <time>2020-06-07T09:14:14Z</time>
      </trkpt>
      <trkpt lat="47.25987" lon="-1.59593">
        <ele>18.1</ele>
        <time>2020-06-07T09:14:15Z</time>
      </trkpt>
      <trkpt lat="47.25988" lon="-1.59594">
        <ele>18.1</ele>
        <time>2020-06-07T09:14:16Z</time>
      </trkpt>
      <trkpt lat="47.25988" lon="-1.59596">
        <ele>18</ele>
        <time>2020-06-07T09:14:17Z</time>
      </trkpt>
      <trkpt lat="47.25989" lon="-1.59598">
        <ele>18</ele>
        <time>2020-06-07T09:14:18Z</time>
      </trkpt>
      <trkpt lat="47.25989" lon="-1.59599">
        <ele>18</ele>
        <time>2020-06-07T09:14:19Z</time>
      </trkpt>
      <trkpt lat="47.2599" lon="-1.59601">
        <ele>18</ele>
        <time>2020-06-07T09:14:20Z</time>
      </trkpt>
      <trkpt lat="47.2599" lon="-1.59603">
        <ele>18</ele>
        <time>2020-06-07T09:14:21Z</time>
      </trkpt>
      <trkpt lat="47.2599" lon="-1.59604">
        <ele>17.9</ele>
        <time>2020-06-07T09:14:22Z</time>
      </trkpt>
      <trkpt lat="47.25991" lon="-1.59606">
        <ele>17.9</ele>
        <time>2020-06-07T09:14:23Z</time>
      </trkpt>
      <trkpt lat="47.25991" lon="-1.59608">
        <ele>17.9</ele>
        <time>2020-06-07T09:14:24Z</time>
      </trkpt>
      <trkpt lat="47.25992" lon="-1.59609">
        <ele>17.8</ele>
        <time>2020-06-07T09:14:25Z</time>
      </trkpt>
      <trkpt lat="47.25992" lon="-1.59611">
        <ele>17.8</ele>
        <time>2020-06-07T09:14:26Z</time>
      </trkpt>
      <trkpt lat="47.25993" lon="-1.59612">
        <ele>17.8</ele>
        <time>2020-06-07T09:14:27Z</time>
      </trkpt>
      <trkpt lat="47.25993" lon="-1.59614">
        <ele>17.7</ele>
        <time>2020-06-07T09:14:28Z</time>
      </trkpt>
      <trkpt lat="47.25994" lon="-1.59615">
        <ele>17.7</ele>
        <time>2020-06-07T09:14:29Z</time>
      </trkpt>
      <trkpt lat="47.25994" lon="-1.59617">
        <ele>17.7</ele>
        <time>2020-06-07T09:14:30Z</time>
      </trkpt>
      <trkpt lat="47.25995" lon="-1.59618">
        <ele>17.6</ele>
        <time>2020-06-07T09:14:31Z</time>
      </trkpt>
      <trkpt lat="47.25995" lon="-1.59619">
        <ele>17.6</ele>
        <time>2020-06-07T09:14:32Z</time>
      </trkpt>
      <trkpt lat="47.25995" lon="-1.59621">
        <ele>17.5</ele>
        <time>2020-06-07T09:14:33Z</time>
      </trkpt>
      <trkpt lat="47.25996" lon="-1.59622">
        <ele>17.5</ele>
        <time>2020-06-07T09:14:34Z</time>
      </trkpt>
      <trkpt lat="47.25996" lon="-1.59623">
        <ele>17.4</ele>
        <time>2020-06-07T09:14:35Z</time>
      </trkpt>
      <trkpt lat="47.25997" lon="-1.59624">
        <ele>17.4</ele>
        <time>2020-06-07T09:14:36Z</time>
      </trkpt>
      <trkpt lat="47.25997" lon="-1.59625">
        <ele>17.3</ele>
        <time>2020-06-07T09:14:37Z</time>
      </trkpt>
      <trkpt lat="47.25998" lon="-1.59626">
        <ele>17.3</ele>
        <time>2020-06-07T09:14:38Z</time>
      </trkpt>
      <trkpt lat="47.25998" lon="-1.59626">
        <ele>17.3</ele>
        <time>2020-06-07T09:14:39Z</time>
      </trkpt>
      <trkpt lat="47.25998" lon="-1.59627">
        <ele>17.2</ele>
        <time>2020-06-07T09:14:40Z</time>
      </trkpt>
      <trkpt lat="47.25999" lon="-1.59627">
        <ele>17.2</ele>
        <time>2020-06-07T09:14:41Z</time>
      </trkpt>
      <trkpt lat="47.25999" lon="-1.59628">
        <ele>17.1</ele>
        <time>2020-06-07T09:14:42Z</time>
      </trkpt>
      <trkpt lat="47.25999" lon="-1.59628">
        <ele>17.1</ele>
        <time>2020-06-07T09:14:43Z</time>
      </trkpt>
      <trkpt lat="47.25999" lon="-1.59628">
        <ele>17.1</ele>
        <time>2020-06-07T09:14:44Z</time>
      </trkpt>
      <trkpt lat="47.26" lon="-1.59629">
        <ele>17.1</ele>
        <time>2020-06-07T09:14:45Z</time>
      </trkpt>
      <trkpt lat="47.26" lon="-1.59629">
        <ele>17</ele>
        <time>2020-06-07T09:14:46Z</time>
      </trkpt>
      <trkpt lat="47.26" lon="-1.59629">
        <ele>17</ele>
        <time>2020-06-07T09:14:47Z</time>
      </trkpt>
      <trkpt lat="47.26" lon="-1.59629">
        <ele>17</ele>
        <time>2020-06-07T09:14:48Z</time>
      </trkpt>
      <trkpt lat="47.26" lon="-1.59629">
        <ele>17</ele>
        <time>2020-06-07T09:14:49Z</time>
      </trkpt>
      <trkpt lat="47.26" lon="-1.59629">
        <ele>17</ele>
        <time>2020-06-07T09:14:50Z</time>
      </trkpt>
      <trkpt lat="47.26" lon="-1.59629">
        <ele>17</ele>
        <time>2020-06-07T09:14:51Z</time>
      </trkpt>
      <trkpt lat="47.26" lon="-1.59629">
        <ele>17</ele>
        <time>2020-06-07T09:14:52Z</time>
      </trkpt>
      <trkpt lat="47.26" lon="-1.59629">
        <ele>17</ele>
        <time>2020-06-07T09:14:53Z</time>
      </trkpt>
      <trkpt lat="47.26" lon="-1.59629">
        <ele>17.1</ele>
        <time>2020-06-07T09:14:54Z</time>
      </trkpt>
      <trkpt lat="47.26" lon="-1.59629">
        <ele>17.1</ele>
        <time>2020-06-07T09:14:55Z</time>
      </trkpt>
      <trkpt lat="47.26" lon="-1.59629">
        <ele>17.1</ele>
        <time>2020-06-07T09:14:56Z</time>
      </trkpt>
      <trkpt lat="47.26" lon="-1.59629">
        <ele>17.1</ele>
        <time>2020-06-07T09:14:57Z</time>
      </trkpt>
      <trkpt lat="47.26" lon="-1.59629">
        <ele>17.1</ele>
        <time>2020-06-07T09:14:58Z</time>
      </trkpt>
      <trkpt lat="47.26" lon="-1.59629">
        <ele>17.1</ele>
        <time>2020-06-07T09:14:59Z</time>
      </trkpt>
      <trkpt lat="47.26" lon="-1.59629">
        <ele>17.1</ele>
        <time>2020-06-07T09:15:00Z</time>
      </trkpt>
      <trkpt lat="47.26" lon="-1.59629">
        <ele>17.1</ele>
        <time>2020-06-07T09:15:01Z</time>
      </trkpt>
      <trkpt lat="47.25999" lon="-1.59629">
        <ele>17.1</ele>
        <time>2020-06-07T09:15:02Z</time>
      </trkpt>
      <trkpt lat="47.25999" lon="-1.59629">
        <ele>17.1</ele>
        <time>2020-06-07T09:15:03Z</time>
      </trkpt>
      <trkpt lat="47.25999" lon="-1.59629">
        <ele>17.1</ele>
        <time>2020-06-07T09:15:04Z</time>
      </trkpt>
      <trkpt lat="47.25999" lon="-1.59629">
        <ele>17.1</ele>
        <time>2020-06-07T09:15:05Z</time>
      </trkpt>
      <trkpt lat="47.25999" lon="-1.59629">
        <ele>17.1</ele>
        <time>2020-06-07T09:15:06Z</time>
      </trkpt>
      <trkpt lat="47.25999" lon="-1.59629">
        <ele>17.1</ele>
        <time>2020-06-07T09:15:07Z</time>
      </trkpt>
      <trkpt lat="47.25999" lon="-1.59629">
        <ele>17.1</ele>
        <time>2020-06-07T09:15:08Z</time>
      </trkpt>
      <trkpt lat="47.25999" lon="-1.59629">
        <ele>17.1</ele>
        <time>2020-06-07T09:15:09Z</time>
      </trkpt>
      <trkpt lat="47.25999" lon="-1.59629">
        <ele>17.1</ele>
        <time>2020-06-07T09:15:10Z</time>
      </trkpt>
      <trkpt lat="47.25999" lon="-1.59629">
        <ele>17.1</ele>
        <time>2020-06-07T09:15:11Z</time>
      </trkpt>
      <trkpt lat="47.25999" lon="-1.59629">
        <ele>17.1</ele>
        <time>2020-06-07T09:15:12Z</time>
      </trkpt>
      <trkpt lat="47.25999" lon="-1.59629">
        <ele>17.1</ele>
        <time>2020-06-07T09:15:13Z</time>
      </trkpt>
      <trkpt lat="47.25999" lon="-1.59628">
        <ele>17.2</ele>
        <time>2020-06-07T09:15:14Z</time>
      </trkpt>
      <trkpt lat="47.25998" lon="-1.59628">
        <ele>17.3</ele>
        <time>2020-06-07T09:15:15Z</time>
      </trkpt>
      <trkpt lat="47.25997" lon="-1.59627">
        <ele>17.4</ele>
        <time>2020-06-07T09:15:16Z</time>
      </trkpt>
      <trkpt lat="47.25996" lon="-1.59626">
        <ele>17.5</ele>
        <time>2020-06-07T09:15:17Z</time>
      </trkpt>
      <trkpt lat="47.25996" lon="-1.59626">
        <ele>17.5</ele>
        <time>2020-06-07T09:15:18Z</time>
      </trkpt>
      <trkpt lat="47.25996" lon="-1.59625">
        <ele>17.5</ele>
        <time>2020-06-07T09:15:19Z</time>
      </trkpt>
      <trkpt lat="47.25995" lon="-1.59625">
        <ele>17.6</ele>
        <time>2020-06-07T09:15:20Z</time>
      </trkpt>
      <trkpt lat="47.25995" lon="-1.59625">
        <ele>17.6</ele>
        <time>2020-06-07T09:15:21Z</time>
      </trkpt>
      <trkpt lat="47.25995" lon="-1.59625">
        <ele>17.6</ele>
        <time>2020-06-07T09:15:22Z</time>
      </trkpt>
      <trkpt lat="47.25995" lon="-1.59625">
        <ele>17.6</ele>
        <time>2020-06-07T09:15:23Z</time>
      </trkpt>
      <trkpt lat="47.25995" lon="-1.59625">
        <ele>17.6</ele>
        <time>2020-06-07T09:15:24Z</time>
      </trkpt>
      <trkpt lat="47.25995" lon="-1.59624">
        <ele>17.6</ele>
        <time>2020-06-07T09:15:25Z</time>
      </trkpt>
      <trkpt lat="47.25995" lon="-1.59624">
        <ele>17.6</ele>
        <time>2020-06-07T09:15:26Z</time>
      </trkpt>
      <trkpt lat="47.25995" lon="-1.59624">
        <ele>17.6</ele>
        <time>2020-06-07T09:15:27Z</time>
      </trkpt>
      <trkpt lat="47.25995" lon="-1.59624">
        <ele>17.6</ele>
        <time>2020-06-07T09:15:28Z</time>
      </trkpt>
      <trkpt lat="47.25995" lon="-1.59624">
        <ele>17.6</ele>
        <time>2020-06-07T09:15:29Z</time>
      </trkpt>
      <trkpt lat="47.25995" lon="-1.59624">
        <ele>17.6</ele>
        <time>2020-06-07T09:15:30Z</time>
      </trkpt>
      <trkpt lat="47.25995" lon="-1.59624">
        <ele>17.6</ele>
        <time>2020-06-07T09:15:31Z</time>
      </trkpt>
      <trkpt lat="47.25995" lon="-1.59624">
        <ele>17.6</ele>
        <time>2020-06-07T09:15:32Z</time>
      </trkpt>
      <trkpt lat="47.25995" lon="-1.59624">
        <ele>17.6</ele>
        <time>2020-06-07T09:15:33Z</time>
      </trkpt>
      <trkpt lat="47.25995" lon="-1.59624">
        <ele>17.6</ele>
        <time>2020-06-07T09:15:34Z</time>
      </trkpt>
      <trkpt lat="47.25995" lon="-1.59624">
        <ele>17.6</ele>
        <time>2020-06-07T09:15:35Z</time>
      </trkpt>
      <trkpt lat="47.25995" lon="-1.59624">
        <ele>17.6</ele>
        <time>2020-06-07T09:15:36Z</time>
      </trkpt>
      <trkpt lat="47.25995" lon="-1.59624">
        <ele>17.6</ele>
        <time>2020-06-07T09:15:37Z</time>
      </trkpt>
      <trkpt lat="47.25995" lon="-1.59624">
        <ele>17.6</ele>
        <time>2020-06-07T09:15:38Z</time>
      </trkpt>
      <trkpt lat="47.25995" lon="-1.59624">
        <ele>17.6</ele>
        <time>2020-06-07T09:15:39Z</time>
      </trkpt>
      <trkpt lat="47.25995" lon="-1.59624">
        <ele>17.6</ele>
        <time>2020-06-07T09:15:40Z</time>
      </trkpt>
      <trkpt lat="47.25995" lon="-1.59624">
        <ele>17.6</ele>
        <time>2020-06-07T09:15:41Z</time>
      </trkpt>
      <trkpt lat="47.25995" lon="-1.59624">
        <ele>17.6</ele>
        <time>2020-06-07T09:15:42Z</time>
      </trkpt>
      <trkpt lat="47.25995" lon="-1.59624">
        <ele>17.6</ele>
        <time>2020-06-07T09:15:43Z</time>
      </trkpt>
      <trkpt lat="47.25995" lon="-1.59624">
        <ele>17.6</ele>
        <time>2020-06-07T09:15:44Z</time>
      </trkpt>
      <trkpt lat="47.25995" lon="-1.59624">
        <ele>17.6</ele>
        <time>2020-06-07T09:15:45Z</time>
      </trkpt>
      <trkpt lat="47.25995" lon="-1.59624">
        <ele>17.6</ele>
        <time>2020-06-07T09:15:46Z</time>
      </trkpt>
      <trkpt lat="47.25995" lon="-1.59624">
        <ele>17.6</ele>
        <time>2020-06-07T09:15:47Z</time>
      </trkpt>
      <trkpt lat="47.25995" lon="-1.59624">
        <ele>17.6</ele>
        <time>2020-06-07T09:15:48Z</time>
      </trkpt>
      <trkpt lat="47.25995" lon="-1.59624">
        <ele>17.6</ele>
        <time>2020-06-07T09:15:49Z</time>
      </trkpt>
      <trkpt lat="47.25995" lon="-1.59624">
        <ele>17.6</ele>
        <time>2020-06-07T09:15:50Z</time>
      </trkpt>
      <trkpt lat="47.25995" lon="-1.59624">
        <ele>17.6</ele>
        <time>2020-06-07T09:15:51Z</time>
      </trkpt>
      <trkpt lat="47.25995" lon="-1.59624">
        <ele>17.6</ele>
        <time>2020-06-07T09:15:52Z</time>
      </trkpt>
      <trkpt lat="47.25995" lon="-1.59624">
        <ele>17.6</ele>
        <time>2020-06-07T09:15:53Z</time>
      </trkpt>
      <trkpt lat="47.25995" lon="-1.59624">
        <ele>17.6</ele>
        <time>2020-06-07T09:15:54Z</time>
      </trkpt>
      <trkpt lat="47.25995" lon="-1.59624">
        <ele>17.6</ele>
        <time>2020-06-07T09:15:55Z</time>
      </trkpt>
      <trkpt lat="47.25995" lon="-1.59624">
        <ele>17.6</ele>
        <time>2020-06-07T09:15:56Z</time>
      </trkpt>
      <trkpt lat="47.25995" lon="-1.59624">
        <ele>17.6</ele>
        <time>2020-06-07T09:15:57Z</time>
      </trkpt>
      <trkpt lat="47.25995" lon="-1.59624">
        <ele>17.6</ele>
        <time>2020-06-07T09:15:58Z</time>
      </trkpt>
      <trkpt lat="47.25995" lon="-1.59624">
        <ele>17.6</ele>
        <time>2020-06-07T09:15:59Z</time>
      </trkpt>
      <trkpt lat="47.25995" lon="-1.59624">
        <ele>17.6</ele>
        <time>2020-06-07T09:16:00Z</time>
      </trkpt>
      <trkpt lat="47.25995" lon="-1.59624">
        <ele>17.6</ele>
        <time>2020-06-07T09:16:01Z</time>
      </trkpt>
      <trkpt lat="47.25995" lon="-1.59624">
        <ele>17.6</ele>
        <time>2020-06-07T09:16:02Z</time>
      </trkpt>
      <trkpt lat="47.25995" lon="-1.59624">
        <ele>17.6</ele>
        <time>2020-06-07T09:16:03Z</time>
      </trkpt>
      <trkpt lat="47.25995" lon="-1.59624">
        <ele>17.6</ele>
        <time>2020-06-07T09:16:04Z</time>
      </trkpt>
      <trkpt lat="47.25995" lon="-1.59624">
        <ele>17.6</ele>
        <time>2020-06-07T09:16:05Z</time>
      </trkpt>
      <trkpt lat="47.25995" lon="-1.59624">
        <ele>17.6</ele>
        <time>2020-06-07T09:16:06Z</time>
      </trkpt>
      <trkpt lat="47.25995" lon="-1.59624">
        <ele>17.6</ele>
        <time>2020-06-07T09:16:07Z</time>
      </trkpt>
      <trkpt lat="47.25995" lon="-1.59624">
        <ele>17.6</ele>
        <time>2020-06-07T09:16:08Z</time>
      </trkpt>
      <trkpt lat="47.25995" lon="-1.59624">
        <ele>17.6</ele>
        <time>2020-06-07T09:16:09Z</time>
      </trkpt>
      <trkpt lat="47.25995" lon="-1.59624">
        <ele>17.6</ele>
        <time>2020-06-07T09:16:10Z</time>
      </trkpt>
      <trkpt lat="47.25995" lon="-1.59624">
        <ele>17.6</ele>
        <time>2020-06-07T09:16:11Z</time>
      </trkpt>
      <trkpt lat="47.25995" lon="-1.59624">
        <ele>17.6</ele>
        <time>2020-06-07T09:16:12Z</time>
      </trkpt>
      <trkpt lat="47.25995" lon="-1.59624">
        <ele>17.6</ele>
        <time>2020-06-07T09:16:13Z</time>
      </trkpt>
      <trkpt lat="47.25995" lon="-1.59624">
        <ele>17.6</ele>
        <time>2020-06-07T09:16:14Z</time>
      </trkpt>
      <trkpt lat="47.25995" lon="-1.59624">
        <ele>17.6</ele>
        <time>2020-06-07T09:16:15Z</time>
      </trkpt>
      <trkpt lat="47.25995" lon="-1.59624">
        <ele>17.6</ele>
        <time>2020-06-07T09:16:16Z</time>
      </trkpt>
      <trkpt lat="47.25995" lon="-1.59624">
        <ele>17.6</ele>
        <time>2020-06-07T09:16:17Z</time>
      </trkpt>
      <trkpt lat="47.25995" lon="-1.59624">
        <ele>17.6</ele>
        <time>2020-06-07T09:16:18Z</time>
      </trkpt>
      <trkpt lat="47.25995" lon="-1.59624">
        <ele>17.6</ele>
        <time>2020-06-07T09:16:19Z</time>
      </trkpt>
      <trkpt lat="47.25995" lon="-1.59624">
        <ele>17.6</ele>
        <time>2020-06-07T09:16:20Z</time>
      </trkpt>
      <trkpt lat="47.25995" lon="-1.59624">
        <ele>17.6</ele>
        <time>2020-06-07T09:16:21Z</time>
      </trkpt>
      <trkpt lat="47.25995" lon="-1.59624">
        <ele>17.6</ele>
        <time>2020-06-07T09:16:22Z</time>
      </trkpt>
      <trkpt lat="47.25995" lon="-1.59624">
        <ele>17.6</ele>
        <time>2020-06-07T09:16:23Z</time>
      </trkpt>
      <trkpt lat="47.25995" lon="-1.59624">
        <ele>17.6</ele>
        <time>2020-06-07T09:16:24Z</time>
      </trkpt>
      <trkpt lat="47.25995" lon="-1.59624">
        <ele>17.6</ele>
        <time>2020-06-07T09:16:25Z</time>
      </trkpt>
      <trkpt lat="47.25995" lon="-1.59624">
        <ele>17.6</ele>
        <time>2020-06-07T09:16:26Z</time>
      </trkpt>
      <trkpt lat="47.25995" lon="-1.59625">
        <ele>17.6</ele>
        <time>2020-06-07T09:16:27Z</time>
      </trkpt>
      <trkpt lat="47.25995" lon="-1.59625">
        <ele>17.6</ele>
        <time>2020-06-07T09:16:28Z</time>
      </trkpt>
      <trkpt lat="47.25995" lon="-1.59625">
        <ele>17.6</ele>
        <time>2020-06-07T09:16:29Z</time>
      </trkpt>
      <trkpt lat="47.25995" lon="-1.59625">
        <ele>17.6</ele>
        <time>2020-06-07T09:16:30Z</time>
      </trkpt>
      <trkpt lat="47.25995" lon="-1.59625">
        <ele>17.6</ele>
        <time>2020-06-07T09:16:31Z</time>
      </trkpt>
      <trkpt lat="47.25995" lon="-1.59625">
        <ele>17.6</ele>
        <time>2020-06-07T09:16:32Z</time>
      </trkpt>
      <trkpt lat="47.25995" lon="-1.59625">
        <ele>17.7</ele>
        <time>2020-06-07T09:16:33Z</time>
      </trkpt>
      <trkpt lat="47.25995" lon="-1.59625">
        <ele>17.7</ele>
        <time>2020-06-07T09:16:34Z</time>
      </trkpt>
      <trkpt lat="47.25994" lon="-1.59625">
        <ele>17.7</ele>
        <time>2020-06-07T09:16:35Z</time>
      </trkpt>
      <trkpt lat="47.25994" lon="-1.59625">
        <ele>17.7</ele>
        <time>2020-06-07T09:16:36Z</time>
      </trkpt>
      <trkpt lat="47.25994" lon="-1.59625">
        <ele>17.7</ele>
        <time>2020-06-07T09:16:37Z</time>
      </trkpt>
      <trkpt lat="47.25994" lon="-1.59625">
        <ele>17.7</ele>
        <time>2020-06-07T09:16:38Z</time>
      </trkpt>
      <trkpt lat="47.25994" lon="-1.59625">
        <ele>17.7</ele>
        <time>2020-06-07T09:16:39Z</time>
      </trkpt>
      <trkpt lat="47.25994" lon="-1.59625">
        <ele>17.7</ele>
        <time>2020-06-07T09:16:40Z</time>
      </trkpt>
      <trkpt lat="47.25994" lon="-1.59625">
        <ele>17.7</ele>
        <time>2020-06-07T09:16:41Z</time>
      </trkpt>
      <trkpt lat="47.25994" lon="-1.59625">
        <ele>17.7</ele>
        <time>2020-06-07T09:16:42Z</time>
      </trkpt>
      <trkpt lat="47.25994" lon="-1.59625">
        <ele>17.7</ele>
        <time>2020-06-07T09:16:43Z</time>
      </trkpt>
      <trkpt lat="47.25994" lon="-1.59625">
        <ele>17.7</ele>
        <time>2020-06-07T09:16:44Z</time>
      </trkpt>
      <trkpt lat="47.25994" lon="-1.59625">
        <ele>17.7</ele>
        <time>2020-06-07T09:16:45Z</time>
      </trkpt>
      <trkpt lat="47.25994" lon="-1.59625">
        <ele>17.7</ele>
        <time>2020-06-07T09:16:46Z</time>
      </trkpt>
      <trkpt lat="47.25994" lon="-1.59625">
        <ele>17.7</ele>
        <time>2020-06-07T09:16:47Z</time>
      </trkpt>
      <trkpt lat="47.25994" lon="-1.59625">
        <ele>17.7</ele>
        <time>2020-06-07T09:16:48Z</time>
      </trkpt>
      <trkpt lat="47.25994" lon="-1.59625">
        <ele>17.7</ele>
        <time>2020-06-07T09:16:49Z</time>
      </trkpt>
      <trkpt lat="47.25994" lon="-1.59625">
        <ele>17.7</ele>
        <time>2020-06-07T09:16:50Z</time>
      </trkpt>
      <trkpt lat="47.25994" lon="-1.59625">
        <ele>17.8</ele>
        <time>2020-06-07T09:16:51Z</time>
      </trkpt>
      <trkpt lat="47.25994" lon="-1.59625">
        <ele>17.8</ele>
        <time>2020-06-07T09:16:52Z</time>
      </trkpt>
      <trkpt lat="47.25994" lon="-1.59625">
        <ele>17.8</ele>
        <time>2020-06-07T09:16:53Z</time>
      </trkpt>
      <trkpt lat="47.25994" lon="-1.59625">
        <ele>17.8</ele>
        <time>2020-06-07T09:16:54Z</time>
      </trkpt>
      <trkpt lat="47.25994" lon="-1.59625">
        <ele>17.8</ele>
        <time>2020-06-07T09:16:55Z</time>
      </trkpt>
      <trkpt lat="47.25994" lon="-1.59625">
        <ele>17.8</ele>
        <time>2020-06-07T09:16:56Z</time>
      </trkpt>
      <trkpt lat="47.25994" lon="-1.59625">
        <ele>17.8</ele>
        <time>2020-06-07T09:16:57Z</time>
      </trkpt>
      <trkpt lat="47.25994" lon="-1.59625">
        <ele>17.8</ele>
        <time>2020-06-07T09:16:58Z</time>
      </trkpt>
      <trkpt lat="47.25994" lon="-1.59625">
        <ele>17.8</ele>
        <time>2020-06-07T09:16:59Z</time>
      </trkpt>
      <trkpt lat="47.25994" lon="-1.59625">
        <ele>17.8</ele>
        <time>2020-06-07T09:17:00Z</time>
      </trkpt>
      <trkpt lat="47.25994" lon="-1.59625">
        <ele>17.8</ele>
        <time>2020-06-07T09:17:01Z</time>
      </trkpt>
      <trkpt lat="47.25994" lon="-1.59625">
        <ele>17.8</ele>
        <time>2020-06-07T09:17:02Z</time>
      </trkpt>
      <trkpt lat="47.25994" lon="-1.59625">
        <ele>17.8</ele>
        <time>2020-06-07T09:17:03Z</time>
      </trkpt>
      <trkpt lat="47.25994" lon="-1.59625">
        <ele>17.8</ele>
        <time>2020-06-07T09:17:04Z</time>
      </trkpt>
      <trkpt lat="47.25994" lon="-1.59625">
        <ele>17.8</ele>
        <time>2020-06-07T09:17:05Z</time>
      </trkpt>
      <trkpt lat="47.25994" lon="-1.59625">
        <ele>17.8</ele>
        <time>2020-06-07T09:17:06Z</time>
      </trkpt>
      <trkpt lat="47.25994" lon="-1.59625">
        <ele>17.8</ele>
        <time>2020-06-07T09:17:07Z</time>
      </trkpt>
      <trkpt lat="47.25994" lon="-1.59625">
        <ele>17.8</ele>
        <time>2020-06-07T09:17:08Z</time>
      </trkpt>
      <trkpt lat="47.25994" lon="-1.59625">
        <ele>17.8</ele>
        <time>2020-06-07T09:17:09Z</time>
      </trkpt>
      <trkpt lat="47.25994" lon="-1.59625">
        <ele>17.8</ele>
        <time>2020-06-07T09:17:10Z</time>
      </trkpt>
      <trkpt lat="47.25994" lon="-1.59625">
        <ele>17.8</ele>
        <time>2020-06-07T09:17:11Z</time>
      </trkpt>
      <trkpt lat="47.25994" lon="-1.59625">
        <ele>17.8</ele>
        <time>2020-06-07T09:17:12Z</time>
      </trkpt>
      <trkpt lat="47.25994" lon="-1.59625">
        <ele>17.8</ele>
        <time>2020-06-07T09:17:13Z</time>
      </trkpt>
      <trkpt lat="47.25994" lon="-1.59625">
        <ele>17.8</ele>
        <time>2020-06-07T09:17:14Z</time>
      </trkpt>
      <trkpt lat="47.25994" lon="-1.59625">
        <ele>17.8</ele>
        <time>2020-06-07T09:17:15Z</time>
      </trkpt>
      <trkpt lat="47.25994" lon="-1.59625">
        <ele>17.8</ele>
        <time>2020-06-07T09:17:16Z</time>
      </trkpt>
      <trkpt lat="47.25994" lon="-1.59625">
        <ele>17.8</ele>
        <time>2020-06-07T09:17:17Z</time>
      </trkpt>
      <trkpt lat="47.25994" lon="-1.59625">
        <ele>17.8</ele>
        <time>2020-06-07T09:17:18Z</time>
      </trkpt>
      <trkpt lat="47.25994" lon="-1.59625">
        <ele>17.8</ele>
        <time>2020-06-07T09:17:19Z</time>
      </trkpt>
      <trkpt lat="47.25994" lon="-1.59625">
        <ele>17.8</ele>
        <time>2020-06-07T09:17:20Z</time>
      </trkpt>
      <trkpt lat="47.25994" lon="-1.59625">
        <ele>17.8</ele>
        <time>2020-06-07T09:17:21Z</time>
      </trkpt>
      <trkpt lat="47.25994" lon="-1.59625">
        <ele>17.8</ele>
        <time>2020-06-07T09:17:22Z</time>
      </trkpt>
      <trkpt lat="47.25994" lon="-1.59625">
        <ele>17.8</ele>
        <time>2020-06-07T09:17:23Z</time>
      </trkpt>
      <trkpt lat="47.25994" lon="-1.59625">
        <ele>17.8</ele>
        <time>2020-06-07T09:17:24Z</time>
      </trkpt>
      <trkpt lat="47.25994" lon="-1.59625">
        <ele>17.8</ele>
        <time>2020-06-07T09:17:25Z</time>
      </trkpt>
      <trkpt lat="47.25994" lon="-1.59625">
        <ele>17.8</ele>
        <time>2020-06-07T09:17:26Z</time>
      </trkpt>
      <trkpt lat="47.25994" lon="-1.59625">
        <ele>17.8</ele>
        <time>2020-06-07T09:17:27Z</time>
      </trkpt>
      <trkpt lat="47.25994" lon="-1.59625">
        <ele>17.8</ele>
        <time>2020-06-07T09:17:28Z</time>
      </trkpt>
      <trkpt lat="47.25994" lon="-1.59625">
        <ele>17.8</ele>
        <time>2020-06-07T09:17:29Z</time>
      </trkpt>
      <trkpt lat="47.25994" lon="-1.59625">
        <ele>17.8</ele>
        <time>2020-06-07T09:17:30Z</time>
      </trkpt>
      <trkpt lat="47.25994" lon="-1.59625">
        <ele>17.8</ele>
        <time>2020-06-07T09:17:31Z</time>
      </trkpt>
      <trkpt lat="47.25994" lon="-1.59625">
        <ele>17.8</ele>
        <time>2020-06-07T09:17:32Z</time>
      </trkpt>
      <trkpt lat="47.25994" lon="-1.59625">
        <ele>17.8</ele>
        <time>2020-06-07T09:17:33Z</time>
      </trkpt>
      <trkpt lat="47.25994" lon="-1.59625">
        <ele>17.8</ele>
        <time>2020-06-07T09:17:34Z</time>
      </trkpt>
      <trkpt lat="47.25994" lon="-1.59625">
        <ele>17.8</ele>
        <time>2020-06-07T09:17:35Z</time>
      </trkpt>
      <trkpt lat="47.25994" lon="-1.59625">
        <ele>17.8</ele>
        <time>2020-06-07T09:17:36Z</time>
      </trkpt>
      <trkpt lat="47.25994" lon="-1.59625">
        <ele>17.8</ele>
        <time>2020-06-07T09:17:37Z</time>
      </trkpt>
      <trkpt lat="47.25994" lon="-1.59625">
        <ele>17.8</ele>
        <time>2020-06-07T09:17:38Z</time>
      </trkpt>
      <trkpt lat="47.25994" lon="-1.59625">
        <ele>17.8</ele>
        <time>2020-06-07T09:17:39Z</time>
      </trkpt>
      <trkpt lat="47.25994" lon="-1.59625">
        <ele>17.8</ele>
        <time>2020-06-07T09:17:40Z</time>
      </trkpt>
      <trkpt lat="47.25994" lon="-1.59625">
        <ele>17.8</ele>
        <time>2020-06-07T09:17:41Z</time>
      </trkpt>
      <trkpt lat="47.25994" lon="-1.59625">
        <ele>17.8</ele>
        <time>2020-06-07T09:17:42Z</time>
      </trkpt>
      <trkpt lat="47.25994" lon="-1.59625">
        <ele>17.8</ele>
        <time>2020-06-07T09:17:43Z</time>
      </trkpt>
      <trkpt lat="47.25994" lon="-1.59625">
        <ele>17.8</ele>
        <time>2020-06-07T09:17:44Z</time>
      </trkpt>
      <trkpt lat="47.25994" lon="-1.59625">
        <ele>17.8</ele>
        <time>2020-06-07T09:17:45Z</time>
      </trkpt>
      <trkpt lat="47.25994" lon="-1.59625">
        <ele>17.8</ele>
        <time>2020-06-07T09:17:46Z</time>
      </trkpt>
      <trkpt lat="47.25994" lon="-1.59625">
        <ele>17.8</ele>
        <time>2020-06-07T09:17:47Z</time>
      </trkpt>
      <trkpt lat="47.25994" lon="-1.59625">
        <ele>17.8</ele>
        <time>2020-06-07T09:17:48Z</time>
      </trkpt>
      <trkpt lat="47.25994" lon="-1.59625">
        <ele>17.8</ele>
        <time>2020-06-07T09:17:49Z</time>
      </trkpt>
      <trkpt lat="47.25994" lon="-1.59625">
        <ele>17.8</ele>
        <time>2020-06-07T09:17:50Z</time>
      </trkpt>
      <trkpt lat="47.25994" lon="-1.59625">
        <ele>17.8</ele>
        <time>2020-06-07T09:17:51Z</time>
      </trkpt>
      <trkpt lat="47.25994" lon="-1.59625">
        <ele>17.8</ele>
        <time>2020-06-07T09:17:52Z</time>
      </trkpt>
      <trkpt lat="47.25994" lon="-1.59625">
        <ele>17.8</ele>
        <time>2020-06-07T09:17:53Z</time>
      </trkpt>
      <trkpt lat="47.25994" lon="-1.59625">
        <ele>17.8</ele>
        <time>2020-06-07T09:17:54Z</time>
      </trkpt>
      <trkpt lat="47.25994" lon="-1.59625">
        <ele>17.8</ele>
        <time>2020-06-07T09:17:55Z</time>
      </trkpt>
      <trkpt lat="47.25994" lon="-1.59625">
        <ele>17.8</ele>
        <time>2020-06-07T09:17:56Z</time>
      </trkpt>
      <trkpt lat="47.25994" lon="-1.59625">
        <ele>17.8</ele>
        <time>2020-06-07T09:17:57Z</time>
      </trkpt>
      <trkpt lat="47.25994" lon="-1.59625">
        <ele>17.8</ele>
        <time>2020-06-07T09:17:58Z</time>
      </trkpt>
      <trkpt lat="47.25994" lon="-1.59625">
        <ele>17.8</ele>
        <time>2020-06-07T09:17:59Z</time>
      </trkpt>
      <trkpt lat="47.25994" lon="-1.59625">
        <ele>17.8</ele>
        <time>2020-06-07T09:18:00Z</time>
      </trkpt>
      <trkpt lat="47.25994" lon="-1.59625">
        <ele>17.8</ele>
        <time>2020-06-07T09:18:01Z</time>
      </trkpt>
      <trkpt lat="47.25994" lon="-1.59625">
        <ele>17.8</ele>
        <time>2020-06-07T09:18:02Z</time>
      </trkpt>
      <trkpt lat="47.25994" lon="-1.59625">
        <ele>17.8</ele>
        <time>2020-06-07T09:18:03Z</time>
      </trkpt>
      <trkpt lat="47.25994" lon="-1.59625">
        <ele>17.8</ele>
        <time>2020-06-07T09:18:04Z</time>
      </trkpt>
      <trkpt lat="47.25994" lon="-1.59625">
        <ele>17.8</ele>
        <time>2020-06-07T09:18:05Z</time>
      </trkpt>
      <trkpt lat="47.25994" lon="-1.59625">
        <ele>17.8</ele>
        <time>2020-06-07T09:18:06Z</time>
      </trkpt>
      <trkpt lat="47.25994" lon="-1.59625">
        <ele>17.8</ele>
        <time>2020-06-07T09:18:07Z</time>
      </trkpt>
      <trkpt lat="47.25994" lon="-1.59625">
        <ele>17.8</ele>
        <time>2020-06-07T09:18:08Z</time>
      </trkpt>
      <trkpt lat="47.25994" lon="-1.59625">
        <ele>17.8</ele>
        <time>2020-06-07T09:18:09Z</time>
      </trkpt>
      <trkpt lat="47.25994" lon="-1.59625">
        <ele>17.8</ele>
        <time>2020-06-07T09:18:10Z</time>
      </trkpt>
      <trkpt lat="47.25994" lon="-1.59625">
        <ele>17.8</ele>
        <time>2020-06-07T09:18:11Z</time>
      </trkpt>
      <trkpt lat="47.25994" lon="-1.59625">
        <ele>17.8</ele>
        <time>2020-06-07T09:18:12Z</time>
      </trkpt>
      <trkpt lat="47.25994" lon="-1.59625">
        <ele>17.8</ele>
        <time>2020-06-07T09:18:13Z</time>
      </trkpt>
      <trkpt lat="47.25994" lon="-1.59625">
        <ele>17.8</ele>
        <time>2020-06-07T09:18:14Z</time>
      </trkpt>
      <trkpt lat="47.25994" lon="-1.59625">
        <ele>17.8</ele>
        <time>2020-06-07T09:18:15Z</time>
      </trkpt>
      <trkpt lat="47.25994" lon="-1.59625">
        <ele>17.8</ele>
        <time>2020-06-07T09:18:16Z</time>
      </trkpt>
      <trkpt lat="47.25994" lon="-1.59625">
        <ele>17.8</ele>
        <time>2020-06-07T09:18:17Z</time>
      </trkpt>
      <trkpt lat="47.25994" lon="-1.59625">
        <ele>17.8</ele>
        <time>2020-06-07T09:18:18Z</time>
      </trkpt>
      <trkpt lat="47.25994" lon="-1.59625">
        <ele>17.8</ele>
        <time>2020-06-07T09:18:19Z</time>
      </trkpt>
      <trkpt lat="47.25994" lon="-1.59625">
        <ele>17.8</ele>
        <time>2020-06-07T09:18:20Z</time>
      </trkpt>
      <trkpt lat="47.25994" lon="-1.59625">
        <ele>17.8</ele>
        <time>2020-06-07T09:18:21Z</time>
      </trkpt>
      <trkpt lat="47.25994" lon="-1.59625">
        <ele>17.8</ele>
        <time>2020-06-07T09:18:22Z</time>
      </trkpt>
      <trkpt lat="47.25994" lon="-1.59625">
        <ele>17.8</ele>
        <time>2020-06-07T09:18:23Z</time>
      </trkpt>
      <trkpt lat="47.25994" lon="-1.59625">
        <ele>17.8</ele>
        <time>2020-06-07T09:18:24Z</time>
      </trkpt>
      <trkpt lat="47.25994" lon="-1.59625">
        <ele>17.8</ele>
        <time>2020-06-07T09:18:25Z</time>
      </trkpt>
      <trkpt lat="47.25994" lon="-1.59625">
        <ele>17.8</ele>
        <time>2020-06-07T09:18:26Z</time>
      </trkpt>
      <trkpt lat="47.25994" lon="-1.59625">
        <ele>17.8</ele>
        <time>2020-06-07T09:18:27Z</time>
      </trkpt>
      <trkpt lat="47.25994" lon="-1.59625">
        <ele>17.8</ele>
        <time>2020-06-07T09:18:28Z</time>
      </trkpt>
      <trkpt lat="47.25994" lon="-1.59625">
        <ele>17.8</ele>
        <time>2020-06-07T09:18:29Z</time>
      </trkpt>
      <trkpt lat="47.25994" lon="-1.59625">
        <ele>17.8</ele>
        <time>2020-06-07T09:18:30Z</time>
      </trkpt>
      <trkpt lat="47.25994" lon="-1.59625">
        <ele>17.8</ele>
        <time>2020-06-07T09:18:31Z</time>
      </trkpt>
      <trkpt lat="47.25994" lon="-1.59625">
        <ele>17.8</ele>
        <time>2020-06-07T09:18:32Z</time>
      </trkpt>
      <trkpt lat="47.25994" lon="-1.59625">
        <ele>17.8</ele>
        <time>2020-06-07T09:18:33Z</time>
      </trkpt>
      <trkpt lat="47.25994" lon="-1.59625">
        <ele>17.8</ele>
        <time>2020-06-07T09:18:34Z</time>
      </trkpt>
      <trkpt lat="47.25994" lon="-1.59625">
        <ele>17.8</ele>
        <time>2020-06-07T09:18:35Z</time>
      </trkpt>
      <trkpt lat="47.25994" lon="-1.59625">
        <ele>17.8</ele>
        <time>2020-06-07T09:18:36Z</time>
      </trkpt>
      <trkpt lat="47.25994" lon="-1.59625">
        <ele>17.8</ele>
        <time>2020-06-07T09:18:37Z</time>
      </trkpt>
      <trkpt lat="47.25994" lon="-1.59625">
        <ele>17.8</ele>
        <time>2020-06-07T09:18:38Z</time>
      </trkpt>
      <trkpt lat="47.25994" lon="-1.59625">
        <ele>17.8</ele>
        <time>2020-06-07T09:18:39Z</time>
      </trkpt>
      <trkpt lat="47.25994" lon="-1.59625">
        <ele>17.8</ele>
        <time>2020-06-07T09:18:40Z</time>
      </trkpt>
      <trkpt lat="47.25994" lon="-1.59625">
        <ele>17.8</ele>
        <time>2020-06-07T09:18:41Z</time>
      </trkpt>
      <trkpt lat="47.25994" lon="-1.59625">
        <ele>17.8</ele>
        <time>2020-06-07T09:18:42Z</time>
      </trkpt>
      <trkpt lat="47.25994" lon="-1.59625">
        <ele>17.8</ele>
        <time>2020-06-07T09:18:43Z</time>
      </trkpt>
      <trkpt lat="47.25994" lon="-1.59625">
        <ele>17.8</ele>
        <time>2020-06-07T09:18:44Z</time>
      </trkpt>
      <trkpt lat="47.25994" lon="-1.59625">
        <ele>17.8</ele>
        <time>2020-06-07T09:18:45Z</time>
      </trkpt>
      <trkpt lat="47.25994" lon="-1.59625">
        <ele>17.8</ele>
        <time>2020-06-07T09:18:46Z</time>
      </trkpt>
      <trkpt lat="47.25994" lon="-1.59625">
        <ele>17.7</ele>
        <time>2020-06-07T09:18:47Z</time>
      </trkpt>
      <trkpt lat="47.25994" lon="-1.59625">
        <ele>17.7</ele>
        <time>2020-06-07T09:18:48Z</time>
      </trkpt>
      <trkpt lat="47.25994" lon="-1.59626">
        <ele>17.7</ele>
        <time>2020-06-07T09:18:49Z</time>
      </trkpt>
      <trkpt lat="47.25995" lon="-1.59627">
        <ele>17.6</ele>
        <time>2020-06-07T09:18:50Z</time>
      </trkpt>
      <trkpt lat="47.25996" lon="-1.59628">
        <ele>17.5</ele>
        <time>2020-06-07T09:18:51Z</time>
      </trkpt>
      <trkpt lat="47.25997" lon="-1.5963">
        <ele>17.4</ele>
        <time>2020-06-07T09:18:52Z</time>
      </trkpt>
      <trkpt lat="47.25998" lon="-1.5963">
        <ele>17.3</ele>
        <time>2020-06-07T09:18:53Z</time>
      </trkpt>
      <trkpt lat="47.25998" lon="-1.59631">
        <ele>17.3</ele>
        <time>2020-06-07T09:18:54Z</time>
      </trkpt>
      <trkpt lat="47.25999" lon="-1.59632">
        <ele>17.2</ele>
        <time>2020-06-07T09:18:55Z</time>
      </trkpt>
      <trkpt lat="47.25999" lon="-1.59632">
        <ele>17.1</ele>
        <time>2020-06-07T09:18:56Z</time>
      </trkpt>
      <trkpt lat="47.25999" lon="-1.59632">
        <ele>17.1</ele>
        <time>2020-06-07T09:18:57Z</time>
      </trkpt>
      <trkpt lat="47.26" lon="-1.59633">
        <ele>17</ele>
        <time>2020-06-07T09:18:58Z</time>
      </trkpt>
      <trkpt lat="47.26" lon="-1.59634">
        <ele>17</ele>
        <time>2020-06-07T09:18:59Z</time>
      </trkpt>
      <trkpt lat="47.26001" lon="-1.59634">
        <ele>17</ele>
        <time>2020-06-07T09:19:00Z</time>
      </trkpt>
      <trkpt lat="47.26001" lon="-1.59635">
        <ele>17</ele>
        <time>2020-06-07T09:19:01Z</time>
      </trkpt>
      <trkpt lat="47.26001" lon="-1.59636">
        <ele>17</ele>
        <time>2020-06-07T09:19:02Z</time>
      </trkpt>
      <trkpt lat="47.26002" lon="-1.59636">
        <ele>17</ele>
        <time>2020-06-07T09:19:03Z</time>
      </trkpt>
      <trkpt lat="47.26002" lon="-1.59637">
        <ele>17</ele>
        <time>2020-06-07T09:19:04Z</time>
      </trkpt>
      <trkpt lat="47.26002" lon="-1.59637">
        <ele>17</ele>
        <time>2020-06-07T09:19:05Z</time>
      </trkpt>
      <trkpt lat="47.26002" lon="-1.59638">
        <ele>17</ele>
        <time>2020-06-07T09:19:06Z</time>
      </trkpt>
      <trkpt lat="47.26003" lon="-1.59638">
        <ele>17</ele>
        <time>2020-06-07T09:19:07Z</time>
      </trkpt>
      <trkpt lat="47.26003" lon="-1.59638">
        <ele>17</ele>
        <time>2020-06-07T09:19:08Z</time>
      </trkpt>
      <trkpt lat="47.26003" lon="-1.59638">
        <ele>17</ele>
        <time>2020-06-07T09:19:09Z</time>
      </trkpt>
      <trkpt lat="47.26003" lon="-1.59638">
        <ele>17</ele>
        <time>2020-06-07T09:19:10Z</time>
      </trkpt>
      <trkpt lat="47.26003" lon="-1.59638">
        <ele>17</ele>
        <time>2020-06-07T09:19:11Z</time>
      </trkpt>
      <trkpt lat="47.26003" lon="-1.59638">
        <ele>17</ele>
        <time>2020-06-07T09:19:12Z</time>
      </trkpt>
      <trkpt lat="47.26003" lon="-1.59638">
        <ele>17</ele>
        <time>2020-06-07T09:19:13Z</time>
      </trkpt>
      <trkpt lat="47.26003" lon="-1.59639">
        <ele>17</ele>
        <time>2020-06-07T09:19:14Z</time>
      </trkpt>
      <trkpt lat="47.26003" lon="-1.59639">
        <ele>17</ele>
        <time>2020-06-07T09:19:15Z</time>
      </trkpt>
      <trkpt lat="47.26003" lon="-1.59639">
        <ele>17</ele>
        <time>2020-06-07T09:19:16Z</time>
      </trkpt>
      <trkpt lat="47.26003" lon="-1.59639">
        <ele>17</ele>
        <time>2020-06-07T09:19:17Z</time>
      </trkpt>
      <trkpt lat="47.26004" lon="-1.5964">
        <ele>17</ele>
        <time>2020-06-07T09:19:18Z</time>
      </trkpt>
      <trkpt lat="47.26004" lon="-1.5964">
        <ele>16.9</ele>
        <time>2020-06-07T09:19:19Z</time>
      </trkpt>
      <trkpt lat="47.26004" lon="-1.59641">
        <ele>16.9</ele>
        <time>2020-06-07T09:19:20Z</time>
      </trkpt>
      <trkpt lat="47.26005" lon="-1.59641">
        <ele>16.9</ele>
        <time>2020-06-07T09:19:21Z</time>
      </trkpt>
      <trkpt lat="47.26005" lon="-1.59642">
        <ele>16.9</ele>
        <time>2020-06-07T09:19:22Z</time>
      </trkpt>
      <trkpt lat="47.26006" lon="-1.59643">
        <ele>16.9</ele>
        <time>2020-06-07T09:19:23Z</time>
      </trkpt>
      <trkpt lat="47.26006" lon="-1.59644">
        <ele>16.9</ele>
        <time>2020-06-07T09:19:24Z</time>
      </trkpt>
      <trkpt lat="47.26007" lon="-1.59644">
        <ele>16.9</ele>
        <time>2020-06-07T09:19:25Z</time>
      </trkpt>
      <trkpt lat="47.26008" lon="-1.59645">
        <ele>16.9</ele>
        <time>2020-06-07T09:19:26Z</time>
      </trkpt>
      <trkpt lat="47.26008" lon="-1.59646">
        <ele>16.9</ele>
        <time>2020-06-07T09:19:27Z</time>
      </trkpt>
      <trkpt lat="47.26009" lon="-1.59647">
        <ele>16.8</ele>
        <time>2020-06-07T09:19:28Z</time>
      </trkpt>
      <trkpt lat="47.2601" lon="-1.59648">
        <ele>16.8</ele>
        <time>2020-06-07T09:19:29Z</time>
      </trkpt>
      <trkpt lat="47.2601" lon="-1.59649">
        <ele>16.8</ele>
        <time>2020-06-07T09:19:30Z</time>
      </trkpt>
      <trkpt lat="47.26011" lon="-1.59649">
        <ele>16.8</ele>
        <time>2020-06-07T09:19:31Z</time>
      </trkpt>
      <trkpt lat="47.26012" lon="-1.5965">
        <ele>16.7</ele>
        <time>2020-06-07T09:19:32Z</time>
      </trkpt>
      <trkpt lat="47.26012" lon="-1.59651">
        <ele>16.7</ele>
        <time>2020-06-07T09:19:33Z</time>
      </trkpt>
      <trkpt lat="47.26013" lon="-1.59652">
        <ele>16.7</ele>
        <time>2020-06-07T09:19:34Z</time>
      </trkpt>
      <trkpt lat="47.26013" lon="-1.59653">
        <ele>16.7</ele>
        <time>2020-06-07T09:19:35Z</time>
      </trkpt>
      <trkpt lat="47.26014" lon="-1.59653">
        <ele>16.7</ele>
        <time>2020-06-07T09:19:36Z</time>
      </trkpt>
      <trkpt lat="47.26015" lon="-1.59654">
        <ele>16.6</ele>
        <time>2020-06-07T09:19:37Z</time>
      </trkpt>
      <trkpt lat="47.26015" lon="-1.59655">
        <ele>16.6</ele>
        <time>2020-06-07T09:19:38Z</time>
      </trkpt>
      <trkpt lat="47.26016" lon="-1.59656">
        <ele>16.6</ele>
        <time>2020-06-07T09:19:39Z</time>
      </trkpt>
      <trkpt lat="47.26017" lon="-1.59657">
        <ele>16.5</ele>
        <time>2020-06-07T09:19:40Z</time>
      </trkpt>
      <trkpt lat="47.26017" lon="-1.59657">
        <ele>16.5</ele>
        <time>2020-06-07T09:19:41Z</time>
      </trkpt>
      <trkpt lat="47.26018" lon="-1.59658">
        <ele>16.5</ele>
        <time>2020-06-07T09:19:42Z</time>
      </trkpt>
      <trkpt lat="47.26019" lon="-1.59659">
        <ele>16.4</ele>
        <time>2020-06-07T09:19:43Z</time>
      </trkpt>
      <trkpt lat="47.2602" lon="-1.59659">
        <ele>16.4</ele>
        <time>2020-06-07T09:19:44Z</time>
      </trkpt>
      <trkpt lat="47.26021" lon="-1.5966">
        <ele>16.4</ele>
        <time>2020-06-07T09:19:45Z</time>
      </trkpt>
      <trkpt lat="47.26022" lon="-1.59661">
        <ele>16.3</ele>
        <time>2020-06-07T09:19:46Z</time>
      </trkpt>
      <trkpt lat="47.26022" lon="-1.59661">
        <ele>16.3</ele>
        <time>2020-06-07T09:19:47Z</time>
      </trkpt>
      <trkpt lat="47.26023" lon="-1.59662">
        <ele>16.3</ele>
        <time>2020-06-07T09:19:48Z</time>
      </trkpt>
      <trkpt lat="47.26024" lon="-1.59662">
        <ele>16.2</ele>
        <time>2020-06-07T09:19:49Z</time>
      </trkpt>
      <trkpt lat="47.26024" lon="-1.59663">
        <ele>16.2</ele>
        <time>2020-06-07T09:19:50Z</time>
      </trkpt>
      <trkpt lat="47.26024" lon="-1.59663">
        <ele>16.2</ele>
        <time>2020-06-07T09:19:51Z</time>
      </trkpt>
      <trkpt lat="47.26025" lon="-1.59664">
        <ele>16.2</ele>
        <time>2020-06-07T09:19:52Z</time>
      </trkpt>
      <trkpt lat="47.26025" lon="-1.59664">
        <ele>16.2</ele>
        <time>2020-06-07T09:19:53Z</time>
      </trkpt>
      <trkpt lat="47.26025" lon="-1.59665">
        <ele>16.1</ele>
        <time>2020-06-07T09:19:54Z</time>
      </trkpt>
      <trkpt lat="47.26026" lon="-1.59665">
        <ele>16.1</ele>
        <time>2020-06-07T09:19:55Z</time>
      </trkpt>
      <trkpt lat="47.26026" lon="-1.59666">
        <ele>16.1</ele>
        <time>2020-06-07T09:19:56Z</time>
      </trkpt>
      <trkpt lat="47.26027" lon="-1.59666">
        <ele>16</ele>
        <time>2020-06-07T09:19:57Z</time>
      </trkpt>
      <trkpt lat="47.26028" lon="-1.59667">
        <ele>16</ele>
        <time>2020-06-07T09:19:58Z</time>
      </trkpt>
      <trkpt lat="47.26029" lon="-1.59667">
        <ele>16</ele>
        <time>2020-06-07T09:19:59Z</time>
      </trkpt>
      <trkpt lat="47.2603" lon="-1.59668">
        <ele>16</ele>
        <time>2020-06-07T09:20:00Z</time>
      </trkpt>
      <trkpt lat="47.26031" lon="-1.59669">
        <ele>16</ele>
        <time>2020-06-07T09:20:01Z</time>
      </trkpt>
      <trkpt lat="47.26032" lon="-1.5967">
        <ele>16</ele>
        <time>2020-06-07T09:20:02Z</time>
      </trkpt>
      <trkpt lat="47.26034" lon="-1.59671">
        <ele>16</ele>
        <time>2020-06-07T09:20:03Z</time>
      </trkpt>
      <trkpt lat="47.26035" lon="-1.59671">
        <ele>15.9</ele>
        <time>2020-06-07T09:20:04Z</time>
      </trkpt>
      <trkpt lat="47.26037" lon="-1.59672">
        <ele>15.9</ele>
        <time>2020-06-07T09:20:05Z</time>
      </trkpt>
      <trkpt lat="47.26038" lon="-1.59673">
        <ele>15.9</ele>
        <time>2020-06-07T09:20:06Z</time>
      </trkpt>
      <trkpt lat="47.26039" lon="-1.59674">
        <ele>15.9</ele>
        <time>2020-06-07T09:20:07Z</time>
      </trkpt>
      <trkpt lat="47.2604" lon="-1.59675">
        <ele>15.9</ele>
        <time>2020-06-07T09:20:08Z</time>
      </trkpt>
      <trkpt lat="47.26041" lon="-1.59676">
        <ele>15.8</ele>
        <time>2020-06-07T09:20:09Z</time>
      </trkpt>
      <trkpt lat="47.26042" lon="-1.59676">
        <ele>15.8</ele>
        <time>2020-06-07T09:20:10Z</time>
      </trkpt>
      <trkpt lat="47.26043" lon="-1.59677">
        <ele>15.8</ele>
        <time>2020-06-07T09:20:11Z</time>
      </trkpt>
      <trkpt lat="47.26044" lon="-1.59678">
        <ele>15.8</ele>
        <time>2020-06-07T09:20:12Z</time>
      </trkpt>
      <trkpt lat="47.26045" lon="-1.59679">
        <ele>15.8</ele>
        <time>2020-06-07T09:20:13Z</time>
      </trkpt>
      <trkpt lat="47.26045" lon="-1.59679">
        <ele>15.8</ele>
        <time>2020-06-07T09:20:14Z</time>
      </trkpt>
      <trkpt lat="47.26046" lon="-1.5968">
        <ele>15.8</ele>
        <time>2020-06-07T09:20:15Z</time>
      </trkpt>
      <trkpt lat="47.26047" lon="-1.59681">
        <ele>15.8</ele>
        <time>2020-06-07T09:20:16Z</time>
      </trkpt>
      <trkpt lat="47.26048" lon="-1.59681">
        <ele>15.7</ele>
        <time>2020-06-07T09:20:17Z</time>
      </trkpt>
      <trkpt lat="47.26049" lon="-1.59682">
        <ele>15.7</ele>
        <time>2020-06-07T09:20:18Z</time>
      </trkpt>
      <trkpt lat="47.26049" lon="-1.59682">
        <ele>15.7</ele>
        <time>2020-06-07T09:20:19Z</time>
      </trkpt>
      <trkpt lat="47.2605" lon="-1.59683">
        <ele>15.6</ele>
        <time>2020-06-07T09:20:20Z</time>
      </trkpt>
      <trkpt lat="47.26051" lon="-1.59683">
        <ele>15.6</ele>
        <time>2020-06-07T09:20:21Z</time>
      </trkpt>
      <trkpt lat="47.26052" lon="-1.59684">
        <ele>15.6</ele>
        <time>2020-06-07T09:20:22Z</time>
      </trkpt>
      <trkpt lat="47.26053" lon="-1.59684">
        <ele>15.6</ele>
        <time>2020-06-07T09:20:23Z</time>
      </trkpt>
      <trkpt lat="47.26054" lon="-1.59685">
        <ele>15.5</ele>
        <time>2020-06-07T09:20:24Z</time>
      </trkpt>
      <trkpt lat="47.26055" lon="-1.59685">
        <ele>15.5</ele>
        <time>2020-06-07T09:20:25Z</time>
      </trkpt>
      <trkpt lat="47.26056" lon="-1.59686">
        <ele>15.4</ele>
        <time>2020-06-07T09:20:26Z</time>
      </trkpt>
      <trkpt lat="47.26057" lon="-1.59687">
        <ele>15.4</ele>
        <time>2020-06-07T09:20:27Z</time>
      </trkpt>
      <trkpt lat="47.26058" lon="-1.59687">
        <ele>15.4</ele>
        <time>2020-06-07T09:20:28Z</time>
      </trkpt>
      <trkpt lat="47.26059" lon="-1.59688">
        <ele>15.3</ele>
        <time>2020-06-07T09:20:29Z</time>
      </trkpt>
      <trkpt lat="47.2606" lon="-1.59688">
        <ele>15.3</ele>
        <time>2020-06-07T09:20:30Z</time>
      </trkpt>
      <trkpt lat="47.26061" lon="-1.59689">
        <ele>15.2</ele>
        <time>2020-06-07T09:20:31Z</time>
      </trkpt>
      <trkpt lat="47.26062" lon="-1.59689">
        <ele>15.2</ele>
        <time>2020-06-07T09:20:32Z</time>
      </trkpt>
      <trkpt lat="47.26063" lon="-1.5969">
        <ele>15.2</ele>
        <time>2020-06-07T09:20:33Z</time>
      </trkpt>
      <trkpt lat="47.26063" lon="-1.59691">
        <ele>15.1</ele>
        <time>2020-06-07T09:20:34Z</time>
      </trkpt>
      <trkpt lat="47.26064" lon="-1.59691">
        <ele>15.1</ele>
        <time>2020-06-07T09:20:35Z</time>
      </trkpt>
      <trkpt lat="47.26065" lon="-1.59692">
        <ele>15.1</ele>
        <time>2020-06-07T09:20:36Z</time>
      </trkpt>
      <trkpt lat="47.26066" lon="-1.59693">
        <ele>15</ele>
        <time>2020-06-07T09:20:37Z</time>
      </trkpt>
      <trkpt lat="47.26067" lon="-1.59693">
        <ele>15</ele>
        <time>2020-06-07T09:20:38Z</time>
      </trkpt>
      <trkpt lat="47.26068" lon="-1.59694">
        <ele>14.9</ele>
        <time>2020-06-07T09:20:39Z</time>
      </trkpt>
      <trkpt lat="47.26068" lon="-1.59695">
        <ele>14.9</ele>
        <time>2020-06-07T09:20:40Z</time>
      </trkpt>
      <trkpt lat="47.26069" lon="-1.59696">
        <ele>14.9</ele>
        <time>2020-06-07T09:20:41Z</time>
      </trkpt>
      <trkpt lat="47.2607" lon="-1.59696">
        <ele>14.8</ele>
        <time>2020-06-07T09:20:42Z</time>
      </trkpt>
      <trkpt lat="47.2607" lon="-1.59697">
        <ele>14.8</ele>
        <time>2020-06-07T09:20:43Z</time>
      </trkpt>
      <trkpt lat="47.26071" lon="-1.59698">
        <ele>14.8</ele>
        <time>2020-06-07T09:20:44Z</time>
      </trkpt>
      <trkpt lat="47.26072" lon="-1.59699">
        <ele>14.7</ele>
        <time>2020-06-07T09:20:45Z</time>
      </trkpt>
      <trkpt lat="47.26073" lon="-1.59699">
        <ele>14.7</ele>
        <time>2020-06-07T09:20:46Z</time>
      </trkpt>
      <trkpt lat="47.26073" lon="-1.597">
        <ele>14.7</ele>
        <time>2020-06-07T09:20:47Z</time>
      </trkpt>
      <trkpt lat="47.26074" lon="-1.59701">
        <ele>14.6</ele>
        <time>2020-06-07T09:20:48Z</time>
      </trkpt>
      <trkpt lat="47.26075" lon="-1.59701">
        <ele>14.6</ele>
        <time>2020-06-07T09:20:49Z</time>
      </trkpt>
      <trkpt lat="47.26075" lon="-1.59702">
        <ele>14.5</ele>
        <time>2020-06-07T09:20:50Z</time>
      </trkpt>
      <trkpt lat="47.26076" lon="-1.59702">
        <ele>14.5</ele>
        <time>2020-06-07T09:20:51Z</time>
      </trkpt>
      <trkpt lat="47.26077" lon="-1.59703">
        <ele>14.5</ele>
        <time>2020-06-07T09:20:52Z</time>
      </trkpt>
      <trkpt lat="47.26077" lon="-1.59703">
        <ele>14.4</ele>
        <time>2020-06-07T09:20:53Z</time>
      </trkpt>
      <trkpt lat="47.26078" lon="-1.59704">
        <ele>14.4</ele>
        <time>2020-06-07T09:20:54Z</time>
      </trkpt>
      <trkpt lat="47.26079" lon="-1.59704">
        <ele>14.3</ele>
        <time>2020-06-07T09:20:55Z</time>
      </trkpt>
      <trkpt lat="47.2608" lon="-1.59704">
        <ele>14.2</ele>
        <time>2020-06-07T09:20:56Z</time>
      </trkpt>
      <trkpt lat="47.26081" lon="-1.59705">
        <ele>14.2</ele>
        <time>2020-06-07T09:20:57Z</time>
      </trkpt>
      <trkpt lat="47.26082" lon="-1.59705">
        <ele>14.1</ele>
        <time>2020-06-07T09:20:58Z</time>
      </trkpt>
      <trkpt lat="47.26083" lon="-1.59705">
        <ele>14.1</ele>
        <time>2020-06-07T09:20:59Z</time>
      </trkpt>
      <trkpt lat="47.26084" lon="-1.59705">
        <ele>14</ele>
        <time>2020-06-07T09:21:00Z</time>
      </trkpt>
      <trkpt lat="47.26085" lon="-1.59706">
        <ele>14</ele>
        <time>2020-06-07T09:21:01Z</time>
      </trkpt>
      <trkpt lat="47.26086" lon="-1.59706">
        <ele>14</ele>
        <time>2020-06-07T09:21:02Z</time>
      </trkpt>
      <trkpt lat="47.26087" lon="-1.59706">
        <ele>14</ele>
        <time>2020-06-07T09:21:03Z</time>
      </trkpt>
      <trkpt lat="47.26088" lon="-1.59706">
        <ele>14.1</ele>
        <time>2020-06-07T09:21:04Z</time>
      </trkpt>
      <trkpt lat="47.26089" lon="-1.59706">
        <ele>14.1</ele>
        <time>2020-06-07T09:21:05Z</time>
      </trkpt>
      <trkpt lat="47.26091" lon="-1.59706">
        <ele>14.1</ele>
        <time>2020-06-07T09:21:06Z</time>
      </trkpt>
      <trkpt lat="47.26092" lon="-1.59706">
        <ele>14.1</ele>
        <time>2020-06-07T09:21:07Z</time>
      </trkpt>
      <trkpt lat="47.26093" lon="-1.59706">
        <ele>14.1</ele>
        <time>2020-06-07T09:21:08Z</time>
      </trkpt>
      <trkpt lat="47.26094" lon="-1.59706">
        <ele>14.1</ele>
        <time>2020-06-07T09:21:09Z</time>
      </trkpt>
      <trkpt lat="47.26095" lon="-1.59706">
        <ele>14.2</ele>
        <time>2020-06-07T09:21:10Z</time>
      </trkpt>
      <trkpt lat="47.26097" lon="-1.59707">
        <ele>14.2</ele>
        <time>2020-06-07T09:21:11Z</time>
      </trkpt>
      <trkpt lat="47.26098" lon="-1.59707">
        <ele>14.2</ele>
        <time>2020-06-07T09:21:12Z</time>
      </trkpt>
      <trkpt lat="47.26099" lon="-1.59707">
        <ele>14.2</ele>
        <time>2020-06-07T09:21:13Z</time>
      </trkpt>
      <trkpt lat="47.261" lon="-1.59707">
        <ele>14.2</ele>
        <time>2020-06-07T09:21:14Z</time>
      </trkpt>
      <trkpt lat="47.26101" lon="-1.59707">
        <ele>14.2</ele>
        <time>2020-06-07T09:21:15Z</time>
      </trkpt>
      <trkpt lat="47.26102" lon="-1.59707">
        <ele>14.2</ele>
        <time>2020-06-07T09:21:16Z</time>
      </trkpt>
      <trkpt lat="47.26103" lon="-1.59707">
        <ele>14.2</ele>
        <time>2020-06-07T09:21:17Z</time>
      </trkpt>
      <trkpt lat="47.26104" lon="-1.59708">
        <ele>14.3</ele>
        <time>2020-06-07T09:21:18Z</time>
      </trkpt>
      <trkpt lat="47.26105" lon="-1.59708">
        <ele>14.3</ele>
        <time>2020-06-07T09:21:19Z</time>
      </trkpt>
      <trkpt lat="47.26106" lon="-1.59708">
        <ele>14.3</ele>
        <time>2020-06-07T09:21:20Z</time>
      </trkpt>
      <trkpt lat="47.26106" lon="-1.59708">
        <ele>14.3</ele>
        <time>2020-06-07T09:21:21Z</time>
      </trkpt>
      <trkpt lat="47.26107" lon="-1.59708">
        <ele>14.3</ele>
        <time>2020-06-07T09:21:22Z</time>
      </trkpt>
      <trkpt lat="47.26108" lon="-1.59708">
        <ele>14.3</ele>
        <time>2020-06-07T09:21:23Z</time>
      </trkpt>
      <trkpt lat="47.26109" lon="-1.59709">
        <ele>14.3</ele>
        <time>2020-06-07T09:21:24Z</time>
      </trkpt>
      <trkpt lat="47.2611" lon="-1.59709">
        <ele>14.3</ele>
        <time>2020-06-07T09:21:25Z</time>
      </trkpt>
      <trkpt lat="47.2611" lon="-1.59709">
        <ele>14.3</ele>
        <time>2020-06-07T09:21:26Z</time>
      </trkpt>
      <trkpt lat="47.26111" lon="-1.59709">
        <ele>14.3</ele>
        <time>2020-06-07T09:21:27Z</time>
      </trkpt>
      <trkpt lat="47.26112" lon="-1.59709">
        <ele>14.3</ele>
        <time>2020-06-07T09:21:28Z</time>
      </trkpt>
      <trkpt lat="47.26113" lon="-1.59709">
        <ele>14.3</ele>
        <time>2020-06-07T09:21:29Z</time>
      </trkpt>
      <trkpt lat="47.26114" lon="-1.5971">
        <ele>14.3</ele>
        <time>2020-06-07T09:21:30Z</time>
      </trkpt>
      <trkpt lat="47.26115" lon="-1.5971">
        <ele>14.4</ele>
        <time>2020-06-07T09:21:31Z</time>
      </trkpt>
      <trkpt lat="47.26116" lon="-1.5971">
        <ele>14.4</ele>
        <time>2020-06-07T09:21:32Z</time>
      </trkpt>
      <trkpt lat="47.26117" lon="-1.5971">
        <ele>14.4</ele>
        <time>2020-06-07T09:21:33Z</time>
      </trkpt>
      <trkpt lat="47.26118" lon="-1.5971">
        <ele>14.4</ele>
        <time>2020-06-07T09:21:34Z</time>
      </trkpt>
      <trkpt lat="47.26119" lon="-1.5971">
        <ele>14.4</ele>
        <time>2020-06-07T09:21:35Z</time>
      </trkpt>
      <trkpt lat="47.2612" lon="-1.59711">
        <ele>14.4</ele>
        <time>2020-06-07T09:21:36Z</time>
      </trkpt>
      <trkpt lat="47.26121" lon="-1.59711">
        <ele>14.4</ele>
        <time>2020-06-07T09:21:37Z</time>
      </trkpt>
      <trkpt lat="47.26122" lon="-1.59711">
        <ele>14.4</ele>
        <time>2020-06-07T09:21:38Z</time>
      </trkpt>
      <trkpt lat="47.26123" lon="-1.59711">
        <ele>14.4</ele>
        <time>2020-06-07T09:21:39Z</time>
      </trkpt>
      <trkpt lat="47.26124" lon="-1.59712">
        <ele>14.4</ele>
        <time>2020-06-07T09:21:40Z</time>
      </trkpt>
      <trkpt lat="47.26125" lon="-1.59712">
        <ele>14.4</ele>
        <time>2020-06-07T09:21:41Z</time>
      </trkpt>
      <trkpt lat="47.26126" lon="-1.59712">
        <ele>14.4</ele>
        <time>2020-06-07T09:21:42Z</time>
      </trkpt>
      <trkpt lat="47.26127" lon="-1.59712">
        <ele>14.4</ele>
        <time>2020-06-07T09:21:43Z</time>
      </trkpt>
      <trkpt lat="47.26128" lon="-1.59713">
        <ele>14.4</ele>
        <time>2020-06-07T09:21:44Z</time>
      </trkpt>
      <trkpt lat="47.26129" lon="-1.59713">
        <ele>14.4</ele>
        <time>2020-06-07T09:21:45Z</time>
      </trkpt>
      <trkpt lat="47.2613" lon="-1.59713">
        <ele>14.4</ele>
        <time>2020-06-07T09:21:46Z</time>
      </trkpt>
      <trkpt lat="47.26131" lon="-1.59713">
        <ele>14.4</ele>
        <time>2020-06-07T09:21:47Z</time>
      </trkpt>
      <trkpt lat="47.26132" lon="-1.59714">
        <ele>14.4</ele>
        <time>2020-06-07T09:21:48Z</time>
      </trkpt>
      <trkpt lat="47.26133" lon="-1.59714">
        <ele>14.4</ele>
        <time>2020-06-07T09:21:49Z</time>
      </trkpt>
      <trkpt lat="47.26134" lon="-1.59714">
        <ele>14.4</ele>
        <time>2020-06-07T09:21:50Z</time>
      </trkpt>
      <trkpt lat="47.26135" lon="-1.59715">
        <ele>14.4</ele>
        <time>2020-06-07T09:21:51Z</time>
      </trkpt>
      <trkpt lat="47.26136" lon="-1.59715">
        <ele>14.4</ele>
        <time>2020-06-07T09:21:52Z</time>
      </trkpt>
      <trkpt lat="47.26137" lon="-1.59715">
        <ele>14.4</ele>
        <time>2020-06-07T09:21:53Z</time>
      </trkpt>
      <trkpt lat="47.26138" lon="-1.59715">
        <ele>14.4</ele>
        <time>2020-06-07T09:21:54Z</time>
      </trkpt>
      <trkpt lat="47.26139" lon="-1.59715">
        <ele>14.4</ele>
        <time>2020-06-07T09:21:55Z</time>
      </trkpt>
      <trkpt lat="47.2614" lon="-1.59716">
        <ele>14.4</ele>
        <time>2020-06-07T09:21:56Z</time>
      </trkpt>
      <trkpt lat="47.2614" lon="-1.59716">
        <ele>14.4</ele>
        <time>2020-06-07T09:21:57Z</time>
      </trkpt>
      <trkpt lat="47.26141" lon="-1.59716">
        <ele>14.4</ele>
        <time>2020-06-07T09:21:58Z</time>
      </trkpt>
      <trkpt lat="47.26142" lon="-1.59716">
        <ele>14.4</ele>
        <time>2020-06-07T09:21:59Z</time>
      </trkpt>
      <trkpt lat="47.26143" lon="-1.59717">
        <ele>14.4</ele>
        <time>2020-06-07T09:22:00Z</time>
      </trkpt>
      <trkpt lat="47.26144" lon="-1.59717">
        <ele>14.4</ele>
        <time>2020-06-07T09:22:01Z</time>
      </trkpt>
      <trkpt lat="47.26145" lon="-1.59717">
        <ele>14.4</ele>
        <time>2020-06-07T09:22:02Z</time>
      </trkpt>
      <trkpt lat="47.26146" lon="-1.59717">
        <ele>14.4</ele>
        <time>2020-06-07T09:22:03Z</time>
      </trkpt>
      <trkpt lat="47.26147" lon="-1.59718">
        <ele>14.4</ele>
        <time>2020-06-07T09:22:04Z</time>
      </trkpt>
      <trkpt lat="47.26148" lon="-1.59718">
        <ele>14.4</ele>
        <time>2020-06-07T09:22:05Z</time>
      </trkpt>
      <trkpt lat="47.26149" lon="-1.59718">
        <ele>14.4</ele>
        <time>2020-06-07T09:22:06Z</time>
      </trkpt>
      <trkpt lat="47.2615" lon="-1.59718">
        <ele>14.4</ele>
        <time>2020-06-07T09:22:07Z</time>
      </trkpt>
      <trkpt lat="47.26151" lon="-1.59719">
        <ele>14.4</ele>
        <time>2020-06-07T09:22:08Z</time>
      </trkpt>
      <trkpt lat="47.26152" lon="-1.59719">
        <ele>14.4</ele>
        <time>2020-06-07T09:22:09Z</time>
      </trkpt>
      <trkpt lat="47.26153" lon="-1.59719">
        <ele>14.4</ele>
        <time>2020-06-07T09:22:10Z</time>
      </trkpt>
      <trkpt lat="47.26153" lon="-1.59719">
        <ele>14.4</ele>
        <time>2020-06-07T09:22:11Z</time>
      </trkpt>
      <trkpt lat="47.26154" lon="-1.5972">
        <ele>14.4</ele>
        <time>2020-06-07T09:22:12Z</time>
      </trkpt>
      <trkpt lat="47.26155" lon="-1.5972">
        <ele>14.4</ele>
        <time>2020-06-07T09:22:13Z</time>
      </trkpt>
      <trkpt lat="47.26156" lon="-1.5972">
        <ele>14.4</ele>
        <time>2020-06-07T09:22:14Z</time>
      </trkpt>
      <trkpt lat="47.26157" lon="-1.59721">
        <ele>14.4</ele>
        <time>2020-06-07T09:22:15Z</time>
      </trkpt>
      <trkpt lat="47.26158" lon="-1.59721">
        <ele>14.4</ele>
        <time>2020-06-07T09:22:16Z</time>
      </trkpt>
      <trkpt lat="47.26158" lon="-1.59721">
        <ele>14.3</ele>
        <time>2020-06-07T09:22:17Z</time>
      </trkpt>
      <trkpt lat="47.26159" lon="-1.59721">
        <ele>14.3</ele>
        <time>2020-06-07T09:22:18Z</time>
      </trkpt>
      <trkpt lat="47.2616" lon="-1.59722">
        <ele>14.3</ele>
        <time>2020-06-07T09:22:19Z</time>
      </trkpt>
      <trkpt lat="47.26161" lon="-1.59722">
        <ele>14.3</ele>
        <time>2020-06-07T09:22:20Z</time>
      </trkpt>
      <trkpt lat="47.26162" lon="-1.59722">
        <ele>14.3</ele>
        <time>2020-06-07T09:22:21Z</time>
      </trkpt>
      <trkpt lat="47.26163" lon="-1.59723">
        <ele>14.3</ele>
        <time>2020-06-07T09:22:22Z</time>
      </trkpt>
      <trkpt lat="47.26164" lon="-1.59723">
        <ele>14.3</ele>
        <time>2020-06-07T09:22:23Z</time>
      </trkpt>
      <trkpt lat="47.26165" lon="-1.59723">
        <ele>14.3</ele>
        <time>2020-06-07T09:22:24Z</time>
      </trkpt>
      <trkpt lat="47.26166" lon="-1.59723">
        <ele>14.3</ele>
        <time>2020-06-07T09:22:25Z</time>
      </trkpt>
      <trkpt lat="47.26167" lon="-1.59724">
        <ele>14.3</ele>
        <time>2020-06-07T09:22:26Z</time>
      </trkpt>
      <trkpt lat="47.26168" lon="-1.59724">
        <ele>14.3</ele>
        <time>2020-06-07T09:22:27Z</time>
      </trkpt>
      <trkpt lat="47.26169" lon="-1.59724">
        <ele>14.3</ele>
        <time>2020-06-07T09:22:28Z</time>
      </trkpt>
      <trkpt lat="47.2617" lon="-1.59724">
        <ele>14.3</ele>
        <time>2020-06-07T09:22:29Z</time>
      </trkpt>
      <trkpt lat="47.26171" lon="-1.59725">
        <ele>14.3</ele>
        <time>2020-06-07T09:22:30Z</time>
      </trkpt>
      <trkpt lat="47.26172" lon="-1.59725">
        <ele>14.3</ele>
        <time>2020-06-07T09:22:31Z</time>
      </trkpt>
      <trkpt lat="47.26173" lon="-1.59725">
        <ele>14.3</ele>
        <time>2020-06-07T09:22:32Z</time>
      </trkpt>
      <trkpt lat="47.26173" lon="-1.59725">
        <ele>14.3</ele>
        <time>2020-06-07T09:22:33Z</time>
      </trkpt>
      <trkpt lat="47.26174" lon="-1.59726">
        <ele>14.3</ele>
        <time>2020-06-07T09:22:34Z</time>
      </trkpt>
      <trkpt lat="47.26175" lon="-1.59726">
        <ele>14.3</ele>
        <time>2020-06-07T09:22:35Z</time>
      </trkpt>
      <trkpt lat="47.26175" lon="-1.59726">
        <ele>14.3</ele>
        <time>2020-06-07T09:22:36Z</time>
      </trkpt>
      <trkpt lat="47.26176" lon="-1.59726">
        <ele>14.2</ele>
        <time>2020-06-07T09:22:37Z</time>
      </trkpt>
      <trkpt lat="47.26177" lon="-1.59727">
        <ele>14.2</ele>
        <time>2020-06-07T09:22:38Z</time>
      </trkpt>
      <trkpt lat="47.26177" lon="-1.59727">
        <ele>14.2</ele>
        <time>2020-06-07T09:22:39Z</time>
      </trkpt>
      <trkpt lat="47.26178" lon="-1.59727">
        <ele>14.2</ele>
        <time>2020-06-07T09:22:40Z</time>
      </trkpt>
      <trkpt lat="47.26179" lon="-1.59727">
        <ele>14.2</ele>
        <time>2020-06-07T09:22:41Z</time>
      </trkpt>
      <trkpt lat="47.26179" lon="-1.59728">
        <ele>14.2</ele>
        <time>2020-06-07T09:22:42Z</time>
      </trkpt>
      <trkpt lat="47.2618" lon="-1.59728">
        <ele>14.2</ele>
        <time>2020-06-07T09:22:43Z</time>
      </trkpt>
      <trkpt lat="47.26181" lon="-1.59728">
        <ele>14.2</ele>
        <time>2020-06-07T09:22:44Z</time>
      </trkpt>
      <trkpt lat="47.26182" lon="-1.59729">
        <ele>14.2</ele>
        <time>2020-06-07T09:22:45Z</time>
      </trkpt>
      <trkpt lat="47.26182" lon="-1.59729">
        <ele>14.2</ele>
        <time>2020-06-07T09:22:46Z</time>
      </trkpt>
      <trkpt lat="47.26183" lon="-1.59729">
        <ele>14.2</ele>
        <time>2020-06-07T09:22:47Z</time>
      </trkpt>
      <trkpt lat="47.26184" lon="-1.5973">
        <ele>14.2</ele>
        <time>2020-06-07T09:22:48Z</time>
      </trkpt>
      <trkpt lat="47.26185" lon="-1.5973">
        <ele>14.2</ele>
        <time>2020-06-07T09:22:49Z</time>
      </trkpt>
      <trkpt lat="47.26186" lon="-1.5973">
        <ele>14.2</ele>
        <time>2020-06-07T09:22:50Z</time>
      </trkpt>
      <trkpt lat="47.26187" lon="-1.59731">
        <ele>14.2</ele>
        <time>2020-06-07T09:22:51Z</time>
      </trkpt>
      <trkpt lat="47.26188" lon="-1.59731">
        <ele>14.2</ele>
        <time>2020-06-07T09:22:52Z</time>
      </trkpt>
      <trkpt lat="47.26189" lon="-1.59731">
        <ele>14.2</ele>
        <time>2020-06-07T09:22:53Z</time>
      </trkpt>
      <trkpt lat="47.2619" lon="-1.59732">
        <ele>14.2</ele>
        <time>2020-06-07T09:22:54Z</time>
      </trkpt>
      <trkpt lat="47.26191" lon="-1.59732">
        <ele>14.1</ele>
        <time>2020-06-07T09:22:55Z</time>
      </trkpt>
      <trkpt lat="47.26192" lon="-1.59732">
        <ele>14.1</ele>
        <time>2020-06-07T09:22:56Z</time>
      </trkpt>
      <trkpt lat="47.26192" lon="-1.59733">
        <ele>14.1</ele>
        <time>2020-06-07T09:22:57Z</time>
      </trkpt>
      <trkpt lat="47.26193" lon="-1.59733">
        <ele>14.1</ele>
        <time>2020-06-07T09:22:58Z</time>
      </trkpt>
      <trkpt lat="47.26194" lon="-1.59733">
        <ele>14.1</ele>
        <time>2020-06-07T09:22:59Z</time>
      </trkpt>
      <trkpt lat="47.26195" lon="-1.59734">
        <ele>14.1</ele>
        <time>2020-06-07T09:23:00Z</time>
      </trkpt>
      <trkpt lat="47.26196" lon="-1.59734">
        <ele>14.1</ele>
        <time>2020-06-07T09:23:01Z</time>
      </trkpt>
      <trkpt lat="47.26197" lon="-1.59734">
        <ele>14.1</ele>
        <time>2020-06-07T09:23:02Z</time>
      </trkpt>
      <trkpt lat="47.26198" lon="-1.59735">
        <ele>14.1</ele>
        <time>2020-06-07T09:23:03Z</time>
      </trkpt>
      <trkpt lat="47.26199" lon="-1.59735">
        <ele>14.1</ele>
        <time>2020-06-07T09:23:04Z</time>
      </trkpt>
      <trkpt lat="47.262" lon="-1.59736">
        <ele>14.1</ele>
        <time>2020-06-07T09:23:05Z</time>
      </trkpt>
      <trkpt lat="47.26201" lon="-1.59736">
        <ele>14.1</ele>
        <time>2020-06-07T09:23:06Z</time>
      </trkpt>
      <trkpt lat="47.26202" lon="-1.59737">
        <ele>14.1</ele>
        <time>2020-06-07T09:23:07Z</time>
      </trkpt>
      <trkpt lat="47.26203" lon="-1.59737">
        <ele>14</ele>
        <time>2020-06-07T09:23:08Z</time>
      </trkpt>
      <trkpt lat="47.26204" lon="-1.59738">
        <ele>14</ele>
        <time>2020-06-07T09:23:09Z</time>
      </trkpt>
      <trkpt lat="47.26205" lon="-1.59738">
        <ele>14</ele>
        <time>2020-06-07T09:23:10Z</time>
      </trkpt>
      <trkpt lat="47.26206" lon="-1.59739">
        <ele>14</ele>
        <time>2020-06-07T09:23:11Z</time>
      </trkpt>
      <trkpt lat="47.26207" lon="-1.5974">
        <ele>14</ele>
        <time>2020-06-07T09:23:12Z</time>
      </trkpt>
      <trkpt lat="47.26208" lon="-1.5974">
        <ele>14</ele>
        <time>2020-06-07T09:23:13Z</time>
      </trkpt>
      <trkpt lat="47.26209" lon="-1.59741">
        <ele>13.9</ele>
        <time>2020-06-07T09:23:14Z</time>
      </trkpt>
      <trkpt lat="47.26209" lon="-1.59742">
        <ele>13.9</ele>
        <time>2020-06-07T09:23:15Z</time>
      </trkpt>
      <trkpt lat="47.2621" lon="-1.59743">
        <ele>13.9</ele>
        <time>2020-06-07T09:23:16Z</time>
      </trkpt>
      <trkpt lat="47.26211" lon="-1.59743">
        <ele>13.9</ele>
        <time>2020-06-07T09:23:17Z</time>
      </trkpt>
      <trkpt lat="47.26212" lon="-1.59744">
        <ele>13.8</ele>
        <time>2020-06-07T09:23:18Z</time>
      </trkpt>
      <trkpt lat="47.26213" lon="-1.59745">
        <ele>13.8</ele>
        <time>2020-06-07T09:23:19Z</time>
      </trkpt>
      <trkpt lat="47.26214" lon="-1.59746">
        <ele>13.8</ele>
        <time>2020-06-07T09:23:20Z</time>
      </trkpt>
      <trkpt lat="47.26215" lon="-1.59747">
        <ele>13.7</ele>
        <time>2020-06-07T09:23:21Z</time>
      </trkpt>
      <trkpt lat="47.26216" lon="-1.59748">
        <ele>13.7</ele>
        <time>2020-06-07T09:23:22Z</time>
      </trkpt>
      <trkpt lat="47.26217" lon="-1.59748">
        <ele>13.7</ele>
        <time>2020-06-07T09:23:23Z</time>
      </trkpt>
      <trkpt lat="47.26218" lon="-1.59749">
        <ele>13.6</ele>
        <time>2020-06-07T09:23:24Z</time>
      </trkpt>
      <trkpt lat="47.26219" lon="-1.5975">
        <ele>13.6</ele>
        <time>2020-06-07T09:23:25Z</time>
      </trkpt>
      <trkpt lat="47.26219" lon="-1.59751">
        <ele>13.6</ele>
        <time>2020-06-07T09:23:26Z</time>
      </trkpt>
      <trkpt lat="47.2622" lon="-1.59752">
        <ele>13.7</ele>
        <time>2020-06-07T09:23:27Z</time>
      </trkpt>
      <trkpt lat="47.26221" lon="-1.59753">
        <ele>13.7</ele>
        <time>2020-06-07T09:23:28Z</time>
      </trkpt>
      <trkpt lat="47.26222" lon="-1.59754">
        <ele>13.7</ele>
        <time>2020-06-07T09:23:29Z</time>
      </trkpt>
      <trkpt lat="47.26222" lon="-1.59755">
        <ele>13.7</ele>
        <time>2020-06-07T09:23:30Z</time>
      </trkpt>
      <trkpt lat="47.26223" lon="-1.59756">
        <ele>13.8</ele>
        <time>2020-06-07T09:23:31Z</time>
      </trkpt>
      <trkpt lat="47.26224" lon="-1.59757">
        <ele>13.8</ele>
        <time>2020-06-07T09:23:32Z</time>
      </trkpt>
      <trkpt lat="47.26225" lon="-1.59758">
        <ele>13.8</ele>
        <time>2020-06-07T09:23:33Z</time>
      </trkpt>
      <trkpt lat="47.26225" lon="-1.59759">
        <ele>13.8</ele>
        <time>2020-06-07T09:23:34Z</time>
      </trkpt>
      <trkpt lat="47.26226" lon="-1.5976">
        <ele>13.8</ele>
        <time>2020-06-07T09:23:35Z</time>
      </trkpt>
      <trkpt lat="47.26227" lon="-1.59761">
        <ele>13.9</ele>
        <time>2020-06-07T09:23:36Z</time>
      </trkpt>
      <trkpt lat="47.26227" lon="-1.59762">
        <ele>13.9</ele>
        <time>2020-06-07T09:23:37Z</time>
      </trkpt>
      <trkpt lat="47.26228" lon="-1.59763">
        <ele>13.9</ele>
        <time>2020-06-07T09:23:38Z</time>
      </trkpt>
      <trkpt lat="47.26229" lon="-1.59764">
        <ele>13.9</ele>
        <time>2020-06-07T09:23:39Z</time>
      </trkpt>
      <trkpt lat="47.26229" lon="-1.59765">
        <ele>13.9</ele>
        <time>2020-06-07T09:23:40Z</time>
      </trkpt>
      <trkpt lat="47.2623" lon="-1.59766">
        <ele>14</ele>
        <time>2020-06-07T09:23:41Z</time>
      </trkpt>
      <trkpt lat="47.26231" lon="-1.59767">
        <ele>14</ele>
        <time>2020-06-07T09:23:42Z</time>
      </trkpt>
      <trkpt lat="47.26231" lon="-1.59768">
        <ele>14</ele>
        <time>2020-06-07T09:23:43Z</time>
      </trkpt>
      <trkpt lat="47.26232" lon="-1.59769">
        <ele>14</ele>
        <time>2020-06-07T09:23:44Z</time>
      </trkpt>
      <trkpt lat="47.26233" lon="-1.5977">
        <ele>14</ele>
        <time>2020-06-07T09:23:45Z</time>
      </trkpt>
      <trkpt lat="47.26234" lon="-1.59771">
        <ele>14.1</ele>
        <time>2020-06-07T09:23:46Z</time>
      </trkpt>
      <trkpt lat="47.26234" lon="-1.59772">
        <ele>14.1</ele>
        <time>2020-06-07T09:23:47Z</time>
      </trkpt>
      <trkpt lat="47.26235" lon="-1.59773">
        <ele>14.1</ele>
        <time>2020-06-07T09:23:48Z</time>
      </trkpt>
      <trkpt lat="47.26236" lon="-1.59774">
        <ele>14.1</ele>
        <time>2020-06-07T09:23:49Z</time>
      </trkpt>
      <trkpt lat="47.26236" lon="-1.59775">
        <ele>14.1</ele>
        <time>2020-06-07T09:23:50Z</time>
      </trkpt>
      <trkpt lat="47.26237" lon="-1.59776">
        <ele>14.2</ele>
        <time>2020-06-07T09:23:51Z</time>
      </trkpt>
      <trkpt lat="47.26238" lon="-1.59777">
        <ele>14.2</ele>
        <time>2020-06-07T09:23:52Z</time>
      </trkpt>
      <trkpt lat="47.26239" lon="-1.59778">
        <ele>14.2</ele>
        <time>2020-06-07T09:23:53Z</time>
      </trkpt>
      <trkpt lat="47.26239" lon="-1.5978">
        <ele>14.2</ele>
        <time>2020-06-07T09:23:54Z</time>
      </trkpt>
      <trkpt lat="47.2624" lon="-1.59781">
        <ele>14.2</ele>
        <time>2020-06-07T09:23:55Z</time>
      </trkpt>
      <trkpt lat="47.26241" lon="-1.59782">
        <ele>14.3</ele>
        <time>2020-06-07T09:23:56Z</time>
      </trkpt>
      <trkpt lat="47.26242" lon="-1.59783">
        <ele>14.3</ele>
        <time>2020-06-07T09:23:57Z</time>
      </trkpt>
      <trkpt lat="47.26242" lon="-1.59784">
        <ele>14.3</ele>
        <time>2020-06-07T09:23:58Z</time>
      </trkpt>
      <trkpt lat="47.26243" lon="-1.59785">
        <ele>14.3</ele>
        <time>2020-06-07T09:23:59Z</time>
      </trkpt>
      <trkpt lat="47.26244" lon="-1.59786">
        <ele>14.4</ele>
        <time>2020-06-07T09:24:00Z</time>
      </trkpt>
      <trkpt lat="47.26244" lon="-1.59788">
        <ele>14.4</ele>
        <time>2020-06-07T09:24:01Z</time>
      </trkpt>
      <trkpt lat="47.26245" lon="-1.59789">
        <ele>14.4</ele>
        <time>2020-06-07T09:24:02Z</time>
      </trkpt>
      <trkpt lat="47.26246" lon="-1.5979">
        <ele>14.4</ele>
        <time>2020-06-07T09:24:03Z</time>
      </trkpt>
      <trkpt lat="47.26246" lon="-1.59791">
        <ele>14.4</ele>
        <time>2020-06-07T09:24:04Z</time>
      </trkpt>
      <trkpt lat="47.26247" lon="-1.59793">
        <ele>14.5</ele>
        <time>2020-06-07T09:24:05Z</time>
      </trkpt>
      <trkpt lat="47.26247" lon="-1.59794">
        <ele>14.5</ele>
        <time>2020-06-07T09:24:06Z</time>
      </trkpt>
      <trkpt lat="47.26248" lon="-1.59795">
        <ele>14.5</ele>
        <time>2020-06-07T09:24:07Z</time>
      </trkpt>
      <trkpt lat="47.26249" lon="-1.59796">
        <ele>14.5</ele>
        <time>2020-06-07T09:24:08Z</time>
      </trkpt>
      <trkpt lat="47.26249" lon="-1.59798">
        <ele>14.6</ele>
        <time>2020-06-07T09:24:09Z</time>
      </trkpt>
      <trkpt lat="47.2625" lon="-1.59799">
        <ele>14.6</ele>
        <time>2020-06-07T09:24:10Z</time>
      </trkpt>
      <trkpt lat="47.2625" lon="-1.598">
        <ele>14.6</ele>
        <time>2020-06-07T09:24:11Z</time>
      </trkpt>
      <trkpt lat="47.26251" lon="-1.59801">
        <ele>14.7</ele>
        <time>2020-06-07T09:24:12Z</time>
      </trkpt>
      <trkpt lat="47.26251" lon="-1.59802">
        <ele>14.7</ele>
        <time>2020-06-07T09:24:13Z</time>
      </trkpt>
      <trkpt lat="47.26251" lon="-1.59804">
        <ele>14.8</ele>
        <time>2020-06-07T09:24:14Z</time>
      </trkpt>
      <trkpt lat="47.26252" lon="-1.59805">
        <ele>14.9</ele>
        <time>2020-06-07T09:24:15Z</time>
      </trkpt>
      <trkpt lat="47.26252" lon="-1.59806">
        <ele>14.9</ele>
        <time>2020-06-07T09:24:16Z</time>
      </trkpt>
      <trkpt lat="47.26252" lon="-1.59807">
        <ele>15</ele>
        <time>2020-06-07T09:24:17Z</time>
      </trkpt>
      <trkpt lat="47.26253" lon="-1.59808">
        <ele>15</ele>
        <time>2020-06-07T09:24:18Z</time>
      </trkpt>
      <trkpt lat="47.26253" lon="-1.59808">
        <ele>15</ele>
        <time>2020-06-07T09:24:19Z</time>
      </trkpt>
      <trkpt lat="47.26253" lon="-1.59809">
        <ele>15.1</ele>
        <time>2020-06-07T09:24:20Z</time>
      </trkpt>
      <trkpt lat="47.26253" lon="-1.5981">
        <ele>15.1</ele>
        <time>2020-06-07T09:24:21Z</time>
      </trkpt>
      <trkpt lat="47.26253" lon="-1.59811">
        <ele>15.2</ele>
        <time>2020-06-07T09:24:22Z</time>
      </trkpt>
      <trkpt lat="47.26254" lon="-1.59812">
        <ele>15.2</ele>
        <time>2020-06-07T09:24:23Z</time>
      </trkpt>
      <trkpt lat="47.26254" lon="-1.59813">
        <ele>15.3</ele>
        <time>2020-06-07T09:24:24Z</time>
      </trkpt>
      <trkpt lat="47.26255" lon="-1.59814">
        <ele>15.4</ele>
        <time>2020-06-07T09:24:25Z</time>
      </trkpt>
      <trkpt lat="47.26255" lon="-1.59815">
        <ele>15.5</ele>
        <time>2020-06-07T09:24:26Z</time>
      </trkpt>
      <trkpt lat="47.26256" lon="-1.59816">
        <ele>15.5</ele>
        <time>2020-06-07T09:24:27Z</time>
      </trkpt>
      <trkpt lat="47.26256" lon="-1.59817">
        <ele>15.6</ele>
        <time>2020-06-07T09:24:28Z</time>
      </trkpt>
      <trkpt lat="47.26257" lon="-1.59819">
        <ele>15.7</ele>
        <time>2020-06-07T09:24:29Z</time>
      </trkpt>
      <trkpt lat="47.26257" lon="-1.5982">
        <ele>15.7</ele>
        <time>2020-06-07T09:24:30Z</time>
      </trkpt>
      <trkpt lat="47.26257" lon="-1.59821">
        <ele>15.7</ele>
        <time>2020-06-07T09:24:31Z</time>
      </trkpt>
      <trkpt lat="47.26257" lon="-1.59822">
        <ele>15.8</ele>
        <time>2020-06-07T09:24:32Z</time>
      </trkpt>
      <trkpt lat="47.26256" lon="-1.59823">
        <ele>15.7</ele>
        <time>2020-06-07T09:24:33Z</time>
      </trkpt>
      <trkpt lat="47.26256" lon="-1.59824">
        <ele>15.7</ele>
        <time>2020-06-07T09:24:34Z</time>
      </trkpt>
      <trkpt lat="47.26255" lon="-1.59826">
        <ele>15.6</ele>
        <time>2020-06-07T09:24:35Z</time>
      </trkpt>
      <trkpt lat="47.26255" lon="-1.59827">
        <ele>15.6</ele>
        <time>2020-06-07T09:24:36Z</time>
      </trkpt>
      <trkpt lat="47.26254" lon="-1.59828">
        <ele>15.5</ele>
        <time>2020-06-07T09:24:37Z</time>
      </trkpt>
      <trkpt lat="47.26254" lon="-1.59829">
        <ele>15.5</ele>
        <time>2020-06-07T09:24:38Z</time>
      </trkpt>
      <trkpt lat="47.26254" lon="-1.59831">
        <ele>15.4</ele>
        <time>2020-06-07T09:24:39Z</time>
      </trkpt>
      <trkpt lat="47.26253" lon="-1.59832">
        <ele>15.4</ele>
        <time>2020-06-07T09:24:40Z</time>
      </trkpt>
      <trkpt lat="47.26253" lon="-1.59833">
        <ele>15.4</ele>
        <time>2020-06-07T09:24:41Z</time>
      </trkpt>
      <trkpt lat="47.26253" lon="-1.59834">
        <ele>15.4</ele>
        <time>2020-06-07T09:24:42Z</time>
      </trkpt>
      <trkpt lat="47.26253" lon="-1.59836">
        <ele>15.4</ele>
        <time>2020-06-07T09:24:43Z</time>
      </trkpt>
      <trkpt lat="47.26252" lon="-1.59837">
        <ele>15.3</ele>
        <time>2020-06-07T09:24:44Z</time>
      </trkpt>
      <trkpt lat="47.26252" lon="-1.59838">
        <ele>15.3</ele>
        <time>2020-06-07T09:24:45Z</time>
      </trkpt>
      <trkpt lat="47.26252" lon="-1.59839">
        <ele>15.4</ele>
        <time>2020-06-07T09:24:46Z</time>
      </trkpt>
      <trkpt lat="47.26252" lon="-1.5984">
        <ele>15.4</ele>
        <time>2020-06-07T09:24:47Z</time>
      </trkpt>
      <trkpt lat="47.26252" lon="-1.59842">
        <ele>15.4</ele>
        <time>2020-06-07T09:24:48Z</time>
      </trkpt>
      <trkpt lat="47.26252" lon="-1.59843">
        <ele>15.4</ele>
        <time>2020-06-07T09:24:49Z</time>
      </trkpt>
      <trkpt lat="47.26252" lon="-1.59844">
        <ele>15.4</ele>
        <time>2020-06-07T09:24:50Z</time>
      </trkpt>
      <trkpt lat="47.26252" lon="-1.59845">
        <ele>15.4</ele>
        <time>2020-06-07T09:24:51Z</time>
      </trkpt>
      <trkpt lat="47.26252" lon="-1.59846">
        <ele>15.4</ele>
        <time>2020-06-07T09:24:52Z</time>
      </trkpt>
      <trkpt lat="47.26252" lon="-1.59847">
        <ele>15.5</ele>
        <time>2020-06-07T09:24:53Z</time>
      </trkpt>
      <trkpt lat="47.26252" lon="-1.59848">
        <ele>15.5</ele>
        <time>2020-06-07T09:24:54Z</time>
      </trkpt>
      <trkpt lat="47.26252" lon="-1.59849">
        <ele>15.5</ele>
        <time>2020-06-07T09:24:55Z</time>
      </trkpt>
      <trkpt lat="47.26252" lon="-1.5985">
        <ele>15.5</ele>
        <time>2020-06-07T09:24:56Z</time>
      </trkpt>
      <trkpt lat="47.26252" lon="-1.59851">
        <ele>15.5</ele>
        <time>2020-06-07T09:24:57Z</time>
      </trkpt>
      <trkpt lat="47.26253" lon="-1.59852">
        <ele>15.6</ele>
        <time>2020-06-07T09:24:58Z</time>
      </trkpt>
      <trkpt lat="47.26253" lon="-1.59853">
        <ele>15.6</ele>
        <time>2020-06-07T09:24:59Z</time>
      </trkpt>
      <trkpt lat="47.26253" lon="-1.59854">
        <ele>15.6</ele>
        <time>2020-06-07T09:25:00Z</time>
      </trkpt>
      <trkpt lat="47.26253" lon="-1.59855">
        <ele>15.6</ele>
        <time>2020-06-07T09:25:01Z</time>
      </trkpt>
      <trkpt lat="47.26253" lon="-1.59856">
        <ele>15.6</ele>
        <time>2020-06-07T09:25:02Z</time>
      </trkpt>
      <trkpt lat="47.26253" lon="-1.59857">
        <ele>15.6</ele>
        <time>2020-06-07T09:25:03Z</time>
      </trkpt>
      <trkpt lat="47.26253" lon="-1.59858">
        <ele>15.6</ele>
        <time>2020-06-07T09:25:04Z</time>
      </trkpt>
      <trkpt lat="47.26252" lon="-1.59859">
        <ele>15.6</ele>
        <time>2020-06-07T09:25:05Z</time>
      </trkpt>
      <trkpt lat="47.26252" lon="-1.5986">
        <ele>15.6</ele>
        <time>2020-06-07T09:25:06Z</time>
      </trkpt>
      <trkpt lat="47.26252" lon="-1.59861">
        <ele>15.6</ele>
        <time>2020-06-07T09:25:07Z</time>
      </trkpt>
      <trkpt lat="47.26252" lon="-1.59862">
        <ele>15.6</ele>
        <time>2020-06-07T09:25:08Z</time>
      </trkpt>
      <trkpt lat="47.26252" lon="-1.59863">
        <ele>15.6</ele>
        <time>2020-06-07T09:25:09Z</time>
      </trkpt>
      <trkpt lat="47.26252" lon="-1.59864">
        <ele>15.6</ele>
        <time>2020-06-07T09:25:10Z</time>
      </trkpt>
      <trkpt lat="47.26252" lon="-1.59865">
        <ele>15.6</ele>
        <time>2020-06-07T09:25:11Z</time>
      </trkpt>
      <trkpt lat="47.26252" lon="-1.59866">
        <ele>15.6</ele>
        <time>2020-06-07T09:25:12Z</time>
      </trkpt>
      <trkpt lat="47.26251" lon="-1.59868">
        <ele>15.6</ele>
        <time>2020-06-07T09:25:13Z</time>
      </trkpt>
      <trkpt lat="47.26251" lon="-1.59869">
        <ele>15.6</ele>
        <time>2020-06-07T09:25:14Z</time>
      </trkpt>
      <trkpt lat="47.26251" lon="-1.5987">
        <ele>15.6</ele>
        <time>2020-06-07T09:25:15Z</time>
      </trkpt>
      <trkpt lat="47.26251" lon="-1.59871">
        <ele>15.6</ele>
        <time>2020-06-07T09:25:16Z</time>
      </trkpt>
      <trkpt lat="47.26251" lon="-1.59872">
        <ele>15.6</ele>
        <time>2020-06-07T09:25:17Z</time>
      </trkpt>
      <trkpt lat="47.26251" lon="-1.59874">
        <ele>15.6</ele>
        <time>2020-06-07T09:25:18Z</time>
      </trkpt>
      <trkpt lat="47.26251" lon="-1.59875">
        <ele>15.6</ele>
        <time>2020-06-07T09:25:19Z</time>
      </trkpt>
      <trkpt lat="47.26251" lon="-1.59876">
        <ele>15.6</ele>
        <time>2020-06-07T09:25:20Z</time>
      </trkpt>
      <trkpt lat="47.26251" lon="-1.59877">
        <ele>15.6</ele>
        <time>2020-06-07T09:25:21Z</time>
      </trkpt>
      <trkpt lat="47.26251" lon="-1.59879">
        <ele>15.6</ele>
        <time>2020-06-07T09:25:22Z</time>
      </trkpt>
      <trkpt lat="47.26251" lon="-1.5988">
        <ele>15.6</ele>
        <time>2020-06-07T09:25:23Z</time>
      </trkpt>
      <trkpt lat="47.2625" lon="-1.59881">
        <ele>15.6</ele>
        <time>2020-06-07T09:25:24Z</time>
      </trkpt>
      <trkpt lat="47.2625" lon="-1.59883">
        <ele>15.7</ele>
        <time>2020-06-07T09:25:25Z</time>
      </trkpt>
      <trkpt lat="47.2625" lon="-1.59884">
        <ele>15.7</ele>
        <time>2020-06-07T09:25:26Z</time>
      </trkpt>
      <trkpt lat="47.2625" lon="-1.59885">
        <ele>15.7</ele>
        <time>2020-06-07T09:25:27Z</time>
      </trkpt>
      <trkpt lat="47.2625" lon="-1.59887">
        <ele>15.7</ele>
        <time>2020-06-07T09:25:28Z</time>
      </trkpt>
      <trkpt lat="47.2625" lon="-1.59888">
        <ele>15.7</ele>
        <time>2020-06-07T09:25:29Z</time>
      </trkpt>
      <trkpt lat="47.2625" lon="-1.59889">
        <ele>15.7</ele>
        <time>2020-06-07T09:25:30Z</time>
      </trkpt>
      <trkpt lat="47.2625" lon="-1.59891">
        <ele>15.7</ele>
        <time>2020-06-07T09:25:31Z</time>
      </trkpt>
      <trkpt lat="47.2625" lon="-1.59892">
        <ele>15.7</ele>
        <time>2020-06-07T09:25:32Z</time>
      </trkpt>
      <trkpt lat="47.2625" lon="-1.59893">
        <ele>15.7</ele>
        <time>2020-06-07T09:25:33Z</time>
      </trkpt>
      <trkpt lat="47.2625" lon="-1.59895">
        <ele>15.7</ele>
        <time>2020-06-07T09:25:34Z</time>
      </trkpt>
      <trkpt lat="47.26249" lon="-1.59896">
        <ele>15.8</ele>
        <time>2020-06-07T09:25:35Z</time>
      </trkpt>
      <trkpt lat="47.26249" lon="-1.59897">
        <ele>15.8</ele>
        <time>2020-06-07T09:25:36Z</time>
      </trkpt>
      <trkpt lat="47.26249" lon="-1.59899">
        <ele>15.8</ele>
        <time>2020-06-07T09:25:37Z</time>
      </trkpt>
      <trkpt lat="47.26249" lon="-1.599">
        <ele>15.8</ele>
        <time>2020-06-07T09:25:38Z</time>
      </trkpt>
      <trkpt lat="47.26249" lon="-1.59901">
        <ele>15.8</ele>
        <time>2020-06-07T09:25:39Z</time>
      </trkpt>
      <trkpt lat="47.26249" lon="-1.59903">
        <ele>15.9</ele>
        <time>2020-06-07T09:25:40Z</time>
      </trkpt>
      <trkpt lat="47.26249" lon="-1.59904">
        <ele>15.9</ele>
        <time>2020-06-07T09:25:41Z</time>
      </trkpt>
      <trkpt lat="47.26249" lon="-1.59905">
        <ele>15.9</ele>
        <time>2020-06-07T09:25:42Z</time>
      </trkpt>
      <trkpt lat="47.26249" lon="-1.59907">
        <ele>15.9</ele>
        <time>2020-06-07T09:25:43Z</time>
      </trkpt>
      <trkpt lat="47.26249" lon="-1.59908">
        <ele>15.9</ele>
        <time>2020-06-07T09:25:44Z</time>
      </trkpt>
      <trkpt lat="47.26248" lon="-1.59909">
        <ele>15.9</ele>
        <time>2020-06-07T09:25:45Z</time>
      </trkpt>
      <trkpt lat="47.26248" lon="-1.59911">
        <ele>16</ele>
        <time>2020-06-07T09:25:46Z</time>
      </trkpt>
      <trkpt lat="47.26248" lon="-1.59912">
        <ele>16</ele>
        <time>2020-06-07T09:25:47Z</time>
      </trkpt>
      <trkpt lat="47.26248" lon="-1.59913">
        <ele>16</ele>
        <time>2020-06-07T09:25:48Z</time>
      </trkpt>
      <trkpt lat="47.26248" lon="-1.59915">
        <ele>16</ele>
        <time>2020-06-07T09:25:49Z</time>
      </trkpt>
      <trkpt lat="47.26248" lon="-1.59916">
        <ele>16</ele>
        <time>2020-06-07T09:25:50Z</time>
      </trkpt>
      <trkpt lat="47.26248" lon="-1.59917">
        <ele>16.1</ele>
        <time>2020-06-07T09:25:51Z</time>
      </trkpt>
      <trkpt lat="47.26248" lon="-1.59918">
        <ele>16.1</ele>
        <time>2020-06-07T09:25:52Z</time>
      </trkpt>
      <trkpt lat="47.26248" lon="-1.5992">
        <ele>16.1</ele>
        <time>2020-06-07T09:25:53Z</time>
      </trkpt>
      <trkpt lat="47.26248" lon="-1.59921">
        <ele>16.1</ele>
        <time>2020-06-07T09:25:54Z</time>
      </trkpt>
      <trkpt lat="47.26247" lon="-1.59922">
        <ele>16.1</ele>
        <time>2020-06-07T09:25:55Z</time>
      </trkpt>
      <trkpt lat="47.26247" lon="-1.59924">
        <ele>16.2</ele>
        <time>2020-06-07T09:25:56Z</time>
      </trkpt>
      <trkpt lat="47.26247" lon="-1.59925">
        <ele>16.2</ele>
        <time>2020-06-07T09:25:57Z</time>
      </trkpt>
      <trkpt lat="47.26247" lon="-1.59926">
        <ele>16.2</ele>
        <time>2020-06-07T09:25:58Z</time>
      </trkpt>
      <trkpt lat="47.26246" lon="-1.59927">
        <ele>16.2</ele>
        <time>2020-06-07T09:25:59Z</time>
      </trkpt>
      <trkpt lat="47.26246" lon="-1.59928">
        <ele>16.2</ele>
        <time>2020-06-07T09:26:00Z</time>
      </trkpt>
      <trkpt lat="47.26246" lon="-1.5993">
        <ele>16.3</ele>
        <time>2020-06-07T09:26:01Z</time>
      </trkpt>
      <trkpt lat="47.26246" lon="-1.59931">
        <ele>16.3</ele>
        <time>2020-06-07T09:26:02Z</time>
      </trkpt>
      <trkpt lat="47.26245" lon="-1.59932">
        <ele>16.3</ele>
        <time>2020-06-07T09:26:03Z</time>
      </trkpt>
      <trkpt lat="47.26245" lon="-1.59933">
        <ele>16.3</ele>
        <time>2020-06-07T09:26:04Z</time>
      </trkpt>
      <trkpt lat="47.26244" lon="-1.59934">
        <ele>16.4</ele>
        <time>2020-06-07T09:26:05Z</time>
      </trkpt>
      <trkpt lat="47.26244" lon="-1.59935">
        <ele>16.4</ele>
        <time>2020-06-07T09:26:06Z</time>
      </trkpt>
      <trkpt lat="47.26243" lon="-1.59936">
        <ele>16.4</ele>
        <time>2020-06-07T09:26:07Z</time>
      </trkpt>
      <trkpt lat="47.26243" lon="-1.59937">
        <ele>16.5</ele>
        <time>2020-06-07T09:26:08Z</time>
      </trkpt>
      <trkpt lat="47.26242" lon="-1.59938">
        <ele>16.5</ele>
        <time>2020-06-07T09:26:09Z</time>
      </trkpt>
      <trkpt lat="47.26242" lon="-1.59939">
        <ele>16.5</ele>
        <time>2020-06-07T09:26:10Z</time>
      </trkpt>
      <trkpt lat="47.26241" lon="-1.5994">
        <ele>16.6</ele>
        <time>2020-06-07T09:26:11Z</time>
      </trkpt>
      <trkpt lat="47.26241" lon="-1.59941">
        <ele>16.6</ele>
        <time>2020-06-07T09:26:12Z</time>
      </trkpt>
      <trkpt lat="47.2624" lon="-1.59942">
        <ele>16.6</ele>
        <time>2020-06-07T09:26:13Z</time>
      </trkpt>
      <trkpt lat="47.2624" lon="-1.59943">
        <ele>16.6</ele>
        <time>2020-06-07T09:26:14Z</time>
      </trkpt>
      <trkpt lat="47.26239" lon="-1.59944">
        <ele>16.7</ele>
        <time>2020-06-07T09:26:15Z</time>
      </trkpt>
      <trkpt lat="47.26239" lon="-1.59945">
        <ele>16.7</ele>
        <time>2020-06-07T09:26:16Z</time>
      </trkpt>
      <trkpt lat="47.26238" lon="-1.59946">
        <ele>16.7</ele>
        <time>2020-06-07T09:26:17Z</time>
      </trkpt>
      <trkpt lat="47.26238" lon="-1.59947">
        <ele>16.8</ele>
        <time>2020-06-07T09:26:18Z</time>
      </trkpt>
      <trkpt lat="47.26238" lon="-1.59948">
        <ele>16.8</ele>
        <time>2020-06-07T09:26:19Z</time>
      </trkpt>
      <trkpt lat="47.26237" lon="-1.59949">
        <ele>16.8</ele>
        <time>2020-06-07T09:26:20Z</time>
      </trkpt>
      <trkpt lat="47.26237" lon="-1.5995">
        <ele>16.8</ele>
        <time>2020-06-07T09:26:21Z</time>
      </trkpt>
      <trkpt lat="47.26237" lon="-1.59951">
        <ele>16.9</ele>
        <time>2020-06-07T09:26:22Z</time>
      </trkpt>
      <trkpt lat="47.26236" lon="-1.59952">
        <ele>16.9</ele>
        <time>2020-06-07T09:26:23Z</time>
      </trkpt>
      <trkpt lat="47.26236" lon="-1.59953">
        <ele>16.9</ele>
        <time>2020-06-07T09:26:24Z</time>
      </trkpt>
      <trkpt lat="47.26236" lon="-1.59954">
        <ele>16.9</ele>
        <time>2020-06-07T09:26:25Z</time>
      </trkpt>
      <trkpt lat="47.26235" lon="-1.59955">
        <ele>17</ele>
        <time>2020-06-07T09:26:26Z</time>
      </trkpt>
      <trkpt lat="47.26235" lon="-1.59957">
        <ele>17</ele>
        <time>2020-06-07T09:26:27Z</time>
      </trkpt>
      <trkpt lat="47.26235" lon="-1.59958">
        <ele>17</ele>
        <time>2020-06-07T09:26:28Z</time>
      </trkpt>
      <trkpt lat="47.26234" lon="-1.59959">
        <ele>17.1</ele>
        <time>2020-06-07T09:26:29Z</time>
      </trkpt>
      <trkpt lat="47.26234" lon="-1.5996">
        <ele>17.1</ele>
        <time>2020-06-07T09:26:30Z</time>
      </trkpt>
      <trkpt lat="47.26233" lon="-1.59961">
        <ele>17.1</ele>
        <time>2020-06-07T09:26:31Z</time>
      </trkpt>
      <trkpt lat="47.26233" lon="-1.59962">
        <ele>17.2</ele>
        <time>2020-06-07T09:26:32Z</time>
      </trkpt>
      <trkpt lat="47.26232" lon="-1.59962">
        <ele>17.2</ele>
        <time>2020-06-07T09:26:33Z</time>
      </trkpt>
      <trkpt lat="47.26232" lon="-1.59963">
        <ele>17.2</ele>
        <time>2020-06-07T09:26:34Z</time>
      </trkpt>
      <trkpt lat="47.26231" lon="-1.59964">
        <ele>17.3</ele>
        <time>2020-06-07T09:26:35Z</time>
      </trkpt>
      <trkpt lat="47.26231" lon="-1.59965">
        <ele>17.3</ele>
        <time>2020-06-07T09:26:36Z</time>
      </trkpt>
      <trkpt lat="47.2623" lon="-1.59966">
        <ele>17.4</ele>
        <time>2020-06-07T09:26:37Z</time>
      </trkpt>
      <trkpt lat="47.26229" lon="-1.59967">
        <ele>17.4</ele>
        <time>2020-06-07T09:26:38Z</time>
      </trkpt>
      <trkpt lat="47.26229" lon="-1.59968">
        <ele>17.4</ele>
        <time>2020-06-07T09:26:39Z</time>
      </trkpt>
      <trkpt lat="47.26228" lon="-1.59968">
        <ele>17.5</ele>
        <time>2020-06-07T09:26:40Z</time>
      </trkpt>
      <trkpt lat="47.26227" lon="-1.59969">
        <ele>17.5</ele>
        <time>2020-06-07T09:26:41Z</time>
      </trkpt>
      <trkpt lat="47.26227" lon="-1.5997">
        <ele>17.6</ele>
        <time>2020-06-07T09:26:42Z</time>
      </trkpt>
      <trkpt lat="47.26226" lon="-1.59971">
        <ele>17.6</ele>
        <time>2020-06-07T09:26:43Z</time>
      </trkpt>
      <trkpt lat="47.26225" lon="-1.59972">
        <ele>17.6</ele>
        <time>2020-06-07T09:26:44Z</time>
      </trkpt>
      <trkpt lat="47.26225" lon="-1.59973">
        <ele>17.7</ele>
        <time>2020-06-07T09:26:45Z</time>
      </trkpt>
      <trkpt lat="47.26224" lon="-1.59974">
        <ele>17.7</ele>
        <time>2020-06-07T09:26:46Z</time>
      </trkpt>
      <trkpt lat="47.26224" lon="-1.59974">
        <ele>17.8</ele>
        <time>2020-06-07T09:26:47Z</time>
      </trkpt>
      <trkpt lat="47.26223" lon="-1.59975">
        <ele>17.8</ele>
        <time>2020-06-07T09:26:48Z</time>
      </trkpt>
      <trkpt lat="47.26222" lon="-1.59976">
        <ele>17.8</ele>
        <time>2020-06-07T09:26:49Z</time>
      </trkpt>
      <trkpt lat="47.26222" lon="-1.59977">
        <ele>17.9</ele>
        <time>2020-06-07T09:26:50Z</time>
      </trkpt>
      <trkpt lat="47.26221" lon="-1.59978">
        <ele>17.9</ele>
        <time>2020-06-07T09:26:51Z</time>
      </trkpt>
      <trkpt lat="47.26221" lon="-1.59979">
        <ele>18</ele>
        <time>2020-06-07T09:26:52Z</time>
      </trkpt>
      <trkpt lat="47.2622" lon="-1.5998">
        <ele>18</ele>
        <time>2020-06-07T09:26:53Z</time>
      </trkpt>
      <trkpt lat="47.2622" lon="-1.59981">
        <ele>18</ele>
        <time>2020-06-07T09:26:54Z</time>
      </trkpt>
      <trkpt lat="47.26219" lon="-1.59982">
        <ele>18.1</ele>
        <time>2020-06-07T09:26:55Z</time>
      </trkpt>
      <trkpt lat="47.26219" lon="-1.59983">
        <ele>18.1</ele>
        <time>2020-06-07T09:26:56Z</time>
      </trkpt>
      <trkpt lat="47.26218" lon="-1.59984">
        <ele>18.2</ele>
        <time>2020-06-07T09:26:57Z</time>
      </trkpt>
      <trkpt lat="47.26218" lon="-1.59985">
        <ele>18.2</ele>
        <time>2020-06-07T09:26:58Z</time>
      </trkpt>
      <trkpt lat="47.26217" lon="-1.59986">
        <ele>18.3</ele>
        <time>2020-06-07T09:26:59Z</time>
      </trkpt>
      <trkpt lat="47.26217" lon="-1.59987">
        <ele>18.3</ele>
        <time>2020-06-07T09:27:00Z</time>
      </trkpt>
      <trkpt lat="47.26216" lon="-1.59988">
        <ele>18.4</ele>
        <time>2020-06-07T09:27:01Z</time>
      </trkpt>
      <trkpt lat="47.26216" lon="-1.59989">
        <ele>18.4</ele>
        <time>2020-06-07T09:27:02Z</time>
      </trkpt>
      <trkpt lat="47.26215" lon="-1.5999">
        <ele>18.5</ele>
        <time>2020-06-07T09:27:03Z</time>
      </trkpt>
      <trkpt lat="47.26215" lon="-1.59991">
        <ele>18.5</ele>
        <time>2020-06-07T09:27:04Z</time>
      </trkpt>
      <trkpt lat="47.26214" lon="-1.59992">
        <ele>18.6</ele>
        <time>2020-06-07T09:27:05Z</time>
      </trkpt>
      <trkpt lat="47.26213" lon="-1.59993">
        <ele>18.6</ele>
        <time>2020-06-07T09:27:06Z</time>
      </trkpt>
      <trkpt lat="47.26213" lon="-1.59994">
        <ele>18.7</ele>
        <time>2020-06-07T09:27:07Z</time>
      </trkpt>
      <trkpt lat="47.26212" lon="-1.59995">
        <ele>18.7</ele>
        <time>2020-06-07T09:27:08Z</time>
      </trkpt>
      <trkpt lat="47.26212" lon="-1.59997">
        <ele>18.8</ele>
        <time>2020-06-07T09:27:09Z</time>
      </trkpt>
      <trkpt lat="47.26211" lon="-1.59998">
        <ele>18.8</ele>
        <time>2020-06-07T09:27:10Z</time>
      </trkpt>
      <trkpt lat="47.26211" lon="-1.59999">
        <ele>18.9</ele>
        <time>2020-06-07T09:27:11Z</time>
      </trkpt>
      <trkpt lat="47.2621" lon="-1.6">
        <ele>18.9</ele>
        <time>2020-06-07T09:27:12Z</time>
      </trkpt>
      <trkpt lat="47.2621" lon="-1.60001">
        <ele>18.9</ele>
        <time>2020-06-07T09:27:13Z</time>
      </trkpt>
      <trkpt lat="47.26209" lon="-1.60002">
        <ele>19</ele>
        <time>2020-06-07T09:27:14Z</time>
      </trkpt>
      <trkpt lat="47.26209" lon="-1.60002">
        <ele>19</ele>
        <time>2020-06-07T09:27:15Z</time>
      </trkpt>
      <trkpt lat="47.26208" lon="-1.60003">
        <ele>19</ele>
        <time>2020-06-07T09:27:16Z</time>
      </trkpt>
      <trkpt lat="47.26208" lon="-1.60004">
        <ele>19.1</ele>
        <time>2020-06-07T09:27:17Z</time>
      </trkpt>
      <trkpt lat="47.26207" lon="-1.60005">
        <ele>19.1</ele>
        <time>2020-06-07T09:27:18Z</time>
      </trkpt>
      <trkpt lat="47.26207" lon="-1.60006">
        <ele>19.1</ele>
        <time>2020-06-07T09:27:19Z</time>
      </trkpt>
      <trkpt lat="47.26207" lon="-1.60006">
        <ele>19.2</ele>
        <time>2020-06-07T09:27:20Z</time>
      </trkpt>
      <trkpt lat="47.26206" lon="-1.60007">
        <ele>19.2</ele>
        <time>2020-06-07T09:27:21Z</time>
      </trkpt>
      <trkpt lat="47.26206" lon="-1.60007">
        <ele>19.2</ele>
        <time>2020-06-07T09:27:22Z</time>
      </trkpt>
      <trkpt lat="47.26206" lon="-1.60008">
        <ele>19.2</ele>
        <time>2020-06-07T09:27:23Z</time>
      </trkpt>
      <trkpt lat="47.26205" lon="-1.60008">
        <ele>19.3</ele>
        <time>2020-06-07T09:27:24Z</time>
      </trkpt>
      <trkpt lat="47.26205" lon="-1.60009">
        <ele>19.3</ele>
        <time>2020-06-07T09:27:25Z</time>
      </trkpt>
      <trkpt lat="47.26205" lon="-1.60009">
        <ele>19.3</ele>
        <time>2020-06-07T09:27:26Z</time>
      </trkpt>
      <trkpt lat="47.26205" lon="-1.60009">
        <ele>19.3</ele>
        <time>2020-06-07T09:27:27Z</time>
      </trkpt>
      <trkpt lat="47.26204" lon="-1.60009">
        <ele>19.3</ele>
        <time>2020-06-07T09:27:28Z</time>
      </trkpt>
      <trkpt lat="47.26204" lon="-1.60009">
        <ele>19.3</ele>
        <time>2020-06-07T09:27:29Z</time>
      </trkpt>
      <trkpt lat="47.26204" lon="-1.60009">
        <ele>19.3</ele>
        <time>2020-06-07T09:27:30Z</time>
      </trkpt>
      <trkpt lat="47.26204" lon="-1.6001">
        <ele>19.4</ele>
        <time>2020-06-07T09:27:31Z</time>
      </trkpt>
      <trkpt lat="47.26204" lon="-1.6001">
        <ele>19.4</ele>
        <time>2020-06-07T09:27:32Z</time>
      </trkpt>
      <trkpt lat="47.26204" lon="-1.6001">
        <ele>19.4</ele>
        <time>2020-06-07T09:27:33Z</time>
      </trkpt>
      <trkpt lat="47.26204" lon="-1.6001">
        <ele>19.4</ele>
        <time>2020-06-07T09:27:34Z</time>
      </trkpt>
      <trkpt lat="47.26203" lon="-1.6001">
        <ele>19.4</ele>
        <time>2020-06-07T09:27:35Z</time>
      </trkpt>
      <trkpt lat="47.26203" lon="-1.6001">
        <ele>19.4</ele>
        <time>2020-06-07T09:27:36Z</time>
      </trkpt>
      <trkpt lat="47.26203" lon="-1.6001">
        <ele>19.4</ele>
        <time>2020-06-07T09:27:37Z</time>
      </trkpt>
      <trkpt lat="47.26203" lon="-1.6001">
        <ele>19.4</ele>
        <time>2020-06-07T09:27:38Z</time>
      </trkpt>
      <trkpt lat="47.26203" lon="-1.6001">
        <ele>19.4</ele>
        <time>2020-06-07T09:27:39Z</time>
      </trkpt>
      <trkpt lat="47.26203" lon="-1.6001">
        <ele>19.4</ele>
        <time>2020-06-07T09:27:40Z</time>
      </trkpt>
      <trkpt lat="47.26203" lon="-1.6001">
        <ele>19.4</ele>
        <time>2020-06-07T09:27:41Z</time>
      </trkpt>
      <trkpt lat="47.26204" lon="-1.6001">
        <ele>19.4</ele>
        <time>2020-06-07T09:27:42Z</time>
      </trkpt>
      <trkpt lat="47.26204" lon="-1.6001">
        <ele>19.4</ele>
        <time>2020-06-07T09:27:43Z</time>
      </trkpt>
      <trkpt lat="47.26204" lon="-1.6001">
        <ele>19.4</ele>
        <time>2020-06-07T09:27:44Z</time>
      </trkpt>
      <trkpt lat="47.26204" lon="-1.6001">
        <ele>19.4</ele>
        <time>2020-06-07T09:27:45Z</time>
      </trkpt>
      <trkpt lat="47.26204" lon="-1.6001">
        <ele>19.4</ele>
        <time>2020-06-07T09:27:46Z</time>
      </trkpt>
      <trkpt lat="47.26204" lon="-1.6001">
        <ele>19.4</ele>
        <time>2020-06-07T09:27:47Z</time>
      </trkpt>
      <trkpt lat="47.26204" lon="-1.6001">
        <ele>19.4</ele>
        <time>2020-06-07T09:27:48Z</time>
      </trkpt>
      <trkpt lat="47.26204" lon="-1.6001">
        <ele>19.4</ele>
        <time>2020-06-07T09:27:49Z</time>
      </trkpt>
      <trkpt lat="47.26204" lon="-1.6001">
        <ele>19.4</ele>
        <time>2020-06-07T09:27:50Z</time>
      </trkpt>
      <trkpt lat="47.26203" lon="-1.60011">
        <ele>19.4</ele>
        <time>2020-06-07T09:27:51Z</time>
      </trkpt>
      <trkpt lat="47.26203" lon="-1.60011">
        <ele>19.4</ele>
        <time>2020-06-07T09:27:52Z</time>
      </trkpt>
      <trkpt lat="47.26203" lon="-1.60013">
        <ele>19.4</ele>
        <time>2020-06-07T09:27:53Z</time>
      </trkpt>
      <trkpt lat="47.26203" lon="-1.60014">
        <ele>19.5</ele>
        <time>2020-06-07T09:27:54Z</time>
      </trkpt>
      <trkpt lat="47.26203" lon="-1.60015">
        <ele>19.5</ele>
        <time>2020-06-07T09:27:55Z</time>
      </trkpt>
      <trkpt lat="47.26203" lon="-1.60017">
        <ele>19.5</ele>
        <time>2020-06-07T09:27:56Z</time>
      </trkpt>
      <trkpt lat="47.26203" lon="-1.60018">
        <ele>19.5</ele>
        <time>2020-06-07T09:27:57Z</time>
      </trkpt>
      <trkpt lat="47.26203" lon="-1.60019">
        <ele>19.6</ele>
        <time>2020-06-07T09:27:58Z</time>
      </trkpt>
      <trkpt lat="47.26203" lon="-1.6002">
        <ele>19.6</ele>
        <time>2020-06-07T09:27:59Z</time>
      </trkpt>
      <trkpt lat="47.26202" lon="-1.6002">
        <ele>19.6</ele>
        <time>2020-06-07T09:28:00Z</time>
      </trkpt>
      <trkpt lat="47.26202" lon="-1.60021">
        <ele>19.6</ele>
        <time>2020-06-07T09:28:01Z</time>
      </trkpt>
      <trkpt lat="47.26202" lon="-1.60021">
        <ele>19.6</ele>
        <time>2020-06-07T09:28:02Z</time>
      </trkpt>
      <trkpt lat="47.26202" lon="-1.60022">
        <ele>19.6</ele>
        <time>2020-06-07T09:28:03Z</time>
      </trkpt>
      <trkpt lat="47.26202" lon="-1.60022">
        <ele>19.6</ele>
        <time>2020-06-07T09:28:04Z</time>
      </trkpt>
      <trkpt lat="47.26202" lon="-1.60022">
        <ele>19.6</ele>
        <time>2020-06-07T09:28:05Z</time>
      </trkpt>
      <trkpt lat="47.26202" lon="-1.60023">
        <ele>19.6</ele>
        <time>2020-06-07T09:28:06Z</time>
      </trkpt>
      <trkpt lat="47.26202" lon="-1.60023">
        <ele>19.6</ele>
        <time>2020-06-07T09:28:07Z</time>
      </trkpt>
      <trkpt lat="47.26202" lon="-1.60024">
        <ele>19.7</ele>
        <time>2020-06-07T09:28:08Z</time>
      </trkpt>
      <trkpt lat="47.26202" lon="-1.60024">
        <ele>19.7</ele>
        <time>2020-06-07T09:28:09Z</time>
      </trkpt>
      <trkpt lat="47.26202" lon="-1.60025">
        <ele>19.7</ele>
        <time>2020-06-07T09:28:10Z</time>
      </trkpt>
      <trkpt lat="47.26202" lon="-1.60026">
        <ele>19.7</ele>
        <time>2020-06-07T09:28:11Z</time>
      </trkpt>
      <trkpt lat="47.26202" lon="-1.60027">
        <ele>19.7</ele>
        <time>2020-06-07T09:28:12Z</time>
      </trkpt>
      <trkpt lat="47.26202" lon="-1.60028">
        <ele>19.8</ele>
        <time>2020-06-07T09:28:13Z</time>
      </trkpt>
      <trkpt lat="47.26201" lon="-1.60029">
        <ele>19.8</ele>
        <time>2020-06-07T09:28:14Z</time>
      </trkpt>
      <trkpt lat="47.26201" lon="-1.6003">
        <ele>19.8</ele>
        <time>2020-06-07T09:28:15Z</time>
      </trkpt>
      <trkpt lat="47.26201" lon="-1.60031">
        <ele>19.9</ele>
        <time>2020-06-07T09:28:16Z</time>
      </trkpt>
      <trkpt lat="47.262" lon="-1.60032">
        <ele>19.9</ele>
        <time>2020-06-07T09:28:17Z</time>
      </trkpt>
      <trkpt lat="47.262" lon="-1.60034">
        <ele>20</ele>
        <time>2020-06-07T09:28:18Z</time>
      </trkpt>
      <trkpt lat="47.262" lon="-1.60035">
        <ele>20</ele>
        <time>2020-06-07T09:28:19Z</time>
      </trkpt>
      <trkpt lat="47.26199" lon="-1.60036">
        <ele>20.1</ele>
        <time>2020-06-07T09:28:20Z</time>
      </trkpt>
      <trkpt lat="47.26199" lon="-1.60037">
        <ele>20.1</ele>
        <time>2020-06-07T09:28:21Z</time>
      </trkpt>
      <trkpt lat="47.26199" lon="-1.60038">
        <ele>20.1</ele>
        <time>2020-06-07T09:28:22Z</time>
      </trkpt>
      <trkpt lat="47.26199" lon="-1.6004">
        <ele>20.2</ele>
        <time>2020-06-07T09:28:23Z</time>
      </trkpt>
      <trkpt lat="47.26198" lon="-1.60041">
        <ele>20.2</ele>
        <time>2020-06-07T09:28:24Z</time>
      </trkpt>
      <trkpt lat="47.26198" lon="-1.60042">
        <ele>20.2</ele>
        <time>2020-06-07T09:28:25Z</time>
      </trkpt>
      <trkpt lat="47.26198" lon="-1.60043">
        <ele>20.3</ele>
        <time>2020-06-07T09:28:26Z</time>
      </trkpt>
      <trkpt lat="47.26197" lon="-1.60045">
        <ele>20.3</ele>
        <time>2020-06-07T09:28:27Z</time>
      </trkpt>
      <trkpt lat="47.26197" lon="-1.60046">
        <ele>20.4</ele>
        <time>2020-06-07T09:28:28Z</time>
      </trkpt>
      <trkpt lat="47.26197" lon="-1.60047">
        <ele>20.4</ele>
        <time>2020-06-07T09:28:29Z</time>
      </trkpt>
      <trkpt lat="47.26196" lon="-1.60049">
        <ele>20.5</ele>
        <time>2020-06-07T09:28:30Z</time>
      </trkpt>
      <trkpt lat="47.26196" lon="-1.6005">
        <ele>20.5</ele>
        <time>2020-06-07T09:28:31Z</time>
      </trkpt>
      <trkpt lat="47.26196" lon="-1.60051">
        <ele>20.6</ele>
        <time>2020-06-07T09:28:32Z</time>
      </trkpt>
      <trkpt lat="47.26195" lon="-1.60053">
        <ele>20.6</ele>
        <time>2020-06-07T09:28:33Z</time>
      </trkpt>
      <trkpt lat="47.26195" lon="-1.60054">
        <ele>20.7</ele>
        <time>2020-06-07T09:28:34Z</time>
      </trkpt>
      <trkpt lat="47.26195" lon="-1.60055">
        <ele>20.7</ele>
        <time>2020-06-07T09:28:35Z</time>
      </trkpt>
      <trkpt lat="47.26195" lon="-1.60057">
        <ele>20.8</ele>
        <time>2020-06-07T09:28:36Z</time>
      </trkpt>
      <trkpt lat="47.26194" lon="-1.60058">
        <ele>20.8</ele>
        <time>2020-06-07T09:28:37Z</time>
      </trkpt>
      <trkpt lat="47.26194" lon="-1.60059">
        <ele>20.9</ele>
        <time>2020-06-07T09:28:38Z</time>
      </trkpt>
      <trkpt lat="47.26194" lon="-1.60061">
        <ele>20.9</ele>
        <time>2020-06-07T09:28:39Z</time>
      </trkpt>
      <trkpt lat="47.26194" lon="-1.60062">
        <ele>21</ele>
        <time>2020-06-07T09:28:40Z</time>
      </trkpt>
      <trkpt lat="47.26194" lon="-1.60063">
        <ele>21</ele>
        <time>2020-06-07T09:28:41Z</time>
      </trkpt>
      <trkpt lat="47.26193" lon="-1.60065">
        <ele>21</ele>
        <time>2020-06-07T09:28:42Z</time>
      </trkpt>
      <trkpt lat="47.26193" lon="-1.60066">
        <ele>21.1</ele>
        <time>2020-06-07T09:28:43Z</time>
      </trkpt>
      <trkpt lat="47.26193" lon="-1.60067">
        <ele>21.1</ele>
        <time>2020-06-07T09:28:44Z</time>
      </trkpt>
      <trkpt lat="47.26193" lon="-1.60069">
        <ele>21.1</ele>
        <time>2020-06-07T09:28:45Z</time>
      </trkpt>
      <trkpt lat="47.26194" lon="-1.6007">
        <ele>21.1</ele>
        <time>2020-06-07T09:28:46Z</time>
      </trkpt>
      <trkpt lat="47.26194" lon="-1.60071">
        <ele>21.1</ele>
        <time>2020-06-07T09:28:47Z</time>
      </trkpt>
      <trkpt lat="47.26194" lon="-1.60072">
        <ele>21.1</ele>
        <time>2020-06-07T09:28:48Z</time>
      </trkpt>
      <trkpt lat="47.26195" lon="-1.60074">
        <ele>21.1</ele>
        <time>2020-06-07T09:28:49Z</time>
      </trkpt>
      <trkpt lat="47.26195" lon="-1.60075">
        <ele>21.1</ele>
        <time>2020-06-07T09:28:50Z</time>
      </trkpt>
      <trkpt lat="47.26196" lon="-1.60076">
        <ele>21.1</ele>
        <time>2020-06-07T09:28:51Z</time>
      </trkpt>
      <trkpt lat="47.26197" lon="-1.60077">
        <ele>21</ele>
        <time>2020-06-07T09:28:52Z</time>
      </trkpt>
      <trkpt lat="47.26197" lon="-1.60079">
        <ele>21</ele>
        <time>2020-06-07T09:28:53Z</time>
      </trkpt>
      <trkpt lat="47.26198" lon="-1.6008">
        <ele>20.9</ele>
        <time>2020-06-07T09:28:54Z</time>
      </trkpt>
      <trkpt lat="47.26199" lon="-1.60081">
        <ele>20.9</ele>
        <time>2020-06-07T09:28:55Z</time>
      </trkpt>
      <trkpt lat="47.262" lon="-1.60082">
        <ele>20.8</ele>
        <time>2020-06-07T09:28:56Z</time>
      </trkpt>
      <trkpt lat="47.262" lon="-1.60084">
        <ele>20.8</ele>
        <time>2020-06-07T09:28:57Z</time>
      </trkpt>
      <trkpt lat="47.26201" lon="-1.60085">
        <ele>20.8</ele>
        <time>2020-06-07T09:28:58Z</time>
      </trkpt>
      <trkpt lat="47.26202" lon="-1.60086">
        <ele>20.8</ele>
        <time>2020-06-07T09:28:59Z</time>
      </trkpt>
      <trkpt lat="47.26202" lon="-1.60087">
        <ele>20.8</ele>
        <time>2020-06-07T09:29:00Z</time>
      </trkpt>
      <trkpt lat="47.26203" lon="-1.60088">
        <ele>20.8</ele>
        <time>2020-06-07T09:29:01Z</time>
      </trkpt>
      <trkpt lat="47.26203" lon="-1.60089">
        <ele>20.8</ele>
        <time>2020-06-07T09:29:02Z</time>
      </trkpt>
      <trkpt lat="47.26204" lon="-1.60091">
        <ele>20.8</ele>
        <time>2020-06-07T09:29:03Z</time>
      </trkpt>
      <trkpt lat="47.26204" lon="-1.60092">
        <ele>20.8</ele>
        <time>2020-06-07T09:29:04Z</time>
      </trkpt>
      <trkpt lat="47.26205" lon="-1.60093">
        <ele>20.8</ele>
        <time>2020-06-07T09:29:05Z</time>
      </trkpt>
      <trkpt lat="47.26205" lon="-1.60094">
        <ele>20.8</ele>
        <time>2020-06-07T09:29:06Z</time>
      </trkpt>
      <trkpt lat="47.26206" lon="-1.60095">
        <ele>20.8</ele>
        <time>2020-06-07T09:29:07Z</time>
      </trkpt>
      <trkpt lat="47.26206" lon="-1.60096">
        <ele>20.8</ele>
        <time>2020-06-07T09:29:08Z</time>
      </trkpt>
      <trkpt lat="47.26207" lon="-1.60097">
        <ele>20.8</ele>
        <time>2020-06-07T09:29:09Z</time>
      </trkpt>
      <trkpt lat="47.26207" lon="-1.60097">
        <ele>20.8</ele>
        <time>2020-06-07T09:29:10Z</time>
      </trkpt>
      <trkpt lat="47.26207" lon="-1.60098">
        <ele>20.8</ele>
        <time>2020-06-07T09:29:11Z</time>
      </trkpt>
      <trkpt lat="47.26208" lon="-1.60099">
        <ele>20.8</ele>
        <time>2020-06-07T09:29:12Z</time>
      </trkpt>
      <trkpt lat="47.26208" lon="-1.601">
        <ele>20.8</ele>
        <time>2020-06-07T09:29:13Z</time>
      </trkpt>
      <trkpt lat="47.26209" lon="-1.601">
        <ele>20.8</ele>
        <time>2020-06-07T09:29:14Z</time>
      </trkpt>
      <trkpt lat="47.26209" lon="-1.60101">
        <ele>20.8</ele>
        <time>2020-06-07T09:29:15Z</time>
      </trkpt>
      <trkpt lat="47.26209" lon="-1.60101">
        <ele>20.8</ele>
        <time>2020-06-07T09:29:16Z</time>
      </trkpt>
      <trkpt lat="47.26209" lon="-1.60102">
        <ele>20.8</ele>
        <time>2020-06-07T09:29:17Z</time>
      </trkpt>
      <trkpt lat="47.26209" lon="-1.60102">
        <ele>20.8</ele>
        <time>2020-06-07T09:29:18Z</time>
      </trkpt>
      <trkpt lat="47.2621" lon="-1.60102">
        <ele>20.8</ele>
        <time>2020-06-07T09:29:19Z</time>
      </trkpt>
      <trkpt lat="47.2621" lon="-1.60102">
        <ele>20.8</ele>
        <time>2020-06-07T09:29:20Z</time>
      </trkpt>
      <trkpt lat="47.2621" lon="-1.60103">
        <ele>20.8</ele>
        <time>2020-06-07T09:29:21Z</time>
      </trkpt>
      <trkpt lat="47.2621" lon="-1.60103">
        <ele>20.8</ele>
        <time>2020-06-07T09:29:22Z</time>
      </trkpt>
      <trkpt lat="47.2621" lon="-1.60103">
        <ele>20.8</ele>
        <time>2020-06-07T09:29:23Z</time>
      </trkpt>
      <trkpt lat="47.2621" lon="-1.60103">
        <ele>20.8</ele>
        <time>2020-06-07T09:29:24Z</time>
      </trkpt>
      <trkpt lat="47.2621" lon="-1.60103">
        <ele>20.8</ele>
        <time>2020-06-07T09:29:25Z</time>
      </trkpt>
      <trkpt lat="47.2621" lon="-1.60103">
        <ele>20.8</ele>
        <time>2020-06-07T09:29:26Z</time>
      </trkpt>
      <trkpt lat="47.2621" lon="-1.60103">
        <ele>20.8</ele>
        <time>2020-06-07T09:29:27Z</time>
      </trkpt>
      <trkpt lat="47.2621" lon="-1.60103">
        <ele>20.8</ele>
        <time>2020-06-07T09:29:28Z</time>
      </trkpt>
      <trkpt lat="47.2621" lon="-1.60103">
        <ele>20.8</ele>
        <time>2020-06-07T09:29:29Z</time>
      </trkpt>
      <trkpt lat="47.2621" lon="-1.60103">
        <ele>20.8</ele>
        <time>2020-06-07T09:29:30Z</time>
      </trkpt>
      <trkpt lat="47.2621" lon="-1.60103">
        <ele>20.8</ele>
        <time>2020-06-07T09:29:31Z</time>
      </trkpt>
      <trkpt lat="47.2621" lon="-1.60103">
        <ele>20.8</ele>
        <time>2020-06-07T09:29:32Z</time>
      </trkpt>
      <trkpt lat="47.2621" lon="-1.60103">
        <ele>20.8</ele>
        <time>2020-06-07T09:29:33Z</time>
      </trkpt>
      <trkpt lat="47.2621" lon="-1.60103">
        <ele>20.8</ele>
        <time>2020-06-07T09:29:34Z</time>
      </trkpt>
      <trkpt lat="47.2621" lon="-1.60103">
        <ele>20.8</ele>
        <time>2020-06-07T09:29:35Z</time>
      </trkpt>
      <trkpt lat="47.2621" lon="-1.60103">
        <ele>20.8</ele>
        <time>2020-06-07T09:29:36Z</time>
      </trkpt>
      <trkpt lat="47.2621" lon="-1.60103">
        <ele>20.8</ele>
        <time>2020-06-07T09:29:37Z</time>
      </trkpt>
      <trkpt lat="47.2621" lon="-1.60103">
        <ele>20.8</ele>
        <time>2020-06-07T09:29:38Z</time>
      </trkpt>
      <trkpt lat="47.2621" lon="-1.60103">
        <ele>20.8</ele>
        <time>2020-06-07T09:29:39Z</time>
      </trkpt>
      <trkpt lat="47.2621" lon="-1.60103">
        <ele>20.8</ele>
        <time>2020-06-07T09:29:40Z</time>
      </trkpt>
      <trkpt lat="47.2621" lon="-1.60103">
        <ele>20.8</ele>
        <time>2020-06-07T09:29:41Z</time>
      </trkpt>
      <trkpt lat="47.2621" lon="-1.60103">
        <ele>20.8</ele>
        <time>2020-06-07T09:29:42Z</time>
      </trkpt>
      <trkpt lat="47.2621" lon="-1.60103">
        <ele>20.8</ele>
        <time>2020-06-07T09:29:43Z</time>
      </trkpt>
      <trkpt lat="47.2621" lon="-1.60104">
        <ele>20.8</ele>
        <time>2020-06-07T09:29:44Z</time>
      </trkpt>
      <trkpt lat="47.26211" lon="-1.60105">
        <ele>20.8</ele>
        <time>2020-06-07T09:29:45Z</time>
      </trkpt>
      <trkpt lat="47.26211" lon="-1.60106">
        <ele>20.8</ele>
        <time>2020-06-07T09:29:46Z</time>
      </trkpt>
      <trkpt lat="47.26211" lon="-1.60107">
        <ele>20.9</ele>
        <time>2020-06-07T09:29:47Z</time>
      </trkpt>
      <trkpt lat="47.26211" lon="-1.60108">
        <ele>20.9</ele>
        <time>2020-06-07T09:29:48Z</time>
      </trkpt>
      <trkpt lat="47.26211" lon="-1.60109">
        <ele>21</ele>
        <time>2020-06-07T09:29:49Z</time>
      </trkpt>
      <trkpt lat="47.26211" lon="-1.60109">
        <ele>21</ele>
        <time>2020-06-07T09:29:50Z</time>
      </trkpt>
      <trkpt lat="47.26211" lon="-1.6011">
        <ele>21.1</ele>
        <time>2020-06-07T09:29:51Z</time>
      </trkpt>
      <trkpt lat="47.2621" lon="-1.60111">
        <ele>21.1</ele>
        <time>2020-06-07T09:29:52Z</time>
      </trkpt>
      <trkpt lat="47.2621" lon="-1.60112">
        <ele>21.2</ele>
        <time>2020-06-07T09:29:53Z</time>
      </trkpt>
      <trkpt lat="47.2621" lon="-1.60112">
        <ele>21.3</ele>
        <time>2020-06-07T09:29:54Z</time>
      </trkpt>
      <trkpt lat="47.26209" lon="-1.60113">
        <ele>21.3</ele>
        <time>2020-06-07T09:29:55Z</time>
      </trkpt>
      <trkpt lat="47.26209" lon="-1.60114">
        <ele>21.4</ele>
        <time>2020-06-07T09:29:56Z</time>
      </trkpt>
      <trkpt lat="47.26209" lon="-1.60115">
        <ele>21.5</ele>
        <time>2020-06-07T09:29:57Z</time>
      </trkpt>
      <trkpt lat="47.26208" lon="-1.60115">
        <ele>21.5</ele>
        <time>2020-06-07T09:29:58Z</time>
      </trkpt>
      <trkpt lat="47.26208" lon="-1.60116">
        <ele>21.6</ele>
        <time>2020-06-07T09:29:59Z</time>
      </trkpt>
      <trkpt lat="47.26207" lon="-1.60117">
        <ele>21.7</ele>
        <time>2020-06-07T09:30:00Z</time>
      </trkpt>
      <trkpt lat="47.26207" lon="-1.60117">
        <ele>21.8</ele>
        <time>2020-06-07T09:30:01Z</time>
      </trkpt>
      <trkpt lat="47.26206" lon="-1.60118">
        <ele>21.9</ele>
        <time>2020-06-07T09:30:02Z</time>
      </trkpt>
      <trkpt lat="47.26206" lon="-1.60119">
        <ele>21.9</ele>
        <time>2020-06-07T09:30:03Z</time>
      </trkpt>
      <trkpt lat="47.26205" lon="-1.6012">
        <ele>22</ele>
        <time>2020-06-07T09:30:04Z</time>
      </trkpt>
      <trkpt lat="47.26205" lon="-1.60121">
        <ele>22.1</ele>
        <time>2020-06-07T09:30:05Z</time>
      </trkpt>
      <trkpt lat="47.26205" lon="-1.60122">
        <ele>22.2</ele>
        <time>2020-06-07T09:30:06Z</time>
      </trkpt>
      <trkpt lat="47.26204" lon="-1.60123">
        <ele>22.3</ele>
        <time>2020-06-07T09:30:07Z</time>
      </trkpt>
      <trkpt lat="47.26204" lon="-1.60124">
        <ele>22.4</ele>
        <time>2020-06-07T09:30:08Z</time>
      </trkpt>
      <trkpt lat="47.26204" lon="-1.60125">
        <ele>22.5</ele>
        <time>2020-06-07T09:30:09Z</time>
      </trkpt>
      <trkpt lat="47.26204" lon="-1.60127">
        <ele>22.5</ele>
        <time>2020-06-07T09:30:10Z</time>
      </trkpt>
      <trkpt lat="47.26204" lon="-1.60128">
        <ele>22.6</ele>
        <time>2020-06-07T09:30:11Z</time>
      </trkpt>
      <trkpt lat="47.26204" lon="-1.6013">
        <ele>22.7</ele>
        <time>2020-06-07T09:30:12Z</time>
      </trkpt>
      <trkpt lat="47.26204" lon="-1.60131">
        <ele>22.7</ele>
        <time>2020-06-07T09:30:13Z</time>
      </trkpt>
      <trkpt lat="47.26204" lon="-1.60133">
        <ele>22.8</ele>
        <time>2020-06-07T09:30:14Z</time>
      </trkpt>
      <trkpt lat="47.26205" lon="-1.60135">
        <ele>22.8</ele>
        <time>2020-06-07T09:30:15Z</time>
      </trkpt>
      <trkpt lat="47.26205" lon="-1.60137">
        <ele>22.8</ele>
        <time>2020-06-07T09:30:16Z</time>
      </trkpt>
      <trkpt lat="47.26206" lon="-1.60139">
        <ele>22.9</ele>
        <time>2020-06-07T09:30:17Z</time>
      </trkpt>
      <trkpt lat="47.26207" lon="-1.60141">
        <ele>22.8</ele>
        <time>2020-06-07T09:30:18Z</time>
      </trkpt>
      <trkpt lat="47.26208" lon="-1.60142">
        <ele>22.8</ele>
        <time>2020-06-07T09:30:19Z</time>
      </trkpt>
      <trkpt lat="47.26209" lon="-1.60144">
        <ele>22.8</ele>
        <time>2020-06-07T09:30:20Z</time>
      </trkpt>
      <trkpt lat="47.2621" lon="-1.60146">
        <ele>22.8</ele>
        <time>2020-06-07T09:30:21Z</time>
      </trkpt>
      <trkpt lat="47.26211" lon="-1.60147">
        <ele>22.8</ele>
        <time>2020-06-07T09:30:22Z</time>
      </trkpt>
      <trkpt lat="47.26212" lon="-1.60148">
        <ele>22.8</ele>
        <time>2020-06-07T09:30:23Z</time>
      </trkpt>
      <trkpt lat="47.26213" lon="-1.60149">
        <ele>22.7</ele>
        <time>2020-06-07T09:30:24Z</time>
      </trkpt>
      <trkpt lat="47.26213" lon="-1.6015">
        <ele>22.7</ele>
        <time>2020-06-07T09:30:25Z</time>
      </trkpt>
      <trkpt lat="47.26214" lon="-1.6015">
        <ele>22.7</ele>
        <time>2020-06-07T09:30:26Z</time>
      </trkpt>
      <trkpt lat="47.26214" lon="-1.60151">
        <ele>22.7</ele>
        <time>2020-06-07T09:30:27Z</time>
      </trkpt>
      <trkpt lat="47.26215" lon="-1.60152">
        <ele>22.6</ele>
        <time>2020-06-07T09:30:28Z</time>
      </trkpt>
      <trkpt lat="47.26216" lon="-1.60153">
        <ele>22.6</ele>
        <time>2020-06-07T09:30:29Z</time>
      </trkpt>
      <trkpt lat="47.26217" lon="-1.60153">
        <ele>22.6</ele>
        <time>2020-06-07T09:30:30Z</time>
      </trkpt>
      <trkpt lat="47.26218" lon="-1.60154">
        <ele>22.5</ele>
        <time>2020-06-07T09:30:31Z</time>
      </trkpt>
      <trkpt lat="47.26218" lon="-1.60155">
        <ele>22.5</ele>
        <time>2020-06-07T09:30:32Z</time>
      </trkpt>
      <trkpt lat="47.26219" lon="-1.60155">
        <ele>22.4</ele>
        <time>2020-06-07T09:30:33Z</time>
      </trkpt>
      <trkpt lat="47.26221" lon="-1.60156">
        <ele>22.3</ele>
        <time>2020-06-07T09:30:34Z</time>
      </trkpt>
      <trkpt lat="47.26222" lon="-1.60157">
        <ele>22.3</ele>
        <time>2020-06-07T09:30:35Z</time>
      </trkpt>
      <trkpt lat="47.26223" lon="-1.60158">
        <ele>22.2</ele>
        <time>2020-06-07T09:30:36Z</time>
      </trkpt>
      <trkpt lat="47.26224" lon="-1.60159">
        <ele>22.1</ele>
        <time>2020-06-07T09:30:37Z</time>
      </trkpt>
      <trkpt lat="47.26225" lon="-1.60159">
        <ele>22</ele>
        <time>2020-06-07T09:30:38Z</time>
      </trkpt>
      <trkpt lat="47.26227" lon="-1.6016">
        <ele>21.9</ele>
        <time>2020-06-07T09:30:39Z</time>
      </trkpt>
      <trkpt lat="47.26228" lon="-1.60161">
        <ele>21.9</ele>
        <time>2020-06-07T09:30:40Z</time>
      </trkpt>
      <trkpt lat="47.26229" lon="-1.60162">
        <ele>21.8</ele>
        <time>2020-06-07T09:30:41Z</time>
      </trkpt>
      <trkpt lat="47.2623" lon="-1.60163">
        <ele>21.7</ele>
        <time>2020-06-07T09:30:42Z</time>
      </trkpt>
      <trkpt lat="47.26231" lon="-1.60164">
        <ele>21.7</ele>
        <time>2020-06-07T09:30:43Z</time>
      </trkpt>
      <trkpt lat="47.26232" lon="-1.60165">
        <ele>21.6</ele>
        <time>2020-06-07T09:30:44Z</time>
      </trkpt>
      <trkpt lat="47.26233" lon="-1.60165">
        <ele>21.6</ele>
        <time>2020-06-07T09:30:45Z</time>
      </trkpt>
      <trkpt lat="47.26234" lon="-1.60166">
        <ele>21.6</ele>
        <time>2020-06-07T09:30:46Z</time>
      </trkpt>
      <trkpt lat="47.26234" lon="-1.60167">
        <ele>21.5</ele>
        <time>2020-06-07T09:30:47Z</time>
      </trkpt>
      <trkpt lat="47.26235" lon="-1.60168">
        <ele>21.6</ele>
        <time>2020-06-07T09:30:48Z</time>
      </trkpt>
      <trkpt lat="47.26236" lon="-1.60169">
        <ele>21.6</ele>
        <time>2020-06-07T09:30:49Z</time>
      </trkpt>
      <trkpt lat="47.26236" lon="-1.6017">
        <ele>21.6</ele>
        <time>2020-06-07T09:30:50Z</time>
      </trkpt>
      <trkpt lat="47.26237" lon="-1.6017">
        <ele>21.6</ele>
        <time>2020-06-07T09:30:51Z</time>
      </trkpt>
      <trkpt lat="47.26237" lon="-1.60171">
        <ele>21.7</ele>
        <time>2020-06-07T09:30:52Z</time>
      </trkpt>
      <trkpt lat="47.26238" lon="-1.60172">
        <ele>21.7</ele>
        <time>2020-06-07T09:30:53Z</time>
      </trkpt>
      <trkpt lat="47.26238" lon="-1.60173">
        <ele>21.7</ele>
        <time>2020-06-07T09:30:54Z</time>
      </trkpt>
      <trkpt lat="47.26239" lon="-1.60173">
        <ele>21.7</ele>
        <time>2020-06-07T09:30:55Z</time>
      </trkpt>
      <trkpt lat="47.26239" lon="-1.60174">
        <ele>21.7</ele>
        <time>2020-06-07T09:30:56Z</time>
      </trkpt>
      <trkpt lat="47.2624" lon="-1.60175">
        <ele>21.7</ele>
        <time>2020-06-07T09:30:57Z</time>
      </trkpt>
      <trkpt lat="47.26241" lon="-1.60175">
        <ele>21.7</ele>
        <time>2020-06-07T09:30:58Z</time>
      </trkpt>
      <trkpt lat="47.26242" lon="-1.60176">
        <ele>21.7</ele>
        <time>2020-06-07T09:30:59Z</time>
      </trkpt>
      <trkpt lat="47.26242" lon="-1.60177">
        <ele>21.7</ele>
        <time>2020-06-07T09:31:00Z</time>
      </trkpt>
      <trkpt lat="47.26243" lon="-1.60177">
        <ele>21.6</ele>
        <time>2020-06-07T09:31:01Z</time>
      </trkpt>
      <trkpt lat="47.26244" lon="-1.60178">
        <ele>21.6</ele>
        <time>2020-06-07T09:31:02Z</time>
      </trkpt>
      <trkpt lat="47.26245" lon="-1.60178">
        <ele>21.5</ele>
        <time>2020-06-07T09:31:03Z</time>
      </trkpt>
      <trkpt lat="47.26246" lon="-1.60179">
        <ele>21.5</ele>
        <time>2020-06-07T09:31:04Z</time>
      </trkpt>
      <trkpt lat="47.26248" lon="-1.60179">
        <ele>21.4</ele>
        <time>2020-06-07T09:31:05Z</time>
      </trkpt>
      <trkpt lat="47.26249" lon="-1.6018">
        <ele>21.4</ele>
        <time>2020-06-07T09:31:06Z</time>
      </trkpt>
      <trkpt lat="47.2625" lon="-1.6018">
        <ele>21.3</ele>
        <time>2020-06-07T09:31:07Z</time>
      </trkpt>
      <trkpt lat="47.26251" lon="-1.60181">
        <ele>21.4</ele>
        <time>2020-06-07T09:31:08Z</time>
      </trkpt>
      <trkpt lat="47.26252" lon="-1.60181">
        <ele>21.4</ele>
        <time>2020-06-07T09:31:09Z</time>
      </trkpt>
      <trkpt lat="47.26253" lon="-1.60182">
        <ele>21.5</ele>
        <time>2020-06-07T09:31:10Z</time>
      </trkpt>
      <trkpt lat="47.26254" lon="-1.60183">
        <ele>21.5</ele>
        <time>2020-06-07T09:31:11Z</time>
      </trkpt>
      <trkpt lat="47.26254" lon="-1.60183">
        <ele>21.6</ele>
        <time>2020-06-07T09:31:12Z</time>
      </trkpt>
      <trkpt lat="47.26255" lon="-1.60184">
        <ele>21.7</ele>
        <time>2020-06-07T09:31:13Z</time>
      </trkpt>
      <trkpt lat="47.26256" lon="-1.60185">
        <ele>21.7</ele>
        <time>2020-06-07T09:31:14Z</time>
      </trkpt>
      <trkpt lat="47.26257" lon="-1.60186">
        <ele>21.8</ele>
        <time>2020-06-07T09:31:15Z</time>
      </trkpt>
      <trkpt lat="47.26257" lon="-1.60187">
        <ele>21.9</ele>
        <time>2020-06-07T09:31:16Z</time>
      </trkpt>
      <trkpt lat="47.26258" lon="-1.60188">
        <ele>22</ele>
        <time>2020-06-07T09:31:17Z</time>
      </trkpt>
      <trkpt lat="47.26258" lon="-1.60189">
        <ele>22.1</ele>
        <time>2020-06-07T09:31:18Z</time>
      </trkpt>
      <trkpt lat="47.26259" lon="-1.6019">
        <ele>22.2</ele>
        <time>2020-06-07T09:31:19Z</time>
      </trkpt>
      <trkpt lat="47.26259" lon="-1.60191">
        <ele>22.3</ele>
        <time>2020-06-07T09:31:20Z</time>
      </trkpt>
      <trkpt lat="47.2626" lon="-1.60193">
        <ele>22.4</ele>
        <time>2020-06-07T09:31:21Z</time>
      </trkpt>
      <trkpt lat="47.2626" lon="-1.60194">
        <ele>22.5</ele>
        <time>2020-06-07T09:31:22Z</time>
      </trkpt>
      <trkpt lat="47.26261" lon="-1.60195">
        <ele>22.6</ele>
        <time>2020-06-07T09:31:23Z</time>
      </trkpt>
      <trkpt lat="47.26261" lon="-1.60197">
        <ele>22.7</ele>
        <time>2020-06-07T09:31:24Z</time>
      </trkpt>
      <trkpt lat="47.26261" lon="-1.60198">
        <ele>22.8</ele>
        <time>2020-06-07T09:31:25Z</time>
      </trkpt>
      <trkpt lat="47.26262" lon="-1.60199">
        <ele>22.9</ele>
        <time>2020-06-07T09:31:26Z</time>
      </trkpt>
      <trkpt lat="47.26262" lon="-1.60201">
        <ele>23</ele>
        <time>2020-06-07T09:31:27Z</time>
      </trkpt>
      <trkpt lat="47.26263" lon="-1.60202">
        <ele>23.1</ele>
        <time>2020-06-07T09:31:28Z</time>
      </trkpt>
      <trkpt lat="47.26263" lon="-1.60203">
        <ele>23.2</ele>
        <time>2020-06-07T09:31:29Z</time>
      </trkpt>
      <trkpt lat="47.26264" lon="-1.60204">
        <ele>23.3</ele>
        <time>2020-06-07T09:31:30Z</time>
      </trkpt>
      <trkpt lat="47.26264" lon="-1.60205">
        <ele>23.3</ele>
        <time>2020-06-07T09:31:31Z</time>
      </trkpt>
      <trkpt lat="47.26264" lon="-1.60206">
        <ele>23.4</ele>
        <time>2020-06-07T09:31:32Z</time>
      </trkpt>
      <trkpt lat="47.26265" lon="-1.60207">
        <ele>23.5</ele>
        <time>2020-06-07T09:31:33Z</time>
      </trkpt>
      <trkpt lat="47.26265" lon="-1.60208">
        <ele>23.5</ele>
        <time>2020-06-07T09:31:34Z</time>
      </trkpt>
      <trkpt lat="47.26266" lon="-1.60209">
        <ele>23.6</ele>
        <time>2020-06-07T09:31:35Z</time>
      </trkpt>
      <trkpt lat="47.26266" lon="-1.6021">
        <ele>23.7</ele>
        <time>2020-06-07T09:31:36Z</time>
      </trkpt>
      <trkpt lat="47.26266" lon="-1.60211">
        <ele>23.7</ele>
        <time>2020-06-07T09:31:37Z</time>
      </trkpt>
      <trkpt lat="47.26267" lon="-1.60212">
        <ele>23.8</ele>
        <time>2020-06-07T09:31:38Z</time>
      </trkpt>
      <trkpt lat="47.26267" lon="-1.60213">
        <ele>23.8</ele>
        <time>2020-06-07T09:31:39Z</time>
      </trkpt>
      <trkpt lat="47.26267" lon="-1.60214">
        <ele>23.9</ele>
        <time>2020-06-07T09:31:40Z</time>
      </trkpt>
      <trkpt lat="47.26268" lon="-1.60215">
        <ele>23.9</ele>
        <time>2020-06-07T09:31:41Z</time>
      </trkpt>
      <trkpt lat="47.26268" lon="-1.60216">
        <ele>24</ele>
        <time>2020-06-07T09:31:42Z</time>
      </trkpt>
      <trkpt lat="47.26268" lon="-1.60216">
        <ele>24</ele>
        <time>2020-06-07T09:31:43Z</time>
      </trkpt>
      <trkpt lat="47.26269" lon="-1.60217">
        <ele>24.1</ele>
        <time>2020-06-07T09:31:44Z</time>
      </trkpt>
      <trkpt lat="47.26269" lon="-1.60218">
        <ele>24.1</ele>
        <time>2020-06-07T09:31:45Z</time>
      </trkpt>
      <trkpt lat="47.2627" lon="-1.60219">
        <ele>24.1</ele>
        <time>2020-06-07T09:31:46Z</time>
      </trkpt>
      <trkpt lat="47.26271" lon="-1.6022">
        <ele>24.2</ele>
        <time>2020-06-07T09:31:47Z</time>
      </trkpt>
      <trkpt lat="47.26271" lon="-1.6022">
        <ele>24.2</ele>
        <time>2020-06-07T09:31:48Z</time>
      </trkpt>
      <trkpt lat="47.26272" lon="-1.60221">
        <ele>24.2</ele>
        <time>2020-06-07T09:31:49Z</time>
      </trkpt>
      <trkpt lat="47.26272" lon="-1.60222">
        <ele>24.2</ele>
        <time>2020-06-07T09:31:50Z</time>
      </trkpt>
      <trkpt lat="47.26273" lon="-1.60222">
        <ele>24.2</ele>
        <time>2020-06-07T09:31:51Z</time>
      </trkpt>
      <trkpt lat="47.26273" lon="-1.60223">
        <ele>24.2</ele>
        <time>2020-06-07T09:31:52Z</time>
      </trkpt>
      <trkpt lat="47.26273" lon="-1.60223">
        <ele>24.3</ele>
        <time>2020-06-07T09:31:53Z</time>
      </trkpt>
      <trkpt lat="47.26274" lon="-1.60224">
        <ele>24.3</ele>
        <time>2020-06-07T09:31:54Z</time>
      </trkpt>
      <trkpt lat="47.26274" lon="-1.60224">
        <ele>24.3</ele>
        <time>2020-06-07T09:31:55Z</time>
      </trkpt>
      <trkpt lat="47.26274" lon="-1.60224">
        <ele>24.3</ele>
        <time>2020-06-07T09:31:56Z</time>
      </trkpt>
      <trkpt lat="47.26274" lon="-1.60225">
        <ele>24.3</ele>
        <time>2020-06-07T09:31:57Z</time>
      </trkpt>
      <trkpt lat="47.26274" lon="-1.60225">
        <ele>24.3</ele>
        <time>2020-06-07T09:31:58Z</time>
      </trkpt>
      <trkpt lat="47.26274" lon="-1.60225">
        <ele>24.4</ele>
        <time>2020-06-07T09:31:59Z</time>
      </trkpt>
      <trkpt lat="47.26274" lon="-1.60225">
        <ele>24.4</ele>
        <time>2020-06-07T09:32:00Z</time>
      </trkpt>
      <trkpt lat="47.26274" lon="-1.60225">
        <ele>24.4</ele>
        <time>2020-06-07T09:32:01Z</time>
      </trkpt>
      <trkpt lat="47.26274" lon="-1.60225">
        <ele>24.4</ele>
        <time>2020-06-07T09:32:02Z</time>
      </trkpt>
      <trkpt lat="47.26274" lon="-1.60225">
        <ele>24.4</ele>
        <time>2020-06-07T09:32:03Z</time>
      </trkpt>
      <trkpt lat="47.26274" lon="-1.60225">
        <ele>24.4</ele>
        <time>2020-06-07T09:32:04Z</time>
      </trkpt>
      <trkpt lat="47.26274" lon="-1.60225">
        <ele>24.4</ele>
        <time>2020-06-07T09:32:05Z</time>
      </trkpt>
      <trkpt lat="47.26274" lon="-1.60225">
        <ele>24.4</ele>
        <time>2020-06-07T09:32:06Z</time>
      </trkpt>
      <trkpt lat="47.26275" lon="-1.60226">
        <ele>24.4</ele>
        <time>2020-06-07T09:32:07Z</time>
      </trkpt>
      <trkpt lat="47.26275" lon="-1.60226">
        <ele>24.4</ele>
        <time>2020-06-07T09:32:08Z</time>
      </trkpt>
      <trkpt lat="47.26275" lon="-1.60226">
        <ele>24.4</ele>
        <time>2020-06-07T09:32:09Z</time>
      </trkpt>
      <trkpt lat="47.26276" lon="-1.60227">
        <ele>24.4</ele>
        <time>2020-06-07T09:32:10Z</time>
      </trkpt>
      <trkpt lat="47.26276" lon="-1.60228">
        <ele>24.4</ele>
        <time>2020-06-07T09:32:11Z</time>
      </trkpt>
      <trkpt lat="47.26277" lon="-1.60229">
        <ele>24.4</ele>
        <time>2020-06-07T09:32:12Z</time>
      </trkpt>
      <trkpt lat="47.26277" lon="-1.6023">
        <ele>24.5</ele>
        <time>2020-06-07T09:32:13Z</time>
      </trkpt>
      <trkpt lat="47.26278" lon="-1.60231">
        <ele>24.5</ele>
        <time>2020-06-07T09:32:14Z</time>
      </trkpt>
      <trkpt lat="47.26279" lon="-1.60232">
        <ele>24.5</ele>
        <time>2020-06-07T09:32:15Z</time>
      </trkpt>
      <trkpt lat="47.26279" lon="-1.60233">
        <ele>24.6</ele>
        <time>2020-06-07T09:32:16Z</time>
      </trkpt>
      <trkpt lat="47.2628" lon="-1.60235">
        <ele>24.6</ele>
        <time>2020-06-07T09:32:17Z</time>
      </trkpt>
      <trkpt lat="47.26281" lon="-1.60236">
        <ele>24.6</ele>
        <time>2020-06-07T09:32:18Z</time>
      </trkpt>
      <trkpt lat="47.26281" lon="-1.60237">
        <ele>24.7</ele>
        <time>2020-06-07T09:32:19Z</time>
      </trkpt>
      <trkpt lat="47.26282" lon="-1.60238">
        <ele>24.7</ele>
        <time>2020-06-07T09:32:20Z</time>
      </trkpt>
      <trkpt lat="47.26282" lon="-1.60239">
        <ele>24.7</ele>
        <time>2020-06-07T09:32:21Z</time>
      </trkpt>
      <trkpt lat="47.26282" lon="-1.6024">
        <ele>24.8</ele>
        <time>2020-06-07T09:32:22Z</time>
      </trkpt>
      <trkpt lat="47.26282" lon="-1.60241">
        <ele>24.8</ele>
        <time>2020-06-07T09:32:23Z</time>
      </trkpt>
      <trkpt lat="47.26282" lon="-1.60242">
        <ele>24.9</ele>
        <time>2020-06-07T09:32:24Z</time>
      </trkpt>
      <trkpt lat="47.26283" lon="-1.60243">
        <ele>24.9</ele>
        <time>2020-06-07T09:32:25Z</time>
      </trkpt>
      <trkpt lat="47.26283" lon="-1.60244">
        <ele>24.9</ele>
        <time>2020-06-07T09:32:26Z</time>
      </trkpt>
      <trkpt lat="47.26283" lon="-1.60245">
        <ele>25</ele>
        <time>2020-06-07T09:32:27Z</time>
      </trkpt>
      <trkpt lat="47.26283" lon="-1.60246">
        <ele>25</ele>
        <time>2020-06-07T09:32:28Z</time>
      </trkpt>
      <trkpt lat="47.26283" lon="-1.60247">
        <ele>25.1</ele>
        <time>2020-06-07T09:32:29Z</time>
      </trkpt>
      <trkpt lat="47.26283" lon="-1.60248">
        <ele>25.1</ele>
        <time>2020-06-07T09:32:30Z</time>
      </trkpt>
      <trkpt lat="47.26283" lon="-1.60249">
        <ele>25.2</ele>
        <time>2020-06-07T09:32:31Z</time>
      </trkpt>
      <trkpt lat="47.26283" lon="-1.6025">
        <ele>25.2</ele>
        <time>2020-06-07T09:32:32Z</time>
      </trkpt>
      <trkpt lat="47.26284" lon="-1.60251">
        <ele>25.2</ele>
        <time>2020-06-07T09:32:33Z</time>
      </trkpt>
      <trkpt lat="47.26284" lon="-1.60252">
        <ele>25.2</ele>
        <time>2020-06-07T09:32:34Z</time>
      </trkpt>
      <trkpt lat="47.26284" lon="-1.60253">
        <ele>25.3</ele>
        <time>2020-06-07T09:32:35Z</time>
      </trkpt>
      <trkpt lat="47.26284" lon="-1.60254">
        <ele>25.3</ele>
        <time>2020-06-07T09:32:36Z</time>
      </trkpt>
      <trkpt lat="47.26284" lon="-1.60255">
        <ele>25.3</ele>
        <time>2020-06-07T09:32:37Z</time>
      </trkpt>
      <trkpt lat="47.26284" lon="-1.60256">
        <ele>25.3</ele>
        <time>2020-06-07T09:32:38Z</time>
      </trkpt>
      <trkpt lat="47.26285" lon="-1.60257">
        <ele>25.3</ele>
        <time>2020-06-07T09:32:39Z</time>
      </trkpt>
      <trkpt lat="47.26285" lon="-1.60258">
        <ele>25.3</ele>
        <time>2020-06-07T09:32:40Z</time>
      </trkpt>
      <trkpt lat="47.26285" lon="-1.60259">
        <ele>25.3</ele>
        <time>2020-06-07T09:32:41Z</time>
      </trkpt>
      <trkpt lat="47.26285" lon="-1.6026">
        <ele>25.4</ele>
        <time>2020-06-07T09:32:42Z</time>
      </trkpt>
      <trkpt lat="47.26285" lon="-1.60261">
        <ele>25.4</ele>
        <time>2020-06-07T09:32:43Z</time>
      </trkpt>
      <trkpt lat="47.26286" lon="-1.60262">
        <ele>25.4</ele>
        <time>2020-06-07T09:32:44Z</time>
      </trkpt>
      <trkpt lat="47.26286" lon="-1.60263">
        <ele>25.4</ele>
        <time>2020-06-07T09:32:45Z</time>
      </trkpt>
      <trkpt lat="47.26286" lon="-1.60264">
        <ele>25.4</ele>
        <time>2020-06-07T09:32:46Z</time>
      </trkpt>
      <trkpt lat="47.26287" lon="-1.60266">
        <ele>25.4</ele>
        <time>2020-06-07T09:32:47Z</time>
      </trkpt>
      <trkpt lat="47.26287" lon="-1.60267">
        <ele>25.4</ele>
        <time>2020-06-07T09:32:48Z</time>
      </trkpt>
      <trkpt lat="47.26287" lon="-1.60268">
        <ele>25.4</ele>
        <time>2020-06-07T09:32:49Z</time>
      </trkpt>
      <trkpt lat="47.26288" lon="-1.60269">
        <ele>25.3</ele>
        <time>2020-06-07T09:32:50Z</time>
      </trkpt>
      <trkpt lat="47.26288" lon="-1.6027">
        <ele>25.3</ele>
        <time>2020-06-07T09:32:51Z</time>
      </trkpt>
      <trkpt lat="47.26289" lon="-1.60271">
        <ele>25.3</ele>
        <time>2020-06-07T09:32:52Z</time>
      </trkpt>
      <trkpt lat="47.26289" lon="-1.60273">
        <ele>25.3</ele>
        <time>2020-06-07T09:32:53Z</time>
      </trkpt>
      <trkpt lat="47.26289" lon="-1.60274">
        <ele>25.3</ele>
        <time>2020-06-07T09:32:54Z</time>
      </trkpt>
      <trkpt lat="47.2629" lon="-1.60275">
        <ele>25.3</ele>
        <time>2020-06-07T09:32:55Z</time>
      </trkpt>
      <trkpt lat="47.2629" lon="-1.60277">
        <ele>25.3</ele>
        <time>2020-06-07T09:32:56Z</time>
      </trkpt>
      <trkpt lat="47.2629" lon="-1.60279">
        <ele>25.3</ele>
        <time>2020-06-07T09:32:57Z</time>
      </trkpt>
      <trkpt lat="47.26291" lon="-1.6028">
        <ele>25.3</ele>
        <time>2020-06-07T09:32:58Z</time>
      </trkpt>
      <trkpt lat="47.26291" lon="-1.60282">
        <ele>25.3</ele>
        <time>2020-06-07T09:32:59Z</time>
      </trkpt>
      <trkpt lat="47.26291" lon="-1.60283">
        <ele>25.4</ele>
        <time>2020-06-07T09:33:00Z</time>
      </trkpt>
      <trkpt lat="47.26291" lon="-1.60285">
        <ele>25.4</ele>
        <time>2020-06-07T09:33:01Z</time>
      </trkpt>
      <trkpt lat="47.26291" lon="-1.60286">
        <ele>25.4</ele>
        <time>2020-06-07T09:33:02Z</time>
      </trkpt>
      <trkpt lat="47.26291" lon="-1.60288">
        <ele>25.4</ele>
        <time>2020-06-07T09:33:03Z</time>
      </trkpt>
      <trkpt lat="47.26291" lon="-1.60289">
        <ele>25.5</ele>
        <time>2020-06-07T09:33:04Z</time>
      </trkpt>
      <trkpt lat="47.26291" lon="-1.60291">
        <ele>25.5</ele>
        <time>2020-06-07T09:33:05Z</time>
      </trkpt>
      <trkpt lat="47.26291" lon="-1.60292">
        <ele>25.6</ele>
        <time>2020-06-07T09:33:06Z</time>
      </trkpt>
      <trkpt lat="47.26291" lon="-1.60293">
        <ele>25.6</ele>
        <time>2020-06-07T09:33:07Z</time>
      </trkpt>
      <trkpt lat="47.26291" lon="-1.60294">
        <ele>25.6</ele>
        <time>2020-06-07T09:33:08Z</time>
      </trkpt>
      <trkpt lat="47.26291" lon="-1.60296">
        <ele>25.7</ele>
        <time>2020-06-07T09:33:09Z</time>
      </trkpt>
      <trkpt lat="47.26291" lon="-1.60297">
        <ele>25.7</ele>
        <time>2020-06-07T09:33:10Z</time>
      </trkpt>
      <trkpt lat="47.26291" lon="-1.60298">
        <ele>25.7</ele>
        <time>2020-06-07T09:33:11Z</time>
      </trkpt>
      <trkpt lat="47.26292" lon="-1.60299">
        <ele>25.7</ele>
        <time>2020-06-07T09:33:12Z</time>
      </trkpt>
      <trkpt lat="47.26292" lon="-1.603">
        <ele>25.7</ele>
        <time>2020-06-07T09:33:13Z</time>
      </trkpt>
      <trkpt lat="47.26292" lon="-1.60301">
        <ele>25.6</ele>
        <time>2020-06-07T09:33:14Z</time>
      </trkpt>
      <trkpt lat="47.26293" lon="-1.60302">
        <ele>25.6</ele>
        <time>2020-06-07T09:33:15Z</time>
      </trkpt>
      <trkpt lat="47.26293" lon="-1.60303">
        <ele>25.6</ele>
        <time>2020-06-07T09:33:16Z</time>
      </trkpt>
      <trkpt lat="47.26294" lon="-1.60304">
        <ele>25.6</ele>
        <time>2020-06-07T09:33:17Z</time>
      </trkpt>
      <trkpt lat="47.26294" lon="-1.60306">
        <ele>25.5</ele>
        <time>2020-06-07T09:33:18Z</time>
      </trkpt>
      <trkpt lat="47.26294" lon="-1.60307">
        <ele>25.5</ele>
        <time>2020-06-07T09:33:19Z</time>
      </trkpt>
      <trkpt lat="47.26295" lon="-1.60308">
        <ele>25.5</ele>
        <time>2020-06-07T09:33:20Z</time>
      </trkpt>
      <trkpt lat="47.26295" lon="-1.60309">
        <ele>25.5</ele>
        <time>2020-06-07T09:33:21Z</time>
      </trkpt>
      <trkpt lat="47.26295" lon="-1.6031">
        <ele>25.4</ele>
        <time>2020-06-07T09:33:22Z</time>
      </trkpt>
      <trkpt lat="47.26296" lon="-1.60311">
        <ele>25.4</ele>
        <time>2020-06-07T09:33:23Z</time>
      </trkpt>
      <trkpt lat="47.26296" lon="-1.60312">
        <ele>25.4</ele>
        <time>2020-06-07T09:33:24Z</time>
      </trkpt>
      <trkpt lat="47.26296" lon="-1.60313">
        <ele>25.4</ele>
        <time>2020-06-07T09:33:25Z</time>
      </trkpt>
      <trkpt lat="47.26296" lon="-1.60314">
        <ele>25.4</ele>
        <time>2020-06-07T09:33:26Z</time>
      </trkpt>
      <trkpt lat="47.26296" lon="-1.60315">
        <ele>25.4</ele>
        <time>2020-06-07T09:33:27Z</time>
      </trkpt>
      <trkpt lat="47.26296" lon="-1.60316">
        <ele>25.5</ele>
        <time>2020-06-07T09:33:28Z</time>
      </trkpt>
      <trkpt lat="47.26296" lon="-1.60317">
        <ele>25.5</ele>
        <time>2020-06-07T09:33:29Z</time>
      </trkpt>
      <trkpt lat="47.26296" lon="-1.60318">
        <ele>25.5</ele>
        <time>2020-06-07T09:33:30Z</time>
      </trkpt>
      <trkpt lat="47.26296" lon="-1.60319">
        <ele>25.5</ele>
        <time>2020-06-07T09:33:31Z</time>
      </trkpt>
      <trkpt lat="47.26296" lon="-1.6032">
        <ele>25.6</ele>
        <time>2020-06-07T09:33:32Z</time>
      </trkpt>
      <trkpt lat="47.26296" lon="-1.60321">
        <ele>25.6</ele>
        <time>2020-06-07T09:33:33Z</time>
      </trkpt>
      <trkpt lat="47.26296" lon="-1.60322">
        <ele>25.6</ele>
        <time>2020-06-07T09:33:34Z</time>
      </trkpt>
      <trkpt lat="47.26296" lon="-1.60322">
        <ele>25.6</ele>
        <time>2020-06-07T09:33:35Z</time>
      </trkpt>
      <trkpt lat="47.26296" lon="-1.60323">
        <ele>25.6</ele>
        <time>2020-06-07T09:33:36Z</time>
      </trkpt>
      <trkpt lat="47.26296" lon="-1.60324">
        <ele>25.6</ele>
        <time>2020-06-07T09:33:37Z</time>
      </trkpt>
      <trkpt lat="47.26297" lon="-1.60325">
        <ele>25.6</ele>
        <time>2020-06-07T09:33:38Z</time>
      </trkpt>
      <trkpt lat="47.26297" lon="-1.60325">
        <ele>25.5</ele>
        <time>2020-06-07T09:33:39Z</time>
      </trkpt>
      <trkpt lat="47.26297" lon="-1.60326">
        <ele>25.5</ele>
        <time>2020-06-07T09:33:40Z</time>
      </trkpt>
      <trkpt lat="47.26298" lon="-1.60327">
        <ele>25.4</ele>
        <time>2020-06-07T09:33:41Z</time>
      </trkpt>
      <trkpt lat="47.26298" lon="-1.60328">
        <ele>25.4</ele>
        <time>2020-06-07T09:33:42Z</time>
      </trkpt>
      <trkpt lat="47.26299" lon="-1.60329">
        <ele>25.3</ele>
        <time>2020-06-07T09:33:43Z</time>
      </trkpt>
      <trkpt lat="47.26299" lon="-1.6033">
        <ele>25.3</ele>
        <time>2020-06-07T09:33:44Z</time>
      </trkpt>
      <trkpt lat="47.263" lon="-1.6033">
        <ele>25.2</ele>
        <time>2020-06-07T09:33:45Z</time>
      </trkpt>
      <trkpt lat="47.263" lon="-1.60331">
        <ele>25.2</ele>
        <time>2020-06-07T09:33:46Z</time>
      </trkpt>
      <trkpt lat="47.263" lon="-1.60332">
        <ele>25.1</ele>
        <time>2020-06-07T09:33:47Z</time>
      </trkpt>
      <trkpt lat="47.26301" lon="-1.60333">
        <ele>25.1</ele>
        <time>2020-06-07T09:33:48Z</time>
      </trkpt>
      <trkpt lat="47.26301" lon="-1.60334">
        <ele>25</ele>
        <time>2020-06-07T09:33:49Z</time>
      </trkpt>
      <trkpt lat="47.26301" lon="-1.60335">
        <ele>25</ele>
        <time>2020-06-07T09:33:50Z</time>
      </trkpt>
      <trkpt lat="47.26302" lon="-1.60336">
        <ele>25</ele>
        <time>2020-06-07T09:33:51Z</time>
      </trkpt>
      <trkpt lat="47.26302" lon="-1.60337">
        <ele>24.9</ele>
        <time>2020-06-07T09:33:52Z</time>
      </trkpt>
      <trkpt lat="47.26302" lon="-1.60337">
        <ele>24.9</ele>
        <time>2020-06-07T09:33:53Z</time>
      </trkpt>
      <trkpt lat="47.26302" lon="-1.60338">
        <ele>24.9</ele>
        <time>2020-06-07T09:33:54Z</time>
      </trkpt>
      <trkpt lat="47.26302" lon="-1.60338">
        <ele>24.9</ele>
        <time>2020-06-07T09:33:55Z</time>
      </trkpt>
      <trkpt lat="47.26302" lon="-1.60338">
        <ele>24.9</ele>
        <time>2020-06-07T09:33:56Z</time>
      </trkpt>
      <trkpt lat="47.26302" lon="-1.60338">
        <ele>24.9</ele>
        <time>2020-06-07T09:33:57Z</time>
      </trkpt>
      <trkpt lat="47.26302" lon="-1.60338">
        <ele>24.9</ele>
        <time>2020-06-07T09:33:58Z</time>
      </trkpt>
      <trkpt lat="47.26302" lon="-1.60338">
        <ele>24.9</ele>
        <time>2020-06-07T09:33:59Z</time>
      </trkpt>
      <trkpt lat="47.26302" lon="-1.60338">
        <ele>24.9</ele>
        <time>2020-06-07T09:34:00Z</time>
      </trkpt>
      <trkpt lat="47.26302" lon="-1.60339">
        <ele>24.9</ele>
        <time>2020-06-07T09:34:01Z</time>
      </trkpt>
      <trkpt lat="47.26302" lon="-1.60339">
        <ele>24.9</ele>
        <time>2020-06-07T09:34:02Z</time>
      </trkpt>
      <trkpt lat="47.26302" lon="-1.60339">
        <ele>24.9</ele>
        <time>2020-06-07T09:34:03Z</time>
      </trkpt>
      <trkpt lat="47.26302" lon="-1.60339">
        <ele>24.9</ele>
        <time>2020-06-07T09:34:04Z</time>
      </trkpt>
      <trkpt lat="47.26303" lon="-1.6034">
        <ele>24.8</ele>
        <time>2020-06-07T09:34:05Z</time>
      </trkpt>
      <trkpt lat="47.26303" lon="-1.6034">
        <ele>24.8</ele>
        <time>2020-06-07T09:34:06Z</time>
      </trkpt>
      <trkpt lat="47.26303" lon="-1.60341">
        <ele>24.8</ele>
        <time>2020-06-07T09:34:07Z</time>
      </trkpt>
      <trkpt lat="47.26303" lon="-1.60342">
        <ele>24.8</ele>
        <time>2020-06-07T09:34:08Z</time>
      </trkpt>
      <trkpt lat="47.26303" lon="-1.60343">
        <ele>24.7</ele>
        <time>2020-06-07T09:34:09Z</time>
      </trkpt>
      <trkpt lat="47.26304" lon="-1.60344">
        <ele>24.7</ele>
        <time>2020-06-07T09:34:10Z</time>
      </trkpt>
      <trkpt lat="47.26304" lon="-1.60345">
        <ele>24.6</ele>
        <time>2020-06-07T09:34:11Z</time>
      </trkpt>
      <trkpt lat="47.26305" lon="-1.60346">
        <ele>24.5</ele>
        <time>2020-06-07T09:34:12Z</time>
      </trkpt>
      <trkpt lat="47.26305" lon="-1.60347">
        <ele>24.4</ele>
        <time>2020-06-07T09:34:13Z</time>
      </trkpt>
      <trkpt lat="47.26306" lon="-1.60348">
        <ele>24.4</ele>
        <time>2020-06-07T09:34:14Z</time>
      </trkpt>
      <trkpt lat="47.26306" lon="-1.60349">
        <ele>24.3</ele>
        <time>2020-06-07T09:34:15Z</time>
      </trkpt>
      <trkpt lat="47.26307" lon="-1.6035">
        <ele>24.2</ele>
        <time>2020-06-07T09:34:16Z</time>
      </trkpt>
      <trkpt lat="47.26307" lon="-1.60352">
        <ele>24.2</ele>
        <time>2020-06-07T09:34:17Z</time>
      </trkpt>
      <trkpt lat="47.26307" lon="-1.60353">
        <ele>24.2</ele>
        <time>2020-06-07T09:34:18Z</time>
      </trkpt>
      <trkpt lat="47.26307" lon="-1.60354">
        <ele>24.2</ele>
        <time>2020-06-07T09:34:19Z</time>
      </trkpt>
      <trkpt lat="47.26306" lon="-1.60355">
        <ele>24.3</ele>
        <time>2020-06-07T09:34:20Z</time>
      </trkpt>
      <trkpt lat="47.26306" lon="-1.60356">
        <ele>24.4</ele>
        <time>2020-06-07T09:34:21Z</time>
      </trkpt>
      <trkpt lat="47.26305" lon="-1.60357">
        <ele>24.5</ele>
        <time>2020-06-07T09:34:22Z</time>
      </trkpt>
      <trkpt lat="47.26304" lon="-1.60358">
        <ele>24.6</ele>
        <time>2020-06-07T09:34:23Z</time>
      </trkpt>
      <trkpt lat="47.26304" lon="-1.60359">
        <ele>24.8</ele>
        <time>2020-06-07T09:34:24Z</time>
      </trkpt>
      <trkpt lat="47.26303" lon="-1.6036">
        <ele>24.8</ele>
        <time>2020-06-07T09:34:25Z</time>
      </trkpt>
      <trkpt lat="47.26303" lon="-1.60361">
        <ele>24.9</ele>
        <time>2020-06-07T09:34:26Z</time>
      </trkpt>
      <trkpt lat="47.26302" lon="-1.60362">
        <ele>25</ele>
        <time>2020-06-07T09:34:27Z</time>
      </trkpt>
      <trkpt lat="47.26302" lon="-1.60362">
        <ele>25.1</ele>
        <time>2020-06-07T09:34:28Z</time>
      </trkpt>
      <trkpt lat="47.26301" lon="-1.60363">
        <ele>25.2</ele>
        <time>2020-06-07T09:34:29Z</time>
      </trkpt>
      <trkpt lat="47.26301" lon="-1.60364">
        <ele>25.3</ele>
        <time>2020-06-07T09:34:30Z</time>
      </trkpt>
      <trkpt lat="47.263" lon="-1.60364">
        <ele>25.4</ele>
        <time>2020-06-07T09:34:31Z</time>
      </trkpt>
      <trkpt lat="47.263" lon="-1.60365">
        <ele>25.5</ele>
        <time>2020-06-07T09:34:32Z</time>
      </trkpt>
      <trkpt lat="47.26299" lon="-1.60365">
        <ele>25.6</ele>
        <time>2020-06-07T09:34:33Z</time>
      </trkpt>
      <trkpt lat="47.26298" lon="-1.60366">
        <ele>25.7</ele>
        <time>2020-06-07T09:34:34Z</time>
      </trkpt>
      <trkpt lat="47.26298" lon="-1.60367">
        <ele>25.8</ele>
        <time>2020-06-07T09:34:35Z</time>
      </trkpt>
      <trkpt lat="47.26297" lon="-1.60368">
        <ele>25.9</ele>
        <time>2020-06-07T09:34:36Z</time>
      </trkpt>
      <trkpt lat="47.26297" lon="-1.60368">
        <ele>26</ele>
        <time>2020-06-07T09:34:37Z</time>
      </trkpt>
      <trkpt lat="47.26297" lon="-1.60369">
        <ele>26.1</ele>
        <time>2020-06-07T09:34:38Z</time>
      </trkpt>
      <trkpt lat="47.26296" lon="-1.6037">
        <ele>26.1</ele>
        <time>2020-06-07T09:34:39Z</time>
      </trkpt>
      <trkpt lat="47.26296" lon="-1.60371">
        <ele>26.1</ele>
        <time>2020-06-07T09:34:40Z</time>
      </trkpt>
      <trkpt lat="47.26296" lon="-1.60372">
        <ele>26.2</ele>
        <time>2020-06-07T09:34:41Z</time>
      </trkpt>
      <trkpt lat="47.26296" lon="-1.60373">
        <ele>26.2</ele>
        <time>2020-06-07T09:34:42Z</time>
      </trkpt>
      <trkpt lat="47.26296" lon="-1.60373">
        <ele>26.2</ele>
        <time>2020-06-07T09:34:43Z</time>
      </trkpt>
      <trkpt lat="47.26296" lon="-1.60374">
        <ele>26.2</ele>
        <time>2020-06-07T09:34:44Z</time>
      </trkpt>
      <trkpt lat="47.26296" lon="-1.60375">
        <ele>26.2</ele>
        <time>2020-06-07T09:34:45Z</time>
      </trkpt>
      <trkpt lat="47.26296" lon="-1.60376">
        <ele>26.2</ele>
        <time>2020-06-07T09:34:46Z</time>
      </trkpt>
      <trkpt lat="47.26296" lon="-1.60377">
        <ele>26.3</ele>
        <time>2020-06-07T09:34:47Z</time>
      </trkpt>
      <trkpt lat="47.26296" lon="-1.60378">
        <ele>26.3</ele>
        <time>2020-06-07T09:34:48Z</time>
      </trkpt>
      <trkpt lat="47.26296" lon="-1.60379">
        <ele>26.3</ele>
        <time>2020-06-07T09:34:49Z</time>
      </trkpt>
      <trkpt lat="47.26295" lon="-1.6038">
        <ele>26.4</ele>
        <time>2020-06-07T09:34:50Z</time>
      </trkpt>
      <trkpt lat="47.26295" lon="-1.6038">
        <ele>26.4</ele>
        <time>2020-06-07T09:34:51Z</time>
      </trkpt>
      <trkpt lat="47.26295" lon="-1.60381">
        <ele>26.4</ele>
        <time>2020-06-07T09:34:52Z</time>
      </trkpt>
      <trkpt lat="47.26295" lon="-1.60382">
        <ele>26.4</ele>
        <time>2020-06-07T09:34:53Z</time>
      </trkpt>
      <trkpt lat="47.26295" lon="-1.60383">
        <ele>26.5</ele>
        <time>2020-06-07T09:34:54Z</time>
      </trkpt>
      <trkpt lat="47.26295" lon="-1.60384">
        <ele>26.5</ele>
        <time>2020-06-07T09:34:55Z</time>
      </trkpt>
      <trkpt lat="47.26294" lon="-1.60385">
        <ele>26.6</ele>
        <time>2020-06-07T09:34:56Z</time>
      </trkpt>
      <trkpt lat="47.26294" lon="-1.60386">
        <ele>26.7</ele>
        <time>2020-06-07T09:34:57Z</time>
      </trkpt>
      <trkpt lat="47.26294" lon="-1.60387">
        <ele>26.8</ele>
        <time>2020-06-07T09:34:58Z</time>
      </trkpt>
      <trkpt lat="47.26293" lon="-1.60388">
        <ele>26.9</ele>
        <time>2020-06-07T09:34:59Z</time>
      </trkpt>
      <trkpt lat="47.26292" lon="-1.60389">
        <ele>27</ele>
        <time>2020-06-07T09:35:00Z</time>
      </trkpt>
      <trkpt lat="47.26292" lon="-1.6039">
        <ele>27.1</ele>
        <time>2020-06-07T09:35:01Z</time>
      </trkpt>
      <trkpt lat="47.26291" lon="-1.6039">
        <ele>27.2</ele>
        <time>2020-06-07T09:35:02Z</time>
      </trkpt>
      <trkpt lat="47.26291" lon="-1.60391">
        <ele>27.3</ele>
        <time>2020-06-07T09:35:03Z</time>
      </trkpt>
      <trkpt lat="47.26291" lon="-1.60392">
        <ele>27.4</ele>
        <time>2020-06-07T09:35:04Z</time>
      </trkpt>
      <trkpt lat="47.2629" lon="-1.60393">
        <ele>27.5</ele>
        <time>2020-06-07T09:35:05Z</time>
      </trkpt>
      <trkpt lat="47.2629" lon="-1.60394">
        <ele>27.6</ele>
        <time>2020-06-07T09:35:06Z</time>
      </trkpt>
      <trkpt lat="47.2629" lon="-1.60395">
        <ele>27.6</ele>
        <time>2020-06-07T09:35:07Z</time>
      </trkpt>
      <trkpt lat="47.2629" lon="-1.60396">
        <ele>27.7</ele>
        <time>2020-06-07T09:35:08Z</time>
      </trkpt>
      <trkpt lat="47.26289" lon="-1.60397">
        <ele>27.7</ele>
        <time>2020-06-07T09:35:09Z</time>
      </trkpt>
      <trkpt lat="47.26289" lon="-1.60398">
        <ele>27.8</ele>
        <time>2020-06-07T09:35:10Z</time>
      </trkpt>
      <trkpt lat="47.26289" lon="-1.60399">
        <ele>27.8</ele>
        <time>2020-06-07T09:35:11Z</time>
      </trkpt>
      <trkpt lat="47.26289" lon="-1.604">
        <ele>27.8</ele>
        <time>2020-06-07T09:35:12Z</time>
      </trkpt>
      <trkpt lat="47.26289" lon="-1.60401">
        <ele>27.9</ele>
        <time>2020-06-07T09:35:13Z</time>
      </trkpt>
      <trkpt lat="47.26289" lon="-1.60402">
        <ele>27.9</ele>
        <time>2020-06-07T09:35:14Z</time>
      </trkpt>
      <trkpt lat="47.26289" lon="-1.60403">
        <ele>27.9</ele>
        <time>2020-06-07T09:35:15Z</time>
      </trkpt>
      <trkpt lat="47.26289" lon="-1.60404">
        <ele>28</ele>
        <time>2020-06-07T09:35:16Z</time>
      </trkpt>
      <trkpt lat="47.26289" lon="-1.60406">
        <ele>28</ele>
        <time>2020-06-07T09:35:17Z</time>
      </trkpt>
      <trkpt lat="47.26289" lon="-1.60407">
        <ele>28</ele>
        <time>2020-06-07T09:35:18Z</time>
      </trkpt>
      <trkpt lat="47.26288" lon="-1.60408">
        <ele>28</ele>
        <time>2020-06-07T09:35:19Z</time>
      </trkpt>
      <trkpt lat="47.26288" lon="-1.60409">
        <ele>28.1</ele>
        <time>2020-06-07T09:35:20Z</time>
      </trkpt>
      <trkpt lat="47.26288" lon="-1.60411">
        <ele>28.1</ele>
        <time>2020-06-07T09:35:21Z</time>
      </trkpt>
      <trkpt lat="47.26288" lon="-1.60412">
        <ele>28.2</ele>
        <time>2020-06-07T09:35:22Z</time>
      </trkpt>
      <trkpt lat="47.26288" lon="-1.60413">
        <ele>28.2</ele>
        <time>2020-06-07T09:35:23Z</time>
      </trkpt>
      <trkpt lat="47.26288" lon="-1.60415">
        <ele>28.3</ele>
        <time>2020-06-07T09:35:24Z</time>
      </trkpt>
      <trkpt lat="47.26288" lon="-1.60416">
        <ele>28.3</ele>
        <time>2020-06-07T09:35:25Z</time>
      </trkpt>
      <trkpt lat="47.26287" lon="-1.60417">
        <ele>28.4</ele>
        <time>2020-06-07T09:35:26Z</time>
      </trkpt>
      <trkpt lat="47.26287" lon="-1.60418">
        <ele>28.3</ele>
        <time>2020-06-07T09:35:27Z</time>
      </trkpt>
      <trkpt lat="47.26287" lon="-1.6042">
        <ele>28.4</ele>
        <time>2020-06-07T09:35:28Z</time>
      </trkpt>
      <trkpt lat="47.26287" lon="-1.60421">
        <ele>28.4</ele>
        <time>2020-06-07T09:35:29Z</time>
      </trkpt>
      <trkpt lat="47.26287" lon="-1.60422">
        <ele>28.4</ele>
        <time>2020-06-07T09:35:30Z</time>
      </trkpt>
      <trkpt lat="47.26286" lon="-1.60423">
        <ele>28.4</ele>
        <time>2020-06-07T09:35:31Z</time>
      </trkpt>
      <trkpt lat="47.26286" lon="-1.60424">
        <ele>28.4</ele>
        <time>2020-06-07T09:35:32Z</time>
      </trkpt>
      <trkpt lat="47.26286" lon="-1.60425">
        <ele>28.4</ele>
        <time>2020-06-07T09:35:33Z</time>
      </trkpt>
      <trkpt lat="47.26285" lon="-1.60426">
        <ele>28.4</ele>
        <time>2020-06-07T09:35:34Z</time>
      </trkpt>
      <trkpt lat="47.26285" lon="-1.60427">
        <ele>28.4</ele>
        <time>2020-06-07T09:35:35Z</time>
      </trkpt>
      <trkpt lat="47.26285" lon="-1.60428">
        <ele>28.5</ele>
        <time>2020-06-07T09:35:36Z</time>
      </trkpt>
      <trkpt lat="47.26284" lon="-1.60429">
        <ele>28.5</ele>
        <time>2020-06-07T09:35:37Z</time>
      </trkpt>
      <trkpt lat="47.26284" lon="-1.6043">
        <ele>28.6</ele>
        <time>2020-06-07T09:35:38Z</time>
      </trkpt>
      <trkpt lat="47.26283" lon="-1.60431">
        <ele>28.6</ele>
        <time>2020-06-07T09:35:39Z</time>
      </trkpt>
      <trkpt lat="47.26283" lon="-1.60432">
        <ele>28.7</ele>
        <time>2020-06-07T09:35:40Z</time>
      </trkpt>
      <trkpt lat="47.26282" lon="-1.60433">
        <ele>28.7</ele>
        <time>2020-06-07T09:35:41Z</time>
      </trkpt>
      <trkpt lat="47.26282" lon="-1.60434">
        <ele>28.8</ele>
        <time>2020-06-07T09:35:42Z</time>
      </trkpt>
      <trkpt lat="47.26281" lon="-1.60436">
        <ele>28.8</ele>
        <time>2020-06-07T09:35:43Z</time>
      </trkpt>
      <trkpt lat="47.26281" lon="-1.60437">
        <ele>28.9</ele>
        <time>2020-06-07T09:35:44Z</time>
      </trkpt>
      <trkpt lat="47.2628" lon="-1.60438">
        <ele>28.9</ele>
        <time>2020-06-07T09:35:45Z</time>
      </trkpt>
      <trkpt lat="47.2628" lon="-1.60439">
        <ele>29</ele>
        <time>2020-06-07T09:35:46Z</time>
      </trkpt>
      <trkpt lat="47.26279" lon="-1.6044">
        <ele>29.1</ele>
        <time>2020-06-07T09:35:47Z</time>
      </trkpt>
      <trkpt lat="47.26279" lon="-1.60441">
        <ele>29.1</ele>
        <time>2020-06-07T09:35:48Z</time>
      </trkpt>
      <trkpt lat="47.26278" lon="-1.60442">
        <ele>29.1</ele>
        <time>2020-06-07T09:35:49Z</time>
      </trkpt>
      <trkpt lat="47.26278" lon="-1.60443">
        <ele>29.2</ele>
        <time>2020-06-07T09:35:50Z</time>
      </trkpt>
      <trkpt lat="47.26278" lon="-1.60444">
        <ele>29.2</ele>
        <time>2020-06-07T09:35:51Z</time>
      </trkpt>
      <trkpt lat="47.26277" lon="-1.60445">
        <ele>29.2</ele>
        <time>2020-06-07T09:35:52Z</time>
      </trkpt>
      <trkpt lat="47.26277" lon="-1.60445">
        <ele>29.2</ele>
        <time>2020-06-07T09:35:53Z</time>
      </trkpt>
      <trkpt lat="47.26277" lon="-1.60446">
        <ele>29.2</ele>
        <time>2020-06-07T09:35:54Z</time>
      </trkpt>
      <trkpt lat="47.26277" lon="-1.60447">
        <ele>29.2</ele>
        <time>2020-06-07T09:35:55Z</time>
      </trkpt>
      <trkpt lat="47.26277" lon="-1.60448">
        <ele>29.2</ele>
        <time>2020-06-07T09:35:56Z</time>
      </trkpt>
      <trkpt lat="47.26277" lon="-1.60449">
        <ele>29.1</ele>
        <time>2020-06-07T09:35:57Z</time>
      </trkpt>
      <trkpt lat="47.26277" lon="-1.60449">
        <ele>29.1</ele>
        <time>2020-06-07T09:35:58Z</time>
      </trkpt>
      <trkpt lat="47.26277" lon="-1.6045">
        <ele>29</ele>
        <time>2020-06-07T09:35:59Z</time>
      </trkpt>
      <trkpt lat="47.26277" lon="-1.60451">
        <ele>29</ele>
        <time>2020-06-07T09:36:00Z</time>
      </trkpt>
      <trkpt lat="47.26277" lon="-1.60452">
        <ele>29</ele>
        <time>2020-06-07T09:36:01Z</time>
      </trkpt>
      <trkpt lat="47.26277" lon="-1.60452">
        <ele>28.9</ele>
        <time>2020-06-07T09:36:02Z</time>
      </trkpt>
      <trkpt lat="47.26277" lon="-1.60453">
        <ele>28.9</ele>
        <time>2020-06-07T09:36:03Z</time>
      </trkpt>
      <trkpt lat="47.26277" lon="-1.60453">
        <ele>28.8</ele>
        <time>2020-06-07T09:36:04Z</time>
      </trkpt>
      <trkpt lat="47.26277" lon="-1.60454">
        <ele>28.8</ele>
        <time>2020-06-07T09:36:05Z</time>
      </trkpt>
      <trkpt lat="47.26277" lon="-1.60455">
        <ele>28.8</ele>
        <time>2020-06-07T09:36:06Z</time>
      </trkpt>
      <trkpt lat="47.26277" lon="-1.60455">
        <ele>28.7</ele>
        <time>2020-06-07T09:36:07Z</time>
      </trkpt>
      <trkpt lat="47.26277" lon="-1.60456">
        <ele>28.7</ele>
        <time>2020-06-07T09:36:08Z</time>
      </trkpt>
      <trkpt lat="47.26277" lon="-1.60457">
        <ele>28.7</ele>
        <time>2020-06-07T09:36:09Z</time>
      </trkpt>
      <trkpt lat="47.26277" lon="-1.60457">
        <ele>28.6</ele>
        <time>2020-06-07T09:36:10Z</time>
      </trkpt>
      <trkpt lat="47.26277" lon="-1.60458">
        <ele>28.6</ele>
        <time>2020-06-07T09:36:11Z</time>
      </trkpt>
      <trkpt lat="47.26278" lon="-1.60458">
        <ele>28.6</ele>
        <time>2020-06-07T09:36:12Z</time>
      </trkpt>
      <trkpt lat="47.26278" lon="-1.60459">
        <ele>28.5</ele>
        <time>2020-06-07T09:36:13Z</time>
      </trkpt>
      <trkpt lat="47.26278" lon="-1.6046">
        <ele>28.4</ele>
        <time>2020-06-07T09:36:14Z</time>
      </trkpt>
      <trkpt lat="47.26278" lon="-1.6046">
        <ele>28.4</ele>
        <time>2020-06-07T09:36:15Z</time>
      </trkpt>
      <trkpt lat="47.26278" lon="-1.60461">
        <ele>28.3</ele>
        <time>2020-06-07T09:36:16Z</time>
      </trkpt>
      <trkpt lat="47.26278" lon="-1.60462">
        <ele>28.3</ele>
        <time>2020-06-07T09:36:17Z</time>
      </trkpt>
      <trkpt lat="47.26278" lon="-1.60462">
        <ele>28.2</ele>
        <time>2020-06-07T09:36:18Z</time>
      </trkpt>
      <trkpt lat="47.26278" lon="-1.60463">
        <ele>28.2</ele>
        <time>2020-06-07T09:36:19Z</time>
      </trkpt>
      <trkpt lat="47.26278" lon="-1.60464">
        <ele>28.2</ele>
        <time>2020-06-07T09:36:20Z</time>
      </trkpt>
      <trkpt lat="47.26278" lon="-1.60465">
        <ele>28.2</ele>
        <time>2020-06-07T09:36:21Z</time>
      </trkpt>
      <trkpt lat="47.26278" lon="-1.60465">
        <ele>28.2</ele>
        <time>2020-06-07T09:36:22Z</time>
      </trkpt>
      <trkpt lat="47.26277" lon="-1.60466">
        <ele>28.3</ele>
        <time>2020-06-07T09:36:23Z</time>
      </trkpt>
      <trkpt lat="47.26276" lon="-1.60467">
        <ele>28.4</ele>
        <time>2020-06-07T09:36:24Z</time>
      </trkpt>
      <trkpt lat="47.26276" lon="-1.60468">
        <ele>28.4</ele>
        <time>2020-06-07T09:36:25Z</time>
      </trkpt>
      <trkpt lat="47.26275" lon="-1.60469">
        <ele>28.5</ele>
        <time>2020-06-07T09:36:26Z</time>
      </trkpt>
      <trkpt lat="47.26275" lon="-1.60469">
        <ele>28.6</ele>
        <time>2020-06-07T09:36:27Z</time>
      </trkpt>
      <trkpt lat="47.26274" lon="-1.6047">
        <ele>28.6</ele>
        <time>2020-06-07T09:36:28Z</time>
      </trkpt>
      <trkpt lat="47.26273" lon="-1.60471">
        <ele>28.7</ele>
        <time>2020-06-07T09:36:29Z</time>
      </trkpt>
      <trkpt lat="47.26273" lon="-1.60473">
        <ele>28.7</ele>
        <time>2020-06-07T09:36:30Z</time>
      </trkpt>
      <trkpt lat="47.26273" lon="-1.60474">
        <ele>28.7</ele>
        <time>2020-06-07T09:36:31Z</time>
      </trkpt>
      <trkpt lat="47.26272" lon="-1.60475">
        <ele>28.7</ele>
        <time>2020-06-07T09:36:32Z</time>
      </trkpt>
      <trkpt lat="47.26272" lon="-1.60476">
        <ele>28.6</ele>
        <time>2020-06-07T09:36:33Z</time>
      </trkpt>
      <trkpt lat="47.26272" lon="-1.60478">
        <ele>28.6</ele>
        <time>2020-06-07T09:36:34Z</time>
      </trkpt>
      <trkpt lat="47.26272" lon="-1.60479">
        <ele>28.5</ele>
        <time>2020-06-07T09:36:35Z</time>
      </trkpt>
      <trkpt lat="47.26272" lon="-1.6048">
        <ele>28.5</ele>
        <time>2020-06-07T09:36:36Z</time>
      </trkpt>
      <trkpt lat="47.26272" lon="-1.60482">
        <ele>28.4</ele>
        <time>2020-06-07T09:36:37Z</time>
      </trkpt>
      <trkpt lat="47.26272" lon="-1.60483">
        <ele>28.3</ele>
        <time>2020-06-07T09:36:38Z</time>
      </trkpt>
      <trkpt lat="47.26273" lon="-1.60484">
        <ele>28.2</ele>
        <time>2020-06-07T09:36:39Z</time>
      </trkpt>
      <trkpt lat="47.26273" lon="-1.60485">
        <ele>28.1</ele>
        <time>2020-06-07T09:36:40Z</time>
      </trkpt>
      <trkpt lat="47.26273" lon="-1.60487">
        <ele>28.1</ele>
        <time>2020-06-07T09:36:41Z</time>
      </trkpt>
      <trkpt lat="47.26273" lon="-1.60488">
        <ele>28</ele>
        <time>2020-06-07T09:36:42Z</time>
      </trkpt>
      <trkpt lat="47.26273" lon="-1.60489">
        <ele>27.9</ele>
        <time>2020-06-07T09:36:43Z</time>
      </trkpt>
      <trkpt lat="47.26273" lon="-1.6049">
        <ele>27.8</ele>
        <time>2020-06-07T09:36:44Z</time>
      </trkpt>
      <trkpt lat="47.26273" lon="-1.60491">
        <ele>27.8</ele>
        <time>2020-06-07T09:36:45Z</time>
      </trkpt>
      <trkpt lat="47.26274" lon="-1.60492">
        <ele>27.7</ele>
        <time>2020-06-07T09:36:46Z</time>
      </trkpt>
      <trkpt lat="47.26274" lon="-1.60493">
        <ele>27.7</ele>
        <time>2020-06-07T09:36:47Z</time>
      </trkpt>
      <trkpt lat="47.26274" lon="-1.60493">
        <ele>27.6</ele>
        <time>2020-06-07T09:36:48Z</time>
      </trkpt>
      <trkpt lat="47.26274" lon="-1.60494">
        <ele>27.6</ele>
        <time>2020-06-07T09:36:49Z</time>
      </trkpt>
      <trkpt lat="47.26274" lon="-1.60495">
        <ele>27.5</ele>
        <time>2020-06-07T09:36:50Z</time>
      </trkpt>
      <trkpt lat="47.26274" lon="-1.60495">
        <ele>27.5</ele>
        <time>2020-06-07T09:36:51Z</time>
      </trkpt>
      <trkpt lat="47.26274" lon="-1.60495">
        <ele>27.5</ele>
        <time>2020-06-07T09:36:52Z</time>
      </trkpt>
      <trkpt lat="47.26274" lon="-1.60496">
        <ele>27.5</ele>
        <time>2020-06-07T09:36:53Z</time>
      </trkpt>
      <trkpt lat="47.26274" lon="-1.60496">
        <ele>27.5</ele>
        <time>2020-06-07T09:36:54Z</time>
      </trkpt>
      <trkpt lat="47.26274" lon="-1.60496">
        <ele>27.4</ele>
        <time>2020-06-07T09:36:55Z</time>
      </trkpt>
      <trkpt lat="47.26274" lon="-1.60496">
        <ele>27.4</ele>
        <time>2020-06-07T09:36:56Z</time>
      </trkpt>
      <trkpt lat="47.26274" lon="-1.60496">
        <ele>27.4</ele>
        <time>2020-06-07T09:36:57Z</time>
      </trkpt>
      <trkpt lat="47.26274" lon="-1.60496">
        <ele>27.4</ele>
        <time>2020-06-07T09:36:58Z</time>
      </trkpt>
      <trkpt lat="47.26274" lon="-1.60496">
        <ele>27.5</ele>
        <time>2020-06-07T09:36:59Z</time>
      </trkpt>
      <trkpt lat="47.26274" lon="-1.60496">
        <ele>27.5</ele>
        <time>2020-06-07T09:37:00Z</time>
      </trkpt>
      <trkpt lat="47.26274" lon="-1.60496">
        <ele>27.5</ele>
        <time>2020-06-07T09:37:01Z</time>
      </trkpt>
      <trkpt lat="47.26274" lon="-1.60496">
        <ele>27.5</ele>
        <time>2020-06-07T09:37:02Z</time>
      </trkpt>
      <trkpt lat="47.26274" lon="-1.60496">
        <ele>27.5</ele>
        <time>2020-06-07T09:37:03Z</time>
      </trkpt>
      <trkpt lat="47.26274" lon="-1.60496">
        <ele>27.5</ele>
        <time>2020-06-07T09:37:04Z</time>
      </trkpt>
      <trkpt lat="47.26274" lon="-1.60496">
        <ele>27.5</ele>
        <time>2020-06-07T09:37:05Z</time>
      </trkpt>
      <trkpt lat="47.26274" lon="-1.60496">
        <ele>27.5</ele>
        <time>2020-06-07T09:37:06Z</time>
      </trkpt>
      <trkpt lat="47.26274" lon="-1.60496">
        <ele>27.5</ele>
        <time>2020-06-07T09:37:07Z</time>
      </trkpt>
      <trkpt lat="47.26274" lon="-1.60496">
        <ele>27.5</ele>
        <time>2020-06-07T09:37:08Z</time>
      </trkpt>
      <trkpt lat="47.26274" lon="-1.60496">
        <ele>27.5</ele>
        <time>2020-06-07T09:37:09Z</time>
      </trkpt>
      <trkpt lat="47.26274" lon="-1.60496">
        <ele>27.5</ele>
        <time>2020-06-07T09:37:10Z</time>
      </trkpt>
      <trkpt lat="47.26274" lon="-1.60496">
        <ele>27.5</ele>
        <time>2020-06-07T09:37:11Z</time>
      </trkpt>
      <trkpt lat="47.26274" lon="-1.60496">
        <ele>27.5</ele>
        <time>2020-06-07T09:37:12Z</time>
      </trkpt>
      <trkpt lat="47.26274" lon="-1.60496">
        <ele>27.5</ele>
        <time>2020-06-07T09:37:13Z</time>
      </trkpt>
      <trkpt lat="47.26274" lon="-1.60496">
        <ele>27.5</ele>
        <time>2020-06-07T09:37:14Z</time>
      </trkpt>
      <trkpt lat="47.26274" lon="-1.60496">
        <ele>27.4</ele>
        <time>2020-06-07T09:37:15Z</time>
      </trkpt>
      <trkpt lat="47.26274" lon="-1.60496">
        <ele>27.4</ele>
        <time>2020-06-07T09:37:16Z</time>
      </trkpt>
      <trkpt lat="47.26275" lon="-1.60497">
        <ele>27.3</ele>
        <time>2020-06-07T09:37:17Z</time>
      </trkpt>
      <trkpt lat="47.26275" lon="-1.60498">
        <ele>27.2</ele>
        <time>2020-06-07T09:37:18Z</time>
      </trkpt>
      <trkpt lat="47.26275" lon="-1.60499">
        <ele>27.1</ele>
        <time>2020-06-07T09:37:19Z</time>
      </trkpt>
      <trkpt lat="47.26276" lon="-1.605">
        <ele>27</ele>
        <time>2020-06-07T09:37:20Z</time>
      </trkpt>
      <trkpt lat="47.26276" lon="-1.60501">
        <ele>26.9</ele>
        <time>2020-06-07T09:37:21Z</time>
      </trkpt>
      <trkpt lat="47.26276" lon="-1.60502">
        <ele>26.8</ele>
        <time>2020-06-07T09:37:22Z</time>
      </trkpt>
      <trkpt lat="47.26276" lon="-1.60503">
        <ele>26.7</ele>
        <time>2020-06-07T09:37:23Z</time>
      </trkpt>
      <trkpt lat="47.26276" lon="-1.60504">
        <ele>26.6</ele>
        <time>2020-06-07T09:37:24Z</time>
      </trkpt>
      <trkpt lat="47.26277" lon="-1.60506">
        <ele>26.5</ele>
        <time>2020-06-07T09:37:25Z</time>
      </trkpt>
      <trkpt lat="47.26277" lon="-1.60507">
        <ele>26.4</ele>
        <time>2020-06-07T09:37:26Z</time>
      </trkpt>
      <trkpt lat="47.26277" lon="-1.60508">
        <ele>26.3</ele>
        <time>2020-06-07T09:37:27Z</time>
      </trkpt>
      <trkpt lat="47.26277" lon="-1.60509">
        <ele>26.2</ele>
        <time>2020-06-07T09:37:28Z</time>
      </trkpt>
      <trkpt lat="47.26277" lon="-1.60511">
        <ele>26.1</ele>
        <time>2020-06-07T09:37:29Z</time>
      </trkpt>
      <trkpt lat="47.26278" lon="-1.60512">
        <ele>26</ele>
        <time>2020-06-07T09:37:30Z</time>
      </trkpt>
      <trkpt lat="47.26278" lon="-1.60513">
        <ele>25.9</ele>
        <time>2020-06-07T09:37:31Z</time>
      </trkpt>
      <trkpt lat="47.26278" lon="-1.60514">
        <ele>25.8</ele>
        <time>2020-06-07T09:37:32Z</time>
      </trkpt>
      <trkpt lat="47.26278" lon="-1.60516">
        <ele>25.8</ele>
        <time>2020-06-07T09:37:33Z</time>
      </trkpt>
      <trkpt lat="47.26278" lon="-1.60517">
        <ele>25.7</ele>
        <time>2020-06-07T09:37:34Z</time>
      </trkpt>
      <trkpt lat="47.26278" lon="-1.60518">
        <ele>25.6</ele>
        <time>2020-06-07T09:37:35Z</time>
      </trkpt>
      <trkpt lat="47.26278" lon="-1.60519">
        <ele>25.5</ele>
        <time>2020-06-07T09:37:36Z</time>
      </trkpt>
      <trkpt lat="47.26278" lon="-1.60521">
        <ele>25.5</ele>
        <time>2020-06-07T09:37:37Z</time>
      </trkpt>
      <trkpt lat="47.26278" lon="-1.60522">
        <ele>25.4</ele>
        <time>2020-06-07T09:37:38Z</time>
      </trkpt>
      <trkpt lat="47.26278" lon="-1.60523">
        <ele>25.3</ele>
        <time>2020-06-07T09:37:39Z</time>
      </trkpt>
      <trkpt lat="47.26278" lon="-1.60524">
        <ele>25.3</ele>
        <time>2020-06-07T09:37:40Z</time>
      </trkpt>
      <trkpt lat="47.26278" lon="-1.60526">
        <ele>25.2</ele>
        <time>2020-06-07T09:37:41Z</time>
      </trkpt>
      <trkpt lat="47.26278" lon="-1.60527">
        <ele>25.2</ele>
        <time>2020-06-07T09:37:42Z</time>
      </trkpt>
      <trkpt lat="47.26277" lon="-1.60528">
        <ele>25.1</ele>
        <time>2020-06-07T09:37:43Z</time>
      </trkpt>
      <trkpt lat="47.26277" lon="-1.6053">
        <ele>25.1</ele>
        <time>2020-06-07T09:37:44Z</time>
      </trkpt>
      <trkpt lat="47.26277" lon="-1.60531">
        <ele>25</ele>
        <time>2020-06-07T09:37:45Z</time>
      </trkpt>
      <trkpt lat="47.26277" lon="-1.60532">
        <ele>25</ele>
        <time>2020-06-07T09:37:46Z</time>
      </trkpt>
      <trkpt lat="47.26276" lon="-1.60534">
        <ele>24.9</ele>
        <time>2020-06-07T09:37:47Z</time>
      </trkpt>
      <trkpt lat="47.26276" lon="-1.60535">
        <ele>24.9</ele>
        <time>2020-06-07T09:37:48Z</time>
      </trkpt>
      <trkpt lat="47.26276" lon="-1.60536">
        <ele>24.8</ele>
        <time>2020-06-07T09:37:49Z</time>
      </trkpt>
      <trkpt lat="47.26275" lon="-1.60538">
        <ele>24.8</ele>
        <time>2020-06-07T09:37:50Z</time>
      </trkpt>
      <trkpt lat="47.26275" lon="-1.60539">
        <ele>24.7</ele>
        <time>2020-06-07T09:37:51Z</time>
      </trkpt>
      <trkpt lat="47.26275" lon="-1.60541">
        <ele>24.7</ele>
        <time>2020-06-07T09:37:52Z</time>
      </trkpt>
      <trkpt lat="47.26274" lon="-1.60542">
        <ele>24.6</ele>
        <time>2020-06-07T09:37:53Z</time>
      </trkpt>
      <trkpt lat="47.26274" lon="-1.60544">
        <ele>24.5</ele>
        <time>2020-06-07T09:37:54Z</time>
      </trkpt>
      <trkpt lat="47.26274" lon="-1.60546">
        <ele>24.5</ele>
        <time>2020-06-07T09:37:55Z</time>
      </trkpt>
      <trkpt lat="47.26274" lon="-1.60547">
        <ele>24.4</ele>
        <time>2020-06-07T09:37:56Z</time>
      </trkpt>
      <trkpt lat="47.26274" lon="-1.60549">
        <ele>24.3</ele>
        <time>2020-06-07T09:37:57Z</time>
      </trkpt>
      <trkpt lat="47.26274" lon="-1.6055">
        <ele>24.2</ele>
        <time>2020-06-07T09:37:58Z</time>
      </trkpt>
      <trkpt lat="47.26274" lon="-1.60552">
        <ele>24.1</ele>
        <time>2020-06-07T09:37:59Z</time>
      </trkpt>
      <trkpt lat="47.26274" lon="-1.60553">
        <ele>24</ele>
        <time>2020-06-07T09:38:00Z</time>
      </trkpt>
      <trkpt lat="47.26274" lon="-1.60555">
        <ele>23.9</ele>
        <time>2020-06-07T09:38:01Z</time>
      </trkpt>
      <trkpt lat="47.26274" lon="-1.60556">
        <ele>23.8</ele>
        <time>2020-06-07T09:38:02Z</time>
      </trkpt>
      <trkpt lat="47.26274" lon="-1.60558">
        <ele>23.7</ele>
        <time>2020-06-07T09:38:03Z</time>
      </trkpt>
      <trkpt lat="47.26274" lon="-1.60559">
        <ele>23.6</ele>
        <time>2020-06-07T09:38:04Z</time>
      </trkpt>
      <trkpt lat="47.26274" lon="-1.60561">
        <ele>23.5</ele>
        <time>2020-06-07T09:38:05Z</time>
      </trkpt>
      <trkpt lat="47.26274" lon="-1.60562">
        <ele>23.4</ele>
        <time>2020-06-07T09:38:06Z</time>
      </trkpt>
      <trkpt lat="47.26274" lon="-1.60563">
        <ele>23.3</ele>
        <time>2020-06-07T09:38:07Z</time>
      </trkpt>
      <trkpt lat="47.26274" lon="-1.60565">
        <ele>23.3</ele>
        <time>2020-06-07T09:38:08Z</time>
      </trkpt>
      <trkpt lat="47.26274" lon="-1.60566">
        <ele>23.2</ele>
        <time>2020-06-07T09:38:09Z</time>
      </trkpt>
      <trkpt lat="47.26274" lon="-1.60568">
        <ele>23.1</ele>
        <time>2020-06-07T09:38:10Z</time>
      </trkpt>
      <trkpt lat="47.26274" lon="-1.60569">
        <ele>23</ele>
        <time>2020-06-07T09:38:11Z</time>
      </trkpt>
      <trkpt lat="47.26274" lon="-1.6057">
        <ele>23</ele>
        <time>2020-06-07T09:38:12Z</time>
      </trkpt>
      <trkpt lat="47.26273" lon="-1.60571">
        <ele>22.9</ele>
        <time>2020-06-07T09:38:13Z</time>
      </trkpt>
      <trkpt lat="47.26273" lon="-1.60573">
        <ele>22.8</ele>
        <time>2020-06-07T09:38:14Z</time>
      </trkpt>
      <trkpt lat="47.26273" lon="-1.60574">
        <ele>22.8</ele>
        <time>2020-06-07T09:38:15Z</time>
      </trkpt>
      <trkpt lat="47.26272" lon="-1.60575">
        <ele>22.7</ele>
        <time>2020-06-07T09:38:16Z</time>
      </trkpt>
      <trkpt lat="47.26272" lon="-1.60577">
        <ele>22.6</ele>
        <time>2020-06-07T09:38:17Z</time>
      </trkpt>
      <trkpt lat="47.26272" lon="-1.60578">
        <ele>22.6</ele>
        <time>2020-06-07T09:38:18Z</time>
      </trkpt>
      <trkpt lat="47.26272" lon="-1.6058">
        <ele>22.5</ele>
        <time>2020-06-07T09:38:19Z</time>
      </trkpt>
      <trkpt lat="47.26271" lon="-1.60581">
        <ele>22.4</ele>
        <time>2020-06-07T09:38:20Z</time>
      </trkpt>
      <trkpt lat="47.26271" lon="-1.60582">
        <ele>22.3</ele>
        <time>2020-06-07T09:38:21Z</time>
      </trkpt>
      <trkpt lat="47.26271" lon="-1.60584">
        <ele>22.2</ele>
        <time>2020-06-07T09:38:22Z</time>
      </trkpt>
      <trkpt lat="47.26271" lon="-1.60586">
        <ele>22.1</ele>
        <time>2020-06-07T09:38:23Z</time>
      </trkpt>
      <trkpt lat="47.26271" lon="-1.60587">
        <ele>22</ele>
        <time>2020-06-07T09:38:24Z</time>
      </trkpt>
      <trkpt lat="47.26271" lon="-1.60589">
        <ele>21.9</ele>
        <time>2020-06-07T09:38:25Z</time>
      </trkpt>
      <trkpt lat="47.26271" lon="-1.6059">
        <ele>21.8</ele>
        <time>2020-06-07T09:38:26Z</time>
      </trkpt>
      <trkpt lat="47.26271" lon="-1.60591">
        <ele>21.7</ele>
        <time>2020-06-07T09:38:27Z</time>
      </trkpt>
      <trkpt lat="47.2627" lon="-1.60593">
        <ele>21.6</ele>
        <time>2020-06-07T09:38:28Z</time>
      </trkpt>
      <trkpt lat="47.2627" lon="-1.60594">
        <ele>21.6</ele>
        <time>2020-06-07T09:38:29Z</time>
      </trkpt>
      <trkpt lat="47.2627" lon="-1.60595">
        <ele>21.5</ele>
        <time>2020-06-07T09:38:30Z</time>
      </trkpt>
      <trkpt lat="47.2627" lon="-1.60596">
        <ele>21.4</ele>
        <time>2020-06-07T09:38:31Z</time>
      </trkpt>
      <trkpt lat="47.26269" lon="-1.60597">
        <ele>21.4</ele>
        <time>2020-06-07T09:38:32Z</time>
      </trkpt>
      <trkpt lat="47.26269" lon="-1.60598">
        <ele>21.3</ele>
        <time>2020-06-07T09:38:33Z</time>
      </trkpt>
      <trkpt lat="47.26269" lon="-1.60599">
        <ele>21.2</ele>
        <time>2020-06-07T09:38:34Z</time>
      </trkpt>
      <trkpt lat="47.26268" lon="-1.60601">
        <ele>21.1</ele>
        <time>2020-06-07T09:38:35Z</time>
      </trkpt>
      <trkpt lat="47.26268" lon="-1.60602">
        <ele>21</ele>
        <time>2020-06-07T09:38:36Z</time>
      </trkpt>
      <trkpt lat="47.26268" lon="-1.60604">
        <ele>20.9</ele>
        <time>2020-06-07T09:38:37Z</time>
      </trkpt>
      <trkpt lat="47.26268" lon="-1.60605">
        <ele>20.8</ele>
        <time>2020-06-07T09:38:38Z</time>
      </trkpt>
      <trkpt lat="47.26268" lon="-1.60607">
        <ele>20.7</ele>
        <time>2020-06-07T09:38:39Z</time>
      </trkpt>
      <trkpt lat="47.26268" lon="-1.60608">
        <ele>20.6</ele>
        <time>2020-06-07T09:38:40Z</time>
      </trkpt>
      <trkpt lat="47.26268" lon="-1.60609">
        <ele>20.5</ele>
        <time>2020-06-07T09:38:41Z</time>
      </trkpt>
      <trkpt lat="47.26268" lon="-1.60611">
        <ele>20.4</ele>
        <time>2020-06-07T09:38:42Z</time>
      </trkpt>
      <trkpt lat="47.26268" lon="-1.60612">
        <ele>20.3</ele>
        <time>2020-06-07T09:38:43Z</time>
      </trkpt>
      <trkpt lat="47.26268" lon="-1.60614">
        <ele>20.2</ele>
        <time>2020-06-07T09:38:44Z</time>
      </trkpt>
      <trkpt lat="47.26268" lon="-1.60615">
        <ele>20.1</ele>
        <time>2020-06-07T09:38:45Z</time>
      </trkpt>
      <trkpt lat="47.26269" lon="-1.60616">
        <ele>20</ele>
        <time>2020-06-07T09:38:46Z</time>
      </trkpt>
      <trkpt lat="47.26269" lon="-1.60618">
        <ele>19.9</ele>
        <time>2020-06-07T09:38:47Z</time>
      </trkpt>
      <trkpt lat="47.26269" lon="-1.60619">
        <ele>19.7</ele>
        <time>2020-06-07T09:38:48Z</time>
      </trkpt>
      <trkpt lat="47.2627" lon="-1.60621">
        <ele>19.6</ele>
        <time>2020-06-07T09:38:49Z</time>
      </trkpt>
      <trkpt lat="47.2627" lon="-1.60623">
        <ele>19.5</ele>
        <time>2020-06-07T09:38:50Z</time>
      </trkpt>
      <trkpt lat="47.2627" lon="-1.60624">
        <ele>19.4</ele>
        <time>2020-06-07T09:38:51Z</time>
      </trkpt>
      <trkpt lat="47.26271" lon="-1.60626">
        <ele>19.3</ele>
        <time>2020-06-07T09:38:52Z</time>
      </trkpt>
      <trkpt lat="47.26271" lon="-1.60627">
        <ele>19.2</ele>
        <time>2020-06-07T09:38:53Z</time>
      </trkpt>
      <trkpt lat="47.26271" lon="-1.60628">
        <ele>19.2</ele>
        <time>2020-06-07T09:38:54Z</time>
      </trkpt>
      <trkpt lat="47.26271" lon="-1.60628">
        <ele>19.1</ele>
        <time>2020-06-07T09:38:55Z</time>
      </trkpt>
      <trkpt lat="47.26271" lon="-1.60628">
        <ele>19.1</ele>
        <time>2020-06-07T09:38:56Z</time>
      </trkpt>
      <trkpt lat="47.26271" lon="-1.60628">
        <ele>19.2</ele>
        <time>2020-06-07T09:38:57Z</time>
      </trkpt>
      <trkpt lat="47.26272" lon="-1.60628">
        <ele>19.2</ele>
        <time>2020-06-07T09:38:58Z</time>
      </trkpt>
      <trkpt lat="47.26273" lon="-1.60627">
        <ele>19.3</ele>
        <time>2020-06-07T09:38:59Z</time>
      </trkpt>
      <trkpt lat="47.26274" lon="-1.60625">
        <ele>19.4</ele>
        <time>2020-06-07T09:39:00Z</time>
      </trkpt>
      <trkpt lat="47.26274" lon="-1.60624">
        <ele>19.5</ele>
        <time>2020-06-07T09:39:01Z</time>
      </trkpt>
      <trkpt lat="47.26275" lon="-1.60622">
        <ele>19.6</ele>
        <time>2020-06-07T09:39:02Z</time>
      </trkpt>
      <trkpt lat="47.26275" lon="-1.60621">
        <ele>19.7</ele>
        <time>2020-06-07T09:39:03Z</time>
      </trkpt>
      <trkpt lat="47.26275" lon="-1.60619">
        <ele>19.8</ele>
        <time>2020-06-07T09:39:04Z</time>
      </trkpt>
      <trkpt lat="47.26275" lon="-1.60618">
        <ele>19.9</ele>
        <time>2020-06-07T09:39:05Z</time>
      </trkpt>
      <trkpt lat="47.26275" lon="-1.60616">
        <ele>20</ele>
        <time>2020-06-07T09:39:06Z</time>
      </trkpt>
      <trkpt lat="47.26275" lon="-1.60615">
        <ele>20.1</ele>
        <time>2020-06-07T09:39:07Z</time>
      </trkpt>
      <trkpt lat="47.26275" lon="-1.60614">
        <ele>20.1</ele>
        <time>2020-06-07T09:39:08Z</time>
      </trkpt>
      <trkpt lat="47.26276" lon="-1.60614">
        <ele>20.2</ele>
        <time>2020-06-07T09:39:09Z</time>
      </trkpt>
      <trkpt lat="47.26277" lon="-1.60614">
        <ele>20.2</ele>
        <time>2020-06-07T09:39:10Z</time>
      </trkpt>
      <trkpt lat="47.26278" lon="-1.60614">
        <ele>20.2</ele>
        <time>2020-06-07T09:39:11Z</time>
      </trkpt>
      <trkpt lat="47.26279" lon="-1.60614">
        <ele>20.2</ele>
        <time>2020-06-07T09:39:12Z</time>
      </trkpt>
      <trkpt lat="47.2628" lon="-1.60614">
        <ele>20.2</ele>
        <time>2020-06-07T09:39:13Z</time>
      </trkpt>
      <trkpt lat="47.26281" lon="-1.60614">
        <ele>20.2</ele>
        <time>2020-06-07T09:39:14Z</time>
      </trkpt>
      <trkpt lat="47.26283" lon="-1.60615">
        <ele>20.2</ele>
        <time>2020-06-07T09:39:15Z</time>
      </trkpt>
      <trkpt lat="47.26284" lon="-1.60615">
        <ele>20.1</ele>
        <time>2020-06-07T09:39:16Z</time>
      </trkpt>
      <trkpt lat="47.26285" lon="-1.60616">
        <ele>20.1</ele>
        <time>2020-06-07T09:39:17Z</time>
      </trkpt>
      <trkpt lat="47.26285" lon="-1.60616">
        <ele>20.1</ele>
        <time>2020-06-07T09:39:18Z</time>
      </trkpt>
      <trkpt lat="47.26286" lon="-1.60617">
        <ele>20</ele>
        <time>2020-06-07T09:39:19Z</time>
      </trkpt>
      <trkpt lat="47.26287" lon="-1.60618">
        <ele>20</ele>
        <time>2020-06-07T09:39:20Z</time>
      </trkpt>
      <trkpt lat="47.26288" lon="-1.60618">
        <ele>20</ele>
        <time>2020-06-07T09:39:21Z</time>
      </trkpt>
      <trkpt lat="47.26288" lon="-1.60619">
        <ele>20</ele>
        <time>2020-06-07T09:39:22Z</time>
      </trkpt>
      <trkpt lat="47.26289" lon="-1.6062">
        <ele>19.9</ele>
        <time>2020-06-07T09:39:23Z</time>
      </trkpt>
      <trkpt lat="47.2629" lon="-1.6062">
        <ele>19.9</ele>
        <time>2020-06-07T09:39:24Z</time>
      </trkpt>
      <trkpt lat="47.26291" lon="-1.60621">
        <ele>19.9</ele>
        <time>2020-06-07T09:39:25Z</time>
      </trkpt>
      <trkpt lat="47.26291" lon="-1.60622">
        <ele>19.9</ele>
        <time>2020-06-07T09:39:26Z</time>
      </trkpt>
      <trkpt lat="47.26292" lon="-1.60622">
        <ele>19.9</ele>
        <time>2020-06-07T09:39:27Z</time>
      </trkpt>
      <trkpt lat="47.26293" lon="-1.60623">
        <ele>19.9</ele>
        <time>2020-06-07T09:39:28Z</time>
      </trkpt>
      <trkpt lat="47.26293" lon="-1.60624">
        <ele>19.8</ele>
        <time>2020-06-07T09:39:29Z</time>
      </trkpt>
      <trkpt lat="47.26294" lon="-1.60624">
        <ele>19.8</ele>
        <time>2020-06-07T09:39:30Z</time>
      </trkpt>
      <trkpt lat="47.26295" lon="-1.60625">
        <ele>19.8</ele>
        <time>2020-06-07T09:39:31Z</time>
      </trkpt>
      <trkpt lat="47.26295" lon="-1.60625">
        <ele>19.8</ele>
        <time>2020-06-07T09:39:32Z</time>
      </trkpt>
      <trkpt lat="47.26296" lon="-1.60626">
        <ele>19.8</ele>
        <time>2020-06-07T09:39:33Z</time>
      </trkpt>
      <trkpt lat="47.26297" lon="-1.60626">
        <ele>19.8</ele>
        <time>2020-06-07T09:39:34Z</time>
      </trkpt>
      <trkpt lat="47.26297" lon="-1.60627">
        <ele>19.8</ele>
        <time>2020-06-07T09:39:35Z</time>
      </trkpt>
      <trkpt lat="47.26298" lon="-1.60627">
        <ele>19.8</ele>
        <time>2020-06-07T09:39:36Z</time>
      </trkpt>
      <trkpt lat="47.26299" lon="-1.60628">
        <ele>19.8</ele>
        <time>2020-06-07T09:39:37Z</time>
      </trkpt>
      <trkpt lat="47.26299" lon="-1.60629">
        <ele>19.8</ele>
        <time>2020-06-07T09:39:38Z</time>
      </trkpt>
      <trkpt lat="47.263" lon="-1.60629">
        <ele>19.8</ele>
        <time>2020-06-07T09:39:39Z</time>
      </trkpt>
      <trkpt lat="47.26301" lon="-1.6063">
        <ele>19.8</ele>
        <time>2020-06-07T09:39:40Z</time>
      </trkpt>
      <trkpt lat="47.26301" lon="-1.6063">
        <ele>19.8</ele>
        <time>2020-06-07T09:39:41Z</time>
      </trkpt>
      <trkpt lat="47.26302" lon="-1.60631">
        <ele>19.8</ele>
        <time>2020-06-07T09:39:42Z</time>
      </trkpt>
      <trkpt lat="47.26302" lon="-1.60631">
        <ele>19.8</ele>
        <time>2020-06-07T09:39:43Z</time>
      </trkpt>
      <trkpt lat="47.26303" lon="-1.60632">
        <ele>19.8</ele>
        <time>2020-06-07T09:39:44Z</time>
      </trkpt>
      <trkpt lat="47.26304" lon="-1.60633">
        <ele>19.8</ele>
        <time>2020-06-07T09:39:45Z</time>
      </trkpt>
      <trkpt lat="47.26304" lon="-1.60633">
        <ele>19.8</ele>
        <time>2020-06-07T09:39:46Z</time>
      </trkpt>
      <trkpt lat="47.26305" lon="-1.60634">
        <ele>19.8</ele>
        <time>2020-06-07T09:39:47Z</time>
      </trkpt>
      <trkpt lat="47.26305" lon="-1.60635">
        <ele>19.8</ele>
        <time>2020-06-07T09:39:48Z</time>
      </trkpt>
      <trkpt lat="47.26306" lon="-1.60635">
        <ele>19.8</ele>
        <time>2020-06-07T09:39:49Z</time>
      </trkpt>
      <trkpt lat="47.26306" lon="-1.60636">
        <ele>19.8</ele>
        <time>2020-06-07T09:39:50Z</time>
      </trkpt>
      <trkpt lat="47.26307" lon="-1.60637">
        <ele>19.8</ele>
        <time>2020-06-07T09:39:51Z</time>
      </trkpt>
      <trkpt lat="47.26307" lon="-1.60638">
        <ele>19.8</ele>
        <time>2020-06-07T09:39:52Z</time>
      </trkpt>
      <trkpt lat="47.26308" lon="-1.60638">
        <ele>19.8</ele>
        <time>2020-06-07T09:39:53Z</time>
      </trkpt>
      <trkpt lat="47.26308" lon="-1.60639">
        <ele>19.7</ele>
        <time>2020-06-07T09:39:54Z</time>
      </trkpt>
      <trkpt lat="47.26308" lon="-1.6064">
        <ele>19.7</ele>
        <time>2020-06-07T09:39:55Z</time>
      </trkpt>
      <trkpt lat="47.26309" lon="-1.60641">
        <ele>19.7</ele>
        <time>2020-06-07T09:39:56Z</time>
      </trkpt>
      <trkpt lat="47.26309" lon="-1.60642">
        <ele>19.7</ele>
        <time>2020-06-07T09:39:57Z</time>
      </trkpt>
      <trkpt lat="47.2631" lon="-1.60643">
        <ele>19.7</ele>
        <time>2020-06-07T09:39:58Z</time>
      </trkpt>
      <trkpt lat="47.2631" lon="-1.60644">
        <ele>19.7</ele>
        <time>2020-06-07T09:39:59Z</time>
      </trkpt>
      <trkpt lat="47.2631" lon="-1.60645">
        <ele>19.7</ele>
        <time>2020-06-07T09:40:00Z</time>
      </trkpt>
      <trkpt lat="47.26311" lon="-1.60646">
        <ele>19.7</ele>
        <time>2020-06-07T09:40:01Z</time>
      </trkpt>
      <trkpt lat="47.26311" lon="-1.60648">
        <ele>19.7</ele>
        <time>2020-06-07T09:40:02Z</time>
      </trkpt>
      <trkpt lat="47.26311" lon="-1.60649">
        <ele>19.7</ele>
        <time>2020-06-07T09:40:03Z</time>
      </trkpt>
      <trkpt lat="47.26312" lon="-1.6065">
        <ele>19.7</ele>
        <time>2020-06-07T09:40:04Z</time>
      </trkpt>
      <trkpt lat="47.26312" lon="-1.60651">
        <ele>19.7</ele>
        <time>2020-06-07T09:40:05Z</time>
      </trkpt>
      <trkpt lat="47.26312" lon="-1.60652">
        <ele>19.7</ele>
        <time>2020-06-07T09:40:06Z</time>
      </trkpt>
      <trkpt lat="47.26312" lon="-1.60653">
        <ele>19.7</ele>
        <time>2020-06-07T09:40:07Z</time>
      </trkpt>
      <trkpt lat="47.26312" lon="-1.60654">
        <ele>19.7</ele>
        <time>2020-06-07T09:40:08Z</time>
      </trkpt>
      <trkpt lat="47.26313" lon="-1.60655">
        <ele>19.7</ele>
        <time>2020-06-07T09:40:09Z</time>
      </trkpt>
      <trkpt lat="47.26313" lon="-1.60656">
        <ele>19.7</ele>
        <time>2020-06-07T09:40:10Z</time>
      </trkpt>
      <trkpt lat="47.26313" lon="-1.60657">
        <ele>19.7</ele>
        <time>2020-06-07T09:40:11Z</time>
      </trkpt>
      <trkpt lat="47.26313" lon="-1.60658">
        <ele>19.7</ele>
        <time>2020-06-07T09:40:12Z</time>
      </trkpt>
      <trkpt lat="47.26314" lon="-1.60659">
        <ele>19.7</ele>
        <time>2020-06-07T09:40:13Z</time>
      </trkpt>
      <trkpt lat="47.26314" lon="-1.6066">
        <ele>19.7</ele>
        <time>2020-06-07T09:40:14Z</time>
      </trkpt>
      <trkpt lat="47.26315" lon="-1.60661">
        <ele>19.7</ele>
        <time>2020-06-07T09:40:15Z</time>
      </trkpt>
      <trkpt lat="47.26315" lon="-1.60661">
        <ele>19.8</ele>
        <time>2020-06-07T09:40:16Z</time>
      </trkpt>
      <trkpt lat="47.26316" lon="-1.60662">
        <ele>19.8</ele>
        <time>2020-06-07T09:40:17Z</time>
      </trkpt>
      <trkpt lat="47.26317" lon="-1.60661">
        <ele>19.9</ele>
        <time>2020-06-07T09:40:18Z</time>
      </trkpt>
      <trkpt lat="47.26318" lon="-1.60661">
        <ele>20</ele>
        <time>2020-06-07T09:40:19Z</time>
      </trkpt>
      <trkpt lat="47.26319" lon="-1.6066">
        <ele>20</ele>
        <time>2020-06-07T09:40:20Z</time>
      </trkpt>
      <trkpt lat="47.2632" lon="-1.60659">
        <ele>20.1</ele>
        <time>2020-06-07T09:40:21Z</time>
      </trkpt>
      <trkpt lat="47.2632" lon="-1.60658">
        <ele>20.1</ele>
        <time>2020-06-07T09:40:22Z</time>
      </trkpt>
      <trkpt lat="47.26321" lon="-1.60657">
        <ele>20.1</ele>
        <time>2020-06-07T09:40:23Z</time>
      </trkpt>
      <trkpt lat="47.26321" lon="-1.60656">
        <ele>20.2</ele>
        <time>2020-06-07T09:40:24Z</time>
      </trkpt>
      <trkpt lat="47.26321" lon="-1.60655">
        <ele>20.2</ele>
        <time>2020-06-07T09:40:25Z</time>
      </trkpt>
      <trkpt lat="47.26321" lon="-1.60654">
        <ele>20.2</ele>
        <time>2020-06-07T09:40:26Z</time>
      </trkpt>
      <trkpt lat="47.26321" lon="-1.60653">
        <ele>20.2</ele>
        <time>2020-06-07T09:40:27Z</time>
      </trkpt>
      <trkpt lat="47.26321" lon="-1.60653">
        <ele>20.2</ele>
        <time>2020-06-07T09:40:28Z</time>
      </trkpt>
      <trkpt lat="47.26321" lon="-1.60653">
        <ele>20.2</ele>
        <time>2020-06-07T09:40:29Z</time>
      </trkpt>
      <trkpt lat="47.26322" lon="-1.60652">
        <ele>20.2</ele>
        <time>2020-06-07T09:40:30Z</time>
      </trkpt>
      <trkpt lat="47.26323" lon="-1.60652">
        <ele>20.3</ele>
        <time>2020-06-07T09:40:31Z</time>
      </trkpt>
      <trkpt lat="47.26324" lon="-1.60652">
        <ele>20.3</ele>
        <time>2020-06-07T09:40:32Z</time>
      </trkpt>
      <trkpt lat="47.26324" lon="-1.60652">
        <ele>20.4</ele>
        <time>2020-06-07T09:40:33Z</time>
      </trkpt>
      <trkpt lat="47.26325" lon="-1.60652">
        <ele>20.4</ele>
        <time>2020-06-07T09:40:34Z</time>
      </trkpt>
      <trkpt lat="47.26326" lon="-1.60652">
        <ele>20.4</ele>
        <time>2020-06-07T09:40:35Z</time>
      </trkpt>
      <trkpt lat="47.26326" lon="-1.60653">
        <ele>20.5</ele>
        <time>2020-06-07T09:40:36Z</time>
      </trkpt>
      <trkpt lat="47.26327" lon="-1.60653">
        <ele>20.5</ele>
        <time>2020-06-07T09:40:37Z</time>
      </trkpt>
      <trkpt lat="47.26328" lon="-1.60654">
        <ele>20.5</ele>
        <time>2020-06-07T09:40:38Z</time>
      </trkpt>
      <trkpt lat="47.26328" lon="-1.60654">
        <ele>20.6</ele>
        <time>2020-06-07T09:40:39Z</time>
      </trkpt>
      <trkpt lat="47.26329" lon="-1.60655">
        <ele>20.6</ele>
        <time>2020-06-07T09:40:40Z</time>
      </trkpt>
      <trkpt lat="47.26329" lon="-1.60656">
        <ele>20.6</ele>
        <time>2020-06-07T09:40:41Z</time>
      </trkpt>
      <trkpt lat="47.2633" lon="-1.60657">
        <ele>20.7</ele>
        <time>2020-06-07T09:40:42Z</time>
      </trkpt>
      <trkpt lat="47.2633" lon="-1.60658">
        <ele>20.7</ele>
        <time>2020-06-07T09:40:43Z</time>
      </trkpt>
      <trkpt lat="47.2633" lon="-1.60659">
        <ele>20.7</ele>
        <time>2020-06-07T09:40:44Z</time>
      </trkpt>
      <trkpt lat="47.26331" lon="-1.6066">
        <ele>20.7</ele>
        <time>2020-06-07T09:40:45Z</time>
      </trkpt>
      <trkpt lat="47.26331" lon="-1.60661">
        <ele>20.8</ele>
        <time>2020-06-07T09:40:46Z</time>
      </trkpt>
      <trkpt lat="47.26331" lon="-1.60662">
        <ele>20.8</ele>
        <time>2020-06-07T09:40:47Z</time>
      </trkpt>
      <trkpt lat="47.26332" lon="-1.60663">
        <ele>20.8</ele>
        <time>2020-06-07T09:40:48Z</time>
      </trkpt>
      <trkpt lat="47.26332" lon="-1.60664">
        <ele>20.9</ele>
        <time>2020-06-07T09:40:49Z</time>
      </trkpt>
      <trkpt lat="47.26332" lon="-1.60665">
        <ele>20.9</ele>
        <time>2020-06-07T09:40:50Z</time>
      </trkpt>
      <trkpt lat="47.26332" lon="-1.60666">
        <ele>20.9</ele>
        <time>2020-06-07T09:40:51Z</time>
      </trkpt>
      <trkpt lat="47.26333" lon="-1.60666">
        <ele>20.9</ele>
        <time>2020-06-07T09:40:52Z</time>
      </trkpt>
      <trkpt lat="47.26333" lon="-1.60667">
        <ele>20.9</ele>
        <time>2020-06-07T09:40:53Z</time>
      </trkpt>
      <trkpt lat="47.26333" lon="-1.60668">
        <ele>21</ele>
        <time>2020-06-07T09:40:54Z</time>
      </trkpt>
      <trkpt lat="47.26333" lon="-1.60669">
        <ele>21</ele>
        <time>2020-06-07T09:40:55Z</time>
      </trkpt>
      <trkpt lat="47.26333" lon="-1.6067">
        <ele>21</ele>
        <time>2020-06-07T09:40:56Z</time>
      </trkpt>
      <trkpt lat="47.26334" lon="-1.60671">
        <ele>21</ele>
        <time>2020-06-07T09:40:57Z</time>
      </trkpt>
      <trkpt lat="47.26334" lon="-1.60672">
        <ele>21</ele>
        <time>2020-06-07T09:40:58Z</time>
      </trkpt>
      <trkpt lat="47.26334" lon="-1.60673">
        <ele>21</ele>
        <time>2020-06-07T09:40:59Z</time>
      </trkpt>
      <trkpt lat="47.26334" lon="-1.60673">
        <ele>21</ele>
        <time>2020-06-07T09:41:00Z</time>
      </trkpt>
      <trkpt lat="47.26335" lon="-1.60674">
        <ele>21.1</ele>
        <time>2020-06-07T09:41:01Z</time>
      </trkpt>
      <trkpt lat="47.26335" lon="-1.60675">
        <ele>21.1</ele>
        <time>2020-06-07T09:41:02Z</time>
      </trkpt>
      <trkpt lat="47.26335" lon="-1.60676">
        <ele>21.1</ele>
        <time>2020-06-07T09:41:03Z</time>
      </trkpt>
      <trkpt lat="47.26336" lon="-1.60677">
        <ele>21.2</ele>
        <time>2020-06-07T09:41:04Z</time>
      </trkpt>
      <trkpt lat="47.26336" lon="-1.60677">
        <ele>21.2</ele>
        <time>2020-06-07T09:41:05Z</time>
      </trkpt>
      <trkpt lat="47.26336" lon="-1.60678">
        <ele>21.2</ele>
        <time>2020-06-07T09:41:06Z</time>
      </trkpt>
      <trkpt lat="47.26337" lon="-1.60679">
        <ele>21.3</ele>
        <time>2020-06-07T09:41:07Z</time>
      </trkpt>
      <trkpt lat="47.26337" lon="-1.6068">
        <ele>21.3</ele>
        <time>2020-06-07T09:41:08Z</time>
      </trkpt>
      <trkpt lat="47.26338" lon="-1.60681">
        <ele>21.4</ele>
        <time>2020-06-07T09:41:09Z</time>
      </trkpt>
      <trkpt lat="47.26339" lon="-1.60682">
        <ele>21.4</ele>
        <time>2020-06-07T09:41:10Z</time>
      </trkpt>
      <trkpt lat="47.26339" lon="-1.60682">
        <ele>21.5</ele>
        <time>2020-06-07T09:41:11Z</time>
      </trkpt>
      <trkpt lat="47.26341" lon="-1.60683">
        <ele>21.7</ele>
        <time>2020-06-07T09:41:12Z</time>
      </trkpt>
      <trkpt lat="47.26342" lon="-1.60684">
        <ele>21.8</ele>
        <time>2020-06-07T09:41:13Z</time>
      </trkpt>
      <trkpt lat="47.26344" lon="-1.60685">
        <ele>22</ele>
        <time>2020-06-07T09:41:14Z</time>
      </trkpt>
      <trkpt lat="47.26345" lon="-1.60686">
        <ele>22.2</ele>
        <time>2020-06-07T09:41:15Z</time>
      </trkpt>
      <trkpt lat="47.26347" lon="-1.60687">
        <ele>22.4</ele>
        <time>2020-06-07T09:41:16Z</time>
      </trkpt>
      <trkpt lat="47.26349" lon="-1.60687">
        <ele>22.6</ele>
        <time>2020-06-07T09:41:17Z</time>
      </trkpt>
      <trkpt lat="47.26351" lon="-1.60688">
        <ele>22.8</ele>
        <time>2020-06-07T09:41:18Z</time>
      </trkpt>
      <trkpt lat="47.26353" lon="-1.60689">
        <ele>23</ele>
        <time>2020-06-07T09:41:19Z</time>
      </trkpt>
      <trkpt lat="47.26356" lon="-1.6069">
        <ele>23.3</ele>
        <time>2020-06-07T09:41:20Z</time>
      </trkpt>
      <trkpt lat="47.26358" lon="-1.60691">
        <ele>23.5</ele>
        <time>2020-06-07T09:41:21Z</time>
      </trkpt>
      <trkpt lat="47.26359" lon="-1.60692">
        <ele>23.6</ele>
        <time>2020-06-07T09:41:22Z</time>
      </trkpt>
      <trkpt lat="47.2636" lon="-1.60692">
        <ele>23.7</ele>
        <time>2020-06-07T09:41:23Z</time>
      </trkpt>
      <trkpt lat="47.2636" lon="-1.60693">
        <ele>23.7</ele>
        <time>2020-06-07T09:41:24Z</time>
      </trkpt>
      <trkpt lat="47.26361" lon="-1.60694">
        <ele>23.7</ele>
        <time>2020-06-07T09:41:25Z</time>
      </trkpt>
      <trkpt lat="47.26361" lon="-1.60695">
        <ele>23.7</ele>
        <time>2020-06-07T09:41:26Z</time>
      </trkpt>
      <trkpt lat="47.26361" lon="-1.60696">
        <ele>23.7</ele>
        <time>2020-06-07T09:41:27Z</time>
      </trkpt>
      <trkpt lat="47.26361" lon="-1.60697">
        <ele>23.7</ele>
        <time>2020-06-07T09:41:28Z</time>
      </trkpt>
      <trkpt lat="47.26361" lon="-1.60698">
        <ele>23.6</ele>
        <time>2020-06-07T09:41:29Z</time>
      </trkpt>
      <trkpt lat="47.26361" lon="-1.60699">
        <ele>23.6</ele>
        <time>2020-06-07T09:41:30Z</time>
      </trkpt>
      <trkpt lat="47.26361" lon="-1.607">
        <ele>23.5</ele>
        <time>2020-06-07T09:41:31Z</time>
      </trkpt>
      <trkpt lat="47.26361" lon="-1.60701">
        <ele>23.5</ele>
        <time>2020-06-07T09:41:32Z</time>
      </trkpt>
      <trkpt lat="47.26361" lon="-1.60702">
        <ele>23.5</ele>
        <time>2020-06-07T09:41:33Z</time>
      </trkpt>
      <trkpt lat="47.2636" lon="-1.60704">
        <ele>23.4</ele>
        <time>2020-06-07T09:41:34Z</time>
      </trkpt>
      <trkpt lat="47.2636" lon="-1.60705">
        <ele>23.4</ele>
        <time>2020-06-07T09:41:35Z</time>
      </trkpt>
      <trkpt lat="47.2636" lon="-1.60707">
        <ele>23.3</ele>
        <time>2020-06-07T09:41:36Z</time>
      </trkpt>
      <trkpt lat="47.2636" lon="-1.60708">
        <ele>23.3</ele>
        <time>2020-06-07T09:41:37Z</time>
      </trkpt>
      <trkpt lat="47.2636" lon="-1.60709">
        <ele>23.2</ele>
        <time>2020-06-07T09:41:38Z</time>
      </trkpt>
      <trkpt lat="47.2636" lon="-1.6071">
        <ele>23.2</ele>
        <time>2020-06-07T09:41:39Z</time>
      </trkpt>
      <trkpt lat="47.2636" lon="-1.6071">
        <ele>23.2</ele>
        <time>2020-06-07T09:41:40Z</time>
      </trkpt>
      <trkpt lat="47.2636" lon="-1.6071">
        <ele>23.2</ele>
        <time>2020-06-07T09:41:41Z</time>
      </trkpt>
      <trkpt lat="47.2636" lon="-1.60711">
        <ele>23.2</ele>
        <time>2020-06-07T09:41:42Z</time>
      </trkpt>
      <trkpt lat="47.2636" lon="-1.60711">
        <ele>23.1</ele>
        <time>2020-06-07T09:41:43Z</time>
      </trkpt>
      <trkpt lat="47.2636" lon="-1.60712">
        <ele>23.1</ele>
        <time>2020-06-07T09:41:44Z</time>
      </trkpt>
      <trkpt lat="47.2636" lon="-1.60712">
        <ele>23.1</ele>
        <time>2020-06-07T09:41:45Z</time>
      </trkpt>
      <trkpt lat="47.2636" lon="-1.60713">
        <ele>23.1</ele>
        <time>2020-06-07T09:41:46Z</time>
      </trkpt>
      <trkpt lat="47.2636" lon="-1.60714">
        <ele>23</ele>
        <time>2020-06-07T09:41:47Z</time>
      </trkpt>
      <trkpt lat="47.2636" lon="-1.60715">
        <ele>23</ele>
        <time>2020-06-07T09:41:48Z</time>
      </trkpt>
      <trkpt lat="47.26359" lon="-1.60716">
        <ele>22.9</ele>
        <time>2020-06-07T09:41:49Z</time>
      </trkpt>
      <trkpt lat="47.26359" lon="-1.60717">
        <ele>22.9</ele>
        <time>2020-06-07T09:41:50Z</time>
      </trkpt>
      <trkpt lat="47.26359" lon="-1.60718">
        <ele>22.8</ele>
        <time>2020-06-07T09:41:51Z</time>
      </trkpt>
      <trkpt lat="47.26359" lon="-1.60719">
        <ele>22.8</ele>
        <time>2020-06-07T09:41:52Z</time>
      </trkpt>
      <trkpt lat="47.26359" lon="-1.6072">
        <ele>22.7</ele>
        <time>2020-06-07T09:41:53Z</time>
      </trkpt>
      <trkpt lat="47.26358" lon="-1.60721">
        <ele>22.7</ele>
        <time>2020-06-07T09:41:54Z</time>
      </trkpt>
      <trkpt lat="47.26358" lon="-1.60722">
        <ele>22.6</ele>
        <time>2020-06-07T09:41:55Z</time>
      </trkpt>
      <trkpt lat="47.26358" lon="-1.60723">
        <ele>22.5</ele>
        <time>2020-06-07T09:41:56Z</time>
      </trkpt>
      <trkpt lat="47.26358" lon="-1.60725">
        <ele>22.5</ele>
        <time>2020-06-07T09:41:57Z</time>
      </trkpt>
      <trkpt lat="47.26357" lon="-1.60726">
        <ele>22.4</ele>
        <time>2020-06-07T09:41:58Z</time>
      </trkpt>
      <trkpt lat="47.26357" lon="-1.60727">
        <ele>22.4</ele>
        <time>2020-06-07T09:41:59Z</time>
      </trkpt>
      <trkpt lat="47.26357" lon="-1.60729">
        <ele>22.3</ele>
        <time>2020-06-07T09:42:00Z</time>
      </trkpt>
      <trkpt lat="47.26356" lon="-1.6073">
        <ele>22.2</ele>
        <time>2020-06-07T09:42:01Z</time>
      </trkpt>
      <trkpt lat="47.26356" lon="-1.60731">
        <ele>22.2</ele>
        <time>2020-06-07T09:42:02Z</time>
      </trkpt>
      <trkpt lat="47.26356" lon="-1.60733">
        <ele>22.1</ele>
        <time>2020-06-07T09:42:03Z</time>
      </trkpt>
      <trkpt lat="47.26356" lon="-1.60734">
        <ele>22</ele>
        <time>2020-06-07T09:42:04Z</time>
      </trkpt>
      <trkpt lat="47.26355" lon="-1.60735">
        <ele>22</ele>
        <time>2020-06-07T09:42:05Z</time>
      </trkpt>
      <trkpt lat="47.26355" lon="-1.60736">
        <ele>21.9</ele>
        <time>2020-06-07T09:42:06Z</time>
      </trkpt>
      <trkpt lat="47.26355" lon="-1.60738">
        <ele>21.9</ele>
        <time>2020-06-07T09:42:07Z</time>
      </trkpt>
      <trkpt lat="47.26354" lon="-1.60739">
        <ele>21.8</ele>
        <time>2020-06-07T09:42:08Z</time>
      </trkpt>
      <trkpt lat="47.26354" lon="-1.6074">
        <ele>21.7</ele>
        <time>2020-06-07T09:42:09Z</time>
      </trkpt>
      <trkpt lat="47.26353" lon="-1.60742">
        <ele>21.7</ele>
        <time>2020-06-07T09:42:10Z</time>
      </trkpt>
      <trkpt lat="47.26353" lon="-1.60743">
        <ele>21.6</ele>
        <time>2020-06-07T09:42:11Z</time>
      </trkpt>
      <trkpt lat="47.26353" lon="-1.60744">
        <ele>21.5</ele>
        <time>2020-06-07T09:42:12Z</time>
      </trkpt>
      <trkpt lat="47.26352" lon="-1.60746">
        <ele>21.5</ele>
        <time>2020-06-07T09:42:13Z</time>
      </trkpt>
      <trkpt lat="47.26352" lon="-1.60747">
        <ele>21.4</ele>
        <time>2020-06-07T09:42:14Z</time>
      </trkpt>
      <trkpt lat="47.26352" lon="-1.60748">
        <ele>21.4</ele>
        <time>2020-06-07T09:42:15Z</time>
      </trkpt>
      <trkpt lat="47.26351" lon="-1.6075">
        <ele>21.3</ele>
        <time>2020-06-07T09:42:16Z</time>
      </trkpt>
      <trkpt lat="47.26351" lon="-1.60751">
        <ele>21.3</ele>
        <time>2020-06-07T09:42:17Z</time>
      </trkpt>
      <trkpt lat="47.26351" lon="-1.60752">
        <ele>21.2</ele>
        <time>2020-06-07T09:42:18Z</time>
      </trkpt>
      <trkpt lat="47.2635" lon="-1.60754">
        <ele>21.2</ele>
        <time>2020-06-07T09:42:19Z</time>
      </trkpt>
      <trkpt lat="47.2635" lon="-1.60755">
        <ele>21.2</ele>
        <time>2020-06-07T09:42:20Z</time>
      </trkpt>
      <trkpt lat="47.2635" lon="-1.60756">
        <ele>21.2</ele>
        <time>2020-06-07T09:42:21Z</time>
      </trkpt>
      <trkpt lat="47.26349" lon="-1.60758">
        <ele>21.1</ele>
        <time>2020-06-07T09:42:22Z</time>
      </trkpt>
      <trkpt lat="47.26349" lon="-1.60759">
        <ele>21.1</ele>
        <time>2020-06-07T09:42:23Z</time>
      </trkpt>
      <trkpt lat="47.26349" lon="-1.6076">
        <ele>21.1</ele>
        <time>2020-06-07T09:42:24Z</time>
      </trkpt>
      <trkpt lat="47.26348" lon="-1.60761">
        <ele>21</ele>
        <time>2020-06-07T09:42:25Z</time>
      </trkpt>
      <trkpt lat="47.26348" lon="-1.60763">
        <ele>21</ele>
        <time>2020-06-07T09:42:26Z</time>
      </trkpt>
      <trkpt lat="47.26348" lon="-1.60764">
        <ele>21</ele>
        <time>2020-06-07T09:42:27Z</time>
      </trkpt>
      <trkpt lat="47.26348" lon="-1.60765">
        <ele>21</ele>
        <time>2020-06-07T09:42:28Z</time>
      </trkpt>
      <trkpt lat="47.26347" lon="-1.60767">
        <ele>21</ele>
        <time>2020-06-07T09:42:29Z</time>
      </trkpt>
      <trkpt lat="47.26347" lon="-1.60768">
        <ele>21</ele>
        <time>2020-06-07T09:42:30Z</time>
      </trkpt>
      <trkpt lat="47.26347" lon="-1.60769">
        <ele>20.9</ele>
        <time>2020-06-07T09:42:31Z</time>
      </trkpt>
      <trkpt lat="47.26347" lon="-1.60771">
        <ele>20.9</ele>
        <time>2020-06-07T09:42:32Z</time>
      </trkpt>
      <trkpt lat="47.26346" lon="-1.60772">
        <ele>20.9</ele>
        <time>2020-06-07T09:42:33Z</time>
      </trkpt>
      <trkpt lat="47.26346" lon="-1.60773">
        <ele>20.9</ele>
        <time>2020-06-07T09:42:34Z</time>
      </trkpt>
      <trkpt lat="47.26346" lon="-1.60775">
        <ele>20.9</ele>
        <time>2020-06-07T09:42:35Z</time>
      </trkpt>
      <trkpt lat="47.26345" lon="-1.60776">
        <ele>20.9</ele>
        <time>2020-06-07T09:42:36Z</time>
      </trkpt>
      <trkpt lat="47.26345" lon="-1.60777">
        <ele>20.8</ele>
        <time>2020-06-07T09:42:37Z</time>
      </trkpt>
      <trkpt lat="47.26345" lon="-1.60779">
        <ele>20.8</ele>
        <time>2020-06-07T09:42:38Z</time>
      </trkpt>
      <trkpt lat="47.26344" lon="-1.6078">
        <ele>20.8</ele>
        <time>2020-06-07T09:42:39Z</time>
      </trkpt>
      <trkpt lat="47.26344" lon="-1.60782">
        <ele>20.8</ele>
        <time>2020-06-07T09:42:40Z</time>
      </trkpt>
      <trkpt lat="47.26344" lon="-1.60783">
        <ele>20.8</ele>
        <time>2020-06-07T09:42:41Z</time>
      </trkpt>
      <trkpt lat="47.26343" lon="-1.60785">
        <ele>20.8</ele>
        <time>2020-06-07T09:42:42Z</time>
      </trkpt>
      <trkpt lat="47.26343" lon="-1.60786">
        <ele>20.8</ele>
        <time>2020-06-07T09:42:43Z</time>
      </trkpt>
      <trkpt lat="47.26343" lon="-1.60788">
        <ele>20.8</ele>
        <time>2020-06-07T09:42:44Z</time>
      </trkpt>
      <trkpt lat="47.26342" lon="-1.60789">
        <ele>20.8</ele>
        <time>2020-06-07T09:42:45Z</time>
      </trkpt>
      <trkpt lat="47.26342" lon="-1.6079">
        <ele>20.8</ele>
        <time>2020-06-07T09:42:46Z</time>
      </trkpt>
      <trkpt lat="47.26342" lon="-1.60792">
        <ele>20.7</ele>
        <time>2020-06-07T09:42:47Z</time>
      </trkpt>
      <trkpt lat="47.26341" lon="-1.60793">
        <ele>20.7</ele>
        <time>2020-06-07T09:42:48Z</time>
      </trkpt>
      <trkpt lat="47.26341" lon="-1.60795">
        <ele>20.7</ele>
        <time>2020-06-07T09:42:49Z</time>
      </trkpt>
      <trkpt lat="47.26341" lon="-1.60796">
        <ele>20.7</ele>
        <time>2020-06-07T09:42:50Z</time>
      </trkpt>
      <trkpt lat="47.2634" lon="-1.60797">
        <ele>20.7</ele>
        <time>2020-06-07T09:42:51Z</time>
      </trkpt>
      <trkpt lat="47.2634" lon="-1.60799">
        <ele>20.7</ele>
        <time>2020-06-07T09:42:52Z</time>
      </trkpt>
      <trkpt lat="47.2634" lon="-1.608">
        <ele>20.7</ele>
        <time>2020-06-07T09:42:53Z</time>
      </trkpt>
      <trkpt lat="47.2634" lon="-1.60801">
        <ele>20.7</ele>
        <time>2020-06-07T09:42:54Z</time>
      </trkpt>
      <trkpt lat="47.26339" lon="-1.60803">
        <ele>20.7</ele>
        <time>2020-06-07T09:42:55Z</time>
      </trkpt>
      <trkpt lat="47.26339" lon="-1.60804">
        <ele>20.7</ele>
        <time>2020-06-07T09:42:56Z</time>
      </trkpt>
      <trkpt lat="47.26339" lon="-1.60805">
        <ele>20.8</ele>
        <time>2020-06-07T09:42:57Z</time>
      </trkpt>
      <trkpt lat="47.26338" lon="-1.60807">
        <ele>20.8</ele>
        <time>2020-06-07T09:42:58Z</time>
      </trkpt>
      <trkpt lat="47.26338" lon="-1.60808">
        <ele>20.8</ele>
        <time>2020-06-07T09:42:59Z</time>
      </trkpt>
      <trkpt lat="47.26338" lon="-1.60809">
        <ele>20.8</ele>
        <time>2020-06-07T09:43:00Z</time>
      </trkpt>
      <trkpt lat="47.26338" lon="-1.6081">
        <ele>20.8</ele>
        <time>2020-06-07T09:43:01Z</time>
      </trkpt>
      <trkpt lat="47.26337" lon="-1.60811">
        <ele>20.8</ele>
        <time>2020-06-07T09:43:02Z</time>
      </trkpt>
      <trkpt lat="47.26337" lon="-1.60813">
        <ele>20.8</ele>
        <time>2020-06-07T09:43:03Z</time>
      </trkpt>
      <trkpt lat="47.26337" lon="-1.60814">
        <ele>20.8</ele>
        <time>2020-06-07T09:43:04Z</time>
      </trkpt>
      <trkpt lat="47.26336" lon="-1.60815">
        <ele>20.8</ele>
        <time>2020-06-07T09:43:05Z</time>
      </trkpt>
      <trkpt lat="47.26336" lon="-1.60816">
        <ele>20.8</ele>
        <time>2020-06-07T09:43:06Z</time>
      </trkpt>
      <trkpt lat="47.26336" lon="-1.60818">
        <ele>20.8</ele>
        <time>2020-06-07T09:43:07Z</time>
      </trkpt>
      <trkpt lat="47.26335" lon="-1.60819">
        <ele>20.8</ele>
        <time>2020-06-07T09:43:08Z</time>
      </trkpt>
      <trkpt lat="47.26335" lon="-1.6082">
        <ele>20.8</ele>
        <time>2020-06-07T09:43:09Z</time>
      </trkpt>
      <trkpt lat="47.26335" lon="-1.60822">
        <ele>20.9</ele>
        <time>2020-06-07T09:43:10Z</time>
      </trkpt>
      <trkpt lat="47.26334" lon="-1.60823">
        <ele>20.9</ele>
        <time>2020-06-07T09:43:11Z</time>
      </trkpt>
      <trkpt lat="47.26334" lon="-1.60824">
        <ele>20.9</ele>
        <time>2020-06-07T09:43:12Z</time>
      </trkpt>
      <trkpt lat="47.26333" lon="-1.60826">
        <ele>20.9</ele>
        <time>2020-06-07T09:43:13Z</time>
      </trkpt>
      <trkpt lat="47.26333" lon="-1.60827">
        <ele>21</ele>
        <time>2020-06-07T09:43:14Z</time>
      </trkpt>
      <trkpt lat="47.26332" lon="-1.60828">
        <ele>21.1</ele>
        <time>2020-06-07T09:43:15Z</time>
      </trkpt>
      <trkpt lat="47.26332" lon="-1.6083">
        <ele>21.2</ele>
        <time>2020-06-07T09:43:16Z</time>
      </trkpt>
      <trkpt lat="47.26331" lon="-1.60831">
        <ele>21.3</ele>
        <time>2020-06-07T09:43:17Z</time>
      </trkpt>
      <trkpt lat="47.26331" lon="-1.60833">
        <ele>21.3</ele>
        <time>2020-06-07T09:43:18Z</time>
      </trkpt>
      <trkpt lat="47.2633" lon="-1.60834">
        <ele>21.4</ele>
        <time>2020-06-07T09:43:19Z</time>
      </trkpt>
      <trkpt lat="47.2633" lon="-1.60835">
        <ele>21.5</ele>
        <time>2020-06-07T09:43:20Z</time>
      </trkpt>
      <trkpt lat="47.2633" lon="-1.60836">
        <ele>21.5</ele>
        <time>2020-06-07T09:43:21Z</time>
      </trkpt>
      <trkpt lat="47.26329" lon="-1.60838">
        <ele>21.6</ele>
        <time>2020-06-07T09:43:22Z</time>
      </trkpt>
      <trkpt lat="47.26329" lon="-1.60839">
        <ele>21.6</ele>
        <time>2020-06-07T09:43:23Z</time>
      </trkpt>
      <trkpt lat="47.26329" lon="-1.6084">
        <ele>21.7</ele>
        <time>2020-06-07T09:43:24Z</time>
      </trkpt>
      <trkpt lat="47.26328" lon="-1.60841">
        <ele>21.7</ele>
        <time>2020-06-07T09:43:25Z</time>
      </trkpt>
      <trkpt lat="47.26328" lon="-1.60843">
        <ele>21.8</ele>
        <time>2020-06-07T09:43:26Z</time>
      </trkpt>
      <trkpt lat="47.26328" lon="-1.60844">
        <ele>21.8</ele>
        <time>2020-06-07T09:43:27Z</time>
      </trkpt>
      <trkpt lat="47.26327" lon="-1.60845">
        <ele>21.8</ele>
        <time>2020-06-07T09:43:28Z</time>
      </trkpt>
      <trkpt lat="47.26327" lon="-1.60846">
        <ele>21.9</ele>
        <time>2020-06-07T09:43:29Z</time>
      </trkpt>
      <trkpt lat="47.26327" lon="-1.60847">
        <ele>21.9</ele>
        <time>2020-06-07T09:43:30Z</time>
      </trkpt>
      <trkpt lat="47.26327" lon="-1.60848">
        <ele>21.9</ele>
        <time>2020-06-07T09:43:31Z</time>
      </trkpt>
      <trkpt lat="47.26326" lon="-1.6085">
        <ele>22</ele>
        <time>2020-06-07T09:43:32Z</time>
      </trkpt>
      <trkpt lat="47.26326" lon="-1.60851">
        <ele>22</ele>
        <time>2020-06-07T09:43:33Z</time>
      </trkpt>
      <trkpt lat="47.26326" lon="-1.60853">
        <ele>22.1</ele>
        <time>2020-06-07T09:43:34Z</time>
      </trkpt>
      <trkpt lat="47.26325" lon="-1.60854">
        <ele>22.1</ele>
        <time>2020-06-07T09:43:35Z</time>
      </trkpt>
      <trkpt lat="47.26325" lon="-1.60856">
        <ele>22.2</ele>
        <time>2020-06-07T09:43:36Z</time>
      </trkpt>
      <trkpt lat="47.26325" lon="-1.60857">
        <ele>22.2</ele>
        <time>2020-06-07T09:43:37Z</time>
      </trkpt>
      <trkpt lat="47.26325" lon="-1.60859">
        <ele>22.2</ele>
        <time>2020-06-07T09:43:38Z</time>
      </trkpt>
      <trkpt lat="47.26325" lon="-1.6086">
        <ele>22.2</ele>
        <time>2020-06-07T09:43:39Z</time>
      </trkpt>
      <trkpt lat="47.26325" lon="-1.60861">
        <ele>22.2</ele>
        <time>2020-06-07T09:43:40Z</time>
      </trkpt>
      <trkpt lat="47.26326" lon="-1.60862">
        <ele>22.1</ele>
        <time>2020-06-07T09:43:41Z</time>
      </trkpt>
      <trkpt lat="47.26326" lon="-1.60863">
        <ele>22</ele>
        <time>2020-06-07T09:43:42Z</time>
      </trkpt>
      <trkpt lat="47.26327" lon="-1.60864">
        <ele>21.8</ele>
        <time>2020-06-07T09:43:43Z</time>
      </trkpt>
      <trkpt lat="47.26328" lon="-1.60864">
        <ele>21.7</ele>
        <time>2020-06-07T09:43:44Z</time>
      </trkpt>
      <trkpt lat="47.26329" lon="-1.60864">
        <ele>21.6</ele>
        <time>2020-06-07T09:43:45Z</time>
      </trkpt>
      <trkpt lat="47.2633" lon="-1.60863">
        <ele>21.5</ele>
        <time>2020-06-07T09:43:46Z</time>
      </trkpt>
      <trkpt lat="47.26331" lon="-1.60863">
        <ele>21.4</ele>
        <time>2020-06-07T09:43:47Z</time>
      </trkpt>
      <trkpt lat="47.26331" lon="-1.60862">
        <ele>21.3</ele>
        <time>2020-06-07T09:43:48Z</time>
      </trkpt>
      <trkpt lat="47.26332" lon="-1.60861">
        <ele>21.2</ele>
        <time>2020-06-07T09:43:49Z</time>
      </trkpt>
      <trkpt lat="47.26332" lon="-1.6086">
        <ele>21.1</ele>
        <time>2020-06-07T09:43:50Z</time>
      </trkpt>
      <trkpt lat="47.26333" lon="-1.6086">
        <ele>21.1</ele>
        <time>2020-06-07T09:43:51Z</time>
      </trkpt>
      <trkpt lat="47.26333" lon="-1.60859">
        <ele>21</ele>
        <time>2020-06-07T09:43:52Z</time>
      </trkpt>
      <trkpt lat="47.26334" lon="-1.60858">
        <ele>21</ele>
        <time>2020-06-07T09:43:53Z</time>
      </trkpt>
      <trkpt lat="47.26334" lon="-1.60857">
        <ele>21</ele>
        <time>2020-06-07T09:43:54Z</time>
      </trkpt>
      <trkpt lat="47.26335" lon="-1.60856">
        <ele>21</ele>
        <time>2020-06-07T09:43:55Z</time>
      </trkpt>
      <trkpt lat="47.26336" lon="-1.60855">
        <ele>21</ele>
        <time>2020-06-07T09:43:56Z</time>
      </trkpt>
      <trkpt lat="47.26336" lon="-1.60854">
        <ele>21</ele>
        <time>2020-06-07T09:43:57Z</time>
      </trkpt>
      <trkpt lat="47.26337" lon="-1.60853">
        <ele>21</ele>
        <time>2020-06-07T09:43:58Z</time>
      </trkpt>
      <trkpt lat="47.26338" lon="-1.60852">
        <ele>20.9</ele>
        <time>2020-06-07T09:43:59Z</time>
      </trkpt>
      <trkpt lat="47.26339" lon="-1.60851">
        <ele>20.9</ele>
        <time>2020-06-07T09:44:00Z</time>
      </trkpt>
      <trkpt lat="47.26339" lon="-1.6085">
        <ele>20.9</ele>
        <time>2020-06-07T09:44:01Z</time>
      </trkpt>
      <trkpt lat="47.2634" lon="-1.60849">
        <ele>20.9</ele>
        <time>2020-06-07T09:44:02Z</time>
      </trkpt>
      <trkpt lat="47.26341" lon="-1.60848">
        <ele>20.9</ele>
        <time>2020-06-07T09:44:03Z</time>
      </trkpt>
      <trkpt lat="47.26341" lon="-1.60847">
        <ele>20.9</ele>
        <time>2020-06-07T09:44:04Z</time>
      </trkpt>
      <trkpt lat="47.26342" lon="-1.60846">
        <ele>20.9</ele>
        <time>2020-06-07T09:44:05Z</time>
      </trkpt>
      <trkpt lat="47.26342" lon="-1.60845">
        <ele>20.9</ele>
        <time>2020-06-07T09:44:06Z</time>
      </trkpt>
      <trkpt lat="47.26343" lon="-1.60844">
        <ele>20.9</ele>
        <time>2020-06-07T09:44:07Z</time>
      </trkpt>
      <trkpt lat="47.26344" lon="-1.60843">
        <ele>20.9</ele>
        <time>2020-06-07T09:44:08Z</time>
      </trkpt>
      <trkpt lat="47.26344" lon="-1.60842">
        <ele>20.9</ele>
        <time>2020-06-07T09:44:09Z</time>
      </trkpt>
      <trkpt lat="47.26345" lon="-1.60841">
        <ele>20.9</ele>
        <time>2020-06-07T09:44:10Z</time>
      </trkpt>
      <trkpt lat="47.26345" lon="-1.6084">
        <ele>20.9</ele>
        <time>2020-06-07T09:44:11Z</time>
      </trkpt>
      <trkpt lat="47.26346" lon="-1.60839">
        <ele>20.8</ele>
        <time>2020-06-07T09:44:12Z</time>
      </trkpt>
      <trkpt lat="47.26347" lon="-1.60838">
        <ele>20.8</ele>
        <time>2020-06-07T09:44:13Z</time>
      </trkpt>
      <trkpt lat="47.26347" lon="-1.60837">
        <ele>20.8</ele>
        <time>2020-06-07T09:44:14Z</time>
      </trkpt>
      <trkpt lat="47.26348" lon="-1.60836">
        <ele>20.8</ele>
        <time>2020-06-07T09:44:15Z</time>
      </trkpt>
      <trkpt lat="47.26349" lon="-1.60835">
        <ele>20.8</ele>
        <time>2020-06-07T09:44:16Z</time>
      </trkpt>
      <trkpt lat="47.2635" lon="-1.60834">
        <ele>20.8</ele>
        <time>2020-06-07T09:44:17Z</time>
      </trkpt>
      <trkpt lat="47.2635" lon="-1.60833">
        <ele>20.8</ele>
        <time>2020-06-07T09:44:18Z</time>
      </trkpt>
      <trkpt lat="47.26351" lon="-1.60833">
        <ele>20.8</ele>
        <time>2020-06-07T09:44:19Z</time>
      </trkpt>
      <trkpt lat="47.26352" lon="-1.60832">
        <ele>20.8</ele>
        <time>2020-06-07T09:44:20Z</time>
      </trkpt>
      <trkpt lat="47.26353" lon="-1.60831">
        <ele>20.8</ele>
        <time>2020-06-07T09:44:21Z</time>
      </trkpt>
      <trkpt lat="47.26353" lon="-1.6083">
        <ele>20.8</ele>
        <time>2020-06-07T09:44:22Z</time>
      </trkpt>
      <trkpt lat="47.26354" lon="-1.60829">
        <ele>20.8</ele>
        <time>2020-06-07T09:44:23Z</time>
      </trkpt>
      <trkpt lat="47.26355" lon="-1.60829">
        <ele>20.8</ele>
        <time>2020-06-07T09:44:24Z</time>
      </trkpt>
      <trkpt lat="47.26355" lon="-1.60828">
        <ele>20.8</ele>
        <time>2020-06-07T09:44:25Z</time>
      </trkpt>
      <trkpt lat="47.26356" lon="-1.60827">
        <ele>20.8</ele>
        <time>2020-06-07T09:44:26Z</time>
      </trkpt>
      <trkpt lat="47.26357" lon="-1.60827">
        <ele>20.8</ele>
        <time>2020-06-07T09:44:27Z</time>
      </trkpt>
      <trkpt lat="47.26357" lon="-1.60826">
        <ele>20.8</ele>
        <time>2020-06-07T09:44:28Z</time>
      </trkpt>
      <trkpt lat="47.26358" lon="-1.60825">
        <ele>20.8</ele>
        <time>2020-06-07T09:44:29Z</time>
      </trkpt>
      <trkpt lat="47.26359" lon="-1.60824">
        <ele>20.8</ele>
        <time>2020-06-07T09:44:30Z</time>
      </trkpt>
      <trkpt lat="47.26359" lon="-1.60824">
        <ele>20.8</ele>
        <time>2020-06-07T09:44:31Z</time>
      </trkpt>
      <trkpt lat="47.2636" lon="-1.60823">
        <ele>20.8</ele>
        <time>2020-06-07T09:44:32Z</time>
      </trkpt>
      <trkpt lat="47.26361" lon="-1.60822">
        <ele>20.8</ele>
        <time>2020-06-07T09:44:33Z</time>
      </trkpt>
      <trkpt lat="47.26361" lon="-1.60822">
        <ele>20.9</ele>
        <time>2020-06-07T09:44:34Z</time>
      </trkpt>
      <trkpt lat="47.26362" lon="-1.60821">
        <ele>20.9</ele>
        <time>2020-06-07T09:44:35Z</time>
      </trkpt>
      <trkpt lat="47.26362" lon="-1.60821">
        <ele>20.9</ele>
        <time>2020-06-07T09:44:36Z</time>
      </trkpt>
      <trkpt lat="47.26363" lon="-1.6082">
        <ele>20.9</ele>
        <time>2020-06-07T09:44:37Z</time>
      </trkpt>
      <trkpt lat="47.26364" lon="-1.60819">
        <ele>20.9</ele>
        <time>2020-06-07T09:44:38Z</time>
      </trkpt>
      <trkpt lat="47.26364" lon="-1.60819">
        <ele>20.9</ele>
        <time>2020-06-07T09:44:39Z</time>
      </trkpt>
      <trkpt lat="47.26365" lon="-1.60818">
        <ele>20.9</ele>
        <time>2020-06-07T09:44:40Z</time>
      </trkpt>
      <trkpt lat="47.26366" lon="-1.60817">
        <ele>20.9</ele>
        <time>2020-06-07T09:44:41Z</time>
      </trkpt>
      <trkpt lat="47.26366" lon="-1.60817">
        <ele>21</ele>
        <time>2020-06-07T09:44:42Z</time>
      </trkpt>
      <trkpt lat="47.26367" lon="-1.60816">
        <ele>21</ele>
        <time>2020-06-07T09:44:43Z</time>
      </trkpt>
      <trkpt lat="47.26368" lon="-1.60815">
        <ele>21</ele>
        <time>2020-06-07T09:44:44Z</time>
      </trkpt>
      <trkpt lat="47.26369" lon="-1.60815">
        <ele>21</ele>
        <time>2020-06-07T09:44:45Z</time>
      </trkpt>
      <trkpt lat="47.26369" lon="-1.60814">
        <ele>21</ele>
        <time>2020-06-07T09:44:46Z</time>
      </trkpt>
      <trkpt lat="47.2637" lon="-1.60813">
        <ele>21.1</ele>
        <time>2020-06-07T09:44:47Z</time>
      </trkpt>
      <trkpt lat="47.26371" lon="-1.60812">
        <ele>21.1</ele>
        <time>2020-06-07T09:44:48Z</time>
      </trkpt>
      <trkpt lat="47.26372" lon="-1.60812">
        <ele>21.1</ele>
        <time>2020-06-07T09:44:49Z</time>
      </trkpt>
      <trkpt lat="47.26373" lon="-1.60811">
        <ele>21.2</ele>
        <time>2020-06-07T09:44:50Z</time>
      </trkpt>
      <trkpt lat="47.26374" lon="-1.6081">
        <ele>21.2</ele>
        <time>2020-06-07T09:44:51Z</time>
      </trkpt>
      <trkpt lat="47.26375" lon="-1.6081">
        <ele>21.2</ele>
        <time>2020-06-07T09:44:52Z</time>
      </trkpt>
      <trkpt lat="47.26375" lon="-1.60809">
        <ele>21.2</ele>
        <time>2020-06-07T09:44:53Z</time>
      </trkpt>
      <trkpt lat="47.26376" lon="-1.60809">
        <ele>21.3</ele>
        <time>2020-06-07T09:44:54Z</time>
      </trkpt>
      <trkpt lat="47.26377" lon="-1.60808">
        <ele>21.3</ele>
        <time>2020-06-07T09:44:55Z</time>
      </trkpt>
      <trkpt lat="47.26378" lon="-1.60808">
        <ele>21.3</ele>
        <time>2020-06-07T09:44:56Z</time>
      </trkpt>
      <trkpt lat="47.26378" lon="-1.60808">
        <ele>21.3</ele>
        <time>2020-06-07T09:44:57Z</time>
      </trkpt>
      <trkpt lat="47.26379" lon="-1.60808">
        <ele>21.3</ele>
        <time>2020-06-07T09:44:58Z</time>
      </trkpt>
      <trkpt lat="47.2638" lon="-1.60808">
        <ele>21.3</ele>
        <time>2020-06-07T09:44:59Z</time>
      </trkpt>
      <trkpt lat="47.2638" lon="-1.60809">
        <ele>21.3</ele>
        <time>2020-06-07T09:45:00Z</time>
      </trkpt>
      <trkpt lat="47.26381" lon="-1.60809">
        <ele>21.3</ele>
        <time>2020-06-07T09:45:01Z</time>
      </trkpt>
      <trkpt lat="47.26382" lon="-1.6081">
        <ele>21.3</ele>
        <time>2020-06-07T09:45:02Z</time>
      </trkpt>
      <trkpt lat="47.26382" lon="-1.60811">
        <ele>21.3</ele>
        <time>2020-06-07T09:45:03Z</time>
      </trkpt>
      <trkpt lat="47.26383" lon="-1.60812">
        <ele>21.2</ele>
        <time>2020-06-07T09:45:04Z</time>
      </trkpt>
      <trkpt lat="47.26384" lon="-1.60813">
        <ele>21.2</ele>
        <time>2020-06-07T09:45:05Z</time>
      </trkpt>
      <trkpt lat="47.26384" lon="-1.60814">
        <ele>21.2</ele>
        <time>2020-06-07T09:45:06Z</time>
      </trkpt>
      <trkpt lat="47.26384" lon="-1.60815">
        <ele>21.1</ele>
        <time>2020-06-07T09:45:07Z</time>
      </trkpt>
      <trkpt lat="47.26385" lon="-1.60816">
        <ele>21.1</ele>
        <time>2020-06-07T09:45:08Z</time>
      </trkpt>
      <trkpt lat="47.26385" lon="-1.60816">
        <ele>21.1</ele>
        <time>2020-06-07T09:45:09Z</time>
      </trkpt>
      <trkpt lat="47.26385" lon="-1.60817">
        <ele>21</ele>
        <time>2020-06-07T09:45:10Z</time>
      </trkpt>
      <trkpt lat="47.26386" lon="-1.60818">
        <ele>21</ele>
        <time>2020-06-07T09:45:11Z</time>
      </trkpt>
      <trkpt lat="47.26386" lon="-1.60819">
        <ele>21</ele>
        <time>2020-06-07T09:45:12Z</time>
      </trkpt>
      <trkpt lat="47.26386" lon="-1.6082">
        <ele>20.9</ele>
        <time>2020-06-07T09:45:13Z</time>
      </trkpt>
      <trkpt lat="47.26387" lon="-1.60821">
        <ele>20.9</ele>
        <time>2020-06-07T09:45:14Z</time>
      </trkpt>
      <trkpt lat="47.26387" lon="-1.60822">
        <ele>20.8</ele>
        <time>2020-06-07T09:45:15Z</time>
      </trkpt>
      <trkpt lat="47.26387" lon="-1.60823">
        <ele>20.8</ele>
        <time>2020-06-07T09:45:16Z</time>
      </trkpt>
      <trkpt lat="47.26388" lon="-1.60824">
        <ele>20.7</ele>
        <time>2020-06-07T09:45:17Z</time>
      </trkpt>
      <trkpt lat="47.26388" lon="-1.60826">
        <ele>20.7</ele>
        <time>2020-06-07T09:45:18Z</time>
      </trkpt>
      <trkpt lat="47.26389" lon="-1.60827">
        <ele>20.6</ele>
        <time>2020-06-07T09:45:19Z</time>
      </trkpt>
      <trkpt lat="47.26389" lon="-1.60828">
        <ele>20.6</ele>
        <time>2020-06-07T09:45:20Z</time>
      </trkpt>
      <trkpt lat="47.26389" lon="-1.60829">
        <ele>20.5</ele>
        <time>2020-06-07T09:45:21Z</time>
      </trkpt>
      <trkpt lat="47.2639" lon="-1.60831">
        <ele>20.4</ele>
        <time>2020-06-07T09:45:22Z</time>
      </trkpt>
      <trkpt lat="47.2639" lon="-1.60832">
        <ele>20.4</ele>
        <time>2020-06-07T09:45:23Z</time>
      </trkpt>
      <trkpt lat="47.2639" lon="-1.60833">
        <ele>20.3</ele>
        <time>2020-06-07T09:45:24Z</time>
      </trkpt>
      <trkpt lat="47.26391" lon="-1.60835">
        <ele>20.3</ele>
        <time>2020-06-07T09:45:25Z</time>
      </trkpt>
      <trkpt lat="47.26391" lon="-1.60836">
        <ele>20.3</ele>
        <time>2020-06-07T09:45:26Z</time>
      </trkpt>
      <trkpt lat="47.26392" lon="-1.60837">
        <ele>20.3</ele>
        <time>2020-06-07T09:45:27Z</time>
      </trkpt>
      <trkpt lat="47.26392" lon="-1.60838">
        <ele>20.3</ele>
        <time>2020-06-07T09:45:28Z</time>
      </trkpt>
      <trkpt lat="47.26392" lon="-1.6084">
        <ele>20.3</ele>
        <time>2020-06-07T09:45:29Z</time>
      </trkpt>
      <trkpt lat="47.26393" lon="-1.60841">
        <ele>20.3</ele>
        <time>2020-06-07T09:45:30Z</time>
      </trkpt>
      <trkpt lat="47.26393" lon="-1.60842">
        <ele>20.3</ele>
        <time>2020-06-07T09:45:31Z</time>
      </trkpt>
      <trkpt lat="47.26394" lon="-1.60843">
        <ele>20.3</ele>
        <time>2020-06-07T09:45:32Z</time>
      </trkpt>
      <trkpt lat="47.26394" lon="-1.60844">
        <ele>20.3</ele>
        <time>2020-06-07T09:45:33Z</time>
      </trkpt>
      <trkpt lat="47.26394" lon="-1.60844">
        <ele>20.3</ele>
        <time>2020-06-07T09:45:34Z</time>
      </trkpt>
      <trkpt lat="47.26394" lon="-1.60845">
        <ele>20.3</ele>
        <time>2020-06-07T09:45:35Z</time>
      </trkpt>
      <trkpt lat="47.26395" lon="-1.60845">
        <ele>20.3</ele>
        <time>2020-06-07T09:45:36Z</time>
      </trkpt>
      <trkpt lat="47.26395" lon="-1.60846">
        <ele>20.3</ele>
        <time>2020-06-07T09:45:37Z</time>
      </trkpt>
      <trkpt lat="47.26395" lon="-1.60846">
        <ele>20.3</ele>
        <time>2020-06-07T09:45:38Z</time>
      </trkpt>
      <trkpt lat="47.26395" lon="-1.60846">
        <ele>20.3</ele>
        <time>2020-06-07T09:45:39Z</time>
      </trkpt>
      <trkpt lat="47.26395" lon="-1.60846">
        <ele>20.3</ele>
        <time>2020-06-07T09:45:40Z</time>
      </trkpt>
      <trkpt lat="47.26395" lon="-1.60846">
        <ele>20.3</ele>
        <time>2020-06-07T09:45:41Z</time>
      </trkpt>
      <trkpt lat="47.26395" lon="-1.60846">
        <ele>20.3</ele>
        <time>2020-06-07T09:45:42Z</time>
      </trkpt>
      <trkpt lat="47.26395" lon="-1.60847">
        <ele>20.3</ele>
        <time>2020-06-07T09:45:43Z</time>
      </trkpt>
      <trkpt lat="47.26396" lon="-1.60847">
        <ele>20.3</ele>
        <time>2020-06-07T09:45:44Z</time>
      </trkpt>
      <trkpt lat="47.26396" lon="-1.60848">
        <ele>20.2</ele>
        <time>2020-06-07T09:45:45Z</time>
      </trkpt>
      <trkpt lat="47.26396" lon="-1.60849">
        <ele>20.2</ele>
        <time>2020-06-07T09:45:46Z</time>
      </trkpt>
      <trkpt lat="47.26397" lon="-1.6085">
        <ele>20.2</ele>
        <time>2020-06-07T09:45:47Z</time>
      </trkpt>
      <trkpt lat="47.26397" lon="-1.60851">
        <ele>20.2</ele>
        <time>2020-06-07T09:45:48Z</time>
      </trkpt>
      <trkpt lat="47.26397" lon="-1.60851">
        <ele>20.2</ele>
        <time>2020-06-07T09:45:49Z</time>
      </trkpt>
      <trkpt lat="47.26397" lon="-1.60852">
        <ele>20.2</ele>
        <time>2020-06-07T09:45:50Z</time>
      </trkpt>
      <trkpt lat="47.26398" lon="-1.60853">
        <ele>20.2</ele>
        <time>2020-06-07T09:45:51Z</time>
      </trkpt>
      <trkpt lat="47.26398" lon="-1.60854">
        <ele>20.2</ele>
        <time>2020-06-07T09:45:52Z</time>
      </trkpt>
      <trkpt lat="47.26398" lon="-1.60854">
        <ele>20.2</ele>
        <time>2020-06-07T09:45:53Z</time>
      </trkpt>
      <trkpt lat="47.26398" lon="-1.60855">
        <ele>20.2</ele>
        <time>2020-06-07T09:45:54Z</time>
      </trkpt>
      <trkpt lat="47.26399" lon="-1.60855">
        <ele>20.2</ele>
        <time>2020-06-07T09:45:55Z</time>
      </trkpt>
      <trkpt lat="47.26399" lon="-1.60856">
        <ele>20.2</ele>
        <time>2020-06-07T09:45:56Z</time>
      </trkpt>
      <trkpt lat="47.26399" lon="-1.60856">
        <ele>20.2</ele>
        <time>2020-06-07T09:45:57Z</time>
      </trkpt>
      <trkpt lat="47.26399" lon="-1.60856">
        <ele>20.2</ele>
        <time>2020-06-07T09:45:58Z</time>
      </trkpt>
      <trkpt lat="47.26399" lon="-1.60856">
        <ele>20.2</ele>
        <time>2020-06-07T09:45:59Z</time>
      </trkpt>
      <trkpt lat="47.26399" lon="-1.60856">
        <ele>20.2</ele>
        <time>2020-06-07T09:46:00Z</time>
      </trkpt>
      <trkpt lat="47.26399" lon="-1.60856">
        <ele>20.2</ele>
        <time>2020-06-07T09:46:01Z</time>
      </trkpt>
      <trkpt lat="47.26399" lon="-1.60856">
        <ele>20.2</ele>
        <time>2020-06-07T09:46:02Z</time>
      </trkpt>
      <trkpt lat="47.26399" lon="-1.60856">
        <ele>20.2</ele>
        <time>2020-06-07T09:46:03Z</time>
      </trkpt>
      <trkpt lat="47.26399" lon="-1.60856">
        <ele>20.2</ele>
        <time>2020-06-07T09:46:04Z</time>
      </trkpt>
      <trkpt lat="47.26399" lon="-1.60856">
        <ele>20.2</ele>
        <time>2020-06-07T09:46:05Z</time>
      </trkpt>
      <trkpt lat="47.26399" lon="-1.60856">
        <ele>20.2</ele>
        <time>2020-06-07T09:46:06Z</time>
      </trkpt>
      <trkpt lat="47.26399" lon="-1.60856">
        <ele>20.2</ele>
        <time>2020-06-07T09:46:07Z</time>
      </trkpt>
      <trkpt lat="47.26399" lon="-1.60856">
        <ele>20.2</ele>
        <time>2020-06-07T09:46:08Z</time>
      </trkpt>
      <trkpt lat="47.26399" lon="-1.60856">
        <ele>20.2</ele>
        <time>2020-06-07T09:46:09Z</time>
      </trkpt>
      <trkpt lat="47.26399" lon="-1.60856">
        <ele>20.2</ele>
        <time>2020-06-07T09:46:10Z</time>
      </trkpt>
      <trkpt lat="47.26399" lon="-1.60857">
        <ele>20.2</ele>
        <time>2020-06-07T09:46:11Z</time>
      </trkpt>
      <trkpt lat="47.264" lon="-1.60857">
        <ele>20.2</ele>
        <time>2020-06-07T09:46:12Z</time>
      </trkpt>
      <trkpt lat="47.264" lon="-1.60858">
        <ele>20.2</ele>
        <time>2020-06-07T09:46:13Z</time>
      </trkpt>
      <trkpt lat="47.264" lon="-1.60859">
        <ele>20.2</ele>
        <time>2020-06-07T09:46:14Z</time>
      </trkpt>
      <trkpt lat="47.26401" lon="-1.6086">
        <ele>20.2</ele>
        <time>2020-06-07T09:46:15Z</time>
      </trkpt>
      <trkpt lat="47.26401" lon="-1.60861">
        <ele>20.2</ele>
        <time>2020-06-07T09:46:16Z</time>
      </trkpt>
      <trkpt lat="47.26402" lon="-1.60862">
        <ele>20.2</ele>
        <time>2020-06-07T09:46:17Z</time>
      </trkpt>
      <trkpt lat="47.26402" lon="-1.60863">
        <ele>20.2</ele>
        <time>2020-06-07T09:46:18Z</time>
      </trkpt>
      <trkpt lat="47.26403" lon="-1.60865">
        <ele>20.2</ele>
        <time>2020-06-07T09:46:19Z</time>
      </trkpt>
      <trkpt lat="47.26403" lon="-1.60866">
        <ele>20.2</ele>
        <time>2020-06-07T09:46:20Z</time>
      </trkpt>
      <trkpt lat="47.26404" lon="-1.60867">
        <ele>20.2</ele>
        <time>2020-06-07T09:46:21Z</time>
      </trkpt>
      <trkpt lat="47.26404" lon="-1.60868">
        <ele>20.2</ele>
        <time>2020-06-07T09:46:22Z</time>
      </trkpt>
      <trkpt lat="47.26405" lon="-1.6087">
        <ele>20.1</ele>
        <time>2020-06-07T09:46:23Z</time>
      </trkpt>
      <trkpt lat="47.26405" lon="-1.60871">
        <ele>20.1</ele>
        <time>2020-06-07T09:46:24Z</time>
      </trkpt>
      <trkpt lat="47.26406" lon="-1.60872">
        <ele>20.1</ele>
        <time>2020-06-07T09:46:25Z</time>
      </trkpt>
      <trkpt lat="47.26407" lon="-1.60873">
        <ele>20.1</ele>
        <time>2020-06-07T09:46:26Z</time>
      </trkpt>
      <trkpt lat="47.26407" lon="-1.60875">
        <ele>20.1</ele>
        <time>2020-06-07T09:46:27Z</time>
      </trkpt>
      <trkpt lat="47.26408" lon="-1.60876">
        <ele>20.1</ele>
        <time>2020-06-07T09:46:28Z</time>
      </trkpt>
      <trkpt lat="47.26408" lon="-1.60877">
        <ele>20.1</ele>
        <time>2020-06-07T09:46:29Z</time>
      </trkpt>
      <trkpt lat="47.26409" lon="-1.60878">
        <ele>20.1</ele>
        <time>2020-06-07T09:46:30Z</time>
      </trkpt>
      <trkpt lat="47.2641" lon="-1.60879">
        <ele>20.1</ele>
        <time>2020-06-07T09:46:31Z</time>
      </trkpt>
      <trkpt lat="47.2641" lon="-1.60881">
        <ele>20.1</ele>
        <time>2020-06-07T09:46:32Z</time>
      </trkpt>
      <trkpt lat="47.26411" lon="-1.60882">
        <ele>20.1</ele>
        <time>2020-06-07T09:46:33Z</time>
      </trkpt>
      <trkpt lat="47.26412" lon="-1.60883">
        <ele>20.1</ele>
        <time>2020-06-07T09:46:34Z</time>
      </trkpt>
      <trkpt lat="47.26412" lon="-1.60884">
        <ele>20.1</ele>
        <time>2020-06-07T09:46:35Z</time>
      </trkpt>
      <trkpt lat="47.26413" lon="-1.60885">
        <ele>20</ele>
        <time>2020-06-07T09:46:36Z</time>
      </trkpt>
      <trkpt lat="47.26414" lon="-1.60887">
        <ele>20</ele>
        <time>2020-06-07T09:46:37Z</time>
      </trkpt>
      <trkpt lat="47.26415" lon="-1.60888">
        <ele>20</ele>
        <time>2020-06-07T09:46:38Z</time>
      </trkpt>
      <trkpt lat="47.26415" lon="-1.60889">
        <ele>20</ele>
        <time>2020-06-07T09:46:39Z</time>
      </trkpt>
      <trkpt lat="47.26416" lon="-1.6089">
        <ele>20</ele>
        <time>2020-06-07T09:46:40Z</time>
      </trkpt>
      <trkpt lat="47.26417" lon="-1.60891">
        <ele>20</ele>
        <time>2020-06-07T09:46:41Z</time>
      </trkpt>
      <trkpt lat="47.26417" lon="-1.60893">
        <ele>20.2</ele>
        <time>2020-06-07T09:46:42Z</time>
      </trkpt>
      <trkpt lat="47.26418" lon="-1.60894">
        <ele>20.3</ele>
        <time>2020-06-07T09:46:43Z</time>
      </trkpt>
      <trkpt lat="47.26419" lon="-1.60895">
        <ele>20.5</ele>
        <time>2020-06-07T09:46:44Z</time>
      </trkpt>
      <trkpt lat="47.2642" lon="-1.60896">
        <ele>20.7</ele>
        <time>2020-06-07T09:46:45Z</time>
      </trkpt>
      <trkpt lat="47.2642" lon="-1.60898">
        <ele>20.8</ele>
        <time>2020-06-07T09:46:46Z</time>
      </trkpt>
      <trkpt lat="47.26421" lon="-1.60899">
        <ele>21</ele>
        <time>2020-06-07T09:46:47Z</time>
      </trkpt>
      <trkpt lat="47.26422" lon="-1.609">
        <ele>21.1</ele>
        <time>2020-06-07T09:46:48Z</time>
      </trkpt>
      <trkpt lat="47.26423" lon="-1.60901">
        <ele>21.3</ele>
        <time>2020-06-07T09:46:49Z</time>
      </trkpt>
      <trkpt lat="47.26423" lon="-1.60903">
        <ele>21.5</ele>
        <time>2020-06-07T09:46:50Z</time>
      </trkpt>
      <trkpt lat="47.26424" lon="-1.60904">
        <ele>21.6</ele>
        <time>2020-06-07T09:46:51Z</time>
      </trkpt>
      <trkpt lat="47.26425" lon="-1.60905">
        <ele>21.8</ele>
        <time>2020-06-07T09:46:52Z</time>
      </trkpt>
      <trkpt lat="47.26425" lon="-1.60906">
        <ele>21.9</ele>
        <time>2020-06-07T09:46:53Z</time>
      </trkpt>
      <trkpt lat="47.26426" lon="-1.60908">
        <ele>22.1</ele>
        <time>2020-06-07T09:46:54Z</time>
      </trkpt>
      <trkpt lat="47.26427" lon="-1.60909">
        <ele>22.2</ele>
        <time>2020-06-07T09:46:55Z</time>
      </trkpt>
      <trkpt lat="47.26427" lon="-1.6091">
        <ele>22.3</ele>
        <time>2020-06-07T09:46:56Z</time>
      </trkpt>
      <trkpt lat="47.26428" lon="-1.60911">
        <ele>22.5</ele>
        <time>2020-06-07T09:46:57Z</time>
      </trkpt>
      <trkpt lat="47.26429" lon="-1.60913">
        <ele>22.6</ele>
        <time>2020-06-07T09:46:58Z</time>
      </trkpt>
      <trkpt lat="47.26429" lon="-1.60914">
        <ele>22.8</ele>
        <time>2020-06-07T09:46:59Z</time>
      </trkpt>
      <trkpt lat="47.2643" lon="-1.60915">
        <ele>22.9</ele>
        <time>2020-06-07T09:47:00Z</time>
      </trkpt>
      <trkpt lat="47.26431" lon="-1.60916">
        <ele>23</ele>
        <time>2020-06-07T09:47:01Z</time>
      </trkpt>
      <trkpt lat="47.26431" lon="-1.60917">
        <ele>23.2</ele>
        <time>2020-06-07T09:47:02Z</time>
      </trkpt>
      <trkpt lat="47.26432" lon="-1.60919">
        <ele>23.2</ele>
        <time>2020-06-07T09:47:03Z</time>
      </trkpt>
      <trkpt lat="47.26433" lon="-1.6092">
        <ele>23.3</ele>
        <time>2020-06-07T09:47:04Z</time>
      </trkpt>
      <trkpt lat="47.26433" lon="-1.60921">
        <ele>23.4</ele>
        <time>2020-06-07T09:47:05Z</time>
      </trkpt>
      <trkpt lat="47.26434" lon="-1.60922">
        <ele>23.5</ele>
        <time>2020-06-07T09:47:06Z</time>
      </trkpt>
      <trkpt lat="47.26435" lon="-1.60923">
        <ele>23.6</ele>
        <time>2020-06-07T09:47:07Z</time>
      </trkpt>
      <trkpt lat="47.26435" lon="-1.60925">
        <ele>23.6</ele>
        <time>2020-06-07T09:47:08Z</time>
      </trkpt>
      <trkpt lat="47.26436" lon="-1.60926">
        <ele>23.7</ele>
        <time>2020-06-07T09:47:09Z</time>
      </trkpt>
      <trkpt lat="47.26437" lon="-1.60927">
        <ele>23.8</ele>
        <time>2020-06-07T09:47:10Z</time>
      </trkpt>
      <trkpt lat="47.26437" lon="-1.60929">
        <ele>23.9</ele>
        <time>2020-06-07T09:47:11Z</time>
      </trkpt>
      <trkpt lat="47.26438" lon="-1.6093">
        <ele>23.9</ele>
        <time>2020-06-07T09:47:12Z</time>
      </trkpt>
      <trkpt lat="47.26439" lon="-1.60931">
        <ele>24</ele>
        <time>2020-06-07T09:47:13Z</time>
      </trkpt>
      <trkpt lat="47.26439" lon="-1.60932">
        <ele>24.1</ele>
        <time>2020-06-07T09:47:14Z</time>
      </trkpt>
      <trkpt lat="47.2644" lon="-1.60934">
        <ele>24.2</ele>
        <time>2020-06-07T09:47:15Z</time>
      </trkpt>
      <trkpt lat="47.26441" lon="-1.60935">
        <ele>24.2</ele>
        <time>2020-06-07T09:47:16Z</time>
      </trkpt>
      <trkpt lat="47.26441" lon="-1.60936">
        <ele>24.3</ele>
        <time>2020-06-07T09:47:17Z</time>
      </trkpt>
      <trkpt lat="47.26442" lon="-1.60938">
        <ele>24.4</ele>
        <time>2020-06-07T09:47:18Z</time>
      </trkpt>
      <trkpt lat="47.26443" lon="-1.60939">
        <ele>24.4</ele>
        <time>2020-06-07T09:47:19Z</time>
      </trkpt>
      <trkpt lat="47.26444" lon="-1.6094">
        <ele>24.5</ele>
        <time>2020-06-07T09:47:20Z</time>
      </trkpt>
      <trkpt lat="47.26444" lon="-1.60942">
        <ele>24.6</ele>
        <time>2020-06-07T09:47:21Z</time>
      </trkpt>
      <trkpt lat="47.26445" lon="-1.60943">
        <ele>24.6</ele>
        <time>2020-06-07T09:47:22Z</time>
      </trkpt>
      <trkpt lat="47.26446" lon="-1.60944">
        <ele>24.7</ele>
        <time>2020-06-07T09:47:23Z</time>
      </trkpt>
      <trkpt lat="47.26446" lon="-1.60945">
        <ele>24.7</ele>
        <time>2020-06-07T09:47:24Z</time>
      </trkpt>
      <trkpt lat="47.26447" lon="-1.60946">
        <ele>24.8</ele>
        <time>2020-06-07T09:47:25Z</time>
      </trkpt>
      <trkpt lat="47.26448" lon="-1.60948">
        <ele>24.8</ele>
        <time>2020-06-07T09:47:26Z</time>
      </trkpt>
      <trkpt lat="47.26448" lon="-1.60949">
        <ele>24.9</ele>
        <time>2020-06-07T09:47:27Z</time>
      </trkpt>
      <trkpt lat="47.26449" lon="-1.6095">
        <ele>24.9</ele>
        <time>2020-06-07T09:47:28Z</time>
      </trkpt>
      <trkpt lat="47.2645" lon="-1.60951">
        <ele>25</ele>
        <time>2020-06-07T09:47:29Z</time>
      </trkpt>
      <trkpt lat="47.2645" lon="-1.60952">
        <ele>25</ele>
        <time>2020-06-07T09:47:30Z</time>
      </trkpt>
      <trkpt lat="47.26451" lon="-1.60953">
        <ele>25.1</ele>
        <time>2020-06-07T09:47:31Z</time>
      </trkpt>
      <trkpt lat="47.26452" lon="-1.60954">
        <ele>25.1</ele>
        <time>2020-06-07T09:47:32Z</time>
      </trkpt>
      <trkpt lat="47.26452" lon="-1.60956">
        <ele>25.1</ele>
        <time>2020-06-07T09:47:33Z</time>
      </trkpt>
      <trkpt lat="47.26453" lon="-1.60957">
        <ele>25.2</ele>
        <time>2020-06-07T09:47:34Z</time>
      </trkpt>
      <trkpt lat="47.26453" lon="-1.60958">
        <ele>25.2</ele>
        <time>2020-06-07T09:47:35Z</time>
      </trkpt>
      <trkpt lat="47.26454" lon="-1.60959">
        <ele>25.2</ele>
        <time>2020-06-07T09:47:36Z</time>
      </trkpt>
      <trkpt lat="47.26455" lon="-1.6096">
        <ele>25.2</ele>
        <time>2020-06-07T09:47:37Z</time>
      </trkpt>
      <trkpt lat="47.26455" lon="-1.60962">
        <ele>25.3</ele>
        <time>2020-06-07T09:47:38Z</time>
      </trkpt>
      <trkpt lat="47.26456" lon="-1.60963">
        <ele>25.3</ele>
        <time>2020-06-07T09:47:39Z</time>
      </trkpt>
      <trkpt lat="47.26457" lon="-1.60964">
        <ele>25.3</ele>
        <time>2020-06-07T09:47:40Z</time>
      </trkpt>
      <trkpt lat="47.26457" lon="-1.60965">
        <ele>25.3</ele>
        <time>2020-06-07T09:47:41Z</time>
      </trkpt>
      <trkpt lat="47.26458" lon="-1.60966">
        <ele>25.3</ele>
        <time>2020-06-07T09:47:42Z</time>
      </trkpt>
      <trkpt lat="47.26458" lon="-1.60968">
        <ele>25.3</ele>
        <time>2020-06-07T09:47:43Z</time>
      </trkpt>
      <trkpt lat="47.26459" lon="-1.60969">
        <ele>25.4</ele>
        <time>2020-06-07T09:47:44Z</time>
      </trkpt>
      <trkpt lat="47.2646" lon="-1.6097">
        <ele>25.4</ele>
        <time>2020-06-07T09:47:45Z</time>
      </trkpt>
      <trkpt lat="47.2646" lon="-1.60971">
        <ele>25.4</ele>
        <time>2020-06-07T09:47:46Z</time>
      </trkpt>
      <trkpt lat="47.26461" lon="-1.60972">
        <ele>25.3</ele>
        <time>2020-06-07T09:47:47Z</time>
      </trkpt>
      <trkpt lat="47.26461" lon="-1.60974">
        <ele>25.3</ele>
        <time>2020-06-07T09:47:48Z</time>
      </trkpt>
      <trkpt lat="47.26462" lon="-1.60975">
        <ele>25.3</ele>
        <time>2020-06-07T09:47:49Z</time>
      </trkpt>
      <trkpt lat="47.26462" lon="-1.60976">
        <ele>25.3</ele>
        <time>2020-06-07T09:47:50Z</time>
      </trkpt>
      <trkpt lat="47.26463" lon="-1.60977">
        <ele>25.3</ele>
        <time>2020-06-07T09:47:51Z</time>
      </trkpt>
      <trkpt lat="47.26463" lon="-1.60978">
        <ele>25.3</ele>
        <time>2020-06-07T09:47:52Z</time>
      </trkpt>
      <trkpt lat="47.26464" lon="-1.60979">
        <ele>25.3</ele>
        <time>2020-06-07T09:47:53Z</time>
      </trkpt>
      <trkpt lat="47.26464" lon="-1.60981">
        <ele>25.2</ele>
        <time>2020-06-07T09:47:54Z</time>
      </trkpt>
      <trkpt lat="47.26465" lon="-1.60982">
        <ele>25.2</ele>
        <time>2020-06-07T09:47:55Z</time>
      </trkpt>
      <trkpt lat="47.26465" lon="-1.60983">
        <ele>25.2</ele>
        <time>2020-06-07T09:47:56Z</time>
      </trkpt>
      <trkpt lat="47.26466" lon="-1.60984">
        <ele>25.1</ele>
        <time>2020-06-07T09:47:57Z</time>
      </trkpt>
      <trkpt lat="47.26466" lon="-1.60985">
        <ele>25.1</ele>
        <time>2020-06-07T09:47:58Z</time>
      </trkpt>
      <trkpt lat="47.26466" lon="-1.60986">
        <ele>25.1</ele>
        <time>2020-06-07T09:47:59Z</time>
      </trkpt>
      <trkpt lat="47.26467" lon="-1.60988">
        <ele>25</ele>
        <time>2020-06-07T09:48:00Z</time>
      </trkpt>
      <trkpt lat="47.26467" lon="-1.60989">
        <ele>25</ele>
        <time>2020-06-07T09:48:01Z</time>
      </trkpt>
      <trkpt lat="47.26468" lon="-1.6099">
        <ele>24.9</ele>
        <time>2020-06-07T09:48:02Z</time>
      </trkpt>
      <trkpt lat="47.26468" lon="-1.60991">
        <ele>24.9</ele>
        <time>2020-06-07T09:48:03Z</time>
      </trkpt>
      <trkpt lat="47.26468" lon="-1.60993">
        <ele>24.8</ele>
        <time>2020-06-07T09:48:04Z</time>
      </trkpt>
      <trkpt lat="47.26469" lon="-1.60994">
        <ele>24.7</ele>
        <time>2020-06-07T09:48:05Z</time>
      </trkpt>
      <trkpt lat="47.26469" lon="-1.60996">
        <ele>24.7</ele>
        <time>2020-06-07T09:48:06Z</time>
      </trkpt>
      <trkpt lat="47.26469" lon="-1.60997">
        <ele>24.6</ele>
        <time>2020-06-07T09:48:07Z</time>
      </trkpt>
      <trkpt lat="47.2647" lon="-1.60998">
        <ele>24.5</ele>
        <time>2020-06-07T09:48:08Z</time>
      </trkpt>
      <trkpt lat="47.2647" lon="-1.61">
        <ele>24.4</ele>
        <time>2020-06-07T09:48:09Z</time>
      </trkpt>
      <trkpt lat="47.2647" lon="-1.61001">
        <ele>24.4</ele>
        <time>2020-06-07T09:48:10Z</time>
      </trkpt>
      <trkpt lat="47.26471" lon="-1.61003">
        <ele>24.4</ele>
        <time>2020-06-07T09:48:11Z</time>
      </trkpt>
      <trkpt lat="47.26471" lon="-1.61004">
        <ele>24.4</ele>
        <time>2020-06-07T09:48:12Z</time>
      </trkpt>
      <trkpt lat="47.26471" lon="-1.61006">
        <ele>24.4</ele>
        <time>2020-06-07T09:48:13Z</time>
      </trkpt>
      <trkpt lat="47.26472" lon="-1.61008">
        <ele>24.4</ele>
        <time>2020-06-07T09:48:14Z</time>
      </trkpt>
      <trkpt lat="47.26472" lon="-1.61009">
        <ele>24.4</ele>
        <time>2020-06-07T09:48:15Z</time>
      </trkpt>
      <trkpt lat="47.26472" lon="-1.61011">
        <ele>24.4</ele>
        <time>2020-06-07T09:48:16Z</time>
      </trkpt>
      <trkpt lat="47.26472" lon="-1.61012">
        <ele>24.4</ele>
        <time>2020-06-07T09:48:17Z</time>
      </trkpt>
      <trkpt lat="47.26473" lon="-1.61014">
        <ele>24.4</ele>
        <time>2020-06-07T09:48:18Z</time>
      </trkpt>
      <trkpt lat="47.26473" lon="-1.61016">
        <ele>24.4</ele>
        <time>2020-06-07T09:48:19Z</time>
      </trkpt>
      <trkpt lat="47.26473" lon="-1.61017">
        <ele>24.4</ele>
        <time>2020-06-07T09:48:20Z</time>
      </trkpt>
      <trkpt lat="47.26473" lon="-1.61019">
        <ele>24.3</ele>
        <time>2020-06-07T09:48:21Z</time>
      </trkpt>
      <trkpt lat="47.26473" lon="-1.6102">
        <ele>24.3</ele>
        <time>2020-06-07T09:48:22Z</time>
      </trkpt>
      <trkpt lat="47.26474" lon="-1.61022">
        <ele>24.3</ele>
        <time>2020-06-07T09:48:23Z</time>
      </trkpt>
      <trkpt lat="47.26474" lon="-1.61023">
        <ele>24.3</ele>
        <time>2020-06-07T09:48:24Z</time>
      </trkpt>
      <trkpt lat="47.26474" lon="-1.61025">
        <ele>24.2</ele>
        <time>2020-06-07T09:48:25Z</time>
      </trkpt>
      <trkpt lat="47.26474" lon="-1.61026">
        <ele>24.2</ele>
        <time>2020-06-07T09:48:26Z</time>
      </trkpt>
      <trkpt lat="47.26474" lon="-1.61028">
        <ele>24.2</ele>
        <time>2020-06-07T09:48:27Z</time>
      </trkpt>
      <trkpt lat="47.26474" lon="-1.61029">
        <ele>24.2</ele>
        <time>2020-06-07T09:48:28Z</time>
      </trkpt>
      <trkpt lat="47.26474" lon="-1.61031">
        <ele>24.1</ele>
        <time>2020-06-07T09:48:29Z</time>
      </trkpt>
      <trkpt lat="47.26474" lon="-1.61032">
        <ele>24.1</ele>
        <time>2020-06-07T09:48:30Z</time>
      </trkpt>
      <trkpt lat="47.26474" lon="-1.61033">
        <ele>24.1</ele>
        <time>2020-06-07T09:48:31Z</time>
      </trkpt>
      <trkpt lat="47.26474" lon="-1.61035">
        <ele>24</ele>
        <time>2020-06-07T09:48:32Z</time>
      </trkpt>
      <trkpt lat="47.26474" lon="-1.61036">
        <ele>24</ele>
        <time>2020-06-07T09:48:33Z</time>
      </trkpt>
      <trkpt lat="47.26474" lon="-1.61038">
        <ele>23.9</ele>
        <time>2020-06-07T09:48:34Z</time>
      </trkpt>
      <trkpt lat="47.26474" lon="-1.61039">
        <ele>23.9</ele>
        <time>2020-06-07T09:48:35Z</time>
      </trkpt>
      <trkpt lat="47.26474" lon="-1.61041">
        <ele>23.9</ele>
        <time>2020-06-07T09:48:36Z</time>
      </trkpt>
      <trkpt lat="47.26474" lon="-1.61042">
        <ele>23.8</ele>
        <time>2020-06-07T09:48:37Z</time>
      </trkpt>
      <trkpt lat="47.26474" lon="-1.61043">
        <ele>23.8</ele>
        <time>2020-06-07T09:48:38Z</time>
      </trkpt>
      <trkpt lat="47.26474" lon="-1.61045">
        <ele>23.7</ele>
        <time>2020-06-07T09:48:39Z</time>
      </trkpt>
      <trkpt lat="47.26474" lon="-1.61046">
        <ele>23.7</ele>
        <time>2020-06-07T09:48:40Z</time>
      </trkpt>
      <trkpt lat="47.26474" lon="-1.61048">
        <ele>23.7</ele>
        <time>2020-06-07T09:48:41Z</time>
      </trkpt>
      <trkpt lat="47.26474" lon="-1.61049">
        <ele>23.6</ele>
        <time>2020-06-07T09:48:42Z</time>
      </trkpt>
      <trkpt lat="47.26474" lon="-1.61051">
        <ele>23.6</ele>
        <time>2020-06-07T09:48:43Z</time>
      </trkpt>
      <trkpt lat="47.26474" lon="-1.61052">
        <ele>23.6</ele>
        <time>2020-06-07T09:48:44Z</time>
      </trkpt>
      <trkpt lat="47.26474" lon="-1.61054">
        <ele>23.5</ele>
        <time>2020-06-07T09:48:45Z</time>
      </trkpt>
      <trkpt lat="47.26474" lon="-1.61055">
        <ele>23.5</ele>
        <time>2020-06-07T09:48:46Z</time>
      </trkpt>
      <trkpt lat="47.26474" lon="-1.61057">
        <ele>23.5</ele>
        <time>2020-06-07T09:48:47Z</time>
      </trkpt>
      <trkpt lat="47.26474" lon="-1.61058">
        <ele>23.4</ele>
        <time>2020-06-07T09:48:48Z</time>
      </trkpt>
      <trkpt lat="47.26474" lon="-1.6106">
        <ele>23.4</ele>
        <time>2020-06-07T09:48:49Z</time>
      </trkpt>
      <trkpt lat="47.26474" lon="-1.61061">
        <ele>23.3</ele>
        <time>2020-06-07T09:48:50Z</time>
      </trkpt>
      <trkpt lat="47.26474" lon="-1.61063">
        <ele>23.3</ele>
        <time>2020-06-07T09:48:51Z</time>
      </trkpt>
      <trkpt lat="47.26474" lon="-1.61064">
        <ele>23.3</ele>
        <time>2020-06-07T09:48:52Z</time>
      </trkpt>
      <trkpt lat="47.26474" lon="-1.61066">
        <ele>23.2</ele>
        <time>2020-06-07T09:48:53Z</time>
      </trkpt>
      <trkpt lat="47.26474" lon="-1.61067">
        <ele>23.2</ele>
        <time>2020-06-07T09:48:54Z</time>
      </trkpt>
      <trkpt lat="47.26474" lon="-1.61069">
        <ele>23.2</ele>
        <time>2020-06-07T09:48:55Z</time>
      </trkpt>
      <trkpt lat="47.26474" lon="-1.6107">
        <ele>23.1</ele>
        <time>2020-06-07T09:48:56Z</time>
      </trkpt>
      <trkpt lat="47.26474" lon="-1.61072">
        <ele>23.1</ele>
        <time>2020-06-07T09:48:57Z</time>
      </trkpt>
      <trkpt lat="47.26474" lon="-1.61073">
        <ele>23.1</ele>
        <time>2020-06-07T09:48:58Z</time>
      </trkpt>
      <trkpt lat="47.26474" lon="-1.61075">
        <ele>23</ele>
        <time>2020-06-07T09:48:59Z</time>
      </trkpt>
      <trkpt lat="47.26474" lon="-1.61076">
        <ele>23</ele>
        <time>2020-06-07T09:49:00Z</time>
      </trkpt>
      <trkpt lat="47.26474" lon="-1.61078">
        <ele>23</ele>
        <time>2020-06-07T09:49:01Z</time>
      </trkpt>
      <trkpt lat="47.26474" lon="-1.61079">
        <ele>22.9</ele>
        <time>2020-06-07T09:49:02Z</time>
      </trkpt>
      <trkpt lat="47.26474" lon="-1.6108">
        <ele>22.9</ele>
        <time>2020-06-07T09:49:03Z</time>
      </trkpt>
      <trkpt lat="47.26474" lon="-1.61082">
        <ele>22.9</ele>
        <time>2020-06-07T09:49:04Z</time>
      </trkpt>
      <trkpt lat="47.26474" lon="-1.61083">
        <ele>22.8</ele>
        <time>2020-06-07T09:49:05Z</time>
      </trkpt>
      <trkpt lat="47.26474" lon="-1.61085">
        <ele>22.8</ele>
        <time>2020-06-07T09:49:06Z</time>
      </trkpt>
      <trkpt lat="47.26474" lon="-1.61086">
        <ele>22.8</ele>
        <time>2020-06-07T09:49:07Z</time>
      </trkpt>
      <trkpt lat="47.26474" lon="-1.61087">
        <ele>22.8</ele>
        <time>2020-06-07T09:49:08Z</time>
      </trkpt>
      <trkpt lat="47.26474" lon="-1.61089">
        <ele>22.8</ele>
        <time>2020-06-07T09:49:09Z</time>
      </trkpt>
      <trkpt lat="47.26474" lon="-1.6109">
        <ele>22.7</ele>
        <time>2020-06-07T09:49:10Z</time>
      </trkpt>
      <trkpt lat="47.26474" lon="-1.61091">
        <ele>22.7</ele>
        <time>2020-06-07T09:49:11Z</time>
      </trkpt>
      <trkpt lat="47.26474" lon="-1.61093">
        <ele>22.7</ele>
        <time>2020-06-07T09:49:12Z</time>
      </trkpt>
      <trkpt lat="47.26474" lon="-1.61094">
        <ele>22.7</ele>
        <time>2020-06-07T09:49:13Z</time>
      </trkpt>
      <trkpt lat="47.26474" lon="-1.61095">
        <ele>22.7</ele>
        <time>2020-06-07T09:49:14Z</time>
      </trkpt>
      <trkpt lat="47.26475" lon="-1.61097">
        <ele>22.7</ele>
        <time>2020-06-07T09:49:15Z</time>
      </trkpt>
      <trkpt lat="47.26475" lon="-1.61098">
        <ele>22.7</ele>
        <time>2020-06-07T09:49:16Z</time>
      </trkpt>
      <trkpt lat="47.26475" lon="-1.61099">
        <ele>22.7</ele>
        <time>2020-06-07T09:49:17Z</time>
      </trkpt>
      <trkpt lat="47.26475" lon="-1.61101">
        <ele>22.7</ele>
        <time>2020-06-07T09:49:18Z</time>
      </trkpt>
      <trkpt lat="47.26475" lon="-1.61102">
        <ele>22.7</ele>
        <time>2020-06-07T09:49:19Z</time>
      </trkpt>
      <trkpt lat="47.26475" lon="-1.61104">
        <ele>22.6</ele>
        <time>2020-06-07T09:49:20Z</time>
      </trkpt>
      <trkpt lat="47.26475" lon="-1.61105">
        <ele>22.6</ele>
        <time>2020-06-07T09:49:21Z</time>
      </trkpt>
      <trkpt lat="47.26475" lon="-1.61106">
        <ele>22.6</ele>
        <time>2020-06-07T09:49:22Z</time>
      </trkpt>
      <trkpt lat="47.26475" lon="-1.61108">
        <ele>22.6</ele>
        <time>2020-06-07T09:49:23Z</time>
      </trkpt>
      <trkpt lat="47.26475" lon="-1.61109">
        <ele>22.6</ele>
        <time>2020-06-07T09:49:24Z</time>
      </trkpt>
      <trkpt lat="47.26475" lon="-1.6111">
        <ele>22.6</ele>
        <time>2020-06-07T09:49:25Z</time>
      </trkpt>
      <trkpt lat="47.26475" lon="-1.61112">
        <ele>22.5</ele>
        <time>2020-06-07T09:49:26Z</time>
      </trkpt>
      <trkpt lat="47.26475" lon="-1.61113">
        <ele>22.5</ele>
        <time>2020-06-07T09:49:27Z</time>
      </trkpt>
      <trkpt lat="47.26474" lon="-1.61114">
        <ele>22.5</ele>
        <time>2020-06-07T09:49:28Z</time>
      </trkpt>
      <trkpt lat="47.26474" lon="-1.61116">
        <ele>22.4</ele>
        <time>2020-06-07T09:49:29Z</time>
      </trkpt>
      <trkpt lat="47.26474" lon="-1.61117">
        <ele>22.4</ele>
        <time>2020-06-07T09:49:30Z</time>
      </trkpt>
      <trkpt lat="47.26474" lon="-1.61118">
        <ele>22.4</ele>
        <time>2020-06-07T09:49:31Z</time>
      </trkpt>
      <trkpt lat="47.26473" lon="-1.6112">
        <ele>22.3</ele>
        <time>2020-06-07T09:49:32Z</time>
      </trkpt>
      <trkpt lat="47.26473" lon="-1.61121">
        <ele>22.3</ele>
        <time>2020-06-07T09:49:33Z</time>
      </trkpt>
      <trkpt lat="47.26472" lon="-1.61122">
        <ele>22.2</ele>
        <time>2020-06-07T09:49:34Z</time>
      </trkpt>
      <trkpt lat="47.26472" lon="-1.61123">
        <ele>22.2</ele>
        <time>2020-06-07T09:49:35Z</time>
      </trkpt>
      <trkpt lat="47.26472" lon="-1.61124">
        <ele>22.1</ele>
        <time>2020-06-07T09:49:36Z</time>
      </trkpt>
      <trkpt lat="47.26471" lon="-1.61126">
        <ele>22.1</ele>
        <time>2020-06-07T09:49:37Z</time>
      </trkpt>
      <trkpt lat="47.26471" lon="-1.61127">
        <ele>22</ele>
        <time>2020-06-07T09:49:38Z</time>
      </trkpt>
      <trkpt lat="47.2647" lon="-1.61128">
        <ele>22</ele>
        <time>2020-06-07T09:49:39Z</time>
      </trkpt>
      <trkpt lat="47.2647" lon="-1.61129">
        <ele>21.9</ele>
        <time>2020-06-07T09:49:40Z</time>
      </trkpt>
      <trkpt lat="47.26469" lon="-1.6113">
        <ele>21.9</ele>
        <time>2020-06-07T09:49:41Z</time>
      </trkpt>
      <trkpt lat="47.26469" lon="-1.61131">
        <ele>21.8</ele>
        <time>2020-06-07T09:49:42Z</time>
      </trkpt>
      <trkpt lat="47.26468" lon="-1.61132">
        <ele>21.7</ele>
        <time>2020-06-07T09:49:43Z</time>
      </trkpt>
      <trkpt lat="47.26468" lon="-1.61134">
        <ele>21.7</ele>
        <time>2020-06-07T09:49:44Z</time>
      </trkpt>
      <trkpt lat="47.26467" lon="-1.61135">
        <ele>21.6</ele>
        <time>2020-06-07T09:49:45Z</time>
      </trkpt>
      <trkpt lat="47.26467" lon="-1.61136">
        <ele>21.6</ele>
        <time>2020-06-07T09:49:46Z</time>
      </trkpt>
      <trkpt lat="47.26466" lon="-1.61137">
        <ele>21.5</ele>
        <time>2020-06-07T09:49:47Z</time>
      </trkpt>
      <trkpt lat="47.26466" lon="-1.61138">
        <ele>21.5</ele>
        <time>2020-06-07T09:49:48Z</time>
      </trkpt>
      <trkpt lat="47.26465" lon="-1.6114">
        <ele>21.4</ele>
        <time>2020-06-07T09:49:49Z</time>
      </trkpt>
      <trkpt lat="47.26465" lon="-1.61141">
        <ele>21.4</ele>
        <time>2020-06-07T09:49:50Z</time>
      </trkpt>
      <trkpt lat="47.26464" lon="-1.61142">
        <ele>21.3</ele>
        <time>2020-06-07T09:49:51Z</time>
      </trkpt>
      <trkpt lat="47.26464" lon="-1.61144">
        <ele>21.2</ele>
        <time>2020-06-07T09:49:52Z</time>
      </trkpt>
      <trkpt lat="47.26463" lon="-1.61145">
        <ele>21.2</ele>
        <time>2020-06-07T09:49:53Z</time>
      </trkpt>
      <trkpt lat="47.26463" lon="-1.61147">
        <ele>21.1</ele>
        <time>2020-06-07T09:49:54Z</time>
      </trkpt>
      <trkpt lat="47.26463" lon="-1.61148">
        <ele>21.1</ele>
        <time>2020-06-07T09:49:55Z</time>
      </trkpt>
      <trkpt lat="47.26462" lon="-1.61149">
        <ele>21</ele>
        <time>2020-06-07T09:49:56Z</time>
      </trkpt>
      <trkpt lat="47.26462" lon="-1.61151">
        <ele>21</ele>
        <time>2020-06-07T09:49:57Z</time>
      </trkpt>
      <trkpt lat="47.26461" lon="-1.61152">
        <ele>20.9</ele>
        <time>2020-06-07T09:49:58Z</time>
      </trkpt>
      <trkpt lat="47.26461" lon="-1.61154">
        <ele>20.8</ele>
        <time>2020-06-07T09:49:59Z</time>
      </trkpt>
      <trkpt lat="47.2646" lon="-1.61155">
        <ele>20.8</ele>
        <time>2020-06-07T09:50:00Z</time>
      </trkpt>
      <trkpt lat="47.2646" lon="-1.61157">
        <ele>20.7</ele>
        <time>2020-06-07T09:50:01Z</time>
      </trkpt>
      <trkpt lat="47.26459" lon="-1.61158">
        <ele>20.7</ele>
        <time>2020-06-07T09:50:02Z</time>
      </trkpt>
      <trkpt lat="47.26459" lon="-1.6116">
        <ele>20.6</ele>
        <time>2020-06-07T09:50:03Z</time>
      </trkpt>
      <trkpt lat="47.26458" lon="-1.61161">
        <ele>20.5</ele>
        <time>2020-06-07T09:50:04Z</time>
      </trkpt>
      <trkpt lat="47.26458" lon="-1.61163">
        <ele>20.5</ele>
        <time>2020-06-07T09:50:05Z</time>
      </trkpt>
      <trkpt lat="47.26457" lon="-1.61164">
        <ele>20.4</ele>
        <time>2020-06-07T09:50:06Z</time>
      </trkpt>
      <trkpt lat="47.26456" lon="-1.61166">
        <ele>20.3</ele>
        <time>2020-06-07T09:50:07Z</time>
      </trkpt>
      <trkpt lat="47.26456" lon="-1.61167">
        <ele>20.3</ele>
        <time>2020-06-07T09:50:08Z</time>
      </trkpt>
      <trkpt lat="47.26455" lon="-1.61169">
        <ele>20.3</ele>
        <time>2020-06-07T09:50:09Z</time>
      </trkpt>
      <trkpt lat="47.26455" lon="-1.6117">
        <ele>20.3</ele>
        <time>2020-06-07T09:50:10Z</time>
      </trkpt>
      <trkpt lat="47.26454" lon="-1.61172">
        <ele>20.3</ele>
        <time>2020-06-07T09:50:11Z</time>
      </trkpt>
      <trkpt lat="47.26454" lon="-1.61173">
        <ele>20.3</ele>
        <time>2020-06-07T09:50:12Z</time>
      </trkpt>
      <trkpt lat="47.26453" lon="-1.61175">
        <ele>20.2</ele>
        <time>2020-06-07T09:50:13Z</time>
      </trkpt>
      <trkpt lat="47.26452" lon="-1.61176">
        <ele>20.2</ele>
        <time>2020-06-07T09:50:14Z</time>
      </trkpt>
      <trkpt lat="47.26452" lon="-1.61177">
        <ele>20.2</ele>
        <time>2020-06-07T09:50:15Z</time>
      </trkpt>
      <trkpt lat="47.26451" lon="-1.61179">
        <ele>20.2</ele>
        <time>2020-06-07T09:50:16Z</time>
      </trkpt>
      <trkpt lat="47.26451" lon="-1.6118">
        <ele>20.2</ele>
        <time>2020-06-07T09:50:17Z</time>
      </trkpt>
      <trkpt lat="47.2645" lon="-1.61181">
        <ele>20.2</ele>
        <time>2020-06-07T09:50:18Z</time>
      </trkpt>
      <trkpt lat="47.2645" lon="-1.61183">
        <ele>20.2</ele>
        <time>2020-06-07T09:50:19Z</time>
      </trkpt>
      <trkpt lat="47.26449" lon="-1.61184">
        <ele>20.2</ele>
        <time>2020-06-07T09:50:20Z</time>
      </trkpt>
      <trkpt lat="47.26449" lon="-1.61185">
        <ele>20.2</ele>
        <time>2020-06-07T09:50:21Z</time>
      </trkpt>
      <trkpt lat="47.26449" lon="-1.61186">
        <ele>20.2</ele>
        <time>2020-06-07T09:50:22Z</time>
      </trkpt>
      <trkpt lat="47.26448" lon="-1.61188">
        <ele>20.2</ele>
        <time>2020-06-07T09:50:23Z</time>
      </trkpt>
      <trkpt lat="47.26448" lon="-1.61189">
        <ele>20.2</ele>
        <time>2020-06-07T09:50:24Z</time>
      </trkpt>
      <trkpt lat="47.26448" lon="-1.6119">
        <ele>20.2</ele>
        <time>2020-06-07T09:50:25Z</time>
      </trkpt>
      <trkpt lat="47.26448" lon="-1.61191">
        <ele>20.2</ele>
        <time>2020-06-07T09:50:26Z</time>
      </trkpt>
      <trkpt lat="47.26448" lon="-1.61192">
        <ele>20.2</ele>
        <time>2020-06-07T09:50:27Z</time>
      </trkpt>
      <trkpt lat="47.26447" lon="-1.61194">
        <ele>20.2</ele>
        <time>2020-06-07T09:50:28Z</time>
      </trkpt>
      <trkpt lat="47.26447" lon="-1.61195">
        <ele>20.2</ele>
        <time>2020-06-07T09:50:29Z</time>
      </trkpt>
      <trkpt lat="47.26447" lon="-1.61196">
        <ele>20.2</ele>
        <time>2020-06-07T09:50:30Z</time>
      </trkpt>
      <trkpt lat="47.26447" lon="-1.61197">
        <ele>20.3</ele>
        <time>2020-06-07T09:50:31Z</time>
      </trkpt>
      <trkpt lat="47.26447" lon="-1.61198">
        <ele>20.3</ele>
        <time>2020-06-07T09:50:32Z</time>
      </trkpt>
      <trkpt lat="47.26447" lon="-1.61199">
        <ele>20.3</ele>
        <time>2020-06-07T09:50:33Z</time>
      </trkpt>
      <trkpt lat="47.26446" lon="-1.612">
        <ele>20.3</ele>
        <time>2020-06-07T09:50:34Z</time>
      </trkpt>
      <trkpt lat="47.26446" lon="-1.61201">
        <ele>20.3</ele>
        <time>2020-06-07T09:50:35Z</time>
      </trkpt>
      <trkpt lat="47.26446" lon="-1.61202">
        <ele>20.3</ele>
        <time>2020-06-07T09:50:36Z</time>
      </trkpt>
      <trkpt lat="47.26445" lon="-1.61202">
        <ele>20.2</ele>
        <time>2020-06-07T09:50:37Z</time>
      </trkpt>
      <trkpt lat="47.26445" lon="-1.61203">
        <ele>20.2</ele>
        <time>2020-06-07T09:50:38Z</time>
      </trkpt>
      <trkpt lat="47.26444" lon="-1.61204">
        <ele>20.2</ele>
        <time>2020-06-07T09:50:39Z</time>
      </trkpt>
      <trkpt lat="47.26443" lon="-1.61205">
        <ele>20.2</ele>
        <time>2020-06-07T09:50:40Z</time>
      </trkpt>
      <trkpt lat="47.26443" lon="-1.61206">
        <ele>20.1</ele>
        <time>2020-06-07T09:50:41Z</time>
      </trkpt>
      <trkpt lat="47.26442" lon="-1.61207">
        <ele>20.1</ele>
        <time>2020-06-07T09:50:42Z</time>
      </trkpt>
      <trkpt lat="47.26441" lon="-1.61207">
        <ele>20</ele>
        <time>2020-06-07T09:50:43Z</time>
      </trkpt>
      <trkpt lat="47.2644" lon="-1.61208">
        <ele>20</ele>
        <time>2020-06-07T09:50:44Z</time>
      </trkpt>
      <trkpt lat="47.26439" lon="-1.61209">
        <ele>19.9</ele>
        <time>2020-06-07T09:50:45Z</time>
      </trkpt>
      <trkpt lat="47.26438" lon="-1.61209">
        <ele>19.8</ele>
        <time>2020-06-07T09:50:46Z</time>
      </trkpt>
      <trkpt lat="47.26437" lon="-1.6121">
        <ele>19.8</ele>
        <time>2020-06-07T09:50:47Z</time>
      </trkpt>
      <trkpt lat="47.26436" lon="-1.61211">
        <ele>19.7</ele>
        <time>2020-06-07T09:50:48Z</time>
      </trkpt>
      <trkpt lat="47.26435" lon="-1.61211">
        <ele>19.6</ele>
        <time>2020-06-07T09:50:49Z</time>
      </trkpt>
      <trkpt lat="47.26434" lon="-1.61212">
        <ele>19.6</ele>
        <time>2020-06-07T09:50:50Z</time>
      </trkpt>
      <trkpt lat="47.26433" lon="-1.61213">
        <ele>19.5</ele>
        <time>2020-06-07T09:50:51Z</time>
      </trkpt>
      <trkpt lat="47.26433" lon="-1.61213">
        <ele>19.5</ele>
        <time>2020-06-07T09:50:52Z</time>
      </trkpt>
      <trkpt lat="47.26432" lon="-1.61214">
        <ele>19.4</ele>
        <time>2020-06-07T09:50:53Z</time>
      </trkpt>
      <trkpt lat="47.26431" lon="-1.61215">
        <ele>19.3</ele>
        <time>2020-06-07T09:50:54Z</time>
      </trkpt>
      <trkpt lat="47.2643" lon="-1.61216">
        <ele>19.3</ele>
        <time>2020-06-07T09:50:55Z</time>
      </trkpt>
      <trkpt lat="47.26429" lon="-1.61216">
        <ele>19.2</ele>
        <time>2020-06-07T09:50:56Z</time>
      </trkpt>
      <trkpt lat="47.26428" lon="-1.61217">
        <ele>19.2</ele>
        <time>2020-06-07T09:50:57Z</time>
      </trkpt>
      <trkpt lat="47.26427" lon="-1.61218">
        <ele>19.1</ele>
        <time>2020-06-07T09:50:58Z</time>
      </trkpt>
      <trkpt lat="47.26426" lon="-1.61219">
        <ele>19</ele>
        <time>2020-06-07T09:50:59Z</time>
      </trkpt>
      <trkpt lat="47.26425" lon="-1.61219">
        <ele>19</ele>
        <time>2020-06-07T09:51:00Z</time>
      </trkpt>
      <trkpt lat="47.26424" lon="-1.6122">
        <ele>18.9</ele>
        <time>2020-06-07T09:51:01Z</time>
      </trkpt>
      <trkpt lat="47.26423" lon="-1.61221">
        <ele>18.8</ele>
        <time>2020-06-07T09:51:02Z</time>
      </trkpt>
      <trkpt lat="47.26422" lon="-1.61221">
        <ele>18.7</ele>
        <time>2020-06-07T09:51:03Z</time>
      </trkpt>
      <trkpt lat="47.26421" lon="-1.61222">
        <ele>18.7</ele>
        <time>2020-06-07T09:51:04Z</time>
      </trkpt>
      <trkpt lat="47.2642" lon="-1.61223">
        <ele>18.6</ele>
        <time>2020-06-07T09:51:05Z</time>
      </trkpt>
      <trkpt lat="47.26419" lon="-1.61224">
        <ele>18.5</ele>
        <time>2020-06-07T09:51:06Z</time>
      </trkpt>
      <trkpt lat="47.26417" lon="-1.61224">
        <ele>18.4</ele>
        <time>2020-06-07T09:51:07Z</time>
      </trkpt>
      <trkpt lat="47.26416" lon="-1.61225">
        <ele>18.4</ele>
        <time>2020-06-07T09:51:08Z</time>
      </trkpt>
      <trkpt lat="47.26415" lon="-1.61226">
        <ele>18.4</ele>
        <time>2020-06-07T09:51:09Z</time>
      </trkpt>
      <trkpt lat="47.26415" lon="-1.61227">
        <ele>18.4</ele>
        <time>2020-06-07T09:51:10Z</time>
      </trkpt>
      <trkpt lat="47.26414" lon="-1.61228">
        <ele>18.4</ele>
        <time>2020-06-07T09:51:11Z</time>
      </trkpt>
      <trkpt lat="47.26413" lon="-1.61229">
        <ele>18.4</ele>
        <time>2020-06-07T09:51:12Z</time>
      </trkpt>
      <trkpt lat="47.26412" lon="-1.6123">
        <ele>18.4</ele>
        <time>2020-06-07T09:51:13Z</time>
      </trkpt>
      <trkpt lat="47.26411" lon="-1.61231">
        <ele>18.4</ele>
        <time>2020-06-07T09:51:14Z</time>
      </trkpt>
      <trkpt lat="47.26411" lon="-1.61232">
        <ele>18.4</ele>
        <time>2020-06-07T09:51:15Z</time>
      </trkpt>
      <trkpt lat="47.2641" lon="-1.61233">
        <ele>18.4</ele>
        <time>2020-06-07T09:51:16Z</time>
      </trkpt>
      <trkpt lat="47.26409" lon="-1.61235">
        <ele>18.4</ele>
        <time>2020-06-07T09:51:17Z</time>
      </trkpt>
      <trkpt lat="47.26408" lon="-1.61236">
        <ele>18.4</ele>
        <time>2020-06-07T09:51:18Z</time>
      </trkpt>
      <trkpt lat="47.26407" lon="-1.61237">
        <ele>18.4</ele>
        <time>2020-06-07T09:51:19Z</time>
      </trkpt>
      <trkpt lat="47.26407" lon="-1.61238">
        <ele>18.4</ele>
        <time>2020-06-07T09:51:20Z</time>
      </trkpt>
      <trkpt lat="47.26406" lon="-1.61239">
        <ele>18.4</ele>
        <time>2020-06-07T09:51:21Z</time>
      </trkpt>
      <trkpt lat="47.26405" lon="-1.6124">
        <ele>18.4</ele>
        <time>2020-06-07T09:51:22Z</time>
      </trkpt>
      <trkpt lat="47.26404" lon="-1.61241">
        <ele>18.4</ele>
        <time>2020-06-07T09:51:23Z</time>
      </trkpt>
      <trkpt lat="47.26403" lon="-1.61242">
        <ele>18.4</ele>
        <time>2020-06-07T09:51:24Z</time>
      </trkpt>
      <trkpt lat="47.26402" lon="-1.61244">
        <ele>18.4</ele>
        <time>2020-06-07T09:51:25Z</time>
      </trkpt>
      <trkpt lat="47.26401" lon="-1.61245">
        <ele>18.3</ele>
        <time>2020-06-07T09:51:26Z</time>
      </trkpt>
      <trkpt lat="47.264" lon="-1.61246">
        <ele>18.3</ele>
        <time>2020-06-07T09:51:27Z</time>
      </trkpt>
      <trkpt lat="47.264" lon="-1.61247">
        <ele>18.3</ele>
        <time>2020-06-07T09:51:28Z</time>
      </trkpt>
      <trkpt lat="47.26399" lon="-1.61248">
        <ele>18.3</ele>
        <time>2020-06-07T09:51:29Z</time>
      </trkpt>
      <trkpt lat="47.26398" lon="-1.6125">
        <ele>18.3</ele>
        <time>2020-06-07T09:51:30Z</time>
      </trkpt>
      <trkpt lat="47.26397" lon="-1.61251">
        <ele>18.3</ele>
        <time>2020-06-07T09:51:31Z</time>
      </trkpt>
      <trkpt lat="47.26396" lon="-1.61252">
        <ele>18.4</ele>
        <time>2020-06-07T09:51:32Z</time>
      </trkpt>
      <trkpt lat="47.26395" lon="-1.61253">
        <ele>18.5</ele>
        <time>2020-06-07T09:51:33Z</time>
      </trkpt>
      <trkpt lat="47.26395" lon="-1.61255">
        <ele>18.5</ele>
        <time>2020-06-07T09:51:34Z</time>
      </trkpt>
      <trkpt lat="47.26394" lon="-1.61256">
        <ele>18.6</ele>
        <time>2020-06-07T09:51:35Z</time>
      </trkpt>
      <trkpt lat="47.26393" lon="-1.61257">
        <ele>18.7</ele>
        <time>2020-06-07T09:51:36Z</time>
      </trkpt>
      <trkpt lat="47.26392" lon="-1.61258">
        <ele>18.7</ele>
        <time>2020-06-07T09:51:37Z</time>
      </trkpt>
      <trkpt lat="47.26392" lon="-1.6126">
        <ele>18.8</ele>
        <time>2020-06-07T09:51:38Z</time>
      </trkpt>
      <trkpt lat="47.26391" lon="-1.61261">
        <ele>18.8</ele>
        <time>2020-06-07T09:51:39Z</time>
      </trkpt>
      <trkpt lat="47.2639" lon="-1.61262">
        <ele>18.9</ele>
        <time>2020-06-07T09:51:40Z</time>
      </trkpt>
      <trkpt lat="47.2639" lon="-1.61264">
        <ele>19</ele>
        <time>2020-06-07T09:51:41Z</time>
      </trkpt>
      <trkpt lat="47.26389" lon="-1.61265">
        <ele>19</ele>
        <time>2020-06-07T09:51:42Z</time>
      </trkpt>
      <trkpt lat="47.26388" lon="-1.61266">
        <ele>19.1</ele>
        <time>2020-06-07T09:51:43Z</time>
      </trkpt>
      <trkpt lat="47.26388" lon="-1.61267">
        <ele>19.1</ele>
        <time>2020-06-07T09:51:44Z</time>
      </trkpt>
      <trkpt lat="47.26387" lon="-1.61269">
        <ele>19.2</ele>
        <time>2020-06-07T09:51:45Z</time>
      </trkpt>
      <trkpt lat="47.26387" lon="-1.6127">
        <ele>19.2</ele>
        <time>2020-06-07T09:51:46Z</time>
      </trkpt>
      <trkpt lat="47.26386" lon="-1.61271">
        <ele>19.3</ele>
        <time>2020-06-07T09:51:47Z</time>
      </trkpt>
      <trkpt lat="47.26385" lon="-1.61273">
        <ele>19.3</ele>
        <time>2020-06-07T09:51:48Z</time>
      </trkpt>
      <trkpt lat="47.26385" lon="-1.61274">
        <ele>19.4</ele>
        <time>2020-06-07T09:51:49Z</time>
      </trkpt>
      <trkpt lat="47.26384" lon="-1.61275">
        <ele>19.4</ele>
        <time>2020-06-07T09:51:50Z</time>
      </trkpt>
      <trkpt lat="47.26384" lon="-1.61276">
        <ele>19.5</ele>
        <time>2020-06-07T09:51:51Z</time>
      </trkpt>
      <trkpt lat="47.26383" lon="-1.61277">
        <ele>19.5</ele>
        <time>2020-06-07T09:51:52Z</time>
      </trkpt>
      <trkpt lat="47.26383" lon="-1.61278">
        <ele>19.5</ele>
        <time>2020-06-07T09:51:53Z</time>
      </trkpt>
      <trkpt lat="47.26382" lon="-1.6128">
        <ele>19.6</ele>
        <time>2020-06-07T09:51:54Z</time>
      </trkpt>
      <trkpt lat="47.26382" lon="-1.61281">
        <ele>19.6</ele>
        <time>2020-06-07T09:51:55Z</time>
      </trkpt>
      <trkpt lat="47.26381" lon="-1.61282">
        <ele>19.6</ele>
        <time>2020-06-07T09:51:56Z</time>
      </trkpt>
      <trkpt lat="47.26381" lon="-1.61283">
        <ele>19.7</ele>
        <time>2020-06-07T09:51:57Z</time>
      </trkpt>
      <trkpt lat="47.2638" lon="-1.61284">
        <ele>19.7</ele>
        <time>2020-06-07T09:51:58Z</time>
      </trkpt>
      <trkpt lat="47.2638" lon="-1.61285">
        <ele>19.8</ele>
        <time>2020-06-07T09:51:59Z</time>
      </trkpt>
      <trkpt lat="47.2638" lon="-1.61287">
        <ele>19.8</ele>
        <time>2020-06-07T09:52:00Z</time>
      </trkpt>
      <trkpt lat="47.26379" lon="-1.61288">
        <ele>19.9</ele>
        <time>2020-06-07T09:52:01Z</time>
      </trkpt>
      <trkpt lat="47.26379" lon="-1.61289">
        <ele>19.9</ele>
        <time>2020-06-07T09:52:02Z</time>
      </trkpt>
      <trkpt lat="47.26379" lon="-1.61291">
        <ele>20</ele>
        <time>2020-06-07T09:52:03Z</time>
      </trkpt>
      <trkpt lat="47.26379" lon="-1.61292">
        <ele>20.1</ele>
        <time>2020-06-07T09:52:04Z</time>
      </trkpt>
      <trkpt lat="47.26379" lon="-1.61293">
        <ele>20.1</ele>
        <time>2020-06-07T09:52:05Z</time>
      </trkpt>
      <trkpt lat="47.26379" lon="-1.61295">
        <ele>20.2</ele>
        <time>2020-06-07T09:52:06Z</time>
      </trkpt>
      <trkpt lat="47.26378" lon="-1.61296">
        <ele>20.3</ele>
        <time>2020-06-07T09:52:07Z</time>
      </trkpt>
      <trkpt lat="47.26378" lon="-1.61298">
        <ele>20.4</ele>
        <time>2020-06-07T09:52:08Z</time>
      </trkpt>
      <trkpt lat="47.26378" lon="-1.61299">
        <ele>20.4</ele>
        <time>2020-06-07T09:52:09Z</time>
      </trkpt>
      <trkpt lat="47.26378" lon="-1.61301">
        <ele>20.5</ele>
        <time>2020-06-07T09:52:10Z</time>
      </trkpt>
      <trkpt lat="47.26378" lon="-1.61303">
        <ele>20.6</ele>
        <time>2020-06-07T09:52:11Z</time>
      </trkpt>
      <trkpt lat="47.26377" lon="-1.61304">
        <ele>20.6</ele>
        <time>2020-06-07T09:52:12Z</time>
      </trkpt>
      <trkpt lat="47.26377" lon="-1.61306">
        <ele>20.7</ele>
        <time>2020-06-07T09:52:13Z</time>
      </trkpt>
      <trkpt lat="47.26377" lon="-1.61307">
        <ele>20.8</ele>
        <time>2020-06-07T09:52:14Z</time>
      </trkpt>
      <trkpt lat="47.26377" lon="-1.61309">
        <ele>20.8</ele>
        <time>2020-06-07T09:52:15Z</time>
      </trkpt>
      <trkpt lat="47.26376" lon="-1.61311">
        <ele>20.9</ele>
        <time>2020-06-07T09:52:16Z</time>
      </trkpt>
      <trkpt lat="47.26376" lon="-1.61312">
        <ele>20.9</ele>
        <time>2020-06-07T09:52:17Z</time>
      </trkpt>
      <trkpt lat="47.26376" lon="-1.61314">
        <ele>21</ele>
        <time>2020-06-07T09:52:18Z</time>
      </trkpt>
      <trkpt lat="47.26375" lon="-1.61315">
        <ele>21.1</ele>
        <time>2020-06-07T09:52:19Z</time>
      </trkpt>
      <trkpt lat="47.26375" lon="-1.61317">
        <ele>21.1</ele>
        <time>2020-06-07T09:52:20Z</time>
      </trkpt>
      <trkpt lat="47.26375" lon="-1.61318">
        <ele>21.2</ele>
        <time>2020-06-07T09:52:21Z</time>
      </trkpt>
      <trkpt lat="47.26375" lon="-1.6132">
        <ele>21.2</ele>
        <time>2020-06-07T09:52:22Z</time>
      </trkpt>
      <trkpt lat="47.26374" lon="-1.61321">
        <ele>21.3</ele>
        <time>2020-06-07T09:52:23Z</time>
      </trkpt>
      <trkpt lat="47.26374" lon="-1.61323">
        <ele>21.3</ele>
        <time>2020-06-07T09:52:24Z</time>
      </trkpt>
      <trkpt lat="47.26374" lon="-1.61324">
        <ele>21.4</ele>
        <time>2020-06-07T09:52:25Z</time>
      </trkpt>
      <trkpt lat="47.26374" lon="-1.61326">
        <ele>21.4</ele>
        <time>2020-06-07T09:52:26Z</time>
      </trkpt>
      <trkpt lat="47.26373" lon="-1.61327">
        <ele>21.5</ele>
        <time>2020-06-07T09:52:27Z</time>
      </trkpt>
      <trkpt lat="47.26373" lon="-1.61329">
        <ele>21.5</ele>
        <time>2020-06-07T09:52:28Z</time>
      </trkpt>
      <trkpt lat="47.26373" lon="-1.6133">
        <ele>21.6</ele>
        <time>2020-06-07T09:52:29Z</time>
      </trkpt>
      <trkpt lat="47.26373" lon="-1.61331">
        <ele>21.6</ele>
        <time>2020-06-07T09:52:30Z</time>
      </trkpt>
      <trkpt lat="47.26373" lon="-1.61333">
        <ele>21.7</ele>
        <time>2020-06-07T09:52:31Z</time>
      </trkpt>
      <trkpt lat="47.26373" lon="-1.61334">
        <ele>21.7</ele>
        <time>2020-06-07T09:52:32Z</time>
      </trkpt>
      <trkpt lat="47.26373" lon="-1.61336">
        <ele>21.8</ele>
        <time>2020-06-07T09:52:33Z</time>
      </trkpt>
      <trkpt lat="47.26372" lon="-1.61337">
        <ele>21.8</ele>
        <time>2020-06-07T09:52:34Z</time>
      </trkpt>
      <trkpt lat="47.26372" lon="-1.61338">
        <ele>21.8</ele>
        <time>2020-06-07T09:52:35Z</time>
      </trkpt>
      <trkpt lat="47.26372" lon="-1.6134">
        <ele>21.8</ele>
        <time>2020-06-07T09:52:36Z</time>
      </trkpt>
      <trkpt lat="47.26372" lon="-1.61341">
        <ele>21.8</ele>
        <time>2020-06-07T09:52:37Z</time>
      </trkpt>
      <trkpt lat="47.26372" lon="-1.61343">
        <ele>21.9</ele>
        <time>2020-06-07T09:52:38Z</time>
      </trkpt>
      <trkpt lat="47.26372" lon="-1.61344">
        <ele>21.9</ele>
        <time>2020-06-07T09:52:39Z</time>
      </trkpt>
      <trkpt lat="47.26372" lon="-1.61345">
        <ele>21.9</ele>
        <time>2020-06-07T09:52:40Z</time>
      </trkpt>
      <trkpt lat="47.26371" lon="-1.61347">
        <ele>21.9</ele>
        <time>2020-06-07T09:52:41Z</time>
      </trkpt>
      <trkpt lat="47.26371" lon="-1.61348">
        <ele>21.9</ele>
        <time>2020-06-07T09:52:42Z</time>
      </trkpt>
      <trkpt lat="47.26371" lon="-1.6135">
        <ele>22</ele>
        <time>2020-06-07T09:52:43Z</time>
      </trkpt>
      <trkpt lat="47.26371" lon="-1.61351">
        <ele>22</ele>
        <time>2020-06-07T09:52:44Z</time>
      </trkpt>
      <trkpt lat="47.26371" lon="-1.61353">
        <ele>22</ele>
        <time>2020-06-07T09:52:45Z</time>
      </trkpt>
      <trkpt lat="47.2637" lon="-1.61354">
        <ele>22</ele>
        <time>2020-06-07T09:52:46Z</time>
      </trkpt>
      <trkpt lat="47.2637" lon="-1.61356">
        <ele>22</ele>
        <time>2020-06-07T09:52:47Z</time>
      </trkpt>
      <trkpt lat="47.2637" lon="-1.61357">
        <ele>22</ele>
        <time>2020-06-07T09:52:48Z</time>
      </trkpt>
      <trkpt lat="47.2637" lon="-1.61359">
        <ele>22</ele>
        <time>2020-06-07T09:52:49Z</time>
      </trkpt>
      <trkpt lat="47.26369" lon="-1.6136">
        <ele>22.1</ele>
        <time>2020-06-07T09:52:50Z</time>
      </trkpt>
      <trkpt lat="47.26369" lon="-1.61362">
        <ele>22.1</ele>
        <time>2020-06-07T09:52:51Z</time>
      </trkpt>
      <trkpt lat="47.26369" lon="-1.61363">
        <ele>22.1</ele>
        <time>2020-06-07T09:52:52Z</time>
      </trkpt>
      <trkpt lat="47.26369" lon="-1.61365">
        <ele>22.1</ele>
        <time>2020-06-07T09:52:53Z</time>
      </trkpt>
      <trkpt lat="47.26368" lon="-1.61366">
        <ele>22.1</ele>
        <time>2020-06-07T09:52:54Z</time>
      </trkpt>
      <trkpt lat="47.26368" lon="-1.61368">
        <ele>22.1</ele>
        <time>2020-06-07T09:52:55Z</time>
      </trkpt>
      <trkpt lat="47.26368" lon="-1.61369">
        <ele>22.2</ele>
        <time>2020-06-07T09:52:56Z</time>
      </trkpt>
      <trkpt lat="47.26368" lon="-1.6137">
        <ele>22.2</ele>
        <time>2020-06-07T09:52:57Z</time>
      </trkpt>
      <trkpt lat="47.26368" lon="-1.61372">
        <ele>22.2</ele>
        <time>2020-06-07T09:52:58Z</time>
      </trkpt>
      <trkpt lat="47.26368" lon="-1.61373">
        <ele>22.2</ele>
        <time>2020-06-07T09:52:59Z</time>
      </trkpt>
      <trkpt lat="47.26367" lon="-1.61375">
        <ele>22.3</ele>
        <time>2020-06-07T09:53:00Z</time>
      </trkpt>
      <trkpt lat="47.26367" lon="-1.61376">
        <ele>22.3</ele>
        <time>2020-06-07T09:53:01Z</time>
      </trkpt>
      <trkpt lat="47.26367" lon="-1.61377">
        <ele>22.3</ele>
        <time>2020-06-07T09:53:02Z</time>
      </trkpt>
      <trkpt lat="47.26367" lon="-1.61379">
        <ele>22.3</ele>
        <time>2020-06-07T09:53:03Z</time>
      </trkpt>
      <trkpt lat="47.26367" lon="-1.6138">
        <ele>22.4</ele>
        <time>2020-06-07T09:53:04Z</time>
      </trkpt>
      <trkpt lat="47.26367" lon="-1.61381">
        <ele>22.4</ele>
        <time>2020-06-07T09:53:05Z</time>
      </trkpt>
      <trkpt lat="47.26367" lon="-1.61383">
        <ele>22.4</ele>
        <time>2020-06-07T09:53:06Z</time>
      </trkpt>
      <trkpt lat="47.26367" lon="-1.61384">
        <ele>22.5</ele>
        <time>2020-06-07T09:53:07Z</time>
      </trkpt>
      <trkpt lat="47.26367" lon="-1.61385">
        <ele>22.5</ele>
        <time>2020-06-07T09:53:08Z</time>
      </trkpt>
      <trkpt lat="47.26367" lon="-1.61387">
        <ele>22.5</ele>
        <time>2020-06-07T09:53:09Z</time>
      </trkpt>
      <trkpt lat="47.26366" lon="-1.61388">
        <ele>22.5</ele>
        <time>2020-06-07T09:53:10Z</time>
      </trkpt>
      <trkpt lat="47.26366" lon="-1.6139">
        <ele>22.6</ele>
        <time>2020-06-07T09:53:11Z</time>
      </trkpt>
      <trkpt lat="47.26366" lon="-1.61391">
        <ele>22.6</ele>
        <time>2020-06-07T09:53:12Z</time>
      </trkpt>
      <trkpt lat="47.26365" lon="-1.61392">
        <ele>22.6</ele>
        <time>2020-06-07T09:53:13Z</time>
      </trkpt>
      <trkpt lat="47.26365" lon="-1.61394">
        <ele>22.6</ele>
        <time>2020-06-07T09:53:14Z</time>
      </trkpt>
      <trkpt lat="47.26365" lon="-1.61395">
        <ele>22.6</ele>
        <time>2020-06-07T09:53:15Z</time>
      </trkpt>
      <trkpt lat="47.26364" lon="-1.61397">
        <ele>22.6</ele>
        <time>2020-06-07T09:53:16Z</time>
      </trkpt>
      <trkpt lat="47.26364" lon="-1.61398">
        <ele>22.7</ele>
        <time>2020-06-07T09:53:17Z</time>
      </trkpt>
      <trkpt lat="47.26364" lon="-1.614">
        <ele>22.7</ele>
        <time>2020-06-07T09:53:18Z</time>
      </trkpt>
      <trkpt lat="47.26364" lon="-1.61401">
        <ele>22.7</ele>
        <time>2020-06-07T09:53:19Z</time>
      </trkpt>
      <trkpt lat="47.26364" lon="-1.61402">
        <ele>22.8</ele>
        <time>2020-06-07T09:53:20Z</time>
      </trkpt>
      <trkpt lat="47.26364" lon="-1.61403">
        <ele>22.8</ele>
        <time>2020-06-07T09:53:21Z</time>
      </trkpt>
      <trkpt lat="47.26364" lon="-1.61403">
        <ele>22.8</ele>
        <time>2020-06-07T09:53:22Z</time>
      </trkpt>
      <trkpt lat="47.26364" lon="-1.61403">
        <ele>22.8</ele>
        <time>2020-06-07T09:53:23Z</time>
      </trkpt>
      <trkpt lat="47.26364" lon="-1.61404">
        <ele>22.8</ele>
        <time>2020-06-07T09:53:24Z</time>
      </trkpt>
      <trkpt lat="47.26363" lon="-1.61405">
        <ele>22.8</ele>
        <time>2020-06-07T09:53:25Z</time>
      </trkpt>
      <trkpt lat="47.26363" lon="-1.61407">
        <ele>22.8</ele>
        <time>2020-06-07T09:53:26Z</time>
      </trkpt>
      <trkpt lat="47.26363" lon="-1.61408">
        <ele>22.9</ele>
        <time>2020-06-07T09:53:27Z</time>
      </trkpt>
      <trkpt lat="47.26363" lon="-1.6141">
        <ele>22.9</ele>
        <time>2020-06-07T09:53:28Z</time>
      </trkpt>
      <trkpt lat="47.26363" lon="-1.61411">
        <ele>22.9</ele>
        <time>2020-06-07T09:53:29Z</time>
      </trkpt>
      <trkpt lat="47.26362" lon="-1.61413">
        <ele>23</ele>
        <time>2020-06-07T09:53:30Z</time>
      </trkpt>
      <trkpt lat="47.26362" lon="-1.61414">
        <ele>23</ele>
        <time>2020-06-07T09:53:31Z</time>
      </trkpt>
      <trkpt lat="47.26362" lon="-1.61415">
        <ele>23</ele>
        <time>2020-06-07T09:53:32Z</time>
      </trkpt>
      <trkpt lat="47.26362" lon="-1.61417">
        <ele>23.1</ele>
        <time>2020-06-07T09:53:33Z</time>
      </trkpt>
      <trkpt lat="47.26362" lon="-1.61418">
        <ele>23.1</ele>
        <time>2020-06-07T09:53:34Z</time>
      </trkpt>
      <trkpt lat="47.26362" lon="-1.61419">
        <ele>23.1</ele>
        <time>2020-06-07T09:53:35Z</time>
      </trkpt>
      <trkpt lat="47.26362" lon="-1.61421">
        <ele>23.2</ele>
        <time>2020-06-07T09:53:36Z</time>
      </trkpt>
      <trkpt lat="47.26362" lon="-1.61422">
        <ele>23.2</ele>
        <time>2020-06-07T09:53:37Z</time>
      </trkpt>
      <trkpt lat="47.26362" lon="-1.61424">
        <ele>23.3</ele>
        <time>2020-06-07T09:53:38Z</time>
      </trkpt>
      <trkpt lat="47.26362" lon="-1.61425">
        <ele>23.3</ele>
        <time>2020-06-07T09:53:39Z</time>
      </trkpt>
      <trkpt lat="47.26362" lon="-1.61427">
        <ele>23.4</ele>
        <time>2020-06-07T09:53:40Z</time>
      </trkpt>
      <trkpt lat="47.26362" lon="-1.61429">
        <ele>23.4</ele>
        <time>2020-06-07T09:53:41Z</time>
      </trkpt>
      <trkpt lat="47.26363" lon="-1.6143">
        <ele>23.5</ele>
        <time>2020-06-07T09:53:42Z</time>
      </trkpt>
      <trkpt lat="47.26363" lon="-1.61432">
        <ele>23.6</ele>
        <time>2020-06-07T09:53:43Z</time>
      </trkpt>
      <trkpt lat="47.26363" lon="-1.61433">
        <ele>23.6</ele>
        <time>2020-06-07T09:53:44Z</time>
      </trkpt>
      <trkpt lat="47.26363" lon="-1.61435">
        <ele>23.7</ele>
        <time>2020-06-07T09:53:45Z</time>
      </trkpt>
      <trkpt lat="47.26364" lon="-1.61437">
        <ele>23.7</ele>
        <time>2020-06-07T09:53:46Z</time>
      </trkpt>
      <trkpt lat="47.26364" lon="-1.61438">
        <ele>23.8</ele>
        <time>2020-06-07T09:53:47Z</time>
      </trkpt>
      <trkpt lat="47.26364" lon="-1.6144">
        <ele>23.8</ele>
        <time>2020-06-07T09:53:48Z</time>
      </trkpt>
      <trkpt lat="47.26364" lon="-1.61441">
        <ele>23.9</ele>
        <time>2020-06-07T09:53:49Z</time>
      </trkpt>
      <trkpt lat="47.26364" lon="-1.61443">
        <ele>23.9</ele>
        <time>2020-06-07T09:53:50Z</time>
      </trkpt>
      <trkpt lat="47.26365" lon="-1.61444">
        <ele>24</ele>
        <time>2020-06-07T09:53:51Z</time>
      </trkpt>
      <trkpt lat="47.26365" lon="-1.61446">
        <ele>24</ele>
        <time>2020-06-07T09:53:52Z</time>
      </trkpt>
      <trkpt lat="47.26365" lon="-1.61447">
        <ele>24.1</ele>
        <time>2020-06-07T09:53:53Z</time>
      </trkpt>
      <trkpt lat="47.26365" lon="-1.61448">
        <ele>24.1</ele>
        <time>2020-06-07T09:53:54Z</time>
      </trkpt>
      <trkpt lat="47.26365" lon="-1.6145">
        <ele>24.2</ele>
        <time>2020-06-07T09:53:55Z</time>
      </trkpt>
      <trkpt lat="47.26366" lon="-1.61451">
        <ele>24.2</ele>
        <time>2020-06-07T09:53:56Z</time>
      </trkpt>
      <trkpt lat="47.26366" lon="-1.61452">
        <ele>24.2</ele>
        <time>2020-06-07T09:53:57Z</time>
      </trkpt>
      <trkpt lat="47.26366" lon="-1.61454">
        <ele>24.3</ele>
        <time>2020-06-07T09:53:58Z</time>
      </trkpt>
      <trkpt lat="47.26367" lon="-1.61455">
        <ele>24.3</ele>
        <time>2020-06-07T09:53:59Z</time>
      </trkpt>
      <trkpt lat="47.26367" lon="-1.61456">
        <ele>24.3</ele>
        <time>2020-06-07T09:54:00Z</time>
      </trkpt>
      <trkpt lat="47.26367" lon="-1.61457">
        <ele>24.4</ele>
        <time>2020-06-07T09:54:01Z</time>
      </trkpt>
      <trkpt lat="47.26368" lon="-1.61458">
        <ele>24.4</ele>
        <time>2020-06-07T09:54:02Z</time>
      </trkpt>
      <trkpt lat="47.26368" lon="-1.6146">
        <ele>24.4</ele>
        <time>2020-06-07T09:54:03Z</time>
      </trkpt>
      <trkpt lat="47.26368" lon="-1.61461">
        <ele>24.5</ele>
        <time>2020-06-07T09:54:04Z</time>
      </trkpt>
      <trkpt lat="47.26369" lon="-1.61462">
        <ele>24.5</ele>
        <time>2020-06-07T09:54:05Z</time>
      </trkpt>
      <trkpt lat="47.26369" lon="-1.61463">
        <ele>24.5</ele>
        <time>2020-06-07T09:54:06Z</time>
      </trkpt>
      <trkpt lat="47.2637" lon="-1.61464">
        <ele>24.6</ele>
        <time>2020-06-07T09:54:07Z</time>
      </trkpt>
      <trkpt lat="47.2637" lon="-1.61466">
        <ele>24.6</ele>
        <time>2020-06-07T09:54:08Z</time>
      </trkpt>
      <trkpt lat="47.26371" lon="-1.61467">
        <ele>24.6</ele>
        <time>2020-06-07T09:54:09Z</time>
      </trkpt>
      <trkpt lat="47.26371" lon="-1.61468">
        <ele>24.6</ele>
        <time>2020-06-07T09:54:10Z</time>
      </trkpt>
      <trkpt lat="47.26372" lon="-1.61469">
        <ele>24.6</ele>
        <time>2020-06-07T09:54:11Z</time>
      </trkpt>
      <trkpt lat="47.26372" lon="-1.61471">
        <ele>24.7</ele>
        <time>2020-06-07T09:54:12Z</time>
      </trkpt>
      <trkpt lat="47.26373" lon="-1.61472">
        <ele>24.7</ele>
        <time>2020-06-07T09:54:13Z</time>
      </trkpt>
      <trkpt lat="47.26373" lon="-1.61473">
        <ele>24.7</ele>
        <time>2020-06-07T09:54:14Z</time>
      </trkpt>
      <trkpt lat="47.26374" lon="-1.61474">
        <ele>24.7</ele>
        <time>2020-06-07T09:54:15Z</time>
      </trkpt>
      <trkpt lat="47.26375" lon="-1.61476">
        <ele>24.7</ele>
        <time>2020-06-07T09:54:16Z</time>
      </trkpt>
      <trkpt lat="47.26375" lon="-1.61477">
        <ele>24.7</ele>
        <time>2020-06-07T09:54:17Z</time>
      </trkpt>
      <trkpt lat="47.26376" lon="-1.61478">
        <ele>24.7</ele>
        <time>2020-06-07T09:54:18Z</time>
      </trkpt>
      <trkpt lat="47.26377" lon="-1.61479">
        <ele>24.7</ele>
        <time>2020-06-07T09:54:19Z</time>
      </trkpt>
      <trkpt lat="47.26377" lon="-1.6148">
        <ele>24.7</ele>
        <time>2020-06-07T09:54:20Z</time>
      </trkpt>
      <trkpt lat="47.26378" lon="-1.61481">
        <ele>24.7</ele>
        <time>2020-06-07T09:54:21Z</time>
      </trkpt>
      <trkpt lat="47.26379" lon="-1.61483">
        <ele>24.7</ele>
        <time>2020-06-07T09:54:22Z</time>
      </trkpt>
      <trkpt lat="47.2638" lon="-1.61484">
        <ele>24.7</ele>
        <time>2020-06-07T09:54:23Z</time>
      </trkpt>
      <trkpt lat="47.2638" lon="-1.61485">
        <ele>24.7</ele>
        <time>2020-06-07T09:54:24Z</time>
      </trkpt>
      <trkpt lat="47.26381" lon="-1.61486">
        <ele>24.7</ele>
        <time>2020-06-07T09:54:25Z</time>
      </trkpt>
      <trkpt lat="47.26382" lon="-1.61486">
        <ele>24.6</ele>
        <time>2020-06-07T09:54:26Z</time>
      </trkpt>
      <trkpt lat="47.26383" lon="-1.61487">
        <ele>24.6</ele>
        <time>2020-06-07T09:54:27Z</time>
      </trkpt>
      <trkpt lat="47.26383" lon="-1.61488">
        <ele>24.6</ele>
        <time>2020-06-07T09:54:28Z</time>
      </trkpt>
      <trkpt lat="47.26384" lon="-1.61489">
        <ele>24.6</ele>
        <time>2020-06-07T09:54:29Z</time>
      </trkpt>
      <trkpt lat="47.26385" lon="-1.61489">
        <ele>24.5</ele>
        <time>2020-06-07T09:54:30Z</time>
      </trkpt>
      <trkpt lat="47.26386" lon="-1.6149">
        <ele>24.5</ele>
        <time>2020-06-07T09:54:31Z</time>
      </trkpt>
      <trkpt lat="47.26387" lon="-1.61491">
        <ele>24.5</ele>
        <time>2020-06-07T09:54:32Z</time>
      </trkpt>
      <trkpt lat="47.26387" lon="-1.61491">
        <ele>24.5</ele>
        <time>2020-06-07T09:54:33Z</time>
      </trkpt>
      <trkpt lat="47.26388" lon="-1.61492">
        <ele>24.4</ele>
        <time>2020-06-07T09:54:34Z</time>
      </trkpt>
      <trkpt lat="47.26389" lon="-1.61493">
        <ele>24.4</ele>
        <time>2020-06-07T09:54:35Z</time>
      </trkpt>
      <trkpt lat="47.2639" lon="-1.61494">
        <ele>24.3</ele>
        <time>2020-06-07T09:54:36Z</time>
      </trkpt>
      <trkpt lat="47.26391" lon="-1.61495">
        <ele>24.3</ele>
        <time>2020-06-07T09:54:37Z</time>
      </trkpt>
      <trkpt lat="47.26391" lon="-1.61496">
        <ele>24.3</ele>
        <time>2020-06-07T09:54:38Z</time>
      </trkpt>
      <trkpt lat="47.26392" lon="-1.61496">
        <ele>24.2</ele>
        <time>2020-06-07T09:54:39Z</time>
      </trkpt>
      <trkpt lat="47.26393" lon="-1.61498">
        <ele>24.2</ele>
        <time>2020-06-07T09:54:40Z</time>
      </trkpt>
      <trkpt lat="47.26394" lon="-1.61499">
        <ele>24.1</ele>
        <time>2020-06-07T09:54:41Z</time>
      </trkpt>
      <trkpt lat="47.26394" lon="-1.615">
        <ele>24.1</ele>
        <time>2020-06-07T09:54:42Z</time>
      </trkpt>
      <trkpt lat="47.26395" lon="-1.61501">
        <ele>24.1</ele>
        <time>2020-06-07T09:54:43Z</time>
      </trkpt>
      <trkpt lat="47.26396" lon="-1.61502">
        <ele>24.2</ele>
        <time>2020-06-07T09:54:44Z</time>
      </trkpt>
      <trkpt lat="47.26397" lon="-1.61503">
        <ele>24.2</ele>
        <time>2020-06-07T09:54:45Z</time>
      </trkpt>
      <trkpt lat="47.26398" lon="-1.61504">
        <ele>24.3</ele>
        <time>2020-06-07T09:54:46Z</time>
      </trkpt>
      <trkpt lat="47.26398" lon="-1.61505">
        <ele>24.3</ele>
        <time>2020-06-07T09:54:47Z</time>
      </trkpt>
      <trkpt lat="47.26399" lon="-1.61506">
        <ele>24.4</ele>
        <time>2020-06-07T09:54:48Z</time>
      </trkpt>
      <trkpt lat="47.264" lon="-1.61507">
        <ele>24.4</ele>
        <time>2020-06-07T09:54:49Z</time>
      </trkpt>
      <trkpt lat="47.26401" lon="-1.61507">
        <ele>24.5</ele>
        <time>2020-06-07T09:54:50Z</time>
      </trkpt>
      <trkpt lat="47.26402" lon="-1.61508">
        <ele>24.5</ele>
        <time>2020-06-07T09:54:51Z</time>
      </trkpt>
      <trkpt lat="47.26402" lon="-1.61509">
        <ele>24.5</ele>
        <time>2020-06-07T09:54:52Z</time>
      </trkpt>
      <trkpt lat="47.26403" lon="-1.6151">
        <ele>24.6</ele>
        <time>2020-06-07T09:54:53Z</time>
      </trkpt>
      <trkpt lat="47.26404" lon="-1.6151">
        <ele>24.6</ele>
        <time>2020-06-07T09:54:54Z</time>
      </trkpt>
      <trkpt lat="47.26404" lon="-1.61511">
        <ele>24.6</ele>
        <time>2020-06-07T09:54:55Z</time>
      </trkpt>
      <trkpt lat="47.26405" lon="-1.61512">
        <ele>24.6</ele>
        <time>2020-06-07T09:54:56Z</time>
      </trkpt>
      <trkpt lat="47.26406" lon="-1.61512">
        <ele>24.7</ele>
        <time>2020-06-07T09:54:57Z</time>
      </trkpt>
      <trkpt lat="47.26406" lon="-1.61513">
        <ele>24.7</ele>
        <time>2020-06-07T09:54:58Z</time>
      </trkpt>
      <trkpt lat="47.26407" lon="-1.61513">
        <ele>24.7</ele>
        <time>2020-06-07T09:54:59Z</time>
      </trkpt>
      <trkpt lat="47.26407" lon="-1.61514">
        <ele>24.7</ele>
        <time>2020-06-07T09:55:00Z</time>
      </trkpt>
      <trkpt lat="47.26407" lon="-1.61514">
        <ele>24.8</ele>
        <time>2020-06-07T09:55:01Z</time>
      </trkpt>
      <trkpt lat="47.26408" lon="-1.61514">
        <ele>24.8</ele>
        <time>2020-06-07T09:55:02Z</time>
      </trkpt>
      <trkpt lat="47.26408" lon="-1.61515">
        <ele>24.8</ele>
        <time>2020-06-07T09:55:03Z</time>
      </trkpt>
      <trkpt lat="47.26408" lon="-1.61515">
        <ele>24.8</ele>
        <time>2020-06-07T09:55:04Z</time>
      </trkpt>
      <trkpt lat="47.26408" lon="-1.61515">
        <ele>24.8</ele>
        <time>2020-06-07T09:55:05Z</time>
      </trkpt>
      <trkpt lat="47.26408" lon="-1.61515">
        <ele>24.9</ele>
        <time>2020-06-07T09:55:06Z</time>
      </trkpt>
      <trkpt lat="47.26408" lon="-1.61515">
        <ele>24.9</ele>
        <time>2020-06-07T09:55:07Z</time>
      </trkpt>
      <trkpt lat="47.26408" lon="-1.61515">
        <ele>24.9</ele>
        <time>2020-06-07T09:55:08Z</time>
      </trkpt>
      <trkpt lat="47.26408" lon="-1.61515">
        <ele>24.9</ele>
        <time>2020-06-07T09:55:09Z</time>
      </trkpt>
      <trkpt lat="47.26408" lon="-1.61515">
        <ele>24.9</ele>
        <time>2020-06-07T09:55:10Z</time>
      </trkpt>
      <trkpt lat="47.26408" lon="-1.61515">
        <ele>24.9</ele>
        <time>2020-06-07T09:55:11Z</time>
      </trkpt>
      <trkpt lat="47.26408" lon="-1.61515">
        <ele>24.9</ele>
        <time>2020-06-07T09:55:12Z</time>
      </trkpt>
      <trkpt lat="47.26408" lon="-1.61515">
        <ele>24.9</ele>
        <time>2020-06-07T09:55:13Z</time>
      </trkpt>
      <trkpt lat="47.26408" lon="-1.61515">
        <ele>24.9</ele>
        <time>2020-06-07T09:55:14Z</time>
      </trkpt>
      <trkpt lat="47.26408" lon="-1.61515">
        <ele>24.9</ele>
        <time>2020-06-07T09:55:15Z</time>
      </trkpt>
      <trkpt lat="47.26408" lon="-1.61515">
        <ele>24.9</ele>
        <time>2020-06-07T09:55:16Z</time>
      </trkpt>
      <trkpt lat="47.26408" lon="-1.61515">
        <ele>24.9</ele>
        <time>2020-06-07T09:55:17Z</time>
      </trkpt>
      <trkpt lat="47.26408" lon="-1.61515">
        <ele>24.9</ele>
        <time>2020-06-07T09:55:18Z</time>
      </trkpt>
      <trkpt lat="47.26408" lon="-1.61515">
        <ele>24.9</ele>
        <time>2020-06-07T09:55:19Z</time>
      </trkpt>
      <trkpt lat="47.26408" lon="-1.61515">
        <ele>24.9</ele>
        <time>2020-06-07T09:55:20Z</time>
      </trkpt>
      <trkpt lat="47.26408" lon="-1.61515">
        <ele>24.9</ele>
        <time>2020-06-07T09:55:21Z</time>
      </trkpt>
      <trkpt lat="47.26408" lon="-1.61515">
        <ele>24.9</ele>
        <time>2020-06-07T09:55:22Z</time>
      </trkpt>
      <trkpt lat="47.26408" lon="-1.61515">
        <ele>24.9</ele>
        <time>2020-06-07T09:55:23Z</time>
      </trkpt>
      <trkpt lat="47.26408" lon="-1.61515">
        <ele>24.9</ele>
        <time>2020-06-07T09:55:24Z</time>
      </trkpt>
      <trkpt lat="47.26408" lon="-1.61515">
        <ele>24.9</ele>
        <time>2020-06-07T09:55:25Z</time>
      </trkpt>
      <trkpt lat="47.26408" lon="-1.61515">
        <ele>24.9</ele>
        <time>2020-06-07T09:55:26Z</time>
      </trkpt>
      <trkpt lat="47.26408" lon="-1.61515">
        <ele>24.9</ele>
        <time>2020-06-07T09:55:27Z</time>
      </trkpt>
      <trkpt lat="47.26408" lon="-1.61515">
        <ele>24.9</ele>
        <time>2020-06-07T09:55:28Z</time>
      </trkpt>
      <trkpt lat="47.26408" lon="-1.61516">
        <ele>24.9</ele>
        <time>2020-06-07T09:55:29Z</time>
      </trkpt>
      <trkpt lat="47.26408" lon="-1.61516">
        <ele>24.9</ele>
        <time>2020-06-07T09:55:30Z</time>
      </trkpt>
      <trkpt lat="47.26408" lon="-1.61516">
        <ele>24.9</ele>
        <time>2020-06-07T09:55:31Z</time>
      </trkpt>
      <trkpt lat="47.26408" lon="-1.61516">
        <ele>24.9</ele>
        <time>2020-06-07T09:55:32Z</time>
      </trkpt>
      <trkpt lat="47.26408" lon="-1.61516">
        <ele>24.9</ele>
        <time>2020-06-07T09:55:33Z</time>
      </trkpt>
      <trkpt lat="47.26408" lon="-1.61516">
        <ele>24.9</ele>
        <time>2020-06-07T09:55:34Z</time>
      </trkpt>
      <trkpt lat="47.26408" lon="-1.61516">
        <ele>24.9</ele>
        <time>2020-06-07T09:55:35Z</time>
      </trkpt>
      <trkpt lat="47.26408" lon="-1.61516">
        <ele>24.9</ele>
        <time>2020-06-07T09:55:36Z</time>
      </trkpt>
      <trkpt lat="47.26407" lon="-1.61516">
        <ele>24.9</ele>
        <time>2020-06-07T09:55:37Z</time>
      </trkpt>
      <trkpt lat="47.26407" lon="-1.61516">
        <ele>24.9</ele>
        <time>2020-06-07T09:55:38Z</time>
      </trkpt>
      <trkpt lat="47.26407" lon="-1.61516">
        <ele>24.9</ele>
        <time>2020-06-07T09:55:39Z</time>
      </trkpt>
      <trkpt lat="47.26407" lon="-1.61516">
        <ele>24.9</ele>
        <time>2020-06-07T09:55:40Z</time>
      </trkpt>
      <trkpt lat="47.26407" lon="-1.61516">
        <ele>24.9</ele>
        <time>2020-06-07T09:55:41Z</time>
      </trkpt>
      <trkpt lat="47.26407" lon="-1.61516">
        <ele>24.9</ele>
        <time>2020-06-07T09:55:42Z</time>
      </trkpt>
      <trkpt lat="47.26408" lon="-1.61516">
        <ele>24.9</ele>
        <time>2020-06-07T09:55:43Z</time>
      </trkpt>
      <trkpt lat="47.26408" lon="-1.61516">
        <ele>24.9</ele>
        <time>2020-06-07T09:55:44Z</time>
      </trkpt>
      <trkpt lat="47.26409" lon="-1.61516">
        <ele>24.9</ele>
        <time>2020-06-07T09:55:45Z</time>
      </trkpt>
      <trkpt lat="47.2641" lon="-1.61517">
        <ele>24.9</ele>
        <time>2020-06-07T09:55:46Z</time>
      </trkpt>
      <trkpt lat="47.26411" lon="-1.61517">
        <ele>24.9</ele>
        <time>2020-06-07T09:55:47Z</time>
      </trkpt>
      <trkpt lat="47.26411" lon="-1.61518">
        <ele>25</ele>
        <time>2020-06-07T09:55:48Z</time>
      </trkpt>
      <trkpt lat="47.26411" lon="-1.61518">
        <ele>25</ele>
        <time>2020-06-07T09:55:49Z</time>
      </trkpt>
      <trkpt lat="47.26411" lon="-1.61518">
        <ele>25</ele>
        <time>2020-06-07T09:55:50Z</time>
      </trkpt>
      <trkpt lat="47.26411" lon="-1.61518">
        <ele>24.9</ele>
        <time>2020-06-07T09:55:51Z</time>
      </trkpt>
      <trkpt lat="47.26412" lon="-1.61517">
        <ele>24.9</ele>
        <time>2020-06-07T09:55:52Z</time>
      </trkpt>
      <trkpt lat="47.26412" lon="-1.61516">
        <ele>24.8</ele>
        <time>2020-06-07T09:55:53Z</time>
      </trkpt>
      <trkpt lat="47.26412" lon="-1.61515">
        <ele>24.7</ele>
        <time>2020-06-07T09:55:54Z</time>
      </trkpt>
      <trkpt lat="47.26412" lon="-1.61514">
        <ele>24.5</ele>
        <time>2020-06-07T09:55:55Z</time>
      </trkpt>
      <trkpt lat="47.26411" lon="-1.61513">
        <ele>24.5</ele>
        <time>2020-06-07T09:55:56Z</time>
      </trkpt>
      <trkpt lat="47.26411" lon="-1.61512">
        <ele>24.4</ele>
        <time>2020-06-07T09:55:57Z</time>
      </trkpt>
      <trkpt lat="47.2641" lon="-1.61511">
        <ele>24.3</ele>
        <time>2020-06-07T09:55:58Z</time>
      </trkpt>
      <trkpt lat="47.26409" lon="-1.6151">
        <ele>24.3</ele>
        <time>2020-06-07T09:55:59Z</time>
      </trkpt>
      <trkpt lat="47.26409" lon="-1.6151">
        <ele>24.3</ele>
        <time>2020-06-07T09:56:00Z</time>
      </trkpt>
      <trkpt lat="47.26409" lon="-1.61509">
        <ele>24.3</ele>
        <time>2020-06-07T09:56:01Z</time>
      </trkpt>
      <trkpt lat="47.26409" lon="-1.61509">
        <ele>24.3</ele>
        <time>2020-06-07T09:56:02Z</time>
      </trkpt>
      <trkpt lat="47.26409" lon="-1.61509">
        <ele>24.3</ele>
        <time>2020-06-07T09:56:03Z</time>
      </trkpt>
      <trkpt lat="47.26409" lon="-1.61509">
        <ele>24.3</ele>
        <time>2020-06-07T09:56:04Z</time>
      </trkpt>
      <trkpt lat="47.26409" lon="-1.61509">
        <ele>24.3</ele>
        <time>2020-06-07T09:56:05Z</time>
      </trkpt>
      <trkpt lat="47.26408" lon="-1.61509">
        <ele>24.3</ele>
        <time>2020-06-07T09:56:06Z</time>
      </trkpt>
      <trkpt lat="47.26408" lon="-1.61509">
        <ele>24.3</ele>
        <time>2020-06-07T09:56:07Z</time>
      </trkpt>
      <trkpt lat="47.26408" lon="-1.61509">
        <ele>24.3</ele>
        <time>2020-06-07T09:56:08Z</time>
      </trkpt>
      <trkpt lat="47.26408" lon="-1.61509">
        <ele>24.3</ele>
        <time>2020-06-07T09:56:09Z</time>
      </trkpt>
      <trkpt lat="47.26408" lon="-1.6151">
        <ele>24.3</ele>
        <time>2020-06-07T09:56:10Z</time>
      </trkpt>
      <trkpt lat="47.26408" lon="-1.6151">
        <ele>24.3</ele>
        <time>2020-06-07T09:56:11Z</time>
      </trkpt>
      <trkpt lat="47.26409" lon="-1.6151">
        <ele>24.4</ele>
        <time>2020-06-07T09:56:12Z</time>
      </trkpt>
      <trkpt lat="47.26409" lon="-1.61511">
        <ele>24.4</ele>
        <time>2020-06-07T09:56:13Z</time>
      </trkpt>
      <trkpt lat="47.26409" lon="-1.61511">
        <ele>24.4</ele>
        <time>2020-06-07T09:56:14Z</time>
      </trkpt>
      <trkpt lat="47.26409" lon="-1.61511">
        <ele>24.4</ele>
        <time>2020-06-07T09:56:15Z</time>
      </trkpt>
      <trkpt lat="47.26409" lon="-1.61511">
        <ele>24.4</ele>
        <time>2020-06-07T09:56:16Z</time>
      </trkpt>
      <trkpt lat="47.26409" lon="-1.61511">
        <ele>24.4</ele>
        <time>2020-06-07T09:56:17Z</time>
      </trkpt>
      <trkpt lat="47.26409" lon="-1.61511">
        <ele>24.4</ele>
        <time>2020-06-07T09:56:18Z</time>
      </trkpt>
      <trkpt lat="47.26409" lon="-1.61511">
        <ele>24.4</ele>
        <time>2020-06-07T09:56:19Z</time>
      </trkpt>
      <trkpt lat="47.26409" lon="-1.61511">
        <ele>24.4</ele>
        <time>2020-06-07T09:56:20Z</time>
      </trkpt>
      <trkpt lat="47.26409" lon="-1.61511">
        <ele>24.4</ele>
        <time>2020-06-07T09:56:21Z</time>
      </trkpt>
      <trkpt lat="47.26409" lon="-1.61511">
        <ele>24.4</ele>
        <time>2020-06-07T09:56:22Z</time>
      </trkpt>
      <trkpt lat="47.26409" lon="-1.61511">
        <ele>24.4</ele>
        <time>2020-06-07T09:56:23Z</time>
      </trkpt>
      <trkpt lat="47.26409" lon="-1.61511">
        <ele>24.4</ele>
        <time>2020-06-07T09:56:24Z</time>
      </trkpt>
      <trkpt lat="47.26409" lon="-1.61511">
        <ele>24.4</ele>
        <time>2020-06-07T09:56:25Z</time>
      </trkpt>
      <trkpt lat="47.26409" lon="-1.61511">
        <ele>24.4</ele>
        <time>2020-06-07T09:56:26Z</time>
      </trkpt>
      <trkpt lat="47.26409" lon="-1.61511">
        <ele>24.4</ele>
        <time>2020-06-07T09:56:27Z</time>
      </trkpt>
      <trkpt lat="47.26409" lon="-1.61511">
        <ele>24.4</ele>
        <time>2020-06-07T09:56:28Z</time>
      </trkpt>
      <trkpt lat="47.26409" lon="-1.61511">
        <ele>24.4</ele>
        <time>2020-06-07T09:56:29Z</time>
      </trkpt>
      <trkpt lat="47.26409" lon="-1.61511">
        <ele>24.4</ele>
        <time>2020-06-07T09:56:30Z</time>
      </trkpt>
      <trkpt lat="47.26409" lon="-1.61511">
        <ele>24.4</ele>
        <time>2020-06-07T09:56:31Z</time>
      </trkpt>
      <trkpt lat="47.26409" lon="-1.6151">
        <ele>24.4</ele>
        <time>2020-06-07T09:56:32Z</time>
      </trkpt>
      <trkpt lat="47.26408" lon="-1.6151">
        <ele>24.4</ele>
        <time>2020-06-07T09:56:33Z</time>
      </trkpt>
      <trkpt lat="47.26408" lon="-1.6151">
        <ele>24.4</ele>
        <time>2020-06-07T09:56:34Z</time>
      </trkpt>
      <trkpt lat="47.26408" lon="-1.6151">
        <ele>24.3</ele>
        <time>2020-06-07T09:56:35Z</time>
      </trkpt>
      <trkpt lat="47.26408" lon="-1.61509">
        <ele>24.3</ele>
        <time>2020-06-07T09:56:36Z</time>
      </trkpt>
      <trkpt lat="47.26407" lon="-1.61509">
        <ele>24.3</ele>
        <time>2020-06-07T09:56:37Z</time>
      </trkpt>
      <trkpt lat="47.26406" lon="-1.61508">
        <ele>24.3</ele>
        <time>2020-06-07T09:56:38Z</time>
      </trkpt>
      <trkpt lat="47.26406" lon="-1.61508">
        <ele>24.2</ele>
        <time>2020-06-07T09:56:39Z</time>
      </trkpt>
      <trkpt lat="47.26405" lon="-1.61507">
        <ele>24.2</ele>
        <time>2020-06-07T09:56:40Z</time>
      </trkpt>
      <trkpt lat="47.26404" lon="-1.61506">
        <ele>24.1</ele>
        <time>2020-06-07T09:56:41Z</time>
      </trkpt>
      <trkpt lat="47.26403" lon="-1.61505">
        <ele>24.1</ele>
        <time>2020-06-07T09:56:42Z</time>
      </trkpt>
      <trkpt lat="47.26402" lon="-1.61504">
        <ele>24</ele>
        <time>2020-06-07T09:56:43Z</time>
      </trkpt>
      <trkpt lat="47.26401" lon="-1.61503">
        <ele>24</ele>
        <time>2020-06-07T09:56:44Z</time>
      </trkpt>
      <trkpt lat="47.264" lon="-1.61502">
        <ele>23.9</ele>
        <time>2020-06-07T09:56:45Z</time>
      </trkpt>
      <trkpt lat="47.26399" lon="-1.61501">
        <ele>23.9</ele>
        <time>2020-06-07T09:56:46Z</time>
      </trkpt>
      <trkpt lat="47.26398" lon="-1.615">
        <ele>23.9</ele>
        <time>2020-06-07T09:56:47Z</time>
      </trkpt>
      <trkpt lat="47.26397" lon="-1.61499">
        <ele>24</ele>
        <time>2020-06-07T09:56:48Z</time>
      </trkpt>
      <trkpt lat="47.26396" lon="-1.61498">
        <ele>24</ele>
        <time>2020-06-07T09:56:49Z</time>
      </trkpt>
      <trkpt lat="47.26396" lon="-1.61498">
        <ele>24.1</ele>
        <time>2020-06-07T09:56:50Z</time>
      </trkpt>
      <trkpt lat="47.26395" lon="-1.61497">
        <ele>24.1</ele>
        <time>2020-06-07T09:56:51Z</time>
      </trkpt>
      <trkpt lat="47.26394" lon="-1.61497">
        <ele>24.1</ele>
        <time>2020-06-07T09:56:52Z</time>
      </trkpt>
      <trkpt lat="47.26393" lon="-1.61497">
        <ele>24.2</ele>
        <time>2020-06-07T09:56:53Z</time>
      </trkpt>
      <trkpt lat="47.26393" lon="-1.61496">
        <ele>24.2</ele>
        <time>2020-06-07T09:56:54Z</time>
      </trkpt>
      <trkpt lat="47.26392" lon="-1.61496">
        <ele>24.3</ele>
        <time>2020-06-07T09:56:55Z</time>
      </trkpt>
      <trkpt lat="47.26391" lon="-1.61495">
        <ele>24.3</ele>
        <time>2020-06-07T09:56:56Z</time>
      </trkpt>
      <trkpt lat="47.2639" lon="-1.61495">
        <ele>24.3</ele>
        <time>2020-06-07T09:56:57Z</time>
      </trkpt>
      <trkpt lat="47.26389" lon="-1.61494">
        <ele>24.4</ele>
        <time>2020-06-07T09:56:58Z</time>
      </trkpt>
      <trkpt lat="47.26388" lon="-1.61493">
        <ele>24.4</ele>
        <time>2020-06-07T09:56:59Z</time>
      </trkpt>
      <trkpt lat="47.26388" lon="-1.61493">
        <ele>24.4</ele>
        <time>2020-06-07T09:57:00Z</time>
      </trkpt>
      <trkpt lat="47.26387" lon="-1.61492">
        <ele>24.5</ele>
        <time>2020-06-07T09:57:01Z</time>
      </trkpt>
      <trkpt lat="47.26386" lon="-1.61491">
        <ele>24.5</ele>
        <time>2020-06-07T09:57:02Z</time>
      </trkpt>
      <trkpt lat="47.26385" lon="-1.61491">
        <ele>24.5</ele>
        <time>2020-06-07T09:57:03Z</time>
      </trkpt>
      <trkpt lat="47.26385" lon="-1.6149">
        <ele>24.6</ele>
        <time>2020-06-07T09:57:04Z</time>
      </trkpt>
      <trkpt lat="47.26384" lon="-1.61489">
        <ele>24.6</ele>
        <time>2020-06-07T09:57:05Z</time>
      </trkpt>
      <trkpt lat="47.26384" lon="-1.61489">
        <ele>24.6</ele>
        <time>2020-06-07T09:57:06Z</time>
      </trkpt>
      <trkpt lat="47.26384" lon="-1.61488">
        <ele>24.6</ele>
        <time>2020-06-07T09:57:07Z</time>
      </trkpt>
      <trkpt lat="47.26383" lon="-1.61488">
        <ele>24.6</ele>
        <time>2020-06-07T09:57:08Z</time>
      </trkpt>
      <trkpt lat="47.26383" lon="-1.61488">
        <ele>24.6</ele>
        <time>2020-06-07T09:57:09Z</time>
      </trkpt>
      <trkpt lat="47.26383" lon="-1.61487">
        <ele>24.6</ele>
        <time>2020-06-07T09:57:10Z</time>
      </trkpt>
      <trkpt lat="47.26382" lon="-1.61487">
        <ele>24.6</ele>
        <time>2020-06-07T09:57:11Z</time>
      </trkpt>
      <trkpt lat="47.26382" lon="-1.61487">
        <ele>24.7</ele>
        <time>2020-06-07T09:57:12Z</time>
      </trkpt>
      <trkpt lat="47.26381" lon="-1.61487">
        <ele>24.7</ele>
        <time>2020-06-07T09:57:13Z</time>
      </trkpt>
      <trkpt lat="47.26381" lon="-1.61487">
        <ele>24.7</ele>
        <time>2020-06-07T09:57:14Z</time>
      </trkpt>
      <trkpt lat="47.2638" lon="-1.61488">
        <ele>24.7</ele>
        <time>2020-06-07T09:57:15Z</time>
      </trkpt>
      <trkpt lat="47.2638" lon="-1.61489">
        <ele>24.7</ele>
        <time>2020-06-07T09:57:16Z</time>
      </trkpt>
      <trkpt lat="47.26379" lon="-1.61489">
        <ele>24.7</ele>
        <time>2020-06-07T09:57:17Z</time>
      </trkpt>
      <trkpt lat="47.26379" lon="-1.6149">
        <ele>24.8</ele>
        <time>2020-06-07T09:57:18Z</time>
      </trkpt>
      <trkpt lat="47.26378" lon="-1.61491">
        <ele>24.8</ele>
        <time>2020-06-07T09:57:19Z</time>
      </trkpt>
      <trkpt lat="47.26378" lon="-1.61492">
        <ele>24.8</ele>
        <time>2020-06-07T09:57:20Z</time>
      </trkpt>
      <trkpt lat="47.26377" lon="-1.61493">
        <ele>24.8</ele>
        <time>2020-06-07T09:57:21Z</time>
      </trkpt>
      <trkpt lat="47.26377" lon="-1.61493">
        <ele>24.8</ele>
        <time>2020-06-07T09:57:22Z</time>
      </trkpt>
      <trkpt lat="47.26377" lon="-1.61494">
        <ele>24.9</ele>
        <time>2020-06-07T09:57:23Z</time>
      </trkpt>
      <trkpt lat="47.26376" lon="-1.61494">
        <ele>24.9</ele>
        <time>2020-06-07T09:57:24Z</time>
      </trkpt>
      <trkpt lat="47.26376" lon="-1.61495">
        <ele>24.9</ele>
        <time>2020-06-07T09:57:25Z</time>
      </trkpt>
      <trkpt lat="47.26376" lon="-1.61495">
        <ele>24.9</ele>
        <time>2020-06-07T09:57:26Z</time>
      </trkpt>
      <trkpt lat="47.26376" lon="-1.61495">
        <ele>24.9</ele>
        <time>2020-06-07T09:57:27Z</time>
      </trkpt>
      <trkpt lat="47.26376" lon="-1.61495">
        <ele>24.9</ele>
        <time>2020-06-07T09:57:28Z</time>
      </trkpt>
      <trkpt lat="47.26376" lon="-1.61495">
        <ele>24.9</ele>
        <time>2020-06-07T09:57:29Z</time>
      </trkpt>
      <trkpt lat="47.26376" lon="-1.61495">
        <ele>24.9</ele>
        <time>2020-06-07T09:57:30Z</time>
      </trkpt>
      <trkpt lat="47.26376" lon="-1.61495">
        <ele>24.9</ele>
        <time>2020-06-07T09:57:31Z</time>
      </trkpt>
      <trkpt lat="47.26376" lon="-1.61495">
        <ele>24.9</ele>
        <time>2020-06-07T09:57:32Z</time>
      </trkpt>
      <trkpt lat="47.26376" lon="-1.61495">
        <ele>24.9</ele>
        <time>2020-06-07T09:57:33Z</time>
      </trkpt>
      <trkpt lat="47.26376" lon="-1.61495">
        <ele>24.9</ele>
        <time>2020-06-07T09:57:34Z</time>
      </trkpt>
      <trkpt lat="47.26376" lon="-1.61495">
        <ele>24.9</ele>
        <time>2020-06-07T09:57:35Z</time>
      </trkpt>
      <trkpt lat="47.26376" lon="-1.61495">
        <ele>24.9</ele>
        <time>2020-06-07T09:57:36Z</time>
      </trkpt>
      <trkpt lat="47.26376" lon="-1.61495">
        <ele>24.9</ele>
        <time>2020-06-07T09:57:37Z</time>
      </trkpt>
      <trkpt lat="47.26376" lon="-1.61495">
        <ele>24.9</ele>
        <time>2020-06-07T09:57:38Z</time>
      </trkpt>
      <trkpt lat="47.26376" lon="-1.61495">
        <ele>24.9</ele>
        <time>2020-06-07T09:57:39Z</time>
      </trkpt>
      <trkpt lat="47.26376" lon="-1.61495">
        <ele>24.9</ele>
        <time>2020-06-07T09:57:40Z</time>
      </trkpt>
      <trkpt lat="47.26376" lon="-1.61495">
        <ele>24.9</ele>
        <time>2020-06-07T09:57:41Z</time>
      </trkpt>
      <trkpt lat="47.26376" lon="-1.61495">
        <ele>24.9</ele>
        <time>2020-06-07T09:57:42Z</time>
      </trkpt>
      <trkpt lat="47.26376" lon="-1.61495">
        <ele>24.9</ele>
        <time>2020-06-07T09:57:43Z</time>
      </trkpt>
      <trkpt lat="47.26376" lon="-1.61495">
        <ele>24.9</ele>
        <time>2020-06-07T09:57:44Z</time>
      </trkpt>
      <trkpt lat="47.26376" lon="-1.61495">
        <ele>24.9</ele>
        <time>2020-06-07T09:57:45Z</time>
      </trkpt>
      <trkpt lat="47.26376" lon="-1.61495">
        <ele>24.9</ele>
        <time>2020-06-07T09:57:46Z</time>
      </trkpt>
      <trkpt lat="47.26376" lon="-1.61495">
        <ele>24.9</ele>
        <time>2020-06-07T09:57:47Z</time>
      </trkpt>
      <trkpt lat="47.26376" lon="-1.61495">
        <ele>24.9</ele>
        <time>2020-06-07T09:57:48Z</time>
      </trkpt>
      <trkpt lat="47.26376" lon="-1.61495">
        <ele>24.9</ele>
        <time>2020-06-07T09:57:49Z</time>
      </trkpt>
      <trkpt lat="47.26376" lon="-1.61495">
        <ele>24.9</ele>
        <time>2020-06-07T09:57:50Z</time>
      </trkpt>
      <trkpt lat="47.26376" lon="-1.61495">
        <ele>24.9</ele>
        <time>2020-06-07T09:57:51Z</time>
      </trkpt>
      <trkpt lat="47.26376" lon="-1.61495">
        <ele>24.9</ele>
        <time>2020-06-07T09:57:52Z</time>
      </trkpt>
      <trkpt lat="47.26376" lon="-1.61495">
        <ele>24.9</ele>
        <time>2020-06-07T09:57:53Z</time>
      </trkpt>
      <trkpt lat="47.26376" lon="-1.61495">
        <ele>24.9</ele>
        <time>2020-06-07T09:57:54Z</time>
      </trkpt>
      <trkpt lat="47.26376" lon="-1.61495">
        <ele>24.9</ele>
        <time>2020-06-07T09:57:55Z</time>
      </trkpt>
      <trkpt lat="47.26376" lon="-1.61495">
        <ele>24.9</ele>
        <time>2020-06-07T09:57:56Z</time>
      </trkpt>
      <trkpt lat="47.26376" lon="-1.61495">
        <ele>24.9</ele>
        <time>2020-06-07T09:57:57Z</time>
      </trkpt>
      <trkpt lat="47.26376" lon="-1.61495">
        <ele>24.9</ele>
        <time>2020-06-07T09:57:58Z</time>
      </trkpt>
      <trkpt lat="47.26376" lon="-1.61495">
        <ele>24.9</ele>
        <time>2020-06-07T09:57:59Z</time>
      </trkpt>
      <trkpt lat="47.26376" lon="-1.61495">
        <ele>24.9</ele>
        <time>2020-06-07T09:58:00Z</time>
      </trkpt>
      <trkpt lat="47.26376" lon="-1.61495">
        <ele>24.9</ele>
        <time>2020-06-07T09:58:01Z</time>
      </trkpt>
      <trkpt lat="47.26376" lon="-1.61495">
        <ele>24.9</ele>
        <time>2020-06-07T09:58:02Z</time>
      </trkpt>
      <trkpt lat="47.26376" lon="-1.61495">
        <ele>24.9</ele>
        <time>2020-06-07T09:58:03Z</time>
      </trkpt>
      <trkpt lat="47.26376" lon="-1.61495">
        <ele>24.9</ele>
        <time>2020-06-07T09:58:04Z</time>
      </trkpt>
      <trkpt lat="47.26376" lon="-1.61495">
        <ele>24.9</ele>
        <time>2020-06-07T09:58:05Z</time>
      </trkpt>
      <trkpt lat="47.26376" lon="-1.61495">
        <ele>24.9</ele>
        <time>2020-06-07T09:58:06Z</time>
      </trkpt>
      <trkpt lat="47.26376" lon="-1.61495">
        <ele>24.9</ele>
        <time>2020-06-07T09:58:07Z</time>
      </trkpt>
      <trkpt lat="47.26376" lon="-1.61495">
        <ele>24.9</ele>
        <time>2020-06-07T09:58:08Z</time>
      </trkpt>
      <trkpt lat="47.26376" lon="-1.61495">
        <ele>24.9</ele>
        <time>2020-06-07T09:58:09Z</time>
      </trkpt>
      <trkpt lat="47.26376" lon="-1.61495">
        <ele>24.9</ele>
        <time>2020-06-07T09:58:10Z</time>
      </trkpt>
      <trkpt lat="47.26376" lon="-1.61495">
        <ele>24.9</ele>
        <time>2020-06-07T09:58:11Z</time>
      </trkpt>
      <trkpt lat="47.26376" lon="-1.61495">
        <ele>24.9</ele>
        <time>2020-06-07T09:58:12Z</time>
      </trkpt>
      <trkpt lat="47.26376" lon="-1.61495">
        <ele>24.9</ele>
        <time>2020-06-07T09:58:13Z</time>
      </trkpt>
      <trkpt lat="47.26376" lon="-1.61495">
        <ele>24.9</ele>
        <time>2020-06-07T09:58:14Z</time>
      </trkpt>
      <trkpt lat="47.26376" lon="-1.61495">
        <ele>24.9</ele>
        <time>2020-06-07T09:58:15Z</time>
      </trkpt>
      <trkpt lat="47.26376" lon="-1.61495">
        <ele>24.9</ele>
        <time>2020-06-07T09:58:16Z</time>
      </trkpt>
      <trkpt lat="47.26376" lon="-1.61495">
        <ele>24.9</ele>
        <time>2020-06-07T09:58:17Z</time>
      </trkpt>
      <trkpt lat="47.26376" lon="-1.61495">
        <ele>24.9</ele>
        <time>2020-06-07T09:58:18Z</time>
      </trkpt>
      <trkpt lat="47.26376" lon="-1.61495">
        <ele>24.9</ele>
        <time>2020-06-07T09:58:19Z</time>
      </trkpt>
      <trkpt lat="47.26376" lon="-1.61495">
        <ele>24.9</ele>
        <time>2020-06-07T09:58:20Z</time>
      </trkpt>
      <trkpt lat="47.26376" lon="-1.61495">
        <ele>24.9</ele>
        <time>2020-06-07T09:58:21Z</time>
      </trkpt>
      <trkpt lat="47.26376" lon="-1.61495">
        <ele>24.9</ele>
        <time>2020-06-07T09:58:22Z</time>
      </trkpt>
      <trkpt lat="47.26376" lon="-1.61495">
        <ele>24.9</ele>
        <time>2020-06-07T09:58:23Z</time>
      </trkpt>
      <trkpt lat="47.26376" lon="-1.61495">
        <ele>24.9</ele>
        <time>2020-06-07T09:58:24Z</time>
      </trkpt>
      <trkpt lat="47.26376" lon="-1.61495">
        <ele>24.9</ele>
        <time>2020-06-07T09:58:25Z</time>
      </trkpt>
      <trkpt lat="47.26376" lon="-1.61495">
        <ele>24.9</ele>
        <time>2020-06-07T09:58:26Z</time>
      </trkpt>
      <trkpt lat="47.26376" lon="-1.61495">
        <ele>24.9</ele>
        <time>2020-06-07T09:58:27Z</time>
      </trkpt>
      <trkpt lat="47.26376" lon="-1.61495">
        <ele>24.9</ele>
        <time>2020-06-07T09:58:28Z</time>
      </trkpt>
      <trkpt lat="47.26376" lon="-1.61495">
        <ele>24.9</ele>
        <time>2020-06-07T09:58:29Z</time>
      </trkpt>
      <trkpt lat="47.26376" lon="-1.61495">
        <ele>24.9</ele>
        <time>2020-06-07T09:58:30Z</time>
      </trkpt>
      <trkpt lat="47.26376" lon="-1.61495">
        <ele>24.9</ele>
        <time>2020-06-07T09:58:31Z</time>
      </trkpt>
      <trkpt lat="47.26376" lon="-1.61495">
        <ele>24.9</ele>
        <time>2020-06-07T09:58:32Z</time>
      </trkpt>
      <trkpt lat="47.26376" lon="-1.61495">
        <ele>24.9</ele>
        <time>2020-06-07T09:58:33Z</time>
      </trkpt>
      <trkpt lat="47.26376" lon="-1.61496">
        <ele>24.9</ele>
        <time>2020-06-07T09:58:34Z</time>
      </trkpt>
      <trkpt lat="47.26376" lon="-1.61499">
        <ele>25</ele>
        <time>2020-06-07T09:58:35Z</time>
      </trkpt>
      <trkpt lat="47.26376" lon="-1.61501">
        <ele>25</ele>
        <time>2020-06-07T09:58:36Z</time>
      </trkpt>
      <trkpt lat="47.26376" lon="-1.61502">
        <ele>25.1</ele>
        <time>2020-06-07T09:58:37Z</time>
      </trkpt>
      <trkpt lat="47.26376" lon="-1.61502">
        <ele>25.2</ele>
        <time>2020-06-07T09:58:38Z</time>
      </trkpt>
      <trkpt lat="47.26376" lon="-1.61503">
        <ele>25.2</ele>
        <time>2020-06-07T09:58:39Z</time>
      </trkpt>
      <trkpt lat="47.26377" lon="-1.61504">
        <ele>25.3</ele>
        <time>2020-06-07T09:58:40Z</time>
      </trkpt>
      <trkpt lat="47.26377" lon="-1.61505">
        <ele>25.4</ele>
        <time>2020-06-07T09:58:41Z</time>
      </trkpt>
      <trkpt lat="47.26377" lon="-1.61506">
        <ele>25.4</ele>
        <time>2020-06-07T09:58:42Z</time>
      </trkpt>
      <trkpt lat="47.26377" lon="-1.61506">
        <ele>25.5</ele>
        <time>2020-06-07T09:58:43Z</time>
      </trkpt>
      <trkpt lat="47.26377" lon="-1.61507">
        <ele>25.5</ele>
        <time>2020-06-07T09:58:44Z</time>
      </trkpt>
      <trkpt lat="47.26377" lon="-1.61507">
        <ele>25.5</ele>
        <time>2020-06-07T09:58:45Z</time>
      </trkpt>
      <trkpt lat="47.26377" lon="-1.61507">
        <ele>25.5</ele>
        <time>2020-06-07T09:58:46Z</time>
      </trkpt>
      <trkpt lat="47.26377" lon="-1.61507">
        <ele>25.5</ele>
        <time>2020-06-07T09:58:47Z</time>
      </trkpt>
      <trkpt lat="47.26377" lon="-1.61507">
        <ele>25.5</ele>
        <time>2020-06-07T09:58:48Z</time>
      </trkpt>
      <trkpt lat="47.26377" lon="-1.61507">
        <ele>25.5</ele>
        <time>2020-06-07T09:58:49Z</time>
      </trkpt>
      <trkpt lat="47.26377" lon="-1.61507">
        <ele>25.5</ele>
        <time>2020-06-07T09:58:50Z</time>
      </trkpt>
      <trkpt lat="47.26377" lon="-1.61507">
        <ele>25.5</ele>
        <time>2020-06-07T09:58:51Z</time>
      </trkpt>
      <trkpt lat="47.26377" lon="-1.61507">
        <ele>25.5</ele>
        <time>2020-06-07T09:58:52Z</time>
      </trkpt>
      <trkpt lat="47.26377" lon="-1.61507">
        <ele>25.5</ele>
        <time>2020-06-07T09:58:53Z</time>
      </trkpt>
      <trkpt lat="47.26377" lon="-1.61507">
        <ele>25.5</ele>
        <time>2020-06-07T09:58:54Z</time>
      </trkpt>
      <trkpt lat="47.26377" lon="-1.61507">
        <ele>25.5</ele>
        <time>2020-06-07T09:58:55Z</time>
      </trkpt>
      <trkpt lat="47.26377" lon="-1.61507">
        <ele>25.5</ele>
        <time>2020-06-07T09:58:56Z</time>
      </trkpt>
      <trkpt lat="47.26377" lon="-1.61507">
        <ele>25.5</ele>
        <time>2020-06-07T09:58:57Z</time>
      </trkpt>
      <trkpt lat="47.26377" lon="-1.61507">
        <ele>25.5</ele>
        <time>2020-06-07T09:58:58Z</time>
      </trkpt>
      <trkpt lat="47.26377" lon="-1.61507">
        <ele>25.5</ele>
        <time>2020-06-07T09:58:59Z</time>
      </trkpt>
      <trkpt lat="47.26377" lon="-1.61507">
        <ele>25.5</ele>
        <time>2020-06-07T09:59:00Z</time>
      </trkpt>
      <trkpt lat="47.26377" lon="-1.61507">
        <ele>25.5</ele>
        <time>2020-06-07T09:59:01Z</time>
      </trkpt>
      <trkpt lat="47.26377" lon="-1.61507">
        <ele>25.5</ele>
        <time>2020-06-07T09:59:02Z</time>
      </trkpt>
      <trkpt lat="47.26377" lon="-1.61507">
        <ele>25.5</ele>
        <time>2020-06-07T09:59:03Z</time>
      </trkpt>
      <trkpt lat="47.26377" lon="-1.61507">
        <ele>25.5</ele>
        <time>2020-06-07T09:59:04Z</time>
      </trkpt>
      <trkpt lat="47.26377" lon="-1.61507">
        <ele>25.5</ele>
        <time>2020-06-07T09:59:05Z</time>
      </trkpt>
      <trkpt lat="47.26377" lon="-1.61507">
        <ele>25.5</ele>
        <time>2020-06-07T09:59:06Z</time>
      </trkpt>
      <trkpt lat="47.26377" lon="-1.61507">
        <ele>25.5</ele>
        <time>2020-06-07T09:59:07Z</time>
      </trkpt>
      <trkpt lat="47.26377" lon="-1.61507">
        <ele>25.5</ele>
        <time>2020-06-07T09:59:08Z</time>
      </trkpt>
      <trkpt lat="47.26377" lon="-1.61507">
        <ele>25.5</ele>
        <time>2020-06-07T09:59:09Z</time>
      </trkpt>
      <trkpt lat="47.26377" lon="-1.61507">
        <ele>25.5</ele>
        <time>2020-06-07T09:59:10Z</time>
      </trkpt>
      <trkpt lat="47.26377" lon="-1.61507">
        <ele>25.5</ele>
        <time>2020-06-07T09:59:11Z</time>
      </trkpt>
      <trkpt lat="47.26377" lon="-1.61507">
        <ele>25.5</ele>
        <time>2020-06-07T09:59:12Z</time>
      </trkpt>
      <trkpt lat="47.26377" lon="-1.61507">
        <ele>25.5</ele>
        <time>2020-06-07T09:59:13Z</time>
      </trkpt>
      <trkpt lat="47.26377" lon="-1.61507">
        <ele>25.5</ele>
        <time>2020-06-07T09:59:14Z</time>
      </trkpt>
      <trkpt lat="47.26377" lon="-1.61507">
        <ele>25.5</ele>
        <time>2020-06-07T09:59:15Z</time>
      </trkpt>
      <trkpt lat="47.26377" lon="-1.61507">
        <ele>25.5</ele>
        <time>2020-06-07T09:59:16Z</time>
      </trkpt>
      <trkpt lat="47.26377" lon="-1.61507">
        <ele>25.5</ele>
        <time>2020-06-07T09:59:17Z</time>
      </trkpt>
      <trkpt lat="47.26377" lon="-1.61507">
        <ele>25.5</ele>
        <time>2020-06-07T09:59:18Z</time>
      </trkpt>
      <trkpt lat="47.26377" lon="-1.61507">
        <ele>25.5</ele>
        <time>2020-06-07T09:59:19Z</time>
      </trkpt>
      <trkpt lat="47.26377" lon="-1.61507">
        <ele>25.5</ele>
        <time>2020-06-07T09:59:20Z</time>
      </trkpt>
      <trkpt lat="47.26377" lon="-1.61507">
        <ele>25.5</ele>
        <time>2020-06-07T09:59:21Z</time>
      </trkpt>
      <trkpt lat="47.26377" lon="-1.61507">
        <ele>25.5</ele>
        <time>2020-06-07T09:59:22Z</time>
      </trkpt>
      <trkpt lat="47.26377" lon="-1.61507">
        <ele>25.5</ele>
        <time>2020-06-07T09:59:23Z</time>
      </trkpt>
      <trkpt lat="47.26377" lon="-1.61507">
        <ele>25.5</ele>
        <time>2020-06-07T09:59:24Z</time>
      </trkpt>
      <trkpt lat="47.26377" lon="-1.61507">
        <ele>25.5</ele>
        <time>2020-06-07T09:59:25Z</time>
      </trkpt>
      <trkpt lat="47.26377" lon="-1.61507">
        <ele>25.5</ele>
        <time>2020-06-07T09:59:26Z</time>
      </trkpt>
      <trkpt lat="47.26377" lon="-1.61507">
        <ele>25.5</ele>
        <time>2020-06-07T09:59:27Z</time>
      </trkpt>
      <trkpt lat="47.26377" lon="-1.61507">
        <ele>25.5</ele>
        <time>2020-06-07T09:59:28Z</time>
      </trkpt>
      <trkpt lat="47.26377" lon="-1.61507">
        <ele>25.5</ele>
        <time>2020-06-07T09:59:29Z</time>
      </trkpt>
      <trkpt lat="47.26377" lon="-1.61507">
        <ele>25.5</ele>
        <time>2020-06-07T09:59:30Z</time>
      </trkpt>
      <trkpt lat="47.26377" lon="-1.61507">
        <ele>25.5</ele>
        <time>2020-06-07T09:59:31Z</time>
      </trkpt>
      <trkpt lat="47.26378" lon="-1.61507">
        <ele>25.5</ele>
        <time>2020-06-07T09:59:32Z</time>
      </trkpt>
      <trkpt lat="47.26378" lon="-1.61507">
        <ele>25.5</ele>
        <time>2020-06-07T09:59:33Z</time>
      </trkpt>
      <trkpt lat="47.26378" lon="-1.61506">
        <ele>25.4</ele>
        <time>2020-06-07T09:59:34Z</time>
      </trkpt>
      <trkpt lat="47.26378" lon="-1.61506">
        <ele>25.4</ele>
        <time>2020-06-07T09:59:35Z</time>
      </trkpt>
      <trkpt lat="47.26378" lon="-1.61506">
        <ele>25.4</ele>
        <time>2020-06-07T09:59:36Z</time>
      </trkpt>
      <trkpt lat="47.26378" lon="-1.61505">
        <ele>25.3</ele>
        <time>2020-06-07T09:59:37Z</time>
      </trkpt>
      <trkpt lat="47.26379" lon="-1.61505">
        <ele>25.3</ele>
        <time>2020-06-07T09:59:38Z</time>
      </trkpt>
      <trkpt lat="47.26379" lon="-1.61504">
        <ele>25.2</ele>
        <time>2020-06-07T09:59:39Z</time>
      </trkpt>
      <trkpt lat="47.26379" lon="-1.61504">
        <ele>25.1</ele>
        <time>2020-06-07T09:59:40Z</time>
      </trkpt>
      <trkpt lat="47.2638" lon="-1.61503">
        <ele>25</ele>
        <time>2020-06-07T09:59:41Z</time>
      </trkpt>
      <trkpt lat="47.2638" lon="-1.61502">
        <ele>24.9</ele>
        <time>2020-06-07T09:59:42Z</time>
      </trkpt>
      <trkpt lat="47.2638" lon="-1.61501">
        <ele>24.8</ele>
        <time>2020-06-07T09:59:43Z</time>
      </trkpt>
      <trkpt lat="47.26381" lon="-1.615">
        <ele>24.7</ele>
        <time>2020-06-07T09:59:44Z</time>
      </trkpt>
      <trkpt lat="47.26381" lon="-1.61499">
        <ele>24.7</ele>
        <time>2020-06-07T09:59:45Z</time>
      </trkpt>
      <trkpt lat="47.26382" lon="-1.61498">
        <ele>24.7</ele>
        <time>2020-06-07T09:59:46Z</time>
      </trkpt>
      <trkpt lat="47.26382" lon="-1.61497">
        <ele>24.6</ele>
        <time>2020-06-07T09:59:47Z</time>
      </trkpt>
      <trkpt lat="47.26383" lon="-1.61496">
        <ele>24.6</ele>
        <time>2020-06-07T09:59:48Z</time>
      </trkpt>
      <trkpt lat="47.26383" lon="-1.61495">
        <ele>24.6</ele>
        <time>2020-06-07T09:59:49Z</time>
      </trkpt>
      <trkpt lat="47.26384" lon="-1.61495">
        <ele>24.6</ele>
        <time>2020-06-07T09:59:50Z</time>
      </trkpt>
      <trkpt lat="47.26384" lon="-1.61494">
        <ele>24.6</ele>
        <time>2020-06-07T09:59:51Z</time>
      </trkpt>
      <trkpt lat="47.26385" lon="-1.61494">
        <ele>24.5</ele>
        <time>2020-06-07T09:59:52Z</time>
      </trkpt>
      <trkpt lat="47.26385" lon="-1.61494">
        <ele>24.5</ele>
        <time>2020-06-07T09:59:53Z</time>
      </trkpt>
      <trkpt lat="47.26386" lon="-1.61494">
        <ele>24.5</ele>
        <time>2020-06-07T09:59:54Z</time>
      </trkpt>
      <trkpt lat="47.26386" lon="-1.61495">
        <ele>24.5</ele>
        <time>2020-06-07T09:59:55Z</time>
      </trkpt>
      <trkpt lat="47.26387" lon="-1.61495">
        <ele>24.5</ele>
        <time>2020-06-07T09:59:56Z</time>
      </trkpt>
      <trkpt lat="47.26387" lon="-1.61496">
        <ele>24.4</ele>
        <time>2020-06-07T09:59:57Z</time>
      </trkpt>
      <trkpt lat="47.26388" lon="-1.61496">
        <ele>24.4</ele>
        <time>2020-06-07T09:59:58Z</time>
      </trkpt>
      <trkpt lat="47.26389" lon="-1.61497">
        <ele>24.4</ele>
        <time>2020-06-07T09:59:59Z</time>
      </trkpt>
      <trkpt lat="47.2639" lon="-1.61497">
        <ele>24.3</ele>
        <time>2020-06-07T10:00:00Z</time>
      </trkpt>
      <trkpt lat="47.26391" lon="-1.61498">
        <ele>24.3</ele>
        <time>2020-06-07T10:00:01Z</time>
      </trkpt>
      <trkpt lat="47.26392" lon="-1.61499">
        <ele>24.2</ele>
        <time>2020-06-07T10:00:02Z</time>
      </trkpt>
      <trkpt lat="47.26393" lon="-1.615">
        <ele>24.2</ele>
        <time>2020-06-07T10:00:03Z</time>
      </trkpt>
      <trkpt lat="47.26394" lon="-1.61501">
        <ele>24.1</ele>
        <time>2020-06-07T10:00:04Z</time>
      </trkpt>
      <trkpt lat="47.26395" lon="-1.61501">
        <ele>24.2</ele>
        <time>2020-06-07T10:00:05Z</time>
      </trkpt>
      <trkpt lat="47.26396" lon="-1.61502">
        <ele>24.2</ele>
        <time>2020-06-07T10:00:06Z</time>
      </trkpt>
      <trkpt lat="47.26397" lon="-1.61503">
        <ele>24.3</ele>
        <time>2020-06-07T10:00:07Z</time>
      </trkpt>
      <trkpt lat="47.26398" lon="-1.61504">
        <ele>24.3</ele>
        <time>2020-06-07T10:00:08Z</time>
      </trkpt>
      <trkpt lat="47.26399" lon="-1.61505">
        <ele>24.4</ele>
        <time>2020-06-07T10:00:09Z</time>
      </trkpt>
      <trkpt lat="47.264" lon="-1.61506">
        <ele>24.4</ele>
        <time>2020-06-07T10:00:10Z</time>
      </trkpt>
      <trkpt lat="47.26401" lon="-1.61507">
        <ele>24.5</ele>
        <time>2020-06-07T10:00:11Z</time>
      </trkpt>
      <trkpt lat="47.26401" lon="-1.61509">
        <ele>24.5</ele>
        <time>2020-06-07T10:00:12Z</time>
      </trkpt>
      <trkpt lat="47.26402" lon="-1.6151">
        <ele>24.6</ele>
        <time>2020-06-07T10:00:13Z</time>
      </trkpt>
      <trkpt lat="47.26403" lon="-1.61511">
        <ele>24.7</ele>
        <time>2020-06-07T10:00:14Z</time>
      </trkpt>
      <trkpt lat="47.26404" lon="-1.61512">
        <ele>24.7</ele>
        <time>2020-06-07T10:00:15Z</time>
      </trkpt>
      <trkpt lat="47.26405" lon="-1.61513">
        <ele>24.8</ele>
        <time>2020-06-07T10:00:16Z</time>
      </trkpt>
      <trkpt lat="47.26406" lon="-1.61514">
        <ele>24.8</ele>
        <time>2020-06-07T10:00:17Z</time>
      </trkpt>
      <trkpt lat="47.26407" lon="-1.61515">
        <ele>24.8</ele>
        <time>2020-06-07T10:00:18Z</time>
      </trkpt>
      <trkpt lat="47.26409" lon="-1.61516">
        <ele>24.9</ele>
        <time>2020-06-07T10:00:19Z</time>
      </trkpt>
      <trkpt lat="47.2641" lon="-1.61517">
        <ele>24.9</ele>
        <time>2020-06-07T10:00:20Z</time>
      </trkpt>
      <trkpt lat="47.26411" lon="-1.61518">
        <ele>25</ele>
        <time>2020-06-07T10:00:21Z</time>
      </trkpt>
      <trkpt lat="47.26412" lon="-1.61519">
        <ele>25</ele>
        <time>2020-06-07T10:00:22Z</time>
      </trkpt>
      <trkpt lat="47.26413" lon="-1.6152">
        <ele>25</ele>
        <time>2020-06-07T10:00:23Z</time>
      </trkpt>
      <trkpt lat="47.26414" lon="-1.61521">
        <ele>25.1</ele>
        <time>2020-06-07T10:00:24Z</time>
      </trkpt>
      <trkpt lat="47.26415" lon="-1.61522">
        <ele>25.1</ele>
        <time>2020-06-07T10:00:25Z</time>
      </trkpt>
      <trkpt lat="47.26416" lon="-1.61523">
        <ele>25.2</ele>
        <time>2020-06-07T10:00:26Z</time>
      </trkpt>
      <trkpt lat="47.26417" lon="-1.61524">
        <ele>25.3</ele>
        <time>2020-06-07T10:00:27Z</time>
      </trkpt>
      <trkpt lat="47.26418" lon="-1.61525">
        <ele>25.4</ele>
        <time>2020-06-07T10:00:28Z</time>
      </trkpt>
      <trkpt lat="47.26419" lon="-1.61526">
        <ele>25.6</ele>
        <time>2020-06-07T10:00:29Z</time>
      </trkpt>
      <trkpt lat="47.2642" lon="-1.61528">
        <ele>25.7</ele>
        <time>2020-06-07T10:00:30Z</time>
      </trkpt>
      <trkpt lat="47.26421" lon="-1.61529">
        <ele>25.8</ele>
        <time>2020-06-07T10:00:31Z</time>
      </trkpt>
      <trkpt lat="47.26421" lon="-1.6153">
        <ele>25.9</ele>
        <time>2020-06-07T10:00:32Z</time>
      </trkpt>
      <trkpt lat="47.26422" lon="-1.61532">
        <ele>26.1</ele>
        <time>2020-06-07T10:00:33Z</time>
      </trkpt>
      <trkpt lat="47.26423" lon="-1.61533">
        <ele>26.2</ele>
        <time>2020-06-07T10:00:34Z</time>
      </trkpt>
      <trkpt lat="47.26423" lon="-1.61534">
        <ele>26.3</ele>
        <time>2020-06-07T10:00:35Z</time>
      </trkpt>
      <trkpt lat="47.26424" lon="-1.61535">
        <ele>26.4</ele>
        <time>2020-06-07T10:00:36Z</time>
      </trkpt>
      <trkpt lat="47.26425" lon="-1.61537">
        <ele>26.5</ele>
        <time>2020-06-07T10:00:37Z</time>
      </trkpt>
      <trkpt lat="47.26425" lon="-1.61538">
        <ele>26.6</ele>
        <time>2020-06-07T10:00:38Z</time>
      </trkpt>
      <trkpt lat="47.26426" lon="-1.61539">
        <ele>26.8</ele>
        <time>2020-06-07T10:00:39Z</time>
      </trkpt>
      <trkpt lat="47.26427" lon="-1.61541">
        <ele>26.9</ele>
        <time>2020-06-07T10:00:40Z</time>
      </trkpt>
      <trkpt lat="47.26427" lon="-1.61542">
        <ele>27</ele>
        <time>2020-06-07T10:00:41Z</time>
      </trkpt>
      <trkpt lat="47.26428" lon="-1.61544">
        <ele>27.1</ele>
        <time>2020-06-07T10:00:42Z</time>
      </trkpt>
      <trkpt lat="47.26429" lon="-1.61545">
        <ele>27.2</ele>
        <time>2020-06-07T10:00:43Z</time>
      </trkpt>
      <trkpt lat="47.26429" lon="-1.61546">
        <ele>27.3</ele>
        <time>2020-06-07T10:00:44Z</time>
      </trkpt>
      <trkpt lat="47.2643" lon="-1.61548">
        <ele>27.4</ele>
        <time>2020-06-07T10:00:45Z</time>
      </trkpt>
      <trkpt lat="47.2643" lon="-1.61549">
        <ele>27.5</ele>
        <time>2020-06-07T10:00:46Z</time>
      </trkpt>
      <trkpt lat="47.26431" lon="-1.6155">
        <ele>27.6</ele>
        <time>2020-06-07T10:00:47Z</time>
      </trkpt>
      <trkpt lat="47.26432" lon="-1.61552">
        <ele>27.7</ele>
        <time>2020-06-07T10:00:48Z</time>
      </trkpt>
      <trkpt lat="47.26432" lon="-1.61553">
        <ele>27.8</ele>
        <time>2020-06-07T10:00:49Z</time>
      </trkpt>
      <trkpt lat="47.26433" lon="-1.61554">
        <ele>27.8</ele>
        <time>2020-06-07T10:00:50Z</time>
      </trkpt>
      <trkpt lat="47.26433" lon="-1.61555">
        <ele>27.9</ele>
        <time>2020-06-07T10:00:51Z</time>
      </trkpt>
      <trkpt lat="47.26434" lon="-1.61556">
        <ele>28</ele>
        <time>2020-06-07T10:00:52Z</time>
      </trkpt>
      <trkpt lat="47.26434" lon="-1.61557">
        <ele>28</ele>
        <time>2020-06-07T10:00:53Z</time>
      </trkpt>
      <trkpt lat="47.26435" lon="-1.61558">
        <ele>28.1</ele>
        <time>2020-06-07T10:00:54Z</time>
      </trkpt>
      <trkpt lat="47.26435" lon="-1.61559">
        <ele>28.2</ele>
        <time>2020-06-07T10:00:55Z</time>
      </trkpt>
      <trkpt lat="47.26436" lon="-1.6156">
        <ele>28.2</ele>
        <time>2020-06-07T10:00:56Z</time>
      </trkpt>
      <trkpt lat="47.26437" lon="-1.61561">
        <ele>28.2</ele>
        <time>2020-06-07T10:00:57Z</time>
      </trkpt>
      <trkpt lat="47.26437" lon="-1.61562">
        <ele>28.3</ele>
        <time>2020-06-07T10:00:58Z</time>
      </trkpt>
      <trkpt lat="47.26438" lon="-1.61563">
        <ele>28.3</ele>
        <time>2020-06-07T10:00:59Z</time>
      </trkpt>
      <trkpt lat="47.26439" lon="-1.61564">
        <ele>28.3</ele>
        <time>2020-06-07T10:01:00Z</time>
      </trkpt>
      <trkpt lat="47.26439" lon="-1.61564">
        <ele>28.4</ele>
        <time>2020-06-07T10:01:01Z</time>
      </trkpt>
      <trkpt lat="47.2644" lon="-1.61565">
        <ele>28.4</ele>
        <time>2020-06-07T10:01:02Z</time>
      </trkpt>
      <trkpt lat="47.26441" lon="-1.61566">
        <ele>28.4</ele>
        <time>2020-06-07T10:01:03Z</time>
      </trkpt>
      <trkpt lat="47.26442" lon="-1.61567">
        <ele>28.4</ele>
        <time>2020-06-07T10:01:04Z</time>
      </trkpt>
      <trkpt lat="47.26443" lon="-1.61567">
        <ele>28.5</ele>
        <time>2020-06-07T10:01:05Z</time>
      </trkpt>
      <trkpt lat="47.26443" lon="-1.61568">
        <ele>28.5</ele>
        <time>2020-06-07T10:01:06Z</time>
      </trkpt>
      <trkpt lat="47.26444" lon="-1.61569">
        <ele>28.5</ele>
        <time>2020-06-07T10:01:07Z</time>
      </trkpt>
      <trkpt lat="47.26445" lon="-1.6157">
        <ele>28.5</ele>
        <time>2020-06-07T10:01:08Z</time>
      </trkpt>
      <trkpt lat="47.26446" lon="-1.61571">
        <ele>28.5</ele>
        <time>2020-06-07T10:01:09Z</time>
      </trkpt>
      <trkpt lat="47.26447" lon="-1.61572">
        <ele>28.5</ele>
        <time>2020-06-07T10:01:10Z</time>
      </trkpt>
      <trkpt lat="47.26448" lon="-1.61573">
        <ele>28.5</ele>
        <time>2020-06-07T10:01:11Z</time>
      </trkpt>
      <trkpt lat="47.26449" lon="-1.61573">
        <ele>28.5</ele>
        <time>2020-06-07T10:01:12Z</time>
      </trkpt>
      <trkpt lat="47.2645" lon="-1.61574">
        <ele>28.5</ele>
        <time>2020-06-07T10:01:13Z</time>
      </trkpt>
      <trkpt lat="47.26452" lon="-1.61575">
        <ele>28.5</ele>
        <time>2020-06-07T10:01:14Z</time>
      </trkpt>
      <trkpt lat="47.26453" lon="-1.61576">
        <ele>28.5</ele>
        <time>2020-06-07T10:01:15Z</time>
      </trkpt>
      <trkpt lat="47.26454" lon="-1.61577">
        <ele>28.5</ele>
        <time>2020-06-07T10:01:16Z</time>
      </trkpt>
      <trkpt lat="47.26455" lon="-1.61577">
        <ele>28.4</ele>
        <time>2020-06-07T10:01:17Z</time>
      </trkpt>
      <trkpt lat="47.26456" lon="-1.61578">
        <ele>28.4</ele>
        <time>2020-06-07T10:01:18Z</time>
      </trkpt>
      <trkpt lat="47.26457" lon="-1.61579">
        <ele>28.4</ele>
        <time>2020-06-07T10:01:19Z</time>
      </trkpt>
      <trkpt lat="47.26458" lon="-1.61579">
        <ele>28.4</ele>
        <time>2020-06-07T10:01:20Z</time>
      </trkpt>
      <trkpt lat="47.26459" lon="-1.6158">
        <ele>28.3</ele>
        <time>2020-06-07T10:01:21Z</time>
      </trkpt>
      <trkpt lat="47.2646" lon="-1.6158">
        <ele>28.3</ele>
        <time>2020-06-07T10:01:22Z</time>
      </trkpt>
      <trkpt lat="47.26461" lon="-1.61581">
        <ele>28.2</ele>
        <time>2020-06-07T10:01:23Z</time>
      </trkpt>
      <trkpt lat="47.26462" lon="-1.61581">
        <ele>28.2</ele>
        <time>2020-06-07T10:01:24Z</time>
      </trkpt>
      <trkpt lat="47.26462" lon="-1.61581">
        <ele>28.2</ele>
        <time>2020-06-07T10:01:25Z</time>
      </trkpt>
      <trkpt lat="47.26463" lon="-1.61581">
        <ele>28.1</ele>
        <time>2020-06-07T10:01:26Z</time>
      </trkpt>
      <trkpt lat="47.26464" lon="-1.61582">
        <ele>28.1</ele>
        <time>2020-06-07T10:01:27Z</time>
      </trkpt>
      <trkpt lat="47.26465" lon="-1.61582">
        <ele>28.1</ele>
        <time>2020-06-07T10:01:28Z</time>
      </trkpt>
      <trkpt lat="47.26465" lon="-1.61583">
        <ele>28.1</ele>
        <time>2020-06-07T10:01:29Z</time>
      </trkpt>
      <trkpt lat="47.26466" lon="-1.61583">
        <ele>28</ele>
        <time>2020-06-07T10:01:30Z</time>
      </trkpt>
      <trkpt lat="47.26467" lon="-1.61584">
        <ele>28</ele>
        <time>2020-06-07T10:01:31Z</time>
      </trkpt>
      <trkpt lat="47.26469" lon="-1.61585">
        <ele>28</ele>
        <time>2020-06-07T10:01:32Z</time>
      </trkpt>
      <trkpt lat="47.2647" lon="-1.61585">
        <ele>28</ele>
        <time>2020-06-07T10:01:33Z</time>
      </trkpt>
      <trkpt lat="47.26471" lon="-1.61586">
        <ele>28.1</ele>
        <time>2020-06-07T10:01:34Z</time>
      </trkpt>
      <trkpt lat="47.26472" lon="-1.61587">
        <ele>28.1</ele>
        <time>2020-06-07T10:01:35Z</time>
      </trkpt>
      <trkpt lat="47.26473" lon="-1.61588">
        <ele>28.1</ele>
        <time>2020-06-07T10:01:36Z</time>
      </trkpt>
      <trkpt lat="47.26474" lon="-1.61588">
        <ele>28.1</ele>
        <time>2020-06-07T10:01:37Z</time>
      </trkpt>
      <trkpt lat="47.26475" lon="-1.61589">
        <ele>28.1</ele>
        <time>2020-06-07T10:01:38Z</time>
      </trkpt>
      <trkpt lat="47.26477" lon="-1.61589">
        <ele>28.1</ele>
        <time>2020-06-07T10:01:39Z</time>
      </trkpt>
      <trkpt lat="47.26478" lon="-1.6159">
        <ele>28.1</ele>
        <time>2020-06-07T10:01:40Z</time>
      </trkpt>
      <trkpt lat="47.26479" lon="-1.61591">
        <ele>28.1</ele>
        <time>2020-06-07T10:01:41Z</time>
      </trkpt>
      <trkpt lat="47.26481" lon="-1.61592">
        <ele>28.2</ele>
        <time>2020-06-07T10:01:42Z</time>
      </trkpt>
      <trkpt lat="47.26482" lon="-1.61592">
        <ele>28.2</ele>
        <time>2020-06-07T10:01:43Z</time>
      </trkpt>
      <trkpt lat="47.26484" lon="-1.61593">
        <ele>28.1</ele>
        <time>2020-06-07T10:01:44Z</time>
      </trkpt>
      <trkpt lat="47.26485" lon="-1.61593">
        <ele>28.1</ele>
        <time>2020-06-07T10:01:45Z</time>
      </trkpt>
      <trkpt lat="47.26486" lon="-1.61593">
        <ele>28.1</ele>
        <time>2020-06-07T10:01:46Z</time>
      </trkpt>
      <trkpt lat="47.26488" lon="-1.61594">
        <ele>28</ele>
        <time>2020-06-07T10:01:47Z</time>
      </trkpt>
      <trkpt lat="47.26489" lon="-1.61594">
        <ele>28</ele>
        <time>2020-06-07T10:01:48Z</time>
      </trkpt>
      <trkpt lat="47.2649" lon="-1.61594">
        <ele>28</ele>
        <time>2020-06-07T10:01:49Z</time>
      </trkpt>
      <trkpt lat="47.26491" lon="-1.61595">
        <ele>27.9</ele>
        <time>2020-06-07T10:01:50Z</time>
      </trkpt>
      <trkpt lat="47.26493" lon="-1.61595">
        <ele>27.9</ele>
        <time>2020-06-07T10:01:51Z</time>
      </trkpt>
      <trkpt lat="47.26494" lon="-1.61595">
        <ele>27.9</ele>
        <time>2020-06-07T10:01:52Z</time>
      </trkpt>
      <trkpt lat="47.26495" lon="-1.61596">
        <ele>27.9</ele>
        <time>2020-06-07T10:01:53Z</time>
      </trkpt>
      <trkpt lat="47.26496" lon="-1.61596">
        <ele>27.9</ele>
        <time>2020-06-07T10:01:54Z</time>
      </trkpt>
      <trkpt lat="47.26498" lon="-1.61597">
        <ele>27.9</ele>
        <time>2020-06-07T10:01:55Z</time>
      </trkpt>
      <trkpt lat="47.26499" lon="-1.61598">
        <ele>28</ele>
        <time>2020-06-07T10:01:56Z</time>
      </trkpt>
      <trkpt lat="47.265" lon="-1.61599">
        <ele>28</ele>
        <time>2020-06-07T10:01:57Z</time>
      </trkpt>
      <trkpt lat="47.26501" lon="-1.61599">
        <ele>28.2</ele>
        <time>2020-06-07T10:01:58Z</time>
      </trkpt>
      <trkpt lat="47.26503" lon="-1.616">
        <ele>28.3</ele>
        <time>2020-06-07T10:01:59Z</time>
      </trkpt>
      <trkpt lat="47.26504" lon="-1.61601">
        <ele>28.4</ele>
        <time>2020-06-07T10:02:00Z</time>
      </trkpt>
      <trkpt lat="47.26505" lon="-1.61601">
        <ele>28.5</ele>
        <time>2020-06-07T10:02:01Z</time>
      </trkpt>
      <trkpt lat="47.26506" lon="-1.61602">
        <ele>28.6</ele>
        <time>2020-06-07T10:02:02Z</time>
      </trkpt>
      <trkpt lat="47.26507" lon="-1.61602">
        <ele>28.7</ele>
        <time>2020-06-07T10:02:03Z</time>
      </trkpt>
      <trkpt lat="47.26508" lon="-1.61602">
        <ele>28.8</ele>
        <time>2020-06-07T10:02:04Z</time>
      </trkpt>
      <trkpt lat="47.26509" lon="-1.61603">
        <ele>28.9</ele>
        <time>2020-06-07T10:02:05Z</time>
      </trkpt>
      <trkpt lat="47.2651" lon="-1.61603">
        <ele>29</ele>
        <time>2020-06-07T10:02:06Z</time>
      </trkpt>
      <trkpt lat="47.26511" lon="-1.61603">
        <ele>29.1</ele>
        <time>2020-06-07T10:02:07Z</time>
      </trkpt>
      <trkpt lat="47.26512" lon="-1.61604">
        <ele>29.1</ele>
        <time>2020-06-07T10:02:08Z</time>
      </trkpt>
      <trkpt lat="47.26513" lon="-1.61604">
        <ele>29.2</ele>
        <time>2020-06-07T10:02:09Z</time>
      </trkpt>
      <trkpt lat="47.26514" lon="-1.61605">
        <ele>29.3</ele>
        <time>2020-06-07T10:02:10Z</time>
      </trkpt>
      <trkpt lat="47.26515" lon="-1.61605">
        <ele>29.4</ele>
        <time>2020-06-07T10:02:11Z</time>
      </trkpt>
      <trkpt lat="47.26516" lon="-1.61606">
        <ele>29.5</ele>
        <time>2020-06-07T10:02:12Z</time>
      </trkpt>
      <trkpt lat="47.26517" lon="-1.61606">
        <ele>29.6</ele>
        <time>2020-06-07T10:02:13Z</time>
      </trkpt>
      <trkpt lat="47.26519" lon="-1.61607">
        <ele>29.7</ele>
        <time>2020-06-07T10:02:14Z</time>
      </trkpt>
      <trkpt lat="47.2652" lon="-1.61608">
        <ele>29.8</ele>
        <time>2020-06-07T10:02:15Z</time>
      </trkpt>
      <trkpt lat="47.26521" lon="-1.61609">
        <ele>29.9</ele>
        <time>2020-06-07T10:02:16Z</time>
      </trkpt>
      <trkpt lat="47.26522" lon="-1.61609">
        <ele>30</ele>
        <time>2020-06-07T10:02:17Z</time>
      </trkpt>
      <trkpt lat="47.26523" lon="-1.6161">
        <ele>30.1</ele>
        <time>2020-06-07T10:02:18Z</time>
      </trkpt>
      <trkpt lat="47.26524" lon="-1.61611">
        <ele>30.2</ele>
        <time>2020-06-07T10:02:19Z</time>
      </trkpt>
      <trkpt lat="47.26525" lon="-1.61612">
        <ele>30.3</ele>
        <time>2020-06-07T10:02:20Z</time>
      </trkpt>
      <trkpt lat="47.26525" lon="-1.61612">
        <ele>30.4</ele>
        <time>2020-06-07T10:02:21Z</time>
      </trkpt>
      <trkpt lat="47.26526" lon="-1.61613">
        <ele>30.5</ele>
        <time>2020-06-07T10:02:22Z</time>
      </trkpt>
      <trkpt lat="47.26527" lon="-1.61614">
        <ele>30.5</ele>
        <time>2020-06-07T10:02:23Z</time>
      </trkpt>
      <trkpt lat="47.26528" lon="-1.61614">
        <ele>30.6</ele>
        <time>2020-06-07T10:02:24Z</time>
      </trkpt>
      <trkpt lat="47.26528" lon="-1.61615">
        <ele>30.7</ele>
        <time>2020-06-07T10:02:25Z</time>
      </trkpt>
      <trkpt lat="47.26529" lon="-1.61615">
        <ele>30.7</ele>
        <time>2020-06-07T10:02:26Z</time>
      </trkpt>
      <trkpt lat="47.26529" lon="-1.61616">
        <ele>30.7</ele>
        <time>2020-06-07T10:02:27Z</time>
      </trkpt>
      <trkpt lat="47.2653" lon="-1.61616">
        <ele>30.8</ele>
        <time>2020-06-07T10:02:28Z</time>
      </trkpt>
      <trkpt lat="47.2653" lon="-1.61616">
        <ele>30.8</ele>
        <time>2020-06-07T10:02:29Z</time>
      </trkpt>
      <trkpt lat="47.2653" lon="-1.61616">
        <ele>30.8</ele>
        <time>2020-06-07T10:02:30Z</time>
      </trkpt>
      <trkpt lat="47.2653" lon="-1.61616">
        <ele>30.8</ele>
        <time>2020-06-07T10:02:31Z</time>
      </trkpt>
      <trkpt lat="47.2653" lon="-1.61616">
        <ele>30.8</ele>
        <time>2020-06-07T10:02:32Z</time>
      </trkpt>
      <trkpt lat="47.2653" lon="-1.61616">
        <ele>30.8</ele>
        <time>2020-06-07T10:02:33Z</time>
      </trkpt>
      <trkpt lat="47.26531" lon="-1.61616">
        <ele>30.8</ele>
        <time>2020-06-07T10:02:34Z</time>
      </trkpt>
      <trkpt lat="47.26531" lon="-1.61616">
        <ele>30.8</ele>
        <time>2020-06-07T10:02:35Z</time>
      </trkpt>
      <trkpt lat="47.26531" lon="-1.61616">
        <ele>30.8</ele>
        <time>2020-06-07T10:02:36Z</time>
      </trkpt>
      <trkpt lat="47.26531" lon="-1.61616">
        <ele>30.8</ele>
        <time>2020-06-07T10:02:37Z</time>
      </trkpt>
      <trkpt lat="47.26531" lon="-1.61616">
        <ele>30.8</ele>
        <time>2020-06-07T10:02:38Z</time>
      </trkpt>
      <trkpt lat="47.26531" lon="-1.61616">
        <ele>30.8</ele>
        <time>2020-06-07T10:02:39Z</time>
      </trkpt>
      <trkpt lat="47.26531" lon="-1.61616">
        <ele>30.8</ele>
        <time>2020-06-07T10:02:40Z</time>
      </trkpt>
      <trkpt lat="47.26531" lon="-1.61616">
        <ele>30.8</ele>
        <time>2020-06-07T10:02:41Z</time>
      </trkpt>
      <trkpt lat="47.26531" lon="-1.61616">
        <ele>30.8</ele>
        <time>2020-06-07T10:02:42Z</time>
      </trkpt>
      <trkpt lat="47.26531" lon="-1.61616">
        <ele>30.8</ele>
        <time>2020-06-07T10:02:43Z</time>
      </trkpt>
      <trkpt lat="47.26531" lon="-1.61616">
        <ele>30.8</ele>
        <time>2020-06-07T10:02:44Z</time>
      </trkpt>
      <trkpt lat="47.26531" lon="-1.61616">
        <ele>30.8</ele>
        <time>2020-06-07T10:02:45Z</time>
      </trkpt>
      <trkpt lat="47.26531" lon="-1.61616">
        <ele>30.8</ele>
        <time>2020-06-07T10:02:46Z</time>
      </trkpt>
      <trkpt lat="47.26531" lon="-1.61616">
        <ele>30.8</ele>
        <time>2020-06-07T10:02:47Z</time>
      </trkpt>
      <trkpt lat="47.26531" lon="-1.61617">
        <ele>30.9</ele>
        <time>2020-06-07T10:02:48Z</time>
      </trkpt>
      <trkpt lat="47.26531" lon="-1.61618">
        <ele>30.9</ele>
        <time>2020-06-07T10:02:49Z</time>
      </trkpt>
      <trkpt lat="47.26531" lon="-1.61619">
        <ele>31</ele>
        <time>2020-06-07T10:02:50Z</time>
      </trkpt>
      <trkpt lat="47.26531" lon="-1.6162">
        <ele>31.1</ele>
        <time>2020-06-07T10:02:51Z</time>
      </trkpt>
      <trkpt lat="47.26532" lon="-1.61622">
        <ele>31.3</ele>
        <time>2020-06-07T10:02:52Z</time>
      </trkpt>
      <trkpt lat="47.26532" lon="-1.61624">
        <ele>31.4</ele>
        <time>2020-06-07T10:02:53Z</time>
      </trkpt>
      <trkpt lat="47.26533" lon="-1.61626">
        <ele>31.6</ele>
        <time>2020-06-07T10:02:54Z</time>
      </trkpt>
      <trkpt lat="47.26534" lon="-1.61628">
        <ele>31.7</ele>
        <time>2020-06-07T10:02:55Z</time>
      </trkpt>
      <trkpt lat="47.26534" lon="-1.61629">
        <ele>31.8</ele>
        <time>2020-06-07T10:02:56Z</time>
      </trkpt>
      <trkpt lat="47.26535" lon="-1.61631">
        <ele>31.9</ele>
        <time>2020-06-07T10:02:57Z</time>
      </trkpt>
      <trkpt lat="47.26536" lon="-1.61632">
        <ele>32</ele>
        <time>2020-06-07T10:02:58Z</time>
      </trkpt>
      <trkpt lat="47.26536" lon="-1.61634">
        <ele>32.1</ele>
        <time>2020-06-07T10:02:59Z</time>
      </trkpt>
      <trkpt lat="47.26537" lon="-1.61635">
        <ele>32.2</ele>
        <time>2020-06-07T10:03:00Z</time>
      </trkpt>
      <trkpt lat="47.26538" lon="-1.61637">
        <ele>32.3</ele>
        <time>2020-06-07T10:03:01Z</time>
      </trkpt>
      <trkpt lat="47.26538" lon="-1.61638">
        <ele>32.4</ele>
        <time>2020-06-07T10:03:02Z</time>
      </trkpt>
      <trkpt lat="47.26539" lon="-1.6164">
        <ele>32.4</ele>
        <time>2020-06-07T10:03:03Z</time>
      </trkpt>
      <trkpt lat="47.26539" lon="-1.61641">
        <ele>32.5</ele>
        <time>2020-06-07T10:03:04Z</time>
      </trkpt>
      <trkpt lat="47.2654" lon="-1.61642">
        <ele>32.6</ele>
        <time>2020-06-07T10:03:05Z</time>
      </trkpt>
      <trkpt lat="47.2654" lon="-1.61644">
        <ele>32.7</ele>
        <time>2020-06-07T10:03:06Z</time>
      </trkpt>
      <trkpt lat="47.26541" lon="-1.61645">
        <ele>32.7</ele>
        <time>2020-06-07T10:03:07Z</time>
      </trkpt>
      <trkpt lat="47.26542" lon="-1.61647">
        <ele>32.8</ele>
        <time>2020-06-07T10:03:08Z</time>
      </trkpt>
      <trkpt lat="47.26542" lon="-1.61648">
        <ele>32.9</ele>
        <time>2020-06-07T10:03:09Z</time>
      </trkpt>
      <trkpt lat="47.26543" lon="-1.61649">
        <ele>32.9</ele>
        <time>2020-06-07T10:03:10Z</time>
      </trkpt>
      <trkpt lat="47.26543" lon="-1.61651">
        <ele>33</ele>
        <time>2020-06-07T10:03:11Z</time>
      </trkpt>
      <trkpt lat="47.26544" lon="-1.61652">
        <ele>33</ele>
        <time>2020-06-07T10:03:12Z</time>
      </trkpt>
      <trkpt lat="47.26545" lon="-1.61653">
        <ele>33</ele>
        <time>2020-06-07T10:03:13Z</time>
      </trkpt>
      <trkpt lat="47.26546" lon="-1.61655">
        <ele>33.1</ele>
        <time>2020-06-07T10:03:14Z</time>
      </trkpt>
      <trkpt lat="47.26546" lon="-1.61656">
        <ele>33.1</ele>
        <time>2020-06-07T10:03:15Z</time>
      </trkpt>
      <trkpt lat="47.26547" lon="-1.61657">
        <ele>33.1</ele>
        <time>2020-06-07T10:03:16Z</time>
      </trkpt>
      <trkpt lat="47.26548" lon="-1.61659">
        <ele>33.1</ele>
        <time>2020-06-07T10:03:17Z</time>
      </trkpt>
      <trkpt lat="47.26549" lon="-1.6166">
        <ele>33.2</ele>
        <time>2020-06-07T10:03:18Z</time>
      </trkpt>
      <trkpt lat="47.2655" lon="-1.61662">
        <ele>33.2</ele>
        <time>2020-06-07T10:03:19Z</time>
      </trkpt>
      <trkpt lat="47.26551" lon="-1.61664">
        <ele>33.2</ele>
        <time>2020-06-07T10:03:20Z</time>
      </trkpt>
      <trkpt lat="47.26551" lon="-1.61665">
        <ele>33.2</ele>
        <time>2020-06-07T10:03:21Z</time>
      </trkpt>
      <trkpt lat="47.26552" lon="-1.61667">
        <ele>33.3</ele>
        <time>2020-06-07T10:03:22Z</time>
      </trkpt>
      <trkpt lat="47.26553" lon="-1.61669">
        <ele>33.3</ele>
        <time>2020-06-07T10:03:23Z</time>
      </trkpt>
      <trkpt lat="47.26554" lon="-1.61671">
        <ele>33.3</ele>
        <time>2020-06-07T10:03:24Z</time>
      </trkpt>
      <trkpt lat="47.26555" lon="-1.61673">
        <ele>33.3</ele>
        <time>2020-06-07T10:03:25Z</time>
      </trkpt>
      <trkpt lat="47.26555" lon="-1.61675">
        <ele>33.4</ele>
        <time>2020-06-07T10:03:26Z</time>
      </trkpt>
      <trkpt lat="47.26556" lon="-1.61677">
        <ele>33.4</ele>
        <time>2020-06-07T10:03:27Z</time>
      </trkpt>
      <trkpt lat="47.26557" lon="-1.61679">
        <ele>33.4</ele>
        <time>2020-06-07T10:03:28Z</time>
      </trkpt>
      <trkpt lat="47.26558" lon="-1.6168">
        <ele>33.4</ele>
        <time>2020-06-07T10:03:29Z</time>
      </trkpt>
      <trkpt lat="47.26558" lon="-1.61682">
        <ele>33.4</ele>
        <time>2020-06-07T10:03:30Z</time>
      </trkpt>
      <trkpt lat="47.26559" lon="-1.61683">
        <ele>33.4</ele>
        <time>2020-06-07T10:03:31Z</time>
      </trkpt>
      <trkpt lat="47.2656" lon="-1.61684">
        <ele>33.4</ele>
        <time>2020-06-07T10:03:32Z</time>
      </trkpt>
      <trkpt lat="47.26561" lon="-1.61686">
        <ele>33.4</ele>
        <time>2020-06-07T10:03:33Z</time>
      </trkpt>
      <trkpt lat="47.26561" lon="-1.61687">
        <ele>33.4</ele>
        <time>2020-06-07T10:03:34Z</time>
      </trkpt>
      <trkpt lat="47.26562" lon="-1.61688">
        <ele>33.4</ele>
        <time>2020-06-07T10:03:35Z</time>
      </trkpt>
      <trkpt lat="47.26563" lon="-1.61689">
        <ele>33.4</ele>
        <time>2020-06-07T10:03:36Z</time>
      </trkpt>
      <trkpt lat="47.26564" lon="-1.6169">
        <ele>33.4</ele>
        <time>2020-06-07T10:03:37Z</time>
      </trkpt>
      <trkpt lat="47.26564" lon="-1.61691">
        <ele>33.4</ele>
        <time>2020-06-07T10:03:38Z</time>
      </trkpt>
      <trkpt lat="47.26565" lon="-1.61692">
        <ele>33.4</ele>
        <time>2020-06-07T10:03:39Z</time>
      </trkpt>
      <trkpt lat="47.26566" lon="-1.61693">
        <ele>33.4</ele>
        <time>2020-06-07T10:03:40Z</time>
      </trkpt>
      <trkpt lat="47.26567" lon="-1.61694">
        <ele>33.4</ele>
        <time>2020-06-07T10:03:41Z</time>
      </trkpt>
      <trkpt lat="47.26567" lon="-1.61695">
        <ele>33.4</ele>
        <time>2020-06-07T10:03:42Z</time>
      </trkpt>
      <trkpt lat="47.26568" lon="-1.61696">
        <ele>33.4</ele>
        <time>2020-06-07T10:03:43Z</time>
      </trkpt>
      <trkpt lat="47.26569" lon="-1.61697">
        <ele>33.4</ele>
        <time>2020-06-07T10:03:44Z</time>
      </trkpt>
      <trkpt lat="47.26569" lon="-1.61698">
        <ele>33.4</ele>
        <time>2020-06-07T10:03:45Z</time>
      </trkpt>
      <trkpt lat="47.2657" lon="-1.61699">
        <ele>33.4</ele>
        <time>2020-06-07T10:03:46Z</time>
      </trkpt>
      <trkpt lat="47.26571" lon="-1.617">
        <ele>33.4</ele>
        <time>2020-06-07T10:03:47Z</time>
      </trkpt>
      <trkpt lat="47.26572" lon="-1.61701">
        <ele>33.4</ele>
        <time>2020-06-07T10:03:48Z</time>
      </trkpt>
      <trkpt lat="47.26572" lon="-1.61703">
        <ele>33.4</ele>
        <time>2020-06-07T10:03:49Z</time>
      </trkpt>
      <trkpt lat="47.26573" lon="-1.61704">
        <ele>33.4</ele>
        <time>2020-06-07T10:03:50Z</time>
      </trkpt>
      <trkpt lat="47.26573" lon="-1.61705">
        <ele>33.5</ele>
        <time>2020-06-07T10:03:51Z</time>
      </trkpt>
      <trkpt lat="47.26574" lon="-1.61707">
        <ele>33.5</ele>
        <time>2020-06-07T10:03:52Z</time>
      </trkpt>
      <trkpt lat="47.26574" lon="-1.61708">
        <ele>33.5</ele>
        <time>2020-06-07T10:03:53Z</time>
      </trkpt>
      <trkpt lat="47.26575" lon="-1.6171">
        <ele>33.6</ele>
        <time>2020-06-07T10:03:54Z</time>
      </trkpt>
      <trkpt lat="47.26575" lon="-1.61711">
        <ele>33.6</ele>
        <time>2020-06-07T10:03:55Z</time>
      </trkpt>
      <trkpt lat="47.26576" lon="-1.61713">
        <ele>33.7</ele>
        <time>2020-06-07T10:03:56Z</time>
      </trkpt>
      <trkpt lat="47.26576" lon="-1.61714">
        <ele>33.7</ele>
        <time>2020-06-07T10:03:57Z</time>
      </trkpt>
      <trkpt lat="47.26576" lon="-1.61716">
        <ele>33.8</ele>
        <time>2020-06-07T10:03:58Z</time>
      </trkpt>
      <trkpt lat="47.26577" lon="-1.61718">
        <ele>33.8</ele>
        <time>2020-06-07T10:03:59Z</time>
      </trkpt>
      <trkpt lat="47.26577" lon="-1.61719">
        <ele>33.9</ele>
        <time>2020-06-07T10:04:00Z</time>
      </trkpt>
      <trkpt lat="47.26578" lon="-1.61721">
        <ele>33.9</ele>
        <time>2020-06-07T10:04:01Z</time>
      </trkpt>
      <trkpt lat="47.26578" lon="-1.61723">
        <ele>34</ele>
        <time>2020-06-07T10:04:02Z</time>
      </trkpt>
      <trkpt lat="47.26579" lon="-1.61724">
        <ele>34</ele>
        <time>2020-06-07T10:04:03Z</time>
      </trkpt>
      <trkpt lat="47.26579" lon="-1.61725">
        <ele>34</ele>
        <time>2020-06-07T10:04:04Z</time>
      </trkpt>
      <trkpt lat="47.2658" lon="-1.61727">
        <ele>34.1</ele>
        <time>2020-06-07T10:04:05Z</time>
      </trkpt>
      <trkpt lat="47.26581" lon="-1.61728">
        <ele>34.1</ele>
        <time>2020-06-07T10:04:06Z</time>
      </trkpt>
      <trkpt lat="47.26582" lon="-1.61729">
        <ele>34.1</ele>
        <time>2020-06-07T10:04:07Z</time>
      </trkpt>
      <trkpt lat="47.26583" lon="-1.6173">
        <ele>34.1</ele>
        <time>2020-06-07T10:04:08Z</time>
      </trkpt>
      <trkpt lat="47.26583" lon="-1.61732">
        <ele>34.1</ele>
        <time>2020-06-07T10:04:09Z</time>
      </trkpt>
      <trkpt lat="47.26584" lon="-1.61733">
        <ele>34.1</ele>
        <time>2020-06-07T10:04:10Z</time>
      </trkpt>
      <trkpt lat="47.26585" lon="-1.61734">
        <ele>34.2</ele>
        <time>2020-06-07T10:04:11Z</time>
      </trkpt>
      <trkpt lat="47.26586" lon="-1.61735">
        <ele>34.2</ele>
        <time>2020-06-07T10:04:12Z</time>
      </trkpt>
      <trkpt lat="47.26587" lon="-1.61736">
        <ele>34.2</ele>
        <time>2020-06-07T10:04:13Z</time>
      </trkpt>
      <trkpt lat="47.26588" lon="-1.61737">
        <ele>34.2</ele>
        <time>2020-06-07T10:04:14Z</time>
      </trkpt>
      <trkpt lat="47.2659" lon="-1.61738">
        <ele>34.2</ele>
        <time>2020-06-07T10:04:15Z</time>
      </trkpt>
      <trkpt lat="47.26591" lon="-1.61738">
        <ele>34.2</ele>
        <time>2020-06-07T10:04:16Z</time>
      </trkpt>
      <trkpt lat="47.26592" lon="-1.61739">
        <ele>34.2</ele>
        <time>2020-06-07T10:04:17Z</time>
      </trkpt>
      <trkpt lat="47.26593" lon="-1.6174">
        <ele>34.2</ele>
        <time>2020-06-07T10:04:18Z</time>
      </trkpt>
      <trkpt lat="47.26594" lon="-1.61742">
        <ele>34.2</ele>
        <time>2020-06-07T10:04:19Z</time>
      </trkpt>
      <trkpt lat="47.26595" lon="-1.61743">
        <ele>34.2</ele>
        <time>2020-06-07T10:04:20Z</time>
      </trkpt>
      <trkpt lat="47.26595" lon="-1.61744">
        <ele>34.2</ele>
        <time>2020-06-07T10:04:21Z</time>
      </trkpt>
      <trkpt lat="47.26596" lon="-1.61745">
        <ele>34.2</ele>
        <time>2020-06-07T10:04:22Z</time>
      </trkpt>
      <trkpt lat="47.26597" lon="-1.61746">
        <ele>34.2</ele>
        <time>2020-06-07T10:04:23Z</time>
      </trkpt>
      <trkpt lat="47.26598" lon="-1.61747">
        <ele>34.2</ele>
        <time>2020-06-07T10:04:24Z</time>
      </trkpt>
      <trkpt lat="47.26599" lon="-1.61748">
        <ele>34.2</ele>
        <time>2020-06-07T10:04:25Z</time>
      </trkpt>
      <trkpt lat="47.26599" lon="-1.61748">
        <ele>34.2</ele>
        <time>2020-06-07T10:04:26Z</time>
      </trkpt>
      <trkpt lat="47.266" lon="-1.61749">
        <ele>34.2</ele>
        <time>2020-06-07T10:04:27Z</time>
      </trkpt>
      <trkpt lat="47.26601" lon="-1.6175">
        <ele>34.2</ele>
        <time>2020-06-07T10:04:28Z</time>
      </trkpt>
      <trkpt lat="47.26601" lon="-1.6175">
        <ele>34.1</ele>
        <time>2020-06-07T10:04:29Z</time>
      </trkpt>
      <trkpt lat="47.26602" lon="-1.61751">
        <ele>34.1</ele>
        <time>2020-06-07T10:04:30Z</time>
      </trkpt>
      <trkpt lat="47.26603" lon="-1.61752">
        <ele>34.1</ele>
        <time>2020-06-07T10:04:31Z</time>
      </trkpt>
      <trkpt lat="47.26604" lon="-1.61752">
        <ele>34.1</ele>
        <time>2020-06-07T10:04:32Z</time>
      </trkpt>
      <trkpt lat="47.26605" lon="-1.61753">
        <ele>34.1</ele>
        <time>2020-06-07T10:04:33Z</time>
      </trkpt>
      <trkpt lat="47.26606" lon="-1.61754">
        <ele>34</ele>
        <time>2020-06-07T10:04:34Z</time>
      </trkpt>
      <trkpt lat="47.26607" lon="-1.61754">
        <ele>34</ele>
        <time>2020-06-07T10:04:35Z</time>
      </trkpt>
      <trkpt lat="47.26608" lon="-1.61755">
        <ele>34</ele>
        <time>2020-06-07T10:04:36Z</time>
      </trkpt>
      <trkpt lat="47.26609" lon="-1.61755">
        <ele>34</ele>
        <time>2020-06-07T10:04:37Z</time>
      </trkpt>
      <trkpt lat="47.26609" lon="-1.61756">
        <ele>33.9</ele>
        <time>2020-06-07T10:04:38Z</time>
      </trkpt>
      <trkpt lat="47.2661" lon="-1.61756">
        <ele>33.9</ele>
        <time>2020-06-07T10:04:39Z</time>
      </trkpt>
      <trkpt lat="47.2661" lon="-1.61757">
        <ele>33.9</ele>
        <time>2020-06-07T10:04:40Z</time>
      </trkpt>
      <trkpt lat="47.26611" lon="-1.61757">
        <ele>33.9</ele>
        <time>2020-06-07T10:04:41Z</time>
      </trkpt>
      <trkpt lat="47.26611" lon="-1.61757">
        <ele>33.9</ele>
        <time>2020-06-07T10:04:42Z</time>
      </trkpt>
      <trkpt lat="47.26612" lon="-1.61758">
        <ele>33.9</ele>
        <time>2020-06-07T10:04:43Z</time>
      </trkpt>
      <trkpt lat="47.26612" lon="-1.61758">
        <ele>33.9</ele>
        <time>2020-06-07T10:04:44Z</time>
      </trkpt>
      <trkpt lat="47.26612" lon="-1.61758">
        <ele>33.9</ele>
        <time>2020-06-07T10:04:45Z</time>
      </trkpt>
      <trkpt lat="47.26612" lon="-1.61758">
        <ele>33.9</ele>
        <time>2020-06-07T10:04:46Z</time>
      </trkpt>
      <trkpt lat="47.26612" lon="-1.61758">
        <ele>33.9</ele>
        <time>2020-06-07T10:04:47Z</time>
      </trkpt>
      <trkpt lat="47.26613" lon="-1.61758">
        <ele>33.9</ele>
        <time>2020-06-07T10:04:48Z</time>
      </trkpt>
      <trkpt lat="47.26613" lon="-1.61758">
        <ele>33.9</ele>
        <time>2020-06-07T10:04:49Z</time>
      </trkpt>
      <trkpt lat="47.26613" lon="-1.61758">
        <ele>33.9</ele>
        <time>2020-06-07T10:04:50Z</time>
      </trkpt>
      <trkpt lat="47.26613" lon="-1.61758">
        <ele>33.8</ele>
        <time>2020-06-07T10:04:51Z</time>
      </trkpt>
      <trkpt lat="47.26613" lon="-1.61758">
        <ele>33.8</ele>
        <time>2020-06-07T10:04:52Z</time>
      </trkpt>
      <trkpt lat="47.26613" lon="-1.61758">
        <ele>33.8</ele>
        <time>2020-06-07T10:04:53Z</time>
      </trkpt>
      <trkpt lat="47.26613" lon="-1.61758">
        <ele>33.8</ele>
        <time>2020-06-07T10:04:54Z</time>
      </trkpt>
      <trkpt lat="47.26613" lon="-1.61758">
        <ele>33.8</ele>
        <time>2020-06-07T10:04:55Z</time>
      </trkpt>
      <trkpt lat="47.26613" lon="-1.61758">
        <ele>33.8</ele>
        <time>2020-06-07T10:04:56Z</time>
      </trkpt>
      <trkpt lat="47.26613" lon="-1.61758">
        <ele>33.8</ele>
        <time>2020-06-07T10:04:57Z</time>
      </trkpt>
      <trkpt lat="47.26613" lon="-1.61758">
        <ele>33.8</ele>
        <time>2020-06-07T10:04:58Z</time>
      </trkpt>
      <trkpt lat="47.26613" lon="-1.61758">
        <ele>33.8</ele>
        <time>2020-06-07T10:04:59Z</time>
      </trkpt>
      <trkpt lat="47.26613" lon="-1.61758">
        <ele>33.8</ele>
        <time>2020-06-07T10:05:00Z</time>
      </trkpt>
      <trkpt lat="47.26613" lon="-1.61758">
        <ele>33.8</ele>
        <time>2020-06-07T10:05:01Z</time>
      </trkpt>
      <trkpt lat="47.26613" lon="-1.61758">
        <ele>33.8</ele>
        <time>2020-06-07T10:05:02Z</time>
      </trkpt>
      <trkpt lat="47.26613" lon="-1.61758">
        <ele>33.8</ele>
        <time>2020-06-07T10:05:03Z</time>
      </trkpt>
      <trkpt lat="47.26613" lon="-1.61758">
        <ele>33.8</ele>
        <time>2020-06-07T10:05:04Z</time>
      </trkpt>
      <trkpt lat="47.26613" lon="-1.61758">
        <ele>33.8</ele>
        <time>2020-06-07T10:05:05Z</time>
      </trkpt>
      <trkpt lat="47.26613" lon="-1.61758">
        <ele>33.8</ele>
        <time>2020-06-07T10:05:06Z</time>
      </trkpt>
      <trkpt lat="47.26614" lon="-1.61759">
        <ele>33.8</ele>
        <time>2020-06-07T10:05:07Z</time>
      </trkpt>
      <trkpt lat="47.26614" lon="-1.61759">
        <ele>33.8</ele>
        <time>2020-06-07T10:05:08Z</time>
      </trkpt>
      <trkpt lat="47.26615" lon="-1.61759">
        <ele>33.8</ele>
        <time>2020-06-07T10:05:09Z</time>
      </trkpt>
      <trkpt lat="47.26615" lon="-1.61759">
        <ele>33.8</ele>
        <time>2020-06-07T10:05:10Z</time>
      </trkpt>
      <trkpt lat="47.26615" lon="-1.61759">
        <ele>33.8</ele>
        <time>2020-06-07T10:05:11Z</time>
      </trkpt>
      <trkpt lat="47.26615" lon="-1.61759">
        <ele>33.8</ele>
        <time>2020-06-07T10:05:12Z</time>
      </trkpt>
      <trkpt lat="47.26616" lon="-1.61759">
        <ele>33.7</ele>
        <time>2020-06-07T10:05:13Z</time>
      </trkpt>
      <trkpt lat="47.26616" lon="-1.61759">
        <ele>33.7</ele>
        <time>2020-06-07T10:05:14Z</time>
      </trkpt>
      <trkpt lat="47.26617" lon="-1.6176">
        <ele>33.7</ele>
        <time>2020-06-07T10:05:15Z</time>
      </trkpt>
      <trkpt lat="47.26618" lon="-1.6176">
        <ele>33.7</ele>
        <time>2020-06-07T10:05:16Z</time>
      </trkpt>
      <trkpt lat="47.26618" lon="-1.6176">
        <ele>33.6</ele>
        <time>2020-06-07T10:05:17Z</time>
      </trkpt>
      <trkpt lat="47.26619" lon="-1.61761">
        <ele>33.6</ele>
        <time>2020-06-07T10:05:18Z</time>
      </trkpt>
      <trkpt lat="47.26619" lon="-1.61761">
        <ele>33.6</ele>
        <time>2020-06-07T10:05:19Z</time>
      </trkpt>
      <trkpt lat="47.2662" lon="-1.61761">
        <ele>33.6</ele>
        <time>2020-06-07T10:05:20Z</time>
      </trkpt>
      <trkpt lat="47.26621" lon="-1.61761">
        <ele>33.6</ele>
        <time>2020-06-07T10:05:21Z</time>
      </trkpt>
      <trkpt lat="47.26621" lon="-1.61761">
        <ele>33.5</ele>
        <time>2020-06-07T10:05:22Z</time>
      </trkpt>
      <trkpt lat="47.26622" lon="-1.61762">
        <ele>33.5</ele>
        <time>2020-06-07T10:05:23Z</time>
      </trkpt>
      <trkpt lat="47.26623" lon="-1.61762">
        <ele>33.5</ele>
        <time>2020-06-07T10:05:24Z</time>
      </trkpt>
      <trkpt lat="47.26624" lon="-1.61762">
        <ele>33.4</ele>
        <time>2020-06-07T10:05:25Z</time>
      </trkpt>
      <trkpt lat="47.26625" lon="-1.61762">
        <ele>33.4</ele>
        <time>2020-06-07T10:05:26Z</time>
      </trkpt>
      <trkpt lat="47.26625" lon="-1.61763">
        <ele>33.4</ele>
        <time>2020-06-07T10:05:27Z</time>
      </trkpt>
      <trkpt lat="47.26626" lon="-1.61763">
        <ele>33.3</ele>
        <time>2020-06-07T10:05:28Z</time>
      </trkpt>
      <trkpt lat="47.26627" lon="-1.61763">
        <ele>33.3</ele>
        <time>2020-06-07T10:05:29Z</time>
      </trkpt>
      <trkpt lat="47.26628" lon="-1.61764">
        <ele>33.3</ele>
        <time>2020-06-07T10:05:30Z</time>
      </trkpt>
      <trkpt lat="47.26629" lon="-1.61764">
        <ele>33.2</ele>
        <time>2020-06-07T10:05:31Z</time>
      </trkpt>
      <trkpt lat="47.2663" lon="-1.61765">
        <ele>33.2</ele>
        <time>2020-06-07T10:05:32Z</time>
      </trkpt>
      <trkpt lat="47.26631" lon="-1.61765">
        <ele>33.2</ele>
        <time>2020-06-07T10:05:33Z</time>
      </trkpt>
      <trkpt lat="47.26631" lon="-1.61766">
        <ele>33.1</ele>
        <time>2020-06-07T10:05:34Z</time>
      </trkpt>
      <trkpt lat="47.26632" lon="-1.61766">
        <ele>33.1</ele>
        <time>2020-06-07T10:05:35Z</time>
      </trkpt>
      <trkpt lat="47.26633" lon="-1.61766">
        <ele>33.1</ele>
        <time>2020-06-07T10:05:36Z</time>
      </trkpt>
      <trkpt lat="47.26634" lon="-1.61767">
        <ele>33.1</ele>
        <time>2020-06-07T10:05:37Z</time>
      </trkpt>
      <trkpt lat="47.26635" lon="-1.61767">
        <ele>33</ele>
        <time>2020-06-07T10:05:38Z</time>
      </trkpt>
      <trkpt lat="47.26635" lon="-1.61768">
        <ele>33</ele>
        <time>2020-06-07T10:05:39Z</time>
      </trkpt>
      <trkpt lat="47.26636" lon="-1.61768">
        <ele>33</ele>
        <time>2020-06-07T10:05:40Z</time>
      </trkpt>
      <trkpt lat="47.26637" lon="-1.61769">
        <ele>33</ele>
        <time>2020-06-07T10:05:41Z</time>
      </trkpt>
      <trkpt lat="47.26638" lon="-1.61769">
        <ele>32.9</ele>
        <time>2020-06-07T10:05:42Z</time>
      </trkpt>
      <trkpt lat="47.26639" lon="-1.6177">
        <ele>32.9</ele>
        <time>2020-06-07T10:05:43Z</time>
      </trkpt>
      <trkpt lat="47.26639" lon="-1.6177">
        <ele>32.9</ele>
        <time>2020-06-07T10:05:44Z</time>
      </trkpt>
      <trkpt lat="47.2664" lon="-1.61771">
        <ele>32.9</ele>
        <time>2020-06-07T10:05:45Z</time>
      </trkpt>
      <trkpt lat="47.26641" lon="-1.61771">
        <ele>32.8</ele>
        <time>2020-06-07T10:05:46Z</time>
      </trkpt>
      <trkpt lat="47.26642" lon="-1.61772">
        <ele>32.8</ele>
        <time>2020-06-07T10:05:47Z</time>
      </trkpt>
      <trkpt lat="47.26642" lon="-1.61772">
        <ele>32.8</ele>
        <time>2020-06-07T10:05:48Z</time>
      </trkpt>
      <trkpt lat="47.26643" lon="-1.61772">
        <ele>32.7</ele>
        <time>2020-06-07T10:05:49Z</time>
      </trkpt>
      <trkpt lat="47.26644" lon="-1.61773">
        <ele>32.7</ele>
        <time>2020-06-07T10:05:50Z</time>
      </trkpt>
      <trkpt lat="47.26645" lon="-1.61773">
        <ele>32.7</ele>
        <time>2020-06-07T10:05:51Z</time>
      </trkpt>
      <trkpt lat="47.26646" lon="-1.61773">
        <ele>32.6</ele>
        <time>2020-06-07T10:05:52Z</time>
      </trkpt>
      <trkpt lat="47.26646" lon="-1.61774">
        <ele>32.6</ele>
        <time>2020-06-07T10:05:53Z</time>
      </trkpt>
      <trkpt lat="47.26647" lon="-1.61774">
        <ele>32.6</ele>
        <time>2020-06-07T10:05:54Z</time>
      </trkpt>
      <trkpt lat="47.26648" lon="-1.61775">
        <ele>32.5</ele>
        <time>2020-06-07T10:05:55Z</time>
      </trkpt>
      <trkpt lat="47.26649" lon="-1.61775">
        <ele>32.5</ele>
        <time>2020-06-07T10:05:56Z</time>
      </trkpt>
      <trkpt lat="47.2665" lon="-1.61775">
        <ele>32.5</ele>
        <time>2020-06-07T10:05:57Z</time>
      </trkpt>
      <trkpt lat="47.26651" lon="-1.61776">
        <ele>32.5</ele>
        <time>2020-06-07T10:05:58Z</time>
      </trkpt>
      <trkpt lat="47.26651" lon="-1.61776">
        <ele>32.4</ele>
        <time>2020-06-07T10:05:59Z</time>
      </trkpt>
      <trkpt lat="47.26652" lon="-1.61777">
        <ele>32.4</ele>
        <time>2020-06-07T10:06:00Z</time>
      </trkpt>
      <trkpt lat="47.26653" lon="-1.61778">
        <ele>32.4</ele>
        <time>2020-06-07T10:06:01Z</time>
      </trkpt>
      <trkpt lat="47.26654" lon="-1.61778">
        <ele>32.3</ele>
        <time>2020-06-07T10:06:02Z</time>
      </trkpt>
      <trkpt lat="47.26654" lon="-1.61779">
        <ele>32.3</ele>
        <time>2020-06-07T10:06:03Z</time>
      </trkpt>
      <trkpt lat="47.26655" lon="-1.61779">
        <ele>32.3</ele>
        <time>2020-06-07T10:06:04Z</time>
      </trkpt>
      <trkpt lat="47.26656" lon="-1.6178">
        <ele>32.3</ele>
        <time>2020-06-07T10:06:05Z</time>
      </trkpt>
      <trkpt lat="47.26656" lon="-1.61781">
        <ele>32.3</ele>
        <time>2020-06-07T10:06:06Z</time>
      </trkpt>
      <trkpt lat="47.26657" lon="-1.61781">
        <ele>32.3</ele>
        <time>2020-06-07T10:06:07Z</time>
      </trkpt>
      <trkpt lat="47.26658" lon="-1.61782">
        <ele>32.2</ele>
        <time>2020-06-07T10:06:08Z</time>
      </trkpt>
      <trkpt lat="47.26658" lon="-1.61783">
        <ele>32.2</ele>
        <time>2020-06-07T10:06:09Z</time>
      </trkpt>
      <trkpt lat="47.26659" lon="-1.61783">
        <ele>32.2</ele>
        <time>2020-06-07T10:06:10Z</time>
      </trkpt>
      <trkpt lat="47.2666" lon="-1.61784">
        <ele>32.1</ele>
        <time>2020-06-07T10:06:11Z</time>
      </trkpt>
      <trkpt lat="47.26661" lon="-1.61784">
        <ele>32.1</ele>
        <time>2020-06-07T10:06:12Z</time>
      </trkpt>
      <trkpt lat="47.26662" lon="-1.61785">
        <ele>32.1</ele>
        <time>2020-06-07T10:06:13Z</time>
      </trkpt>
      <trkpt lat="47.26663" lon="-1.61786">
        <ele>32</ele>
        <time>2020-06-07T10:06:14Z</time>
      </trkpt>
      <trkpt lat="47.26664" lon="-1.61786">
        <ele>32</ele>
        <time>2020-06-07T10:06:15Z</time>
      </trkpt>
      <trkpt lat="47.26665" lon="-1.61787">
        <ele>32</ele>
        <time>2020-06-07T10:06:16Z</time>
      </trkpt>
      <trkpt lat="47.26666" lon="-1.61787">
        <ele>31.9</ele>
        <time>2020-06-07T10:06:17Z</time>
      </trkpt>
      <trkpt lat="47.26667" lon="-1.61788">
        <ele>31.9</ele>
        <time>2020-06-07T10:06:18Z</time>
      </trkpt>
      <trkpt lat="47.26667" lon="-1.61788">
        <ele>31.9</ele>
        <time>2020-06-07T10:06:19Z</time>
      </trkpt>
      <trkpt lat="47.26668" lon="-1.61788">
        <ele>31.9</ele>
        <time>2020-06-07T10:06:20Z</time>
      </trkpt>
      <trkpt lat="47.26669" lon="-1.61789">
        <ele>31.9</ele>
        <time>2020-06-07T10:06:21Z</time>
      </trkpt>
      <trkpt lat="47.2667" lon="-1.61789">
        <ele>32</ele>
        <time>2020-06-07T10:06:22Z</time>
      </trkpt>
      <trkpt lat="47.2667" lon="-1.6179">
        <ele>32</ele>
        <time>2020-06-07T10:06:23Z</time>
      </trkpt>
      <trkpt lat="47.26671" lon="-1.6179">
        <ele>32</ele>
        <time>2020-06-07T10:06:24Z</time>
      </trkpt>
      <trkpt lat="47.26672" lon="-1.61791">
        <ele>32</ele>
        <time>2020-06-07T10:06:25Z</time>
      </trkpt>
      <trkpt lat="47.26673" lon="-1.61791">
        <ele>32</ele>
        <time>2020-06-07T10:06:26Z</time>
      </trkpt>
      <trkpt lat="47.26673" lon="-1.61792">
        <ele>32</ele>
        <time>2020-06-07T10:06:27Z</time>
      </trkpt>
      <trkpt lat="47.26674" lon="-1.61793">
        <ele>32</ele>
        <time>2020-06-07T10:06:28Z</time>
      </trkpt>
      <trkpt lat="47.26675" lon="-1.61793">
        <ele>32</ele>
        <time>2020-06-07T10:06:29Z</time>
      </trkpt>
      <trkpt lat="47.26676" lon="-1.61794">
        <ele>32</ele>
        <time>2020-06-07T10:06:30Z</time>
      </trkpt>
      <trkpt lat="47.26676" lon="-1.61794">
        <ele>32</ele>
        <time>2020-06-07T10:06:31Z</time>
      </trkpt>
      <trkpt lat="47.26677" lon="-1.61795">
        <ele>32</ele>
        <time>2020-06-07T10:06:32Z</time>
      </trkpt>
      <trkpt lat="47.26678" lon="-1.61795">
        <ele>32</ele>
        <time>2020-06-07T10:06:33Z</time>
      </trkpt>
      <trkpt lat="47.26679" lon="-1.61796">
        <ele>32</ele>
        <time>2020-06-07T10:06:34Z</time>
      </trkpt>
      <trkpt lat="47.26679" lon="-1.61796">
        <ele>32</ele>
        <time>2020-06-07T10:06:35Z</time>
      </trkpt>
      <trkpt lat="47.2668" lon="-1.61797">
        <ele>32</ele>
        <time>2020-06-07T10:06:36Z</time>
      </trkpt>
      <trkpt lat="47.26681" lon="-1.61797">
        <ele>32</ele>
        <time>2020-06-07T10:06:37Z</time>
      </trkpt>
      <trkpt lat="47.26681" lon="-1.61797">
        <ele>32</ele>
        <time>2020-06-07T10:06:38Z</time>
      </trkpt>
      <trkpt lat="47.26682" lon="-1.61797">
        <ele>32</ele>
        <time>2020-06-07T10:06:39Z</time>
      </trkpt>
      <trkpt lat="47.26683" lon="-1.61797">
        <ele>32</ele>
        <time>2020-06-07T10:06:40Z</time>
      </trkpt>
      <trkpt lat="47.26683" lon="-1.61796">
        <ele>32</ele>
        <time>2020-06-07T10:06:41Z</time>
      </trkpt>
      <trkpt lat="47.26684" lon="-1.61796">
        <ele>32</ele>
        <time>2020-06-07T10:06:42Z</time>
      </trkpt>
      <trkpt lat="47.26684" lon="-1.61796">
        <ele>32</ele>
        <time>2020-06-07T10:06:43Z</time>
      </trkpt>
      <trkpt lat="47.26685" lon="-1.61796">
        <ele>32</ele>
        <time>2020-06-07T10:06:44Z</time>
      </trkpt>
      <trkpt lat="47.26686" lon="-1.61795">
        <ele>32</ele>
        <time>2020-06-07T10:06:45Z</time>
      </trkpt>
      <trkpt lat="47.26686" lon="-1.61795">
        <ele>32</ele>
        <time>2020-06-07T10:06:46Z</time>
      </trkpt>
      <trkpt lat="47.26687" lon="-1.61795">
        <ele>32</ele>
        <time>2020-06-07T10:06:47Z</time>
      </trkpt>
      <trkpt lat="47.26688" lon="-1.61795">
        <ele>32</ele>
        <time>2020-06-07T10:06:48Z</time>
      </trkpt>
      <trkpt lat="47.26688" lon="-1.61795">
        <ele>32</ele>
        <time>2020-06-07T10:06:49Z</time>
      </trkpt>
      <trkpt lat="47.26689" lon="-1.61795">
        <ele>32</ele>
        <time>2020-06-07T10:06:50Z</time>
      </trkpt>
      <trkpt lat="47.26689" lon="-1.61795">
        <ele>32</ele>
        <time>2020-06-07T10:06:51Z</time>
      </trkpt>
      <trkpt lat="47.26689" lon="-1.61795">
        <ele>32</ele>
        <time>2020-06-07T10:06:52Z</time>
      </trkpt>
      <trkpt lat="47.2669" lon="-1.61795">
        <ele>32</ele>
        <time>2020-06-07T10:06:53Z</time>
      </trkpt>
      <trkpt lat="47.2669" lon="-1.61794">
        <ele>32</ele>
        <time>2020-06-07T10:06:54Z</time>
      </trkpt>
      <trkpt lat="47.26689" lon="-1.61794">
        <ele>32</ele>
        <time>2020-06-07T10:06:55Z</time>
      </trkpt>
      <trkpt lat="47.26689" lon="-1.61794">
        <ele>32</ele>
        <time>2020-06-07T10:06:56Z</time>
      </trkpt>
      <trkpt lat="47.26689" lon="-1.61794">
        <ele>32</ele>
        <time>2020-06-07T10:06:57Z</time>
      </trkpt>
      <trkpt lat="47.26688" lon="-1.61793">
        <ele>32</ele>
        <time>2020-06-07T10:06:58Z</time>
      </trkpt>
      <trkpt lat="47.26688" lon="-1.61793">
        <ele>32</ele>
        <time>2020-06-07T10:06:59Z</time>
      </trkpt>
      <trkpt lat="47.26687" lon="-1.61792">
        <ele>32</ele>
        <time>2020-06-07T10:07:00Z</time>
      </trkpt>
      <trkpt lat="47.26686" lon="-1.61791">
        <ele>32</ele>
        <time>2020-06-07T10:07:01Z</time>
      </trkpt>
      <trkpt lat="47.26686" lon="-1.61791">
        <ele>32</ele>
        <time>2020-06-07T10:07:02Z</time>
      </trkpt>
      <trkpt lat="47.26685" lon="-1.61791">
        <ele>32</ele>
        <time>2020-06-07T10:07:03Z</time>
      </trkpt>
      <trkpt lat="47.26685" lon="-1.6179">
        <ele>32</ele>
        <time>2020-06-07T10:07:04Z</time>
      </trkpt>
      <trkpt lat="47.26685" lon="-1.6179">
        <ele>32</ele>
        <time>2020-06-07T10:07:05Z</time>
      </trkpt>
      <trkpt lat="47.26685" lon="-1.6179">
        <ele>32</ele>
        <time>2020-06-07T10:07:06Z</time>
      </trkpt>
      <trkpt lat="47.26685" lon="-1.6179">
        <ele>32</ele>
        <time>2020-06-07T10:07:07Z</time>
      </trkpt>
      <trkpt lat="47.26685" lon="-1.6179">
        <ele>32</ele>
        <time>2020-06-07T10:07:08Z</time>
      </trkpt>
      <trkpt lat="47.26685" lon="-1.6179">
        <ele>32</ele>
        <time>2020-06-07T10:07:09Z</time>
      </trkpt>
      <trkpt lat="47.26685" lon="-1.6179">
        <ele>32</ele>
        <time>2020-06-07T10:07:10Z</time>
      </trkpt>
      <trkpt lat="47.26685" lon="-1.6179">
        <ele>32</ele>
        <time>2020-06-07T10:07:11Z</time>
      </trkpt>
      <trkpt lat="47.26684" lon="-1.6179">
        <ele>32</ele>
        <time>2020-06-07T10:07:12Z</time>
      </trkpt>
      <trkpt lat="47.26684" lon="-1.6179">
        <ele>32</ele>
        <time>2020-06-07T10:07:13Z</time>
      </trkpt>
      <trkpt lat="47.26684" lon="-1.6179">
        <ele>32</ele>
        <time>2020-06-07T10:07:14Z</time>
      </trkpt>
      <trkpt lat="47.26684" lon="-1.6179">
        <ele>32</ele>
        <time>2020-06-07T10:07:15Z</time>
      </trkpt>
      <trkpt lat="47.26684" lon="-1.6179">
        <ele>32</ele>
        <time>2020-06-07T10:07:16Z</time>
      </trkpt>
      <trkpt lat="47.26684" lon="-1.6179">
        <ele>32</ele>
        <time>2020-06-07T10:07:17Z</time>
      </trkpt>
      <trkpt lat="47.26684" lon="-1.6179">
        <ele>32</ele>
        <time>2020-06-07T10:07:18Z</time>
      </trkpt>
      <trkpt lat="47.26684" lon="-1.6179">
        <ele>32</ele>
        <time>2020-06-07T10:07:19Z</time>
      </trkpt>
      <trkpt lat="47.26684" lon="-1.6179">
        <ele>32</ele>
        <time>2020-06-07T10:07:20Z</time>
      </trkpt>
      <trkpt lat="47.26684" lon="-1.6179">
        <ele>32</ele>
        <time>2020-06-07T10:07:21Z</time>
      </trkpt>
      <trkpt lat="47.26684" lon="-1.6179">
        <ele>32</ele>
        <time>2020-06-07T10:07:22Z</time>
      </trkpt>
      <trkpt lat="47.26684" lon="-1.6179">
        <ele>32</ele>
        <time>2020-06-07T10:07:23Z</time>
      </trkpt>
      <trkpt lat="47.26684" lon="-1.6179">
        <ele>32</ele>
        <time>2020-06-07T10:07:24Z</time>
      </trkpt>
      <trkpt lat="47.26684" lon="-1.6179">
        <ele>32</ele>
        <time>2020-06-07T10:07:25Z</time>
      </trkpt>
      <trkpt lat="47.26684" lon="-1.6179">
        <ele>32</ele>
        <time>2020-06-07T10:07:26Z</time>
      </trkpt>
      <trkpt lat="47.26684" lon="-1.6179">
        <ele>32</ele>
        <time>2020-06-07T10:07:27Z</time>
      </trkpt>
      <trkpt lat="47.26684" lon="-1.6179">
        <ele>32</ele>
        <time>2020-06-07T10:07:28Z</time>
      </trkpt>
      <trkpt lat="47.26684" lon="-1.6179">
        <ele>32</ele>
        <time>2020-06-07T10:07:29Z</time>
      </trkpt>
      <trkpt lat="47.26684" lon="-1.6179">
        <ele>32</ele>
        <time>2020-06-07T10:07:30Z</time>
      </trkpt>
      <trkpt lat="47.26684" lon="-1.6179">
        <ele>32</ele>
        <time>2020-06-07T10:07:31Z</time>
      </trkpt>
      <trkpt lat="47.26684" lon="-1.6179">
        <ele>32</ele>
        <time>2020-06-07T10:07:32Z</time>
      </trkpt>
      <trkpt lat="47.26684" lon="-1.6179">
        <ele>32</ele>
        <time>2020-06-07T10:07:33Z</time>
      </trkpt>
      <trkpt lat="47.26684" lon="-1.6179">
        <ele>32</ele>
        <time>2020-06-07T10:07:34Z</time>
      </trkpt>
      <trkpt lat="47.26684" lon="-1.6179">
        <ele>32</ele>
        <time>2020-06-07T10:07:35Z</time>
      </trkpt>
      <trkpt lat="47.26684" lon="-1.6179">
        <ele>32</ele>
        <time>2020-06-07T10:07:36Z</time>
      </trkpt>
      <trkpt lat="47.26684" lon="-1.6179">
        <ele>32</ele>
        <time>2020-06-07T10:07:37Z</time>
      </trkpt>
      <trkpt lat="47.26684" lon="-1.6179">
        <ele>32</ele>
        <time>2020-06-07T10:07:38Z</time>
      </trkpt>
      <trkpt lat="47.26684" lon="-1.6179">
        <ele>32</ele>
        <time>2020-06-07T10:07:39Z</time>
      </trkpt>
      <trkpt lat="47.26684" lon="-1.6179">
        <ele>32</ele>
        <time>2020-06-07T10:07:40Z</time>
      </trkpt>
      <trkpt lat="47.26684" lon="-1.6179">
        <ele>32</ele>
        <time>2020-06-07T10:07:41Z</time>
      </trkpt>
      <trkpt lat="47.26684" lon="-1.6179">
        <ele>32</ele>
        <time>2020-06-07T10:07:42Z</time>
      </trkpt>
      <trkpt lat="47.26684" lon="-1.6179">
        <ele>32</ele>
        <time>2020-06-07T10:07:43Z</time>
      </trkpt>
      <trkpt lat="47.26684" lon="-1.6179">
        <ele>32</ele>
        <time>2020-06-07T10:07:44Z</time>
      </trkpt>
      <trkpt lat="47.26684" lon="-1.6179">
        <ele>32</ele>
        <time>2020-06-07T10:07:45Z</time>
      </trkpt>
      <trkpt lat="47.26684" lon="-1.6179">
        <ele>32</ele>
        <time>2020-06-07T10:07:46Z</time>
      </trkpt>
      <trkpt lat="47.26684" lon="-1.6179">
        <ele>32</ele>
        <time>2020-06-07T10:07:47Z</time>
      </trkpt>
      <trkpt lat="47.26684" lon="-1.6179">
        <ele>32</ele>
        <time>2020-06-07T10:07:48Z</time>
      </trkpt>
      <trkpt lat="47.26684" lon="-1.6179">
        <ele>32</ele>
        <time>2020-06-07T10:07:49Z</time>
      </trkpt>
      <trkpt lat="47.26684" lon="-1.6179">
        <ele>32</ele>
        <time>2020-06-07T10:07:50Z</time>
      </trkpt>
      <trkpt lat="47.26684" lon="-1.6179">
        <ele>32</ele>
        <time>2020-06-07T10:07:51Z</time>
      </trkpt>
      <trkpt lat="47.26684" lon="-1.6179">
        <ele>32</ele>
        <time>2020-06-07T10:07:52Z</time>
      </trkpt>
      <trkpt lat="47.26684" lon="-1.6179">
        <ele>32</ele>
        <time>2020-06-07T10:07:53Z</time>
      </trkpt>
      <trkpt lat="47.26684" lon="-1.6179">
        <ele>32</ele>
        <time>2020-06-07T10:07:54Z</time>
      </trkpt>
      <trkpt lat="47.26684" lon="-1.6179">
        <ele>32</ele>
        <time>2020-06-07T10:07:55Z</time>
      </trkpt>
      <trkpt lat="47.26684" lon="-1.6179">
        <ele>32</ele>
        <time>2020-06-07T10:07:56Z</time>
      </trkpt>
      <trkpt lat="47.26684" lon="-1.6179">
        <ele>32</ele>
        <time>2020-06-07T10:07:57Z</time>
      </trkpt>
      <trkpt lat="47.26684" lon="-1.6179">
        <ele>32</ele>
        <time>2020-06-07T10:07:58Z</time>
      </trkpt>
      <trkpt lat="47.26684" lon="-1.6179">
        <ele>32</ele>
        <time>2020-06-07T10:07:59Z</time>
      </trkpt>
      <trkpt lat="47.26684" lon="-1.6179">
        <ele>32</ele>
        <time>2020-06-07T10:08:00Z</time>
      </trkpt>
      <trkpt lat="47.26684" lon="-1.6179">
        <ele>32</ele>
        <time>2020-06-07T10:08:01Z</time>
      </trkpt>
      <trkpt lat="47.26684" lon="-1.6179">
        <ele>32</ele>
        <time>2020-06-07T10:08:02Z</time>
      </trkpt>
      <trkpt lat="47.26684" lon="-1.6179">
        <ele>32</ele>
        <time>2020-06-07T10:08:03Z</time>
      </trkpt>
      <trkpt lat="47.26684" lon="-1.6179">
        <ele>32</ele>
        <time>2020-06-07T10:08:04Z</time>
      </trkpt>
      <trkpt lat="47.26684" lon="-1.6179">
        <ele>32</ele>
        <time>2020-06-07T10:08:05Z</time>
      </trkpt>
      <trkpt lat="47.26684" lon="-1.6179">
        <ele>32</ele>
        <time>2020-06-07T10:08:06Z</time>
      </trkpt>
      <trkpt lat="47.26684" lon="-1.6179">
        <ele>32</ele>
        <time>2020-06-07T10:08:07Z</time>
      </trkpt>
      <trkpt lat="47.26684" lon="-1.6179">
        <ele>32</ele>
        <time>2020-06-07T10:08:08Z</time>
      </trkpt>
      <trkpt lat="47.26684" lon="-1.6179">
        <ele>32</ele>
        <time>2020-06-07T10:08:09Z</time>
      </trkpt>
      <trkpt lat="47.26684" lon="-1.6179">
        <ele>32</ele>
        <time>2020-06-07T10:08:10Z</time>
      </trkpt>
      <trkpt lat="47.26684" lon="-1.6179">
        <ele>32</ele>
        <time>2020-06-07T10:08:11Z</time>
      </trkpt>
      <trkpt lat="47.26684" lon="-1.6179">
        <ele>32</ele>
        <time>2020-06-07T10:08:12Z</time>
      </trkpt>
      <trkpt lat="47.26684" lon="-1.6179">
        <ele>32</ele>
        <time>2020-06-07T10:08:13Z</time>
      </trkpt>
      <trkpt lat="47.26684" lon="-1.6179">
        <ele>32</ele>
        <time>2020-06-07T10:08:14Z</time>
      </trkpt>
      <trkpt lat="47.26684" lon="-1.6179">
        <ele>32</ele>
        <time>2020-06-07T10:08:15Z</time>
      </trkpt>
      <trkpt lat="47.26684" lon="-1.6179">
        <ele>32</ele>
        <time>2020-06-07T10:08:16Z</time>
      </trkpt>
      <trkpt lat="47.26684" lon="-1.6179">
        <ele>32</ele>
        <time>2020-06-07T10:08:17Z</time>
      </trkpt>
      <trkpt lat="47.26684" lon="-1.6179">
        <ele>32</ele>
        <time>2020-06-07T10:08:18Z</time>
      </trkpt>
      <trkpt lat="47.26684" lon="-1.6179">
        <ele>32</ele>
        <time>2020-06-07T10:08:19Z</time>
      </trkpt>
      <trkpt lat="47.26684" lon="-1.6179">
        <ele>32</ele>
        <time>2020-06-07T10:08:20Z</time>
      </trkpt>
      <trkpt lat="47.26684" lon="-1.6179">
        <ele>32</ele>
        <time>2020-06-07T10:08:21Z</time>
      </trkpt>
      <trkpt lat="47.26684" lon="-1.6179">
        <ele>32</ele>
        <time>2020-06-07T10:08:22Z</time>
      </trkpt>
      <trkpt lat="47.26684" lon="-1.6179">
        <ele>32</ele>
        <time>2020-06-07T10:08:23Z</time>
      </trkpt>
      <trkpt lat="47.26684" lon="-1.6179">
        <ele>32</ele>
        <time>2020-06-07T10:08:24Z</time>
      </trkpt>
      <trkpt lat="47.26684" lon="-1.6179">
        <ele>32</ele>
        <time>2020-06-07T10:08:25Z</time>
      </trkpt>
      <trkpt lat="47.26684" lon="-1.6179">
        <ele>32</ele>
        <time>2020-06-07T10:08:26Z</time>
      </trkpt>
      <trkpt lat="47.26684" lon="-1.6179">
        <ele>32</ele>
        <time>2020-06-07T10:08:27Z</time>
      </trkpt>
      <trkpt lat="47.26684" lon="-1.6179">
        <ele>32</ele>
        <time>2020-06-07T10:08:28Z</time>
      </trkpt>
      <trkpt lat="47.26684" lon="-1.6179">
        <ele>32</ele>
        <time>2020-06-07T10:08:29Z</time>
      </trkpt>
      <trkpt lat="47.26684" lon="-1.6179">
        <ele>32</ele>
        <time>2020-06-07T10:08:30Z</time>
      </trkpt>
      <trkpt lat="47.26684" lon="-1.6179">
        <ele>32</ele>
        <time>2020-06-07T10:08:31Z</time>
      </trkpt>
      <trkpt lat="47.26684" lon="-1.6179">
        <ele>32</ele>
        <time>2020-06-07T10:08:32Z</time>
      </trkpt>
      <trkpt lat="47.26684" lon="-1.6179">
        <ele>32</ele>
        <time>2020-06-07T10:08:33Z</time>
      </trkpt>
      <trkpt lat="47.26684" lon="-1.6179">
        <ele>32</ele>
        <time>2020-06-07T10:08:34Z</time>
      </trkpt>
      <trkpt lat="47.26684" lon="-1.6179">
        <ele>32</ele>
        <time>2020-06-07T10:08:35Z</time>
      </trkpt>
      <trkpt lat="47.26684" lon="-1.6179">
        <ele>32</ele>
        <time>2020-06-07T10:08:36Z</time>
      </trkpt>
      <trkpt lat="47.26684" lon="-1.6179">
        <ele>32</ele>
        <time>2020-06-07T10:08:37Z</time>
      </trkpt>
      <trkpt lat="47.26684" lon="-1.6179">
        <ele>32</ele>
        <time>2020-06-07T10:08:38Z</time>
      </trkpt>
      <trkpt lat="47.26684" lon="-1.6179">
        <ele>32</ele>
        <time>2020-06-07T10:08:39Z</time>
      </trkpt>
      <trkpt lat="47.26684" lon="-1.6179">
        <ele>32</ele>
        <time>2020-06-07T10:08:40Z</time>
      </trkpt>
      <trkpt lat="47.26684" lon="-1.6179">
        <ele>32</ele>
        <time>2020-06-07T10:08:41Z</time>
      </trkpt>
      <trkpt lat="47.26684" lon="-1.6179">
        <ele>32</ele>
        <time>2020-06-07T10:08:42Z</time>
      </trkpt>
      <trkpt lat="47.26684" lon="-1.6179">
        <ele>32</ele>
        <time>2020-06-07T10:08:43Z</time>
      </trkpt>
      <trkpt lat="47.26684" lon="-1.6179">
        <ele>32</ele>
        <time>2020-06-07T10:08:44Z</time>
      </trkpt>
      <trkpt lat="47.26684" lon="-1.6179">
        <ele>32</ele>
        <time>2020-06-07T10:08:45Z</time>
      </trkpt>
      <trkpt lat="47.26684" lon="-1.6179">
        <ele>32</ele>
        <time>2020-06-07T10:08:46Z</time>
      </trkpt>
      <trkpt lat="47.26684" lon="-1.6179">
        <ele>32</ele>
        <time>2020-06-07T10:08:47Z</time>
      </trkpt>
      <trkpt lat="47.26684" lon="-1.6179">
        <ele>32</ele>
        <time>2020-06-07T10:08:48Z</time>
      </trkpt>
      <trkpt lat="47.26684" lon="-1.6179">
        <ele>32</ele>
        <time>2020-06-07T10:08:49Z</time>
      </trkpt>
      <trkpt lat="47.26684" lon="-1.6179">
        <ele>32</ele>
        <time>2020-06-07T10:08:50Z</time>
      </trkpt>
      <trkpt lat="47.26684" lon="-1.6179">
        <ele>32</ele>
        <time>2020-06-07T10:08:51Z</time>
      </trkpt>
      <trkpt lat="47.26684" lon="-1.6179">
        <ele>32</ele>
        <time>2020-06-07T10:08:52Z</time>
      </trkpt>
      <trkpt lat="47.26684" lon="-1.6179">
        <ele>32</ele>
        <time>2020-06-07T10:08:53Z</time>
      </trkpt>
      <trkpt lat="47.26684" lon="-1.6179">
        <ele>32</ele>
        <time>2020-06-07T10:08:54Z</time>
      </trkpt>
      <trkpt lat="47.26684" lon="-1.6179">
        <ele>32</ele>
        <time>2020-06-07T10:08:55Z</time>
      </trkpt>
      <trkpt lat="47.26684" lon="-1.6179">
        <ele>32</ele>
        <time>2020-06-07T10:08:56Z</time>
      </trkpt>
      <trkpt lat="47.26684" lon="-1.6179">
        <ele>32</ele>
        <time>2020-06-07T10:08:57Z</time>
      </trkpt>
      <trkpt lat="47.26684" lon="-1.6179">
        <ele>32</ele>
        <time>2020-06-07T10:08:58Z</time>
      </trkpt>
      <trkpt lat="47.26684" lon="-1.6179">
        <ele>32</ele>
        <time>2020-06-07T10:08:59Z</time>
      </trkpt>
      <trkpt lat="47.26684" lon="-1.6179">
        <ele>32</ele>
        <time>2020-06-07T10:09:00Z</time>
      </trkpt>
      <trkpt lat="47.26684" lon="-1.6179">
        <ele>32</ele>
        <time>2020-06-07T10:09:01Z</time>
      </trkpt>
      <trkpt lat="47.26684" lon="-1.6179">
        <ele>32</ele>
        <time>2020-06-07T10:09:02Z</time>
      </trkpt>
      <trkpt lat="47.26684" lon="-1.6179">
        <ele>32</ele>
        <time>2020-06-07T10:09:03Z</time>
      </trkpt>
      <trkpt lat="47.26684" lon="-1.6179">
        <ele>32</ele>
        <time>2020-06-07T10:09:04Z</time>
      </trkpt>
      <trkpt lat="47.26684" lon="-1.6179">
        <ele>32</ele>
        <time>2020-06-07T10:09:05Z</time>
      </trkpt>
      <trkpt lat="47.26684" lon="-1.6179">
        <ele>32</ele>
        <time>2020-06-07T10:09:06Z</time>
      </trkpt>
      <trkpt lat="47.26684" lon="-1.6179">
        <ele>32</ele>
        <time>2020-06-07T10:09:07Z</time>
      </trkpt>
      <trkpt lat="47.26684" lon="-1.6179">
        <ele>32</ele>
        <time>2020-06-07T10:09:08Z</time>
      </trkpt>
      <trkpt lat="47.26684" lon="-1.6179">
        <ele>32</ele>
        <time>2020-06-07T10:09:09Z</time>
      </trkpt>
      <trkpt lat="47.26684" lon="-1.6179">
        <ele>32</ele>
        <time>2020-06-07T10:09:10Z</time>
      </trkpt>
      <trkpt lat="47.26684" lon="-1.6179">
        <ele>32</ele>
        <time>2020-06-07T10:09:11Z</time>
      </trkpt>
      <trkpt lat="47.26684" lon="-1.6179">
        <ele>32</ele>
        <time>2020-06-07T10:09:12Z</time>
      </trkpt>
      <trkpt lat="47.26685" lon="-1.6179">
        <ele>32</ele>
        <time>2020-06-07T10:09:13Z</time>
      </trkpt>
      <trkpt lat="47.26685" lon="-1.6179">
        <ele>32</ele>
        <time>2020-06-07T10:09:14Z</time>
      </trkpt>
      <trkpt lat="47.26685" lon="-1.6179">
        <ele>32</ele>
        <time>2020-06-07T10:09:15Z</time>
      </trkpt>
      <trkpt lat="47.26685" lon="-1.6179">
        <ele>32</ele>
        <time>2020-06-07T10:09:16Z</time>
      </trkpt>
      <trkpt lat="47.26685" lon="-1.61791">
        <ele>32</ele>
        <time>2020-06-07T10:09:17Z</time>
      </trkpt>
      <trkpt lat="47.26685" lon="-1.61792">
        <ele>32</ele>
        <time>2020-06-07T10:09:18Z</time>
      </trkpt>
      <trkpt lat="47.26686" lon="-1.61793">
        <ele>32</ele>
        <time>2020-06-07T10:09:19Z</time>
      </trkpt>
      <trkpt lat="47.26687" lon="-1.61794">
        <ele>32</ele>
        <time>2020-06-07T10:09:20Z</time>
      </trkpt>
      <trkpt lat="47.26687" lon="-1.61794">
        <ele>32</ele>
        <time>2020-06-07T10:09:21Z</time>
      </trkpt>
      <trkpt lat="47.26688" lon="-1.61795">
        <ele>32</ele>
        <time>2020-06-07T10:09:22Z</time>
      </trkpt>
      <trkpt lat="47.26689" lon="-1.61795">
        <ele>32</ele>
        <time>2020-06-07T10:09:23Z</time>
      </trkpt>
      <trkpt lat="47.26689" lon="-1.61795">
        <ele>31.9</ele>
        <time>2020-06-07T10:09:24Z</time>
      </trkpt>
      <trkpt lat="47.2669" lon="-1.61795">
        <ele>31.9</ele>
        <time>2020-06-07T10:09:25Z</time>
      </trkpt>
      <trkpt lat="47.26691" lon="-1.61796">
        <ele>31.9</ele>
        <time>2020-06-07T10:09:26Z</time>
      </trkpt>
      <trkpt lat="47.26692" lon="-1.61796">
        <ele>31.9</ele>
        <time>2020-06-07T10:09:27Z</time>
      </trkpt>
      <trkpt lat="47.26693" lon="-1.61796">
        <ele>31.9</ele>
        <time>2020-06-07T10:09:28Z</time>
      </trkpt>
      <trkpt lat="47.26694" lon="-1.61796">
        <ele>31.9</ele>
        <time>2020-06-07T10:09:29Z</time>
      </trkpt>
      <trkpt lat="47.26695" lon="-1.61797">
        <ele>31.9</ele>
        <time>2020-06-07T10:09:30Z</time>
      </trkpt>
      <trkpt lat="47.26696" lon="-1.61797">
        <ele>31.9</ele>
        <time>2020-06-07T10:09:31Z</time>
      </trkpt>
      <trkpt lat="47.26697" lon="-1.61797">
        <ele>31.8</ele>
        <time>2020-06-07T10:09:32Z</time>
      </trkpt>
      <trkpt lat="47.26698" lon="-1.61798">
        <ele>31.8</ele>
        <time>2020-06-07T10:09:33Z</time>
      </trkpt>
      <trkpt lat="47.26699" lon="-1.61798">
        <ele>31.8</ele>
        <time>2020-06-07T10:09:34Z</time>
      </trkpt>
      <trkpt lat="47.267" lon="-1.61798">
        <ele>31.8</ele>
        <time>2020-06-07T10:09:35Z</time>
      </trkpt>
      <trkpt lat="47.26701" lon="-1.61799">
        <ele>31.7</ele>
        <time>2020-06-07T10:09:36Z</time>
      </trkpt>
      <trkpt lat="47.26702" lon="-1.61799">
        <ele>31.7</ele>
        <time>2020-06-07T10:09:37Z</time>
      </trkpt>
      <trkpt lat="47.26703" lon="-1.618">
        <ele>31.7</ele>
        <time>2020-06-07T10:09:38Z</time>
      </trkpt>
      <trkpt lat="47.26704" lon="-1.618">
        <ele>31.7</ele>
        <time>2020-06-07T10:09:39Z</time>
      </trkpt>
      <trkpt lat="47.26705" lon="-1.618">
        <ele>31.6</ele>
        <time>2020-06-07T10:09:40Z</time>
      </trkpt>
      <trkpt lat="47.26706" lon="-1.61801">
        <ele>31.6</ele>
        <time>2020-06-07T10:09:41Z</time>
      </trkpt>
      <trkpt lat="47.26707" lon="-1.61801">
        <ele>31.6</ele>
        <time>2020-06-07T10:09:42Z</time>
      </trkpt>
      <trkpt lat="47.26708" lon="-1.61802">
        <ele>31.5</ele>
        <time>2020-06-07T10:09:43Z</time>
      </trkpt>
      <trkpt lat="47.26709" lon="-1.61802">
        <ele>31.5</ele>
        <time>2020-06-07T10:09:44Z</time>
      </trkpt>
      <trkpt lat="47.2671" lon="-1.61803">
        <ele>31.4</ele>
        <time>2020-06-07T10:09:45Z</time>
      </trkpt>
      <trkpt lat="47.26711" lon="-1.61803">
        <ele>31.4</ele>
        <time>2020-06-07T10:09:46Z</time>
      </trkpt>
      <trkpt lat="47.26712" lon="-1.61804">
        <ele>31.3</ele>
        <time>2020-06-07T10:09:47Z</time>
      </trkpt>
      <trkpt lat="47.26713" lon="-1.61804">
        <ele>31.3</ele>
        <time>2020-06-07T10:09:48Z</time>
      </trkpt>
      <trkpt lat="47.26714" lon="-1.61805">
        <ele>31.2</ele>
        <time>2020-06-07T10:09:49Z</time>
      </trkpt>
      <trkpt lat="47.26715" lon="-1.61805">
        <ele>31.2</ele>
        <time>2020-06-07T10:09:50Z</time>
      </trkpt>
      <trkpt lat="47.26716" lon="-1.61806">
        <ele>31.1</ele>
        <time>2020-06-07T10:09:51Z</time>
      </trkpt>
      <trkpt lat="47.26717" lon="-1.61807">
        <ele>31.1</ele>
        <time>2020-06-07T10:09:52Z</time>
      </trkpt>
      <trkpt lat="47.26718" lon="-1.61807">
        <ele>31</ele>
        <time>2020-06-07T10:09:53Z</time>
      </trkpt>
      <trkpt lat="47.26719" lon="-1.61808">
        <ele>30.9</ele>
        <time>2020-06-07T10:09:54Z</time>
      </trkpt>
      <trkpt lat="47.2672" lon="-1.61809">
        <ele>30.9</ele>
        <time>2020-06-07T10:09:55Z</time>
      </trkpt>
      <trkpt lat="47.26721" lon="-1.61809">
        <ele>30.8</ele>
        <time>2020-06-07T10:09:56Z</time>
      </trkpt>
      <trkpt lat="47.26722" lon="-1.6181">
        <ele>30.7</ele>
        <time>2020-06-07T10:09:57Z</time>
      </trkpt>
      <trkpt lat="47.26722" lon="-1.61811">
        <ele>30.6</ele>
        <time>2020-06-07T10:09:58Z</time>
      </trkpt>
      <trkpt lat="47.26723" lon="-1.61812">
        <ele>30.5</ele>
        <time>2020-06-07T10:09:59Z</time>
      </trkpt>
      <trkpt lat="47.26724" lon="-1.61813">
        <ele>30.4</ele>
        <time>2020-06-07T10:10:00Z</time>
      </trkpt>
      <trkpt lat="47.26725" lon="-1.61813">
        <ele>30.3</ele>
        <time>2020-06-07T10:10:01Z</time>
      </trkpt>
      <trkpt lat="47.26726" lon="-1.61814">
        <ele>30.3</ele>
        <time>2020-06-07T10:10:02Z</time>
      </trkpt>
      <trkpt lat="47.26727" lon="-1.61815">
        <ele>30.2</ele>
        <time>2020-06-07T10:10:03Z</time>
      </trkpt>
      <trkpt lat="47.26727" lon="-1.61816">
        <ele>30.1</ele>
        <time>2020-06-07T10:10:04Z</time>
      </trkpt>
      <trkpt lat="47.26728" lon="-1.61816">
        <ele>30</ele>
        <time>2020-06-07T10:10:05Z</time>
      </trkpt>
      <trkpt lat="47.26729" lon="-1.61817">
        <ele>29.9</ele>
        <time>2020-06-07T10:10:06Z</time>
      </trkpt>
      <trkpt lat="47.26729" lon="-1.61818">
        <ele>29.8</ele>
        <time>2020-06-07T10:10:07Z</time>
      </trkpt>
      <trkpt lat="47.2673" lon="-1.61819">
        <ele>29.7</ele>
        <time>2020-06-07T10:10:08Z</time>
      </trkpt>
      <trkpt lat="47.26731" lon="-1.61819">
        <ele>29.6</ele>
        <time>2020-06-07T10:10:09Z</time>
      </trkpt>
      <trkpt lat="47.26731" lon="-1.6182">
        <ele>29.5</ele>
        <time>2020-06-07T10:10:10Z</time>
      </trkpt>
      <trkpt lat="47.26732" lon="-1.61821">
        <ele>29.4</ele>
        <time>2020-06-07T10:10:11Z</time>
      </trkpt>
      <trkpt lat="47.26733" lon="-1.61821">
        <ele>29.3</ele>
        <time>2020-06-07T10:10:12Z</time>
      </trkpt>
      <trkpt lat="47.26733" lon="-1.61822">
        <ele>29.2</ele>
        <time>2020-06-07T10:10:13Z</time>
      </trkpt>
      <trkpt lat="47.26734" lon="-1.61823">
        <ele>29.2</ele>
        <time>2020-06-07T10:10:14Z</time>
      </trkpt>
      <trkpt lat="47.26734" lon="-1.61823">
        <ele>29.1</ele>
        <time>2020-06-07T10:10:15Z</time>
      </trkpt>
      <trkpt lat="47.26735" lon="-1.61824">
        <ele>29</ele>
        <time>2020-06-07T10:10:16Z</time>
      </trkpt>
      <trkpt lat="47.26736" lon="-1.61825">
        <ele>28.9</ele>
        <time>2020-06-07T10:10:17Z</time>
      </trkpt>
      <trkpt lat="47.26736" lon="-1.61825">
        <ele>28.8</ele>
        <time>2020-06-07T10:10:18Z</time>
      </trkpt>
      <trkpt lat="47.26737" lon="-1.61826">
        <ele>28.7</ele>
        <time>2020-06-07T10:10:19Z</time>
      </trkpt>
      <trkpt lat="47.26737" lon="-1.61827">
        <ele>28.6</ele>
        <time>2020-06-07T10:10:20Z</time>
      </trkpt>
      <trkpt lat="47.26738" lon="-1.61827">
        <ele>28.5</ele>
        <time>2020-06-07T10:10:21Z</time>
      </trkpt>
      <trkpt lat="47.26738" lon="-1.61828">
        <ele>28.4</ele>
        <time>2020-06-07T10:10:22Z</time>
      </trkpt>
      <trkpt lat="47.26739" lon="-1.61829">
        <ele>28.3</ele>
        <time>2020-06-07T10:10:23Z</time>
      </trkpt>
      <trkpt lat="47.2674" lon="-1.61829">
        <ele>28.1</ele>
        <time>2020-06-07T10:10:24Z</time>
      </trkpt>
      <trkpt lat="47.2674" lon="-1.6183">
        <ele>28</ele>
        <time>2020-06-07T10:10:25Z</time>
      </trkpt>
      <trkpt lat="47.26741" lon="-1.61831">
        <ele>27.9</ele>
        <time>2020-06-07T10:10:26Z</time>
      </trkpt>
      <trkpt lat="47.26742" lon="-1.61832">
        <ele>27.8</ele>
        <time>2020-06-07T10:10:27Z</time>
      </trkpt>
      <trkpt lat="47.26743" lon="-1.61833">
        <ele>27.6</ele>
        <time>2020-06-07T10:10:28Z</time>
      </trkpt>
      <trkpt lat="47.26743" lon="-1.61833">
        <ele>27.5</ele>
        <time>2020-06-07T10:10:29Z</time>
      </trkpt>
      <trkpt lat="47.26744" lon="-1.61834">
        <ele>27.4</ele>
        <time>2020-06-07T10:10:30Z</time>
      </trkpt>
      <trkpt lat="47.26745" lon="-1.61835">
        <ele>27.4</ele>
        <time>2020-06-07T10:10:31Z</time>
      </trkpt>
      <trkpt lat="47.26746" lon="-1.61836">
        <ele>27.3</ele>
        <time>2020-06-07T10:10:32Z</time>
      </trkpt>
      <trkpt lat="47.26747" lon="-1.61837">
        <ele>27.3</ele>
        <time>2020-06-07T10:10:33Z</time>
      </trkpt>
      <trkpt lat="47.26747" lon="-1.61838">
        <ele>27.2</ele>
        <time>2020-06-07T10:10:34Z</time>
      </trkpt>
      <trkpt lat="47.26748" lon="-1.61839">
        <ele>27.2</ele>
        <time>2020-06-07T10:10:35Z</time>
      </trkpt>
      <trkpt lat="47.26749" lon="-1.6184">
        <ele>27.1</ele>
        <time>2020-06-07T10:10:36Z</time>
      </trkpt>
      <trkpt lat="47.26749" lon="-1.61841">
        <ele>27</ele>
        <time>2020-06-07T10:10:37Z</time>
      </trkpt>
      <trkpt lat="47.2675" lon="-1.61842">
        <ele>27</ele>
        <time>2020-06-07T10:10:38Z</time>
      </trkpt>
      <trkpt lat="47.26751" lon="-1.61843">
        <ele>27.1</ele>
        <time>2020-06-07T10:10:39Z</time>
      </trkpt>
      <trkpt lat="47.26751" lon="-1.61844">
        <ele>27.2</ele>
        <time>2020-06-07T10:10:40Z</time>
      </trkpt>
      <trkpt lat="47.26752" lon="-1.61845">
        <ele>27.3</ele>
        <time>2020-06-07T10:10:41Z</time>
      </trkpt>
      <trkpt lat="47.26752" lon="-1.61847">
        <ele>27.3</ele>
        <time>2020-06-07T10:10:42Z</time>
      </trkpt>
      <trkpt lat="47.26753" lon="-1.61848">
        <ele>27.4</ele>
        <time>2020-06-07T10:10:43Z</time>
      </trkpt>
      <trkpt lat="47.26753" lon="-1.61849">
        <ele>27.4</ele>
        <time>2020-06-07T10:10:44Z</time>
      </trkpt>
      <trkpt lat="47.26754" lon="-1.6185">
        <ele>27.5</ele>
        <time>2020-06-07T10:10:45Z</time>
      </trkpt>
      <trkpt lat="47.26754" lon="-1.61852">
        <ele>27.5</ele>
        <time>2020-06-07T10:10:46Z</time>
      </trkpt>
      <trkpt lat="47.26754" lon="-1.61853">
        <ele>27.6</ele>
        <time>2020-06-07T10:10:47Z</time>
      </trkpt>
      <trkpt lat="47.26755" lon="-1.61854">
        <ele>27.6</ele>
        <time>2020-06-07T10:10:48Z</time>
      </trkpt>
      <trkpt lat="47.26755" lon="-1.61856">
        <ele>27.6</ele>
        <time>2020-06-07T10:10:49Z</time>
      </trkpt>
      <trkpt lat="47.26755" lon="-1.61857">
        <ele>27.7</ele>
        <time>2020-06-07T10:10:50Z</time>
      </trkpt>
      <trkpt lat="47.26755" lon="-1.61858">
        <ele>27.7</ele>
        <time>2020-06-07T10:10:51Z</time>
      </trkpt>
      <trkpt lat="47.26755" lon="-1.6186">
        <ele>27.7</ele>
        <time>2020-06-07T10:10:52Z</time>
      </trkpt>
      <trkpt lat="47.26755" lon="-1.61861">
        <ele>27.7</ele>
        <time>2020-06-07T10:10:53Z</time>
      </trkpt>
      <trkpt lat="47.26755" lon="-1.61862">
        <ele>27.7</ele>
        <time>2020-06-07T10:10:54Z</time>
      </trkpt>
      <trkpt lat="47.26755" lon="-1.61864">
        <ele>27.7</ele>
        <time>2020-06-07T10:10:55Z</time>
      </trkpt>
      <trkpt lat="47.26755" lon="-1.61865">
        <ele>27.7</ele>
        <time>2020-06-07T10:10:56Z</time>
      </trkpt>
      <trkpt lat="47.26755" lon="-1.61866">
        <ele>27.7</ele>
        <time>2020-06-07T10:10:57Z</time>
      </trkpt>
      <trkpt lat="47.26755" lon="-1.61868">
        <ele>27.7</ele>
        <time>2020-06-07T10:10:58Z</time>
      </trkpt>
      <trkpt lat="47.26755" lon="-1.61869">
        <ele>27.6</ele>
        <time>2020-06-07T10:10:59Z</time>
      </trkpt>
      <trkpt lat="47.26755" lon="-1.6187">
        <ele>27.6</ele>
        <time>2020-06-07T10:11:00Z</time>
      </trkpt>
      <trkpt lat="47.26755" lon="-1.61871">
        <ele>27.6</ele>
        <time>2020-06-07T10:11:01Z</time>
      </trkpt>
      <trkpt lat="47.26755" lon="-1.61872">
        <ele>27.6</ele>
        <time>2020-06-07T10:11:02Z</time>
      </trkpt>
      <trkpt lat="47.26754" lon="-1.61873">
        <ele>27.5</ele>
        <time>2020-06-07T10:11:03Z</time>
      </trkpt>
      <trkpt lat="47.26754" lon="-1.61874">
        <ele>27.5</ele>
        <time>2020-06-07T10:11:04Z</time>
      </trkpt>
      <trkpt lat="47.26754" lon="-1.61875">
        <ele>27.5</ele>
        <time>2020-06-07T10:11:05Z</time>
      </trkpt>
      <trkpt lat="47.26753" lon="-1.61876">
        <ele>27.4</ele>
        <time>2020-06-07T10:11:06Z</time>
      </trkpt>
      <trkpt lat="47.26753" lon="-1.61877">
        <ele>27.4</ele>
        <time>2020-06-07T10:11:07Z</time>
      </trkpt>
      <trkpt lat="47.26753" lon="-1.61878">
        <ele>27.3</ele>
        <time>2020-06-07T10:11:08Z</time>
      </trkpt>
      <trkpt lat="47.26752" lon="-1.61879">
        <ele>27.2</ele>
        <time>2020-06-07T10:11:09Z</time>
      </trkpt>
      <trkpt lat="47.26752" lon="-1.6188">
        <ele>27.2</ele>
        <time>2020-06-07T10:11:10Z</time>
      </trkpt>
      <trkpt lat="47.26751" lon="-1.61882">
        <ele>27.1</ele>
        <time>2020-06-07T10:11:11Z</time>
      </trkpt>
      <trkpt lat="47.2675" lon="-1.61883">
        <ele>27</ele>
        <time>2020-06-07T10:11:12Z</time>
      </trkpt>
      <trkpt lat="47.2675" lon="-1.61884">
        <ele>27</ele>
        <time>2020-06-07T10:11:13Z</time>
      </trkpt>
      <trkpt lat="47.26749" lon="-1.61885">
        <ele>27.1</ele>
        <time>2020-06-07T10:11:14Z</time>
      </trkpt>
      <trkpt lat="47.26749" lon="-1.61886">
        <ele>27.2</ele>
        <time>2020-06-07T10:11:15Z</time>
      </trkpt>
      <trkpt lat="47.26748" lon="-1.61887">
        <ele>27.2</ele>
        <time>2020-06-07T10:11:16Z</time>
      </trkpt>
      <trkpt lat="47.26748" lon="-1.61889">
        <ele>27.3</ele>
        <time>2020-06-07T10:11:17Z</time>
      </trkpt>
      <trkpt lat="47.26747" lon="-1.6189">
        <ele>27.3</ele>
        <time>2020-06-07T10:11:18Z</time>
      </trkpt>
      <trkpt lat="47.26747" lon="-1.61892">
        <ele>27.4</ele>
        <time>2020-06-07T10:11:19Z</time>
      </trkpt>
      <trkpt lat="47.26746" lon="-1.61894">
        <ele>27.4</ele>
        <time>2020-06-07T10:11:20Z</time>
      </trkpt>
      <trkpt lat="47.26746" lon="-1.61895">
        <ele>27.5</ele>
        <time>2020-06-07T10:11:21Z</time>
      </trkpt>
      <trkpt lat="47.26746" lon="-1.61897">
        <ele>27.5</ele>
        <time>2020-06-07T10:11:22Z</time>
      </trkpt>
      <trkpt lat="47.26746" lon="-1.61899">
        <ele>27.5</ele>
        <time>2020-06-07T10:11:23Z</time>
      </trkpt>
      <trkpt lat="47.26745" lon="-1.61901">
        <ele>27.6</ele>
        <time>2020-06-07T10:11:24Z</time>
      </trkpt>
      <trkpt lat="47.26745" lon="-1.61902">
        <ele>27.6</ele>
        <time>2020-06-07T10:11:25Z</time>
      </trkpt>
      <trkpt lat="47.26745" lon="-1.61904">
        <ele>27.6</ele>
        <time>2020-06-07T10:11:26Z</time>
      </trkpt>
      <trkpt lat="47.26745" lon="-1.61906">
        <ele>27.6</ele>
        <time>2020-06-07T10:11:27Z</time>
      </trkpt>
      <trkpt lat="47.26745" lon="-1.61907">
        <ele>27.7</ele>
        <time>2020-06-07T10:11:28Z</time>
      </trkpt>
      <trkpt lat="47.26745" lon="-1.61909">
        <ele>27.7</ele>
        <time>2020-06-07T10:11:29Z</time>
      </trkpt>
      <trkpt lat="47.26745" lon="-1.6191">
        <ele>27.7</ele>
        <time>2020-06-07T10:11:30Z</time>
      </trkpt>
      <trkpt lat="47.26745" lon="-1.61912">
        <ele>27.7</ele>
        <time>2020-06-07T10:11:31Z</time>
      </trkpt>
      <trkpt lat="47.26745" lon="-1.61913">
        <ele>27.7</ele>
        <time>2020-06-07T10:11:32Z</time>
      </trkpt>
      <trkpt lat="47.26745" lon="-1.61915">
        <ele>27.7</ele>
        <time>2020-06-07T10:11:33Z</time>
      </trkpt>
      <trkpt lat="47.26745" lon="-1.61916">
        <ele>27.7</ele>
        <time>2020-06-07T10:11:34Z</time>
      </trkpt>
      <trkpt lat="47.26745" lon="-1.61918">
        <ele>27.7</ele>
        <time>2020-06-07T10:11:35Z</time>
      </trkpt>
      <trkpt lat="47.26745" lon="-1.61919">
        <ele>27.6</ele>
        <time>2020-06-07T10:11:36Z</time>
      </trkpt>
      <trkpt lat="47.26745" lon="-1.6192">
        <ele>27.6</ele>
        <time>2020-06-07T10:11:37Z</time>
      </trkpt>
      <trkpt lat="47.26745" lon="-1.61922">
        <ele>27.5</ele>
        <time>2020-06-07T10:11:38Z</time>
      </trkpt>
      <trkpt lat="47.26746" lon="-1.61923">
        <ele>27.5</ele>
        <time>2020-06-07T10:11:39Z</time>
      </trkpt>
      <trkpt lat="47.26746" lon="-1.61924">
        <ele>27.4</ele>
        <time>2020-06-07T10:11:40Z</time>
      </trkpt>
      <trkpt lat="47.26746" lon="-1.61926">
        <ele>27.4</ele>
        <time>2020-06-07T10:11:41Z</time>
      </trkpt>
      <trkpt lat="47.26746" lon="-1.61927">
        <ele>27.3</ele>
        <time>2020-06-07T10:11:42Z</time>
      </trkpt>
      <trkpt lat="47.26746" lon="-1.61928">
        <ele>27.3</ele>
        <time>2020-06-07T10:11:43Z</time>
      </trkpt>
      <trkpt lat="47.26746" lon="-1.6193">
        <ele>27.3</ele>
        <time>2020-06-07T10:11:44Z</time>
      </trkpt>
      <trkpt lat="47.26746" lon="-1.61931">
        <ele>27.2</ele>
        <time>2020-06-07T10:11:45Z</time>
      </trkpt>
      <trkpt lat="47.26746" lon="-1.61932">
        <ele>27.2</ele>
        <time>2020-06-07T10:11:46Z</time>
      </trkpt>
      <trkpt lat="47.26745" lon="-1.61934">
        <ele>27.2</ele>
        <time>2020-06-07T10:11:47Z</time>
      </trkpt>
      <trkpt lat="47.26745" lon="-1.61935">
        <ele>27.2</ele>
        <time>2020-06-07T10:11:48Z</time>
      </trkpt>
      <trkpt lat="47.26745" lon="-1.61936">
        <ele>27.3</ele>
        <time>2020-06-07T10:11:49Z</time>
      </trkpt>
      <trkpt lat="47.26745" lon="-1.61938">
        <ele>27.3</ele>
        <time>2020-06-07T10:11:50Z</time>
      </trkpt>
      <trkpt lat="47.26744" lon="-1.61939">
        <ele>27.3</ele>
        <time>2020-06-07T10:11:51Z</time>
      </trkpt>
      <trkpt lat="47.26744" lon="-1.61941">
        <ele>27.3</ele>
        <time>2020-06-07T10:11:52Z</time>
      </trkpt>
      <trkpt lat="47.26744" lon="-1.61942">
        <ele>27.3</ele>
        <time>2020-06-07T10:11:53Z</time>
      </trkpt>
      <trkpt lat="47.26744" lon="-1.61943">
        <ele>27.3</ele>
        <time>2020-06-07T10:11:54Z</time>
      </trkpt>
      <trkpt lat="47.26744" lon="-1.61945">
        <ele>27.2</ele>
        <time>2020-06-07T10:11:55Z</time>
      </trkpt>
      <trkpt lat="47.26743" lon="-1.61946">
        <ele>27.2</ele>
        <time>2020-06-07T10:11:56Z</time>
      </trkpt>
      <trkpt lat="47.26743" lon="-1.61948">
        <ele>27.2</ele>
        <time>2020-06-07T10:11:57Z</time>
      </trkpt>
      <trkpt lat="47.26743" lon="-1.61949">
        <ele>27.2</ele>
        <time>2020-06-07T10:11:58Z</time>
      </trkpt>
      <trkpt lat="47.26743" lon="-1.61951">
        <ele>27.1</ele>
        <time>2020-06-07T10:11:59Z</time>
      </trkpt>
      <trkpt lat="47.26743" lon="-1.61952">
        <ele>27.1</ele>
        <time>2020-06-07T10:12:00Z</time>
      </trkpt>
      <trkpt lat="47.26743" lon="-1.61954">
        <ele>27.1</ele>
        <time>2020-06-07T10:12:01Z</time>
      </trkpt>
      <trkpt lat="47.26743" lon="-1.61955">
        <ele>27.1</ele>
        <time>2020-06-07T10:12:02Z</time>
      </trkpt>
      <trkpt lat="47.26743" lon="-1.61956">
        <ele>27</ele>
        <time>2020-06-07T10:12:03Z</time>
      </trkpt>
      <trkpt lat="47.26743" lon="-1.61958">
        <ele>27</ele>
        <time>2020-06-07T10:12:04Z</time>
      </trkpt>
      <trkpt lat="47.26743" lon="-1.61959">
        <ele>27</ele>
        <time>2020-06-07T10:12:05Z</time>
      </trkpt>
      <trkpt lat="47.26743" lon="-1.6196">
        <ele>27</ele>
        <time>2020-06-07T10:12:06Z</time>
      </trkpt>
      <trkpt lat="47.26743" lon="-1.61961">
        <ele>26.9</ele>
        <time>2020-06-07T10:12:07Z</time>
      </trkpt>
      <trkpt lat="47.26743" lon="-1.61963">
        <ele>26.9</ele>
        <time>2020-06-07T10:12:08Z</time>
      </trkpt>
      <trkpt lat="47.26743" lon="-1.61964">
        <ele>26.9</ele>
        <time>2020-06-07T10:12:09Z</time>
      </trkpt>
      <trkpt lat="47.26743" lon="-1.61965">
        <ele>26.9</ele>
        <time>2020-06-07T10:12:10Z</time>
      </trkpt>
      <trkpt lat="47.26743" lon="-1.61967">
        <ele>26.9</ele>
        <time>2020-06-07T10:12:11Z</time>
      </trkpt>
      <trkpt lat="47.26743" lon="-1.61968">
        <ele>26.9</ele>
        <time>2020-06-07T10:12:12Z</time>
      </trkpt>
      <trkpt lat="47.26742" lon="-1.6197">
        <ele>26.9</ele>
        <time>2020-06-07T10:12:13Z</time>
      </trkpt>
      <trkpt lat="47.26742" lon="-1.61971">
        <ele>26.8</ele>
        <time>2020-06-07T10:12:14Z</time>
      </trkpt>
      <trkpt lat="47.26742" lon="-1.61973">
        <ele>26.8</ele>
        <time>2020-06-07T10:12:15Z</time>
      </trkpt>
      <trkpt lat="47.26742" lon="-1.61974">
        <ele>26.8</ele>
        <time>2020-06-07T10:12:16Z</time>
      </trkpt>
      <trkpt lat="47.26742" lon="-1.61976">
        <ele>26.8</ele>
        <time>2020-06-07T10:12:17Z</time>
      </trkpt>
      <trkpt lat="47.26742" lon="-1.61978">
        <ele>26.8</ele>
        <time>2020-06-07T10:12:18Z</time>
      </trkpt>
      <trkpt lat="47.26742" lon="-1.61979">
        <ele>26.7</ele>
        <time>2020-06-07T10:12:19Z</time>
      </trkpt>
      <trkpt lat="47.26742" lon="-1.61981">
        <ele>26.7</ele>
        <time>2020-06-07T10:12:20Z</time>
      </trkpt>
      <trkpt lat="47.26742" lon="-1.61982">
        <ele>26.7</ele>
        <time>2020-06-07T10:12:21Z</time>
      </trkpt>
      <trkpt lat="47.26742" lon="-1.61984">
        <ele>26.6</ele>
        <time>2020-06-07T10:12:22Z</time>
      </trkpt>
      <trkpt lat="47.26742" lon="-1.61985">
        <ele>26.6</ele>
        <time>2020-06-07T10:12:23Z</time>
      </trkpt>
      <trkpt lat="47.26742" lon="-1.61986">
        <ele>26.5</ele>
        <time>2020-06-07T10:12:24Z</time>
      </trkpt>
      <trkpt lat="47.26742" lon="-1.61988">
        <ele>26.5</ele>
        <time>2020-06-07T10:12:25Z</time>
      </trkpt>
      <trkpt lat="47.26742" lon="-1.61989">
        <ele>26.5</ele>
        <time>2020-06-07T10:12:26Z</time>
      </trkpt>
      <trkpt lat="47.26742" lon="-1.6199">
        <ele>26.4</ele>
        <time>2020-06-07T10:12:27Z</time>
      </trkpt>
      <trkpt lat="47.26742" lon="-1.61992">
        <ele>26.4</ele>
        <time>2020-06-07T10:12:28Z</time>
      </trkpt>
      <trkpt lat="47.26743" lon="-1.61993">
        <ele>26.3</ele>
        <time>2020-06-07T10:12:29Z</time>
      </trkpt>
      <trkpt lat="47.26743" lon="-1.61994">
        <ele>26.3</ele>
        <time>2020-06-07T10:12:30Z</time>
      </trkpt>
      <trkpt lat="47.26743" lon="-1.61996">
        <ele>26.2</ele>
        <time>2020-06-07T10:12:31Z</time>
      </trkpt>
      <trkpt lat="47.26743" lon="-1.61997">
        <ele>26.2</ele>
        <time>2020-06-07T10:12:32Z</time>
      </trkpt>
      <trkpt lat="47.26743" lon="-1.61998">
        <ele>26.2</ele>
        <time>2020-06-07T10:12:33Z</time>
      </trkpt>
      <trkpt lat="47.26743" lon="-1.62">
        <ele>26.1</ele>
        <time>2020-06-07T10:12:34Z</time>
      </trkpt>
      <trkpt lat="47.26743" lon="-1.62001">
        <ele>26.2</ele>
        <time>2020-06-07T10:12:35Z</time>
      </trkpt>
      <trkpt lat="47.26743" lon="-1.62003">
        <ele>26.2</ele>
        <time>2020-06-07T10:12:36Z</time>
      </trkpt>
      <trkpt lat="47.26743" lon="-1.62004">
        <ele>26.2</ele>
        <time>2020-06-07T10:12:37Z</time>
      </trkpt>
      <trkpt lat="47.26742" lon="-1.62006">
        <ele>26.2</ele>
        <time>2020-06-07T10:12:38Z</time>
      </trkpt>
      <trkpt lat="47.26742" lon="-1.62008">
        <ele>26.3</ele>
        <time>2020-06-07T10:12:39Z</time>
      </trkpt>
      <trkpt lat="47.26742" lon="-1.62009">
        <ele>26.3</ele>
        <time>2020-06-07T10:12:40Z</time>
      </trkpt>
      <trkpt lat="47.26742" lon="-1.62011">
        <ele>26.4</ele>
        <time>2020-06-07T10:12:41Z</time>
      </trkpt>
      <trkpt lat="47.26742" lon="-1.62013">
        <ele>26.4</ele>
        <time>2020-06-07T10:12:42Z</time>
      </trkpt>
      <trkpt lat="47.26741" lon="-1.62015">
        <ele>26.5</ele>
        <time>2020-06-07T10:12:43Z</time>
      </trkpt>
      <trkpt lat="47.26741" lon="-1.62016">
        <ele>26.5</ele>
        <time>2020-06-07T10:12:44Z</time>
      </trkpt>
      <trkpt lat="47.26741" lon="-1.62018">
        <ele>26.6</ele>
        <time>2020-06-07T10:12:45Z</time>
      </trkpt>
      <trkpt lat="47.26741" lon="-1.6202">
        <ele>26.6</ele>
        <time>2020-06-07T10:12:46Z</time>
      </trkpt>
      <trkpt lat="47.26741" lon="-1.62022">
        <ele>26.7</ele>
        <time>2020-06-07T10:12:47Z</time>
      </trkpt>
      <trkpt lat="47.2674" lon="-1.62023">
        <ele>26.7</ele>
        <time>2020-06-07T10:12:48Z</time>
      </trkpt>
      <trkpt lat="47.2674" lon="-1.62025">
        <ele>26.8</ele>
        <time>2020-06-07T10:12:49Z</time>
      </trkpt>
      <trkpt lat="47.2674" lon="-1.62027">
        <ele>26.8</ele>
        <time>2020-06-07T10:12:50Z</time>
      </trkpt>
      <trkpt lat="47.2674" lon="-1.62028">
        <ele>26.8</ele>
        <time>2020-06-07T10:12:51Z</time>
      </trkpt>
      <trkpt lat="47.2674" lon="-1.6203">
        <ele>26.9</ele>
        <time>2020-06-07T10:12:52Z</time>
      </trkpt>
      <trkpt lat="47.2674" lon="-1.62032">
        <ele>26.9</ele>
        <time>2020-06-07T10:12:53Z</time>
      </trkpt>
      <trkpt lat="47.2674" lon="-1.62033">
        <ele>26.9</ele>
        <time>2020-06-07T10:12:54Z</time>
      </trkpt>
      <trkpt lat="47.2674" lon="-1.62035">
        <ele>26.9</ele>
        <time>2020-06-07T10:12:55Z</time>
      </trkpt>
      <trkpt lat="47.2674" lon="-1.62036">
        <ele>27</ele>
        <time>2020-06-07T10:12:56Z</time>
      </trkpt>
      <trkpt lat="47.2674" lon="-1.62038">
        <ele>27</ele>
        <time>2020-06-07T10:12:57Z</time>
      </trkpt>
      <trkpt lat="47.2674" lon="-1.62039">
        <ele>27</ele>
        <time>2020-06-07T10:12:58Z</time>
      </trkpt>
      <trkpt lat="47.2674" lon="-1.6204">
        <ele>27</ele>
        <time>2020-06-07T10:12:59Z</time>
      </trkpt>
      <trkpt lat="47.2674" lon="-1.62042">
        <ele>27</ele>
        <time>2020-06-07T10:13:00Z</time>
      </trkpt>
      <trkpt lat="47.2674" lon="-1.62043">
        <ele>27</ele>
        <time>2020-06-07T10:13:01Z</time>
      </trkpt>
      <trkpt lat="47.2674" lon="-1.62044">
        <ele>27</ele>
        <time>2020-06-07T10:13:02Z</time>
      </trkpt>
      <trkpt lat="47.2674" lon="-1.62046">
        <ele>26.9</ele>
        <time>2020-06-07T10:13:03Z</time>
      </trkpt>
      <trkpt lat="47.2674" lon="-1.62047">
        <ele>26.9</ele>
        <time>2020-06-07T10:13:04Z</time>
      </trkpt>
      <trkpt lat="47.26741" lon="-1.62048">
        <ele>26.9</ele>
        <time>2020-06-07T10:13:05Z</time>
      </trkpt>
      <trkpt lat="47.26741" lon="-1.6205">
        <ele>26.9</ele>
        <time>2020-06-07T10:13:06Z</time>
      </trkpt>
      <trkpt lat="47.26741" lon="-1.62051">
        <ele>26.9</ele>
        <time>2020-06-07T10:13:07Z</time>
      </trkpt>
      <trkpt lat="47.26741" lon="-1.62053">
        <ele>26.9</ele>
        <time>2020-06-07T10:13:08Z</time>
      </trkpt>
      <trkpt lat="47.26741" lon="-1.62055">
        <ele>26.9</ele>
        <time>2020-06-07T10:13:09Z</time>
      </trkpt>
      <trkpt lat="47.26741" lon="-1.62056">
        <ele>26.9</ele>
        <time>2020-06-07T10:13:10Z</time>
      </trkpt>
      <trkpt lat="47.26741" lon="-1.62058">
        <ele>26.9</ele>
        <time>2020-06-07T10:13:11Z</time>
      </trkpt>
      <trkpt lat="47.26742" lon="-1.62059">
        <ele>26.9</ele>
        <time>2020-06-07T10:13:12Z</time>
      </trkpt>
      <trkpt lat="47.26742" lon="-1.62061">
        <ele>26.8</ele>
        <time>2020-06-07T10:13:13Z</time>
      </trkpt>
      <trkpt lat="47.26742" lon="-1.62062">
        <ele>26.8</ele>
        <time>2020-06-07T10:13:14Z</time>
      </trkpt>
      <trkpt lat="47.26743" lon="-1.62063">
        <ele>26.8</ele>
        <time>2020-06-07T10:13:15Z</time>
      </trkpt>
      <trkpt lat="47.26743" lon="-1.62065">
        <ele>26.7</ele>
        <time>2020-06-07T10:13:16Z</time>
      </trkpt>
      <trkpt lat="47.26744" lon="-1.62066">
        <ele>26.6</ele>
        <time>2020-06-07T10:13:17Z</time>
      </trkpt>
      <trkpt lat="47.26744" lon="-1.62067">
        <ele>26.6</ele>
        <time>2020-06-07T10:13:18Z</time>
      </trkpt>
      <trkpt lat="47.26745" lon="-1.62068">
        <ele>26.5</ele>
        <time>2020-06-07T10:13:19Z</time>
      </trkpt>
      <trkpt lat="47.26745" lon="-1.62069">
        <ele>26.5</ele>
        <time>2020-06-07T10:13:20Z</time>
      </trkpt>
      <trkpt lat="47.26745" lon="-1.62069">
        <ele>26.5</ele>
        <time>2020-06-07T10:13:21Z</time>
      </trkpt>
      <trkpt lat="47.26746" lon="-1.6207">
        <ele>26.4</ele>
        <time>2020-06-07T10:13:22Z</time>
      </trkpt>
      <trkpt lat="47.26746" lon="-1.62071">
        <ele>26.4</ele>
        <time>2020-06-07T10:13:23Z</time>
      </trkpt>
      <trkpt lat="47.26746" lon="-1.62071">
        <ele>26.4</ele>
        <time>2020-06-07T10:13:24Z</time>
      </trkpt>
      <trkpt lat="47.26746" lon="-1.62072">
        <ele>26.4</ele>
        <time>2020-06-07T10:13:25Z</time>
      </trkpt>
      <trkpt lat="47.26746" lon="-1.62072">
        <ele>26.4</ele>
        <time>2020-06-07T10:13:26Z</time>
      </trkpt>
      <trkpt lat="47.26746" lon="-1.62072">
        <ele>26.4</ele>
        <time>2020-06-07T10:13:27Z</time>
      </trkpt>
      <trkpt lat="47.26746" lon="-1.62072">
        <ele>26.4</ele>
        <time>2020-06-07T10:13:28Z</time>
      </trkpt>
      <trkpt lat="47.26746" lon="-1.62072">
        <ele>26.4</ele>
        <time>2020-06-07T10:13:29Z</time>
      </trkpt>
      <trkpt lat="47.26746" lon="-1.62072">
        <ele>26.4</ele>
        <time>2020-06-07T10:13:30Z</time>
      </trkpt>
      <trkpt lat="47.26746" lon="-1.62072">
        <ele>26.4</ele>
        <time>2020-06-07T10:13:31Z</time>
      </trkpt>
      <trkpt lat="47.26746" lon="-1.62072">
        <ele>26.4</ele>
        <time>2020-06-07T10:13:32Z</time>
      </trkpt>
      <trkpt lat="47.26747" lon="-1.62073">
        <ele>26.3</ele>
        <time>2020-06-07T10:13:33Z</time>
      </trkpt>
      <trkpt lat="47.26747" lon="-1.62073">
        <ele>26.3</ele>
        <time>2020-06-07T10:13:34Z</time>
      </trkpt>
      <trkpt lat="47.26747" lon="-1.62074">
        <ele>26.3</ele>
        <time>2020-06-07T10:13:35Z</time>
      </trkpt>
      <trkpt lat="47.26747" lon="-1.62074">
        <ele>26.3</ele>
        <time>2020-06-07T10:13:36Z</time>
      </trkpt>
      <trkpt lat="47.26748" lon="-1.62075">
        <ele>26.2</ele>
        <time>2020-06-07T10:13:37Z</time>
      </trkpt>
      <trkpt lat="47.26748" lon="-1.62076">
        <ele>26.2</ele>
        <time>2020-06-07T10:13:38Z</time>
      </trkpt>
      <trkpt lat="47.26748" lon="-1.62076">
        <ele>26.2</ele>
        <time>2020-06-07T10:13:39Z</time>
      </trkpt>
      <trkpt lat="47.26749" lon="-1.62077">
        <ele>26.1</ele>
        <time>2020-06-07T10:13:40Z</time>
      </trkpt>
      <trkpt lat="47.26749" lon="-1.62078">
        <ele>26.1</ele>
        <time>2020-06-07T10:13:41Z</time>
      </trkpt>
      <trkpt lat="47.26749" lon="-1.62079">
        <ele>26.1</ele>
        <time>2020-06-07T10:13:42Z</time>
      </trkpt>
      <trkpt lat="47.26749" lon="-1.6208">
        <ele>26.1</ele>
        <time>2020-06-07T10:13:43Z</time>
      </trkpt>
      <trkpt lat="47.26749" lon="-1.62081">
        <ele>26.1</ele>
        <time>2020-06-07T10:13:44Z</time>
      </trkpt>
      <trkpt lat="47.26749" lon="-1.62082">
        <ele>26.1</ele>
        <time>2020-06-07T10:13:45Z</time>
      </trkpt>
      <trkpt lat="47.26749" lon="-1.62083">
        <ele>26.1</ele>
        <time>2020-06-07T10:13:46Z</time>
      </trkpt>
      <trkpt lat="47.26749" lon="-1.62085">
        <ele>26.1</ele>
        <time>2020-06-07T10:13:47Z</time>
      </trkpt>
      <trkpt lat="47.26749" lon="-1.62086">
        <ele>26.1</ele>
        <time>2020-06-07T10:13:48Z</time>
      </trkpt>
      <trkpt lat="47.26749" lon="-1.62087">
        <ele>26.2</ele>
        <time>2020-06-07T10:13:49Z</time>
      </trkpt>
      <trkpt lat="47.26749" lon="-1.62088">
        <ele>26.2</ele>
        <time>2020-06-07T10:13:50Z</time>
      </trkpt>
      <trkpt lat="47.26749" lon="-1.62089">
        <ele>26.2</ele>
        <time>2020-06-07T10:13:51Z</time>
      </trkpt>
      <trkpt lat="47.26749" lon="-1.62088">
        <ele>26.2</ele>
        <time>2020-06-07T10:13:52Z</time>
      </trkpt>
      <trkpt lat="47.26749" lon="-1.62088">
        <ele>26.2</ele>
        <time>2020-06-07T10:13:53Z</time>
      </trkpt>
      <trkpt lat="47.26749" lon="-1.62088">
        <ele>26.2</ele>
        <time>2020-06-07T10:13:54Z</time>
      </trkpt>
      <trkpt lat="47.26749" lon="-1.62088">
        <ele>26.2</ele>
        <time>2020-06-07T10:13:55Z</time>
      </trkpt>
      <trkpt lat="47.26749" lon="-1.62088">
        <ele>26.2</ele>
        <time>2020-06-07T10:13:56Z</time>
      </trkpt>
      <trkpt lat="47.26749" lon="-1.62088">
        <ele>26.2</ele>
        <time>2020-06-07T10:13:57Z</time>
      </trkpt>
      <trkpt lat="47.26749" lon="-1.62088">
        <ele>26.2</ele>
        <time>2020-06-07T10:13:58Z</time>
      </trkpt>
      <trkpt lat="47.26749" lon="-1.62088">
        <ele>26.2</ele>
        <time>2020-06-07T10:13:59Z</time>
      </trkpt>
      <trkpt lat="47.26748" lon="-1.62088">
        <ele>26.2</ele>
        <time>2020-06-07T10:14:00Z</time>
      </trkpt>
      <trkpt lat="47.26748" lon="-1.62088">
        <ele>26.3</ele>
        <time>2020-06-07T10:14:01Z</time>
      </trkpt>
      <trkpt lat="47.26748" lon="-1.62088">
        <ele>26.3</ele>
        <time>2020-06-07T10:14:02Z</time>
      </trkpt>
      <trkpt lat="47.26747" lon="-1.62088">
        <ele>26.4</ele>
        <time>2020-06-07T10:14:03Z</time>
      </trkpt>
      <trkpt lat="47.26747" lon="-1.62089">
        <ele>26.5</ele>
        <time>2020-06-07T10:14:04Z</time>
      </trkpt>
      <trkpt lat="47.26746" lon="-1.62089">
        <ele>26.5</ele>
        <time>2020-06-07T10:14:05Z</time>
      </trkpt>
      <trkpt lat="47.26746" lon="-1.62089">
        <ele>26.6</ele>
        <time>2020-06-07T10:14:06Z</time>
      </trkpt>
      <trkpt lat="47.26745" lon="-1.62089">
        <ele>26.7</ele>
        <time>2020-06-07T10:14:07Z</time>
      </trkpt>
      <trkpt lat="47.26745" lon="-1.62089">
        <ele>26.7</ele>
        <time>2020-06-07T10:14:08Z</time>
      </trkpt>
      <trkpt lat="47.26744" lon="-1.62089">
        <ele>26.8</ele>
        <time>2020-06-07T10:14:09Z</time>
      </trkpt>
      <trkpt lat="47.26744" lon="-1.62089">
        <ele>26.9</ele>
        <time>2020-06-07T10:14:10Z</time>
      </trkpt>
      <trkpt lat="47.26743" lon="-1.62089">
        <ele>26.9</ele>
        <time>2020-06-07T10:14:11Z</time>
      </trkpt>
      <trkpt lat="47.26743" lon="-1.62089">
        <ele>26.9</ele>
        <time>2020-06-07T10:14:12Z</time>
      </trkpt>
      <trkpt lat="47.26743" lon="-1.62089">
        <ele>26.9</ele>
        <time>2020-06-07T10:15:43Z</time>
      </trkpt>
      <trkpt lat="47.26743" lon="-1.6209">
        <ele>27</ele>
        <time>2020-06-07T10:15:44Z</time>
      </trkpt>
      <trkpt lat="47.26743" lon="-1.6209">
        <ele>27</ele>
        <time>2020-06-07T10:15:45Z</time>
      </trkpt>
      <trkpt lat="47.26743" lon="-1.6209">
        <ele>27</ele>
        <time>2020-06-07T10:15:46Z</time>
      </trkpt>
      <trkpt lat="47.26743" lon="-1.6209">
        <ele>26.9</ele>
        <time>2020-06-07T10:15:47Z</time>
      </trkpt>
      <trkpt lat="47.26743" lon="-1.6209">
        <ele>26.9</ele>
        <time>2020-06-07T10:15:48Z</time>
      </trkpt>
      <trkpt lat="47.26744" lon="-1.62091">
        <ele>26.9</ele>
        <time>2020-06-07T10:15:49Z</time>
      </trkpt>
      <trkpt lat="47.26744" lon="-1.62091">
        <ele>26.9</ele>
        <time>2020-06-07T10:15:50Z</time>
      </trkpt>
      <trkpt lat="47.26744" lon="-1.62091">
        <ele>26.8</ele>
        <time>2020-06-07T10:15:51Z</time>
      </trkpt>
      <trkpt lat="47.26744" lon="-1.62091">
        <ele>26.8</ele>
        <time>2020-06-07T10:15:52Z</time>
      </trkpt>
      <trkpt lat="47.26744" lon="-1.62092">
        <ele>26.8</ele>
        <time>2020-06-07T10:15:53Z</time>
      </trkpt>
      <trkpt lat="47.26744" lon="-1.62092">
        <ele>26.8</ele>
        <time>2020-06-07T10:15:54Z</time>
      </trkpt>
      <trkpt lat="47.26744" lon="-1.62092">
        <ele>26.8</ele>
        <time>2020-06-07T10:15:55Z</time>
      </trkpt>
      <trkpt lat="47.26744" lon="-1.62092">
        <ele>26.8</ele>
        <time>2020-06-07T10:15:56Z</time>
      </trkpt>
      <trkpt lat="47.26744" lon="-1.62092">
        <ele>26.8</ele>
        <time>2020-06-07T10:15:57Z</time>
      </trkpt>
      <trkpt lat="47.26744" lon="-1.62092">
        <ele>26.8</ele>
        <time>2020-06-07T10:15:58Z</time>
      </trkpt>
      <trkpt lat="47.26744" lon="-1.62092">
        <ele>26.8</ele>
        <time>2020-06-07T10:15:59Z</time>
      </trkpt>
      <trkpt lat="47.26744" lon="-1.62092">
        <ele>26.8</ele>
        <time>2020-06-07T10:16:00Z</time>
      </trkpt>
      <trkpt lat="47.26744" lon="-1.62092">
        <ele>26.8</ele>
        <time>2020-06-07T10:16:01Z</time>
      </trkpt>
      <trkpt lat="47.26744" lon="-1.62092">
        <ele>26.8</ele>
        <time>2020-06-07T10:16:02Z</time>
      </trkpt>
      <trkpt lat="47.26744" lon="-1.62092">
        <ele>26.8</ele>
        <time>2020-06-07T10:16:03Z</time>
      </trkpt>
      <trkpt lat="47.26744" lon="-1.62092">
        <ele>26.8</ele>
        <time>2020-06-07T10:16:04Z</time>
      </trkpt>
      <trkpt lat="47.26744" lon="-1.62092">
        <ele>26.8</ele>
        <time>2020-06-07T10:16:05Z</time>
      </trkpt>
      <trkpt lat="47.26744" lon="-1.62092">
        <ele>26.8</ele>
        <time>2020-06-07T10:16:06Z</time>
      </trkpt>
      <trkpt lat="47.26744" lon="-1.62092">
        <ele>26.8</ele>
        <time>2020-06-07T10:16:07Z</time>
      </trkpt>
      <trkpt lat="47.26744" lon="-1.62092">
        <ele>26.8</ele>
        <time>2020-06-07T10:16:08Z</time>
      </trkpt>
      <trkpt lat="47.26744" lon="-1.62092">
        <ele>26.8</ele>
        <time>2020-06-07T10:16:09Z</time>
      </trkpt>
      <trkpt lat="47.26744" lon="-1.62092">
        <ele>26.8</ele>
        <time>2020-06-07T10:16:10Z</time>
      </trkpt>
      <trkpt lat="47.26744" lon="-1.62092">
        <ele>26.8</ele>
        <time>2020-06-07T10:16:11Z</time>
      </trkpt>
      <trkpt lat="47.26744" lon="-1.62092">
        <ele>26.8</ele>
        <time>2020-06-07T10:16:12Z</time>
      </trkpt>
      <trkpt lat="47.26744" lon="-1.62092">
        <ele>26.8</ele>
        <time>2020-06-07T10:16:13Z</time>
      </trkpt>
      <trkpt lat="47.26744" lon="-1.62092">
        <ele>26.8</ele>
        <time>2020-06-07T10:16:14Z</time>
      </trkpt>
      <trkpt lat="47.26745" lon="-1.62093">
        <ele>26.7</ele>
        <time>2020-06-07T10:16:15Z</time>
      </trkpt>
      <trkpt lat="47.26745" lon="-1.62094">
        <ele>26.7</ele>
        <time>2020-06-07T10:16:16Z</time>
      </trkpt>
      <trkpt lat="47.26745" lon="-1.62094">
        <ele>26.7</ele>
        <time>2020-06-07T10:16:17Z</time>
      </trkpt>
      <trkpt lat="47.26745" lon="-1.62095">
        <ele>26.7</ele>
        <time>2020-06-07T10:16:18Z</time>
      </trkpt>
      <trkpt lat="47.26745" lon="-1.62096">
        <ele>26.6</ele>
        <time>2020-06-07T10:16:19Z</time>
      </trkpt>
      <trkpt lat="47.26746" lon="-1.62097">
        <ele>26.6</ele>
        <time>2020-06-07T10:16:20Z</time>
      </trkpt>
      <trkpt lat="47.26746" lon="-1.62098">
        <ele>26.6</ele>
        <time>2020-06-07T10:16:21Z</time>
      </trkpt>
      <trkpt lat="47.26746" lon="-1.62099">
        <ele>26.6</ele>
        <time>2020-06-07T10:16:22Z</time>
      </trkpt>
      <trkpt lat="47.26746" lon="-1.621">
        <ele>26.6</ele>
        <time>2020-06-07T10:16:23Z</time>
      </trkpt>
      <trkpt lat="47.26746" lon="-1.62101">
        <ele>26.6</ele>
        <time>2020-06-07T10:16:24Z</time>
      </trkpt>
      <trkpt lat="47.26746" lon="-1.62102">
        <ele>26.6</ele>
        <time>2020-06-07T10:16:25Z</time>
      </trkpt>
      <trkpt lat="47.26746" lon="-1.62103">
        <ele>26.6</ele>
        <time>2020-06-07T10:16:26Z</time>
      </trkpt>
      <trkpt lat="47.26746" lon="-1.62104">
        <ele>26.6</ele>
        <time>2020-06-07T10:16:27Z</time>
      </trkpt>
      <trkpt lat="47.26746" lon="-1.62105">
        <ele>26.6</ele>
        <time>2020-06-07T10:16:28Z</time>
      </trkpt>
      <trkpt lat="47.26746" lon="-1.62106">
        <ele>26.6</ele>
        <time>2020-06-07T10:16:29Z</time>
      </trkpt>
      <trkpt lat="47.26746" lon="-1.62107">
        <ele>26.6</ele>
        <time>2020-06-07T10:16:30Z</time>
      </trkpt>
      <trkpt lat="47.26746" lon="-1.62108">
        <ele>26.6</ele>
        <time>2020-06-07T10:16:31Z</time>
      </trkpt>
      <trkpt lat="47.26746" lon="-1.62109">
        <ele>26.6</ele>
        <time>2020-06-07T10:16:32Z</time>
      </trkpt>
      <trkpt lat="47.26746" lon="-1.6211">
        <ele>26.6</ele>
        <time>2020-06-07T10:16:33Z</time>
      </trkpt>
      <trkpt lat="47.26746" lon="-1.62111">
        <ele>26.6</ele>
        <time>2020-06-07T10:16:34Z</time>
      </trkpt>
      <trkpt lat="47.26746" lon="-1.62112">
        <ele>26.6</ele>
        <time>2020-06-07T10:16:35Z</time>
      </trkpt>
      <trkpt lat="47.26746" lon="-1.62113">
        <ele>26.6</ele>
        <time>2020-06-07T10:16:36Z</time>
      </trkpt>
      <trkpt lat="47.26746" lon="-1.62114">
        <ele>26.6</ele>
        <time>2020-06-07T10:16:37Z</time>
      </trkpt>
      <trkpt lat="47.26746" lon="-1.62115">
        <ele>26.6</ele>
        <time>2020-06-07T10:16:38Z</time>
      </trkpt>
      <trkpt lat="47.26746" lon="-1.62116">
        <ele>26.6</ele>
        <time>2020-06-07T10:16:39Z</time>
      </trkpt>
      <trkpt lat="47.26746" lon="-1.62117">
        <ele>26.6</ele>
        <time>2020-06-07T10:16:40Z</time>
      </trkpt>
      <trkpt lat="47.26746" lon="-1.62118">
        <ele>26.6</ele>
        <time>2020-06-07T10:16:41Z</time>
      </trkpt>
      <trkpt lat="47.26746" lon="-1.62119">
        <ele>26.6</ele>
        <time>2020-06-07T10:16:42Z</time>
      </trkpt>
      <trkpt lat="47.26746" lon="-1.6212">
        <ele>26.6</ele>
        <time>2020-06-07T10:16:43Z</time>
      </trkpt>
      <trkpt lat="47.26747" lon="-1.62122">
        <ele>26.5</ele>
        <time>2020-06-07T10:16:44Z</time>
      </trkpt>
      <trkpt lat="47.26747" lon="-1.62123">
        <ele>26.5</ele>
        <time>2020-06-07T10:16:45Z</time>
      </trkpt>
      <trkpt lat="47.26747" lon="-1.62124">
        <ele>26.5</ele>
        <time>2020-06-07T10:16:46Z</time>
      </trkpt>
      <trkpt lat="47.26747" lon="-1.62126">
        <ele>26.5</ele>
        <time>2020-06-07T10:16:47Z</time>
      </trkpt>
      <trkpt lat="47.26747" lon="-1.62127">
        <ele>26.5</ele>
        <time>2020-06-07T10:16:48Z</time>
      </trkpt>
      <trkpt lat="47.26747" lon="-1.62129">
        <ele>26.5</ele>
        <time>2020-06-07T10:16:49Z</time>
      </trkpt>
      <trkpt lat="47.26747" lon="-1.62131">
        <ele>26.4</ele>
        <time>2020-06-07T10:16:50Z</time>
      </trkpt>
      <trkpt lat="47.26747" lon="-1.62132">
        <ele>26.4</ele>
        <time>2020-06-07T10:16:51Z</time>
      </trkpt>
      <trkpt lat="47.26748" lon="-1.62134">
        <ele>26.4</ele>
        <time>2020-06-07T10:16:52Z</time>
      </trkpt>
      <trkpt lat="47.26748" lon="-1.62135">
        <ele>26.4</ele>
        <time>2020-06-07T10:16:53Z</time>
      </trkpt>
      <trkpt lat="47.26748" lon="-1.62137">
        <ele>26.3</ele>
        <time>2020-06-07T10:16:54Z</time>
      </trkpt>
      <trkpt lat="47.26748" lon="-1.62138">
        <ele>26.3</ele>
        <time>2020-06-07T10:16:55Z</time>
      </trkpt>
      <trkpt lat="47.26749" lon="-1.62139">
        <ele>26.2</ele>
        <time>2020-06-07T10:16:56Z</time>
      </trkpt>
      <trkpt lat="47.26749" lon="-1.62141">
        <ele>26.2</ele>
        <time>2020-06-07T10:16:57Z</time>
      </trkpt>
      <trkpt lat="47.26749" lon="-1.62142">
        <ele>26.1</ele>
        <time>2020-06-07T10:16:58Z</time>
      </trkpt>
      <trkpt lat="47.2675" lon="-1.62143">
        <ele>26</ele>
        <time>2020-06-07T10:16:59Z</time>
      </trkpt>
      <trkpt lat="47.2675" lon="-1.62145">
        <ele>26</ele>
        <time>2020-06-07T10:17:00Z</time>
      </trkpt>
      <trkpt lat="47.26751" lon="-1.62146">
        <ele>25.9</ele>
        <time>2020-06-07T10:17:01Z</time>
      </trkpt>
      <trkpt lat="47.26751" lon="-1.62147">
        <ele>25.9</ele>
        <time>2020-06-07T10:17:02Z</time>
      </trkpt>
      <trkpt lat="47.26751" lon="-1.62148">
        <ele>25.9</ele>
        <time>2020-06-07T10:17:03Z</time>
      </trkpt>
      <trkpt lat="47.26751" lon="-1.6215">
        <ele>25.9</ele>
        <time>2020-06-07T10:17:04Z</time>
      </trkpt>
      <trkpt lat="47.26751" lon="-1.62151">
        <ele>25.9</ele>
        <time>2020-06-07T10:17:05Z</time>
      </trkpt>
      <trkpt lat="47.26751" lon="-1.62152">
        <ele>25.9</ele>
        <time>2020-06-07T10:17:06Z</time>
      </trkpt>
      <trkpt lat="47.2675" lon="-1.62154">
        <ele>26</ele>
        <time>2020-06-07T10:17:07Z</time>
      </trkpt>
      <trkpt lat="47.2675" lon="-1.62155">
        <ele>26</ele>
        <time>2020-06-07T10:17:08Z</time>
      </trkpt>
      <trkpt lat="47.2675" lon="-1.62156">
        <ele>26</ele>
        <time>2020-06-07T10:17:09Z</time>
      </trkpt>
      <trkpt lat="47.2675" lon="-1.62158">
        <ele>26</ele>
        <time>2020-06-07T10:17:10Z</time>
      </trkpt>
      <trkpt lat="47.2675" lon="-1.62159">
        <ele>26.1</ele>
        <time>2020-06-07T10:17:11Z</time>
      </trkpt>
      <trkpt lat="47.26749" lon="-1.62161">
        <ele>26.1</ele>
        <time>2020-06-07T10:17:12Z</time>
      </trkpt>
      <trkpt lat="47.26749" lon="-1.62162">
        <ele>26.1</ele>
        <time>2020-06-07T10:17:13Z</time>
      </trkpt>
      <trkpt lat="47.26749" lon="-1.62164">
        <ele>26.1</ele>
        <time>2020-06-07T10:17:14Z</time>
      </trkpt>
      <trkpt lat="47.26749" lon="-1.62165">
        <ele>26.2</ele>
        <time>2020-06-07T10:17:15Z</time>
      </trkpt>
      <trkpt lat="47.26749" lon="-1.62167">
        <ele>26.2</ele>
        <time>2020-06-07T10:17:16Z</time>
      </trkpt>
      <trkpt lat="47.26749" lon="-1.62168">
        <ele>26.1</ele>
        <time>2020-06-07T10:17:17Z</time>
      </trkpt>
      <trkpt lat="47.26749" lon="-1.6217">
        <ele>26.1</ele>
        <time>2020-06-07T10:17:18Z</time>
      </trkpt>
      <trkpt lat="47.2675" lon="-1.62171">
        <ele>26</ele>
        <time>2020-06-07T10:17:19Z</time>
      </trkpt>
      <trkpt lat="47.2675" lon="-1.62172">
        <ele>25.9</ele>
        <time>2020-06-07T10:17:20Z</time>
      </trkpt>
      <trkpt lat="47.2675" lon="-1.62174">
        <ele>25.9</ele>
        <time>2020-06-07T10:17:21Z</time>
      </trkpt>
      <trkpt lat="47.26751" lon="-1.62175">
        <ele>25.8</ele>
        <time>2020-06-07T10:17:22Z</time>
      </trkpt>
      <trkpt lat="47.26751" lon="-1.62176">
        <ele>25.8</ele>
        <time>2020-06-07T10:17:23Z</time>
      </trkpt>
      <trkpt lat="47.26751" lon="-1.62178">
        <ele>25.8</ele>
        <time>2020-06-07T10:17:24Z</time>
      </trkpt>
      <trkpt lat="47.26751" lon="-1.62179">
        <ele>25.7</ele>
        <time>2020-06-07T10:17:25Z</time>
      </trkpt>
      <trkpt lat="47.26751" lon="-1.6218">
        <ele>25.7</ele>
        <time>2020-06-07T10:17:26Z</time>
      </trkpt>
      <trkpt lat="47.26751" lon="-1.62182">
        <ele>25.7</ele>
        <time>2020-06-07T10:17:27Z</time>
      </trkpt>
      <trkpt lat="47.26751" lon="-1.62183">
        <ele>25.7</ele>
        <time>2020-06-07T10:17:28Z</time>
      </trkpt>
      <trkpt lat="47.26751" lon="-1.62184">
        <ele>25.7</ele>
        <time>2020-06-07T10:17:29Z</time>
      </trkpt>
      <trkpt lat="47.2675" lon="-1.62185">
        <ele>25.7</ele>
        <time>2020-06-07T10:17:30Z</time>
      </trkpt>
      <trkpt lat="47.2675" lon="-1.62187">
        <ele>25.7</ele>
        <time>2020-06-07T10:17:31Z</time>
      </trkpt>
      <trkpt lat="47.2675" lon="-1.62188">
        <ele>25.7</ele>
        <time>2020-06-07T10:17:32Z</time>
      </trkpt>
      <trkpt lat="47.2675" lon="-1.62189">
        <ele>25.8</ele>
        <time>2020-06-07T10:17:33Z</time>
      </trkpt>
      <trkpt lat="47.2675" lon="-1.6219">
        <ele>25.8</ele>
        <time>2020-06-07T10:17:34Z</time>
      </trkpt>
      <trkpt lat="47.2675" lon="-1.62191">
        <ele>25.8</ele>
        <time>2020-06-07T10:17:35Z</time>
      </trkpt>
      <trkpt lat="47.26749" lon="-1.62192">
        <ele>25.8</ele>
        <time>2020-06-07T10:17:36Z</time>
      </trkpt>
      <trkpt lat="47.2675" lon="-1.62194">
        <ele>25.8</ele>
        <time>2020-06-07T10:17:37Z</time>
      </trkpt>
      <trkpt lat="47.2675" lon="-1.62195">
        <ele>25.8</ele>
        <time>2020-06-07T10:17:38Z</time>
      </trkpt>
      <trkpt lat="47.2675" lon="-1.62196">
        <ele>25.7</ele>
        <time>2020-06-07T10:17:39Z</time>
      </trkpt>
      <trkpt lat="47.2675" lon="-1.62197">
        <ele>25.7</ele>
        <time>2020-06-07T10:17:40Z</time>
      </trkpt>
      <trkpt lat="47.2675" lon="-1.62199">
        <ele>25.6</ele>
        <time>2020-06-07T10:17:41Z</time>
      </trkpt>
      <trkpt lat="47.2675" lon="-1.622">
        <ele>25.6</ele>
        <time>2020-06-07T10:17:42Z</time>
      </trkpt>
      <trkpt lat="47.2675" lon="-1.62202">
        <ele>25.5</ele>
        <time>2020-06-07T10:17:43Z</time>
      </trkpt>
      <trkpt lat="47.26751" lon="-1.62203">
        <ele>25.5</ele>
        <time>2020-06-07T10:17:44Z</time>
      </trkpt>
      <trkpt lat="47.26751" lon="-1.62205">
        <ele>25.5</ele>
        <time>2020-06-07T10:17:45Z</time>
      </trkpt>
      <trkpt lat="47.26751" lon="-1.62207">
        <ele>25.4</ele>
        <time>2020-06-07T10:17:46Z</time>
      </trkpt>
      <trkpt lat="47.26751" lon="-1.62209">
        <ele>25.4</ele>
        <time>2020-06-07T10:17:47Z</time>
      </trkpt>
      <trkpt lat="47.26751" lon="-1.62211">
        <ele>25.4</ele>
        <time>2020-06-07T10:17:48Z</time>
      </trkpt>
      <trkpt lat="47.26752" lon="-1.62213">
        <ele>25.3</ele>
        <time>2020-06-07T10:17:49Z</time>
      </trkpt>
      <trkpt lat="47.26752" lon="-1.62215">
        <ele>25.3</ele>
        <time>2020-06-07T10:17:50Z</time>
      </trkpt>
      <trkpt lat="47.26752" lon="-1.62217">
        <ele>25.3</ele>
        <time>2020-06-07T10:17:51Z</time>
      </trkpt>
      <trkpt lat="47.26752" lon="-1.62219">
        <ele>25.2</ele>
        <time>2020-06-07T10:17:52Z</time>
      </trkpt>
      <trkpt lat="47.26752" lon="-1.62221">
        <ele>25.2</ele>
        <time>2020-06-07T10:17:53Z</time>
      </trkpt>
      <trkpt lat="47.26752" lon="-1.62223">
        <ele>25.2</ele>
        <time>2020-06-07T10:17:54Z</time>
      </trkpt>
      <trkpt lat="47.26753" lon="-1.62225">
        <ele>25.1</ele>
        <time>2020-06-07T10:17:55Z</time>
      </trkpt>
      <trkpt lat="47.26753" lon="-1.62227">
        <ele>25.1</ele>
        <time>2020-06-07T10:17:56Z</time>
      </trkpt>
      <trkpt lat="47.26753" lon="-1.62229">
        <ele>25.1</ele>
        <time>2020-06-07T10:17:57Z</time>
      </trkpt>
      <trkpt lat="47.26753" lon="-1.62231">
        <ele>25</ele>
        <time>2020-06-07T10:17:58Z</time>
      </trkpt>
      <trkpt lat="47.26753" lon="-1.62232">
        <ele>25</ele>
        <time>2020-06-07T10:17:59Z</time>
      </trkpt>
      <trkpt lat="47.26754" lon="-1.62234">
        <ele>25</ele>
        <time>2020-06-07T10:18:00Z</time>
      </trkpt>
      <trkpt lat="47.26754" lon="-1.62236">
        <ele>24.9</ele>
        <time>2020-06-07T10:18:01Z</time>
      </trkpt>
      <trkpt lat="47.26754" lon="-1.62238">
        <ele>24.9</ele>
        <time>2020-06-07T10:18:02Z</time>
      </trkpt>
      <trkpt lat="47.26755" lon="-1.6224">
        <ele>24.9</ele>
        <time>2020-06-07T10:18:03Z</time>
      </trkpt>
      <trkpt lat="47.26755" lon="-1.62242">
        <ele>24.8</ele>
        <time>2020-06-07T10:18:04Z</time>
      </trkpt>
      <trkpt lat="47.26755" lon="-1.62243">
        <ele>24.8</ele>
        <time>2020-06-07T10:18:05Z</time>
      </trkpt>
      <trkpt lat="47.26756" lon="-1.62245">
        <ele>24.8</ele>
        <time>2020-06-07T10:18:06Z</time>
      </trkpt>
      <trkpt lat="47.26756" lon="-1.62247">
        <ele>24.7</ele>
        <time>2020-06-07T10:18:07Z</time>
      </trkpt>
      <trkpt lat="47.26757" lon="-1.62249">
        <ele>24.7</ele>
        <time>2020-06-07T10:18:08Z</time>
      </trkpt>
      <trkpt lat="47.26757" lon="-1.6225">
        <ele>24.7</ele>
        <time>2020-06-07T10:18:09Z</time>
      </trkpt>
      <trkpt lat="47.26758" lon="-1.62252">
        <ele>24.7</ele>
        <time>2020-06-07T10:18:10Z</time>
      </trkpt>
      <trkpt lat="47.26758" lon="-1.62253">
        <ele>24.7</ele>
        <time>2020-06-07T10:18:11Z</time>
      </trkpt>
      <trkpt lat="47.26758" lon="-1.62255">
        <ele>24.7</ele>
        <time>2020-06-07T10:18:12Z</time>
      </trkpt>
      <trkpt lat="47.26759" lon="-1.62257">
        <ele>24.8</ele>
        <time>2020-06-07T10:18:13Z</time>
      </trkpt>
      <trkpt lat="47.26759" lon="-1.62258">
        <ele>24.8</ele>
        <time>2020-06-07T10:18:14Z</time>
      </trkpt>
      <trkpt lat="47.2676" lon="-1.62259">
        <ele>24.8</ele>
        <time>2020-06-07T10:18:15Z</time>
      </trkpt>
      <trkpt lat="47.2676" lon="-1.62261">
        <ele>24.8</ele>
        <time>2020-06-07T10:18:16Z</time>
      </trkpt>
      <trkpt lat="47.26761" lon="-1.62262">
        <ele>24.8</ele>
        <time>2020-06-07T10:18:17Z</time>
      </trkpt>
      <trkpt lat="47.26761" lon="-1.62263">
        <ele>24.8</ele>
        <time>2020-06-07T10:18:18Z</time>
      </trkpt>
      <trkpt lat="47.26762" lon="-1.62263">
        <ele>24.8</ele>
        <time>2020-06-07T10:18:19Z</time>
      </trkpt>
      <trkpt lat="47.26763" lon="-1.62264">
        <ele>24.8</ele>
        <time>2020-06-07T10:18:20Z</time>
      </trkpt>
      <trkpt lat="47.26763" lon="-1.62265">
        <ele>24.8</ele>
        <time>2020-06-07T10:18:21Z</time>
      </trkpt>
      <trkpt lat="47.26764" lon="-1.62265">
        <ele>24.8</ele>
        <time>2020-06-07T10:18:22Z</time>
      </trkpt>
      <trkpt lat="47.26765" lon="-1.62265">
        <ele>24.8</ele>
        <time>2020-06-07T10:18:23Z</time>
      </trkpt>
      <trkpt lat="47.26765" lon="-1.62266">
        <ele>24.7</ele>
        <time>2020-06-07T10:18:24Z</time>
      </trkpt>
      <trkpt lat="47.26766" lon="-1.62266">
        <ele>24.7</ele>
        <time>2020-06-07T10:18:25Z</time>
      </trkpt>
      <trkpt lat="47.26767" lon="-1.62266">
        <ele>24.7</ele>
        <time>2020-06-07T10:18:26Z</time>
      </trkpt>
      <trkpt lat="47.26767" lon="-1.62266">
        <ele>24.7</ele>
        <time>2020-06-07T10:18:27Z</time>
      </trkpt>
      <trkpt lat="47.26768" lon="-1.62266">
        <ele>24.7</ele>
        <time>2020-06-07T10:18:28Z</time>
      </trkpt>
      <trkpt lat="47.26768" lon="-1.62266">
        <ele>24.7</ele>
        <time>2020-06-07T10:18:29Z</time>
      </trkpt>
      <trkpt lat="47.26768" lon="-1.62266">
        <ele>24.6</ele>
        <time>2020-06-07T10:18:30Z</time>
      </trkpt>
      <trkpt lat="47.26769" lon="-1.62266">
        <ele>24.6</ele>
        <time>2020-06-07T10:18:31Z</time>
      </trkpt>
      <trkpt lat="47.26769" lon="-1.62267">
        <ele>24.6</ele>
        <time>2020-06-07T10:18:32Z</time>
      </trkpt>
      <trkpt lat="47.26769" lon="-1.62267">
        <ele>24.6</ele>
        <time>2020-06-07T10:18:33Z</time>
      </trkpt>
      <trkpt lat="47.26769" lon="-1.62267">
        <ele>24.6</ele>
        <time>2020-06-07T10:18:34Z</time>
      </trkpt>
      <trkpt lat="47.26769" lon="-1.62267">
        <ele>24.6</ele>
        <time>2020-06-07T10:18:35Z</time>
      </trkpt>
      <trkpt lat="47.2677" lon="-1.62268">
        <ele>24.6</ele>
        <time>2020-06-07T10:18:36Z</time>
      </trkpt>
      <trkpt lat="47.26771" lon="-1.62269">
        <ele>24.7</ele>
        <time>2020-06-07T10:18:37Z</time>
      </trkpt>
      <trkpt lat="47.26771" lon="-1.62271">
        <ele>24.7</ele>
        <time>2020-06-07T10:18:38Z</time>
      </trkpt>
      <trkpt lat="47.26771" lon="-1.62272">
        <ele>24.7</ele>
        <time>2020-06-07T10:18:39Z</time>
      </trkpt>
      <trkpt lat="47.26771" lon="-1.62273">
        <ele>24.8</ele>
        <time>2020-06-07T10:18:40Z</time>
      </trkpt>
      <trkpt lat="47.26771" lon="-1.62274">
        <ele>24.8</ele>
        <time>2020-06-07T10:18:41Z</time>
      </trkpt>
      <trkpt lat="47.26771" lon="-1.62276">
        <ele>24.9</ele>
        <time>2020-06-07T10:18:42Z</time>
      </trkpt>
      <trkpt lat="47.2677" lon="-1.62277">
        <ele>24.9</ele>
        <time>2020-06-07T10:18:43Z</time>
      </trkpt>
      <trkpt lat="47.2677" lon="-1.62278">
        <ele>25</ele>
        <time>2020-06-07T10:18:44Z</time>
      </trkpt>
      <trkpt lat="47.2677" lon="-1.62279">
        <ele>25</ele>
        <time>2020-06-07T10:18:45Z</time>
      </trkpt>
      <trkpt lat="47.26769" lon="-1.62279">
        <ele>25</ele>
        <time>2020-06-07T10:18:46Z</time>
      </trkpt>
      <trkpt lat="47.26769" lon="-1.6228">
        <ele>25.1</ele>
        <time>2020-06-07T10:18:47Z</time>
      </trkpt>
      <trkpt lat="47.26768" lon="-1.6228">
        <ele>25.1</ele>
        <time>2020-06-07T10:18:48Z</time>
      </trkpt>
      <trkpt lat="47.26768" lon="-1.62281">
        <ele>25.1</ele>
        <time>2020-06-07T10:18:49Z</time>
      </trkpt>
      <trkpt lat="47.26767" lon="-1.62281">
        <ele>25.2</ele>
        <time>2020-06-07T10:18:50Z</time>
      </trkpt>
      <trkpt lat="47.26767" lon="-1.62281">
        <ele>25.2</ele>
        <time>2020-06-07T10:18:51Z</time>
      </trkpt>
      <trkpt lat="47.26766" lon="-1.62282">
        <ele>25.2</ele>
        <time>2020-06-07T10:18:52Z</time>
      </trkpt>
      <trkpt lat="47.26766" lon="-1.62282">
        <ele>25.2</ele>
        <time>2020-06-07T10:18:53Z</time>
      </trkpt>
      <trkpt lat="47.26765" lon="-1.62283">
        <ele>25.3</ele>
        <time>2020-06-07T10:18:54Z</time>
      </trkpt>
      <trkpt lat="47.26765" lon="-1.62284">
        <ele>25.3</ele>
        <time>2020-06-07T10:18:55Z</time>
      </trkpt>
      <trkpt lat="47.26764" lon="-1.62285">
        <ele>25.4</ele>
        <time>2020-06-07T10:18:56Z</time>
      </trkpt>
      <trkpt lat="47.26764" lon="-1.62286">
        <ele>25.4</ele>
        <time>2020-06-07T10:18:57Z</time>
      </trkpt>
      <trkpt lat="47.26764" lon="-1.62288">
        <ele>25.5</ele>
        <time>2020-06-07T10:18:58Z</time>
      </trkpt>
      <trkpt lat="47.26764" lon="-1.62289">
        <ele>25.5</ele>
        <time>2020-06-07T10:18:59Z</time>
      </trkpt>
      <trkpt lat="47.26763" lon="-1.6229">
        <ele>25.6</ele>
        <time>2020-06-07T10:19:00Z</time>
      </trkpt>
      <trkpt lat="47.26763" lon="-1.62291">
        <ele>25.6</ele>
        <time>2020-06-07T10:19:01Z</time>
      </trkpt>
      <trkpt lat="47.26763" lon="-1.62293">
        <ele>25.6</ele>
        <time>2020-06-07T10:19:02Z</time>
      </trkpt>
      <trkpt lat="47.26763" lon="-1.62294">
        <ele>25.7</ele>
        <time>2020-06-07T10:19:03Z</time>
      </trkpt>
      <trkpt lat="47.26762" lon="-1.62295">
        <ele>25.7</ele>
        <time>2020-06-07T10:19:04Z</time>
      </trkpt>
      <trkpt lat="47.26762" lon="-1.62296">
        <ele>25.8</ele>
        <time>2020-06-07T10:19:05Z</time>
      </trkpt>
      <trkpt lat="47.26762" lon="-1.62297">
        <ele>25.8</ele>
        <time>2020-06-07T10:19:06Z</time>
      </trkpt>
      <trkpt lat="47.26762" lon="-1.62298">
        <ele>25.8</ele>
        <time>2020-06-07T10:19:07Z</time>
      </trkpt>
      <trkpt lat="47.26761" lon="-1.62299">
        <ele>25.9</ele>
        <time>2020-06-07T10:19:08Z</time>
      </trkpt>
      <trkpt lat="47.26761" lon="-1.623">
        <ele>25.9</ele>
        <time>2020-06-07T10:19:09Z</time>
      </trkpt>
      <trkpt lat="47.2676" lon="-1.62301">
        <ele>26</ele>
        <time>2020-06-07T10:19:10Z</time>
      </trkpt>
      <trkpt lat="47.2676" lon="-1.62302">
        <ele>26</ele>
        <time>2020-06-07T10:19:11Z</time>
      </trkpt>
      <trkpt lat="47.2676" lon="-1.62303">
        <ele>26</ele>
        <time>2020-06-07T10:19:12Z</time>
      </trkpt>
      <trkpt lat="47.26759" lon="-1.62304">
        <ele>26.1</ele>
        <time>2020-06-07T10:19:13Z</time>
      </trkpt>
      <trkpt lat="47.2676" lon="-1.62305">
        <ele>26.1</ele>
        <time>2020-06-07T10:19:14Z</time>
      </trkpt>
      <trkpt lat="47.2676" lon="-1.62306">
        <ele>26.1</ele>
        <time>2020-06-07T10:19:15Z</time>
      </trkpt>
      <trkpt lat="47.2676" lon="-1.62309">
        <ele>26.2</ele>
        <time>2020-06-07T10:19:16Z</time>
      </trkpt>
      <trkpt lat="47.2676" lon="-1.62311">
        <ele>26.2</ele>
        <time>2020-06-07T10:19:17Z</time>
      </trkpt>
      <trkpt lat="47.26761" lon="-1.62313">
        <ele>26.3</ele>
        <time>2020-06-07T10:19:18Z</time>
      </trkpt>
      <trkpt lat="47.26762" lon="-1.62315">
        <ele>26.3</ele>
        <time>2020-06-07T10:19:19Z</time>
      </trkpt>
      <trkpt lat="47.26763" lon="-1.62316">
        <ele>26.3</ele>
        <time>2020-06-07T10:19:20Z</time>
      </trkpt>
      <trkpt lat="47.26763" lon="-1.62318">
        <ele>26.4</ele>
        <time>2020-06-07T10:19:21Z</time>
      </trkpt>
      <trkpt lat="47.26764" lon="-1.62318">
        <ele>26.4</ele>
        <time>2020-06-07T10:19:22Z</time>
      </trkpt>
      <trkpt lat="47.26764" lon="-1.62319">
        <ele>26.4</ele>
        <time>2020-06-07T10:19:23Z</time>
      </trkpt>
      <trkpt lat="47.26765" lon="-1.62319">
        <ele>26.4</ele>
        <time>2020-06-07T10:19:24Z</time>
      </trkpt>
      <trkpt lat="47.26765" lon="-1.6232">
        <ele>26.4</ele>
        <time>2020-06-07T10:19:25Z</time>
      </trkpt>
      <trkpt lat="47.26765" lon="-1.6232">
        <ele>26.4</ele>
        <time>2020-06-07T10:19:26Z</time>
      </trkpt>
      <trkpt lat="47.26765" lon="-1.6232">
        <ele>26.4</ele>
        <time>2020-06-07T10:19:27Z</time>
      </trkpt>
      <trkpt lat="47.26765" lon="-1.6232">
        <ele>26.4</ele>
        <time>2020-06-07T10:19:28Z</time>
      </trkpt>
      <trkpt lat="47.26765" lon="-1.6232">
        <ele>26.4</ele>
        <time>2020-06-07T10:19:29Z</time>
      </trkpt>
      <trkpt lat="47.26765" lon="-1.6232">
        <ele>26.4</ele>
        <time>2020-06-07T10:19:30Z</time>
      </trkpt>
      <trkpt lat="47.26765" lon="-1.6232">
        <ele>26.4</ele>
        <time>2020-06-07T10:19:31Z</time>
      </trkpt>
      <trkpt lat="47.26765" lon="-1.6232">
        <ele>26.4</ele>
        <time>2020-06-07T10:19:32Z</time>
      </trkpt>
      <trkpt lat="47.26765" lon="-1.6232">
        <ele>26.4</ele>
        <time>2020-06-07T10:19:33Z</time>
      </trkpt>
      <trkpt lat="47.26765" lon="-1.6232">
        <ele>26.4</ele>
        <time>2020-06-07T10:19:34Z</time>
      </trkpt>
      <trkpt lat="47.26765" lon="-1.6232">
        <ele>26.4</ele>
        <time>2020-06-07T10:19:35Z</time>
      </trkpt>
      <trkpt lat="47.26765" lon="-1.6232">
        <ele>26.4</ele>
        <time>2020-06-07T10:19:36Z</time>
      </trkpt>
      <trkpt lat="47.26765" lon="-1.6232">
        <ele>26.4</ele>
        <time>2020-06-07T10:19:37Z</time>
      </trkpt>
      <trkpt lat="47.26765" lon="-1.6232">
        <ele>26.4</ele>
        <time>2020-06-07T10:19:38Z</time>
      </trkpt>
      <trkpt lat="47.26765" lon="-1.6232">
        <ele>26.4</ele>
        <time>2020-06-07T10:19:39Z</time>
      </trkpt>
      <trkpt lat="47.26765" lon="-1.6232">
        <ele>26.4</ele>
        <time>2020-06-07T10:19:40Z</time>
      </trkpt>
      <trkpt lat="47.26765" lon="-1.6232">
        <ele>26.4</ele>
        <time>2020-06-07T10:19:41Z</time>
      </trkpt>
      <trkpt lat="47.26765" lon="-1.6232">
        <ele>26.4</ele>
        <time>2020-06-07T10:19:42Z</time>
      </trkpt>
      <trkpt lat="47.26765" lon="-1.6232">
        <ele>26.4</ele>
        <time>2020-06-07T10:19:43Z</time>
      </trkpt>
      <trkpt lat="47.26765" lon="-1.6232">
        <ele>26.4</ele>
        <time>2020-06-07T10:19:44Z</time>
      </trkpt>
      <trkpt lat="47.26765" lon="-1.6232">
        <ele>26.4</ele>
        <time>2020-06-07T10:19:45Z</time>
      </trkpt>
      <trkpt lat="47.26765" lon="-1.62321">
        <ele>26.4</ele>
        <time>2020-06-07T10:19:46Z</time>
      </trkpt>
      <trkpt lat="47.26765" lon="-1.62321">
        <ele>26.5</ele>
        <time>2020-06-07T10:19:47Z</time>
      </trkpt>
      <trkpt lat="47.26765" lon="-1.62322">
        <ele>26.5</ele>
        <time>2020-06-07T10:19:48Z</time>
      </trkpt>
      <trkpt lat="47.26766" lon="-1.62324">
        <ele>26.5</ele>
        <time>2020-06-07T10:19:49Z</time>
      </trkpt>
      <trkpt lat="47.26767" lon="-1.62325">
        <ele>26.5</ele>
        <time>2020-06-07T10:19:50Z</time>
      </trkpt>
      <trkpt lat="47.26767" lon="-1.62326">
        <ele>26.6</ele>
        <time>2020-06-07T10:19:51Z</time>
      </trkpt>
      <trkpt lat="47.26768" lon="-1.62328">
        <ele>26.6</ele>
        <time>2020-06-07T10:19:52Z</time>
      </trkpt>
      <trkpt lat="47.26769" lon="-1.62329">
        <ele>26.6</ele>
        <time>2020-06-07T10:19:53Z</time>
      </trkpt>
      <trkpt lat="47.26769" lon="-1.6233">
        <ele>26.7</ele>
        <time>2020-06-07T10:19:54Z</time>
      </trkpt>
      <trkpt lat="47.26769" lon="-1.62332">
        <ele>26.7</ele>
        <time>2020-06-07T10:19:55Z</time>
      </trkpt>
      <trkpt lat="47.2677" lon="-1.62333">
        <ele>26.7</ele>
        <time>2020-06-07T10:19:56Z</time>
      </trkpt>
      <trkpt lat="47.2677" lon="-1.62334">
        <ele>26.8</ele>
        <time>2020-06-07T10:19:57Z</time>
      </trkpt>
      <trkpt lat="47.2677" lon="-1.62335">
        <ele>26.8</ele>
        <time>2020-06-07T10:19:58Z</time>
      </trkpt>
      <trkpt lat="47.2677" lon="-1.62336">
        <ele>26.8</ele>
        <time>2020-06-07T10:19:59Z</time>
      </trkpt>
      <trkpt lat="47.2677" lon="-1.62338">
        <ele>26.8</ele>
        <time>2020-06-07T10:20:00Z</time>
      </trkpt>
      <trkpt lat="47.2677" lon="-1.62339">
        <ele>26.8</ele>
        <time>2020-06-07T10:20:01Z</time>
      </trkpt>
      <trkpt lat="47.2677" lon="-1.6234">
        <ele>26.8</ele>
        <time>2020-06-07T10:20:02Z</time>
      </trkpt>
      <trkpt lat="47.26771" lon="-1.62341">
        <ele>26.8</ele>
        <time>2020-06-07T10:20:03Z</time>
      </trkpt>
      <trkpt lat="47.26771" lon="-1.62342">
        <ele>26.8</ele>
        <time>2020-06-07T10:20:04Z</time>
      </trkpt>
      <trkpt lat="47.26771" lon="-1.62343">
        <ele>26.8</ele>
        <time>2020-06-07T10:20:05Z</time>
      </trkpt>
      <trkpt lat="47.26771" lon="-1.62344">
        <ele>26.8</ele>
        <time>2020-06-07T10:20:06Z</time>
      </trkpt>
      <trkpt lat="47.26772" lon="-1.62345">
        <ele>26.9</ele>
        <time>2020-06-07T10:20:07Z</time>
      </trkpt>
      <trkpt lat="47.26772" lon="-1.62346">
        <ele>26.9</ele>
        <time>2020-06-07T10:20:08Z</time>
      </trkpt>
      <trkpt lat="47.26772" lon="-1.62348">
        <ele>26.9</ele>
        <time>2020-06-07T10:20:09Z</time>
      </trkpt>
      <trkpt lat="47.26772" lon="-1.62349">
        <ele>26.9</ele>
        <time>2020-06-07T10:20:10Z</time>
      </trkpt>
      <trkpt lat="47.26773" lon="-1.6235">
        <ele>26.9</ele>
        <time>2020-06-07T10:20:11Z</time>
      </trkpt>
      <trkpt lat="47.26773" lon="-1.62351">
        <ele>26.9</ele>
        <time>2020-06-07T10:20:12Z</time>
      </trkpt>
      <trkpt lat="47.26773" lon="-1.62352">
        <ele>26.9</ele>
        <time>2020-06-07T10:20:13Z</time>
      </trkpt>
      <trkpt lat="47.26774" lon="-1.62353">
        <ele>26.9</ele>
        <time>2020-06-07T10:20:14Z</time>
      </trkpt>
      <trkpt lat="47.26774" lon="-1.62354">
        <ele>26.9</ele>
        <time>2020-06-07T10:20:15Z</time>
      </trkpt>
      <trkpt lat="47.26775" lon="-1.62355">
        <ele>26.9</ele>
        <time>2020-06-07T10:20:16Z</time>
      </trkpt>
      <trkpt lat="47.26775" lon="-1.62356">
        <ele>26.9</ele>
        <time>2020-06-07T10:20:17Z</time>
      </trkpt>
      <trkpt lat="47.26775" lon="-1.62357">
        <ele>27</ele>
        <time>2020-06-07T10:20:18Z</time>
      </trkpt>
      <trkpt lat="47.26776" lon="-1.62358">
        <ele>27</ele>
        <time>2020-06-07T10:20:19Z</time>
      </trkpt>
      <trkpt lat="47.26776" lon="-1.62359">
        <ele>27</ele>
        <time>2020-06-07T10:20:20Z</time>
      </trkpt>
      <trkpt lat="47.26777" lon="-1.6236">
        <ele>27</ele>
        <time>2020-06-07T10:20:21Z</time>
      </trkpt>
      <trkpt lat="47.26777" lon="-1.62361">
        <ele>27</ele>
        <time>2020-06-07T10:20:22Z</time>
      </trkpt>
      <trkpt lat="47.26778" lon="-1.62362">
        <ele>27</ele>
        <time>2020-06-07T10:20:23Z</time>
      </trkpt>
      <trkpt lat="47.26778" lon="-1.62362">
        <ele>27</ele>
        <time>2020-06-07T10:20:24Z</time>
      </trkpt>
      <trkpt lat="47.26778" lon="-1.62363">
        <ele>27</ele>
        <time>2020-06-07T10:20:25Z</time>
      </trkpt>
      <trkpt lat="47.26779" lon="-1.62364">
        <ele>27</ele>
        <time>2020-06-07T10:20:26Z</time>
      </trkpt>
      <trkpt lat="47.26779" lon="-1.62365">
        <ele>27</ele>
        <time>2020-06-07T10:20:27Z</time>
      </trkpt>
      <trkpt lat="47.2678" lon="-1.62366">
        <ele>27.1</ele>
        <time>2020-06-07T10:20:28Z</time>
      </trkpt>
      <trkpt lat="47.26781" lon="-1.62367">
        <ele>27.1</ele>
        <time>2020-06-07T10:20:29Z</time>
      </trkpt>
      <trkpt lat="47.26781" lon="-1.62367">
        <ele>27.1</ele>
        <time>2020-06-07T10:20:30Z</time>
      </trkpt>
      <trkpt lat="47.26782" lon="-1.62368">
        <ele>27.1</ele>
        <time>2020-06-07T10:20:31Z</time>
      </trkpt>
      <trkpt lat="47.26783" lon="-1.62369">
        <ele>27.1</ele>
        <time>2020-06-07T10:20:32Z</time>
      </trkpt>
      <trkpt lat="47.26783" lon="-1.6237">
        <ele>27.1</ele>
        <time>2020-06-07T10:20:33Z</time>
      </trkpt>
      <trkpt lat="47.26784" lon="-1.6237">
        <ele>27.1</ele>
        <time>2020-06-07T10:20:34Z</time>
      </trkpt>
      <trkpt lat="47.26784" lon="-1.62371">
        <ele>27.1</ele>
        <time>2020-06-07T10:20:35Z</time>
      </trkpt>
      <trkpt lat="47.26785" lon="-1.62372">
        <ele>27.2</ele>
        <time>2020-06-07T10:20:36Z</time>
      </trkpt>
      <trkpt lat="47.26785" lon="-1.62373">
        <ele>27.2</ele>
        <time>2020-06-07T10:20:37Z</time>
      </trkpt>
      <trkpt lat="47.26786" lon="-1.62373">
        <ele>27.2</ele>
        <time>2020-06-07T10:20:38Z</time>
      </trkpt>
      <trkpt lat="47.26786" lon="-1.62374">
        <ele>27.2</ele>
        <time>2020-06-07T10:20:39Z</time>
      </trkpt>
      <trkpt lat="47.26786" lon="-1.62375">
        <ele>27.2</ele>
        <time>2020-06-07T10:20:40Z</time>
      </trkpt>
      <trkpt lat="47.26786" lon="-1.62376">
        <ele>27.2</ele>
        <time>2020-06-07T10:20:41Z</time>
      </trkpt>
      <trkpt lat="47.26787" lon="-1.62377">
        <ele>27.3</ele>
        <time>2020-06-07T10:20:42Z</time>
      </trkpt>
      <trkpt lat="47.26787" lon="-1.62378">
        <ele>27.3</ele>
        <time>2020-06-07T10:20:43Z</time>
      </trkpt>
      <trkpt lat="47.26787" lon="-1.62379">
        <ele>27.3</ele>
        <time>2020-06-07T10:20:44Z</time>
      </trkpt>
      <trkpt lat="47.26787" lon="-1.6238">
        <ele>27.3</ele>
        <time>2020-06-07T10:20:45Z</time>
      </trkpt>
      <trkpt lat="47.26787" lon="-1.62381">
        <ele>27.3</ele>
        <time>2020-06-07T10:20:46Z</time>
      </trkpt>
      <trkpt lat="47.26788" lon="-1.62382">
        <ele>27.3</ele>
        <time>2020-06-07T10:20:47Z</time>
      </trkpt>
      <trkpt lat="47.26788" lon="-1.62383">
        <ele>27.4</ele>
        <time>2020-06-07T10:20:48Z</time>
      </trkpt>
      <trkpt lat="47.26788" lon="-1.62385">
        <ele>27.4</ele>
        <time>2020-06-07T10:20:49Z</time>
      </trkpt>
      <trkpt lat="47.26788" lon="-1.62386">
        <ele>27.4</ele>
        <time>2020-06-07T10:20:50Z</time>
      </trkpt>
      <trkpt lat="47.26788" lon="-1.62387">
        <ele>27.4</ele>
        <time>2020-06-07T10:20:51Z</time>
      </trkpt>
      <trkpt lat="47.26788" lon="-1.62388">
        <ele>27.4</ele>
        <time>2020-06-07T10:20:52Z</time>
      </trkpt>
      <trkpt lat="47.26788" lon="-1.62389">
        <ele>27.5</ele>
        <time>2020-06-07T10:20:53Z</time>
      </trkpt>
      <trkpt lat="47.26788" lon="-1.62391">
        <ele>27.5</ele>
        <time>2020-06-07T10:20:54Z</time>
      </trkpt>
      <trkpt lat="47.26789" lon="-1.62392">
        <ele>27.5</ele>
        <time>2020-06-07T10:20:55Z</time>
      </trkpt>
      <trkpt lat="47.26789" lon="-1.62393">
        <ele>27.5</ele>
        <time>2020-06-07T10:20:56Z</time>
      </trkpt>
      <trkpt lat="47.26789" lon="-1.62395">
        <ele>27.6</ele>
        <time>2020-06-07T10:20:57Z</time>
      </trkpt>
      <trkpt lat="47.26789" lon="-1.62396">
        <ele>27.6</ele>
        <time>2020-06-07T10:20:58Z</time>
      </trkpt>
      <trkpt lat="47.26789" lon="-1.62397">
        <ele>27.6</ele>
        <time>2020-06-07T10:20:59Z</time>
      </trkpt>
      <trkpt lat="47.26789" lon="-1.62399">
        <ele>27.6</ele>
        <time>2020-06-07T10:21:00Z</time>
      </trkpt>
      <trkpt lat="47.26788" lon="-1.624">
        <ele>27.6</ele>
        <time>2020-06-07T10:21:01Z</time>
      </trkpt>
      <trkpt lat="47.26788" lon="-1.62402">
        <ele>27.7</ele>
        <time>2020-06-07T10:21:02Z</time>
      </trkpt>
      <trkpt lat="47.26788" lon="-1.62403">
        <ele>27.7</ele>
        <time>2020-06-07T10:21:03Z</time>
      </trkpt>
      <trkpt lat="47.26788" lon="-1.62405">
        <ele>27.7</ele>
        <time>2020-06-07T10:21:04Z</time>
      </trkpt>
      <trkpt lat="47.26788" lon="-1.62406">
        <ele>27.7</ele>
        <time>2020-06-07T10:21:05Z</time>
      </trkpt>
      <trkpt lat="47.26788" lon="-1.62408">
        <ele>27.8</ele>
        <time>2020-06-07T10:21:06Z</time>
      </trkpt>
      <trkpt lat="47.26788" lon="-1.62409">
        <ele>27.8</ele>
        <time>2020-06-07T10:21:07Z</time>
      </trkpt>
      <trkpt lat="47.26788" lon="-1.6241">
        <ele>27.8</ele>
        <time>2020-06-07T10:21:08Z</time>
      </trkpt>
      <trkpt lat="47.26788" lon="-1.62412">
        <ele>27.8</ele>
        <time>2020-06-07T10:21:09Z</time>
      </trkpt>
      <trkpt lat="47.26788" lon="-1.62413">
        <ele>27.8</ele>
        <time>2020-06-07T10:21:10Z</time>
      </trkpt>
      <trkpt lat="47.26787" lon="-1.62415">
        <ele>27.9</ele>
        <time>2020-06-07T10:21:11Z</time>
      </trkpt>
      <trkpt lat="47.26787" lon="-1.62416">
        <ele>27.9</ele>
        <time>2020-06-07T10:21:12Z</time>
      </trkpt>
      <trkpt lat="47.26787" lon="-1.62417">
        <ele>27.9</ele>
        <time>2020-06-07T10:21:13Z</time>
      </trkpt>
      <trkpt lat="47.26787" lon="-1.62418">
        <ele>28</ele>
        <time>2020-06-07T10:21:14Z</time>
      </trkpt>
      <trkpt lat="47.26787" lon="-1.62419">
        <ele>28</ele>
        <time>2020-06-07T10:21:15Z</time>
      </trkpt>
      <trkpt lat="47.26787" lon="-1.62421">
        <ele>28.1</ele>
        <time>2020-06-07T10:21:16Z</time>
      </trkpt>
      <trkpt lat="47.26787" lon="-1.62422">
        <ele>28.1</ele>
        <time>2020-06-07T10:21:17Z</time>
      </trkpt>
      <trkpt lat="47.26786" lon="-1.62423">
        <ele>28.2</ele>
        <time>2020-06-07T10:21:18Z</time>
      </trkpt>
      <trkpt lat="47.26786" lon="-1.62424">
        <ele>28.2</ele>
        <time>2020-06-07T10:21:19Z</time>
      </trkpt>
      <trkpt lat="47.26786" lon="-1.62425">
        <ele>28.3</ele>
        <time>2020-06-07T10:21:20Z</time>
      </trkpt>
      <trkpt lat="47.26786" lon="-1.62426">
        <ele>28.3</ele>
        <time>2020-06-07T10:21:21Z</time>
      </trkpt>
      <trkpt lat="47.26786" lon="-1.62427">
        <ele>28.3</ele>
        <time>2020-06-07T10:21:22Z</time>
      </trkpt>
      <trkpt lat="47.26786" lon="-1.62428">
        <ele>28.4</ele>
        <time>2020-06-07T10:21:23Z</time>
      </trkpt>
      <trkpt lat="47.26785" lon="-1.62429">
        <ele>28.4</ele>
        <time>2020-06-07T10:21:24Z</time>
      </trkpt>
      <trkpt lat="47.26785" lon="-1.6243">
        <ele>28.5</ele>
        <time>2020-06-07T10:21:25Z</time>
      </trkpt>
      <trkpt lat="47.26785" lon="-1.62431">
        <ele>28.5</ele>
        <time>2020-06-07T10:21:26Z</time>
      </trkpt>
      <trkpt lat="47.26785" lon="-1.62432">
        <ele>28.6</ele>
        <time>2020-06-07T10:21:27Z</time>
      </trkpt>
      <trkpt lat="47.26785" lon="-1.62433">
        <ele>28.6</ele>
        <time>2020-06-07T10:21:28Z</time>
      </trkpt>
      <trkpt lat="47.26785" lon="-1.62434">
        <ele>28.6</ele>
        <time>2020-06-07T10:21:29Z</time>
      </trkpt>
      <trkpt lat="47.26785" lon="-1.62435">
        <ele>28.7</ele>
        <time>2020-06-07T10:21:30Z</time>
      </trkpt>
      <trkpt lat="47.26784" lon="-1.62436">
        <ele>28.7</ele>
        <time>2020-06-07T10:21:31Z</time>
      </trkpt>
      <trkpt lat="47.26784" lon="-1.62437">
        <ele>28.8</ele>
        <time>2020-06-07T10:21:32Z</time>
      </trkpt>
      <trkpt lat="47.26784" lon="-1.62438">
        <ele>28.8</ele>
        <time>2020-06-07T10:21:33Z</time>
      </trkpt>
      <trkpt lat="47.26784" lon="-1.62439">
        <ele>28.9</ele>
        <time>2020-06-07T10:21:34Z</time>
      </trkpt>
      <trkpt lat="47.26784" lon="-1.62441">
        <ele>29</ele>
        <time>2020-06-07T10:21:35Z</time>
      </trkpt>
      <trkpt lat="47.26784" lon="-1.62442">
        <ele>29</ele>
        <time>2020-06-07T10:21:36Z</time>
      </trkpt>
      <trkpt lat="47.26783" lon="-1.62443">
        <ele>29.1</ele>
        <time>2020-06-07T10:21:37Z</time>
      </trkpt>
      <trkpt lat="47.26783" lon="-1.62444">
        <ele>29.1</ele>
        <time>2020-06-07T10:21:38Z</time>
      </trkpt>
      <trkpt lat="47.26783" lon="-1.62445">
        <ele>29.2</ele>
        <time>2020-06-07T10:21:39Z</time>
      </trkpt>
      <trkpt lat="47.26783" lon="-1.62447">
        <ele>29.2</ele>
        <time>2020-06-07T10:21:40Z</time>
      </trkpt>
      <trkpt lat="47.26783" lon="-1.62448">
        <ele>29.3</ele>
        <time>2020-06-07T10:21:41Z</time>
      </trkpt>
      <trkpt lat="47.26782" lon="-1.62449">
        <ele>29.3</ele>
        <time>2020-06-07T10:21:42Z</time>
      </trkpt>
      <trkpt lat="47.26782" lon="-1.62451">
        <ele>29.4</ele>
        <time>2020-06-07T10:21:43Z</time>
      </trkpt>
      <trkpt lat="47.26782" lon="-1.62452">
        <ele>29.5</ele>
        <time>2020-06-07T10:21:44Z</time>
      </trkpt>
      <trkpt lat="47.26782" lon="-1.62453">
        <ele>29.5</ele>
        <time>2020-06-07T10:21:45Z</time>
      </trkpt>
      <trkpt lat="47.26781" lon="-1.62455">
        <ele>29.6</ele>
        <time>2020-06-07T10:21:46Z</time>
      </trkpt>
      <trkpt lat="47.26781" lon="-1.62456">
        <ele>29.6</ele>
        <time>2020-06-07T10:21:47Z</time>
      </trkpt>
      <trkpt lat="47.26781" lon="-1.62457">
        <ele>29.7</ele>
        <time>2020-06-07T10:21:48Z</time>
      </trkpt>
      <trkpt lat="47.2678" lon="-1.62459">
        <ele>29.7</ele>
        <time>2020-06-07T10:21:49Z</time>
      </trkpt>
      <trkpt lat="47.2678" lon="-1.6246">
        <ele>29.8</ele>
        <time>2020-06-07T10:21:50Z</time>
      </trkpt>
      <trkpt lat="47.2678" lon="-1.62461">
        <ele>29.9</ele>
        <time>2020-06-07T10:21:51Z</time>
      </trkpt>
      <trkpt lat="47.26779" lon="-1.62463">
        <ele>29.9</ele>
        <time>2020-06-07T10:21:52Z</time>
      </trkpt>
      <trkpt lat="47.26779" lon="-1.62464">
        <ele>30</ele>
        <time>2020-06-07T10:21:53Z</time>
      </trkpt>
      <trkpt lat="47.26779" lon="-1.62466">
        <ele>30</ele>
        <time>2020-06-07T10:21:54Z</time>
      </trkpt>
      <trkpt lat="47.26779" lon="-1.62467">
        <ele>30.1</ele>
        <time>2020-06-07T10:21:55Z</time>
      </trkpt>
      <trkpt lat="47.26778" lon="-1.62468">
        <ele>30.1</ele>
        <time>2020-06-07T10:21:56Z</time>
      </trkpt>
      <trkpt lat="47.26778" lon="-1.6247">
        <ele>30.2</ele>
        <time>2020-06-07T10:21:57Z</time>
      </trkpt>
      <trkpt lat="47.26778" lon="-1.62471">
        <ele>30.3</ele>
        <time>2020-06-07T10:21:58Z</time>
      </trkpt>
      <trkpt lat="47.26777" lon="-1.62472">
        <ele>30.3</ele>
        <time>2020-06-07T10:21:59Z</time>
      </trkpt>
      <trkpt lat="47.26777" lon="-1.62474">
        <ele>30.4</ele>
        <time>2020-06-07T10:22:00Z</time>
      </trkpt>
      <trkpt lat="47.26777" lon="-1.62475">
        <ele>30.4</ele>
        <time>2020-06-07T10:22:01Z</time>
      </trkpt>
      <trkpt lat="47.26777" lon="-1.62476">
        <ele>30.5</ele>
        <time>2020-06-07T10:22:02Z</time>
      </trkpt>
      <trkpt lat="47.26776" lon="-1.62478">
        <ele>30.6</ele>
        <time>2020-06-07T10:22:03Z</time>
      </trkpt>
      <trkpt lat="47.26776" lon="-1.62479">
        <ele>30.6</ele>
        <time>2020-06-07T10:22:04Z</time>
      </trkpt>
      <trkpt lat="47.26776" lon="-1.6248">
        <ele>30.7</ele>
        <time>2020-06-07T10:22:05Z</time>
      </trkpt>
      <trkpt lat="47.26776" lon="-1.62482">
        <ele>30.7</ele>
        <time>2020-06-07T10:22:06Z</time>
      </trkpt>
      <trkpt lat="47.26776" lon="-1.62483">
        <ele>30.8</ele>
        <time>2020-06-07T10:22:07Z</time>
      </trkpt>
      <trkpt lat="47.26776" lon="-1.62484">
        <ele>30.8</ele>
        <time>2020-06-07T10:22:08Z</time>
      </trkpt>
      <trkpt lat="47.26776" lon="-1.62485">
        <ele>30.9</ele>
        <time>2020-06-07T10:22:09Z</time>
      </trkpt>
      <trkpt lat="47.26776" lon="-1.62487">
        <ele>31</ele>
        <time>2020-06-07T10:22:10Z</time>
      </trkpt>
      <trkpt lat="47.26776" lon="-1.62488">
        <ele>31</ele>
        <time>2020-06-07T10:22:11Z</time>
      </trkpt>
      <trkpt lat="47.26775" lon="-1.62489">
        <ele>31.1</ele>
        <time>2020-06-07T10:22:12Z</time>
      </trkpt>
      <trkpt lat="47.26775" lon="-1.6249">
        <ele>31.1</ele>
        <time>2020-06-07T10:22:13Z</time>
      </trkpt>
      <trkpt lat="47.26775" lon="-1.62492">
        <ele>31.2</ele>
        <time>2020-06-07T10:22:14Z</time>
      </trkpt>
      <trkpt lat="47.26775" lon="-1.62493">
        <ele>31.3</ele>
        <time>2020-06-07T10:22:15Z</time>
      </trkpt>
      <trkpt lat="47.26775" lon="-1.62494">
        <ele>31.3</ele>
        <time>2020-06-07T10:22:16Z</time>
      </trkpt>
      <trkpt lat="47.26775" lon="-1.62495">
        <ele>31.4</ele>
        <time>2020-06-07T10:22:17Z</time>
      </trkpt>
      <trkpt lat="47.26775" lon="-1.62497">
        <ele>31.4</ele>
        <time>2020-06-07T10:22:18Z</time>
      </trkpt>
      <trkpt lat="47.26775" lon="-1.62498">
        <ele>31.5</ele>
        <time>2020-06-07T10:22:19Z</time>
      </trkpt>
      <trkpt lat="47.26775" lon="-1.62499">
        <ele>31.6</ele>
        <time>2020-06-07T10:22:20Z</time>
      </trkpt>
      <trkpt lat="47.26775" lon="-1.625">
        <ele>31.6</ele>
        <time>2020-06-07T10:22:21Z</time>
      </trkpt>
      <trkpt lat="47.26775" lon="-1.62502">
        <ele>31.6</ele>
        <time>2020-06-07T10:22:22Z</time>
      </trkpt>
      <trkpt lat="47.26775" lon="-1.62503">
        <ele>31.7</ele>
        <time>2020-06-07T10:22:23Z</time>
      </trkpt>
      <trkpt lat="47.26775" lon="-1.62504">
        <ele>31.7</ele>
        <time>2020-06-07T10:22:24Z</time>
      </trkpt>
      <trkpt lat="47.26775" lon="-1.62506">
        <ele>31.7</ele>
        <time>2020-06-07T10:22:25Z</time>
      </trkpt>
      <trkpt lat="47.26775" lon="-1.62507">
        <ele>31.7</ele>
        <time>2020-06-07T10:22:26Z</time>
      </trkpt>
      <trkpt lat="47.26775" lon="-1.62508">
        <ele>31.7</ele>
        <time>2020-06-07T10:22:27Z</time>
      </trkpt>
      <trkpt lat="47.26775" lon="-1.6251">
        <ele>31.7</ele>
        <time>2020-06-07T10:22:28Z</time>
      </trkpt>
      <trkpt lat="47.26775" lon="-1.62511">
        <ele>31.8</ele>
        <time>2020-06-07T10:22:29Z</time>
      </trkpt>
      <trkpt lat="47.26775" lon="-1.62512">
        <ele>31.8</ele>
        <time>2020-06-07T10:22:30Z</time>
      </trkpt>
      <trkpt lat="47.26775" lon="-1.62514">
        <ele>31.8</ele>
        <time>2020-06-07T10:22:31Z</time>
      </trkpt>
      <trkpt lat="47.26775" lon="-1.62515">
        <ele>31.8</ele>
        <time>2020-06-07T10:22:32Z</time>
      </trkpt>
      <trkpt lat="47.26775" lon="-1.62516">
        <ele>31.8</ele>
        <time>2020-06-07T10:22:33Z</time>
      </trkpt>
      <trkpt lat="47.26775" lon="-1.62517">
        <ele>31.9</ele>
        <time>2020-06-07T10:22:34Z</time>
      </trkpt>
      <trkpt lat="47.26775" lon="-1.62518">
        <ele>31.9</ele>
        <time>2020-06-07T10:22:35Z</time>
      </trkpt>
      <trkpt lat="47.26775" lon="-1.6252">
        <ele>31.9</ele>
        <time>2020-06-07T10:22:36Z</time>
      </trkpt>
      <trkpt lat="47.26774" lon="-1.62521">
        <ele>31.9</ele>
        <time>2020-06-07T10:22:37Z</time>
      </trkpt>
      <trkpt lat="47.26774" lon="-1.62522">
        <ele>31.9</ele>
        <time>2020-06-07T10:22:38Z</time>
      </trkpt>
      <trkpt lat="47.26774" lon="-1.62523">
        <ele>31.9</ele>
        <time>2020-06-07T10:22:39Z</time>
      </trkpt>
      <trkpt lat="47.26774" lon="-1.62525">
        <ele>32</ele>
        <time>2020-06-07T10:22:40Z</time>
      </trkpt>
      <trkpt lat="47.26774" lon="-1.62526">
        <ele>32</ele>
        <time>2020-06-07T10:22:41Z</time>
      </trkpt>
      <trkpt lat="47.26774" lon="-1.62528">
        <ele>32</ele>
        <time>2020-06-07T10:22:42Z</time>
      </trkpt>
      <trkpt lat="47.26773" lon="-1.62529">
        <ele>32</ele>
        <time>2020-06-07T10:22:43Z</time>
      </trkpt>
      <trkpt lat="47.26773" lon="-1.6253">
        <ele>32</ele>
        <time>2020-06-07T10:22:44Z</time>
      </trkpt>
      <trkpt lat="47.26773" lon="-1.62532">
        <ele>32</ele>
        <time>2020-06-07T10:22:45Z</time>
      </trkpt>
      <trkpt lat="47.26773" lon="-1.62533">
        <ele>32</ele>
        <time>2020-06-07T10:22:46Z</time>
      </trkpt>
      <trkpt lat="47.26772" lon="-1.62535">
        <ele>32.1</ele>
        <time>2020-06-07T10:22:47Z</time>
      </trkpt>
      <trkpt lat="47.26772" lon="-1.62536">
        <ele>32.1</ele>
        <time>2020-06-07T10:22:48Z</time>
      </trkpt>
      <trkpt lat="47.26772" lon="-1.62537">
        <ele>32.1</ele>
        <time>2020-06-07T10:22:49Z</time>
      </trkpt>
      <trkpt lat="47.26772" lon="-1.62538">
        <ele>32.1</ele>
        <time>2020-06-07T10:22:50Z</time>
      </trkpt>
      <trkpt lat="47.26772" lon="-1.62539">
        <ele>32.1</ele>
        <time>2020-06-07T10:22:51Z</time>
      </trkpt>
      <trkpt lat="47.26772" lon="-1.6254">
        <ele>32.1</ele>
        <time>2020-06-07T10:22:52Z</time>
      </trkpt>
      <trkpt lat="47.26772" lon="-1.62541">
        <ele>32.1</ele>
        <time>2020-06-07T10:22:53Z</time>
      </trkpt>
      <trkpt lat="47.26771" lon="-1.62542">
        <ele>32.1</ele>
        <time>2020-06-07T10:22:54Z</time>
      </trkpt>
      <trkpt lat="47.26771" lon="-1.62543">
        <ele>32.2</ele>
        <time>2020-06-07T10:22:55Z</time>
      </trkpt>
      <trkpt lat="47.26771" lon="-1.62544">
        <ele>32.2</ele>
        <time>2020-06-07T10:22:56Z</time>
      </trkpt>
      <trkpt lat="47.26771" lon="-1.62545">
        <ele>32.2</ele>
        <time>2020-06-07T10:22:57Z</time>
      </trkpt>
      <trkpt lat="47.26771" lon="-1.62545">
        <ele>32.2</ele>
        <time>2020-06-07T10:22:58Z</time>
      </trkpt>
      <trkpt lat="47.26771" lon="-1.62546">
        <ele>32.2</ele>
        <time>2020-06-07T10:22:59Z</time>
      </trkpt>
      <trkpt lat="47.26771" lon="-1.62547">
        <ele>32.2</ele>
        <time>2020-06-07T10:23:00Z</time>
      </trkpt>
      <trkpt lat="47.26771" lon="-1.62548">
        <ele>32.2</ele>
        <time>2020-06-07T10:23:01Z</time>
      </trkpt>
      <trkpt lat="47.26771" lon="-1.62549">
        <ele>32.2</ele>
        <time>2020-06-07T10:23:02Z</time>
      </trkpt>
      <trkpt lat="47.26771" lon="-1.6255">
        <ele>32.2</ele>
        <time>2020-06-07T10:23:03Z</time>
      </trkpt>
      <trkpt lat="47.26771" lon="-1.62551">
        <ele>32.3</ele>
        <time>2020-06-07T10:23:04Z</time>
      </trkpt>
      <trkpt lat="47.2677" lon="-1.62552">
        <ele>32.3</ele>
        <time>2020-06-07T10:23:05Z</time>
      </trkpt>
      <trkpt lat="47.2677" lon="-1.62554">
        <ele>32.3</ele>
        <time>2020-06-07T10:23:06Z</time>
      </trkpt>
      <trkpt lat="47.2677" lon="-1.62555">
        <ele>32.3</ele>
        <time>2020-06-07T10:23:07Z</time>
      </trkpt>
      <trkpt lat="47.2677" lon="-1.62556">
        <ele>32.3</ele>
        <time>2020-06-07T10:23:08Z</time>
      </trkpt>
      <trkpt lat="47.2677" lon="-1.62558">
        <ele>32.3</ele>
        <time>2020-06-07T10:23:09Z</time>
      </trkpt>
      <trkpt lat="47.2677" lon="-1.62559">
        <ele>32.3</ele>
        <time>2020-06-07T10:23:10Z</time>
      </trkpt>
      <trkpt lat="47.2677" lon="-1.62561">
        <ele>32.4</ele>
        <time>2020-06-07T10:23:11Z</time>
      </trkpt>
      <trkpt lat="47.26769" lon="-1.62562">
        <ele>32.4</ele>
        <time>2020-06-07T10:23:12Z</time>
      </trkpt>
      <trkpt lat="47.26769" lon="-1.62564">
        <ele>32.4</ele>
        <time>2020-06-07T10:23:13Z</time>
      </trkpt>
      <trkpt lat="47.26769" lon="-1.62565">
        <ele>32.4</ele>
        <time>2020-06-07T10:23:14Z</time>
      </trkpt>
      <trkpt lat="47.26769" lon="-1.62566">
        <ele>32.4</ele>
        <time>2020-06-07T10:23:15Z</time>
      </trkpt>
      <trkpt lat="47.26768" lon="-1.62568">
        <ele>32.4</ele>
        <time>2020-06-07T10:23:16Z</time>
      </trkpt>
      <trkpt lat="47.26768" lon="-1.62569">
        <ele>32.4</ele>
        <time>2020-06-07T10:23:17Z</time>
      </trkpt>
      <trkpt lat="47.26768" lon="-1.6257">
        <ele>32.5</ele>
        <time>2020-06-07T10:23:18Z</time>
      </trkpt>
      <trkpt lat="47.26768" lon="-1.62571">
        <ele>32.5</ele>
        <time>2020-06-07T10:23:19Z</time>
      </trkpt>
      <trkpt lat="47.26768" lon="-1.62572">
        <ele>32.5</ele>
        <time>2020-06-07T10:23:20Z</time>
      </trkpt>
      <trkpt lat="47.26768" lon="-1.62573">
        <ele>32.5</ele>
        <time>2020-06-07T10:23:21Z</time>
      </trkpt>
      <trkpt lat="47.26768" lon="-1.62575">
        <ele>32.5</ele>
        <time>2020-06-07T10:23:22Z</time>
      </trkpt>
      <trkpt lat="47.26767" lon="-1.62576">
        <ele>32.5</ele>
        <time>2020-06-07T10:23:23Z</time>
      </trkpt>
      <trkpt lat="47.26767" lon="-1.62577">
        <ele>32.5</ele>
        <time>2020-06-07T10:23:24Z</time>
      </trkpt>
      <trkpt lat="47.26767" lon="-1.62578">
        <ele>32.5</ele>
        <time>2020-06-07T10:23:25Z</time>
      </trkpt>
      <trkpt lat="47.26767" lon="-1.6258">
        <ele>32.5</ele>
        <time>2020-06-07T10:23:26Z</time>
      </trkpt>
      <trkpt lat="47.26766" lon="-1.62582">
        <ele>32.6</ele>
        <time>2020-06-07T10:23:27Z</time>
      </trkpt>
      <trkpt lat="47.26766" lon="-1.62583">
        <ele>32.6</ele>
        <time>2020-06-07T10:23:28Z</time>
      </trkpt>
      <trkpt lat="47.26766" lon="-1.62585">
        <ele>32.6</ele>
        <time>2020-06-07T10:23:29Z</time>
      </trkpt>
      <trkpt lat="47.26766" lon="-1.62587">
        <ele>32.7</ele>
        <time>2020-06-07T10:23:30Z</time>
      </trkpt>
      <trkpt lat="47.26766" lon="-1.62589">
        <ele>32.8</ele>
        <time>2020-06-07T10:23:31Z</time>
      </trkpt>
      <trkpt lat="47.26766" lon="-1.62591">
        <ele>32.8</ele>
        <time>2020-06-07T10:23:32Z</time>
      </trkpt>
      <trkpt lat="47.26767" lon="-1.62593">
        <ele>32.9</ele>
        <time>2020-06-07T10:23:33Z</time>
      </trkpt>
      <trkpt lat="47.26767" lon="-1.62594">
        <ele>33</ele>
        <time>2020-06-07T10:23:34Z</time>
      </trkpt>
      <trkpt lat="47.26767" lon="-1.62596">
        <ele>33</ele>
        <time>2020-06-07T10:23:35Z</time>
      </trkpt>
      <trkpt lat="47.26767" lon="-1.62598">
        <ele>33.1</ele>
        <time>2020-06-07T10:23:36Z</time>
      </trkpt>
      <trkpt lat="47.26767" lon="-1.62599">
        <ele>33.1</ele>
        <time>2020-06-07T10:23:37Z</time>
      </trkpt>
      <trkpt lat="47.26766" lon="-1.62601">
        <ele>33.2</ele>
        <time>2020-06-07T10:23:38Z</time>
      </trkpt>
      <trkpt lat="47.26766" lon="-1.62602">
        <ele>33.2</ele>
        <time>2020-06-07T10:23:39Z</time>
      </trkpt>
      <trkpt lat="47.26766" lon="-1.62603">
        <ele>33.2</ele>
        <time>2020-06-07T10:23:40Z</time>
      </trkpt>
      <trkpt lat="47.26766" lon="-1.62605">
        <ele>33.3</ele>
        <time>2020-06-07T10:23:41Z</time>
      </trkpt>
      <trkpt lat="47.26766" lon="-1.62606">
        <ele>33.3</ele>
        <time>2020-06-07T10:23:42Z</time>
      </trkpt>
      <trkpt lat="47.26766" lon="-1.62607">
        <ele>33.4</ele>
        <time>2020-06-07T10:23:43Z</time>
      </trkpt>
      <trkpt lat="47.26766" lon="-1.62609">
        <ele>33.4</ele>
        <time>2020-06-07T10:23:44Z</time>
      </trkpt>
      <trkpt lat="47.26766" lon="-1.6261">
        <ele>33.5</ele>
        <time>2020-06-07T10:23:45Z</time>
      </trkpt>
      <trkpt lat="47.26766" lon="-1.62612">
        <ele>33.5</ele>
        <time>2020-06-07T10:23:46Z</time>
      </trkpt>
      <trkpt lat="47.26766" lon="-1.62613">
        <ele>33.6</ele>
        <time>2020-06-07T10:23:47Z</time>
      </trkpt>
      <trkpt lat="47.26766" lon="-1.62615">
        <ele>33.6</ele>
        <time>2020-06-07T10:23:48Z</time>
      </trkpt>
      <trkpt lat="47.26766" lon="-1.62617">
        <ele>33.7</ele>
        <time>2020-06-07T10:23:49Z</time>
      </trkpt>
      <trkpt lat="47.26766" lon="-1.62618">
        <ele>33.7</ele>
        <time>2020-06-07T10:23:50Z</time>
      </trkpt>
      <trkpt lat="47.26766" lon="-1.6262">
        <ele>33.8</ele>
        <time>2020-06-07T10:23:51Z</time>
      </trkpt>
      <trkpt lat="47.26766" lon="-1.62621">
        <ele>33.8</ele>
        <time>2020-06-07T10:23:52Z</time>
      </trkpt>
      <trkpt lat="47.26765" lon="-1.62622">
        <ele>33.8</ele>
        <time>2020-06-07T10:23:53Z</time>
      </trkpt>
      <trkpt lat="47.26765" lon="-1.62624">
        <ele>33.9</ele>
        <time>2020-06-07T10:23:54Z</time>
      </trkpt>
      <trkpt lat="47.26765" lon="-1.62625">
        <ele>33.9</ele>
        <time>2020-06-07T10:23:55Z</time>
      </trkpt>
      <trkpt lat="47.26765" lon="-1.62626">
        <ele>33.9</ele>
        <time>2020-06-07T10:23:56Z</time>
      </trkpt>
      <trkpt lat="47.26765" lon="-1.62628">
        <ele>34</ele>
        <time>2020-06-07T10:23:57Z</time>
      </trkpt>
      <trkpt lat="47.26764" lon="-1.62629">
        <ele>34</ele>
        <time>2020-06-07T10:23:58Z</time>
      </trkpt>
      <trkpt lat="47.26764" lon="-1.6263">
        <ele>34</ele>
        <time>2020-06-07T10:23:59Z</time>
      </trkpt>
      <trkpt lat="47.26764" lon="-1.62631">
        <ele>34.1</ele>
        <time>2020-06-07T10:24:00Z</time>
      </trkpt>
      <trkpt lat="47.26764" lon="-1.62633">
        <ele>34.1</ele>
        <time>2020-06-07T10:24:01Z</time>
      </trkpt>
      <trkpt lat="47.26764" lon="-1.62634">
        <ele>34.2</ele>
        <time>2020-06-07T10:24:02Z</time>
      </trkpt>
      <trkpt lat="47.26764" lon="-1.62635">
        <ele>34.2</ele>
        <time>2020-06-07T10:24:03Z</time>
      </trkpt>
      <trkpt lat="47.26765" lon="-1.62637">
        <ele>34.2</ele>
        <time>2020-06-07T10:24:04Z</time>
      </trkpt>
      <trkpt lat="47.26765" lon="-1.62638">
        <ele>34.3</ele>
        <time>2020-06-07T10:24:05Z</time>
      </trkpt>
      <trkpt lat="47.26765" lon="-1.62639">
        <ele>34.3</ele>
        <time>2020-06-07T10:24:06Z</time>
      </trkpt>
      <trkpt lat="47.26765" lon="-1.62641">
        <ele>34.4</ele>
        <time>2020-06-07T10:24:07Z</time>
      </trkpt>
      <trkpt lat="47.26765" lon="-1.62642">
        <ele>34.4</ele>
        <time>2020-06-07T10:24:08Z</time>
      </trkpt>
      <trkpt lat="47.26765" lon="-1.62644">
        <ele>34.5</ele>
        <time>2020-06-07T10:24:09Z</time>
      </trkpt>
      <trkpt lat="47.26765" lon="-1.62645">
        <ele>34.5</ele>
        <time>2020-06-07T10:24:10Z</time>
      </trkpt>
      <trkpt lat="47.26765" lon="-1.62647">
        <ele>34.6</ele>
        <time>2020-06-07T10:24:11Z</time>
      </trkpt>
      <trkpt lat="47.26765" lon="-1.62648">
        <ele>34.6</ele>
        <time>2020-06-07T10:24:12Z</time>
      </trkpt>
      <trkpt lat="47.26765" lon="-1.6265">
        <ele>34.7</ele>
        <time>2020-06-07T10:24:13Z</time>
      </trkpt>
      <trkpt lat="47.26765" lon="-1.62651">
        <ele>34.7</ele>
        <time>2020-06-07T10:24:14Z</time>
      </trkpt>
      <trkpt lat="47.26765" lon="-1.62653">
        <ele>34.8</ele>
        <time>2020-06-07T10:24:15Z</time>
      </trkpt>
      <trkpt lat="47.26765" lon="-1.62654">
        <ele>34.9</ele>
        <time>2020-06-07T10:24:16Z</time>
      </trkpt>
      <trkpt lat="47.26765" lon="-1.62656">
        <ele>34.9</ele>
        <time>2020-06-07T10:24:17Z</time>
      </trkpt>
      <trkpt lat="47.26765" lon="-1.62658">
        <ele>35</ele>
        <time>2020-06-07T10:24:18Z</time>
      </trkpt>
      <trkpt lat="47.26765" lon="-1.62659">
        <ele>35</ele>
        <time>2020-06-07T10:24:19Z</time>
      </trkpt>
      <trkpt lat="47.26765" lon="-1.62661">
        <ele>35.1</ele>
        <time>2020-06-07T10:24:20Z</time>
      </trkpt>
      <trkpt lat="47.26765" lon="-1.62662">
        <ele>35.1</ele>
        <time>2020-06-07T10:24:21Z</time>
      </trkpt>
      <trkpt lat="47.26765" lon="-1.62664">
        <ele>35.2</ele>
        <time>2020-06-07T10:24:22Z</time>
      </trkpt>
      <trkpt lat="47.26766" lon="-1.62665">
        <ele>35.3</ele>
        <time>2020-06-07T10:24:23Z</time>
      </trkpt>
      <trkpt lat="47.26766" lon="-1.62667">
        <ele>35.3</ele>
        <time>2020-06-07T10:24:24Z</time>
      </trkpt>
      <trkpt lat="47.26766" lon="-1.62668">
        <ele>35.3</ele>
        <time>2020-06-07T10:24:25Z</time>
      </trkpt>
      <trkpt lat="47.26766" lon="-1.6267">
        <ele>35.3</ele>
        <time>2020-06-07T10:24:26Z</time>
      </trkpt>
      <trkpt lat="47.26766" lon="-1.62671">
        <ele>35.3</ele>
        <time>2020-06-07T10:24:27Z</time>
      </trkpt>
      <trkpt lat="47.26766" lon="-1.62673">
        <ele>35.3</ele>
        <time>2020-06-07T10:24:28Z</time>
      </trkpt>
      <trkpt lat="47.26766" lon="-1.62674">
        <ele>35.4</ele>
        <time>2020-06-07T10:24:29Z</time>
      </trkpt>
      <trkpt lat="47.26766" lon="-1.62676">
        <ele>35.4</ele>
        <time>2020-06-07T10:24:30Z</time>
      </trkpt>
      <trkpt lat="47.26766" lon="-1.62677">
        <ele>35.4</ele>
        <time>2020-06-07T10:24:31Z</time>
      </trkpt>
      <trkpt lat="47.26767" lon="-1.62678">
        <ele>35.4</ele>
        <time>2020-06-07T10:24:32Z</time>
      </trkpt>
      <trkpt lat="47.26767" lon="-1.6268">
        <ele>35.4</ele>
        <time>2020-06-07T10:24:33Z</time>
      </trkpt>
      <trkpt lat="47.26767" lon="-1.62681">
        <ele>35.4</ele>
        <time>2020-06-07T10:24:34Z</time>
      </trkpt>
      <trkpt lat="47.26767" lon="-1.62683">
        <ele>35.4</ele>
        <time>2020-06-07T10:24:35Z</time>
      </trkpt>
      <trkpt lat="47.26767" lon="-1.62684">
        <ele>35.4</ele>
        <time>2020-06-07T10:24:36Z</time>
      </trkpt>
      <trkpt lat="47.26767" lon="-1.62685">
        <ele>35.4</ele>
        <time>2020-06-07T10:24:37Z</time>
      </trkpt>
      <trkpt lat="47.26767" lon="-1.62687">
        <ele>35.4</ele>
        <time>2020-06-07T10:24:38Z</time>
      </trkpt>
      <trkpt lat="47.26767" lon="-1.62688">
        <ele>35.5</ele>
        <time>2020-06-07T10:24:39Z</time>
      </trkpt>
      <trkpt lat="47.26767" lon="-1.6269">
        <ele>35.5</ele>
        <time>2020-06-07T10:24:40Z</time>
      </trkpt>
      <trkpt lat="47.26767" lon="-1.62691">
        <ele>35.5</ele>
        <time>2020-06-07T10:24:41Z</time>
      </trkpt>
      <trkpt lat="47.26768" lon="-1.62692">
        <ele>35.5</ele>
        <time>2020-06-07T10:24:42Z</time>
      </trkpt>
      <trkpt lat="47.26768" lon="-1.62694">
        <ele>35.5</ele>
        <time>2020-06-07T10:24:43Z</time>
      </trkpt>
      <trkpt lat="47.26768" lon="-1.62695">
        <ele>35.5</ele>
        <time>2020-06-07T10:24:44Z</time>
      </trkpt>
      <trkpt lat="47.26768" lon="-1.62697">
        <ele>35.5</ele>
        <time>2020-06-07T10:24:45Z</time>
      </trkpt>
      <trkpt lat="47.26768" lon="-1.62698">
        <ele>35.5</ele>
        <time>2020-06-07T10:24:46Z</time>
      </trkpt>
      <trkpt lat="47.26767" lon="-1.62699">
        <ele>35.5</ele>
        <time>2020-06-07T10:24:47Z</time>
      </trkpt>
      <trkpt lat="47.26767" lon="-1.62701">
        <ele>35.5</ele>
        <time>2020-06-07T10:24:48Z</time>
      </trkpt>
      <trkpt lat="47.26767" lon="-1.62702">
        <ele>35.5</ele>
        <time>2020-06-07T10:24:49Z</time>
      </trkpt>
      <trkpt lat="47.26767" lon="-1.62704">
        <ele>35.4</ele>
        <time>2020-06-07T10:24:50Z</time>
      </trkpt>
      <trkpt lat="47.26767" lon="-1.62705">
        <ele>35.4</ele>
        <time>2020-06-07T10:24:51Z</time>
      </trkpt>
      <trkpt lat="47.26767" lon="-1.62707">
        <ele>35.4</ele>
        <time>2020-06-07T10:24:52Z</time>
      </trkpt>
      <trkpt lat="47.26767" lon="-1.62709">
        <ele>35.4</ele>
        <time>2020-06-07T10:24:53Z</time>
      </trkpt>
      <trkpt lat="47.26767" lon="-1.6271">
        <ele>35.4</ele>
        <time>2020-06-07T10:24:54Z</time>
      </trkpt>
      <trkpt lat="47.26766" lon="-1.62712">
        <ele>35.4</ele>
        <time>2020-06-07T10:24:55Z</time>
      </trkpt>
      <trkpt lat="47.26766" lon="-1.62713">
        <ele>35.4</ele>
        <time>2020-06-07T10:24:56Z</time>
      </trkpt>
      <trkpt lat="47.26766" lon="-1.62715">
        <ele>35.3</ele>
        <time>2020-06-07T10:24:57Z</time>
      </trkpt>
      <trkpt lat="47.26766" lon="-1.62717">
        <ele>35.3</ele>
        <time>2020-06-07T10:24:58Z</time>
      </trkpt>
      <trkpt lat="47.26766" lon="-1.62719">
        <ele>35.3</ele>
        <time>2020-06-07T10:24:59Z</time>
      </trkpt>
      <trkpt lat="47.26765" lon="-1.6272">
        <ele>35.3</ele>
        <time>2020-06-07T10:25:00Z</time>
      </trkpt>
      <trkpt lat="47.26765" lon="-1.62722">
        <ele>35.3</ele>
        <time>2020-06-07T10:25:01Z</time>
      </trkpt>
      <trkpt lat="47.26765" lon="-1.62724">
        <ele>35.2</ele>
        <time>2020-06-07T10:25:02Z</time>
      </trkpt>
      <trkpt lat="47.26764" lon="-1.62725">
        <ele>35.2</ele>
        <time>2020-06-07T10:25:03Z</time>
      </trkpt>
      <trkpt lat="47.26764" lon="-1.62727">
        <ele>35.2</ele>
        <time>2020-06-07T10:25:04Z</time>
      </trkpt>
      <trkpt lat="47.26764" lon="-1.62729">
        <ele>35.2</ele>
        <time>2020-06-07T10:25:05Z</time>
      </trkpt>
      <trkpt lat="47.26764" lon="-1.6273">
        <ele>35.2</ele>
        <time>2020-06-07T10:25:06Z</time>
      </trkpt>
      <trkpt lat="47.26764" lon="-1.62731">
        <ele>35.2</ele>
        <time>2020-06-07T10:25:07Z</time>
      </trkpt>
      <trkpt lat="47.26764" lon="-1.62733">
        <ele>35.2</ele>
        <time>2020-06-07T10:25:08Z</time>
      </trkpt>
      <trkpt lat="47.26764" lon="-1.62734">
        <ele>35.2</ele>
        <time>2020-06-07T10:25:09Z</time>
      </trkpt>
      <trkpt lat="47.26764" lon="-1.62735">
        <ele>35.2</ele>
        <time>2020-06-07T10:25:10Z</time>
      </trkpt>
      <trkpt lat="47.26764" lon="-1.62736">
        <ele>35.2</ele>
        <time>2020-06-07T10:25:11Z</time>
      </trkpt>
      <trkpt lat="47.26765" lon="-1.62736">
        <ele>35.2</ele>
        <time>2020-06-07T10:25:12Z</time>
      </trkpt>
      <trkpt lat="47.26765" lon="-1.62737">
        <ele>35.2</ele>
        <time>2020-06-07T10:25:13Z</time>
      </trkpt>
      <trkpt lat="47.26765" lon="-1.62738">
        <ele>35.3</ele>
        <time>2020-06-07T10:25:14Z</time>
      </trkpt>
      <trkpt lat="47.26765" lon="-1.62739">
        <ele>35.3</ele>
        <time>2020-06-07T10:25:15Z</time>
      </trkpt>
      <trkpt lat="47.26766" lon="-1.6274">
        <ele>35.3</ele>
        <time>2020-06-07T10:25:16Z</time>
      </trkpt>
      <trkpt lat="47.26766" lon="-1.62741">
        <ele>35.4</ele>
        <time>2020-06-07T10:25:17Z</time>
      </trkpt>
      <trkpt lat="47.26767" lon="-1.62742">
        <ele>35.4</ele>
        <time>2020-06-07T10:25:18Z</time>
      </trkpt>
      <trkpt lat="47.26767" lon="-1.62743">
        <ele>35.4</ele>
        <time>2020-06-07T10:25:19Z</time>
      </trkpt>
      <trkpt lat="47.26767" lon="-1.62745">
        <ele>35.4</ele>
        <time>2020-06-07T10:25:20Z</time>
      </trkpt>
      <trkpt lat="47.26768" lon="-1.62746">
        <ele>35.5</ele>
        <time>2020-06-07T10:25:21Z</time>
      </trkpt>
      <trkpt lat="47.26768" lon="-1.62747">
        <ele>35.5</ele>
        <time>2020-06-07T10:25:22Z</time>
      </trkpt>
      <trkpt lat="47.26768" lon="-1.62749">
        <ele>35.5</ele>
        <time>2020-06-07T10:25:23Z</time>
      </trkpt>
      <trkpt lat="47.26769" lon="-1.6275">
        <ele>35.6</ele>
        <time>2020-06-07T10:25:24Z</time>
      </trkpt>
      <trkpt lat="47.26769" lon="-1.62752">
        <ele>35.5</ele>
        <time>2020-06-07T10:25:25Z</time>
      </trkpt>
      <trkpt lat="47.26769" lon="-1.62753">
        <ele>35.5</ele>
        <time>2020-06-07T10:25:26Z</time>
      </trkpt>
      <trkpt lat="47.26769" lon="-1.62754">
        <ele>35.5</ele>
        <time>2020-06-07T10:25:27Z</time>
      </trkpt>
      <trkpt lat="47.26769" lon="-1.62756">
        <ele>35.5</ele>
        <time>2020-06-07T10:25:28Z</time>
      </trkpt>
      <trkpt lat="47.2677" lon="-1.62757">
        <ele>35.5</ele>
        <time>2020-06-07T10:25:29Z</time>
      </trkpt>
      <trkpt lat="47.2677" lon="-1.62759">
        <ele>35.5</ele>
        <time>2020-06-07T10:25:30Z</time>
      </trkpt>
      <trkpt lat="47.2677" lon="-1.6276">
        <ele>35.4</ele>
        <time>2020-06-07T10:25:31Z</time>
      </trkpt>
      <trkpt lat="47.2677" lon="-1.62762">
        <ele>35.4</ele>
        <time>2020-06-07T10:25:32Z</time>
      </trkpt>
      <trkpt lat="47.2677" lon="-1.62763">
        <ele>35.4</ele>
        <time>2020-06-07T10:25:33Z</time>
      </trkpt>
      <trkpt lat="47.2677" lon="-1.62764">
        <ele>35.4</ele>
        <time>2020-06-07T10:25:34Z</time>
      </trkpt>
      <trkpt lat="47.2677" lon="-1.62766">
        <ele>35.3</ele>
        <time>2020-06-07T10:25:35Z</time>
      </trkpt>
      <trkpt lat="47.2677" lon="-1.62767">
        <ele>35.3</ele>
        <time>2020-06-07T10:25:36Z</time>
      </trkpt>
      <trkpt lat="47.2677" lon="-1.62769">
        <ele>35.3</ele>
        <time>2020-06-07T10:25:37Z</time>
      </trkpt>
      <trkpt lat="47.26771" lon="-1.6277">
        <ele>35.3</ele>
        <time>2020-06-07T10:25:38Z</time>
      </trkpt>
      <trkpt lat="47.26771" lon="-1.62771">
        <ele>35.2</ele>
        <time>2020-06-07T10:25:39Z</time>
      </trkpt>
      <trkpt lat="47.26771" lon="-1.62773">
        <ele>35.2</ele>
        <time>2020-06-07T10:25:40Z</time>
      </trkpt>
      <trkpt lat="47.26771" lon="-1.62774">
        <ele>35.2</ele>
        <time>2020-06-07T10:25:41Z</time>
      </trkpt>
      <trkpt lat="47.26771" lon="-1.62775">
        <ele>35.1</ele>
        <time>2020-06-07T10:25:42Z</time>
      </trkpt>
      <trkpt lat="47.26771" lon="-1.62777">
        <ele>35.1</ele>
        <time>2020-06-07T10:25:43Z</time>
      </trkpt>
      <trkpt lat="47.26771" lon="-1.62778">
        <ele>35.1</ele>
        <time>2020-06-07T10:25:44Z</time>
      </trkpt>
      <trkpt lat="47.26771" lon="-1.6278">
        <ele>35.1</ele>
        <time>2020-06-07T10:25:45Z</time>
      </trkpt>
      <trkpt lat="47.26771" lon="-1.62781">
        <ele>35</ele>
        <time>2020-06-07T10:25:46Z</time>
      </trkpt>
      <trkpt lat="47.26771" lon="-1.62783">
        <ele>35</ele>
        <time>2020-06-07T10:25:47Z</time>
      </trkpt>
      <trkpt lat="47.26771" lon="-1.62784">
        <ele>35</ele>
        <time>2020-06-07T10:25:48Z</time>
      </trkpt>
      <trkpt lat="47.26771" lon="-1.62786">
        <ele>34.9</ele>
        <time>2020-06-07T10:25:49Z</time>
      </trkpt>
      <trkpt lat="47.26771" lon="-1.62787">
        <ele>34.9</ele>
        <time>2020-06-07T10:25:50Z</time>
      </trkpt>
      <trkpt lat="47.26771" lon="-1.62789">
        <ele>34.8</ele>
        <time>2020-06-07T10:25:51Z</time>
      </trkpt>
      <trkpt lat="47.26771" lon="-1.62791">
        <ele>34.8</ele>
        <time>2020-06-07T10:25:52Z</time>
      </trkpt>
      <trkpt lat="47.26771" lon="-1.62793">
        <ele>34.7</ele>
        <time>2020-06-07T10:25:53Z</time>
      </trkpt>
      <trkpt lat="47.26771" lon="-1.62794">
        <ele>34.7</ele>
        <time>2020-06-07T10:25:54Z</time>
      </trkpt>
      <trkpt lat="47.26771" lon="-1.62796">
        <ele>34.7</ele>
        <time>2020-06-07T10:25:55Z</time>
      </trkpt>
      <trkpt lat="47.26771" lon="-1.62798">
        <ele>34.6</ele>
        <time>2020-06-07T10:25:56Z</time>
      </trkpt>
      <trkpt lat="47.26771" lon="-1.628">
        <ele>34.6</ele>
        <time>2020-06-07T10:25:57Z</time>
      </trkpt>
      <trkpt lat="47.26771" lon="-1.62802">
        <ele>34.5</ele>
        <time>2020-06-07T10:25:58Z</time>
      </trkpt>
      <trkpt lat="47.26772" lon="-1.62803">
        <ele>34.5</ele>
        <time>2020-06-07T10:25:59Z</time>
      </trkpt>
      <trkpt lat="47.26772" lon="-1.62805">
        <ele>34.5</ele>
        <time>2020-06-07T10:26:00Z</time>
      </trkpt>
      <trkpt lat="47.26772" lon="-1.62807">
        <ele>34.4</ele>
        <time>2020-06-07T10:26:01Z</time>
      </trkpt>
      <trkpt lat="47.26772" lon="-1.62809">
        <ele>34.4</ele>
        <time>2020-06-07T10:26:02Z</time>
      </trkpt>
      <trkpt lat="47.26772" lon="-1.6281">
        <ele>34.4</ele>
        <time>2020-06-07T10:26:03Z</time>
      </trkpt>
      <trkpt lat="47.26772" lon="-1.62812">
        <ele>34.3</ele>
        <time>2020-06-07T10:26:04Z</time>
      </trkpt>
      <trkpt lat="47.26772" lon="-1.62814">
        <ele>34.3</ele>
        <time>2020-06-07T10:26:05Z</time>
      </trkpt>
      <trkpt lat="47.26772" lon="-1.62816">
        <ele>34.2</ele>
        <time>2020-06-07T10:26:06Z</time>
      </trkpt>
      <trkpt lat="47.26772" lon="-1.62817">
        <ele>34.2</ele>
        <time>2020-06-07T10:26:07Z</time>
      </trkpt>
      <trkpt lat="47.26773" lon="-1.62819">
        <ele>34.2</ele>
        <time>2020-06-07T10:26:08Z</time>
      </trkpt>
      <trkpt lat="47.26773" lon="-1.62821">
        <ele>34.1</ele>
        <time>2020-06-07T10:26:09Z</time>
      </trkpt>
      <trkpt lat="47.26773" lon="-1.62822">
        <ele>34.1</ele>
        <time>2020-06-07T10:26:10Z</time>
      </trkpt>
      <trkpt lat="47.26773" lon="-1.62824">
        <ele>34.1</ele>
        <time>2020-06-07T10:26:11Z</time>
      </trkpt>
      <trkpt lat="47.26773" lon="-1.62826">
        <ele>34</ele>
        <time>2020-06-07T10:26:12Z</time>
      </trkpt>
      <trkpt lat="47.26774" lon="-1.62827">
        <ele>34</ele>
        <time>2020-06-07T10:26:13Z</time>
      </trkpt>
      <trkpt lat="47.26774" lon="-1.62829">
        <ele>34</ele>
        <time>2020-06-07T10:26:14Z</time>
      </trkpt>
      <trkpt lat="47.26774" lon="-1.6283">
        <ele>33.9</ele>
        <time>2020-06-07T10:26:15Z</time>
      </trkpt>
      <trkpt lat="47.26774" lon="-1.62832">
        <ele>33.9</ele>
        <time>2020-06-07T10:26:16Z</time>
      </trkpt>
      <trkpt lat="47.26775" lon="-1.62833">
        <ele>33.9</ele>
        <time>2020-06-07T10:26:17Z</time>
      </trkpt>
      <trkpt lat="47.26775" lon="-1.62835">
        <ele>33.8</ele>
        <time>2020-06-07T10:26:18Z</time>
      </trkpt>
      <trkpt lat="47.26775" lon="-1.62836">
        <ele>33.8</ele>
        <time>2020-06-07T10:26:19Z</time>
      </trkpt>
      <trkpt lat="47.26776" lon="-1.62838">
        <ele>33.7</ele>
        <time>2020-06-07T10:26:20Z</time>
      </trkpt>
      <trkpt lat="47.26776" lon="-1.62839">
        <ele>33.7</ele>
        <time>2020-06-07T10:26:21Z</time>
      </trkpt>
      <trkpt lat="47.26776" lon="-1.62841">
        <ele>33.6</ele>
        <time>2020-06-07T10:26:22Z</time>
      </trkpt>
      <trkpt lat="47.26777" lon="-1.62842">
        <ele>33.6</ele>
        <time>2020-06-07T10:26:23Z</time>
      </trkpt>
      <trkpt lat="47.26777" lon="-1.62844">
        <ele>33.5</ele>
        <time>2020-06-07T10:26:24Z</time>
      </trkpt>
      <trkpt lat="47.26777" lon="-1.62846">
        <ele>33.4</ele>
        <time>2020-06-07T10:26:25Z</time>
      </trkpt>
      <trkpt lat="47.26777" lon="-1.62847">
        <ele>33.4</ele>
        <time>2020-06-07T10:26:26Z</time>
      </trkpt>
      <trkpt lat="47.26777" lon="-1.62849">
        <ele>33.3</ele>
        <time>2020-06-07T10:26:27Z</time>
      </trkpt>
      <trkpt lat="47.26778" lon="-1.6285">
        <ele>33.2</ele>
        <time>2020-06-07T10:26:28Z</time>
      </trkpt>
      <trkpt lat="47.26778" lon="-1.62852">
        <ele>33.2</ele>
        <time>2020-06-07T10:26:29Z</time>
      </trkpt>
      <trkpt lat="47.26778" lon="-1.62854">
        <ele>33.1</ele>
        <time>2020-06-07T10:26:30Z</time>
      </trkpt>
      <trkpt lat="47.26778" lon="-1.62856">
        <ele>33</ele>
        <time>2020-06-07T10:26:31Z</time>
      </trkpt>
      <trkpt lat="47.26778" lon="-1.62857">
        <ele>33</ele>
        <time>2020-06-07T10:26:32Z</time>
      </trkpt>
      <trkpt lat="47.26778" lon="-1.62859">
        <ele>32.9</ele>
        <time>2020-06-07T10:26:33Z</time>
      </trkpt>
      <trkpt lat="47.26778" lon="-1.6286">
        <ele>32.8</ele>
        <time>2020-06-07T10:26:34Z</time>
      </trkpt>
      <trkpt lat="47.26779" lon="-1.62862">
        <ele>32.8</ele>
        <time>2020-06-07T10:26:35Z</time>
      </trkpt>
      <trkpt lat="47.26779" lon="-1.62863">
        <ele>32.7</ele>
        <time>2020-06-07T10:26:36Z</time>
      </trkpt>
      <trkpt lat="47.26779" lon="-1.62864">
        <ele>32.7</ele>
        <time>2020-06-07T10:26:37Z</time>
      </trkpt>
      <trkpt lat="47.26779" lon="-1.62866">
        <ele>32.7</ele>
        <time>2020-06-07T10:26:38Z</time>
      </trkpt>
      <trkpt lat="47.2678" lon="-1.62867">
        <ele>32.6</ele>
        <time>2020-06-07T10:26:39Z</time>
      </trkpt>
      <trkpt lat="47.2678" lon="-1.62868">
        <ele>32.6</ele>
        <time>2020-06-07T10:26:40Z</time>
      </trkpt>
      <trkpt lat="47.2678" lon="-1.62869">
        <ele>32.5</ele>
        <time>2020-06-07T10:26:41Z</time>
      </trkpt>
      <trkpt lat="47.26781" lon="-1.6287">
        <ele>32.5</ele>
        <time>2020-06-07T10:26:42Z</time>
      </trkpt>
      <trkpt lat="47.26781" lon="-1.62871">
        <ele>32.5</ele>
        <time>2020-06-07T10:26:43Z</time>
      </trkpt>
      <trkpt lat="47.26781" lon="-1.62872">
        <ele>32.4</ele>
        <time>2020-06-07T10:26:44Z</time>
      </trkpt>
      <trkpt lat="47.26781" lon="-1.62873">
        <ele>32.4</ele>
        <time>2020-06-07T10:26:45Z</time>
      </trkpt>
      <trkpt lat="47.26781" lon="-1.62874">
        <ele>32.3</ele>
        <time>2020-06-07T10:26:46Z</time>
      </trkpt>
      <trkpt lat="47.26782" lon="-1.62875">
        <ele>32.3</ele>
        <time>2020-06-07T10:26:47Z</time>
      </trkpt>
      <trkpt lat="47.26782" lon="-1.62877">
        <ele>32.3</ele>
        <time>2020-06-07T10:26:48Z</time>
      </trkpt>
      <trkpt lat="47.26782" lon="-1.62878">
        <ele>32.2</ele>
        <time>2020-06-07T10:26:49Z</time>
      </trkpt>
      <trkpt lat="47.26781" lon="-1.62879">
        <ele>32.1</ele>
        <time>2020-06-07T10:26:50Z</time>
      </trkpt>
      <trkpt lat="47.26781" lon="-1.6288">
        <ele>32.1</ele>
        <time>2020-06-07T10:26:51Z</time>
      </trkpt>
      <trkpt lat="47.26781" lon="-1.62881">
        <ele>32</ele>
        <time>2020-06-07T10:26:52Z</time>
      </trkpt>
      <trkpt lat="47.26781" lon="-1.62882">
        <ele>32</ele>
        <time>2020-06-07T10:26:53Z</time>
      </trkpt>
      <trkpt lat="47.2678" lon="-1.62884">
        <ele>31.9</ele>
        <time>2020-06-07T10:26:54Z</time>
      </trkpt>
      <trkpt lat="47.2678" lon="-1.62885">
        <ele>31.8</ele>
        <time>2020-06-07T10:26:55Z</time>
      </trkpt>
      <trkpt lat="47.26779" lon="-1.62886">
        <ele>31.7</ele>
        <time>2020-06-07T10:26:56Z</time>
      </trkpt>
      <trkpt lat="47.26779" lon="-1.62887">
        <ele>31.7</ele>
        <time>2020-06-07T10:26:57Z</time>
      </trkpt>
      <trkpt lat="47.26778" lon="-1.62889">
        <ele>31.6</ele>
        <time>2020-06-07T10:26:58Z</time>
      </trkpt>
      <trkpt lat="47.26777" lon="-1.6289">
        <ele>31.5</ele>
        <time>2020-06-07T10:26:59Z</time>
      </trkpt>
      <trkpt lat="47.26777" lon="-1.62891">
        <ele>31.4</ele>
        <time>2020-06-07T10:27:00Z</time>
      </trkpt>
      <trkpt lat="47.26776" lon="-1.62893">
        <ele>31.3</ele>
        <time>2020-06-07T10:27:01Z</time>
      </trkpt>
      <trkpt lat="47.26776" lon="-1.62894">
        <ele>31.2</ele>
        <time>2020-06-07T10:27:02Z</time>
      </trkpt>
      <trkpt lat="47.26775" lon="-1.62895">
        <ele>31.2</ele>
        <time>2020-06-07T10:27:03Z</time>
      </trkpt>
      <trkpt lat="47.26775" lon="-1.62897">
        <ele>31.1</ele>
        <time>2020-06-07T10:27:04Z</time>
      </trkpt>
      <trkpt lat="47.26774" lon="-1.62898">
        <ele>31</ele>
        <time>2020-06-07T10:27:05Z</time>
      </trkpt>
      <trkpt lat="47.26774" lon="-1.62899">
        <ele>30.9</ele>
        <time>2020-06-07T10:27:06Z</time>
      </trkpt>
      <trkpt lat="47.26773" lon="-1.62901">
        <ele>30.8</ele>
        <time>2020-06-07T10:27:07Z</time>
      </trkpt>
      <trkpt lat="47.26773" lon="-1.62902">
        <ele>30.7</ele>
        <time>2020-06-07T10:27:08Z</time>
      </trkpt>
      <trkpt lat="47.26772" lon="-1.62904">
        <ele>30.7</ele>
        <time>2020-06-07T10:27:09Z</time>
      </trkpt>
      <trkpt lat="47.26772" lon="-1.62905">
        <ele>30.6</ele>
        <time>2020-06-07T10:27:10Z</time>
      </trkpt>
      <trkpt lat="47.26772" lon="-1.62906">
        <ele>30.5</ele>
        <time>2020-06-07T10:27:11Z</time>
      </trkpt>
      <trkpt lat="47.26771" lon="-1.62908">
        <ele>30.4</ele>
        <time>2020-06-07T10:27:12Z</time>
      </trkpt>
      <trkpt lat="47.26771" lon="-1.62909">
        <ele>30.3</ele>
        <time>2020-06-07T10:27:13Z</time>
      </trkpt>
      <trkpt lat="47.26771" lon="-1.62911">
        <ele>30.3</ele>
        <time>2020-06-07T10:27:14Z</time>
      </trkpt>
      <trkpt lat="47.2677" lon="-1.62912">
        <ele>30.2</ele>
        <time>2020-06-07T10:27:15Z</time>
      </trkpt>
      <trkpt lat="47.2677" lon="-1.62914">
        <ele>30.1</ele>
        <time>2020-06-07T10:27:16Z</time>
      </trkpt>
      <trkpt lat="47.2677" lon="-1.62915">
        <ele>30</ele>
        <time>2020-06-07T10:27:17Z</time>
      </trkpt>
      <trkpt lat="47.26769" lon="-1.62917">
        <ele>29.9</ele>
        <time>2020-06-07T10:27:18Z</time>
      </trkpt>
      <trkpt lat="47.26769" lon="-1.62918">
        <ele>29.9</ele>
        <time>2020-06-07T10:27:19Z</time>
      </trkpt>
      <trkpt lat="47.26769" lon="-1.6292">
        <ele>29.9</ele>
        <time>2020-06-07T10:27:20Z</time>
      </trkpt>
      <trkpt lat="47.26768" lon="-1.62922">
        <ele>29.9</ele>
        <time>2020-06-07T10:27:21Z</time>
      </trkpt>
      <trkpt lat="47.26768" lon="-1.62923">
        <ele>29.9</ele>
        <time>2020-06-07T10:27:22Z</time>
      </trkpt>
      <trkpt lat="47.26768" lon="-1.62925">
        <ele>29.8</ele>
        <time>2020-06-07T10:27:23Z</time>
      </trkpt>
      <trkpt lat="47.26767" lon="-1.62926">
        <ele>29.8</ele>
        <time>2020-06-07T10:27:24Z</time>
      </trkpt>
      <trkpt lat="47.26767" lon="-1.62928">
        <ele>29.8</ele>
        <time>2020-06-07T10:27:25Z</time>
      </trkpt>
      <trkpt lat="47.26767" lon="-1.62929">
        <ele>29.8</ele>
        <time>2020-06-07T10:27:26Z</time>
      </trkpt>
      <trkpt lat="47.26766" lon="-1.62931">
        <ele>29.8</ele>
        <time>2020-06-07T10:27:27Z</time>
      </trkpt>
      <trkpt lat="47.26766" lon="-1.62933">
        <ele>29.8</ele>
        <time>2020-06-07T10:27:28Z</time>
      </trkpt>
      <trkpt lat="47.26766" lon="-1.62934">
        <ele>29.8</ele>
        <time>2020-06-07T10:27:29Z</time>
      </trkpt>
      <trkpt lat="47.26765" lon="-1.62936">
        <ele>29.7</ele>
        <time>2020-06-07T10:27:30Z</time>
      </trkpt>
      <trkpt lat="47.26765" lon="-1.62937">
        <ele>29.7</ele>
        <time>2020-06-07T10:27:31Z</time>
      </trkpt>
      <trkpt lat="47.26765" lon="-1.62939">
        <ele>29.7</ele>
        <time>2020-06-07T10:27:32Z</time>
      </trkpt>
      <trkpt lat="47.26764" lon="-1.6294">
        <ele>29.7</ele>
        <time>2020-06-07T10:27:33Z</time>
      </trkpt>
      <trkpt lat="47.26764" lon="-1.62942">
        <ele>29.7</ele>
        <time>2020-06-07T10:27:34Z</time>
      </trkpt>
      <trkpt lat="47.26763" lon="-1.62944">
        <ele>29.7</ele>
        <time>2020-06-07T10:27:35Z</time>
      </trkpt>
      <trkpt lat="47.26763" lon="-1.62945">
        <ele>29.7</ele>
        <time>2020-06-07T10:27:36Z</time>
      </trkpt>
      <trkpt lat="47.26763" lon="-1.62947">
        <ele>29.7</ele>
        <time>2020-06-07T10:27:37Z</time>
      </trkpt>
      <trkpt lat="47.26762" lon="-1.62948">
        <ele>29.7</ele>
        <time>2020-06-07T10:27:38Z</time>
      </trkpt>
      <trkpt lat="47.26762" lon="-1.62949">
        <ele>29.7</ele>
        <time>2020-06-07T10:27:39Z</time>
      </trkpt>
      <trkpt lat="47.26762" lon="-1.62951">
        <ele>29.7</ele>
        <time>2020-06-07T10:27:40Z</time>
      </trkpt>
      <trkpt lat="47.26761" lon="-1.62952">
        <ele>29.7</ele>
        <time>2020-06-07T10:27:41Z</time>
      </trkpt>
      <trkpt lat="47.26761" lon="-1.62954">
        <ele>29.7</ele>
        <time>2020-06-07T10:27:42Z</time>
      </trkpt>
      <trkpt lat="47.26761" lon="-1.62955">
        <ele>29.7</ele>
        <time>2020-06-07T10:27:43Z</time>
      </trkpt>
      <trkpt lat="47.2676" lon="-1.62957">
        <ele>29.7</ele>
        <time>2020-06-07T10:27:44Z</time>
      </trkpt>
      <trkpt lat="47.2676" lon="-1.62958">
        <ele>29.7</ele>
        <time>2020-06-07T10:27:45Z</time>
      </trkpt>
      <trkpt lat="47.2676" lon="-1.62959">
        <ele>29.7</ele>
        <time>2020-06-07T10:27:46Z</time>
      </trkpt>
      <trkpt lat="47.26759" lon="-1.62961">
        <ele>29.7</ele>
        <time>2020-06-07T10:27:47Z</time>
      </trkpt>
      <trkpt lat="47.26759" lon="-1.62962">
        <ele>29.7</ele>
        <time>2020-06-07T10:27:48Z</time>
      </trkpt>
      <trkpt lat="47.26759" lon="-1.62964">
        <ele>29.7</ele>
        <time>2020-06-07T10:27:49Z</time>
      </trkpt>
      <trkpt lat="47.26758" lon="-1.62965">
        <ele>29.7</ele>
        <time>2020-06-07T10:27:50Z</time>
      </trkpt>
      <trkpt lat="47.26758" lon="-1.62966">
        <ele>29.7</ele>
        <time>2020-06-07T10:27:51Z</time>
      </trkpt>
      <trkpt lat="47.26758" lon="-1.62968">
        <ele>29.7</ele>
        <time>2020-06-07T10:27:52Z</time>
      </trkpt>
      <trkpt lat="47.26757" lon="-1.62969">
        <ele>29.7</ele>
        <time>2020-06-07T10:27:53Z</time>
      </trkpt>
      <trkpt lat="47.26757" lon="-1.62971">
        <ele>29.7</ele>
        <time>2020-06-07T10:27:54Z</time>
      </trkpt>
      <trkpt lat="47.26757" lon="-1.62972">
        <ele>29.7</ele>
        <time>2020-06-07T10:27:55Z</time>
      </trkpt>
      <trkpt lat="47.26757" lon="-1.62973">
        <ele>29.7</ele>
        <time>2020-06-07T10:27:56Z</time>
      </trkpt>
      <trkpt lat="47.26756" lon="-1.62975">
        <ele>29.7</ele>
        <time>2020-06-07T10:27:57Z</time>
      </trkpt>
      <trkpt lat="47.26756" lon="-1.62976">
        <ele>29.7</ele>
        <time>2020-06-07T10:27:58Z</time>
      </trkpt>
      <trkpt lat="47.26756" lon="-1.62978">
        <ele>29.8</ele>
        <time>2020-06-07T10:27:59Z</time>
      </trkpt>
      <trkpt lat="47.26756" lon="-1.62979">
        <ele>29.8</ele>
        <time>2020-06-07T10:28:00Z</time>
      </trkpt>
      <trkpt lat="47.26756" lon="-1.62981">
        <ele>29.8</ele>
        <time>2020-06-07T10:28:01Z</time>
      </trkpt>
      <trkpt lat="47.26756" lon="-1.62982">
        <ele>29.8</ele>
        <time>2020-06-07T10:28:02Z</time>
      </trkpt>
      <trkpt lat="47.26756" lon="-1.62984">
        <ele>29.8</ele>
        <time>2020-06-07T10:28:03Z</time>
      </trkpt>
      <trkpt lat="47.26756" lon="-1.62985">
        <ele>29.8</ele>
        <time>2020-06-07T10:28:04Z</time>
      </trkpt>
      <trkpt lat="47.26756" lon="-1.62986">
        <ele>29.8</ele>
        <time>2020-06-07T10:28:05Z</time>
      </trkpt>
      <trkpt lat="47.26756" lon="-1.62988">
        <ele>29.8</ele>
        <time>2020-06-07T10:28:06Z</time>
      </trkpt>
      <trkpt lat="47.26756" lon="-1.62989">
        <ele>29.8</ele>
        <time>2020-06-07T10:28:07Z</time>
      </trkpt>
      <trkpt lat="47.26756" lon="-1.62991">
        <ele>29.9</ele>
        <time>2020-06-07T10:28:08Z</time>
      </trkpt>
      <trkpt lat="47.26756" lon="-1.62992">
        <ele>29.9</ele>
        <time>2020-06-07T10:28:09Z</time>
      </trkpt>
      <trkpt lat="47.26756" lon="-1.62994">
        <ele>29.9</ele>
        <time>2020-06-07T10:28:10Z</time>
      </trkpt>
      <trkpt lat="47.26757" lon="-1.62995">
        <ele>29.9</ele>
        <time>2020-06-07T10:28:11Z</time>
      </trkpt>
      <trkpt lat="47.26757" lon="-1.62997">
        <ele>29.9</ele>
        <time>2020-06-07T10:28:12Z</time>
      </trkpt>
      <trkpt lat="47.26757" lon="-1.62998">
        <ele>29.9</ele>
        <time>2020-06-07T10:28:13Z</time>
      </trkpt>
      <trkpt lat="47.26758" lon="-1.63">
        <ele>29.9</ele>
        <time>2020-06-07T10:28:14Z</time>
      </trkpt>
      <trkpt lat="47.26758" lon="-1.63001">
        <ele>30</ele>
        <time>2020-06-07T10:28:15Z</time>
      </trkpt>
      <trkpt lat="47.26759" lon="-1.63003">
        <ele>30.1</ele>
        <time>2020-06-07T10:28:16Z</time>
      </trkpt>
      <trkpt lat="47.26759" lon="-1.63004">
        <ele>30.2</ele>
        <time>2020-06-07T10:28:17Z</time>
      </trkpt>
      <trkpt lat="47.26759" lon="-1.63005">
        <ele>30.3</ele>
        <time>2020-06-07T10:28:18Z</time>
      </trkpt>
      <trkpt lat="47.2676" lon="-1.63007">
        <ele>30.4</ele>
        <time>2020-06-07T10:28:19Z</time>
      </trkpt>
      <trkpt lat="47.2676" lon="-1.63008">
        <ele>30.5</ele>
        <time>2020-06-07T10:28:20Z</time>
      </trkpt>
      <trkpt lat="47.26761" lon="-1.63009">
        <ele>30.5</ele>
        <time>2020-06-07T10:28:21Z</time>
      </trkpt>
      <trkpt lat="47.26761" lon="-1.6301">
        <ele>30.6</ele>
        <time>2020-06-07T10:28:22Z</time>
      </trkpt>
      <trkpt lat="47.26761" lon="-1.63011">
        <ele>30.7</ele>
        <time>2020-06-07T10:28:23Z</time>
      </trkpt>
      <trkpt lat="47.26762" lon="-1.63012">
        <ele>30.8</ele>
        <time>2020-06-07T10:28:24Z</time>
      </trkpt>
      <trkpt lat="47.26762" lon="-1.63014">
        <ele>30.9</ele>
        <time>2020-06-07T10:28:25Z</time>
      </trkpt>
      <trkpt lat="47.26762" lon="-1.63015">
        <ele>30.9</ele>
        <time>2020-06-07T10:28:26Z</time>
      </trkpt>
      <trkpt lat="47.26763" lon="-1.63016">
        <ele>31</ele>
        <time>2020-06-07T10:28:27Z</time>
      </trkpt>
      <trkpt lat="47.26763" lon="-1.63017">
        <ele>31.1</ele>
        <time>2020-06-07T10:28:28Z</time>
      </trkpt>
      <trkpt lat="47.26764" lon="-1.63018">
        <ele>31.2</ele>
        <time>2020-06-07T10:28:29Z</time>
      </trkpt>
      <trkpt lat="47.26764" lon="-1.6302">
        <ele>31.2</ele>
        <time>2020-06-07T10:28:30Z</time>
      </trkpt>
      <trkpt lat="47.26765" lon="-1.63021">
        <ele>31.3</ele>
        <time>2020-06-07T10:28:31Z</time>
      </trkpt>
      <trkpt lat="47.26765" lon="-1.63022">
        <ele>31.4</ele>
        <time>2020-06-07T10:28:32Z</time>
      </trkpt>
      <trkpt lat="47.26766" lon="-1.63023">
        <ele>31.5</ele>
        <time>2020-06-07T10:28:33Z</time>
      </trkpt>
      <trkpt lat="47.26767" lon="-1.63025">
        <ele>31.5</ele>
        <time>2020-06-07T10:28:34Z</time>
      </trkpt>
      <trkpt lat="47.26767" lon="-1.63026">
        <ele>31.6</ele>
        <time>2020-06-07T10:28:35Z</time>
      </trkpt>
      <trkpt lat="47.26768" lon="-1.63027">
        <ele>31.6</ele>
        <time>2020-06-07T10:28:36Z</time>
      </trkpt>
      <trkpt lat="47.26769" lon="-1.63027">
        <ele>31.6</ele>
        <time>2020-06-07T10:28:37Z</time>
      </trkpt>
      <trkpt lat="47.26769" lon="-1.63028">
        <ele>31.7</ele>
        <time>2020-06-07T10:28:38Z</time>
      </trkpt>
      <trkpt lat="47.2677" lon="-1.63029">
        <ele>31.7</ele>
        <time>2020-06-07T10:28:39Z</time>
      </trkpt>
      <trkpt lat="47.26771" lon="-1.6303">
        <ele>31.7</ele>
        <time>2020-06-07T10:28:40Z</time>
      </trkpt>
      <trkpt lat="47.26772" lon="-1.6303">
        <ele>31.7</ele>
        <time>2020-06-07T10:28:41Z</time>
      </trkpt>
      <trkpt lat="47.26773" lon="-1.63031">
        <ele>31.7</ele>
        <time>2020-06-07T10:28:42Z</time>
      </trkpt>
      <trkpt lat="47.26773" lon="-1.63032">
        <ele>31.8</ele>
        <time>2020-06-07T10:28:43Z</time>
      </trkpt>
      <trkpt lat="47.26774" lon="-1.63033">
        <ele>31.8</ele>
        <time>2020-06-07T10:28:44Z</time>
      </trkpt>
      <trkpt lat="47.26775" lon="-1.63034">
        <ele>31.8</ele>
        <time>2020-06-07T10:28:45Z</time>
      </trkpt>
      <trkpt lat="47.26776" lon="-1.63035">
        <ele>31.8</ele>
        <time>2020-06-07T10:28:46Z</time>
      </trkpt>
      <trkpt lat="47.26777" lon="-1.63036">
        <ele>31.9</ele>
        <time>2020-06-07T10:28:47Z</time>
      </trkpt>
      <trkpt lat="47.26777" lon="-1.63037">
        <ele>31.9</ele>
        <time>2020-06-07T10:28:48Z</time>
      </trkpt>
      <trkpt lat="47.26778" lon="-1.63038">
        <ele>31.9</ele>
        <time>2020-06-07T10:28:49Z</time>
      </trkpt>
      <trkpt lat="47.26779" lon="-1.63039">
        <ele>32</ele>
        <time>2020-06-07T10:28:50Z</time>
      </trkpt>
      <trkpt lat="47.26779" lon="-1.6304">
        <ele>32</ele>
        <time>2020-06-07T10:28:51Z</time>
      </trkpt>
      <trkpt lat="47.2678" lon="-1.63041">
        <ele>32</ele>
        <time>2020-06-07T10:28:52Z</time>
      </trkpt>
      <trkpt lat="47.2678" lon="-1.63042">
        <ele>32.1</ele>
        <time>2020-06-07T10:28:53Z</time>
      </trkpt>
      <trkpt lat="47.26781" lon="-1.63042">
        <ele>32.1</ele>
        <time>2020-06-07T10:28:54Z</time>
      </trkpt>
      <trkpt lat="47.26781" lon="-1.63043">
        <ele>32.1</ele>
        <time>2020-06-07T10:28:55Z</time>
      </trkpt>
      <trkpt lat="47.26781" lon="-1.63043">
        <ele>32.1</ele>
        <time>2020-06-07T10:28:56Z</time>
      </trkpt>
      <trkpt lat="47.26781" lon="-1.63044">
        <ele>32.1</ele>
        <time>2020-06-07T10:28:57Z</time>
      </trkpt>
      <trkpt lat="47.26781" lon="-1.63044">
        <ele>32.1</ele>
        <time>2020-06-07T10:28:58Z</time>
      </trkpt>
      <trkpt lat="47.26781" lon="-1.63044">
        <ele>32.2</ele>
        <time>2020-06-07T10:28:59Z</time>
      </trkpt>
      <trkpt lat="47.26781" lon="-1.63044">
        <ele>32.2</ele>
        <time>2020-06-07T10:29:00Z</time>
      </trkpt>
      <trkpt lat="47.26781" lon="-1.63044">
        <ele>32.2</ele>
        <time>2020-06-07T10:29:01Z</time>
      </trkpt>
      <trkpt lat="47.26781" lon="-1.63044">
        <ele>32.2</ele>
        <time>2020-06-07T10:29:02Z</time>
      </trkpt>
      <trkpt lat="47.2678" lon="-1.63044">
        <ele>32.2</ele>
        <time>2020-06-07T10:29:03Z</time>
      </trkpt>
      <trkpt lat="47.2678" lon="-1.63044">
        <ele>32.2</ele>
        <time>2020-06-07T10:29:04Z</time>
      </trkpt>
      <trkpt lat="47.2678" lon="-1.63044">
        <ele>32.2</ele>
        <time>2020-06-07T10:29:05Z</time>
      </trkpt>
      <trkpt lat="47.2678" lon="-1.63044">
        <ele>32.2</ele>
        <time>2020-06-07T10:29:06Z</time>
      </trkpt>
      <trkpt lat="47.2678" lon="-1.63044">
        <ele>32.2</ele>
        <time>2020-06-07T10:29:07Z</time>
      </trkpt>
      <trkpt lat="47.2678" lon="-1.63044">
        <ele>32.2</ele>
        <time>2020-06-07T10:29:08Z</time>
      </trkpt>
      <trkpt lat="47.2678" lon="-1.63044">
        <ele>32.2</ele>
        <time>2020-06-07T10:29:09Z</time>
      </trkpt>
      <trkpt lat="47.2678" lon="-1.63044">
        <ele>32.2</ele>
        <time>2020-06-07T10:29:10Z</time>
      </trkpt>
      <trkpt lat="47.2678" lon="-1.63044">
        <ele>32.2</ele>
        <time>2020-06-07T10:29:11Z</time>
      </trkpt>
      <trkpt lat="47.2678" lon="-1.63044">
        <ele>32.2</ele>
        <time>2020-06-07T10:29:12Z</time>
      </trkpt>
      <trkpt lat="47.2678" lon="-1.63044">
        <ele>32.2</ele>
        <time>2020-06-07T10:29:13Z</time>
      </trkpt>
      <trkpt lat="47.2678" lon="-1.63044">
        <ele>32.2</ele>
        <time>2020-06-07T10:29:14Z</time>
      </trkpt>
      <trkpt lat="47.2678" lon="-1.63044">
        <ele>32.2</ele>
        <time>2020-06-07T10:29:15Z</time>
      </trkpt>
      <trkpt lat="47.2678" lon="-1.63044">
        <ele>32.2</ele>
        <time>2020-06-07T10:29:16Z</time>
      </trkpt>
      <trkpt lat="47.2678" lon="-1.63044">
        <ele>32.2</ele>
        <time>2020-06-07T10:29:17Z</time>
      </trkpt>
      <trkpt lat="47.2678" lon="-1.63044">
        <ele>32.2</ele>
        <time>2020-06-07T10:29:18Z</time>
      </trkpt>
      <trkpt lat="47.2678" lon="-1.63044">
        <ele>32.2</ele>
        <time>2020-06-07T10:29:19Z</time>
      </trkpt>
      <trkpt lat="47.26781" lon="-1.63044">
        <ele>32.2</ele>
        <time>2020-06-07T10:29:20Z</time>
      </trkpt>
      <trkpt lat="47.26781" lon="-1.63044">
        <ele>32.1</ele>
        <time>2020-06-07T10:29:21Z</time>
      </trkpt>
      <trkpt lat="47.26781" lon="-1.63044">
        <ele>32.1</ele>
        <time>2020-06-07T10:29:22Z</time>
      </trkpt>
      <trkpt lat="47.26781" lon="-1.63043">
        <ele>32.1</ele>
        <time>2020-06-07T10:29:23Z</time>
      </trkpt>
      <trkpt lat="47.26782" lon="-1.63042">
        <ele>32</ele>
        <time>2020-06-07T10:29:24Z</time>
      </trkpt>
      <trkpt lat="47.26782" lon="-1.63041">
        <ele>31.9</ele>
        <time>2020-06-07T10:29:25Z</time>
      </trkpt>
      <trkpt lat="47.26782" lon="-1.6304">
        <ele>31.9</ele>
        <time>2020-06-07T10:29:26Z</time>
      </trkpt>
      <trkpt lat="47.26782" lon="-1.6304">
        <ele>31.8</ele>
        <time>2020-06-07T10:29:27Z</time>
      </trkpt>
      <trkpt lat="47.26783" lon="-1.6304">
        <ele>31.8</ele>
        <time>2020-06-07T10:29:28Z</time>
      </trkpt>
      <trkpt lat="47.26783" lon="-1.6304">
        <ele>31.8</ele>
        <time>2020-06-07T10:29:29Z</time>
      </trkpt>
      <trkpt lat="47.26783" lon="-1.6304">
        <ele>31.8</ele>
        <time>2020-06-07T10:29:30Z</time>
      </trkpt>
      <trkpt lat="47.26783" lon="-1.6304">
        <ele>31.8</ele>
        <time>2020-06-07T10:29:31Z</time>
      </trkpt>
      <trkpt lat="47.26783" lon="-1.6304">
        <ele>31.8</ele>
        <time>2020-06-07T10:29:32Z</time>
      </trkpt>
      <trkpt lat="47.26783" lon="-1.6304">
        <ele>31.8</ele>
        <time>2020-06-07T10:29:33Z</time>
      </trkpt>
      <trkpt lat="47.26783" lon="-1.6304">
        <ele>31.8</ele>
        <time>2020-06-07T10:29:34Z</time>
      </trkpt>
      <trkpt lat="47.26783" lon="-1.6304">
        <ele>31.8</ele>
        <time>2020-06-07T10:29:35Z</time>
      </trkpt>
      <trkpt lat="47.26783" lon="-1.6304">
        <ele>31.8</ele>
        <time>2020-06-07T10:29:36Z</time>
      </trkpt>
      <trkpt lat="47.26783" lon="-1.6304">
        <ele>31.8</ele>
        <time>2020-06-07T10:29:37Z</time>
      </trkpt>
      <trkpt lat="47.26783" lon="-1.6304">
        <ele>31.8</ele>
        <time>2020-06-07T10:29:38Z</time>
      </trkpt>
      <trkpt lat="47.26783" lon="-1.6304">
        <ele>31.8</ele>
        <time>2020-06-07T10:29:39Z</time>
      </trkpt>
      <trkpt lat="47.26783" lon="-1.6304">
        <ele>31.8</ele>
        <time>2020-06-07T10:29:40Z</time>
      </trkpt>
      <trkpt lat="47.26783" lon="-1.6304">
        <ele>31.8</ele>
        <time>2020-06-07T10:29:41Z</time>
      </trkpt>
      <trkpt lat="47.26783" lon="-1.6304">
        <ele>31.8</ele>
        <time>2020-06-07T10:29:42Z</time>
      </trkpt>
      <trkpt lat="47.26783" lon="-1.63039">
        <ele>31.8</ele>
        <time>2020-06-07T10:29:43Z</time>
      </trkpt>
      <trkpt lat="47.26783" lon="-1.63039">
        <ele>31.7</ele>
        <time>2020-06-07T10:29:44Z</time>
      </trkpt>
      <trkpt lat="47.26783" lon="-1.63038">
        <ele>31.7</ele>
        <time>2020-06-07T10:29:45Z</time>
      </trkpt>
      <trkpt lat="47.26783" lon="-1.63037">
        <ele>31.7</ele>
        <time>2020-06-07T10:29:46Z</time>
      </trkpt>
      <trkpt lat="47.26783" lon="-1.63036">
        <ele>31.6</ele>
        <time>2020-06-07T10:29:47Z</time>
      </trkpt>
      <trkpt lat="47.26782" lon="-1.63035">
        <ele>31.6</ele>
        <time>2020-06-07T10:29:48Z</time>
      </trkpt>
      <trkpt lat="47.26782" lon="-1.63034">
        <ele>31.5</ele>
        <time>2020-06-07T10:29:49Z</time>
      </trkpt>
      <trkpt lat="47.26782" lon="-1.63032">
        <ele>31.5</ele>
        <time>2020-06-07T10:29:50Z</time>
      </trkpt>
      <trkpt lat="47.26782" lon="-1.63031">
        <ele>31.4</ele>
        <time>2020-06-07T10:29:51Z</time>
      </trkpt>
      <trkpt lat="47.26782" lon="-1.6303">
        <ele>31.3</ele>
        <time>2020-06-07T10:29:52Z</time>
      </trkpt>
      <trkpt lat="47.26783" lon="-1.63029">
        <ele>31.2</ele>
        <time>2020-06-07T10:29:53Z</time>
      </trkpt>
      <trkpt lat="47.26783" lon="-1.63029">
        <ele>31.2</ele>
        <time>2020-06-07T10:29:54Z</time>
      </trkpt>
      <trkpt lat="47.26784" lon="-1.63028">
        <ele>31.1</ele>
        <time>2020-06-07T10:29:55Z</time>
      </trkpt>
      <trkpt lat="47.26785" lon="-1.63028">
        <ele>31.1</ele>
        <time>2020-06-07T10:29:56Z</time>
      </trkpt>
      <trkpt lat="47.26786" lon="-1.63029">
        <ele>31.1</ele>
        <time>2020-06-07T10:29:57Z</time>
      </trkpt>
      <trkpt lat="47.26787" lon="-1.63029">
        <ele>31.1</ele>
        <time>2020-06-07T10:29:58Z</time>
      </trkpt>
      <trkpt lat="47.26788" lon="-1.63029">
        <ele>31</ele>
        <time>2020-06-07T10:29:59Z</time>
      </trkpt>
      <trkpt lat="47.26789" lon="-1.63029">
        <ele>31</ele>
        <time>2020-06-07T10:30:00Z</time>
      </trkpt>
      <trkpt lat="47.26789" lon="-1.63029">
        <ele>31</ele>
        <time>2020-06-07T10:30:01Z</time>
      </trkpt>
      <trkpt lat="47.2679" lon="-1.63029">
        <ele>30.9</ele>
        <time>2020-06-07T10:30:02Z</time>
      </trkpt>
      <trkpt lat="47.26791" lon="-1.63029">
        <ele>30.9</ele>
        <time>2020-06-07T10:30:03Z</time>
      </trkpt>
      <trkpt lat="47.26792" lon="-1.63029">
        <ele>30.9</ele>
        <time>2020-06-07T10:30:04Z</time>
      </trkpt>
      <trkpt lat="47.26793" lon="-1.63029">
        <ele>30.8</ele>
        <time>2020-06-07T10:30:05Z</time>
      </trkpt>
      <trkpt lat="47.26794" lon="-1.63029">
        <ele>30.8</ele>
        <time>2020-06-07T10:30:06Z</time>
      </trkpt>
      <trkpt lat="47.26794" lon="-1.63029">
        <ele>30.8</ele>
        <time>2020-06-07T10:30:07Z</time>
      </trkpt>
      <trkpt lat="47.26795" lon="-1.6303">
        <ele>30.8</ele>
        <time>2020-06-07T10:30:08Z</time>
      </trkpt>
      <trkpt lat="47.26796" lon="-1.6303">
        <ele>30.8</ele>
        <time>2020-06-07T10:30:09Z</time>
      </trkpt>
      <trkpt lat="47.26797" lon="-1.63031">
        <ele>30.8</ele>
        <time>2020-06-07T10:30:10Z</time>
      </trkpt>
      <trkpt lat="47.26798" lon="-1.63031">
        <ele>30.8</ele>
        <time>2020-06-07T10:30:11Z</time>
      </trkpt>
      <trkpt lat="47.26799" lon="-1.63032">
        <ele>30.8</ele>
        <time>2020-06-07T10:30:12Z</time>
      </trkpt>
      <trkpt lat="47.268" lon="-1.63033">
        <ele>30.8</ele>
        <time>2020-06-07T10:30:13Z</time>
      </trkpt>
      <trkpt lat="47.268" lon="-1.63033">
        <ele>30.7</ele>
        <time>2020-06-07T10:30:14Z</time>
      </trkpt>
      <trkpt lat="47.26801" lon="-1.63034">
        <ele>30.7</ele>
        <time>2020-06-07T10:30:15Z</time>
      </trkpt>
      <trkpt lat="47.26802" lon="-1.63034">
        <ele>30.7</ele>
        <time>2020-06-07T10:30:16Z</time>
      </trkpt>
      <trkpt lat="47.26803" lon="-1.63034">
        <ele>30.7</ele>
        <time>2020-06-07T10:30:17Z</time>
      </trkpt>
      <trkpt lat="47.26804" lon="-1.63035">
        <ele>30.7</ele>
        <time>2020-06-07T10:30:18Z</time>
      </trkpt>
      <trkpt lat="47.26805" lon="-1.63035">
        <ele>30.6</ele>
        <time>2020-06-07T10:30:19Z</time>
      </trkpt>
      <trkpt lat="47.26806" lon="-1.63035">
        <ele>30.6</ele>
        <time>2020-06-07T10:30:20Z</time>
      </trkpt>
      <trkpt lat="47.26806" lon="-1.63036">
        <ele>30.6</ele>
        <time>2020-06-07T10:30:21Z</time>
      </trkpt>
      <trkpt lat="47.26807" lon="-1.63036">
        <ele>30.5</ele>
        <time>2020-06-07T10:30:22Z</time>
      </trkpt>
      <trkpt lat="47.26808" lon="-1.63036">
        <ele>30.5</ele>
        <time>2020-06-07T10:30:23Z</time>
      </trkpt>
      <trkpt lat="47.26809" lon="-1.63036">
        <ele>30.5</ele>
        <time>2020-06-07T10:30:24Z</time>
      </trkpt>
      <trkpt lat="47.2681" lon="-1.63036">
        <ele>30.4</ele>
        <time>2020-06-07T10:30:25Z</time>
      </trkpt>
      <trkpt lat="47.26811" lon="-1.63037">
        <ele>30.4</ele>
        <time>2020-06-07T10:30:26Z</time>
      </trkpt>
      <trkpt lat="47.26812" lon="-1.63037">
        <ele>30.4</ele>
        <time>2020-06-07T10:30:27Z</time>
      </trkpt>
      <trkpt lat="47.26813" lon="-1.63037">
        <ele>30.3</ele>
        <time>2020-06-07T10:30:28Z</time>
      </trkpt>
      <trkpt lat="47.26814" lon="-1.63037">
        <ele>30.3</ele>
        <time>2020-06-07T10:30:29Z</time>
      </trkpt>
      <trkpt lat="47.26815" lon="-1.63037">
        <ele>30.2</ele>
        <time>2020-06-07T10:30:30Z</time>
      </trkpt>
      <trkpt lat="47.26816" lon="-1.63037">
        <ele>30.2</ele>
        <time>2020-06-07T10:30:31Z</time>
      </trkpt>
      <trkpt lat="47.26817" lon="-1.63037">
        <ele>30.1</ele>
        <time>2020-06-07T10:30:32Z</time>
      </trkpt>
      <trkpt lat="47.26818" lon="-1.63037">
        <ele>30.1</ele>
        <time>2020-06-07T10:30:33Z</time>
      </trkpt>
      <trkpt lat="47.26819" lon="-1.63038">
        <ele>30.1</ele>
        <time>2020-06-07T10:30:34Z</time>
      </trkpt>
      <trkpt lat="47.2682" lon="-1.63038">
        <ele>30.1</ele>
        <time>2020-06-07T10:30:35Z</time>
      </trkpt>
      <trkpt lat="47.26821" lon="-1.63039">
        <ele>30</ele>
        <time>2020-06-07T10:30:36Z</time>
      </trkpt>
      <trkpt lat="47.26822" lon="-1.6304">
        <ele>30</ele>
        <time>2020-06-07T10:30:37Z</time>
      </trkpt>
      <trkpt lat="47.26822" lon="-1.63041">
        <ele>30</ele>
        <time>2020-06-07T10:30:38Z</time>
      </trkpt>
      <trkpt lat="47.26823" lon="-1.63041">
        <ele>30</ele>
        <time>2020-06-07T10:30:39Z</time>
      </trkpt>
      <trkpt lat="47.26824" lon="-1.63042">
        <ele>30</ele>
        <time>2020-06-07T10:30:40Z</time>
      </trkpt>
      <trkpt lat="47.26825" lon="-1.63043">
        <ele>29.9</ele>
        <time>2020-06-07T10:30:41Z</time>
      </trkpt>
      <trkpt lat="47.26826" lon="-1.63043">
        <ele>29.9</ele>
        <time>2020-06-07T10:30:42Z</time>
      </trkpt>
      <trkpt lat="47.26827" lon="-1.63044">
        <ele>29.9</ele>
        <time>2020-06-07T10:30:43Z</time>
      </trkpt>
      <trkpt lat="47.26827" lon="-1.63044">
        <ele>29.8</ele>
        <time>2020-06-07T10:30:44Z</time>
      </trkpt>
      <trkpt lat="47.26828" lon="-1.63044">
        <ele>29.8</ele>
        <time>2020-06-07T10:30:45Z</time>
      </trkpt>
      <trkpt lat="47.26829" lon="-1.63045">
        <ele>29.7</ele>
        <time>2020-06-07T10:30:46Z</time>
      </trkpt>
      <trkpt lat="47.2683" lon="-1.63045">
        <ele>29.7</ele>
        <time>2020-06-07T10:30:47Z</time>
      </trkpt>
      <trkpt lat="47.26831" lon="-1.63046">
        <ele>29.7</ele>
        <time>2020-06-07T10:30:48Z</time>
      </trkpt>
      <trkpt lat="47.26832" lon="-1.63046">
        <ele>29.6</ele>
        <time>2020-06-07T10:30:49Z</time>
      </trkpt>
      <trkpt lat="47.26833" lon="-1.63046">
        <ele>29.6</ele>
        <time>2020-06-07T10:30:50Z</time>
      </trkpt>
      <trkpt lat="47.26834" lon="-1.63047">
        <ele>29.6</ele>
        <time>2020-06-07T10:30:51Z</time>
      </trkpt>
      <trkpt lat="47.26835" lon="-1.63047">
        <ele>29.7</ele>
        <time>2020-06-07T10:30:52Z</time>
      </trkpt>
      <trkpt lat="47.26835" lon="-1.63048">
        <ele>29.7</ele>
        <time>2020-06-07T10:30:53Z</time>
      </trkpt>
      <trkpt lat="47.26836" lon="-1.63048">
        <ele>29.8</ele>
        <time>2020-06-07T10:30:54Z</time>
      </trkpt>
      <trkpt lat="47.26837" lon="-1.63049">
        <ele>29.9</ele>
        <time>2020-06-07T10:30:55Z</time>
      </trkpt>
      <trkpt lat="47.26838" lon="-1.63049">
        <ele>29.9</ele>
        <time>2020-06-07T10:30:56Z</time>
      </trkpt>
      <trkpt lat="47.26839" lon="-1.6305">
        <ele>30</ele>
        <time>2020-06-07T10:30:57Z</time>
      </trkpt>
      <trkpt lat="47.26839" lon="-1.6305">
        <ele>30.1</ele>
        <time>2020-06-07T10:30:58Z</time>
      </trkpt>
      <trkpt lat="47.2684" lon="-1.63051">
        <ele>30.1</ele>
        <time>2020-06-07T10:30:59Z</time>
      </trkpt>
      <trkpt lat="47.26841" lon="-1.63052">
        <ele>30.2</ele>
        <time>2020-06-07T10:31:00Z</time>
      </trkpt>
      <trkpt lat="47.26841" lon="-1.63053">
        <ele>30.2</ele>
        <time>2020-06-07T10:31:01Z</time>
      </trkpt>
      <trkpt lat="47.26842" lon="-1.63054">
        <ele>30.3</ele>
        <time>2020-06-07T10:31:02Z</time>
      </trkpt>
      <trkpt lat="47.26843" lon="-1.63055">
        <ele>30.3</ele>
        <time>2020-06-07T10:31:03Z</time>
      </trkpt>
      <trkpt lat="47.26843" lon="-1.63056">
        <ele>30.4</ele>
        <time>2020-06-07T10:31:04Z</time>
      </trkpt>
      <trkpt lat="47.26844" lon="-1.63057">
        <ele>30.4</ele>
        <time>2020-06-07T10:31:05Z</time>
      </trkpt>
      <trkpt lat="47.26844" lon="-1.63058">
        <ele>30.4</ele>
        <time>2020-06-07T10:31:06Z</time>
      </trkpt>
      <trkpt lat="47.26844" lon="-1.63059">
        <ele>30.5</ele>
        <time>2020-06-07T10:31:07Z</time>
      </trkpt>
      <trkpt lat="47.26845" lon="-1.6306">
        <ele>30.5</ele>
        <time>2020-06-07T10:31:08Z</time>
      </trkpt>
      <trkpt lat="47.26845" lon="-1.63062">
        <ele>30.5</ele>
        <time>2020-06-07T10:31:09Z</time>
      </trkpt>
      <trkpt lat="47.26846" lon="-1.63062">
        <ele>30.6</ele>
        <time>2020-06-07T10:31:10Z</time>
      </trkpt>
      <trkpt lat="47.26847" lon="-1.63063">
        <ele>30.6</ele>
        <time>2020-06-07T10:31:11Z</time>
      </trkpt>
      <trkpt lat="47.26848" lon="-1.63064">
        <ele>30.7</ele>
        <time>2020-06-07T10:31:12Z</time>
      </trkpt>
      <trkpt lat="47.26848" lon="-1.63064">
        <ele>30.7</ele>
        <time>2020-06-07T10:31:13Z</time>
      </trkpt>
      <trkpt lat="47.26849" lon="-1.63065">
        <ele>30.8</ele>
        <time>2020-06-07T10:31:14Z</time>
      </trkpt>
      <trkpt lat="47.2685" lon="-1.63066">
        <ele>30.8</ele>
        <time>2020-06-07T10:31:15Z</time>
      </trkpt>
      <trkpt lat="47.2685" lon="-1.63067">
        <ele>30.9</ele>
        <time>2020-06-07T10:31:16Z</time>
      </trkpt>
      <trkpt lat="47.26851" lon="-1.63068">
        <ele>30.9</ele>
        <time>2020-06-07T10:31:17Z</time>
      </trkpt>
      <trkpt lat="47.26852" lon="-1.63069">
        <ele>30.9</ele>
        <time>2020-06-07T10:31:18Z</time>
      </trkpt>
      <trkpt lat="47.26852" lon="-1.6307">
        <ele>31</ele>
        <time>2020-06-07T10:31:19Z</time>
      </trkpt>
      <trkpt lat="47.26853" lon="-1.63071">
        <ele>31</ele>
        <time>2020-06-07T10:31:20Z</time>
      </trkpt>
      <trkpt lat="47.26853" lon="-1.63072">
        <ele>31</ele>
        <time>2020-06-07T10:31:21Z</time>
      </trkpt>
      <trkpt lat="47.26854" lon="-1.63073">
        <ele>31</ele>
        <time>2020-06-07T10:31:22Z</time>
      </trkpt>
      <trkpt lat="47.26855" lon="-1.63074">
        <ele>31.1</ele>
        <time>2020-06-07T10:31:23Z</time>
      </trkpt>
      <trkpt lat="47.26855" lon="-1.63075">
        <ele>31.1</ele>
        <time>2020-06-07T10:31:24Z</time>
      </trkpt>
      <trkpt lat="47.26856" lon="-1.63076">
        <ele>31.1</ele>
        <time>2020-06-07T10:31:25Z</time>
      </trkpt>
      <trkpt lat="47.26856" lon="-1.63077">
        <ele>31.1</ele>
        <time>2020-06-07T10:31:26Z</time>
      </trkpt>
      <trkpt lat="47.26857" lon="-1.63078">
        <ele>31.2</ele>
        <time>2020-06-07T10:31:27Z</time>
      </trkpt>
      <trkpt lat="47.26857" lon="-1.63079">
        <ele>31.2</ele>
        <time>2020-06-07T10:31:28Z</time>
      </trkpt>
      <trkpt lat="47.26858" lon="-1.6308">
        <ele>31.2</ele>
        <time>2020-06-07T10:31:29Z</time>
      </trkpt>
      <trkpt lat="47.26858" lon="-1.6308">
        <ele>31.2</ele>
        <time>2020-06-07T10:31:30Z</time>
      </trkpt>
      <trkpt lat="47.26859" lon="-1.63081">
        <ele>31.3</ele>
        <time>2020-06-07T10:31:31Z</time>
      </trkpt>
      <trkpt lat="47.2686" lon="-1.63082">
        <ele>31.3</ele>
        <time>2020-06-07T10:31:32Z</time>
      </trkpt>
      <trkpt lat="47.2686" lon="-1.63082">
        <ele>31.3</ele>
        <time>2020-06-07T10:31:33Z</time>
      </trkpt>
      <trkpt lat="47.26861" lon="-1.63083">
        <ele>31.3</ele>
        <time>2020-06-07T10:31:34Z</time>
      </trkpt>
      <trkpt lat="47.26861" lon="-1.63083">
        <ele>31.3</ele>
        <time>2020-06-07T10:31:35Z</time>
      </trkpt>
      <trkpt lat="47.26862" lon="-1.63084">
        <ele>31.3</ele>
        <time>2020-06-07T10:31:36Z</time>
      </trkpt>
      <trkpt lat="47.26862" lon="-1.63084">
        <ele>31.4</ele>
        <time>2020-06-07T10:31:37Z</time>
      </trkpt>
      <trkpt lat="47.26863" lon="-1.63085">
        <ele>31.4</ele>
        <time>2020-06-07T10:31:38Z</time>
      </trkpt>
      <trkpt lat="47.26863" lon="-1.63086">
        <ele>31.4</ele>
        <time>2020-06-07T10:31:39Z</time>
      </trkpt>
      <trkpt lat="47.26863" lon="-1.63086">
        <ele>31.4</ele>
        <time>2020-06-07T10:31:40Z</time>
      </trkpt>
      <trkpt lat="47.26864" lon="-1.63087">
        <ele>31.4</ele>
        <time>2020-06-07T10:31:41Z</time>
      </trkpt>
      <trkpt lat="47.26864" lon="-1.63088">
        <ele>31.4</ele>
        <time>2020-06-07T10:31:42Z</time>
      </trkpt>
      <trkpt lat="47.26865" lon="-1.63089">
        <ele>31.4</ele>
        <time>2020-06-07T10:31:43Z</time>
      </trkpt>
      <trkpt lat="47.26865" lon="-1.6309">
        <ele>31.3</ele>
        <time>2020-06-07T10:31:44Z</time>
      </trkpt>
      <trkpt lat="47.26865" lon="-1.63091">
        <ele>31.3</ele>
        <time>2020-06-07T10:31:45Z</time>
      </trkpt>
      <trkpt lat="47.26866" lon="-1.63092">
        <ele>31.3</ele>
        <time>2020-06-07T10:31:46Z</time>
      </trkpt>
      <trkpt lat="47.26866" lon="-1.63093">
        <ele>31.3</ele>
        <time>2020-06-07T10:31:47Z</time>
      </trkpt>
      <trkpt lat="47.26866" lon="-1.63095">
        <ele>31.3</ele>
        <time>2020-06-07T10:31:48Z</time>
      </trkpt>
      <trkpt lat="47.26867" lon="-1.63096">
        <ele>31.3</ele>
        <time>2020-06-07T10:31:49Z</time>
      </trkpt>
      <trkpt lat="47.26867" lon="-1.63097">
        <ele>31.3</ele>
        <time>2020-06-07T10:31:50Z</time>
      </trkpt>
      <trkpt lat="47.26867" lon="-1.63099">
        <ele>31.2</ele>
        <time>2020-06-07T10:31:51Z</time>
      </trkpt>
      <trkpt lat="47.26868" lon="-1.631">
        <ele>31.2</ele>
        <time>2020-06-07T10:31:52Z</time>
      </trkpt>
      <trkpt lat="47.26868" lon="-1.63101">
        <ele>31.2</ele>
        <time>2020-06-07T10:31:53Z</time>
      </trkpt>
      <trkpt lat="47.26868" lon="-1.63103">
        <ele>31.2</ele>
        <time>2020-06-07T10:31:54Z</time>
      </trkpt>
      <trkpt lat="47.26869" lon="-1.63104">
        <ele>31.1</ele>
        <time>2020-06-07T10:31:55Z</time>
      </trkpt>
      <trkpt lat="47.26869" lon="-1.63106">
        <ele>31.1</ele>
        <time>2020-06-07T10:31:56Z</time>
      </trkpt>
      <trkpt lat="47.26869" lon="-1.63107">
        <ele>31.1</ele>
        <time>2020-06-07T10:31:57Z</time>
      </trkpt>
      <trkpt lat="47.2687" lon="-1.63108">
        <ele>31.1</ele>
        <time>2020-06-07T10:31:58Z</time>
      </trkpt>
      <trkpt lat="47.2687" lon="-1.6311">
        <ele>31</ele>
        <time>2020-06-07T10:31:59Z</time>
      </trkpt>
      <trkpt lat="47.2687" lon="-1.63111">
        <ele>31</ele>
        <time>2020-06-07T10:32:00Z</time>
      </trkpt>
      <trkpt lat="47.26871" lon="-1.63113">
        <ele>31</ele>
        <time>2020-06-07T10:32:01Z</time>
      </trkpt>
      <trkpt lat="47.26871" lon="-1.63114">
        <ele>30.9</ele>
        <time>2020-06-07T10:32:02Z</time>
      </trkpt>
      <trkpt lat="47.26871" lon="-1.63115">
        <ele>30.9</ele>
        <time>2020-06-07T10:32:03Z</time>
      </trkpt>
      <trkpt lat="47.26872" lon="-1.63117">
        <ele>30.9</ele>
        <time>2020-06-07T10:32:04Z</time>
      </trkpt>
      <trkpt lat="47.26872" lon="-1.63118">
        <ele>30.9</ele>
        <time>2020-06-07T10:32:05Z</time>
      </trkpt>
      <trkpt lat="47.26872" lon="-1.6312">
        <ele>30.8</ele>
        <time>2020-06-07T10:32:06Z</time>
      </trkpt>
      <trkpt lat="47.26873" lon="-1.63121">
        <ele>30.8</ele>
        <time>2020-06-07T10:32:07Z</time>
      </trkpt>
      <trkpt lat="47.26873" lon="-1.63122">
        <ele>30.8</ele>
        <time>2020-06-07T10:32:08Z</time>
      </trkpt>
      <trkpt lat="47.26873" lon="-1.63124">
        <ele>30.7</ele>
        <time>2020-06-07T10:32:09Z</time>
      </trkpt>
      <trkpt lat="47.26874" lon="-1.63125">
        <ele>30.7</ele>
        <time>2020-06-07T10:32:10Z</time>
      </trkpt>
      <trkpt lat="47.26874" lon="-1.63126">
        <ele>30.7</ele>
        <time>2020-06-07T10:32:11Z</time>
      </trkpt>
      <trkpt lat="47.26874" lon="-1.63128">
        <ele>30.6</ele>
        <time>2020-06-07T10:32:12Z</time>
      </trkpt>
      <trkpt lat="47.26874" lon="-1.63129">
        <ele>30.6</ele>
        <time>2020-06-07T10:32:13Z</time>
      </trkpt>
      <trkpt lat="47.26875" lon="-1.63131">
        <ele>30.6</ele>
        <time>2020-06-07T10:32:14Z</time>
      </trkpt>
      <trkpt lat="47.26875" lon="-1.63132">
        <ele>30.5</ele>
        <time>2020-06-07T10:32:15Z</time>
      </trkpt>
      <trkpt lat="47.26875" lon="-1.63133">
        <ele>30.5</ele>
        <time>2020-06-07T10:32:16Z</time>
      </trkpt>
      <trkpt lat="47.26875" lon="-1.63135">
        <ele>30.5</ele>
        <time>2020-06-07T10:32:17Z</time>
      </trkpt>
      <trkpt lat="47.26876" lon="-1.63136">
        <ele>30.4</ele>
        <time>2020-06-07T10:32:18Z</time>
      </trkpt>
      <trkpt lat="47.26876" lon="-1.63137">
        <ele>30.4</ele>
        <time>2020-06-07T10:32:19Z</time>
      </trkpt>
      <trkpt lat="47.26876" lon="-1.63138">
        <ele>30.4</ele>
        <time>2020-06-07T10:32:20Z</time>
      </trkpt>
      <trkpt lat="47.26876" lon="-1.6314">
        <ele>30.3</ele>
        <time>2020-06-07T10:32:21Z</time>
      </trkpt>
      <trkpt lat="47.26877" lon="-1.63141">
        <ele>30.3</ele>
        <time>2020-06-07T10:32:22Z</time>
      </trkpt>
      <trkpt lat="47.26877" lon="-1.63142">
        <ele>30.3</ele>
        <time>2020-06-07T10:32:23Z</time>
      </trkpt>
      <trkpt lat="47.26878" lon="-1.63143">
        <ele>30.3</ele>
        <time>2020-06-07T10:32:24Z</time>
      </trkpt>
      <trkpt lat="47.26878" lon="-1.63144">
        <ele>30.3</ele>
        <time>2020-06-07T10:32:25Z</time>
      </trkpt>
      <trkpt lat="47.26879" lon="-1.63145">
        <ele>30.2</ele>
        <time>2020-06-07T10:32:26Z</time>
      </trkpt>
      <trkpt lat="47.26879" lon="-1.63146">
        <ele>30.2</ele>
        <time>2020-06-07T10:32:27Z</time>
      </trkpt>
      <trkpt lat="47.2688" lon="-1.63147">
        <ele>30.2</ele>
        <time>2020-06-07T10:32:28Z</time>
      </trkpt>
      <trkpt lat="47.2688" lon="-1.63148">
        <ele>30.2</ele>
        <time>2020-06-07T10:32:29Z</time>
      </trkpt>
      <trkpt lat="47.26881" lon="-1.63149">
        <ele>30.2</ele>
        <time>2020-06-07T10:32:30Z</time>
      </trkpt>
      <trkpt lat="47.26882" lon="-1.6315">
        <ele>30.1</ele>
        <time>2020-06-07T10:32:31Z</time>
      </trkpt>
      <trkpt lat="47.26882" lon="-1.6315">
        <ele>30.1</ele>
        <time>2020-06-07T10:32:32Z</time>
      </trkpt>
      <trkpt lat="47.26883" lon="-1.63151">
        <ele>30.1</ele>
        <time>2020-06-07T10:32:33Z</time>
      </trkpt>
      <trkpt lat="47.26883" lon="-1.63152">
        <ele>30.1</ele>
        <time>2020-06-07T10:32:34Z</time>
      </trkpt>
      <trkpt lat="47.26884" lon="-1.63154">
        <ele>30</ele>
        <time>2020-06-07T10:32:35Z</time>
      </trkpt>
      <trkpt lat="47.26884" lon="-1.63155">
        <ele>30</ele>
        <time>2020-06-07T10:32:36Z</time>
      </trkpt>
      <trkpt lat="47.26884" lon="-1.63156">
        <ele>30</ele>
        <time>2020-06-07T10:32:37Z</time>
      </trkpt>
      <trkpt lat="47.26885" lon="-1.63157">
        <ele>30</ele>
        <time>2020-06-07T10:32:38Z</time>
      </trkpt>
      <trkpt lat="47.26885" lon="-1.63158">
        <ele>29.9</ele>
        <time>2020-06-07T10:32:39Z</time>
      </trkpt>
      <trkpt lat="47.26886" lon="-1.63159">
        <ele>29.9</ele>
        <time>2020-06-07T10:32:40Z</time>
      </trkpt>
      <trkpt lat="47.26886" lon="-1.6316">
        <ele>29.9</ele>
        <time>2020-06-07T10:32:41Z</time>
      </trkpt>
      <trkpt lat="47.26887" lon="-1.63161">
        <ele>29.8</ele>
        <time>2020-06-07T10:32:42Z</time>
      </trkpt>
      <trkpt lat="47.26887" lon="-1.63162">
        <ele>29.8</ele>
        <time>2020-06-07T10:32:43Z</time>
      </trkpt>
      <trkpt lat="47.26888" lon="-1.63163">
        <ele>29.8</ele>
        <time>2020-06-07T10:32:44Z</time>
      </trkpt>
      <trkpt lat="47.26889" lon="-1.63164">
        <ele>29.8</ele>
        <time>2020-06-07T10:32:45Z</time>
      </trkpt>
      <trkpt lat="47.26889" lon="-1.63165">
        <ele>29.7</ele>
        <time>2020-06-07T10:32:46Z</time>
      </trkpt>
      <trkpt lat="47.2689" lon="-1.63166">
        <ele>29.7</ele>
        <time>2020-06-07T10:32:47Z</time>
      </trkpt>
      <trkpt lat="47.2689" lon="-1.63167">
        <ele>29.7</ele>
        <time>2020-06-07T10:32:48Z</time>
      </trkpt>
      <trkpt lat="47.26891" lon="-1.63168">
        <ele>29.6</ele>
        <time>2020-06-07T10:32:49Z</time>
      </trkpt>
      <trkpt lat="47.26891" lon="-1.63169">
        <ele>29.6</ele>
        <time>2020-06-07T10:32:50Z</time>
      </trkpt>
      <trkpt lat="47.26892" lon="-1.6317">
        <ele>29.6</ele>
        <time>2020-06-07T10:32:51Z</time>
      </trkpt>
      <trkpt lat="47.26892" lon="-1.6317">
        <ele>29.5</ele>
        <time>2020-06-07T10:32:52Z</time>
      </trkpt>
      <trkpt lat="47.26893" lon="-1.63171">
        <ele>29.5</ele>
        <time>2020-06-07T10:32:53Z</time>
      </trkpt>
      <trkpt lat="47.26893" lon="-1.63172">
        <ele>29.5</ele>
        <time>2020-06-07T10:32:54Z</time>
      </trkpt>
      <trkpt lat="47.26894" lon="-1.63174">
        <ele>29.4</ele>
        <time>2020-06-07T10:32:55Z</time>
      </trkpt>
      <trkpt lat="47.26894" lon="-1.63175">
        <ele>29.4</ele>
        <time>2020-06-07T10:32:56Z</time>
      </trkpt>
      <trkpt lat="47.26894" lon="-1.63176">
        <ele>29.3</ele>
        <time>2020-06-07T10:32:57Z</time>
      </trkpt>
      <trkpt lat="47.26894" lon="-1.63177">
        <ele>29.2</ele>
        <time>2020-06-07T10:32:58Z</time>
      </trkpt>
      <trkpt lat="47.26894" lon="-1.63179">
        <ele>29.2</ele>
        <time>2020-06-07T10:32:59Z</time>
      </trkpt>
      <trkpt lat="47.26894" lon="-1.6318">
        <ele>29.1</ele>
        <time>2020-06-07T10:33:00Z</time>
      </trkpt>
      <trkpt lat="47.26894" lon="-1.63181">
        <ele>29.1</ele>
        <time>2020-06-07T10:33:01Z</time>
      </trkpt>
      <trkpt lat="47.26894" lon="-1.63183">
        <ele>29</ele>
        <time>2020-06-07T10:33:02Z</time>
      </trkpt>
      <trkpt lat="47.26894" lon="-1.63184">
        <ele>28.9</ele>
        <time>2020-06-07T10:33:03Z</time>
      </trkpt>
      <trkpt lat="47.26894" lon="-1.63186">
        <ele>28.8</ele>
        <time>2020-06-07T10:33:04Z</time>
      </trkpt>
      <trkpt lat="47.26893" lon="-1.63187">
        <ele>28.8</ele>
        <time>2020-06-07T10:33:05Z</time>
      </trkpt>
      <trkpt lat="47.26893" lon="-1.63188">
        <ele>28.7</ele>
        <time>2020-06-07T10:33:06Z</time>
      </trkpt>
      <trkpt lat="47.26893" lon="-1.6319">
        <ele>28.6</ele>
        <time>2020-06-07T10:33:07Z</time>
      </trkpt>
      <trkpt lat="47.26893" lon="-1.63191">
        <ele>28.6</ele>
        <time>2020-06-07T10:33:08Z</time>
      </trkpt>
      <trkpt lat="47.26892" lon="-1.63192">
        <ele>28.5</ele>
        <time>2020-06-07T10:33:09Z</time>
      </trkpt>
      <trkpt lat="47.26892" lon="-1.63193">
        <ele>28.5</ele>
        <time>2020-06-07T10:33:10Z</time>
      </trkpt>
      <trkpt lat="47.26892" lon="-1.63194">
        <ele>28.4</ele>
        <time>2020-06-07T10:33:11Z</time>
      </trkpt>
      <trkpt lat="47.26891" lon="-1.63196">
        <ele>28.3</ele>
        <time>2020-06-07T10:33:12Z</time>
      </trkpt>
      <trkpt lat="47.26891" lon="-1.63197">
        <ele>28.3</ele>
        <time>2020-06-07T10:33:13Z</time>
      </trkpt>
      <trkpt lat="47.26891" lon="-1.63198">
        <ele>28.2</ele>
        <time>2020-06-07T10:33:14Z</time>
      </trkpt>
      <trkpt lat="47.26891" lon="-1.63199">
        <ele>28.1</ele>
        <time>2020-06-07T10:33:15Z</time>
      </trkpt>
      <trkpt lat="47.26891" lon="-1.63201">
        <ele>28.1</ele>
        <time>2020-06-07T10:33:16Z</time>
      </trkpt>
      <trkpt lat="47.2689" lon="-1.63202">
        <ele>28</ele>
        <time>2020-06-07T10:33:17Z</time>
      </trkpt>
      <trkpt lat="47.2689" lon="-1.63203">
        <ele>27.9</ele>
        <time>2020-06-07T10:33:18Z</time>
      </trkpt>
      <trkpt lat="47.2689" lon="-1.63205">
        <ele>27.9</ele>
        <time>2020-06-07T10:33:19Z</time>
      </trkpt>
      <trkpt lat="47.2689" lon="-1.63206">
        <ele>27.8</ele>
        <time>2020-06-07T10:33:20Z</time>
      </trkpt>
      <trkpt lat="47.2689" lon="-1.63207">
        <ele>27.7</ele>
        <time>2020-06-07T10:33:21Z</time>
      </trkpt>
      <trkpt lat="47.2689" lon="-1.63209">
        <ele>27.7</ele>
        <time>2020-06-07T10:33:22Z</time>
      </trkpt>
      <trkpt lat="47.2689" lon="-1.6321">
        <ele>27.6</ele>
        <time>2020-06-07T10:33:23Z</time>
      </trkpt>
      <trkpt lat="47.2689" lon="-1.63211">
        <ele>27.5</ele>
        <time>2020-06-07T10:33:24Z</time>
      </trkpt>
      <trkpt lat="47.2689" lon="-1.63213">
        <ele>27.5</ele>
        <time>2020-06-07T10:33:25Z</time>
      </trkpt>
      <trkpt lat="47.2689" lon="-1.63214">
        <ele>27.4</ele>
        <time>2020-06-07T10:33:26Z</time>
      </trkpt>
      <trkpt lat="47.2689" lon="-1.63215">
        <ele>27.4</ele>
        <time>2020-06-07T10:33:27Z</time>
      </trkpt>
      <trkpt lat="47.2689" lon="-1.63216">
        <ele>27.3</ele>
        <time>2020-06-07T10:33:28Z</time>
      </trkpt>
      <trkpt lat="47.2689" lon="-1.63217">
        <ele>27.3</ele>
        <time>2020-06-07T10:33:29Z</time>
      </trkpt>
      <trkpt lat="47.26889" lon="-1.63218">
        <ele>27.2</ele>
        <time>2020-06-07T10:33:30Z</time>
      </trkpt>
      <trkpt lat="47.26889" lon="-1.63219">
        <ele>27.2</ele>
        <time>2020-06-07T10:33:31Z</time>
      </trkpt>
      <trkpt lat="47.26889" lon="-1.6322">
        <ele>27.1</ele>
        <time>2020-06-07T10:33:32Z</time>
      </trkpt>
      <trkpt lat="47.26889" lon="-1.6322">
        <ele>27.1</ele>
        <time>2020-06-07T10:33:33Z</time>
      </trkpt>
      <trkpt lat="47.26889" lon="-1.63221">
        <ele>27.1</ele>
        <time>2020-06-07T10:33:34Z</time>
      </trkpt>
      <trkpt lat="47.26889" lon="-1.63222">
        <ele>27</ele>
        <time>2020-06-07T10:33:35Z</time>
      </trkpt>
      <trkpt lat="47.26889" lon="-1.63222">
        <ele>27</ele>
        <time>2020-06-07T10:33:36Z</time>
      </trkpt>
      <trkpt lat="47.26889" lon="-1.63223">
        <ele>27</ele>
        <time>2020-06-07T10:33:37Z</time>
      </trkpt>
      <trkpt lat="47.26889" lon="-1.63223">
        <ele>27</ele>
        <time>2020-06-07T10:33:38Z</time>
      </trkpt>
      <trkpt lat="47.26889" lon="-1.63223">
        <ele>26.9</ele>
        <time>2020-06-07T10:33:39Z</time>
      </trkpt>
      <trkpt lat="47.26889" lon="-1.63223">
        <ele>26.9</ele>
        <time>2020-06-07T10:33:40Z</time>
      </trkpt>
      <trkpt lat="47.26889" lon="-1.63223">
        <ele>26.9</ele>
        <time>2020-06-07T10:33:41Z</time>
      </trkpt>
      <trkpt lat="47.26889" lon="-1.63223">
        <ele>26.9</ele>
        <time>2020-06-07T10:33:42Z</time>
      </trkpt>
      <trkpt lat="47.26889" lon="-1.63223">
        <ele>26.9</ele>
        <time>2020-06-07T10:33:43Z</time>
      </trkpt>
      <trkpt lat="47.26889" lon="-1.63223">
        <ele>26.9</ele>
        <time>2020-06-07T10:33:44Z</time>
      </trkpt>
      <trkpt lat="47.26889" lon="-1.63223">
        <ele>26.9</ele>
        <time>2020-06-07T10:33:45Z</time>
      </trkpt>
      <trkpt lat="47.26889" lon="-1.63224">
        <ele>26.9</ele>
        <time>2020-06-07T10:33:46Z</time>
      </trkpt>
      <trkpt lat="47.26889" lon="-1.63224">
        <ele>26.9</ele>
        <time>2020-06-07T10:33:47Z</time>
      </trkpt>
      <trkpt lat="47.26889" lon="-1.63224">
        <ele>26.9</ele>
        <time>2020-06-07T10:33:48Z</time>
      </trkpt>
      <trkpt lat="47.26889" lon="-1.63225">
        <ele>26.9</ele>
        <time>2020-06-07T10:33:49Z</time>
      </trkpt>
      <trkpt lat="47.26889" lon="-1.63225">
        <ele>26.8</ele>
        <time>2020-06-07T10:33:50Z</time>
      </trkpt>
      <trkpt lat="47.26888" lon="-1.63226">
        <ele>26.8</ele>
        <time>2020-06-07T10:33:51Z</time>
      </trkpt>
      <trkpt lat="47.26888" lon="-1.63227">
        <ele>26.7</ele>
        <time>2020-06-07T10:33:52Z</time>
      </trkpt>
      <trkpt lat="47.26888" lon="-1.63228">
        <ele>26.7</ele>
        <time>2020-06-07T10:33:53Z</time>
      </trkpt>
      <trkpt lat="47.26888" lon="-1.63229">
        <ele>26.6</ele>
        <time>2020-06-07T10:33:54Z</time>
      </trkpt>
      <trkpt lat="47.26888" lon="-1.6323">
        <ele>26.6</ele>
        <time>2020-06-07T10:33:55Z</time>
      </trkpt>
      <trkpt lat="47.26887" lon="-1.63231">
        <ele>26.5</ele>
        <time>2020-06-07T10:33:56Z</time>
      </trkpt>
      <trkpt lat="47.26887" lon="-1.63232">
        <ele>26.4</ele>
        <time>2020-06-07T10:33:57Z</time>
      </trkpt>
      <trkpt lat="47.26887" lon="-1.63233">
        <ele>26.4</ele>
        <time>2020-06-07T10:33:58Z</time>
      </trkpt>
      <trkpt lat="47.26887" lon="-1.63234">
        <ele>26.3</ele>
        <time>2020-06-07T10:33:59Z</time>
      </trkpt>
      <trkpt lat="47.26886" lon="-1.63235">
        <ele>26.3</ele>
        <time>2020-06-07T10:34:00Z</time>
      </trkpt>
      <trkpt lat="47.26886" lon="-1.63236">
        <ele>26.2</ele>
        <time>2020-06-07T10:34:01Z</time>
      </trkpt>
      <trkpt lat="47.26886" lon="-1.63237">
        <ele>26.2</ele>
        <time>2020-06-07T10:34:02Z</time>
      </trkpt>
      <trkpt lat="47.26886" lon="-1.63239">
        <ele>26.1</ele>
        <time>2020-06-07T10:34:03Z</time>
      </trkpt>
      <trkpt lat="47.26886" lon="-1.6324">
        <ele>26</ele>
        <time>2020-06-07T10:34:04Z</time>
      </trkpt>
      <trkpt lat="47.26886" lon="-1.63241">
        <ele>26</ele>
        <time>2020-06-07T10:34:05Z</time>
      </trkpt>
      <trkpt lat="47.26886" lon="-1.63242">
        <ele>25.9</ele>
        <time>2020-06-07T10:34:06Z</time>
      </trkpt>
      <trkpt lat="47.26886" lon="-1.63243">
        <ele>25.9</ele>
        <time>2020-06-07T10:34:07Z</time>
      </trkpt>
      <trkpt lat="47.26887" lon="-1.63245">
        <ele>25.8</ele>
        <time>2020-06-07T10:34:08Z</time>
      </trkpt>
      <trkpt lat="47.26887" lon="-1.63246">
        <ele>25.8</ele>
        <time>2020-06-07T10:34:09Z</time>
      </trkpt>
      <trkpt lat="47.26887" lon="-1.63247">
        <ele>25.7</ele>
        <time>2020-06-07T10:34:10Z</time>
      </trkpt>
      <trkpt lat="47.26887" lon="-1.63248">
        <ele>25.7</ele>
        <time>2020-06-07T10:34:11Z</time>
      </trkpt>
      <trkpt lat="47.26888" lon="-1.63249">
        <ele>25.6</ele>
        <time>2020-06-07T10:34:12Z</time>
      </trkpt>
      <trkpt lat="47.26888" lon="-1.63251">
        <ele>25.6</ele>
        <time>2020-06-07T10:34:13Z</time>
      </trkpt>
      <trkpt lat="47.26888" lon="-1.63252">
        <ele>25.7</ele>
        <time>2020-06-07T10:34:14Z</time>
      </trkpt>
      <trkpt lat="47.26889" lon="-1.63253">
        <ele>25.7</ele>
        <time>2020-06-07T10:34:15Z</time>
      </trkpt>
      <trkpt lat="47.26889" lon="-1.63255">
        <ele>25.7</ele>
        <time>2020-06-07T10:34:16Z</time>
      </trkpt>
      <trkpt lat="47.26889" lon="-1.63256">
        <ele>25.7</ele>
        <time>2020-06-07T10:34:17Z</time>
      </trkpt>
      <trkpt lat="47.26889" lon="-1.63257">
        <ele>25.7</ele>
        <time>2020-06-07T10:34:18Z</time>
      </trkpt>
      <trkpt lat="47.26889" lon="-1.63259">
        <ele>25.7</ele>
        <time>2020-06-07T10:34:19Z</time>
      </trkpt>
      <trkpt lat="47.26889" lon="-1.6326">
        <ele>25.8</ele>
        <time>2020-06-07T10:34:20Z</time>
      </trkpt>
      <trkpt lat="47.26889" lon="-1.63262">
        <ele>25.8</ele>
        <time>2020-06-07T10:34:21Z</time>
      </trkpt>
      <trkpt lat="47.26889" lon="-1.63263">
        <ele>25.8</ele>
        <time>2020-06-07T10:34:22Z</time>
      </trkpt>
      <trkpt lat="47.26889" lon="-1.63265">
        <ele>25.8</ele>
        <time>2020-06-07T10:34:23Z</time>
      </trkpt>
      <trkpt lat="47.26889" lon="-1.63266">
        <ele>25.8</ele>
        <time>2020-06-07T10:34:24Z</time>
      </trkpt>
      <trkpt lat="47.26889" lon="-1.63268">
        <ele>25.8</ele>
        <time>2020-06-07T10:34:25Z</time>
      </trkpt>
      <trkpt lat="47.26889" lon="-1.6327">
        <ele>25.8</ele>
        <time>2020-06-07T10:34:26Z</time>
      </trkpt>
      <trkpt lat="47.26889" lon="-1.63271">
        <ele>25.8</ele>
        <time>2020-06-07T10:34:27Z</time>
      </trkpt>
      <trkpt lat="47.26889" lon="-1.63273">
        <ele>25.8</ele>
        <time>2020-06-07T10:34:28Z</time>
      </trkpt>
      <trkpt lat="47.26889" lon="-1.63274">
        <ele>25.8</ele>
        <time>2020-06-07T10:34:29Z</time>
      </trkpt>
      <trkpt lat="47.26889" lon="-1.63276">
        <ele>25.9</ele>
        <time>2020-06-07T10:34:30Z</time>
      </trkpt>
      <trkpt lat="47.26889" lon="-1.63277">
        <ele>25.9</ele>
        <time>2020-06-07T10:34:31Z</time>
      </trkpt>
      <trkpt lat="47.26888" lon="-1.63278">
        <ele>25.9</ele>
        <time>2020-06-07T10:34:32Z</time>
      </trkpt>
      <trkpt lat="47.26888" lon="-1.6328">
        <ele>25.9</ele>
        <time>2020-06-07T10:34:33Z</time>
      </trkpt>
      <trkpt lat="47.26888" lon="-1.63281">
        <ele>25.9</ele>
        <time>2020-06-07T10:34:34Z</time>
      </trkpt>
      <trkpt lat="47.26888" lon="-1.63282">
        <ele>25.9</ele>
        <time>2020-06-07T10:34:35Z</time>
      </trkpt>
      <trkpt lat="47.26888" lon="-1.63284">
        <ele>25.9</ele>
        <time>2020-06-07T10:34:36Z</time>
      </trkpt>
      <trkpt lat="47.26888" lon="-1.63285">
        <ele>25.9</ele>
        <time>2020-06-07T10:34:37Z</time>
      </trkpt>
      <trkpt lat="47.26888" lon="-1.63286">
        <ele>25.9</ele>
        <time>2020-06-07T10:34:38Z</time>
      </trkpt>
      <trkpt lat="47.26888" lon="-1.63287">
        <ele>25.9</ele>
        <time>2020-06-07T10:34:39Z</time>
      </trkpt>
      <trkpt lat="47.26888" lon="-1.63288">
        <ele>25.9</ele>
        <time>2020-06-07T10:34:40Z</time>
      </trkpt>
      <trkpt lat="47.26888" lon="-1.6329">
        <ele>25.9</ele>
        <time>2020-06-07T10:34:41Z</time>
      </trkpt>
      <trkpt lat="47.26888" lon="-1.63291">
        <ele>25.9</ele>
        <time>2020-06-07T10:34:42Z</time>
      </trkpt>
      <trkpt lat="47.26888" lon="-1.63292">
        <ele>25.9</ele>
        <time>2020-06-07T10:34:43Z</time>
      </trkpt>
      <trkpt lat="47.26888" lon="-1.63293">
        <ele>25.9</ele>
        <time>2020-06-07T10:34:44Z</time>
      </trkpt>
      <trkpt lat="47.26888" lon="-1.63294">
        <ele>25.9</ele>
        <time>2020-06-07T10:34:45Z</time>
      </trkpt>
      <trkpt lat="47.26887" lon="-1.63295">
        <ele>25.9</ele>
        <time>2020-06-07T10:34:46Z</time>
      </trkpt>
      <trkpt lat="47.26887" lon="-1.63296">
        <ele>25.9</ele>
        <time>2020-06-07T10:34:47Z</time>
      </trkpt>
      <trkpt lat="47.26887" lon="-1.63297">
        <ele>25.9</ele>
        <time>2020-06-07T10:34:48Z</time>
      </trkpt>
      <trkpt lat="47.26887" lon="-1.63298">
        <ele>25.9</ele>
        <time>2020-06-07T10:34:49Z</time>
      </trkpt>
      <trkpt lat="47.26887" lon="-1.633">
        <ele>25.9</ele>
        <time>2020-06-07T10:34:50Z</time>
      </trkpt>
      <trkpt lat="47.26886" lon="-1.63301">
        <ele>25.9</ele>
        <time>2020-06-07T10:34:51Z</time>
      </trkpt>
      <trkpt lat="47.26886" lon="-1.63302">
        <ele>25.9</ele>
        <time>2020-06-07T10:34:52Z</time>
      </trkpt>
      <trkpt lat="47.26886" lon="-1.63303">
        <ele>25.9</ele>
        <time>2020-06-07T10:34:53Z</time>
      </trkpt>
      <trkpt lat="47.26885" lon="-1.63304">
        <ele>25.9</ele>
        <time>2020-06-07T10:34:54Z</time>
      </trkpt>
      <trkpt lat="47.26885" lon="-1.63306">
        <ele>25.9</ele>
        <time>2020-06-07T10:34:55Z</time>
      </trkpt>
      <trkpt lat="47.26885" lon="-1.63307">
        <ele>25.9</ele>
        <time>2020-06-07T10:34:56Z</time>
      </trkpt>
      <trkpt lat="47.26884" lon="-1.63308">
        <ele>25.9</ele>
        <time>2020-06-07T10:34:57Z</time>
      </trkpt>
      <trkpt lat="47.26884" lon="-1.63309">
        <ele>25.9</ele>
        <time>2020-06-07T10:34:58Z</time>
      </trkpt>
      <trkpt lat="47.26884" lon="-1.63311">
        <ele>25.9</ele>
        <time>2020-06-07T10:34:59Z</time>
      </trkpt>
      <trkpt lat="47.26883" lon="-1.63312">
        <ele>25.8</ele>
        <time>2020-06-07T10:35:00Z</time>
      </trkpt>
      <trkpt lat="47.26883" lon="-1.63313">
        <ele>25.8</ele>
        <time>2020-06-07T10:35:01Z</time>
      </trkpt>
      <trkpt lat="47.26883" lon="-1.63314">
        <ele>25.8</ele>
        <time>2020-06-07T10:35:02Z</time>
      </trkpt>
      <trkpt lat="47.26882" lon="-1.63316">
        <ele>25.8</ele>
        <time>2020-06-07T10:35:03Z</time>
      </trkpt>
      <trkpt lat="47.26882" lon="-1.63317">
        <ele>25.8</ele>
        <time>2020-06-07T10:35:04Z</time>
      </trkpt>
      <trkpt lat="47.26882" lon="-1.63318">
        <ele>25.8</ele>
        <time>2020-06-07T10:35:05Z</time>
      </trkpt>
      <trkpt lat="47.26882" lon="-1.6332">
        <ele>25.8</ele>
        <time>2020-06-07T10:35:06Z</time>
      </trkpt>
      <trkpt lat="47.26882" lon="-1.63321">
        <ele>25.8</ele>
        <time>2020-06-07T10:35:07Z</time>
      </trkpt>
      <trkpt lat="47.26881" lon="-1.63322">
        <ele>25.8</ele>
        <time>2020-06-07T10:35:08Z</time>
      </trkpt>
      <trkpt lat="47.26881" lon="-1.63324">
        <ele>25.8</ele>
        <time>2020-06-07T10:35:09Z</time>
      </trkpt>
      <trkpt lat="47.26881" lon="-1.63325">
        <ele>25.8</ele>
        <time>2020-06-07T10:35:10Z</time>
      </trkpt>
      <trkpt lat="47.26881" lon="-1.63326">
        <ele>25.8</ele>
        <time>2020-06-07T10:35:11Z</time>
      </trkpt>
      <trkpt lat="47.26882" lon="-1.63328">
        <ele>25.9</ele>
        <time>2020-06-07T10:35:12Z</time>
      </trkpt>
      <trkpt lat="47.26882" lon="-1.63329">
        <ele>25.9</ele>
        <time>2020-06-07T10:35:13Z</time>
      </trkpt>
      <trkpt lat="47.26882" lon="-1.6333">
        <ele>25.9</ele>
        <time>2020-06-07T10:35:14Z</time>
      </trkpt>
      <trkpt lat="47.26882" lon="-1.63332">
        <ele>25.9</ele>
        <time>2020-06-07T10:35:15Z</time>
      </trkpt>
      <trkpt lat="47.26882" lon="-1.63333">
        <ele>25.9</ele>
        <time>2020-06-07T10:35:16Z</time>
      </trkpt>
      <trkpt lat="47.26883" lon="-1.63334">
        <ele>26</ele>
        <time>2020-06-07T10:35:17Z</time>
      </trkpt>
      <trkpt lat="47.26883" lon="-1.63336">
        <ele>26</ele>
        <time>2020-06-07T10:35:18Z</time>
      </trkpt>
      <trkpt lat="47.26883" lon="-1.63337">
        <ele>26.1</ele>
        <time>2020-06-07T10:35:19Z</time>
      </trkpt>
      <trkpt lat="47.26883" lon="-1.63338">
        <ele>26.1</ele>
        <time>2020-06-07T10:35:20Z</time>
      </trkpt>
      <trkpt lat="47.26884" lon="-1.63339">
        <ele>26.2</ele>
        <time>2020-06-07T10:35:21Z</time>
      </trkpt>
      <trkpt lat="47.26884" lon="-1.6334">
        <ele>26.2</ele>
        <time>2020-06-07T10:35:22Z</time>
      </trkpt>
      <trkpt lat="47.26884" lon="-1.63341">
        <ele>26.3</ele>
        <time>2020-06-07T10:35:23Z</time>
      </trkpt>
      <trkpt lat="47.26885" lon="-1.63342">
        <ele>26.3</ele>
        <time>2020-06-07T10:35:24Z</time>
      </trkpt>
      <trkpt lat="47.26885" lon="-1.63343">
        <ele>26.4</ele>
        <time>2020-06-07T10:35:25Z</time>
      </trkpt>
      <trkpt lat="47.26885" lon="-1.63344">
        <ele>26.4</ele>
        <time>2020-06-07T10:35:26Z</time>
      </trkpt>
      <trkpt lat="47.26885" lon="-1.63345">
        <ele>26.4</ele>
        <time>2020-06-07T10:35:27Z</time>
      </trkpt>
      <trkpt lat="47.26886" lon="-1.63346">
        <ele>26.5</ele>
        <time>2020-06-07T10:35:28Z</time>
      </trkpt>
      <trkpt lat="47.26886" lon="-1.63347">
        <ele>26.5</ele>
        <time>2020-06-07T10:35:29Z</time>
      </trkpt>
      <trkpt lat="47.26886" lon="-1.63348">
        <ele>26.5</ele>
        <time>2020-06-07T10:35:30Z</time>
      </trkpt>
      <trkpt lat="47.26886" lon="-1.63349">
        <ele>26.6</ele>
        <time>2020-06-07T10:35:31Z</time>
      </trkpt>
      <trkpt lat="47.26886" lon="-1.6335">
        <ele>26.6</ele>
        <time>2020-06-07T10:35:32Z</time>
      </trkpt>
      <trkpt lat="47.26886" lon="-1.63351">
        <ele>26.6</ele>
        <time>2020-06-07T10:35:33Z</time>
      </trkpt>
      <trkpt lat="47.26885" lon="-1.63352">
        <ele>26.6</ele>
        <time>2020-06-07T10:35:34Z</time>
      </trkpt>
      <trkpt lat="47.26885" lon="-1.63354">
        <ele>26.7</ele>
        <time>2020-06-07T10:35:35Z</time>
      </trkpt>
      <trkpt lat="47.26885" lon="-1.63355">
        <ele>26.7</ele>
        <time>2020-06-07T10:35:36Z</time>
      </trkpt>
      <trkpt lat="47.26884" lon="-1.63356">
        <ele>26.7</ele>
        <time>2020-06-07T10:35:37Z</time>
      </trkpt>
      <trkpt lat="47.26884" lon="-1.63357">
        <ele>26.7</ele>
        <time>2020-06-07T10:35:38Z</time>
      </trkpt>
      <trkpt lat="47.26884" lon="-1.63358">
        <ele>26.7</ele>
        <time>2020-06-07T10:35:39Z</time>
      </trkpt>
      <trkpt lat="47.26884" lon="-1.63359">
        <ele>26.7</ele>
        <time>2020-06-07T10:35:40Z</time>
      </trkpt>
      <trkpt lat="47.26884" lon="-1.63359">
        <ele>26.7</ele>
        <time>2020-06-07T10:35:41Z</time>
      </trkpt>
      <trkpt lat="47.26883" lon="-1.63359">
        <ele>26.7</ele>
        <time>2020-06-07T10:35:42Z</time>
      </trkpt>
      <trkpt lat="47.26883" lon="-1.63359">
        <ele>26.7</ele>
        <time>2020-06-07T10:35:43Z</time>
      </trkpt>
      <trkpt lat="47.26883" lon="-1.63359">
        <ele>26.7</ele>
        <time>2020-06-07T10:35:44Z</time>
      </trkpt>
      <trkpt lat="47.26883" lon="-1.63359">
        <ele>26.6</ele>
        <time>2020-06-07T10:35:45Z</time>
      </trkpt>
      <trkpt lat="47.26882" lon="-1.63359">
        <ele>26.6</ele>
        <time>2020-06-07T10:35:46Z</time>
      </trkpt>
      <trkpt lat="47.26882" lon="-1.63359">
        <ele>26.6</ele>
        <time>2020-06-07T10:35:47Z</time>
      </trkpt>
      <trkpt lat="47.26881" lon="-1.63359">
        <ele>26.5</ele>
        <time>2020-06-07T10:35:48Z</time>
      </trkpt>
      <trkpt lat="47.26881" lon="-1.63359">
        <ele>26.5</ele>
        <time>2020-06-07T10:35:49Z</time>
      </trkpt>
      <trkpt lat="47.2688" lon="-1.6336">
        <ele>26.5</ele>
        <time>2020-06-07T10:35:50Z</time>
      </trkpt>
      <trkpt lat="47.26879" lon="-1.6336">
        <ele>26.4</ele>
        <time>2020-06-07T10:35:51Z</time>
      </trkpt>
      <trkpt lat="47.26879" lon="-1.6336">
        <ele>26.4</ele>
        <time>2020-06-07T10:35:52Z</time>
      </trkpt>
      <trkpt lat="47.26878" lon="-1.63361">
        <ele>26.3</ele>
        <time>2020-06-07T10:35:53Z</time>
      </trkpt>
      <trkpt lat="47.26877" lon="-1.63361">
        <ele>26.3</ele>
        <time>2020-06-07T10:35:54Z</time>
      </trkpt>
      <trkpt lat="47.26876" lon="-1.63362">
        <ele>26.3</ele>
        <time>2020-06-07T10:35:55Z</time>
      </trkpt>
      <trkpt lat="47.26875" lon="-1.63363">
        <ele>26.2</ele>
        <time>2020-06-07T10:35:56Z</time>
      </trkpt>
      <trkpt lat="47.26875" lon="-1.63364">
        <ele>26.2</ele>
        <time>2020-06-07T10:35:57Z</time>
      </trkpt>
      <trkpt lat="47.26874" lon="-1.63365">
        <ele>26.2</ele>
        <time>2020-06-07T10:35:58Z</time>
      </trkpt>
      <trkpt lat="47.26873" lon="-1.63365">
        <ele>26.2</ele>
        <time>2020-06-07T10:35:59Z</time>
      </trkpt>
      <trkpt lat="47.26873" lon="-1.63366">
        <ele>26.1</ele>
        <time>2020-06-07T10:36:00Z</time>
      </trkpt>
      <trkpt lat="47.26872" lon="-1.63368">
        <ele>26.1</ele>
        <time>2020-06-07T10:36:01Z</time>
      </trkpt>
      <trkpt lat="47.26872" lon="-1.63369">
        <ele>26.1</ele>
        <time>2020-06-07T10:36:02Z</time>
      </trkpt>
      <trkpt lat="47.26872" lon="-1.6337">
        <ele>26.1</ele>
        <time>2020-06-07T10:36:03Z</time>
      </trkpt>
      <trkpt lat="47.26871" lon="-1.63371">
        <ele>26.1</ele>
        <time>2020-06-07T10:36:04Z</time>
      </trkpt>
      <trkpt lat="47.26871" lon="-1.63372">
        <ele>26.2</ele>
        <time>2020-06-07T10:36:05Z</time>
      </trkpt>
      <trkpt lat="47.26871" lon="-1.63374">
        <ele>26.2</ele>
        <time>2020-06-07T10:36:06Z</time>
      </trkpt>
      <trkpt lat="47.26871" lon="-1.63375">
        <ele>26.2</ele>
        <time>2020-06-07T10:36:07Z</time>
      </trkpt>
      <trkpt lat="47.26871" lon="-1.63376">
        <ele>26.2</ele>
        <time>2020-06-07T10:36:08Z</time>
      </trkpt>
      <trkpt lat="47.26871" lon="-1.63377">
        <ele>26.2</ele>
        <time>2020-06-07T10:36:09Z</time>
      </trkpt>
      <trkpt lat="47.26871" lon="-1.63379">
        <ele>26.3</ele>
        <time>2020-06-07T10:36:10Z</time>
      </trkpt>
      <trkpt lat="47.26871" lon="-1.6338">
        <ele>26.3</ele>
        <time>2020-06-07T10:36:11Z</time>
      </trkpt>
      <trkpt lat="47.26871" lon="-1.63382">
        <ele>26.3</ele>
        <time>2020-06-07T10:36:12Z</time>
      </trkpt>
      <trkpt lat="47.26871" lon="-1.63383">
        <ele>26.4</ele>
        <time>2020-06-07T10:36:13Z</time>
      </trkpt>
      <trkpt lat="47.26871" lon="-1.63384">
        <ele>26.4</ele>
        <time>2020-06-07T10:36:14Z</time>
      </trkpt>
      <trkpt lat="47.26871" lon="-1.63386">
        <ele>26.5</ele>
        <time>2020-06-07T10:36:15Z</time>
      </trkpt>
      <trkpt lat="47.26871" lon="-1.63387">
        <ele>26.5</ele>
        <time>2020-06-07T10:36:16Z</time>
      </trkpt>
      <trkpt lat="47.26871" lon="-1.63389">
        <ele>26.5</ele>
        <time>2020-06-07T10:36:17Z</time>
      </trkpt>
      <trkpt lat="47.26871" lon="-1.6339">
        <ele>26.6</ele>
        <time>2020-06-07T10:36:18Z</time>
      </trkpt>
      <trkpt lat="47.26871" lon="-1.63391">
        <ele>26.6</ele>
        <time>2020-06-07T10:36:19Z</time>
      </trkpt>
      <trkpt lat="47.26872" lon="-1.63393">
        <ele>26.7</ele>
        <time>2020-06-07T10:36:20Z</time>
      </trkpt>
      <trkpt lat="47.26872" lon="-1.63394">
        <ele>26.7</ele>
        <time>2020-06-07T10:36:21Z</time>
      </trkpt>
      <trkpt lat="47.26872" lon="-1.63396">
        <ele>26.7</ele>
        <time>2020-06-07T10:36:22Z</time>
      </trkpt>
      <trkpt lat="47.26872" lon="-1.63397">
        <ele>26.8</ele>
        <time>2020-06-07T10:36:23Z</time>
      </trkpt>
      <trkpt lat="47.26872" lon="-1.63398">
        <ele>26.8</ele>
        <time>2020-06-07T10:36:24Z</time>
      </trkpt>
      <trkpt lat="47.26872" lon="-1.634">
        <ele>26.8</ele>
        <time>2020-06-07T10:36:25Z</time>
      </trkpt>
      <trkpt lat="47.26872" lon="-1.63401">
        <ele>26.9</ele>
        <time>2020-06-07T10:36:26Z</time>
      </trkpt>
      <trkpt lat="47.26872" lon="-1.63402">
        <ele>26.9</ele>
        <time>2020-06-07T10:36:27Z</time>
      </trkpt>
      <trkpt lat="47.26872" lon="-1.63403">
        <ele>26.9</ele>
        <time>2020-06-07T10:36:28Z</time>
      </trkpt>
      <trkpt lat="47.26872" lon="-1.63405">
        <ele>26.9</ele>
        <time>2020-06-07T10:36:29Z</time>
      </trkpt>
      <trkpt lat="47.26872" lon="-1.63406">
        <ele>27</ele>
        <time>2020-06-07T10:36:30Z</time>
      </trkpt>
      <trkpt lat="47.26872" lon="-1.63407">
        <ele>27</ele>
        <time>2020-06-07T10:36:31Z</time>
      </trkpt>
      <trkpt lat="47.26872" lon="-1.63409">
        <ele>27</ele>
        <time>2020-06-07T10:36:32Z</time>
      </trkpt>
      <trkpt lat="47.26872" lon="-1.6341">
        <ele>27.1</ele>
        <time>2020-06-07T10:36:33Z</time>
      </trkpt>
      <trkpt lat="47.26871" lon="-1.63411">
        <ele>27.1</ele>
        <time>2020-06-07T10:36:34Z</time>
      </trkpt>
      <trkpt lat="47.26871" lon="-1.63412">
        <ele>27.1</ele>
        <time>2020-06-07T10:36:35Z</time>
      </trkpt>
      <trkpt lat="47.26871" lon="-1.63414">
        <ele>27.1</ele>
        <time>2020-06-07T10:36:36Z</time>
      </trkpt>
      <trkpt lat="47.26871" lon="-1.63415">
        <ele>27.1</ele>
        <time>2020-06-07T10:36:37Z</time>
      </trkpt>
      <trkpt lat="47.26871" lon="-1.63416">
        <ele>27.1</ele>
        <time>2020-06-07T10:36:38Z</time>
      </trkpt>
      <trkpt lat="47.26871" lon="-1.63418">
        <ele>27.2</ele>
        <time>2020-06-07T10:36:39Z</time>
      </trkpt>
      <trkpt lat="47.26871" lon="-1.63419">
        <ele>27.2</ele>
        <time>2020-06-07T10:36:40Z</time>
      </trkpt>
      <trkpt lat="47.2687" lon="-1.6342">
        <ele>27.3</ele>
        <time>2020-06-07T10:36:41Z</time>
      </trkpt>
      <trkpt lat="47.2687" lon="-1.63422">
        <ele>27.3</ele>
        <time>2020-06-07T10:36:42Z</time>
      </trkpt>
      <trkpt lat="47.2687" lon="-1.63423">
        <ele>27.3</ele>
        <time>2020-06-07T10:36:43Z</time>
      </trkpt>
      <trkpt lat="47.2687" lon="-1.63424">
        <ele>27.4</ele>
        <time>2020-06-07T10:36:44Z</time>
      </trkpt>
      <trkpt lat="47.2687" lon="-1.63426">
        <ele>27.4</ele>
        <time>2020-06-07T10:36:45Z</time>
      </trkpt>
      <trkpt lat="47.26869" lon="-1.63427">
        <ele>27.5</ele>
        <time>2020-06-07T10:36:46Z</time>
      </trkpt>
      <trkpt lat="47.26869" lon="-1.63428">
        <ele>27.5</ele>
        <time>2020-06-07T10:36:47Z</time>
      </trkpt>
      <trkpt lat="47.26869" lon="-1.6343">
        <ele>27.5</ele>
        <time>2020-06-07T10:36:48Z</time>
      </trkpt>
      <trkpt lat="47.26869" lon="-1.63431">
        <ele>27.6</ele>
        <time>2020-06-07T10:36:49Z</time>
      </trkpt>
      <trkpt lat="47.26868" lon="-1.63432">
        <ele>27.6</ele>
        <time>2020-06-07T10:36:50Z</time>
      </trkpt>
      <trkpt lat="47.26868" lon="-1.63433">
        <ele>27.6</ele>
        <time>2020-06-07T10:36:51Z</time>
      </trkpt>
      <trkpt lat="47.26868" lon="-1.63435">
        <ele>27.7</ele>
        <time>2020-06-07T10:36:52Z</time>
      </trkpt>
      <trkpt lat="47.26867" lon="-1.63436">
        <ele>27.7</ele>
        <time>2020-06-07T10:36:53Z</time>
      </trkpt>
      <trkpt lat="47.26867" lon="-1.63437">
        <ele>27.7</ele>
        <time>2020-06-07T10:36:54Z</time>
      </trkpt>
      <trkpt lat="47.26867" lon="-1.63439">
        <ele>27.8</ele>
        <time>2020-06-07T10:36:55Z</time>
      </trkpt>
      <trkpt lat="47.26866" lon="-1.6344">
        <ele>27.8</ele>
        <time>2020-06-07T10:36:56Z</time>
      </trkpt>
      <trkpt lat="47.26866" lon="-1.63441">
        <ele>27.8</ele>
        <time>2020-06-07T10:36:57Z</time>
      </trkpt>
      <trkpt lat="47.26866" lon="-1.63443">
        <ele>27.8</ele>
        <time>2020-06-07T10:36:58Z</time>
      </trkpt>
      <trkpt lat="47.26865" lon="-1.63444">
        <ele>27.9</ele>
        <time>2020-06-07T10:36:59Z</time>
      </trkpt>
      <trkpt lat="47.26865" lon="-1.63445">
        <ele>27.9</ele>
        <time>2020-06-07T10:37:00Z</time>
      </trkpt>
      <trkpt lat="47.26865" lon="-1.63446">
        <ele>27.9</ele>
        <time>2020-06-07T10:37:01Z</time>
      </trkpt>
      <trkpt lat="47.26864" lon="-1.63448">
        <ele>27.9</ele>
        <time>2020-06-07T10:37:02Z</time>
      </trkpt>
      <trkpt lat="47.26864" lon="-1.63449">
        <ele>28</ele>
        <time>2020-06-07T10:37:03Z</time>
      </trkpt>
      <trkpt lat="47.26863" lon="-1.6345">
        <ele>28</ele>
        <time>2020-06-07T10:37:04Z</time>
      </trkpt>
      <trkpt lat="47.26863" lon="-1.63451">
        <ele>28</ele>
        <time>2020-06-07T10:37:05Z</time>
      </trkpt>
      <trkpt lat="47.26863" lon="-1.63453">
        <ele>28</ele>
        <time>2020-06-07T10:37:06Z</time>
      </trkpt>
      <trkpt lat="47.26862" lon="-1.63454">
        <ele>28</ele>
        <time>2020-06-07T10:37:07Z</time>
      </trkpt>
      <trkpt lat="47.26862" lon="-1.63455">
        <ele>28</ele>
        <time>2020-06-07T10:37:08Z</time>
      </trkpt>
      <trkpt lat="47.26861" lon="-1.63456">
        <ele>28.1</ele>
        <time>2020-06-07T10:37:09Z</time>
      </trkpt>
      <trkpt lat="47.26861" lon="-1.63457">
        <ele>28.1</ele>
        <time>2020-06-07T10:37:10Z</time>
      </trkpt>
      <trkpt lat="47.2686" lon="-1.63458">
        <ele>28.1</ele>
        <time>2020-06-07T10:37:11Z</time>
      </trkpt>
      <trkpt lat="47.2686" lon="-1.6346">
        <ele>28.1</ele>
        <time>2020-06-07T10:37:12Z</time>
      </trkpt>
      <trkpt lat="47.26859" lon="-1.63461">
        <ele>28.1</ele>
        <time>2020-06-07T10:37:13Z</time>
      </trkpt>
      <trkpt lat="47.26859" lon="-1.63462">
        <ele>28.1</ele>
        <time>2020-06-07T10:37:14Z</time>
      </trkpt>
      <trkpt lat="47.26858" lon="-1.63463">
        <ele>28.2</ele>
        <time>2020-06-07T10:37:15Z</time>
      </trkpt>
      <trkpt lat="47.26858" lon="-1.63464">
        <ele>28.2</ele>
        <time>2020-06-07T10:37:16Z</time>
      </trkpt>
      <trkpt lat="47.26858" lon="-1.63465">
        <ele>28.2</ele>
        <time>2020-06-07T10:37:17Z</time>
      </trkpt>
      <trkpt lat="47.26857" lon="-1.63467">
        <ele>28.2</ele>
        <time>2020-06-07T10:37:18Z</time>
      </trkpt>
      <trkpt lat="47.26857" lon="-1.63468">
        <ele>28.3</ele>
        <time>2020-06-07T10:37:19Z</time>
      </trkpt>
      <trkpt lat="47.26857" lon="-1.63469">
        <ele>28.3</ele>
        <time>2020-06-07T10:37:20Z</time>
      </trkpt>
      <trkpt lat="47.26857" lon="-1.63471">
        <ele>28.4</ele>
        <time>2020-06-07T10:37:21Z</time>
      </trkpt>
      <trkpt lat="47.26857" lon="-1.63472">
        <ele>28.4</ele>
        <time>2020-06-07T10:37:22Z</time>
      </trkpt>
      <trkpt lat="47.26857" lon="-1.63473">
        <ele>28.5</ele>
        <time>2020-06-07T10:37:23Z</time>
      </trkpt>
      <trkpt lat="47.26857" lon="-1.63475">
        <ele>28.5</ele>
        <time>2020-06-07T10:37:24Z</time>
      </trkpt>
      <trkpt lat="47.26857" lon="-1.63476">
        <ele>28.6</ele>
        <time>2020-06-07T10:37:25Z</time>
      </trkpt>
      <trkpt lat="47.26856" lon="-1.63477">
        <ele>28.6</ele>
        <time>2020-06-07T10:37:26Z</time>
      </trkpt>
      <trkpt lat="47.26856" lon="-1.63478">
        <ele>28.7</ele>
        <time>2020-06-07T10:37:27Z</time>
      </trkpt>
      <trkpt lat="47.26856" lon="-1.63479">
        <ele>28.7</ele>
        <time>2020-06-07T10:37:28Z</time>
      </trkpt>
      <trkpt lat="47.26855" lon="-1.6348">
        <ele>28.7</ele>
        <time>2020-06-07T10:37:29Z</time>
      </trkpt>
      <trkpt lat="47.26855" lon="-1.63481">
        <ele>28.7</ele>
        <time>2020-06-07T10:37:30Z</time>
      </trkpt>
      <trkpt lat="47.26854" lon="-1.63482">
        <ele>28.7</ele>
        <time>2020-06-07T10:37:31Z</time>
      </trkpt>
      <trkpt lat="47.26854" lon="-1.63483">
        <ele>28.7</ele>
        <time>2020-06-07T10:37:32Z</time>
      </trkpt>
      <trkpt lat="47.26853" lon="-1.63484">
        <ele>28.7</ele>
        <time>2020-06-07T10:37:33Z</time>
      </trkpt>
      <trkpt lat="47.26852" lon="-1.63485">
        <ele>28.7</ele>
        <time>2020-06-07T10:37:34Z</time>
      </trkpt>
      <trkpt lat="47.26852" lon="-1.63486">
        <ele>28.7</ele>
        <time>2020-06-07T10:37:35Z</time>
      </trkpt>
      <trkpt lat="47.26851" lon="-1.63487">
        <ele>28.7</ele>
        <time>2020-06-07T10:37:36Z</time>
      </trkpt>
      <trkpt lat="47.26851" lon="-1.63488">
        <ele>28.7</ele>
        <time>2020-06-07T10:37:37Z</time>
      </trkpt>
      <trkpt lat="47.2685" lon="-1.63489">
        <ele>28.7</ele>
        <time>2020-06-07T10:37:38Z</time>
      </trkpt>
      <trkpt lat="47.2685" lon="-1.6349">
        <ele>28.7</ele>
        <time>2020-06-07T10:37:39Z</time>
      </trkpt>
      <trkpt lat="47.26849" lon="-1.63491">
        <ele>28.7</ele>
        <time>2020-06-07T10:37:40Z</time>
      </trkpt>
      <trkpt lat="47.26849" lon="-1.63492">
        <ele>28.8</ele>
        <time>2020-06-07T10:37:41Z</time>
      </trkpt>
      <trkpt lat="47.26849" lon="-1.63493">
        <ele>28.8</ele>
        <time>2020-06-07T10:37:42Z</time>
      </trkpt>
      <trkpt lat="47.26848" lon="-1.63494">
        <ele>28.8</ele>
        <time>2020-06-07T10:37:43Z</time>
      </trkpt>
      <trkpt lat="47.26848" lon="-1.63496">
        <ele>28.8</ele>
        <time>2020-06-07T10:37:44Z</time>
      </trkpt>
      <trkpt lat="47.26847" lon="-1.63497">
        <ele>28.9</ele>
        <time>2020-06-07T10:37:45Z</time>
      </trkpt>
      <trkpt lat="47.26847" lon="-1.63498">
        <ele>28.9</ele>
        <time>2020-06-07T10:37:46Z</time>
      </trkpt>
      <trkpt lat="47.26847" lon="-1.63499">
        <ele>28.9</ele>
        <time>2020-06-07T10:37:47Z</time>
      </trkpt>
      <trkpt lat="47.26846" lon="-1.63501">
        <ele>29</ele>
        <time>2020-06-07T10:37:48Z</time>
      </trkpt>
      <trkpt lat="47.26846" lon="-1.63502">
        <ele>29</ele>
        <time>2020-06-07T10:37:49Z</time>
      </trkpt>
      <trkpt lat="47.26845" lon="-1.63503">
        <ele>29.1</ele>
        <time>2020-06-07T10:37:50Z</time>
      </trkpt>
      <trkpt lat="47.26845" lon="-1.63505">
        <ele>29.1</ele>
        <time>2020-06-07T10:37:51Z</time>
      </trkpt>
      <trkpt lat="47.26845" lon="-1.63506">
        <ele>29.2</ele>
        <time>2020-06-07T10:37:52Z</time>
      </trkpt>
      <trkpt lat="47.26844" lon="-1.63507">
        <ele>29.2</ele>
        <time>2020-06-07T10:37:53Z</time>
      </trkpt>
      <trkpt lat="47.26844" lon="-1.63509">
        <ele>29.3</ele>
        <time>2020-06-07T10:37:54Z</time>
      </trkpt>
      <trkpt lat="47.26843" lon="-1.6351">
        <ele>29.3</ele>
        <time>2020-06-07T10:37:55Z</time>
      </trkpt>
      <trkpt lat="47.26843" lon="-1.63511">
        <ele>29.4</ele>
        <time>2020-06-07T10:37:56Z</time>
      </trkpt>
      <trkpt lat="47.26842" lon="-1.63513">
        <ele>29.4</ele>
        <time>2020-06-07T10:37:57Z</time>
      </trkpt>
      <trkpt lat="47.26842" lon="-1.63514">
        <ele>29.4</ele>
        <time>2020-06-07T10:37:58Z</time>
      </trkpt>
      <trkpt lat="47.26841" lon="-1.63515">
        <ele>29.5</ele>
        <time>2020-06-07T10:37:59Z</time>
      </trkpt>
      <trkpt lat="47.26841" lon="-1.63517">
        <ele>29.5</ele>
        <time>2020-06-07T10:38:00Z</time>
      </trkpt>
      <trkpt lat="47.2684" lon="-1.63518">
        <ele>29.6</ele>
        <time>2020-06-07T10:38:01Z</time>
      </trkpt>
      <trkpt lat="47.2684" lon="-1.63519">
        <ele>29.6</ele>
        <time>2020-06-07T10:38:02Z</time>
      </trkpt>
      <trkpt lat="47.26839" lon="-1.63521">
        <ele>29.7</ele>
        <time>2020-06-07T10:38:03Z</time>
      </trkpt>
      <trkpt lat="47.26839" lon="-1.63522">
        <ele>29.7</ele>
        <time>2020-06-07T10:38:04Z</time>
      </trkpt>
      <trkpt lat="47.26838" lon="-1.63523">
        <ele>29.7</ele>
        <time>2020-06-07T10:38:05Z</time>
      </trkpt>
      <trkpt lat="47.26838" lon="-1.63525">
        <ele>29.8</ele>
        <time>2020-06-07T10:38:06Z</time>
      </trkpt>
      <trkpt lat="47.26837" lon="-1.63526">
        <ele>29.8</ele>
        <time>2020-06-07T10:38:07Z</time>
      </trkpt>
      <trkpt lat="47.26836" lon="-1.63527">
        <ele>29.9</ele>
        <time>2020-06-07T10:38:08Z</time>
      </trkpt>
      <trkpt lat="47.26836" lon="-1.63529">
        <ele>29.9</ele>
        <time>2020-06-07T10:38:09Z</time>
      </trkpt>
      <trkpt lat="47.26835" lon="-1.6353">
        <ele>29.9</ele>
        <time>2020-06-07T10:38:10Z</time>
      </trkpt>
      <trkpt lat="47.26835" lon="-1.63531">
        <ele>30</ele>
        <time>2020-06-07T10:38:11Z</time>
      </trkpt>
      <trkpt lat="47.26834" lon="-1.63533">
        <ele>30</ele>
        <time>2020-06-07T10:38:12Z</time>
      </trkpt>
      <trkpt lat="47.26834" lon="-1.63534">
        <ele>30</ele>
        <time>2020-06-07T10:38:13Z</time>
      </trkpt>
      <trkpt lat="47.26833" lon="-1.63535">
        <ele>30.1</ele>
        <time>2020-06-07T10:38:14Z</time>
      </trkpt>
      <trkpt lat="47.26832" lon="-1.63536">
        <ele>30.1</ele>
        <time>2020-06-07T10:38:15Z</time>
      </trkpt>
      <trkpt lat="47.26832" lon="-1.63538">
        <ele>30.2</ele>
        <time>2020-06-07T10:38:16Z</time>
      </trkpt>
      <trkpt lat="47.26831" lon="-1.63539">
        <ele>30.2</ele>
        <time>2020-06-07T10:38:17Z</time>
      </trkpt>
      <trkpt lat="47.26831" lon="-1.6354">
        <ele>30.3</ele>
        <time>2020-06-07T10:38:18Z</time>
      </trkpt>
      <trkpt lat="47.2683" lon="-1.63541">
        <ele>30.3</ele>
        <time>2020-06-07T10:38:19Z</time>
      </trkpt>
      <trkpt lat="47.2683" lon="-1.63543">
        <ele>30.4</ele>
        <time>2020-06-07T10:38:20Z</time>
      </trkpt>
      <trkpt lat="47.26829" lon="-1.63544">
        <ele>30.4</ele>
        <time>2020-06-07T10:38:21Z</time>
      </trkpt>
      <trkpt lat="47.26829" lon="-1.63545">
        <ele>30.4</ele>
        <time>2020-06-07T10:38:22Z</time>
      </trkpt>
      <trkpt lat="47.26828" lon="-1.63546">
        <ele>30.5</ele>
        <time>2020-06-07T10:38:23Z</time>
      </trkpt>
      <trkpt lat="47.26828" lon="-1.63547">
        <ele>30.5</ele>
        <time>2020-06-07T10:38:24Z</time>
      </trkpt>
      <trkpt lat="47.26827" lon="-1.63549">
        <ele>30.6</ele>
        <time>2020-06-07T10:38:25Z</time>
      </trkpt>
      <trkpt lat="47.26827" lon="-1.6355">
        <ele>30.6</ele>
        <time>2020-06-07T10:38:26Z</time>
      </trkpt>
      <trkpt lat="47.26826" lon="-1.63551">
        <ele>30.6</ele>
        <time>2020-06-07T10:38:27Z</time>
      </trkpt>
      <trkpt lat="47.26826" lon="-1.63552">
        <ele>30.6</ele>
        <time>2020-06-07T10:38:28Z</time>
      </trkpt>
      <trkpt lat="47.26825" lon="-1.63554">
        <ele>30.7</ele>
        <time>2020-06-07T10:38:29Z</time>
      </trkpt>
      <trkpt lat="47.26825" lon="-1.63555">
        <ele>30.7</ele>
        <time>2020-06-07T10:38:30Z</time>
      </trkpt>
      <trkpt lat="47.26824" lon="-1.63556">
        <ele>30.7</ele>
        <time>2020-06-07T10:38:31Z</time>
      </trkpt>
      <trkpt lat="47.26824" lon="-1.63557">
        <ele>30.7</ele>
        <time>2020-06-07T10:38:32Z</time>
      </trkpt>
      <trkpt lat="47.26823" lon="-1.63558">
        <ele>30.8</ele>
        <time>2020-06-07T10:38:33Z</time>
      </trkpt>
      <trkpt lat="47.26822" lon="-1.6356">
        <ele>30.8</ele>
        <time>2020-06-07T10:38:34Z</time>
      </trkpt>
      <trkpt lat="47.26822" lon="-1.63561">
        <ele>30.8</ele>
        <time>2020-06-07T10:38:35Z</time>
      </trkpt>
      <trkpt lat="47.26821" lon="-1.63562">
        <ele>30.8</ele>
        <time>2020-06-07T10:38:36Z</time>
      </trkpt>
      <trkpt lat="47.26821" lon="-1.63563">
        <ele>30.8</ele>
        <time>2020-06-07T10:38:37Z</time>
      </trkpt>
      <trkpt lat="47.2682" lon="-1.63565">
        <ele>30.8</ele>
        <time>2020-06-07T10:38:38Z</time>
      </trkpt>
      <trkpt lat="47.26819" lon="-1.63566">
        <ele>30.8</ele>
        <time>2020-06-07T10:38:39Z</time>
      </trkpt>
      <trkpt lat="47.26819" lon="-1.63567">
        <ele>30.9</ele>
        <time>2020-06-07T10:38:40Z</time>
      </trkpt>
      <trkpt lat="47.26818" lon="-1.63568">
        <ele>30.9</ele>
        <time>2020-06-07T10:38:41Z</time>
      </trkpt>
      <trkpt lat="47.26818" lon="-1.63569">
        <ele>30.9</ele>
        <time>2020-06-07T10:38:42Z</time>
      </trkpt>
      <trkpt lat="47.26817" lon="-1.6357">
        <ele>30.9</ele>
        <time>2020-06-07T10:38:43Z</time>
      </trkpt>
      <trkpt lat="47.26817" lon="-1.63571">
        <ele>30.9</ele>
        <time>2020-06-07T10:38:44Z</time>
      </trkpt>
      <trkpt lat="47.26816" lon="-1.63572">
        <ele>30.9</ele>
        <time>2020-06-07T10:38:45Z</time>
      </trkpt>
      <trkpt lat="47.26816" lon="-1.63574">
        <ele>30.9</ele>
        <time>2020-06-07T10:38:46Z</time>
      </trkpt>
      <trkpt lat="47.26816" lon="-1.63575">
        <ele>30.9</ele>
        <time>2020-06-07T10:38:47Z</time>
      </trkpt>
      <trkpt lat="47.26815" lon="-1.63576">
        <ele>30.9</ele>
        <time>2020-06-07T10:38:48Z</time>
      </trkpt>
      <trkpt lat="47.26815" lon="-1.63577">
        <ele>30.9</ele>
        <time>2020-06-07T10:38:49Z</time>
      </trkpt>
      <trkpt lat="47.26814" lon="-1.63578">
        <ele>30.9</ele>
        <time>2020-06-07T10:38:50Z</time>
      </trkpt>
      <trkpt lat="47.26814" lon="-1.63579">
        <ele>31</ele>
        <time>2020-06-07T10:38:51Z</time>
      </trkpt>
      <trkpt lat="47.26814" lon="-1.6358">
        <ele>31</ele>
        <time>2020-06-07T10:38:52Z</time>
      </trkpt>
      <trkpt lat="47.26813" lon="-1.63581">
        <ele>31</ele>
        <time>2020-06-07T10:38:53Z</time>
      </trkpt>
      <trkpt lat="47.26813" lon="-1.63582">
        <ele>31</ele>
        <time>2020-06-07T10:38:54Z</time>
      </trkpt>
      <trkpt lat="47.26812" lon="-1.63583">
        <ele>31</ele>
        <time>2020-06-07T10:38:55Z</time>
      </trkpt>
      <trkpt lat="47.26812" lon="-1.63584">
        <ele>31</ele>
        <time>2020-06-07T10:38:56Z</time>
      </trkpt>
      <trkpt lat="47.26812" lon="-1.63585">
        <ele>31</ele>
        <time>2020-06-07T10:38:57Z</time>
      </trkpt>
      <trkpt lat="47.26811" lon="-1.63586">
        <ele>31</ele>
        <time>2020-06-07T10:38:58Z</time>
      </trkpt>
      <trkpt lat="47.26811" lon="-1.63587">
        <ele>31</ele>
        <time>2020-06-07T10:38:59Z</time>
      </trkpt>
      <trkpt lat="47.2681" lon="-1.63588">
        <ele>31</ele>
        <time>2020-06-07T10:39:00Z</time>
      </trkpt>
      <trkpt lat="47.2681" lon="-1.63589">
        <ele>31</ele>
        <time>2020-06-07T10:39:01Z</time>
      </trkpt>
      <trkpt lat="47.26809" lon="-1.6359">
        <ele>31</ele>
        <time>2020-06-07T10:39:02Z</time>
      </trkpt>
      <trkpt lat="47.26809" lon="-1.63591">
        <ele>31</ele>
        <time>2020-06-07T10:39:03Z</time>
      </trkpt>
      <trkpt lat="47.26808" lon="-1.63592">
        <ele>31</ele>
        <time>2020-06-07T10:39:04Z</time>
      </trkpt>
      <trkpt lat="47.26807" lon="-1.63593">
        <ele>31</ele>
        <time>2020-06-07T10:39:05Z</time>
      </trkpt>
      <trkpt lat="47.26806" lon="-1.63594">
        <ele>31</ele>
        <time>2020-06-07T10:39:06Z</time>
      </trkpt>
      <trkpt lat="47.26805" lon="-1.63595">
        <ele>30.9</ele>
        <time>2020-06-07T10:39:07Z</time>
      </trkpt>
      <trkpt lat="47.26804" lon="-1.63596">
        <ele>30.9</ele>
        <time>2020-06-07T10:39:08Z</time>
      </trkpt>
      <trkpt lat="47.26804" lon="-1.63597">
        <ele>30.8</ele>
        <time>2020-06-07T10:39:09Z</time>
      </trkpt>
      <trkpt lat="47.26803" lon="-1.63598">
        <ele>30.8</ele>
        <time>2020-06-07T10:39:10Z</time>
      </trkpt>
      <trkpt lat="47.26802" lon="-1.63599">
        <ele>30.7</ele>
        <time>2020-06-07T10:39:11Z</time>
      </trkpt>
      <trkpt lat="47.26801" lon="-1.636">
        <ele>30.7</ele>
        <time>2020-06-07T10:39:12Z</time>
      </trkpt>
      <trkpt lat="47.268" lon="-1.636">
        <ele>30.6</ele>
        <time>2020-06-07T10:39:13Z</time>
      </trkpt>
      <trkpt lat="47.26799" lon="-1.63601">
        <ele>30.6</ele>
        <time>2020-06-07T10:39:14Z</time>
      </trkpt>
      <trkpt lat="47.26798" lon="-1.63602">
        <ele>30.5</ele>
        <time>2020-06-07T10:39:15Z</time>
      </trkpt>
      <trkpt lat="47.26797" lon="-1.63602">
        <ele>30.4</ele>
        <time>2020-06-07T10:39:16Z</time>
      </trkpt>
      <trkpt lat="47.26796" lon="-1.63603">
        <ele>30.4</ele>
        <time>2020-06-07T10:39:17Z</time>
      </trkpt>
      <trkpt lat="47.26795" lon="-1.63604">
        <ele>30.3</ele>
        <time>2020-06-07T10:39:18Z</time>
      </trkpt>
      <trkpt lat="47.26794" lon="-1.63604">
        <ele>30.2</ele>
        <time>2020-06-07T10:39:19Z</time>
      </trkpt>
      <trkpt lat="47.26793" lon="-1.63605">
        <ele>30.2</ele>
        <time>2020-06-07T10:39:20Z</time>
      </trkpt>
      <trkpt lat="47.26792" lon="-1.63606">
        <ele>30.1</ele>
        <time>2020-06-07T10:39:21Z</time>
      </trkpt>
      <trkpt lat="47.26791" lon="-1.63606">
        <ele>30.1</ele>
        <time>2020-06-07T10:39:22Z</time>
      </trkpt>
      <trkpt lat="47.2679" lon="-1.63607">
        <ele>30</ele>
        <time>2020-06-07T10:39:23Z</time>
      </trkpt>
      <trkpt lat="47.2679" lon="-1.63608">
        <ele>29.9</ele>
        <time>2020-06-07T10:39:24Z</time>
      </trkpt>
      <trkpt lat="47.26789" lon="-1.63608">
        <ele>29.9</ele>
        <time>2020-06-07T10:39:25Z</time>
      </trkpt>
      <trkpt lat="47.26788" lon="-1.63609">
        <ele>29.8</ele>
        <time>2020-06-07T10:39:26Z</time>
      </trkpt>
      <trkpt lat="47.26787" lon="-1.6361">
        <ele>29.8</ele>
        <time>2020-06-07T10:39:27Z</time>
      </trkpt>
      <trkpt lat="47.26786" lon="-1.6361">
        <ele>29.7</ele>
        <time>2020-06-07T10:39:28Z</time>
      </trkpt>
      <trkpt lat="47.26785" lon="-1.63611">
        <ele>29.7</ele>
        <time>2020-06-07T10:39:29Z</time>
      </trkpt>
      <trkpt lat="47.26784" lon="-1.63612">
        <ele>29.6</ele>
        <time>2020-06-07T10:39:30Z</time>
      </trkpt>
      <trkpt lat="47.26784" lon="-1.63613">
        <ele>29.5</ele>
        <time>2020-06-07T10:39:31Z</time>
      </trkpt>
      <trkpt lat="47.26783" lon="-1.63613">
        <ele>29.5</ele>
        <time>2020-06-07T10:39:32Z</time>
      </trkpt>
      <trkpt lat="47.26782" lon="-1.63614">
        <ele>29.5</ele>
        <time>2020-06-07T10:39:33Z</time>
      </trkpt>
      <trkpt lat="47.26781" lon="-1.63615">
        <ele>29.4</ele>
        <time>2020-06-07T10:39:34Z</time>
      </trkpt>
      <trkpt lat="47.2678" lon="-1.63616">
        <ele>29.4</ele>
        <time>2020-06-07T10:39:35Z</time>
      </trkpt>
      <trkpt lat="47.2678" lon="-1.63617">
        <ele>29.3</ele>
        <time>2020-06-07T10:39:36Z</time>
      </trkpt>
      <trkpt lat="47.26779" lon="-1.63618">
        <ele>29.3</ele>
        <time>2020-06-07T10:39:37Z</time>
      </trkpt>
      <trkpt lat="47.26778" lon="-1.63619">
        <ele>29.3</ele>
        <time>2020-06-07T10:39:38Z</time>
      </trkpt>
      <trkpt lat="47.26777" lon="-1.6362">
        <ele>29.2</ele>
        <time>2020-06-07T10:39:39Z</time>
      </trkpt>
      <trkpt lat="47.26777" lon="-1.63621">
        <ele>29.2</ele>
        <time>2020-06-07T10:39:40Z</time>
      </trkpt>
      <trkpt lat="47.26776" lon="-1.63622">
        <ele>29.2</ele>
        <time>2020-06-07T10:39:41Z</time>
      </trkpt>
      <trkpt lat="47.26775" lon="-1.63623">
        <ele>29.1</ele>
        <time>2020-06-07T10:39:42Z</time>
      </trkpt>
      <trkpt lat="47.26775" lon="-1.63624">
        <ele>29.1</ele>
        <time>2020-06-07T10:39:43Z</time>
      </trkpt>
      <trkpt lat="47.26774" lon="-1.63625">
        <ele>29.1</ele>
        <time>2020-06-07T10:39:44Z</time>
      </trkpt>
      <trkpt lat="47.26774" lon="-1.63626">
        <ele>29.1</ele>
        <time>2020-06-07T10:39:45Z</time>
      </trkpt>
      <trkpt lat="47.26773" lon="-1.63628">
        <ele>29.1</ele>
        <time>2020-06-07T10:39:46Z</time>
      </trkpt>
      <trkpt lat="47.26773" lon="-1.63629">
        <ele>29.1</ele>
        <time>2020-06-07T10:39:47Z</time>
      </trkpt>
      <trkpt lat="47.26772" lon="-1.6363">
        <ele>29.1</ele>
        <time>2020-06-07T10:39:48Z</time>
      </trkpt>
      <trkpt lat="47.26772" lon="-1.63631">
        <ele>29.1</ele>
        <time>2020-06-07T10:39:49Z</time>
      </trkpt>
      <trkpt lat="47.26772" lon="-1.63632">
        <ele>29.1</ele>
        <time>2020-06-07T10:39:50Z</time>
      </trkpt>
      <trkpt lat="47.26771" lon="-1.63633">
        <ele>29.1</ele>
        <time>2020-06-07T10:39:51Z</time>
      </trkpt>
      <trkpt lat="47.26771" lon="-1.63635">
        <ele>29.1</ele>
        <time>2020-06-07T10:39:52Z</time>
      </trkpt>
      <trkpt lat="47.26771" lon="-1.63636">
        <ele>29.2</ele>
        <time>2020-06-07T10:39:53Z</time>
      </trkpt>
      <trkpt lat="47.2677" lon="-1.63637">
        <ele>29.2</ele>
        <time>2020-06-07T10:39:54Z</time>
      </trkpt>
      <trkpt lat="47.2677" lon="-1.63638">
        <ele>29.2</ele>
        <time>2020-06-07T10:39:55Z</time>
      </trkpt>
      <trkpt lat="47.2677" lon="-1.63639">
        <ele>29.2</ele>
        <time>2020-06-07T10:39:56Z</time>
      </trkpt>
      <trkpt lat="47.2677" lon="-1.63641">
        <ele>29.3</ele>
        <time>2020-06-07T10:39:57Z</time>
      </trkpt>
      <trkpt lat="47.26769" lon="-1.63642">
        <ele>29.3</ele>
        <time>2020-06-07T10:39:58Z</time>
      </trkpt>
      <trkpt lat="47.26769" lon="-1.63643">
        <ele>29.3</ele>
        <time>2020-06-07T10:39:59Z</time>
      </trkpt>
      <trkpt lat="47.26769" lon="-1.63644">
        <ele>29.4</ele>
        <time>2020-06-07T10:40:00Z</time>
      </trkpt>
      <trkpt lat="47.26769" lon="-1.63646">
        <ele>29.4</ele>
        <time>2020-06-07T10:40:01Z</time>
      </trkpt>
      <trkpt lat="47.26769" lon="-1.63647">
        <ele>29.4</ele>
        <time>2020-06-07T10:40:02Z</time>
      </trkpt>
      <trkpt lat="47.26768" lon="-1.63648">
        <ele>29.4</ele>
        <time>2020-06-07T10:40:03Z</time>
      </trkpt>
      <trkpt lat="47.26768" lon="-1.63649">
        <ele>29.5</ele>
        <time>2020-06-07T10:40:04Z</time>
      </trkpt>
      <trkpt lat="47.26768" lon="-1.63651">
        <ele>29.5</ele>
        <time>2020-06-07T10:40:05Z</time>
      </trkpt>
      <trkpt lat="47.26768" lon="-1.63652">
        <ele>29.5</ele>
        <time>2020-06-07T10:40:06Z</time>
      </trkpt>
      <trkpt lat="47.26768" lon="-1.63653">
        <ele>29.6</ele>
        <time>2020-06-07T10:40:07Z</time>
      </trkpt>
      <trkpt lat="47.26767" lon="-1.63654">
        <ele>29.6</ele>
        <time>2020-06-07T10:40:08Z</time>
      </trkpt>
      <trkpt lat="47.26767" lon="-1.63655">
        <ele>29.6</ele>
        <time>2020-06-07T10:40:09Z</time>
      </trkpt>
      <trkpt lat="47.26767" lon="-1.63657">
        <ele>29.6</ele>
        <time>2020-06-07T10:40:10Z</time>
      </trkpt>
      <trkpt lat="47.26767" lon="-1.63658">
        <ele>29.6</ele>
        <time>2020-06-07T10:40:11Z</time>
      </trkpt>
      <trkpt lat="47.26766" lon="-1.63659">
        <ele>29.6</ele>
        <time>2020-06-07T10:40:12Z</time>
      </trkpt>
      <trkpt lat="47.26766" lon="-1.6366">
        <ele>29.7</ele>
        <time>2020-06-07T10:40:13Z</time>
      </trkpt>
      <trkpt lat="47.26766" lon="-1.63661">
        <ele>29.7</ele>
        <time>2020-06-07T10:40:14Z</time>
      </trkpt>
      <trkpt lat="47.26765" lon="-1.63662">
        <ele>29.7</ele>
        <time>2020-06-07T10:40:15Z</time>
      </trkpt>
      <trkpt lat="47.26765" lon="-1.63663">
        <ele>29.7</ele>
        <time>2020-06-07T10:40:16Z</time>
      </trkpt>
      <trkpt lat="47.26765" lon="-1.63665">
        <ele>29.7</ele>
        <time>2020-06-07T10:40:17Z</time>
      </trkpt>
      <trkpt lat="47.26764" lon="-1.63666">
        <ele>29.7</ele>
        <time>2020-06-07T10:40:18Z</time>
      </trkpt>
      <trkpt lat="47.26764" lon="-1.63667">
        <ele>29.7</ele>
        <time>2020-06-07T10:40:19Z</time>
      </trkpt>
      <trkpt lat="47.26764" lon="-1.63668">
        <ele>29.7</ele>
        <time>2020-06-07T10:40:20Z</time>
      </trkpt>
      <trkpt lat="47.26763" lon="-1.63669">
        <ele>29.7</ele>
        <time>2020-06-07T10:40:21Z</time>
      </trkpt>
      <trkpt lat="47.26763" lon="-1.6367">
        <ele>29.7</ele>
        <time>2020-06-07T10:40:22Z</time>
      </trkpt>
      <trkpt lat="47.26762" lon="-1.6367">
        <ele>29.7</ele>
        <time>2020-06-07T10:40:23Z</time>
      </trkpt>
      <trkpt lat="47.26762" lon="-1.63671">
        <ele>29.7</ele>
        <time>2020-06-07T10:40:24Z</time>
      </trkpt>
      <trkpt lat="47.26761" lon="-1.63672">
        <ele>29.7</ele>
        <time>2020-06-07T10:40:25Z</time>
      </trkpt>
      <trkpt lat="47.26761" lon="-1.63673">
        <ele>29.7</ele>
        <time>2020-06-07T10:40:26Z</time>
      </trkpt>
      <trkpt lat="47.2676" lon="-1.63674">
        <ele>29.7</ele>
        <time>2020-06-07T10:40:27Z</time>
      </trkpt>
      <trkpt lat="47.2676" lon="-1.63675">
        <ele>29.7</ele>
        <time>2020-06-07T10:40:28Z</time>
      </trkpt>
      <trkpt lat="47.26759" lon="-1.63676">
        <ele>29.7</ele>
        <time>2020-06-07T10:40:29Z</time>
      </trkpt>
      <trkpt lat="47.26759" lon="-1.63677">
        <ele>29.7</ele>
        <time>2020-06-07T10:40:30Z</time>
      </trkpt>
      <trkpt lat="47.26758" lon="-1.63678">
        <ele>29.6</ele>
        <time>2020-06-07T10:40:31Z</time>
      </trkpt>
      <trkpt lat="47.26758" lon="-1.63679">
        <ele>29.6</ele>
        <time>2020-06-07T10:40:32Z</time>
      </trkpt>
      <trkpt lat="47.26757" lon="-1.6368">
        <ele>29.6</ele>
        <time>2020-06-07T10:40:33Z</time>
      </trkpt>
      <trkpt lat="47.26757" lon="-1.63681">
        <ele>29.7</ele>
        <time>2020-06-07T10:40:34Z</time>
      </trkpt>
      <trkpt lat="47.26756" lon="-1.63683">
        <ele>29.7</ele>
        <time>2020-06-07T10:40:35Z</time>
      </trkpt>
      <trkpt lat="47.26755" lon="-1.63684">
        <ele>29.7</ele>
        <time>2020-06-07T10:40:36Z</time>
      </trkpt>
      <trkpt lat="47.26755" lon="-1.63685">
        <ele>29.7</ele>
        <time>2020-06-07T10:40:37Z</time>
      </trkpt>
      <trkpt lat="47.26754" lon="-1.63687">
        <ele>29.7</ele>
        <time>2020-06-07T10:40:38Z</time>
      </trkpt>
      <trkpt lat="47.26754" lon="-1.63688">
        <ele>29.7</ele>
        <time>2020-06-07T10:40:39Z</time>
      </trkpt>
      <trkpt lat="47.26753" lon="-1.6369">
        <ele>29.8</ele>
        <time>2020-06-07T10:40:40Z</time>
      </trkpt>
      <trkpt lat="47.26753" lon="-1.63691">
        <ele>29.8</ele>
        <time>2020-06-07T10:40:41Z</time>
      </trkpt>
      <trkpt lat="47.26752" lon="-1.63693">
        <ele>29.8</ele>
        <time>2020-06-07T10:40:42Z</time>
      </trkpt>
      <trkpt lat="47.26752" lon="-1.63694">
        <ele>29.9</ele>
        <time>2020-06-07T10:40:43Z</time>
      </trkpt>
      <trkpt lat="47.26752" lon="-1.63695">
        <ele>29.9</ele>
        <time>2020-06-07T10:40:44Z</time>
      </trkpt>
      <trkpt lat="47.26752" lon="-1.63695">
        <ele>29.9</ele>
        <time>2020-06-07T10:40:45Z</time>
      </trkpt>
      <trkpt lat="47.26752" lon="-1.63696">
        <ele>29.9</ele>
        <time>2020-06-07T10:40:46Z</time>
      </trkpt>
      <trkpt lat="47.26752" lon="-1.63696">
        <ele>29.9</ele>
        <time>2020-06-07T10:40:47Z</time>
      </trkpt>
      <trkpt lat="47.26751" lon="-1.63696">
        <ele>29.9</ele>
        <time>2020-06-07T10:40:48Z</time>
      </trkpt>
      <trkpt lat="47.26751" lon="-1.63696">
        <ele>29.9</ele>
        <time>2020-06-07T10:40:49Z</time>
      </trkpt>
      <trkpt lat="47.26751" lon="-1.63696">
        <ele>29.9</ele>
        <time>2020-06-07T10:40:50Z</time>
      </trkpt>
      <trkpt lat="47.26751" lon="-1.63696">
        <ele>29.9</ele>
        <time>2020-06-07T10:40:51Z</time>
      </trkpt>
      <trkpt lat="47.26751" lon="-1.63696">
        <ele>29.9</ele>
        <time>2020-06-07T10:40:52Z</time>
      </trkpt>
      <trkpt lat="47.26751" lon="-1.63696">
        <ele>29.9</ele>
        <time>2020-06-07T10:40:53Z</time>
      </trkpt>
      <trkpt lat="47.26751" lon="-1.63696">
        <ele>29.9</ele>
        <time>2020-06-07T10:40:54Z</time>
      </trkpt>
      <trkpt lat="47.26751" lon="-1.63696">
        <ele>29.9</ele>
        <time>2020-06-07T10:40:55Z</time>
      </trkpt>
      <trkpt lat="47.26751" lon="-1.63696">
        <ele>29.9</ele>
        <time>2020-06-07T10:40:56Z</time>
      </trkpt>
      <trkpt lat="47.26751" lon="-1.63696">
        <ele>29.9</ele>
        <time>2020-06-07T10:40:57Z</time>
      </trkpt>
      <trkpt lat="47.26751" lon="-1.63696">
        <ele>29.9</ele>
        <time>2020-06-07T10:40:58Z</time>
      </trkpt>
      <trkpt lat="47.26751" lon="-1.63697">
        <ele>29.9</ele>
        <time>2020-06-07T10:40:59Z</time>
      </trkpt>
      <trkpt lat="47.26751" lon="-1.63697">
        <ele>29.9</ele>
        <time>2020-06-07T10:41:00Z</time>
      </trkpt>
      <trkpt lat="47.26751" lon="-1.63697">
        <ele>29.9</ele>
        <time>2020-06-07T10:41:01Z</time>
      </trkpt>
      <trkpt lat="47.2675" lon="-1.63697">
        <ele>29.9</ele>
        <time>2020-06-07T10:41:02Z</time>
      </trkpt>
      <trkpt lat="47.2675" lon="-1.63698">
        <ele>29.9</ele>
        <time>2020-06-07T10:41:03Z</time>
      </trkpt>
      <trkpt lat="47.2675" lon="-1.63698">
        <ele>29.9</ele>
        <time>2020-06-07T10:41:04Z</time>
      </trkpt>
      <trkpt lat="47.2675" lon="-1.63699">
        <ele>29.9</ele>
        <time>2020-06-07T10:41:05Z</time>
      </trkpt>
      <trkpt lat="47.26749" lon="-1.63699">
        <ele>30</ele>
        <time>2020-06-07T10:41:06Z</time>
      </trkpt>
      <trkpt lat="47.26749" lon="-1.637">
        <ele>30</ele>
        <time>2020-06-07T10:41:07Z</time>
      </trkpt>
      <trkpt lat="47.26748" lon="-1.63701">
        <ele>30.1</ele>
        <time>2020-06-07T10:41:08Z</time>
      </trkpt>
      <trkpt lat="47.26748" lon="-1.63702">
        <ele>30.1</ele>
        <time>2020-06-07T10:41:09Z</time>
      </trkpt>
      <trkpt lat="47.26747" lon="-1.63703">
        <ele>30.2</ele>
        <time>2020-06-07T10:41:10Z</time>
      </trkpt>
      <trkpt lat="47.26747" lon="-1.63704">
        <ele>30.3</ele>
        <time>2020-06-07T10:41:11Z</time>
      </trkpt>
      <trkpt lat="47.26746" lon="-1.63705">
        <ele>30.3</ele>
        <time>2020-06-07T10:41:12Z</time>
      </trkpt>
      <trkpt lat="47.26746" lon="-1.63706">
        <ele>30.4</ele>
        <time>2020-06-07T10:41:13Z</time>
      </trkpt>
      <trkpt lat="47.26745" lon="-1.63707">
        <ele>30.5</ele>
        <time>2020-06-07T10:41:14Z</time>
      </trkpt>
      <trkpt lat="47.26745" lon="-1.63708">
        <ele>30.5</ele>
        <time>2020-06-07T10:41:15Z</time>
      </trkpt>
      <trkpt lat="47.26745" lon="-1.63709">
        <ele>30.6</ele>
        <time>2020-06-07T10:41:16Z</time>
      </trkpt>
      <trkpt lat="47.26744" lon="-1.6371">
        <ele>30.7</ele>
        <time>2020-06-07T10:41:17Z</time>
      </trkpt>
      <trkpt lat="47.26744" lon="-1.63711">
        <ele>30.8</ele>
        <time>2020-06-07T10:41:18Z</time>
      </trkpt>
      <trkpt lat="47.26744" lon="-1.63712">
        <ele>30.8</ele>
        <time>2020-06-07T10:41:19Z</time>
      </trkpt>
      <trkpt lat="47.26743" lon="-1.63713">
        <ele>30.9</ele>
        <time>2020-06-07T10:41:20Z</time>
      </trkpt>
      <trkpt lat="47.26743" lon="-1.63714">
        <ele>31</ele>
        <time>2020-06-07T10:41:21Z</time>
      </trkpt>
      <trkpt lat="47.26743" lon="-1.63715">
        <ele>31</ele>
        <time>2020-06-07T10:41:22Z</time>
      </trkpt>
      <trkpt lat="47.26742" lon="-1.63716">
        <ele>31.1</ele>
        <time>2020-06-07T10:41:23Z</time>
      </trkpt>
      <trkpt lat="47.26742" lon="-1.63717">
        <ele>31.2</ele>
        <time>2020-06-07T10:41:24Z</time>
      </trkpt>
      <trkpt lat="47.26742" lon="-1.63719">
        <ele>31.2</ele>
        <time>2020-06-07T10:41:25Z</time>
      </trkpt>
      <trkpt lat="47.26742" lon="-1.6372">
        <ele>31.3</ele>
        <time>2020-06-07T10:41:26Z</time>
      </trkpt>
      <trkpt lat="47.26741" lon="-1.63721">
        <ele>31.4</ele>
        <time>2020-06-07T10:41:27Z</time>
      </trkpt>
      <trkpt lat="47.26741" lon="-1.63722">
        <ele>31.4</ele>
        <time>2020-06-07T10:41:28Z</time>
      </trkpt>
      <trkpt lat="47.26741" lon="-1.63723">
        <ele>31.5</ele>
        <time>2020-06-07T10:41:29Z</time>
      </trkpt>
      <trkpt lat="47.26741" lon="-1.63724">
        <ele>31.6</ele>
        <time>2020-06-07T10:41:30Z</time>
      </trkpt>
      <trkpt lat="47.2674" lon="-1.63726">
        <ele>31.6</ele>
        <time>2020-06-07T10:41:31Z</time>
      </trkpt>
      <trkpt lat="47.2674" lon="-1.63727">
        <ele>31.7</ele>
        <time>2020-06-07T10:41:32Z</time>
      </trkpt>
      <trkpt lat="47.2674" lon="-1.63728">
        <ele>31.8</ele>
        <time>2020-06-07T10:41:33Z</time>
      </trkpt>
      <trkpt lat="47.26739" lon="-1.63729">
        <ele>31.8</ele>
        <time>2020-06-07T10:41:34Z</time>
      </trkpt>
      <trkpt lat="47.26739" lon="-1.6373">
        <ele>31.9</ele>
        <time>2020-06-07T10:41:35Z</time>
      </trkpt>
      <trkpt lat="47.26739" lon="-1.63731">
        <ele>32</ele>
        <time>2020-06-07T10:41:36Z</time>
      </trkpt>
      <trkpt lat="47.26739" lon="-1.63733">
        <ele>32</ele>
        <time>2020-06-07T10:41:37Z</time>
      </trkpt>
      <trkpt lat="47.26738" lon="-1.63734">
        <ele>32.1</ele>
        <time>2020-06-07T10:41:38Z</time>
      </trkpt>
      <trkpt lat="47.26738" lon="-1.63735">
        <ele>32.2</ele>
        <time>2020-06-07T10:41:39Z</time>
      </trkpt>
      <trkpt lat="47.26738" lon="-1.63736">
        <ele>32.2</ele>
        <time>2020-06-07T10:41:40Z</time>
      </trkpt>
      <trkpt lat="47.26737" lon="-1.63737">
        <ele>32.3</ele>
        <time>2020-06-07T10:41:41Z</time>
      </trkpt>
      <trkpt lat="47.26737" lon="-1.63738">
        <ele>32.4</ele>
        <time>2020-06-07T10:41:42Z</time>
      </trkpt>
      <trkpt lat="47.26737" lon="-1.6374">
        <ele>32.4</ele>
        <time>2020-06-07T10:41:43Z</time>
      </trkpt>
      <trkpt lat="47.26737" lon="-1.63741">
        <ele>32.5</ele>
        <time>2020-06-07T10:41:44Z</time>
      </trkpt>
      <trkpt lat="47.26736" lon="-1.63742">
        <ele>32.6</ele>
        <time>2020-06-07T10:41:45Z</time>
      </trkpt>
      <trkpt lat="47.26736" lon="-1.63743">
        <ele>32.6</ele>
        <time>2020-06-07T10:41:46Z</time>
      </trkpt>
      <trkpt lat="47.26736" lon="-1.63744">
        <ele>32.7</ele>
        <time>2020-06-07T10:41:47Z</time>
      </trkpt>
      <trkpt lat="47.26736" lon="-1.63745">
        <ele>32.7</ele>
        <time>2020-06-07T10:41:48Z</time>
      </trkpt>
      <trkpt lat="47.26736" lon="-1.63746">
        <ele>32.8</ele>
        <time>2020-06-07T10:41:49Z</time>
      </trkpt>
      <trkpt lat="47.26736" lon="-1.63747">
        <ele>32.8</ele>
        <time>2020-06-07T10:41:50Z</time>
      </trkpt>
      <trkpt lat="47.26736" lon="-1.63748">
        <ele>32.9</ele>
        <time>2020-06-07T10:41:51Z</time>
      </trkpt>
      <trkpt lat="47.26736" lon="-1.63749">
        <ele>33</ele>
        <time>2020-06-07T10:41:52Z</time>
      </trkpt>
      <trkpt lat="47.26736" lon="-1.6375">
        <ele>33</ele>
        <time>2020-06-07T10:41:53Z</time>
      </trkpt>
      <trkpt lat="47.26736" lon="-1.63751">
        <ele>33.1</ele>
        <time>2020-06-07T10:41:54Z</time>
      </trkpt>
      <trkpt lat="47.26736" lon="-1.63753">
        <ele>33.1</ele>
        <time>2020-06-07T10:41:55Z</time>
      </trkpt>
      <trkpt lat="47.26736" lon="-1.63754">
        <ele>33.1</ele>
        <time>2020-06-07T10:41:56Z</time>
      </trkpt>
      <trkpt lat="47.26736" lon="-1.63755">
        <ele>33.2</ele>
        <time>2020-06-07T10:41:57Z</time>
      </trkpt>
      <trkpt lat="47.26736" lon="-1.63756">
        <ele>33.2</ele>
        <time>2020-06-07T10:41:58Z</time>
      </trkpt>
      <trkpt lat="47.26736" lon="-1.63757">
        <ele>33.2</ele>
        <time>2020-06-07T10:41:59Z</time>
      </trkpt>
      <trkpt lat="47.26736" lon="-1.63758">
        <ele>33.3</ele>
        <time>2020-06-07T10:42:00Z</time>
      </trkpt>
      <trkpt lat="47.26736" lon="-1.63759">
        <ele>33.3</ele>
        <time>2020-06-07T10:42:01Z</time>
      </trkpt>
      <trkpt lat="47.26736" lon="-1.6376">
        <ele>33.4</ele>
        <time>2020-06-07T10:42:02Z</time>
      </trkpt>
      <trkpt lat="47.26736" lon="-1.63761">
        <ele>33.4</ele>
        <time>2020-06-07T10:42:03Z</time>
      </trkpt>
      <trkpt lat="47.26736" lon="-1.63762">
        <ele>33.4</ele>
        <time>2020-06-07T10:42:04Z</time>
      </trkpt>
      <trkpt lat="47.26736" lon="-1.63764">
        <ele>33.5</ele>
        <time>2020-06-07T10:42:05Z</time>
      </trkpt>
      <trkpt lat="47.26736" lon="-1.63765">
        <ele>33.5</ele>
        <time>2020-06-07T10:42:06Z</time>
      </trkpt>
      <trkpt lat="47.26735" lon="-1.63766">
        <ele>33.6</ele>
        <time>2020-06-07T10:42:07Z</time>
      </trkpt>
      <trkpt lat="47.26735" lon="-1.63767">
        <ele>33.6</ele>
        <time>2020-06-07T10:42:08Z</time>
      </trkpt>
      <trkpt lat="47.26735" lon="-1.63768">
        <ele>33.7</ele>
        <time>2020-06-07T10:42:09Z</time>
      </trkpt>
      <trkpt lat="47.26735" lon="-1.6377">
        <ele>33.7</ele>
        <time>2020-06-07T10:42:10Z</time>
      </trkpt>
      <trkpt lat="47.26735" lon="-1.63771">
        <ele>33.8</ele>
        <time>2020-06-07T10:42:11Z</time>
      </trkpt>
      <trkpt lat="47.26735" lon="-1.63772">
        <ele>33.8</ele>
        <time>2020-06-07T10:42:12Z</time>
      </trkpt>
      <trkpt lat="47.26735" lon="-1.63774">
        <ele>33.8</ele>
        <time>2020-06-07T10:42:13Z</time>
      </trkpt>
      <trkpt lat="47.26735" lon="-1.63775">
        <ele>33.9</ele>
        <time>2020-06-07T10:42:14Z</time>
      </trkpt>
      <trkpt lat="47.26734" lon="-1.63776">
        <ele>33.9</ele>
        <time>2020-06-07T10:42:15Z</time>
      </trkpt>
      <trkpt lat="47.26734" lon="-1.63777">
        <ele>34</ele>
        <time>2020-06-07T10:42:16Z</time>
      </trkpt>
      <trkpt lat="47.26734" lon="-1.63779">
        <ele>34</ele>
        <time>2020-06-07T10:42:17Z</time>
      </trkpt>
      <trkpt lat="47.26734" lon="-1.6378">
        <ele>34.1</ele>
        <time>2020-06-07T10:42:18Z</time>
      </trkpt>
      <trkpt lat="47.26734" lon="-1.63781">
        <ele>34.1</ele>
        <time>2020-06-07T10:42:19Z</time>
      </trkpt>
      <trkpt lat="47.26733" lon="-1.63783">
        <ele>34.2</ele>
        <time>2020-06-07T10:42:20Z</time>
      </trkpt>
      <trkpt lat="47.26733" lon="-1.63784">
        <ele>34.2</ele>
        <time>2020-06-07T10:42:21Z</time>
      </trkpt>
      <trkpt lat="47.26733" lon="-1.63785">
        <ele>34.3</ele>
        <time>2020-06-07T10:42:22Z</time>
      </trkpt>
      <trkpt lat="47.26733" lon="-1.63786">
        <ele>34.3</ele>
        <time>2020-06-07T10:42:23Z</time>
      </trkpt>
      <trkpt lat="47.26733" lon="-1.63788">
        <ele>34.4</ele>
        <time>2020-06-07T10:42:24Z</time>
      </trkpt>
      <trkpt lat="47.26732" lon="-1.63789">
        <ele>34.4</ele>
        <time>2020-06-07T10:42:25Z</time>
      </trkpt>
      <trkpt lat="47.26732" lon="-1.6379">
        <ele>34.5</ele>
        <time>2020-06-07T10:42:26Z</time>
      </trkpt>
      <trkpt lat="47.26732" lon="-1.63792">
        <ele>34.5</ele>
        <time>2020-06-07T10:42:27Z</time>
      </trkpt>
      <trkpt lat="47.26732" lon="-1.63793">
        <ele>34.5</ele>
        <time>2020-06-07T10:42:28Z</time>
      </trkpt>
      <trkpt lat="47.26732" lon="-1.63794">
        <ele>34.6</ele>
        <time>2020-06-07T10:42:29Z</time>
      </trkpt>
      <trkpt lat="47.26731" lon="-1.63796">
        <ele>34.6</ele>
        <time>2020-06-07T10:42:30Z</time>
      </trkpt>
      <trkpt lat="47.26731" lon="-1.63797">
        <ele>34.7</ele>
        <time>2020-06-07T10:42:31Z</time>
      </trkpt>
      <trkpt lat="47.26731" lon="-1.63798">
        <ele>34.7</ele>
        <time>2020-06-07T10:42:32Z</time>
      </trkpt>
      <trkpt lat="47.26731" lon="-1.638">
        <ele>34.8</ele>
        <time>2020-06-07T10:42:33Z</time>
      </trkpt>
      <trkpt lat="47.26731" lon="-1.63801">
        <ele>34.8</ele>
        <time>2020-06-07T10:42:34Z</time>
      </trkpt>
      <trkpt lat="47.26731" lon="-1.63802">
        <ele>34.9</ele>
        <time>2020-06-07T10:42:35Z</time>
      </trkpt>
      <trkpt lat="47.26731" lon="-1.63804">
        <ele>34.9</ele>
        <time>2020-06-07T10:42:36Z</time>
      </trkpt>
      <trkpt lat="47.26731" lon="-1.63805">
        <ele>35</ele>
        <time>2020-06-07T10:42:37Z</time>
      </trkpt>
      <trkpt lat="47.26731" lon="-1.63806">
        <ele>35</ele>
        <time>2020-06-07T10:42:38Z</time>
      </trkpt>
      <trkpt lat="47.26731" lon="-1.63808">
        <ele>35.1</ele>
        <time>2020-06-07T10:42:39Z</time>
      </trkpt>
      <trkpt lat="47.26731" lon="-1.63809">
        <ele>35.1</ele>
        <time>2020-06-07T10:42:40Z</time>
      </trkpt>
      <trkpt lat="47.26731" lon="-1.6381">
        <ele>35.2</ele>
        <time>2020-06-07T10:42:41Z</time>
      </trkpt>
      <trkpt lat="47.26731" lon="-1.63812">
        <ele>35.2</ele>
        <time>2020-06-07T10:42:42Z</time>
      </trkpt>
      <trkpt lat="47.26731" lon="-1.63813">
        <ele>35.3</ele>
        <time>2020-06-07T10:42:43Z</time>
      </trkpt>
      <trkpt lat="47.26731" lon="-1.63815">
        <ele>35.3</ele>
        <time>2020-06-07T10:42:44Z</time>
      </trkpt>
      <trkpt lat="47.26731" lon="-1.63816">
        <ele>35.4</ele>
        <time>2020-06-07T10:42:45Z</time>
      </trkpt>
      <trkpt lat="47.26731" lon="-1.63818">
        <ele>35.4</ele>
        <time>2020-06-07T10:42:46Z</time>
      </trkpt>
      <trkpt lat="47.26731" lon="-1.63819">
        <ele>35.5</ele>
        <time>2020-06-07T10:42:47Z</time>
      </trkpt>
      <trkpt lat="47.26731" lon="-1.6382">
        <ele>35.5</ele>
        <time>2020-06-07T10:42:48Z</time>
      </trkpt>
      <trkpt lat="47.26731" lon="-1.63822">
        <ele>35.6</ele>
        <time>2020-06-07T10:42:49Z</time>
      </trkpt>
      <trkpt lat="47.26731" lon="-1.63823">
        <ele>35.6</ele>
        <time>2020-06-07T10:42:50Z</time>
      </trkpt>
      <trkpt lat="47.26731" lon="-1.63825">
        <ele>35.7</ele>
        <time>2020-06-07T10:42:51Z</time>
      </trkpt>
      <trkpt lat="47.26732" lon="-1.63826">
        <ele>35.7</ele>
        <time>2020-06-07T10:42:52Z</time>
      </trkpt>
      <trkpt lat="47.26732" lon="-1.63828">
        <ele>35.8</ele>
        <time>2020-06-07T10:42:53Z</time>
      </trkpt>
      <trkpt lat="47.26732" lon="-1.63829">
        <ele>35.8</ele>
        <time>2020-06-07T10:42:54Z</time>
      </trkpt>
      <trkpt lat="47.26732" lon="-1.6383">
        <ele>35.9</ele>
        <time>2020-06-07T10:42:55Z</time>
      </trkpt>
      <trkpt lat="47.26732" lon="-1.63832">
        <ele>35.9</ele>
        <time>2020-06-07T10:42:56Z</time>
      </trkpt>
      <trkpt lat="47.26731" lon="-1.63833">
        <ele>36</ele>
        <time>2020-06-07T10:42:57Z</time>
      </trkpt>
      <trkpt lat="47.26731" lon="-1.63835">
        <ele>36</ele>
        <time>2020-06-07T10:42:58Z</time>
      </trkpt>
      <trkpt lat="47.26731" lon="-1.63836">
        <ele>36</ele>
        <time>2020-06-07T10:42:59Z</time>
      </trkpt>
      <trkpt lat="47.26731" lon="-1.63838">
        <ele>35.9</ele>
        <time>2020-06-07T10:43:00Z</time>
      </trkpt>
      <trkpt lat="47.2673" lon="-1.63839">
        <ele>35.9</ele>
        <time>2020-06-07T10:43:01Z</time>
      </trkpt>
      <trkpt lat="47.2673" lon="-1.63841">
        <ele>35.9</ele>
        <time>2020-06-07T10:43:02Z</time>
      </trkpt>
      <trkpt lat="47.26729" lon="-1.63842">
        <ele>35.9</ele>
        <time>2020-06-07T10:43:03Z</time>
      </trkpt>
      <trkpt lat="47.26729" lon="-1.63844">
        <ele>35.9</ele>
        <time>2020-06-07T10:43:04Z</time>
      </trkpt>
      <trkpt lat="47.26728" lon="-1.63845">
        <ele>35.9</ele>
        <time>2020-06-07T10:43:05Z</time>
      </trkpt>
      <trkpt lat="47.26728" lon="-1.63847">
        <ele>35.8</ele>
        <time>2020-06-07T10:43:06Z</time>
      </trkpt>
      <trkpt lat="47.26727" lon="-1.63848">
        <ele>35.8</ele>
        <time>2020-06-07T10:43:07Z</time>
      </trkpt>
      <trkpt lat="47.26727" lon="-1.6385">
        <ele>35.8</ele>
        <time>2020-06-07T10:43:08Z</time>
      </trkpt>
      <trkpt lat="47.26726" lon="-1.63851">
        <ele>35.8</ele>
        <time>2020-06-07T10:43:09Z</time>
      </trkpt>
      <trkpt lat="47.26726" lon="-1.63852">
        <ele>35.8</ele>
        <time>2020-06-07T10:43:10Z</time>
      </trkpt>
      <trkpt lat="47.26725" lon="-1.63854">
        <ele>35.8</ele>
        <time>2020-06-07T10:43:11Z</time>
      </trkpt>
      <trkpt lat="47.26725" lon="-1.63855">
        <ele>35.8</ele>
        <time>2020-06-07T10:43:12Z</time>
      </trkpt>
      <trkpt lat="47.26724" lon="-1.63856">
        <ele>35.8</ele>
        <time>2020-06-07T10:43:13Z</time>
      </trkpt>
      <trkpt lat="47.26724" lon="-1.63857">
        <ele>35.8</ele>
        <time>2020-06-07T10:43:14Z</time>
      </trkpt>
      <trkpt lat="47.26723" lon="-1.63858">
        <ele>35.8</ele>
        <time>2020-06-07T10:43:15Z</time>
      </trkpt>
      <trkpt lat="47.26723" lon="-1.63859">
        <ele>35.8</ele>
        <time>2020-06-07T10:43:16Z</time>
      </trkpt>
      <trkpt lat="47.26722" lon="-1.63861">
        <ele>35.8</ele>
        <time>2020-06-07T10:43:17Z</time>
      </trkpt>
      <trkpt lat="47.26722" lon="-1.63862">
        <ele>35.8</ele>
        <time>2020-06-07T10:43:18Z</time>
      </trkpt>
      <trkpt lat="47.26722" lon="-1.63863">
        <ele>35.8</ele>
        <time>2020-06-07T10:43:19Z</time>
      </trkpt>
      <trkpt lat="47.26721" lon="-1.63864">
        <ele>35.8</ele>
        <time>2020-06-07T10:43:20Z</time>
      </trkpt>
      <trkpt lat="47.26721" lon="-1.63865">
        <ele>35.8</ele>
        <time>2020-06-07T10:43:21Z</time>
      </trkpt>
      <trkpt lat="47.26721" lon="-1.63866">
        <ele>35.8</ele>
        <time>2020-06-07T10:43:22Z</time>
      </trkpt>
      <trkpt lat="47.2672" lon="-1.63867">
        <ele>35.8</ele>
        <time>2020-06-07T10:43:23Z</time>
      </trkpt>
      <trkpt lat="47.2672" lon="-1.63868">
        <ele>35.8</ele>
        <time>2020-06-07T10:43:24Z</time>
      </trkpt>
      <trkpt lat="47.2672" lon="-1.63869">
        <ele>35.8</ele>
        <time>2020-06-07T10:43:25Z</time>
      </trkpt>
      <trkpt lat="47.2672" lon="-1.63871">
        <ele>35.8</ele>
        <time>2020-06-07T10:43:26Z</time>
      </trkpt>
      <trkpt lat="47.26719" lon="-1.63872">
        <ele>35.8</ele>
        <time>2020-06-07T10:43:27Z</time>
      </trkpt>
      <trkpt lat="47.26719" lon="-1.63873">
        <ele>35.8</ele>
        <time>2020-06-07T10:43:28Z</time>
      </trkpt>
      <trkpt lat="47.26719" lon="-1.63875">
        <ele>35.8</ele>
        <time>2020-06-07T10:43:29Z</time>
      </trkpt>
      <trkpt lat="47.26719" lon="-1.63876">
        <ele>35.7</ele>
        <time>2020-06-07T10:43:30Z</time>
      </trkpt>
      <trkpt lat="47.26719" lon="-1.63878">
        <ele>35.7</ele>
        <time>2020-06-07T10:43:31Z</time>
      </trkpt>
      <trkpt lat="47.26718" lon="-1.63879">
        <ele>35.7</ele>
        <time>2020-06-07T10:43:32Z</time>
      </trkpt>
      <trkpt lat="47.26718" lon="-1.6388">
        <ele>35.7</ele>
        <time>2020-06-07T10:43:33Z</time>
      </trkpt>
      <trkpt lat="47.26718" lon="-1.63882">
        <ele>35.7</ele>
        <time>2020-06-07T10:43:34Z</time>
      </trkpt>
      <trkpt lat="47.26718" lon="-1.63883">
        <ele>35.7</ele>
        <time>2020-06-07T10:43:35Z</time>
      </trkpt>
      <trkpt lat="47.26718" lon="-1.63884">
        <ele>35.7</ele>
        <time>2020-06-07T10:43:36Z</time>
      </trkpt>
      <trkpt lat="47.26718" lon="-1.63885">
        <ele>35.7</ele>
        <time>2020-06-07T10:43:37Z</time>
      </trkpt>
      <trkpt lat="47.26718" lon="-1.63887">
        <ele>35.7</ele>
        <time>2020-06-07T10:43:38Z</time>
      </trkpt>
      <trkpt lat="47.26718" lon="-1.63888">
        <ele>35.7</ele>
        <time>2020-06-07T10:43:39Z</time>
      </trkpt>
      <trkpt lat="47.26718" lon="-1.63889">
        <ele>35.7</ele>
        <time>2020-06-07T10:43:40Z</time>
      </trkpt>
      <trkpt lat="47.26718" lon="-1.6389">
        <ele>35.7</ele>
        <time>2020-06-07T10:43:41Z</time>
      </trkpt>
      <trkpt lat="47.26718" lon="-1.63891">
        <ele>35.7</ele>
        <time>2020-06-07T10:43:42Z</time>
      </trkpt>
      <trkpt lat="47.26718" lon="-1.63892">
        <ele>35.7</ele>
        <time>2020-06-07T10:43:43Z</time>
      </trkpt>
      <trkpt lat="47.26718" lon="-1.63893">
        <ele>35.7</ele>
        <time>2020-06-07T10:43:44Z</time>
      </trkpt>
      <trkpt lat="47.26718" lon="-1.63894">
        <ele>35.7</ele>
        <time>2020-06-07T10:43:45Z</time>
      </trkpt>
      <trkpt lat="47.26717" lon="-1.63895">
        <ele>35.7</ele>
        <time>2020-06-07T10:43:46Z</time>
      </trkpt>
      <trkpt lat="47.26717" lon="-1.63897">
        <ele>35.7</ele>
        <time>2020-06-07T10:43:47Z</time>
      </trkpt>
      <trkpt lat="47.26717" lon="-1.63898">
        <ele>35.7</ele>
        <time>2020-06-07T10:43:48Z</time>
      </trkpt>
      <trkpt lat="47.26717" lon="-1.63899">
        <ele>35.7</ele>
        <time>2020-06-07T10:43:49Z</time>
      </trkpt>
      <trkpt lat="47.26716" lon="-1.639">
        <ele>35.7</ele>
        <time>2020-06-07T10:43:50Z</time>
      </trkpt>
      <trkpt lat="47.26716" lon="-1.639">
        <ele>35.7</ele>
        <time>2020-06-07T10:43:51Z</time>
      </trkpt>
      <trkpt lat="47.26716" lon="-1.63901">
        <ele>35.7</ele>
        <time>2020-06-07T10:43:52Z</time>
      </trkpt>
      <trkpt lat="47.26716" lon="-1.63901">
        <ele>35.7</ele>
        <time>2020-06-07T10:43:53Z</time>
      </trkpt>
      <trkpt lat="47.26716" lon="-1.63901">
        <ele>35.7</ele>
        <time>2020-06-07T10:43:54Z</time>
      </trkpt>
      <trkpt lat="47.26716" lon="-1.63901">
        <ele>35.7</ele>
        <time>2020-06-07T10:43:55Z</time>
      </trkpt>
      <trkpt lat="47.26716" lon="-1.63901">
        <ele>35.7</ele>
        <time>2020-06-07T10:43:56Z</time>
      </trkpt>
      <trkpt lat="47.26716" lon="-1.63901">
        <ele>35.7</ele>
        <time>2020-06-07T10:43:57Z</time>
      </trkpt>
      <trkpt lat="47.26716" lon="-1.63901">
        <ele>35.7</ele>
        <time>2020-06-07T10:43:58Z</time>
      </trkpt>
      <trkpt lat="47.26716" lon="-1.63901">
        <ele>35.7</ele>
        <time>2020-06-07T10:43:59Z</time>
      </trkpt>
      <trkpt lat="47.26716" lon="-1.63901">
        <ele>35.7</ele>
        <time>2020-06-07T10:44:00Z</time>
      </trkpt>
      <trkpt lat="47.26716" lon="-1.63902">
        <ele>35.7</ele>
        <time>2020-06-07T10:44:01Z</time>
      </trkpt>
      <trkpt lat="47.26716" lon="-1.63902">
        <ele>35.7</ele>
        <time>2020-06-07T10:44:02Z</time>
      </trkpt>
      <trkpt lat="47.26716" lon="-1.63903">
        <ele>35.7</ele>
        <time>2020-06-07T10:44:03Z</time>
      </trkpt>
      <trkpt lat="47.26715" lon="-1.63903">
        <ele>35.7</ele>
        <time>2020-06-07T10:44:04Z</time>
      </trkpt>
      <trkpt lat="47.26715" lon="-1.63904">
        <ele>35.7</ele>
        <time>2020-06-07T10:44:05Z</time>
      </trkpt>
      <trkpt lat="47.26715" lon="-1.63905">
        <ele>35.7</ele>
        <time>2020-06-07T10:44:06Z</time>
      </trkpt>
      <trkpt lat="47.26715" lon="-1.63906">
        <ele>35.7</ele>
        <time>2020-06-07T10:44:07Z</time>
      </trkpt>
      <trkpt lat="47.26715" lon="-1.63907">
        <ele>35.7</ele>
        <time>2020-06-07T10:44:08Z</time>
      </trkpt>
      <trkpt lat="47.26714" lon="-1.63908">
        <ele>35.7</ele>
        <time>2020-06-07T10:44:09Z</time>
      </trkpt>
      <trkpt lat="47.26714" lon="-1.63909">
        <ele>35.7</ele>
        <time>2020-06-07T10:44:10Z</time>
      </trkpt>
      <trkpt lat="47.26714" lon="-1.6391">
        <ele>35.8</ele>
        <time>2020-06-07T10:44:11Z</time>
      </trkpt>
      <trkpt lat="47.26714" lon="-1.63911">
        <ele>35.8</ele>
        <time>2020-06-07T10:44:12Z</time>
      </trkpt>
      <trkpt lat="47.26714" lon="-1.63912">
        <ele>35.8</ele>
        <time>2020-06-07T10:44:13Z</time>
      </trkpt>
      <trkpt lat="47.26714" lon="-1.63913">
        <ele>35.8</ele>
        <time>2020-06-07T10:44:14Z</time>
      </trkpt>
      <trkpt lat="47.26714" lon="-1.63913">
        <ele>35.8</ele>
        <time>2020-06-07T10:44:15Z</time>
      </trkpt>
      <trkpt lat="47.26714" lon="-1.63914">
        <ele>35.8</ele>
        <time>2020-06-07T10:44:16Z</time>
      </trkpt>
      <trkpt lat="47.26714" lon="-1.63915">
        <ele>35.8</ele>
        <time>2020-06-07T10:44:17Z</time>
      </trkpt>
      <trkpt lat="47.26714" lon="-1.63915">
        <ele>35.8</ele>
        <time>2020-06-07T10:44:18Z</time>
      </trkpt>
      <trkpt lat="47.26714" lon="-1.63915">
        <ele>35.8</ele>
        <time>2020-06-07T10:44:19Z</time>
      </trkpt>
      <trkpt lat="47.26714" lon="-1.63916">
        <ele>35.7</ele>
        <time>2020-06-07T10:44:20Z</time>
      </trkpt>
      <trkpt lat="47.26714" lon="-1.63916">
        <ele>35.7</ele>
        <time>2020-06-07T10:44:21Z</time>
      </trkpt>
      <trkpt lat="47.26714" lon="-1.63915">
        <ele>35.7</ele>
        <time>2020-06-07T10:44:22Z</time>
      </trkpt>
      <trkpt lat="47.26714" lon="-1.63915">
        <ele>35.7</ele>
        <time>2020-06-07T10:44:23Z</time>
      </trkpt>
      <trkpt lat="47.26714" lon="-1.63914">
        <ele>35.7</ele>
        <time>2020-06-07T10:44:24Z</time>
      </trkpt>
      <trkpt lat="47.26715" lon="-1.63913">
        <ele>35.7</ele>
        <time>2020-06-07T10:44:25Z</time>
      </trkpt>
      <trkpt lat="47.26715" lon="-1.63912">
        <ele>35.7</ele>
        <time>2020-06-07T10:44:26Z</time>
      </trkpt>
      <trkpt lat="47.26715" lon="-1.63911">
        <ele>35.7</ele>
        <time>2020-06-07T10:44:27Z</time>
      </trkpt>
      <trkpt lat="47.26716" lon="-1.6391">
        <ele>35.7</ele>
        <time>2020-06-07T10:44:28Z</time>
      </trkpt>
      <trkpt lat="47.26716" lon="-1.63908">
        <ele>35.7</ele>
        <time>2020-06-07T10:44:29Z</time>
      </trkpt>
      <trkpt lat="47.26716" lon="-1.63907">
        <ele>35.7</ele>
        <time>2020-06-07T10:44:30Z</time>
      </trkpt>
      <trkpt lat="47.26716" lon="-1.63906">
        <ele>35.7</ele>
        <time>2020-06-07T10:44:31Z</time>
      </trkpt>
      <trkpt lat="47.26717" lon="-1.63905">
        <ele>35.7</ele>
        <time>2020-06-07T10:44:32Z</time>
      </trkpt>
      <trkpt lat="47.26717" lon="-1.63904">
        <ele>35.6</ele>
        <time>2020-06-07T10:44:33Z</time>
      </trkpt>
      <trkpt lat="47.26718" lon="-1.63903">
        <ele>35.6</ele>
        <time>2020-06-07T10:44:34Z</time>
      </trkpt>
      <trkpt lat="47.26718" lon="-1.63902">
        <ele>35.6</ele>
        <time>2020-06-07T10:44:35Z</time>
      </trkpt>
      <trkpt lat="47.26718" lon="-1.63902">
        <ele>35.6</ele>
        <time>2020-06-07T10:44:36Z</time>
      </trkpt>
      <trkpt lat="47.26719" lon="-1.63902">
        <ele>35.6</ele>
        <time>2020-06-07T10:44:37Z</time>
      </trkpt>
      <trkpt lat="47.26719" lon="-1.63902">
        <ele>35.6</ele>
        <time>2020-06-07T10:44:38Z</time>
      </trkpt>
      <trkpt lat="47.2672" lon="-1.63903">
        <ele>35.5</ele>
        <time>2020-06-07T10:44:39Z</time>
      </trkpt>
      <trkpt lat="47.2672" lon="-1.63903">
        <ele>35.5</ele>
        <time>2020-06-07T10:44:40Z</time>
      </trkpt>
      <trkpt lat="47.26721" lon="-1.63904">
        <ele>35.5</ele>
        <time>2020-06-07T10:44:41Z</time>
      </trkpt>
      <trkpt lat="47.26721" lon="-1.63905">
        <ele>35.5</ele>
        <time>2020-06-07T10:44:42Z</time>
      </trkpt>
      <trkpt lat="47.26722" lon="-1.63906">
        <ele>35.4</ele>
        <time>2020-06-07T10:44:43Z</time>
      </trkpt>
      <trkpt lat="47.26723" lon="-1.63907">
        <ele>35.4</ele>
        <time>2020-06-07T10:44:44Z</time>
      </trkpt>
      <trkpt lat="47.26723" lon="-1.63907">
        <ele>35.4</ele>
        <time>2020-06-07T10:44:45Z</time>
      </trkpt>
      <trkpt lat="47.26724" lon="-1.63908">
        <ele>35.3</ele>
        <time>2020-06-07T10:44:46Z</time>
      </trkpt>
      <trkpt lat="47.26724" lon="-1.63909">
        <ele>35.3</ele>
        <time>2020-06-07T10:44:47Z</time>
      </trkpt>
      <trkpt lat="47.26725" lon="-1.6391">
        <ele>35.3</ele>
        <time>2020-06-07T10:44:48Z</time>
      </trkpt>
      <trkpt lat="47.26725" lon="-1.63911">
        <ele>35.2</ele>
        <time>2020-06-07T10:44:49Z</time>
      </trkpt>
      <trkpt lat="47.26726" lon="-1.63912">
        <ele>35.2</ele>
        <time>2020-06-07T10:44:50Z</time>
      </trkpt>
      <trkpt lat="47.26726" lon="-1.63913">
        <ele>35.2</ele>
        <time>2020-06-07T10:44:51Z</time>
      </trkpt>
      <trkpt lat="47.26727" lon="-1.63914">
        <ele>35.1</ele>
        <time>2020-06-07T10:44:52Z</time>
      </trkpt>
      <trkpt lat="47.26727" lon="-1.63915">
        <ele>35.1</ele>
        <time>2020-06-07T10:44:53Z</time>
      </trkpt>
      <trkpt lat="47.26728" lon="-1.63916">
        <ele>35.1</ele>
        <time>2020-06-07T10:44:54Z</time>
      </trkpt>
      <trkpt lat="47.26728" lon="-1.63917">
        <ele>35</ele>
        <time>2020-06-07T10:44:55Z</time>
      </trkpt>
      <trkpt lat="47.26728" lon="-1.63918">
        <ele>35</ele>
        <time>2020-06-07T10:44:56Z</time>
      </trkpt>
      <trkpt lat="47.26729" lon="-1.63919">
        <ele>35</ele>
        <time>2020-06-07T10:44:57Z</time>
      </trkpt>
      <trkpt lat="47.26729" lon="-1.6392">
        <ele>34.9</ele>
        <time>2020-06-07T10:44:58Z</time>
      </trkpt>
      <trkpt lat="47.2673" lon="-1.63921">
        <ele>34.9</ele>
        <time>2020-06-07T10:44:59Z</time>
      </trkpt>
      <trkpt lat="47.2673" lon="-1.63922">
        <ele>34.8</ele>
        <time>2020-06-07T10:45:00Z</time>
      </trkpt>
      <trkpt lat="47.2673" lon="-1.63923">
        <ele>34.8</ele>
        <time>2020-06-07T10:45:01Z</time>
      </trkpt>
      <trkpt lat="47.2673" lon="-1.63923">
        <ele>34.8</ele>
        <time>2020-06-07T10:45:02Z</time>
      </trkpt>
      <trkpt lat="47.26731" lon="-1.63924">
        <ele>34.7</ele>
        <time>2020-06-07T10:45:03Z</time>
      </trkpt>
      <trkpt lat="47.26731" lon="-1.63925">
        <ele>34.7</ele>
        <time>2020-06-07T10:45:04Z</time>
      </trkpt>
      <trkpt lat="47.26731" lon="-1.63926">
        <ele>34.7</ele>
        <time>2020-06-07T10:45:05Z</time>
      </trkpt>
      <trkpt lat="47.26731" lon="-1.63927">
        <ele>34.6</ele>
        <time>2020-06-07T10:45:06Z</time>
      </trkpt>
      <trkpt lat="47.26731" lon="-1.63927">
        <ele>34.6</ele>
        <time>2020-06-07T10:45:07Z</time>
      </trkpt>
      <trkpt lat="47.26732" lon="-1.63928">
        <ele>34.6</ele>
        <time>2020-06-07T10:45:08Z</time>
      </trkpt>
      <trkpt lat="47.26732" lon="-1.63929">
        <ele>34.5</ele>
        <time>2020-06-07T10:45:09Z</time>
      </trkpt>
      <trkpt lat="47.26732" lon="-1.6393">
        <ele>34.5</ele>
        <time>2020-06-07T10:45:10Z</time>
      </trkpt>
      <trkpt lat="47.26733" lon="-1.63931">
        <ele>34.4</ele>
        <time>2020-06-07T10:45:11Z</time>
      </trkpt>
      <trkpt lat="47.26733" lon="-1.63932">
        <ele>34.4</ele>
        <time>2020-06-07T10:45:12Z</time>
      </trkpt>
      <trkpt lat="47.26734" lon="-1.63933">
        <ele>34.3</ele>
        <time>2020-06-07T10:45:13Z</time>
      </trkpt>
      <trkpt lat="47.26734" lon="-1.63934">
        <ele>34.3</ele>
        <time>2020-06-07T10:45:14Z</time>
      </trkpt>
      <trkpt lat="47.26734" lon="-1.63934">
        <ele>34.2</ele>
        <time>2020-06-07T10:45:15Z</time>
      </trkpt>
      <trkpt lat="47.26735" lon="-1.63935">
        <ele>34.2</ele>
        <time>2020-06-07T10:45:16Z</time>
      </trkpt>
      <trkpt lat="47.26735" lon="-1.63935">
        <ele>34.2</ele>
        <time>2020-06-07T10:45:17Z</time>
      </trkpt>
      <trkpt lat="47.26735" lon="-1.63936">
        <ele>34.1</ele>
        <time>2020-06-07T10:45:18Z</time>
      </trkpt>
      <trkpt lat="47.26736" lon="-1.63936">
        <ele>34.1</ele>
        <time>2020-06-07T10:45:19Z</time>
      </trkpt>
      <trkpt lat="47.26736" lon="-1.63936">
        <ele>34.1</ele>
        <time>2020-06-07T10:45:20Z</time>
      </trkpt>
      <trkpt lat="47.26736" lon="-1.63936">
        <ele>34.1</ele>
        <time>2020-06-07T10:45:21Z</time>
      </trkpt>
      <trkpt lat="47.26736" lon="-1.63937">
        <ele>34.1</ele>
        <time>2020-06-07T10:45:22Z</time>
      </trkpt>
      <trkpt lat="47.26736" lon="-1.63937">
        <ele>34.1</ele>
        <time>2020-06-07T10:45:23Z</time>
      </trkpt>
      <trkpt lat="47.26736" lon="-1.63937">
        <ele>34.1</ele>
        <time>2020-06-07T10:45:24Z</time>
      </trkpt>
      <trkpt lat="47.26736" lon="-1.63937">
        <ele>34.1</ele>
        <time>2020-06-07T10:45:25Z</time>
      </trkpt>
      <trkpt lat="47.26736" lon="-1.63938">
        <ele>34</ele>
        <time>2020-06-07T10:45:26Z</time>
      </trkpt>
      <trkpt lat="47.26737" lon="-1.63938">
        <ele>34</ele>
        <time>2020-06-07T10:45:27Z</time>
      </trkpt>
      <trkpt lat="47.26737" lon="-1.63939">
        <ele>34</ele>
        <time>2020-06-07T10:45:28Z</time>
      </trkpt>
      <trkpt lat="47.26737" lon="-1.6394">
        <ele>33.9</ele>
        <time>2020-06-07T10:45:29Z</time>
      </trkpt>
      <trkpt lat="47.26738" lon="-1.6394">
        <ele>33.9</ele>
        <time>2020-06-07T10:45:30Z</time>
      </trkpt>
      <trkpt lat="47.26738" lon="-1.63941">
        <ele>33.8</ele>
        <time>2020-06-07T10:45:31Z</time>
      </trkpt>
      <trkpt lat="47.26739" lon="-1.63942">
        <ele>33.8</ele>
        <time>2020-06-07T10:45:32Z</time>
      </trkpt>
      <trkpt lat="47.26739" lon="-1.63943">
        <ele>33.7</ele>
        <time>2020-06-07T10:45:33Z</time>
      </trkpt>
      <trkpt lat="47.2674" lon="-1.63944">
        <ele>33.6</ele>
        <time>2020-06-07T10:45:34Z</time>
      </trkpt>
      <trkpt lat="47.2674" lon="-1.63944">
        <ele>33.6</ele>
        <time>2020-06-07T10:45:35Z</time>
      </trkpt>
      <trkpt lat="47.26741" lon="-1.63945">
        <ele>33.5</ele>
        <time>2020-06-07T10:45:36Z</time>
      </trkpt>
      <trkpt lat="47.26741" lon="-1.63945">
        <ele>33.5</ele>
        <time>2020-06-07T10:45:37Z</time>
      </trkpt>
      <trkpt lat="47.26742" lon="-1.63945">
        <ele>33.5</ele>
        <time>2020-06-07T10:45:38Z</time>
      </trkpt>
      <trkpt lat="47.26743" lon="-1.63946">
        <ele>33.4</ele>
        <time>2020-06-07T10:45:39Z</time>
      </trkpt>
      <trkpt lat="47.26743" lon="-1.63946">
        <ele>33.4</ele>
        <time>2020-06-07T10:45:40Z</time>
      </trkpt>
      <trkpt lat="47.26743" lon="-1.63946">
        <ele>33.4</ele>
        <time>2020-06-07T10:45:41Z</time>
      </trkpt>
      <trkpt lat="47.26744" lon="-1.63946">
        <ele>33.3</ele>
        <time>2020-06-07T10:45:42Z</time>
      </trkpt>
      <trkpt lat="47.26744" lon="-1.63946">
        <ele>33.3</ele>
        <time>2020-06-07T10:45:43Z</time>
      </trkpt>
      <trkpt lat="47.26745" lon="-1.63946">
        <ele>33.3</ele>
        <time>2020-06-07T10:45:44Z</time>
      </trkpt>
      <trkpt lat="47.26745" lon="-1.63946">
        <ele>33.3</ele>
        <time>2020-06-07T10:45:45Z</time>
      </trkpt>
      <trkpt lat="47.26745" lon="-1.63946">
        <ele>33.3</ele>
        <time>2020-06-07T10:45:46Z</time>
      </trkpt>
      <trkpt lat="47.26745" lon="-1.63946">
        <ele>33.2</ele>
        <time>2020-06-07T10:45:47Z</time>
      </trkpt>
      <trkpt lat="47.26745" lon="-1.63946">
        <ele>33.2</ele>
        <time>2020-06-07T10:45:48Z</time>
      </trkpt>
      <trkpt lat="47.26745" lon="-1.63946">
        <ele>33.2</ele>
        <time>2020-06-07T10:45:49Z</time>
      </trkpt>
      <trkpt lat="47.26745" lon="-1.63946">
        <ele>33.2</ele>
        <time>2020-06-07T10:45:50Z</time>
      </trkpt>
      <trkpt lat="47.26745" lon="-1.63946">
        <ele>33.2</ele>
        <time>2020-06-07T10:45:51Z</time>
      </trkpt>
      <trkpt lat="47.26745" lon="-1.63946">
        <ele>33.2</ele>
        <time>2020-06-07T10:45:52Z</time>
      </trkpt>
      <trkpt lat="47.26745" lon="-1.63946">
        <ele>33.2</ele>
        <time>2020-06-07T10:45:53Z</time>
      </trkpt>
      <trkpt lat="47.26745" lon="-1.63946">
        <ele>33.2</ele>
        <time>2020-06-07T10:45:54Z</time>
      </trkpt>
      <trkpt lat="47.26745" lon="-1.63946">
        <ele>33.2</ele>
        <time>2020-06-07T10:45:55Z</time>
      </trkpt>
      <trkpt lat="47.26745" lon="-1.63946">
        <ele>33.2</ele>
        <time>2020-06-07T10:45:56Z</time>
      </trkpt>
      <trkpt lat="47.26745" lon="-1.63946">
        <ele>33.2</ele>
        <time>2020-06-07T10:45:57Z</time>
      </trkpt>
      <trkpt lat="47.26745" lon="-1.63946">
        <ele>33.2</ele>
        <time>2020-06-07T10:45:58Z</time>
      </trkpt>
      <trkpt lat="47.26745" lon="-1.63946">
        <ele>33.2</ele>
        <time>2020-06-07T10:45:59Z</time>
      </trkpt>
      <trkpt lat="47.26745" lon="-1.63946">
        <ele>33.2</ele>
        <time>2020-06-07T10:46:00Z</time>
      </trkpt>
      <trkpt lat="47.26745" lon="-1.63946">
        <ele>33.2</ele>
        <time>2020-06-07T10:46:01Z</time>
      </trkpt>
      <trkpt lat="47.26745" lon="-1.63946">
        <ele>33.2</ele>
        <time>2020-06-07T10:46:02Z</time>
      </trkpt>
      <trkpt lat="47.26745" lon="-1.63946">
        <ele>33.2</ele>
        <time>2020-06-07T10:46:03Z</time>
      </trkpt>
      <trkpt lat="47.26745" lon="-1.63946">
        <ele>33.2</ele>
        <time>2020-06-07T10:46:04Z</time>
      </trkpt>
      <trkpt lat="47.26745" lon="-1.63946">
        <ele>33.2</ele>
        <time>2020-06-07T10:46:05Z</time>
      </trkpt>
      <trkpt lat="47.26745" lon="-1.63946">
        <ele>33.2</ele>
        <time>2020-06-07T10:46:06Z</time>
      </trkpt>
      <trkpt lat="47.26745" lon="-1.63946">
        <ele>33.2</ele>
        <time>2020-06-07T10:46:07Z</time>
      </trkpt>
      <trkpt lat="47.26745" lon="-1.63946">
        <ele>33.2</ele>
        <time>2020-06-07T10:46:08Z</time>
      </trkpt>
      <trkpt lat="47.26745" lon="-1.63946">
        <ele>33.2</ele>
        <time>2020-06-07T10:46:09Z</time>
      </trkpt>
      <trkpt lat="47.26745" lon="-1.63946">
        <ele>33.2</ele>
        <time>2020-06-07T10:46:10Z</time>
      </trkpt>
      <trkpt lat="47.26745" lon="-1.63946">
        <ele>33.2</ele>
        <time>2020-06-07T10:46:11Z</time>
      </trkpt>
      <trkpt lat="47.26745" lon="-1.63946">
        <ele>33.2</ele>
        <time>2020-06-07T10:46:12Z</time>
      </trkpt>
      <trkpt lat="47.26745" lon="-1.63946">
        <ele>33.2</ele>
        <time>2020-06-07T10:46:13Z</time>
      </trkpt>
      <trkpt lat="47.26745" lon="-1.63946">
        <ele>33.2</ele>
        <time>2020-06-07T10:46:14Z</time>
      </trkpt>
      <trkpt lat="47.26746" lon="-1.63946">
        <ele>33.2</ele>
        <time>2020-06-07T10:46:15Z</time>
      </trkpt>
      <trkpt lat="47.26747" lon="-1.63946">
        <ele>33.1</ele>
        <time>2020-06-07T10:46:16Z</time>
      </trkpt>
      <trkpt lat="47.26748" lon="-1.63947">
        <ele>33.1</ele>
        <time>2020-06-07T10:46:17Z</time>
      </trkpt>
      <trkpt lat="47.26749" lon="-1.63947">
        <ele>33</ele>
        <time>2020-06-07T10:46:18Z</time>
      </trkpt>
      <trkpt lat="47.2675" lon="-1.63947">
        <ele>32.9</ele>
        <time>2020-06-07T10:46:19Z</time>
      </trkpt>
      <trkpt lat="47.2675" lon="-1.63948">
        <ele>32.9</ele>
        <time>2020-06-07T10:46:20Z</time>
      </trkpt>
      <trkpt lat="47.26751" lon="-1.63948">
        <ele>33</ele>
        <time>2020-06-07T10:46:21Z</time>
      </trkpt>
      <trkpt lat="47.26752" lon="-1.63948">
        <ele>33</ele>
        <time>2020-06-07T10:46:22Z</time>
      </trkpt>
      <trkpt lat="47.26753" lon="-1.63948">
        <ele>33</ele>
        <time>2020-06-07T10:46:23Z</time>
      </trkpt>
      <trkpt lat="47.26754" lon="-1.63948">
        <ele>33.1</ele>
        <time>2020-06-07T10:46:24Z</time>
      </trkpt>
      <trkpt lat="47.26754" lon="-1.63948">
        <ele>33.1</ele>
        <time>2020-06-07T10:46:25Z</time>
      </trkpt>
      <trkpt lat="47.26755" lon="-1.63948">
        <ele>33.2</ele>
        <time>2020-06-07T10:46:26Z</time>
      </trkpt>
      <trkpt lat="47.26755" lon="-1.63948">
        <ele>33.2</ele>
        <time>2020-06-07T10:46:27Z</time>
      </trkpt>
      <trkpt lat="47.26756" lon="-1.63948">
        <ele>33.2</ele>
        <time>2020-06-07T10:46:28Z</time>
      </trkpt>
      <trkpt lat="47.26756" lon="-1.63948">
        <ele>33.2</ele>
        <time>2020-06-07T10:46:29Z</time>
      </trkpt>
      <trkpt lat="47.26756" lon="-1.63948">
        <ele>33.2</ele>
        <time>2020-06-07T10:46:30Z</time>
      </trkpt>
      <trkpt lat="47.26756" lon="-1.63947">
        <ele>33.2</ele>
        <time>2020-06-07T10:46:31Z</time>
      </trkpt>
      <trkpt lat="47.26757" lon="-1.63947">
        <ele>33.3</ele>
        <time>2020-06-07T10:46:32Z</time>
      </trkpt>
      <trkpt lat="47.26758" lon="-1.63946">
        <ele>33.3</ele>
        <time>2020-06-07T10:46:33Z</time>
      </trkpt>
      <trkpt lat="47.26758" lon="-1.63946">
        <ele>33.4</ele>
        <time>2020-06-07T10:46:34Z</time>
      </trkpt>
      <trkpt lat="47.26758" lon="-1.63945">
        <ele>33.4</ele>
        <time>2020-06-07T10:46:35Z</time>
      </trkpt>
      <trkpt lat="47.26759" lon="-1.63945">
        <ele>33.5</ele>
        <time>2020-06-07T10:46:36Z</time>
      </trkpt>
      <trkpt lat="47.26759" lon="-1.63945">
        <ele>33.5</ele>
        <time>2020-06-07T10:46:37Z</time>
      </trkpt>
      <trkpt lat="47.26759" lon="-1.63945">
        <ele>33.5</ele>
        <time>2020-06-07T10:46:38Z</time>
      </trkpt>
      <trkpt lat="47.26758" lon="-1.63945">
        <ele>33.4</ele>
        <time>2020-06-07T10:46:39Z</time>
      </trkpt>
      <trkpt lat="47.26758" lon="-1.63946">
        <ele>33.4</ele>
        <time>2020-06-07T10:46:40Z</time>
      </trkpt>
      <trkpt lat="47.26758" lon="-1.63946">
        <ele>33.4</ele>
        <time>2020-06-07T10:46:41Z</time>
      </trkpt>
      <trkpt lat="47.26758" lon="-1.63946">
        <ele>33.4</ele>
        <time>2020-06-07T10:46:42Z</time>
      </trkpt>
      <trkpt lat="47.26757" lon="-1.63947">
        <ele>33.3</ele>
        <time>2020-06-07T10:46:43Z</time>
      </trkpt>
      <trkpt lat="47.26757" lon="-1.63947">
        <ele>33.3</ele>
        <time>2020-06-07T10:46:44Z</time>
      </trkpt>
      <trkpt lat="47.26756" lon="-1.63947">
        <ele>33.3</ele>
        <time>2020-06-07T10:46:45Z</time>
      </trkpt>
      <trkpt lat="47.26756" lon="-1.63947">
        <ele>33.2</ele>
        <time>2020-06-07T10:46:46Z</time>
      </trkpt>
      <trkpt lat="47.26755" lon="-1.63947">
        <ele>33.2</ele>
        <time>2020-06-07T10:46:47Z</time>
      </trkpt>
      <trkpt lat="47.26754" lon="-1.63947">
        <ele>33.2</ele>
        <time>2020-06-07T10:46:48Z</time>
      </trkpt>
      <trkpt lat="47.26753" lon="-1.63946">
        <ele>33.1</ele>
        <time>2020-06-07T10:46:49Z</time>
      </trkpt>
      <trkpt lat="47.26753" lon="-1.63946">
        <ele>33.1</ele>
        <time>2020-06-07T10:46:50Z</time>
      </trkpt>
      <trkpt lat="47.26752" lon="-1.63946">
        <ele>33.1</ele>
        <time>2020-06-07T10:46:51Z</time>
      </trkpt>
      <trkpt lat="47.26751" lon="-1.63945">
        <ele>33</ele>
        <time>2020-06-07T10:46:52Z</time>
      </trkpt>
      <trkpt lat="47.2675" lon="-1.63945">
        <ele>33</ele>
        <time>2020-06-07T10:46:53Z</time>
      </trkpt>
      <trkpt lat="47.2675" lon="-1.63944">
        <ele>33</ele>
        <time>2020-06-07T10:46:54Z</time>
      </trkpt>
      <trkpt lat="47.26749" lon="-1.63944">
        <ele>33.1</ele>
        <time>2020-06-07T10:46:55Z</time>
      </trkpt>
      <trkpt lat="47.26748" lon="-1.63943">
        <ele>33.2</ele>
        <time>2020-06-07T10:46:56Z</time>
      </trkpt>
      <trkpt lat="47.26747" lon="-1.63942">
        <ele>33.2</ele>
        <time>2020-06-07T10:46:57Z</time>
      </trkpt>
      <trkpt lat="47.26747" lon="-1.63942">
        <ele>33.3</ele>
        <time>2020-06-07T10:46:58Z</time>
      </trkpt>
      <trkpt lat="47.26746" lon="-1.63941">
        <ele>33.3</ele>
        <time>2020-06-07T10:46:59Z</time>
      </trkpt>
      <trkpt lat="47.26745" lon="-1.63941">
        <ele>33.4</ele>
        <time>2020-06-07T10:47:00Z</time>
      </trkpt>
      <trkpt lat="47.26745" lon="-1.6394">
        <ele>33.5</ele>
        <time>2020-06-07T10:47:01Z</time>
      </trkpt>
      <trkpt lat="47.26744" lon="-1.6394">
        <ele>33.5</ele>
        <time>2020-06-07T10:47:02Z</time>
      </trkpt>
      <trkpt lat="47.26743" lon="-1.63939">
        <ele>33.6</ele>
        <time>2020-06-07T10:47:03Z</time>
      </trkpt>
      <trkpt lat="47.26743" lon="-1.63939">
        <ele>33.6</ele>
        <time>2020-06-07T10:47:04Z</time>
      </trkpt>
      <trkpt lat="47.26742" lon="-1.63938">
        <ele>33.7</ele>
        <time>2020-06-07T10:47:05Z</time>
      </trkpt>
      <trkpt lat="47.26741" lon="-1.63938">
        <ele>33.7</ele>
        <time>2020-06-07T10:47:06Z</time>
      </trkpt>
      <trkpt lat="47.26741" lon="-1.63937">
        <ele>33.8</ele>
        <time>2020-06-07T10:47:07Z</time>
      </trkpt>
      <trkpt lat="47.2674" lon="-1.63937">
        <ele>33.8</ele>
        <time>2020-06-07T10:47:08Z</time>
      </trkpt>
      <trkpt lat="47.2674" lon="-1.63936">
        <ele>33.9</ele>
        <time>2020-06-07T10:47:09Z</time>
      </trkpt>
      <trkpt lat="47.26739" lon="-1.63935">
        <ele>33.9</ele>
        <time>2020-06-07T10:47:10Z</time>
      </trkpt>
      <trkpt lat="47.26739" lon="-1.63935">
        <ele>34</ele>
        <time>2020-06-07T10:47:11Z</time>
      </trkpt>
      <trkpt lat="47.26738" lon="-1.63934">
        <ele>34</ele>
        <time>2020-06-07T10:47:12Z</time>
      </trkpt>
      <trkpt lat="47.26738" lon="-1.63933">
        <ele>34.1</ele>
        <time>2020-06-07T10:47:13Z</time>
      </trkpt>
      <trkpt lat="47.26737" lon="-1.63932">
        <ele>34.1</ele>
        <time>2020-06-07T10:47:14Z</time>
      </trkpt>
      <trkpt lat="47.26737" lon="-1.63932">
        <ele>34.2</ele>
        <time>2020-06-07T10:47:15Z</time>
      </trkpt>
      <trkpt lat="47.26737" lon="-1.63931">
        <ele>34.2</ele>
        <time>2020-06-07T10:47:16Z</time>
      </trkpt>
      <trkpt lat="47.26736" lon="-1.63931">
        <ele>34.2</ele>
        <time>2020-06-07T10:47:17Z</time>
      </trkpt>
      <trkpt lat="47.26736" lon="-1.6393">
        <ele>34.3</ele>
        <time>2020-06-07T10:47:18Z</time>
      </trkpt>
      <trkpt lat="47.26735" lon="-1.6393">
        <ele>34.3</ele>
        <time>2020-06-07T10:47:19Z</time>
      </trkpt>
      <trkpt lat="47.26735" lon="-1.6393">
        <ele>34.4</ele>
        <time>2020-06-07T10:47:20Z</time>
      </trkpt>
      <trkpt lat="47.26734" lon="-1.6393">
        <ele>34.4</ele>
        <time>2020-06-07T10:47:21Z</time>
      </trkpt>
      <trkpt lat="47.26733" lon="-1.6393">
        <ele>34.4</ele>
        <time>2020-06-07T10:47:22Z</time>
      </trkpt>
      <trkpt lat="47.26733" lon="-1.63931">
        <ele>34.4</ele>
        <time>2020-06-07T10:47:23Z</time>
      </trkpt>
      <trkpt lat="47.26732" lon="-1.63931">
        <ele>34.4</ele>
        <time>2020-06-07T10:47:24Z</time>
      </trkpt>
      <trkpt lat="47.26731" lon="-1.63932">
        <ele>34.5</ele>
        <time>2020-06-07T10:47:25Z</time>
      </trkpt>
      <trkpt lat="47.26731" lon="-1.63933">
        <ele>34.5</ele>
        <time>2020-06-07T10:47:26Z</time>
      </trkpt>
      <trkpt lat="47.2673" lon="-1.63934">
        <ele>34.5</ele>
        <time>2020-06-07T10:47:27Z</time>
      </trkpt>
      <trkpt lat="47.2673" lon="-1.63935">
        <ele>34.5</ele>
        <time>2020-06-07T10:47:28Z</time>
      </trkpt>
      <trkpt lat="47.2673" lon="-1.63937">
        <ele>34.4</ele>
        <time>2020-06-07T10:47:29Z</time>
      </trkpt>
      <trkpt lat="47.2673" lon="-1.63938">
        <ele>34.4</ele>
        <time>2020-06-07T10:47:30Z</time>
      </trkpt>
      <trkpt lat="47.26729" lon="-1.63939">
        <ele>34.4</ele>
        <time>2020-06-07T10:47:31Z</time>
      </trkpt>
      <trkpt lat="47.26729" lon="-1.63941">
        <ele>34.4</ele>
        <time>2020-06-07T10:47:32Z</time>
      </trkpt>
      <trkpt lat="47.26729" lon="-1.63942">
        <ele>34.3</ele>
        <time>2020-06-07T10:47:33Z</time>
      </trkpt>
      <trkpt lat="47.26729" lon="-1.63943">
        <ele>34.3</ele>
        <time>2020-06-07T10:47:34Z</time>
      </trkpt>
      <trkpt lat="47.26728" lon="-1.63944">
        <ele>34.3</ele>
        <time>2020-06-07T10:47:35Z</time>
      </trkpt>
      <trkpt lat="47.26728" lon="-1.63945">
        <ele>34.3</ele>
        <time>2020-06-07T10:47:36Z</time>
      </trkpt>
      <trkpt lat="47.26728" lon="-1.63946">
        <ele>34.3</ele>
        <time>2020-06-07T10:47:37Z</time>
      </trkpt>
      <trkpt lat="47.26727" lon="-1.63947">
        <ele>34.3</ele>
        <time>2020-06-07T10:47:38Z</time>
      </trkpt>
      <trkpt lat="47.26727" lon="-1.63948">
        <ele>34.3</ele>
        <time>2020-06-07T10:47:39Z</time>
      </trkpt>
      <trkpt lat="47.26727" lon="-1.63949">
        <ele>34.3</ele>
        <time>2020-06-07T10:47:40Z</time>
      </trkpt>
      <trkpt lat="47.26727" lon="-1.6395">
        <ele>34.2</ele>
        <time>2020-06-07T10:47:41Z</time>
      </trkpt>
      <trkpt lat="47.26727" lon="-1.63952">
        <ele>34.2</ele>
        <time>2020-06-07T10:47:42Z</time>
      </trkpt>
      <trkpt lat="47.26727" lon="-1.63953">
        <ele>34.2</ele>
        <time>2020-06-07T10:47:43Z</time>
      </trkpt>
      <trkpt lat="47.26726" lon="-1.63954">
        <ele>34.2</ele>
        <time>2020-06-07T10:47:44Z</time>
      </trkpt>
      <trkpt lat="47.26726" lon="-1.63955">
        <ele>34.1</ele>
        <time>2020-06-07T10:47:45Z</time>
      </trkpt>
      <trkpt lat="47.26726" lon="-1.63957">
        <ele>34.1</ele>
        <time>2020-06-07T10:47:46Z</time>
      </trkpt>
      <trkpt lat="47.26726" lon="-1.63958">
        <ele>34.1</ele>
        <time>2020-06-07T10:47:47Z</time>
      </trkpt>
      <trkpt lat="47.26726" lon="-1.63959">
        <ele>34.1</ele>
        <time>2020-06-07T10:47:48Z</time>
      </trkpt>
      <trkpt lat="47.26726" lon="-1.6396">
        <ele>34</ele>
        <time>2020-06-07T10:47:49Z</time>
      </trkpt>
      <trkpt lat="47.26726" lon="-1.63961">
        <ele>34</ele>
        <time>2020-06-07T10:47:50Z</time>
      </trkpt>
      <trkpt lat="47.26726" lon="-1.63963">
        <ele>34</ele>
        <time>2020-06-07T10:47:51Z</time>
      </trkpt>
      <trkpt lat="47.26726" lon="-1.63964">
        <ele>34</ele>
        <time>2020-06-07T10:47:52Z</time>
      </trkpt>
      <trkpt lat="47.26726" lon="-1.63965">
        <ele>33.9</ele>
        <time>2020-06-07T10:47:53Z</time>
      </trkpt>
      <trkpt lat="47.26726" lon="-1.63966">
        <ele>33.9</ele>
        <time>2020-06-07T10:47:54Z</time>
      </trkpt>
      <trkpt lat="47.26726" lon="-1.63967">
        <ele>33.9</ele>
        <time>2020-06-07T10:47:55Z</time>
      </trkpt>
      <trkpt lat="47.26725" lon="-1.63968">
        <ele>33.9</ele>
        <time>2020-06-07T10:47:56Z</time>
      </trkpt>
      <trkpt lat="47.26725" lon="-1.63968">
        <ele>33.9</ele>
        <time>2020-06-07T10:47:57Z</time>
      </trkpt>
      <trkpt lat="47.26725" lon="-1.63969">
        <ele>33.9</ele>
        <time>2020-06-07T10:47:58Z</time>
      </trkpt>
      <trkpt lat="47.26725" lon="-1.6397">
        <ele>33.9</ele>
        <time>2020-06-07T10:47:59Z</time>
      </trkpt>
      <trkpt lat="47.26725" lon="-1.63971">
        <ele>33.9</ele>
        <time>2020-06-07T10:48:00Z</time>
      </trkpt>
      <trkpt lat="47.26725" lon="-1.63972">
        <ele>33.8</ele>
        <time>2020-06-07T10:48:01Z</time>
      </trkpt>
      <trkpt lat="47.26725" lon="-1.63973">
        <ele>33.8</ele>
        <time>2020-06-07T10:48:02Z</time>
      </trkpt>
      <trkpt lat="47.26724" lon="-1.63974">
        <ele>33.8</ele>
        <time>2020-06-07T10:48:03Z</time>
      </trkpt>
      <trkpt lat="47.26724" lon="-1.63975">
        <ele>33.8</ele>
        <time>2020-06-07T10:48:04Z</time>
      </trkpt>
      <trkpt lat="47.26724" lon="-1.63977">
        <ele>33.8</ele>
        <time>2020-06-07T10:48:05Z</time>
      </trkpt>
      <trkpt lat="47.26724" lon="-1.63978">
        <ele>33.7</ele>
        <time>2020-06-07T10:48:06Z</time>
      </trkpt>
      <trkpt lat="47.26724" lon="-1.63979">
        <ele>33.7</ele>
        <time>2020-06-07T10:48:07Z</time>
      </trkpt>
      <trkpt lat="47.26724" lon="-1.6398">
        <ele>33.7</ele>
        <time>2020-06-07T10:48:08Z</time>
      </trkpt>
      <trkpt lat="47.26724" lon="-1.63982">
        <ele>33.6</ele>
        <time>2020-06-07T10:48:09Z</time>
      </trkpt>
      <trkpt lat="47.26725" lon="-1.63983">
        <ele>33.6</ele>
        <time>2020-06-07T10:48:10Z</time>
      </trkpt>
      <trkpt lat="47.26725" lon="-1.63984">
        <ele>33.5</ele>
        <time>2020-06-07T10:48:11Z</time>
      </trkpt>
      <trkpt lat="47.26725" lon="-1.63985">
        <ele>33.5</ele>
        <time>2020-06-07T10:48:12Z</time>
      </trkpt>
      <trkpt lat="47.26725" lon="-1.63986">
        <ele>33.4</ele>
        <time>2020-06-07T10:48:13Z</time>
      </trkpt>
      <trkpt lat="47.26726" lon="-1.63988">
        <ele>33.4</ele>
        <time>2020-06-07T10:48:14Z</time>
      </trkpt>
      <trkpt lat="47.26726" lon="-1.63989">
        <ele>33.3</ele>
        <time>2020-06-07T10:48:15Z</time>
      </trkpt>
      <trkpt lat="47.26726" lon="-1.6399">
        <ele>33.3</ele>
        <time>2020-06-07T10:48:16Z</time>
      </trkpt>
      <trkpt lat="47.26726" lon="-1.63991">
        <ele>33.2</ele>
        <time>2020-06-07T10:48:17Z</time>
      </trkpt>
      <trkpt lat="47.26726" lon="-1.63992">
        <ele>33.2</ele>
        <time>2020-06-07T10:48:18Z</time>
      </trkpt>
      <trkpt lat="47.26726" lon="-1.63993">
        <ele>33.2</ele>
        <time>2020-06-07T10:48:19Z</time>
      </trkpt>
      <trkpt lat="47.26726" lon="-1.63995">
        <ele>33.2</ele>
        <time>2020-06-07T10:48:20Z</time>
      </trkpt>
      <trkpt lat="47.26726" lon="-1.63996">
        <ele>33.1</ele>
        <time>2020-06-07T10:48:21Z</time>
      </trkpt>
      <trkpt lat="47.26726" lon="-1.63997">
        <ele>33.1</ele>
        <time>2020-06-07T10:48:22Z</time>
      </trkpt>
      <trkpt lat="47.26726" lon="-1.63998">
        <ele>33.1</ele>
        <time>2020-06-07T10:48:23Z</time>
      </trkpt>
      <trkpt lat="47.26726" lon="-1.63999">
        <ele>33.1</ele>
        <time>2020-06-07T10:48:24Z</time>
      </trkpt>
      <trkpt lat="47.26726" lon="-1.63999">
        <ele>33</ele>
        <time>2020-06-07T10:48:25Z</time>
      </trkpt>
      <trkpt lat="47.26726" lon="-1.64">
        <ele>33</ele>
        <time>2020-06-07T10:48:26Z</time>
      </trkpt>
      <trkpt lat="47.26726" lon="-1.64001">
        <ele>33</ele>
        <time>2020-06-07T10:48:27Z</time>
      </trkpt>
      <trkpt lat="47.26726" lon="-1.64002">
        <ele>33.1</ele>
        <time>2020-06-07T10:48:28Z</time>
      </trkpt>
      <trkpt lat="47.26727" lon="-1.64002">
        <ele>33.1</ele>
        <time>2020-06-07T10:48:29Z</time>
      </trkpt>
      <trkpt lat="47.26727" lon="-1.64003">
        <ele>33.1</ele>
        <time>2020-06-07T10:48:30Z</time>
      </trkpt>
      <trkpt lat="47.26727" lon="-1.64004">
        <ele>33.2</ele>
        <time>2020-06-07T10:48:31Z</time>
      </trkpt>
      <trkpt lat="47.26727" lon="-1.64004">
        <ele>33.2</ele>
        <time>2020-06-07T10:48:32Z</time>
      </trkpt>
      <trkpt lat="47.26727" lon="-1.64005">
        <ele>33.3</ele>
        <time>2020-06-07T10:48:33Z</time>
      </trkpt>
      <trkpt lat="47.26727" lon="-1.64006">
        <ele>33.3</ele>
        <time>2020-06-07T10:48:34Z</time>
      </trkpt>
      <trkpt lat="47.26727" lon="-1.64006">
        <ele>33.3</ele>
        <time>2020-06-07T10:48:35Z</time>
      </trkpt>
      <trkpt lat="47.26727" lon="-1.64007">
        <ele>33.4</ele>
        <time>2020-06-07T10:48:36Z</time>
      </trkpt>
      <trkpt lat="47.26727" lon="-1.64007">
        <ele>33.4</ele>
        <time>2020-06-07T10:48:37Z</time>
      </trkpt>
      <trkpt lat="47.26727" lon="-1.64008">
        <ele>33.4</ele>
        <time>2020-06-07T10:48:38Z</time>
      </trkpt>
      <trkpt lat="47.26727" lon="-1.64008">
        <ele>33.4</ele>
        <time>2020-06-07T10:48:39Z</time>
      </trkpt>
      <trkpt lat="47.26727" lon="-1.64008">
        <ele>33.4</ele>
        <time>2020-06-07T10:48:40Z</time>
      </trkpt>
      <trkpt lat="47.26727" lon="-1.64008">
        <ele>33.4</ele>
        <time>2020-06-07T10:48:41Z</time>
      </trkpt>
      <trkpt lat="47.26727" lon="-1.64008">
        <ele>33.4</ele>
        <time>2020-06-07T10:48:42Z</time>
      </trkpt>
      <trkpt lat="47.26727" lon="-1.64008">
        <ele>33.4</ele>
        <time>2020-06-07T10:48:43Z</time>
      </trkpt>
      <trkpt lat="47.26727" lon="-1.64008">
        <ele>33.4</ele>
        <time>2020-06-07T10:48:44Z</time>
      </trkpt>
      <trkpt lat="47.26727" lon="-1.64008">
        <ele>33.4</ele>
        <time>2020-06-07T10:48:45Z</time>
      </trkpt>
      <trkpt lat="47.26727" lon="-1.64008">
        <ele>33.4</ele>
        <time>2020-06-07T10:48:46Z</time>
      </trkpt>
      <trkpt lat="47.26727" lon="-1.64008">
        <ele>33.4</ele>
        <time>2020-06-07T10:48:47Z</time>
      </trkpt>
      <trkpt lat="47.26727" lon="-1.64009">
        <ele>33.4</ele>
        <time>2020-06-07T10:48:48Z</time>
      </trkpt>
      <trkpt lat="47.26728" lon="-1.64009">
        <ele>33.4</ele>
        <time>2020-06-07T10:48:49Z</time>
      </trkpt>
      <trkpt lat="47.26728" lon="-1.6401">
        <ele>33.4</ele>
        <time>2020-06-07T10:48:50Z</time>
      </trkpt>
      <trkpt lat="47.26729" lon="-1.6401">
        <ele>33.4</ele>
        <time>2020-06-07T10:48:51Z</time>
      </trkpt>
      <trkpt lat="47.26729" lon="-1.64011">
        <ele>33.4</ele>
        <time>2020-06-07T10:48:52Z</time>
      </trkpt>
      <trkpt lat="47.2673" lon="-1.64011">
        <ele>33.4</ele>
        <time>2020-06-07T10:48:53Z</time>
      </trkpt>
      <trkpt lat="47.2673" lon="-1.64012">
        <ele>33.4</ele>
        <time>2020-06-07T10:48:54Z</time>
      </trkpt>
      <trkpt lat="47.26731" lon="-1.64012">
        <ele>33.3</ele>
        <time>2020-06-07T10:48:55Z</time>
      </trkpt>
      <trkpt lat="47.26731" lon="-1.64012">
        <ele>33.3</ele>
        <time>2020-06-07T10:48:56Z</time>
      </trkpt>
      <trkpt lat="47.26731" lon="-1.64012">
        <ele>33.3</ele>
        <time>2020-06-07T10:48:57Z</time>
      </trkpt>
      <trkpt lat="47.26731" lon="-1.64012">
        <ele>33.3</ele>
        <time>2020-06-07T10:48:58Z</time>
      </trkpt>
      <trkpt lat="47.26731" lon="-1.64012">
        <ele>33.3</ele>
        <time>2020-06-07T10:48:59Z</time>
      </trkpt>
      <trkpt lat="47.26731" lon="-1.64012">
        <ele>33.3</ele>
        <time>2020-06-07T10:49:00Z</time>
      </trkpt>
      <trkpt lat="47.26731" lon="-1.64012">
        <ele>33.3</ele>
        <time>2020-06-07T10:49:01Z</time>
      </trkpt>
      <trkpt lat="47.26731" lon="-1.64012">
        <ele>33.3</ele>
        <time>2020-06-07T10:49:02Z</time>
      </trkpt>
      <trkpt lat="47.26731" lon="-1.64012">
        <ele>33.3</ele>
        <time>2020-06-07T10:49:03Z</time>
      </trkpt>
      <trkpt lat="47.26731" lon="-1.64012">
        <ele>33.3</ele>
        <time>2020-06-07T10:49:04Z</time>
      </trkpt>
      <trkpt lat="47.26731" lon="-1.64012">
        <ele>33.3</ele>
        <time>2020-06-07T10:49:05Z</time>
      </trkpt>
      <trkpt lat="47.26731" lon="-1.64012">
        <ele>33.3</ele>
        <time>2020-06-07T10:49:06Z</time>
      </trkpt>
      <trkpt lat="47.26731" lon="-1.64012">
        <ele>33.3</ele>
        <time>2020-06-07T10:49:07Z</time>
      </trkpt>
      <trkpt lat="47.26731" lon="-1.64012">
        <ele>33.3</ele>
        <time>2020-06-07T10:49:08Z</time>
      </trkpt>
      <trkpt lat="47.26731" lon="-1.64012">
        <ele>33.3</ele>
        <time>2020-06-07T10:49:09Z</time>
      </trkpt>
      <trkpt lat="47.26731" lon="-1.64012">
        <ele>33.3</ele>
        <time>2020-06-07T10:49:10Z</time>
      </trkpt>
      <trkpt lat="47.26731" lon="-1.64012">
        <ele>33.3</ele>
        <time>2020-06-07T10:49:11Z</time>
      </trkpt>
      <trkpt lat="47.26731" lon="-1.64012">
        <ele>33.3</ele>
        <time>2020-06-07T10:49:12Z</time>
      </trkpt>
      <trkpt lat="47.26731" lon="-1.64012">
        <ele>33.3</ele>
        <time>2020-06-07T10:49:13Z</time>
      </trkpt>
      <trkpt lat="47.26731" lon="-1.64012">
        <ele>33.3</ele>
        <time>2020-06-07T10:49:14Z</time>
      </trkpt>
      <trkpt lat="47.26731" lon="-1.64012">
        <ele>33.3</ele>
        <time>2020-06-07T10:49:15Z</time>
      </trkpt>
      <trkpt lat="47.26732" lon="-1.64012">
        <ele>33.3</ele>
        <time>2020-06-07T10:49:16Z</time>
      </trkpt>
      <trkpt lat="47.26733" lon="-1.64013">
        <ele>33.2</ele>
        <time>2020-06-07T10:49:17Z</time>
      </trkpt>
      <trkpt lat="47.26734" lon="-1.64013">
        <ele>33.1</ele>
        <time>2020-06-07T10:49:18Z</time>
      </trkpt>
      <trkpt lat="47.26735" lon="-1.64012">
        <ele>33</ele>
        <time>2020-06-07T10:49:19Z</time>
      </trkpt>
      <trkpt lat="47.26736" lon="-1.64012">
        <ele>32.9</ele>
        <time>2020-06-07T10:49:20Z</time>
      </trkpt>
      <trkpt lat="47.26737" lon="-1.64011">
        <ele>32.9</ele>
        <time>2020-06-07T10:49:21Z</time>
      </trkpt>
      <trkpt lat="47.26737" lon="-1.64011">
        <ele>32.8</ele>
        <time>2020-06-07T10:49:22Z</time>
      </trkpt>
      <trkpt lat="47.26737" lon="-1.64011">
        <ele>32.8</ele>
        <time>2020-06-07T10:49:23Z</time>
      </trkpt>
      <trkpt lat="47.26737" lon="-1.64011">
        <ele>32.8</ele>
        <time>2020-06-07T10:49:24Z</time>
      </trkpt>
      <trkpt lat="47.26738" lon="-1.64011">
        <ele>32.8</ele>
        <time>2020-06-07T10:49:25Z</time>
      </trkpt>
      <trkpt lat="47.26738" lon="-1.64011">
        <ele>32.7</ele>
        <time>2020-06-07T10:49:26Z</time>
      </trkpt>
      <trkpt lat="47.26738" lon="-1.64011">
        <ele>32.7</ele>
        <time>2020-06-07T10:49:27Z</time>
      </trkpt>
      <trkpt lat="47.26739" lon="-1.64011">
        <ele>32.6</ele>
        <time>2020-06-07T10:49:28Z</time>
      </trkpt>
      <trkpt lat="47.26739" lon="-1.6401">
        <ele>32.6</ele>
        <time>2020-06-07T10:49:29Z</time>
      </trkpt>
      <trkpt lat="47.2674" lon="-1.6401">
        <ele>32.5</ele>
        <time>2020-06-07T10:49:30Z</time>
      </trkpt>
      <trkpt lat="47.26741" lon="-1.6401">
        <ele>32.4</ele>
        <time>2020-06-07T10:49:31Z</time>
      </trkpt>
      <trkpt lat="47.26742" lon="-1.6401">
        <ele>32.4</ele>
        <time>2020-06-07T10:49:32Z</time>
      </trkpt>
      <trkpt lat="47.26743" lon="-1.6401">
        <ele>32.3</ele>
        <time>2020-06-07T10:49:33Z</time>
      </trkpt>
      <trkpt lat="47.26743" lon="-1.6401">
        <ele>32.2</ele>
        <time>2020-06-07T10:49:34Z</time>
      </trkpt>
      <trkpt lat="47.26744" lon="-1.6401">
        <ele>32.2</ele>
        <time>2020-06-07T10:49:35Z</time>
      </trkpt>
      <trkpt lat="47.26745" lon="-1.6401">
        <ele>32.1</ele>
        <time>2020-06-07T10:49:36Z</time>
      </trkpt>
      <trkpt lat="47.26746" lon="-1.6401">
        <ele>32</ele>
        <time>2020-06-07T10:49:37Z</time>
      </trkpt>
      <trkpt lat="47.26746" lon="-1.64009">
        <ele>32</ele>
        <time>2020-06-07T10:49:38Z</time>
      </trkpt>
      <trkpt lat="47.26747" lon="-1.64009">
        <ele>31.9</ele>
        <time>2020-06-07T10:49:39Z</time>
      </trkpt>
      <trkpt lat="47.26748" lon="-1.64009">
        <ele>31.8</ele>
        <time>2020-06-07T10:49:40Z</time>
      </trkpt>
      <trkpt lat="47.26749" lon="-1.64009">
        <ele>31.7</ele>
        <time>2020-06-07T10:49:41Z</time>
      </trkpt>
      <trkpt lat="47.2675" lon="-1.64008">
        <ele>31.6</ele>
        <time>2020-06-07T10:49:42Z</time>
      </trkpt>
      <trkpt lat="47.26751" lon="-1.64008">
        <ele>31.7</ele>
        <time>2020-06-07T10:49:43Z</time>
      </trkpt>
      <trkpt lat="47.26752" lon="-1.64008">
        <ele>31.7</ele>
        <time>2020-06-07T10:49:44Z</time>
      </trkpt>
      <trkpt lat="47.26753" lon="-1.64008">
        <ele>31.7</ele>
        <time>2020-06-07T10:49:45Z</time>
      </trkpt>
      <trkpt lat="47.26754" lon="-1.64007">
        <ele>31.7</ele>
        <time>2020-06-07T10:49:46Z</time>
      </trkpt>
      <trkpt lat="47.26755" lon="-1.64007">
        <ele>31.8</ele>
        <time>2020-06-07T10:49:47Z</time>
      </trkpt>
      <trkpt lat="47.26756" lon="-1.64007">
        <ele>31.8</ele>
        <time>2020-06-07T10:49:48Z</time>
      </trkpt>
      <trkpt lat="47.26757" lon="-1.64006">
        <ele>31.8</ele>
        <time>2020-06-07T10:49:49Z</time>
      </trkpt>
      <trkpt lat="47.26758" lon="-1.64006">
        <ele>31.8</ele>
        <time>2020-06-07T10:49:50Z</time>
      </trkpt>
      <trkpt lat="47.26759" lon="-1.64005">
        <ele>31.8</ele>
        <time>2020-06-07T10:49:51Z</time>
      </trkpt>
      <trkpt lat="47.26759" lon="-1.64005">
        <ele>31.8</ele>
        <time>2020-06-07T10:49:52Z</time>
      </trkpt>
      <trkpt lat="47.2676" lon="-1.64004">
        <ele>31.8</ele>
        <time>2020-06-07T10:49:53Z</time>
      </trkpt>
      <trkpt lat="47.26761" lon="-1.64003">
        <ele>31.8</ele>
        <time>2020-06-07T10:49:54Z</time>
      </trkpt>
      <trkpt lat="47.26762" lon="-1.64003">
        <ele>31.8</ele>
        <time>2020-06-07T10:49:55Z</time>
      </trkpt>
      <trkpt lat="47.26763" lon="-1.64002">
        <ele>31.8</ele>
        <time>2020-06-07T10:49:56Z</time>
      </trkpt>
      <trkpt lat="47.26765" lon="-1.64002">
        <ele>31.8</ele>
        <time>2020-06-07T10:49:57Z</time>
      </trkpt>
      <trkpt lat="47.26766" lon="-1.64002">
        <ele>31.9</ele>
        <time>2020-06-07T10:49:58Z</time>
      </trkpt>
      <trkpt lat="47.26767" lon="-1.64001">
        <ele>31.9</ele>
        <time>2020-06-07T10:49:59Z</time>
      </trkpt>
      <trkpt lat="47.26768" lon="-1.64001">
        <ele>31.9</ele>
        <time>2020-06-07T10:50:00Z</time>
      </trkpt>
      <trkpt lat="47.26769" lon="-1.64">
        <ele>31.9</ele>
        <time>2020-06-07T10:50:01Z</time>
      </trkpt>
      <trkpt lat="47.26769" lon="-1.64">
        <ele>31.9</ele>
        <time>2020-06-07T10:50:02Z</time>
      </trkpt>
      <trkpt lat="47.26769" lon="-1.64">
        <ele>31.9</ele>
        <time>2020-06-07T10:50:03Z</time>
      </trkpt>
      <trkpt lat="47.26769" lon="-1.64">
        <ele>32</ele>
        <time>2020-06-07T10:50:04Z</time>
      </trkpt>
      <trkpt lat="47.2677" lon="-1.64">
        <ele>32</ele>
        <time>2020-06-07T10:50:05Z</time>
      </trkpt>
      <trkpt lat="47.2677" lon="-1.64">
        <ele>32</ele>
        <time>2020-06-07T10:50:06Z</time>
      </trkpt>
      <trkpt lat="47.2677" lon="-1.64">
        <ele>32</ele>
        <time>2020-06-07T10:50:07Z</time>
      </trkpt>
      <trkpt lat="47.2677" lon="-1.63999">
        <ele>32</ele>
        <time>2020-06-07T10:50:08Z</time>
      </trkpt>
      <trkpt lat="47.26771" lon="-1.63999">
        <ele>32.1</ele>
        <time>2020-06-07T10:50:09Z</time>
      </trkpt>
      <trkpt lat="47.26774" lon="-1.63998">
        <ele>32.2</ele>
        <time>2020-06-07T10:50:10Z</time>
      </trkpt>
      <trkpt lat="47.26775" lon="-1.63997">
        <ele>32.3</ele>
        <time>2020-06-07T10:50:11Z</time>
      </trkpt>
      <trkpt lat="47.26776" lon="-1.63996">
        <ele>32.4</ele>
        <time>2020-06-07T10:50:12Z</time>
      </trkpt>
      <trkpt lat="47.26777" lon="-1.63995">
        <ele>32.5</ele>
        <time>2020-06-07T10:50:13Z</time>
      </trkpt>
      <trkpt lat="47.26778" lon="-1.63994">
        <ele>32.6</ele>
        <time>2020-06-07T10:50:14Z</time>
      </trkpt>
      <trkpt lat="47.26779" lon="-1.63994">
        <ele>32.6</ele>
        <time>2020-06-07T10:50:15Z</time>
      </trkpt>
      <trkpt lat="47.26779" lon="-1.63993">
        <ele>32.7</ele>
        <time>2020-06-07T10:50:16Z</time>
      </trkpt>
      <trkpt lat="47.2678" lon="-1.63992">
        <ele>32.7</ele>
        <time>2020-06-07T10:50:17Z</time>
      </trkpt>
      <trkpt lat="47.2678" lon="-1.63992">
        <ele>32.8</ele>
        <time>2020-06-07T10:50:18Z</time>
      </trkpt>
      <trkpt lat="47.26781" lon="-1.63991">
        <ele>32.8</ele>
        <time>2020-06-07T10:50:19Z</time>
      </trkpt>
      <trkpt lat="47.26782" lon="-1.63991">
        <ele>32.9</ele>
        <time>2020-06-07T10:50:20Z</time>
      </trkpt>
      <trkpt lat="47.26782" lon="-1.6399">
        <ele>32.9</ele>
        <time>2020-06-07T10:50:21Z</time>
      </trkpt>
      <trkpt lat="47.26783" lon="-1.6399">
        <ele>33</ele>
        <time>2020-06-07T10:50:22Z</time>
      </trkpt>
      <trkpt lat="47.26783" lon="-1.63989">
        <ele>33</ele>
        <time>2020-06-07T10:50:23Z</time>
      </trkpt>
      <trkpt lat="47.26784" lon="-1.63988">
        <ele>33.1</ele>
        <time>2020-06-07T10:50:24Z</time>
      </trkpt>
      <trkpt lat="47.26784" lon="-1.63988">
        <ele>33.1</ele>
        <time>2020-06-07T10:50:25Z</time>
      </trkpt>
      <trkpt lat="47.26784" lon="-1.63987">
        <ele>33.2</ele>
        <time>2020-06-07T10:50:26Z</time>
      </trkpt>
      <trkpt lat="47.26785" lon="-1.63986">
        <ele>33.2</ele>
        <time>2020-06-07T10:50:27Z</time>
      </trkpt>
      <trkpt lat="47.26785" lon="-1.63986">
        <ele>33.3</ele>
        <time>2020-06-07T10:50:28Z</time>
      </trkpt>
      <trkpt lat="47.26786" lon="-1.63985">
        <ele>33.3</ele>
        <time>2020-06-07T10:50:29Z</time>
      </trkpt>
      <trkpt lat="47.26786" lon="-1.63984">
        <ele>33.4</ele>
        <time>2020-06-07T10:50:30Z</time>
      </trkpt>
      <trkpt lat="47.26787" lon="-1.63984">
        <ele>33.4</ele>
        <time>2020-06-07T10:50:31Z</time>
      </trkpt>
      <trkpt lat="47.26787" lon="-1.63983">
        <ele>33.5</ele>
        <time>2020-06-07T10:50:32Z</time>
      </trkpt>
      <trkpt lat="47.26788" lon="-1.63982">
        <ele>33.6</ele>
        <time>2020-06-07T10:50:33Z</time>
      </trkpt>
      <trkpt lat="47.26789" lon="-1.63982">
        <ele>33.6</ele>
        <time>2020-06-07T10:50:34Z</time>
      </trkpt>
      <trkpt lat="47.26789" lon="-1.63981">
        <ele>33.7</ele>
        <time>2020-06-07T10:50:35Z</time>
      </trkpt>
      <trkpt lat="47.2679" lon="-1.6398">
        <ele>33.7</ele>
        <time>2020-06-07T10:50:36Z</time>
      </trkpt>
      <trkpt lat="47.2679" lon="-1.6398">
        <ele>33.8</ele>
        <time>2020-06-07T10:50:37Z</time>
      </trkpt>
      <trkpt lat="47.26791" lon="-1.63979">
        <ele>33.8</ele>
        <time>2020-06-07T10:50:38Z</time>
      </trkpt>
      <trkpt lat="47.26792" lon="-1.63979">
        <ele>33.9</ele>
        <time>2020-06-07T10:50:39Z</time>
      </trkpt>
      <trkpt lat="47.26793" lon="-1.63978">
        <ele>34</ele>
        <time>2020-06-07T10:50:40Z</time>
      </trkpt>
      <trkpt lat="47.26793" lon="-1.63978">
        <ele>34</ele>
        <time>2020-06-07T10:50:41Z</time>
      </trkpt>
      <trkpt lat="47.26794" lon="-1.63977">
        <ele>34.1</ele>
        <time>2020-06-07T10:50:42Z</time>
      </trkpt>
      <trkpt lat="47.26795" lon="-1.63977">
        <ele>34.2</ele>
        <time>2020-06-07T10:50:43Z</time>
      </trkpt>
      <trkpt lat="47.26796" lon="-1.63976">
        <ele>34.2</ele>
        <time>2020-06-07T10:50:44Z</time>
      </trkpt>
      <trkpt lat="47.26797" lon="-1.63975">
        <ele>34.3</ele>
        <time>2020-06-07T10:50:45Z</time>
      </trkpt>
      <trkpt lat="47.26798" lon="-1.63975">
        <ele>34.4</ele>
        <time>2020-06-07T10:50:46Z</time>
      </trkpt>
      <trkpt lat="47.26798" lon="-1.63974">
        <ele>34.4</ele>
        <time>2020-06-07T10:50:47Z</time>
      </trkpt>
      <trkpt lat="47.26799" lon="-1.63974">
        <ele>34.5</ele>
        <time>2020-06-07T10:50:48Z</time>
      </trkpt>
      <trkpt lat="47.268" lon="-1.63973">
        <ele>34.6</ele>
        <time>2020-06-07T10:50:49Z</time>
      </trkpt>
      <trkpt lat="47.26801" lon="-1.63973">
        <ele>34.7</ele>
        <time>2020-06-07T10:50:50Z</time>
      </trkpt>
      <trkpt lat="47.26802" lon="-1.63972">
        <ele>34.7</ele>
        <time>2020-06-07T10:50:51Z</time>
      </trkpt>
      <trkpt lat="47.26803" lon="-1.63971">
        <ele>34.8</ele>
        <time>2020-06-07T10:50:52Z</time>
      </trkpt>
      <trkpt lat="47.26804" lon="-1.63971">
        <ele>34.9</ele>
        <time>2020-06-07T10:50:53Z</time>
      </trkpt>
      <trkpt lat="47.26805" lon="-1.6397">
        <ele>34.9</ele>
        <time>2020-06-07T10:50:54Z</time>
      </trkpt>
      <trkpt lat="47.26806" lon="-1.6397">
        <ele>35</ele>
        <time>2020-06-07T10:50:55Z</time>
      </trkpt>
      <trkpt lat="47.26807" lon="-1.63969">
        <ele>35.1</ele>
        <time>2020-06-07T10:50:56Z</time>
      </trkpt>
      <trkpt lat="47.26807" lon="-1.63969">
        <ele>35.1</ele>
        <time>2020-06-07T10:50:57Z</time>
      </trkpt>
      <trkpt lat="47.26808" lon="-1.63968">
        <ele>35.2</ele>
        <time>2020-06-07T10:50:58Z</time>
      </trkpt>
      <trkpt lat="47.26809" lon="-1.63968">
        <ele>35.3</ele>
        <time>2020-06-07T10:50:59Z</time>
      </trkpt>
      <trkpt lat="47.26809" lon="-1.63967">
        <ele>35.3</ele>
        <time>2020-06-07T10:51:00Z</time>
      </trkpt>
      <trkpt lat="47.2681" lon="-1.63967">
        <ele>35.3</ele>
        <time>2020-06-07T10:51:01Z</time>
      </trkpt>
      <trkpt lat="47.2681" lon="-1.63966">
        <ele>35.4</ele>
        <time>2020-06-07T10:51:02Z</time>
      </trkpt>
      <trkpt lat="47.26811" lon="-1.63966">
        <ele>35.4</ele>
        <time>2020-06-07T10:51:03Z</time>
      </trkpt>
      <trkpt lat="47.26811" lon="-1.63965">
        <ele>35.5</ele>
        <time>2020-06-07T10:51:04Z</time>
      </trkpt>
      <trkpt lat="47.26812" lon="-1.63965">
        <ele>35.5</ele>
        <time>2020-06-07T10:51:05Z</time>
      </trkpt>
      <trkpt lat="47.26813" lon="-1.63965">
        <ele>35.6</ele>
        <time>2020-06-07T10:51:06Z</time>
      </trkpt>
      <trkpt lat="47.26813" lon="-1.63964">
        <ele>35.6</ele>
        <time>2020-06-07T10:51:07Z</time>
      </trkpt>
      <trkpt lat="47.26814" lon="-1.63964">
        <ele>35.7</ele>
        <time>2020-06-07T10:51:08Z</time>
      </trkpt>
      <trkpt lat="47.26815" lon="-1.63964">
        <ele>35.7</ele>
        <time>2020-06-07T10:51:09Z</time>
      </trkpt>
      <trkpt lat="47.26815" lon="-1.63964">
        <ele>35.7</ele>
        <time>2020-06-07T10:51:10Z</time>
      </trkpt>
      <trkpt lat="47.26815" lon="-1.63964">
        <ele>35.7</ele>
        <time>2020-06-07T10:51:11Z</time>
      </trkpt>
      <trkpt lat="47.26816" lon="-1.63965">
        <ele>35.8</ele>
        <time>2020-06-07T10:51:12Z</time>
      </trkpt>
      <trkpt lat="47.26817" lon="-1.63965">
        <ele>35.8</ele>
        <time>2020-06-07T10:51:13Z</time>
      </trkpt>
      <trkpt lat="47.26819" lon="-1.63965">
        <ele>35.9</ele>
        <time>2020-06-07T10:51:14Z</time>
      </trkpt>
      <trkpt lat="47.2682" lon="-1.63965">
        <ele>36</ele>
        <time>2020-06-07T10:51:15Z</time>
      </trkpt>
      <trkpt lat="47.26821" lon="-1.63965">
        <ele>36</ele>
        <time>2020-06-07T10:51:16Z</time>
      </trkpt>
      <trkpt lat="47.26822" lon="-1.63965">
        <ele>36.1</ele>
        <time>2020-06-07T10:51:17Z</time>
      </trkpt>
      <trkpt lat="47.26823" lon="-1.63965">
        <ele>36.1</ele>
        <time>2020-06-07T10:51:18Z</time>
      </trkpt>
      <trkpt lat="47.26824" lon="-1.63965">
        <ele>36.2</ele>
        <time>2020-06-07T10:51:19Z</time>
      </trkpt>
      <trkpt lat="47.26824" lon="-1.63965">
        <ele>36.2</ele>
        <time>2020-06-07T10:51:20Z</time>
      </trkpt>
      <trkpt lat="47.26825" lon="-1.63965">
        <ele>36.2</ele>
        <time>2020-06-07T10:51:21Z</time>
      </trkpt>
      <trkpt lat="47.26825" lon="-1.63965">
        <ele>36.3</ele>
        <time>2020-06-07T10:51:22Z</time>
      </trkpt>
      <trkpt lat="47.26826" lon="-1.63965">
        <ele>36.3</ele>
        <time>2020-06-07T10:51:23Z</time>
      </trkpt>
      <trkpt lat="47.26827" lon="-1.63965">
        <ele>36.3</ele>
        <time>2020-06-07T10:51:24Z</time>
      </trkpt>
      <trkpt lat="47.26827" lon="-1.63965">
        <ele>36.4</ele>
        <time>2020-06-07T10:51:25Z</time>
      </trkpt>
      <trkpt lat="47.26828" lon="-1.63965">
        <ele>36.4</ele>
        <time>2020-06-07T10:51:26Z</time>
      </trkpt>
      <trkpt lat="47.26829" lon="-1.63965">
        <ele>36.5</ele>
        <time>2020-06-07T10:51:27Z</time>
      </trkpt>
      <trkpt lat="47.2683" lon="-1.63965">
        <ele>36.5</ele>
        <time>2020-06-07T10:51:28Z</time>
      </trkpt>
      <trkpt lat="47.2683" lon="-1.63964">
        <ele>36.5</ele>
        <time>2020-06-07T10:51:29Z</time>
      </trkpt>
      <trkpt lat="47.26831" lon="-1.63964">
        <ele>36.6</ele>
        <time>2020-06-07T10:51:30Z</time>
      </trkpt>
      <trkpt lat="47.26832" lon="-1.63964">
        <ele>36.6</ele>
        <time>2020-06-07T10:51:31Z</time>
      </trkpt>
      <trkpt lat="47.26832" lon="-1.63964">
        <ele>36.7</ele>
        <time>2020-06-07T10:51:32Z</time>
      </trkpt>
      <trkpt lat="47.26833" lon="-1.63964">
        <ele>36.7</ele>
        <time>2020-06-07T10:51:33Z</time>
      </trkpt>
      <trkpt lat="47.26833" lon="-1.63964">
        <ele>36.7</ele>
        <time>2020-06-07T10:51:34Z</time>
      </trkpt>
      <trkpt lat="47.26833" lon="-1.63964">
        <ele>36.7</ele>
        <time>2020-06-07T10:51:35Z</time>
      </trkpt>
      <trkpt lat="47.26834" lon="-1.63964">
        <ele>36.7</ele>
        <time>2020-06-07T10:51:36Z</time>
      </trkpt>
      <trkpt lat="47.26834" lon="-1.63965">
        <ele>36.7</ele>
        <time>2020-06-07T10:51:37Z</time>
      </trkpt>
      <trkpt lat="47.26834" lon="-1.63965">
        <ele>36.7</ele>
        <time>2020-06-07T10:51:38Z</time>
      </trkpt>
      <trkpt lat="47.26834" lon="-1.63965">
        <ele>36.7</ele>
        <time>2020-06-07T10:51:39Z</time>
      </trkpt>
      <trkpt lat="47.26835" lon="-1.63965">
        <ele>36.7</ele>
        <time>2020-06-07T10:51:40Z</time>
      </trkpt>
      <trkpt lat="47.26836" lon="-1.63965">
        <ele>36.8</ele>
        <time>2020-06-07T10:51:41Z</time>
      </trkpt>
      <trkpt lat="47.26836" lon="-1.63966">
        <ele>36.8</ele>
        <time>2020-06-07T10:51:42Z</time>
      </trkpt>
      <trkpt lat="47.26837" lon="-1.63966">
        <ele>36.8</ele>
        <time>2020-06-07T10:51:43Z</time>
      </trkpt>
      <trkpt lat="47.26838" lon="-1.63966">
        <ele>36.9</ele>
        <time>2020-06-07T10:51:44Z</time>
      </trkpt>
      <trkpt lat="47.26839" lon="-1.63966">
        <ele>36.9</ele>
        <time>2020-06-07T10:51:45Z</time>
      </trkpt>
      <trkpt lat="47.2684" lon="-1.63967">
        <ele>36.9</ele>
        <time>2020-06-07T10:51:46Z</time>
      </trkpt>
      <trkpt lat="47.26841" lon="-1.63968">
        <ele>36.9</ele>
        <time>2020-06-07T10:51:47Z</time>
      </trkpt>
      <trkpt lat="47.26842" lon="-1.63968">
        <ele>37</ele>
        <time>2020-06-07T10:51:48Z</time>
      </trkpt>
      <trkpt lat="47.26843" lon="-1.63969">
        <ele>37</ele>
        <time>2020-06-07T10:51:49Z</time>
      </trkpt>
      <trkpt lat="47.26844" lon="-1.63969">
        <ele>37</ele>
        <time>2020-06-07T10:51:50Z</time>
      </trkpt>
      <trkpt lat="47.26845" lon="-1.63969">
        <ele>37.1</ele>
        <time>2020-06-07T10:51:51Z</time>
      </trkpt>
      <trkpt lat="47.26845" lon="-1.63968">
        <ele>37.1</ele>
        <time>2020-06-07T10:51:52Z</time>
      </trkpt>
      <trkpt lat="47.26846" lon="-1.63968">
        <ele>37.1</ele>
        <time>2020-06-07T10:51:53Z</time>
      </trkpt>
      <trkpt lat="47.26846" lon="-1.63968">
        <ele>37.2</ele>
        <time>2020-06-07T10:51:54Z</time>
      </trkpt>
      <trkpt lat="47.26846" lon="-1.63967">
        <ele>37.2</ele>
        <time>2020-06-07T10:51:55Z</time>
      </trkpt>
      <trkpt lat="47.26847" lon="-1.63967">
        <ele>37.2</ele>
        <time>2020-06-07T10:51:56Z</time>
      </trkpt>
      <trkpt lat="47.26847" lon="-1.63967">
        <ele>37.3</ele>
        <time>2020-06-07T10:51:57Z</time>
      </trkpt>
      <trkpt lat="47.26848" lon="-1.63967">
        <ele>37.3</ele>
        <time>2020-06-07T10:51:58Z</time>
      </trkpt>
      <trkpt lat="47.26848" lon="-1.63966">
        <ele>37.3</ele>
        <time>2020-06-07T10:51:59Z</time>
      </trkpt>
      <trkpt lat="47.26849" lon="-1.63966">
        <ele>37.4</ele>
        <time>2020-06-07T10:52:00Z</time>
      </trkpt>
      <trkpt lat="47.26849" lon="-1.63966">
        <ele>37.4</ele>
        <time>2020-06-07T10:52:01Z</time>
      </trkpt>
      <trkpt lat="47.26849" lon="-1.63966">
        <ele>37.4</ele>
        <time>2020-06-07T10:52:02Z</time>
      </trkpt>
      <trkpt lat="47.2685" lon="-1.63966">
        <ele>37.4</ele>
        <time>2020-06-07T10:52:03Z</time>
      </trkpt>
      <trkpt lat="47.2685" lon="-1.63966">
        <ele>37.4</ele>
        <time>2020-06-07T10:52:04Z</time>
      </trkpt>
      <trkpt lat="47.26851" lon="-1.63966">
        <ele>37.5</ele>
        <time>2020-06-07T10:52:05Z</time>
      </trkpt>
      <trkpt lat="47.26851" lon="-1.63966">
        <ele>37.5</ele>
        <time>2020-06-07T10:52:06Z</time>
      </trkpt>
      <trkpt lat="47.26852" lon="-1.63966">
        <ele>37.5</ele>
        <time>2020-06-07T10:52:07Z</time>
      </trkpt>
      <trkpt lat="47.26852" lon="-1.63966">
        <ele>37.6</ele>
        <time>2020-06-07T10:52:08Z</time>
      </trkpt>
      <trkpt lat="47.26853" lon="-1.63966">
        <ele>37.6</ele>
        <time>2020-06-07T10:52:09Z</time>
      </trkpt>
      <trkpt lat="47.26854" lon="-1.63965">
        <ele>37.6</ele>
        <time>2020-06-07T10:52:10Z</time>
      </trkpt>
      <trkpt lat="47.26854" lon="-1.63965">
        <ele>37.7</ele>
        <time>2020-06-07T10:52:11Z</time>
      </trkpt>
      <trkpt lat="47.26855" lon="-1.63965">
        <ele>37.7</ele>
        <time>2020-06-07T10:52:12Z</time>
      </trkpt>
      <trkpt lat="47.26856" lon="-1.63965">
        <ele>37.8</ele>
        <time>2020-06-07T10:52:13Z</time>
      </trkpt>
      <trkpt lat="47.26856" lon="-1.63965">
        <ele>37.8</ele>
        <time>2020-06-07T10:52:14Z</time>
      </trkpt>
      <trkpt lat="47.26857" lon="-1.63965">
        <ele>37.8</ele>
        <time>2020-06-07T10:52:15Z</time>
      </trkpt>
      <trkpt lat="47.26858" lon="-1.63965">
        <ele>37.8</ele>
        <time>2020-06-07T10:52:16Z</time>
      </trkpt>
      <trkpt lat="47.26858" lon="-1.63965">
        <ele>37.9</ele>
        <time>2020-06-07T10:52:17Z</time>
      </trkpt>
      <trkpt lat="47.26859" lon="-1.63965">
        <ele>37.9</ele>
        <time>2020-06-07T10:52:18Z</time>
      </trkpt>
      <trkpt lat="47.26859" lon="-1.63966">
        <ele>37.9</ele>
        <time>2020-06-07T10:52:19Z</time>
      </trkpt>
      <trkpt lat="47.2686" lon="-1.63966">
        <ele>37.9</ele>
        <time>2020-06-07T10:52:20Z</time>
      </trkpt>
      <trkpt lat="47.2686" lon="-1.63966">
        <ele>37.9</ele>
        <time>2020-06-07T10:52:21Z</time>
      </trkpt>
      <trkpt lat="47.26861" lon="-1.63966">
        <ele>38</ele>
        <time>2020-06-07T10:52:22Z</time>
      </trkpt>
      <trkpt lat="47.26862" lon="-1.63966">
        <ele>38</ele>
        <time>2020-06-07T10:52:23Z</time>
      </trkpt>
      <trkpt lat="47.26863" lon="-1.63967">
        <ele>38</ele>
        <time>2020-06-07T10:52:24Z</time>
      </trkpt>
      <trkpt lat="47.26863" lon="-1.63967">
        <ele>38</ele>
        <time>2020-06-07T10:52:25Z</time>
      </trkpt>
      <trkpt lat="47.26864" lon="-1.63967">
        <ele>38.1</ele>
        <time>2020-06-07T10:52:26Z</time>
      </trkpt>
      <trkpt lat="47.26865" lon="-1.63968">
        <ele>38.1</ele>
        <time>2020-06-07T10:52:27Z</time>
      </trkpt>
      <trkpt lat="47.26865" lon="-1.63969">
        <ele>38</ele>
        <time>2020-06-07T10:52:28Z</time>
      </trkpt>
      <trkpt lat="47.26866" lon="-1.6397">
        <ele>38</ele>
        <time>2020-06-07T10:52:29Z</time>
      </trkpt>
      <trkpt lat="47.26866" lon="-1.63971">
        <ele>38</ele>
        <time>2020-06-07T10:52:30Z</time>
      </trkpt>
      <trkpt lat="47.26866" lon="-1.63972">
        <ele>37.9</ele>
        <time>2020-06-07T10:52:31Z</time>
      </trkpt>
      <trkpt lat="47.26866" lon="-1.63974">
        <ele>37.8</ele>
        <time>2020-06-07T10:52:32Z</time>
      </trkpt>
      <trkpt lat="47.26866" lon="-1.63975">
        <ele>37.8</ele>
        <time>2020-06-07T10:52:33Z</time>
      </trkpt>
      <trkpt lat="47.26866" lon="-1.63976">
        <ele>37.7</ele>
        <time>2020-06-07T10:52:34Z</time>
      </trkpt>
      <trkpt lat="47.26866" lon="-1.63977">
        <ele>37.7</ele>
        <time>2020-06-07T10:52:35Z</time>
      </trkpt>
      <trkpt lat="47.26866" lon="-1.63978">
        <ele>37.6</ele>
        <time>2020-06-07T10:52:36Z</time>
      </trkpt>
      <trkpt lat="47.26865" lon="-1.6398">
        <ele>37.5</ele>
        <time>2020-06-07T10:52:37Z</time>
      </trkpt>
      <trkpt lat="47.26865" lon="-1.63981">
        <ele>37.4</ele>
        <time>2020-06-07T10:52:38Z</time>
      </trkpt>
      <trkpt lat="47.26865" lon="-1.63983">
        <ele>37.3</ele>
        <time>2020-06-07T10:52:39Z</time>
      </trkpt>
      <trkpt lat="47.26865" lon="-1.63985">
        <ele>37.2</ele>
        <time>2020-06-07T10:52:40Z</time>
      </trkpt>
      <trkpt lat="47.26865" lon="-1.63987">
        <ele>37.1</ele>
        <time>2020-06-07T10:52:41Z</time>
      </trkpt>
      <trkpt lat="47.26865" lon="-1.63988">
        <ele>37.1</ele>
        <time>2020-06-07T10:52:42Z</time>
      </trkpt>
      <trkpt lat="47.26865" lon="-1.6399">
        <ele>37</ele>
        <time>2020-06-07T10:52:43Z</time>
      </trkpt>
      <trkpt lat="47.26865" lon="-1.63991">
        <ele>37</ele>
        <time>2020-06-07T10:52:44Z</time>
      </trkpt>
      <trkpt lat="47.26865" lon="-1.63992">
        <ele>36.9</ele>
        <time>2020-06-07T10:52:45Z</time>
      </trkpt>
      <trkpt lat="47.26865" lon="-1.63993">
        <ele>36.9</ele>
        <time>2020-06-07T10:52:46Z</time>
      </trkpt>
      <trkpt lat="47.26866" lon="-1.63994">
        <ele>36.8</ele>
        <time>2020-06-07T10:52:47Z</time>
      </trkpt>
      <trkpt lat="47.26866" lon="-1.63995">
        <ele>36.8</ele>
        <time>2020-06-07T10:52:48Z</time>
      </trkpt>
      <trkpt lat="47.26867" lon="-1.63996">
        <ele>36.8</ele>
        <time>2020-06-07T10:52:49Z</time>
      </trkpt>
      <trkpt lat="47.26867" lon="-1.63997">
        <ele>36.8</ele>
        <time>2020-06-07T10:52:50Z</time>
      </trkpt>
      <trkpt lat="47.26867" lon="-1.63998">
        <ele>36.8</ele>
        <time>2020-06-07T10:52:51Z</time>
      </trkpt>
      <trkpt lat="47.26868" lon="-1.63998">
        <ele>36.7</ele>
        <time>2020-06-07T10:52:52Z</time>
      </trkpt>
      <trkpt lat="47.26868" lon="-1.63999">
        <ele>36.7</ele>
        <time>2020-06-07T10:52:53Z</time>
      </trkpt>
      <trkpt lat="47.26869" lon="-1.64">
        <ele>36.7</ele>
        <time>2020-06-07T10:52:54Z</time>
      </trkpt>
      <trkpt lat="47.26869" lon="-1.64001">
        <ele>36.8</ele>
        <time>2020-06-07T10:52:55Z</time>
      </trkpt>
      <trkpt lat="47.2687" lon="-1.64002">
        <ele>36.9</ele>
        <time>2020-06-07T10:52:56Z</time>
      </trkpt>
      <trkpt lat="47.2687" lon="-1.64004">
        <ele>37</ele>
        <time>2020-06-07T10:52:57Z</time>
      </trkpt>
      <trkpt lat="47.26871" lon="-1.64005">
        <ele>37.1</ele>
        <time>2020-06-07T10:52:58Z</time>
      </trkpt>
      <trkpt lat="47.26871" lon="-1.64006">
        <ele>37.1</ele>
        <time>2020-06-07T10:52:59Z</time>
      </trkpt>
      <trkpt lat="47.26872" lon="-1.64007">
        <ele>37.2</ele>
        <time>2020-06-07T10:53:00Z</time>
      </trkpt>
      <trkpt lat="47.26872" lon="-1.64008">
        <ele>37.3</ele>
        <time>2020-06-07T10:53:01Z</time>
      </trkpt>
      <trkpt lat="47.26873" lon="-1.64009">
        <ele>37.4</ele>
        <time>2020-06-07T10:53:02Z</time>
      </trkpt>
      <trkpt lat="47.26873" lon="-1.6401">
        <ele>37.4</ele>
        <time>2020-06-07T10:53:03Z</time>
      </trkpt>
      <trkpt lat="47.26873" lon="-1.64011">
        <ele>37.5</ele>
        <time>2020-06-07T10:53:04Z</time>
      </trkpt>
      <trkpt lat="47.26874" lon="-1.64012">
        <ele>37.6</ele>
        <time>2020-06-07T10:53:05Z</time>
      </trkpt>
      <trkpt lat="47.26874" lon="-1.64013">
        <ele>37.6</ele>
        <time>2020-06-07T10:53:06Z</time>
      </trkpt>
      <trkpt lat="47.26874" lon="-1.64014">
        <ele>37.7</ele>
        <time>2020-06-07T10:53:07Z</time>
      </trkpt>
      <trkpt lat="47.26875" lon="-1.64015">
        <ele>37.8</ele>
        <time>2020-06-07T10:53:08Z</time>
      </trkpt>
      <trkpt lat="47.26875" lon="-1.64015">
        <ele>37.8</ele>
        <time>2020-06-07T10:53:09Z</time>
      </trkpt>
      <trkpt lat="47.26875" lon="-1.64016">
        <ele>37.9</ele>
        <time>2020-06-07T10:53:10Z</time>
      </trkpt>
      <trkpt lat="47.26875" lon="-1.64017">
        <ele>37.9</ele>
        <time>2020-06-07T10:53:11Z</time>
      </trkpt>
      <trkpt lat="47.26875" lon="-1.64018">
        <ele>38</ele>
        <time>2020-06-07T10:53:12Z</time>
      </trkpt>
      <trkpt lat="47.26875" lon="-1.64019">
        <ele>38.1</ele>
        <time>2020-06-07T10:53:13Z</time>
      </trkpt>
      <trkpt lat="47.26875" lon="-1.64021">
        <ele>38.1</ele>
        <time>2020-06-07T10:53:14Z</time>
      </trkpt>
      <trkpt lat="47.26875" lon="-1.64022">
        <ele>38.2</ele>
        <time>2020-06-07T10:53:15Z</time>
      </trkpt>
      <trkpt lat="47.26875" lon="-1.64023">
        <ele>38.3</ele>
        <time>2020-06-07T10:53:16Z</time>
      </trkpt>
      <trkpt lat="47.26875" lon="-1.64024">
        <ele>38.3</ele>
        <time>2020-06-07T10:53:17Z</time>
      </trkpt>
      <trkpt lat="47.26876" lon="-1.64026">
        <ele>38.4</ele>
        <time>2020-06-07T10:53:18Z</time>
      </trkpt>
      <trkpt lat="47.26876" lon="-1.64027">
        <ele>38.5</ele>
        <time>2020-06-07T10:53:19Z</time>
      </trkpt>
      <trkpt lat="47.26876" lon="-1.64028">
        <ele>38.5</ele>
        <time>2020-06-07T10:53:20Z</time>
      </trkpt>
      <trkpt lat="47.26876" lon="-1.64029">
        <ele>38.6</ele>
        <time>2020-06-07T10:53:21Z</time>
      </trkpt>
      <trkpt lat="47.26876" lon="-1.6403">
        <ele>38.6</ele>
        <time>2020-06-07T10:53:22Z</time>
      </trkpt>
      <trkpt lat="47.26876" lon="-1.64031">
        <ele>38.7</ele>
        <time>2020-06-07T10:53:23Z</time>
      </trkpt>
      <trkpt lat="47.26877" lon="-1.64031">
        <ele>38.7</ele>
        <time>2020-06-07T10:53:24Z</time>
      </trkpt>
      <trkpt lat="47.26877" lon="-1.64032">
        <ele>38.8</ele>
        <time>2020-06-07T10:53:25Z</time>
      </trkpt>
      <trkpt lat="47.26877" lon="-1.64033">
        <ele>38.8</ele>
        <time>2020-06-07T10:53:26Z</time>
      </trkpt>
      <trkpt lat="47.26878" lon="-1.64034">
        <ele>38.9</ele>
        <time>2020-06-07T10:53:27Z</time>
      </trkpt>
      <trkpt lat="47.26878" lon="-1.64035">
        <ele>38.9</ele>
        <time>2020-06-07T10:53:28Z</time>
      </trkpt>
      <trkpt lat="47.26878" lon="-1.64035">
        <ele>39</ele>
        <time>2020-06-07T10:53:29Z</time>
      </trkpt>
      <trkpt lat="47.26879" lon="-1.64036">
        <ele>39</ele>
        <time>2020-06-07T10:53:30Z</time>
      </trkpt>
      <trkpt lat="47.26879" lon="-1.64037">
        <ele>39.1</ele>
        <time>2020-06-07T10:53:31Z</time>
      </trkpt>
      <trkpt lat="47.26879" lon="-1.64038">
        <ele>39.1</ele>
        <time>2020-06-07T10:53:32Z</time>
      </trkpt>
      <trkpt lat="47.26879" lon="-1.64039">
        <ele>39.2</ele>
        <time>2020-06-07T10:53:33Z</time>
      </trkpt>
      <trkpt lat="47.2688" lon="-1.6404">
        <ele>39.2</ele>
        <time>2020-06-07T10:53:34Z</time>
      </trkpt>
      <trkpt lat="47.2688" lon="-1.64041">
        <ele>39.3</ele>
        <time>2020-06-07T10:53:35Z</time>
      </trkpt>
      <trkpt lat="47.2688" lon="-1.64042">
        <ele>39.3</ele>
        <time>2020-06-07T10:53:36Z</time>
      </trkpt>
      <trkpt lat="47.26881" lon="-1.64043">
        <ele>39.4</ele>
        <time>2020-06-07T10:53:37Z</time>
      </trkpt>
      <trkpt lat="47.26881" lon="-1.64045">
        <ele>39.4</ele>
        <time>2020-06-07T10:53:38Z</time>
      </trkpt>
      <trkpt lat="47.26881" lon="-1.64046">
        <ele>39.5</ele>
        <time>2020-06-07T10:53:39Z</time>
      </trkpt>
      <trkpt lat="47.26882" lon="-1.64047">
        <ele>39.5</ele>
        <time>2020-06-07T10:53:40Z</time>
      </trkpt>
      <trkpt lat="47.26882" lon="-1.64048">
        <ele>39.6</ele>
        <time>2020-06-07T10:53:41Z</time>
      </trkpt>
      <trkpt lat="47.26882" lon="-1.64049">
        <ele>39.6</ele>
        <time>2020-06-07T10:53:42Z</time>
      </trkpt>
      <trkpt lat="47.26883" lon="-1.6405">
        <ele>39.7</ele>
        <time>2020-06-07T10:53:43Z</time>
      </trkpt>
      <trkpt lat="47.26883" lon="-1.64051">
        <ele>39.7</ele>
        <time>2020-06-07T10:53:44Z</time>
      </trkpt>
      <trkpt lat="47.26883" lon="-1.64052">
        <ele>39.8</ele>
        <time>2020-06-07T10:53:45Z</time>
      </trkpt>
      <trkpt lat="47.26883" lon="-1.64053">
        <ele>39.8</ele>
        <time>2020-06-07T10:53:46Z</time>
      </trkpt>
      <trkpt lat="47.26884" lon="-1.64054">
        <ele>39.9</ele>
        <time>2020-06-07T10:53:47Z</time>
      </trkpt>
      <trkpt lat="47.26884" lon="-1.64055">
        <ele>39.9</ele>
        <time>2020-06-07T10:53:48Z</time>
      </trkpt>
      <trkpt lat="47.26884" lon="-1.64056">
        <ele>40</ele>
        <time>2020-06-07T10:53:49Z</time>
      </trkpt>
      <trkpt lat="47.26884" lon="-1.64058">
        <ele>40</ele>
        <time>2020-06-07T10:53:50Z</time>
      </trkpt>
      <trkpt lat="47.26884" lon="-1.64059">
        <ele>40.1</ele>
        <time>2020-06-07T10:53:51Z</time>
      </trkpt>
      <trkpt lat="47.26884" lon="-1.6406">
        <ele>40.1</ele>
        <time>2020-06-07T10:53:52Z</time>
      </trkpt>
      <trkpt lat="47.26884" lon="-1.64061">
        <ele>40.2</ele>
        <time>2020-06-07T10:53:53Z</time>
      </trkpt>
      <trkpt lat="47.26884" lon="-1.64062">
        <ele>40.2</ele>
        <time>2020-06-07T10:53:54Z</time>
      </trkpt>
      <trkpt lat="47.26884" lon="-1.64063">
        <ele>40.3</ele>
        <time>2020-06-07T10:53:55Z</time>
      </trkpt>
      <trkpt lat="47.26884" lon="-1.64065">
        <ele>40.3</ele>
        <time>2020-06-07T10:53:56Z</time>
      </trkpt>
      <trkpt lat="47.26884" lon="-1.64066">
        <ele>40.4</ele>
        <time>2020-06-07T10:53:57Z</time>
      </trkpt>
      <trkpt lat="47.26885" lon="-1.64067">
        <ele>40.4</ele>
        <time>2020-06-07T10:53:58Z</time>
      </trkpt>
      <trkpt lat="47.26885" lon="-1.64068">
        <ele>40.5</ele>
        <time>2020-06-07T10:53:59Z</time>
      </trkpt>
      <trkpt lat="47.26885" lon="-1.64069">
        <ele>40.5</ele>
        <time>2020-06-07T10:54:00Z</time>
      </trkpt>
      <trkpt lat="47.26885" lon="-1.6407">
        <ele>40.6</ele>
        <time>2020-06-07T10:54:01Z</time>
      </trkpt>
      <trkpt lat="47.26885" lon="-1.64071">
        <ele>40.6</ele>
        <time>2020-06-07T10:54:02Z</time>
      </trkpt>
      <trkpt lat="47.26885" lon="-1.64072">
        <ele>40.7</ele>
        <time>2020-06-07T10:54:03Z</time>
      </trkpt>
      <trkpt lat="47.26885" lon="-1.64074">
        <ele>40.7</ele>
        <time>2020-06-07T10:54:04Z</time>
      </trkpt>
      <trkpt lat="47.26885" lon="-1.64075">
        <ele>40.8</ele>
        <time>2020-06-07T10:54:05Z</time>
      </trkpt>
      <trkpt lat="47.26885" lon="-1.64076">
        <ele>40.8</ele>
        <time>2020-06-07T10:54:06Z</time>
      </trkpt>
      <trkpt lat="47.26885" lon="-1.64077">
        <ele>40.8</ele>
        <time>2020-06-07T10:54:07Z</time>
      </trkpt>
      <trkpt lat="47.26886" lon="-1.64077">
        <ele>40.9</ele>
        <time>2020-06-07T10:54:08Z</time>
      </trkpt>
      <trkpt lat="47.26886" lon="-1.64078">
        <ele>40.9</ele>
        <time>2020-06-07T10:54:09Z</time>
      </trkpt>
      <trkpt lat="47.26886" lon="-1.64079">
        <ele>40.9</ele>
        <time>2020-06-07T10:54:10Z</time>
      </trkpt>
      <trkpt lat="47.26887" lon="-1.6408">
        <ele>40.9</ele>
        <time>2020-06-07T10:54:11Z</time>
      </trkpt>
      <trkpt lat="47.26887" lon="-1.64081">
        <ele>41</ele>
        <time>2020-06-07T10:54:12Z</time>
      </trkpt>
      <trkpt lat="47.26888" lon="-1.64082">
        <ele>41</ele>
        <time>2020-06-07T10:54:13Z</time>
      </trkpt>
      <trkpt lat="47.26888" lon="-1.64083">
        <ele>41</ele>
        <time>2020-06-07T10:54:14Z</time>
      </trkpt>
      <trkpt lat="47.26889" lon="-1.64084">
        <ele>41</ele>
        <time>2020-06-07T10:54:15Z</time>
      </trkpt>
      <trkpt lat="47.2689" lon="-1.64085">
        <ele>41</ele>
        <time>2020-06-07T10:54:16Z</time>
      </trkpt>
      <trkpt lat="47.2689" lon="-1.64086">
        <ele>41</ele>
        <time>2020-06-07T10:54:17Z</time>
      </trkpt>
      <trkpt lat="47.26891" lon="-1.64087">
        <ele>41</ele>
        <time>2020-06-07T10:54:18Z</time>
      </trkpt>
      <trkpt lat="47.26892" lon="-1.64088">
        <ele>41</ele>
        <time>2020-06-07T10:54:19Z</time>
      </trkpt>
      <trkpt lat="47.26893" lon="-1.64089">
        <ele>41</ele>
        <time>2020-06-07T10:54:20Z</time>
      </trkpt>
      <trkpt lat="47.26893" lon="-1.6409">
        <ele>41</ele>
        <time>2020-06-07T10:54:21Z</time>
      </trkpt>
      <trkpt lat="47.26894" lon="-1.6409">
        <ele>41</ele>
        <time>2020-06-07T10:54:22Z</time>
      </trkpt>
      <trkpt lat="47.26894" lon="-1.6409">
        <ele>41</ele>
        <time>2020-06-07T10:54:23Z</time>
      </trkpt>
      <trkpt lat="47.26895" lon="-1.6409">
        <ele>40.9</ele>
        <time>2020-06-07T10:54:24Z</time>
      </trkpt>
      <trkpt lat="47.26895" lon="-1.6409">
        <ele>40.9</ele>
        <time>2020-06-07T10:54:25Z</time>
      </trkpt>
      <trkpt lat="47.26896" lon="-1.64091">
        <ele>40.9</ele>
        <time>2020-06-07T10:54:26Z</time>
      </trkpt>
      <trkpt lat="47.26896" lon="-1.64091">
        <ele>40.9</ele>
        <time>2020-06-07T10:54:27Z</time>
      </trkpt>
      <trkpt lat="47.26897" lon="-1.64092">
        <ele>40.9</ele>
        <time>2020-06-07T10:54:28Z</time>
      </trkpt>
      <trkpt lat="47.26898" lon="-1.64092">
        <ele>40.9</ele>
        <time>2020-06-07T10:54:29Z</time>
      </trkpt>
      <trkpt lat="47.26898" lon="-1.64093">
        <ele>40.8</ele>
        <time>2020-06-07T10:54:30Z</time>
      </trkpt>
      <trkpt lat="47.26899" lon="-1.64093">
        <ele>40.8</ele>
        <time>2020-06-07T10:54:31Z</time>
      </trkpt>
      <trkpt lat="47.26899" lon="-1.64094">
        <ele>40.8</ele>
        <time>2020-06-07T10:54:32Z</time>
      </trkpt>
      <trkpt lat="47.26899" lon="-1.64094">
        <ele>40.8</ele>
        <time>2020-06-07T10:54:33Z</time>
      </trkpt>
      <trkpt lat="47.26899" lon="-1.64094">
        <ele>40.8</ele>
        <time>2020-06-07T10:54:34Z</time>
      </trkpt>
      <trkpt lat="47.26899" lon="-1.64095">
        <ele>40.8</ele>
        <time>2020-06-07T10:54:35Z</time>
      </trkpt>
      <trkpt lat="47.26899" lon="-1.64095">
        <ele>40.8</ele>
        <time>2020-06-07T10:54:36Z</time>
      </trkpt>
      <trkpt lat="47.26899" lon="-1.64095">
        <ele>40.8</ele>
        <time>2020-06-07T10:54:37Z</time>
      </trkpt>
      <trkpt lat="47.269" lon="-1.64096">
        <ele>40.8</ele>
        <time>2020-06-07T10:54:38Z</time>
      </trkpt>
      <trkpt lat="47.269" lon="-1.64097">
        <ele>40.8</ele>
        <time>2020-06-07T10:54:39Z</time>
      </trkpt>
      <trkpt lat="47.26901" lon="-1.64098">
        <ele>40.8</ele>
        <time>2020-06-07T10:54:40Z</time>
      </trkpt>
      <trkpt lat="47.26902" lon="-1.64099">
        <ele>40.8</ele>
        <time>2020-06-07T10:54:41Z</time>
      </trkpt>
      <trkpt lat="47.26903" lon="-1.64099">
        <ele>40.7</ele>
        <time>2020-06-07T10:54:42Z</time>
      </trkpt>
      <trkpt lat="47.26903" lon="-1.641">
        <ele>40.7</ele>
        <time>2020-06-07T10:54:43Z</time>
      </trkpt>
      <trkpt lat="47.26904" lon="-1.64101">
        <ele>40.7</ele>
        <time>2020-06-07T10:54:44Z</time>
      </trkpt>
      <trkpt lat="47.26904" lon="-1.64101">
        <ele>40.7</ele>
        <time>2020-06-07T10:54:45Z</time>
      </trkpt>
      <trkpt lat="47.26904" lon="-1.64102">
        <ele>40.7</ele>
        <time>2020-06-07T10:54:46Z</time>
      </trkpt>
      <trkpt lat="47.26905" lon="-1.64103">
        <ele>40.7</ele>
        <time>2020-06-07T10:54:47Z</time>
      </trkpt>
      <trkpt lat="47.26905" lon="-1.64103">
        <ele>40.7</ele>
        <time>2020-06-07T10:54:48Z</time>
      </trkpt>
      <trkpt lat="47.26905" lon="-1.64104">
        <ele>40.6</ele>
        <time>2020-06-07T10:54:49Z</time>
      </trkpt>
      <trkpt lat="47.26906" lon="-1.64105">
        <ele>40.6</ele>
        <time>2020-06-07T10:54:50Z</time>
      </trkpt>
      <trkpt lat="47.26906" lon="-1.64106">
        <ele>40.6</ele>
        <time>2020-06-07T10:54:51Z</time>
      </trkpt>
      <trkpt lat="47.26906" lon="-1.64107">
        <ele>40.6</ele>
        <time>2020-06-07T10:54:52Z</time>
      </trkpt>
      <trkpt lat="47.26906" lon="-1.64108">
        <ele>40.6</ele>
        <time>2020-06-07T10:54:53Z</time>
      </trkpt>
      <trkpt lat="47.26907" lon="-1.6411">
        <ele>40.6</ele>
        <time>2020-06-07T10:54:54Z</time>
      </trkpt>
      <trkpt lat="47.26907" lon="-1.64111">
        <ele>40.6</ele>
        <time>2020-06-07T10:54:55Z</time>
      </trkpt>
      <trkpt lat="47.26907" lon="-1.64112">
        <ele>40.6</ele>
        <time>2020-06-07T10:54:56Z</time>
      </trkpt>
      <trkpt lat="47.26908" lon="-1.64113">
        <ele>40.6</ele>
        <time>2020-06-07T10:54:57Z</time>
      </trkpt>
      <trkpt lat="47.26908" lon="-1.64115">
        <ele>40.6</ele>
        <time>2020-06-07T10:54:58Z</time>
      </trkpt>
      <trkpt lat="47.26909" lon="-1.64116">
        <ele>40.6</ele>
        <time>2020-06-07T10:54:59Z</time>
      </trkpt>
      <trkpt lat="47.26909" lon="-1.64117">
        <ele>40.5</ele>
        <time>2020-06-07T10:55:00Z</time>
      </trkpt>
      <trkpt lat="47.2691" lon="-1.64118">
        <ele>40.5</ele>
        <time>2020-06-07T10:55:01Z</time>
      </trkpt>
      <trkpt lat="47.2691" lon="-1.64119">
        <ele>40.5</ele>
        <time>2020-06-07T10:55:02Z</time>
      </trkpt>
      <trkpt lat="47.26911" lon="-1.6412">
        <ele>40.4</ele>
        <time>2020-06-07T10:55:03Z</time>
      </trkpt>
      <trkpt lat="47.26911" lon="-1.64121">
        <ele>40.4</ele>
        <time>2020-06-07T10:55:04Z</time>
      </trkpt>
      <trkpt lat="47.26912" lon="-1.64122">
        <ele>40.4</ele>
        <time>2020-06-07T10:55:05Z</time>
      </trkpt>
      <trkpt lat="47.26913" lon="-1.64122">
        <ele>40.3</ele>
        <time>2020-06-07T10:55:06Z</time>
      </trkpt>
      <trkpt lat="47.26913" lon="-1.64123">
        <ele>40.3</ele>
        <time>2020-06-07T10:55:07Z</time>
      </trkpt>
      <trkpt lat="47.26914" lon="-1.64124">
        <ele>40.2</ele>
        <time>2020-06-07T10:55:08Z</time>
      </trkpt>
      <trkpt lat="47.26915" lon="-1.64125">
        <ele>40.1</ele>
        <time>2020-06-07T10:55:09Z</time>
      </trkpt>
      <trkpt lat="47.26916" lon="-1.64126">
        <ele>40.1</ele>
        <time>2020-06-07T10:55:10Z</time>
      </trkpt>
      <trkpt lat="47.26916" lon="-1.64127">
        <ele>40</ele>
        <time>2020-06-07T10:55:11Z</time>
      </trkpt>
      <trkpt lat="47.26917" lon="-1.64128">
        <ele>40</ele>
        <time>2020-06-07T10:55:12Z</time>
      </trkpt>
      <trkpt lat="47.26918" lon="-1.64128">
        <ele>40.1</ele>
        <time>2020-06-07T10:55:13Z</time>
      </trkpt>
      <trkpt lat="47.26919" lon="-1.64129">
        <ele>40.1</ele>
        <time>2020-06-07T10:55:14Z</time>
      </trkpt>
      <trkpt lat="47.26919" lon="-1.6413">
        <ele>40.1</ele>
        <time>2020-06-07T10:55:15Z</time>
      </trkpt>
      <trkpt lat="47.2692" lon="-1.6413">
        <ele>40.2</ele>
        <time>2020-06-07T10:55:16Z</time>
      </trkpt>
      <trkpt lat="47.2692" lon="-1.64131">
        <ele>40.2</ele>
        <time>2020-06-07T10:55:17Z</time>
      </trkpt>
      <trkpt lat="47.26921" lon="-1.64131">
        <ele>40.2</ele>
        <time>2020-06-07T10:55:18Z</time>
      </trkpt>
      <trkpt lat="47.26922" lon="-1.64132">
        <ele>40.2</ele>
        <time>2020-06-07T10:55:19Z</time>
      </trkpt>
      <trkpt lat="47.26922" lon="-1.64132">
        <ele>40.3</ele>
        <time>2020-06-07T10:55:20Z</time>
      </trkpt>
      <trkpt lat="47.26923" lon="-1.64133">
        <ele>40.3</ele>
        <time>2020-06-07T10:55:21Z</time>
      </trkpt>
      <trkpt lat="47.26924" lon="-1.64134">
        <ele>40.3</ele>
        <time>2020-06-07T10:55:22Z</time>
      </trkpt>
      <trkpt lat="47.26924" lon="-1.64135">
        <ele>40.3</ele>
        <time>2020-06-07T10:55:23Z</time>
      </trkpt>
      <trkpt lat="47.26925" lon="-1.64136">
        <ele>40.3</ele>
        <time>2020-06-07T10:55:24Z</time>
      </trkpt>
      <trkpt lat="47.26925" lon="-1.64137">
        <ele>40.4</ele>
        <time>2020-06-07T10:55:25Z</time>
      </trkpt>
      <trkpt lat="47.26926" lon="-1.64139">
        <ele>40.4</ele>
        <time>2020-06-07T10:55:26Z</time>
      </trkpt>
      <trkpt lat="47.26926" lon="-1.6414">
        <ele>40.4</ele>
        <time>2020-06-07T10:55:27Z</time>
      </trkpt>
      <trkpt lat="47.26926" lon="-1.64141">
        <ele>40.4</ele>
        <time>2020-06-07T10:55:28Z</time>
      </trkpt>
      <trkpt lat="47.26926" lon="-1.64143">
        <ele>40.4</ele>
        <time>2020-06-07T10:55:29Z</time>
      </trkpt>
      <trkpt lat="47.26927" lon="-1.64144">
        <ele>40.3</ele>
        <time>2020-06-07T10:55:30Z</time>
      </trkpt>
      <trkpt lat="47.26927" lon="-1.64145">
        <ele>40.3</ele>
        <time>2020-06-07T10:55:31Z</time>
      </trkpt>
      <trkpt lat="47.26927" lon="-1.64146">
        <ele>40.3</ele>
        <time>2020-06-07T10:55:32Z</time>
      </trkpt>
      <trkpt lat="47.26927" lon="-1.64147">
        <ele>40.3</ele>
        <time>2020-06-07T10:55:33Z</time>
      </trkpt>
      <trkpt lat="47.26927" lon="-1.64148">
        <ele>40.3</ele>
        <time>2020-06-07T10:55:34Z</time>
      </trkpt>
      <trkpt lat="47.26927" lon="-1.64149">
        <ele>40.3</ele>
        <time>2020-06-07T10:55:35Z</time>
      </trkpt>
      <trkpt lat="47.26928" lon="-1.6415">
        <ele>40.3</ele>
        <time>2020-06-07T10:55:36Z</time>
      </trkpt>
      <trkpt lat="47.26928" lon="-1.64151">
        <ele>40.3</ele>
        <time>2020-06-07T10:55:37Z</time>
      </trkpt>
      <trkpt lat="47.26928" lon="-1.64152">
        <ele>40.3</ele>
        <time>2020-06-07T10:55:38Z</time>
      </trkpt>
      <trkpt lat="47.26928" lon="-1.64153">
        <ele>40.3</ele>
        <time>2020-06-07T10:55:39Z</time>
      </trkpt>
      <trkpt lat="47.26929" lon="-1.64154">
        <ele>40.3</ele>
        <time>2020-06-07T10:55:40Z</time>
      </trkpt>
      <trkpt lat="47.26929" lon="-1.64155">
        <ele>40.3</ele>
        <time>2020-06-07T10:55:41Z</time>
      </trkpt>
      <trkpt lat="47.26929" lon="-1.64156">
        <ele>40.3</ele>
        <time>2020-06-07T10:55:42Z</time>
      </trkpt>
      <trkpt lat="47.2693" lon="-1.64156">
        <ele>40.3</ele>
        <time>2020-06-07T10:55:43Z</time>
      </trkpt>
      <trkpt lat="47.2693" lon="-1.64157">
        <ele>40.3</ele>
        <time>2020-06-07T10:55:44Z</time>
      </trkpt>
      <trkpt lat="47.26931" lon="-1.64158">
        <ele>40.3</ele>
        <time>2020-06-07T10:55:45Z</time>
      </trkpt>
      <trkpt lat="47.26931" lon="-1.64159">
        <ele>40.3</ele>
        <time>2020-06-07T10:55:46Z</time>
      </trkpt>
      <trkpt lat="47.26932" lon="-1.64159">
        <ele>40.3</ele>
        <time>2020-06-07T10:55:47Z</time>
      </trkpt>
      <trkpt lat="47.26933" lon="-1.6416">
        <ele>40.3</ele>
        <time>2020-06-07T10:55:48Z</time>
      </trkpt>
      <trkpt lat="47.26934" lon="-1.64161">
        <ele>40.3</ele>
        <time>2020-06-07T10:55:49Z</time>
      </trkpt>
      <trkpt lat="47.26934" lon="-1.64162">
        <ele>40.3</ele>
        <time>2020-06-07T10:55:50Z</time>
      </trkpt>
      <trkpt lat="47.26935" lon="-1.64162">
        <ele>40.3</ele>
        <time>2020-06-07T10:55:51Z</time>
      </trkpt>
      <trkpt lat="47.26936" lon="-1.64163">
        <ele>40.3</ele>
        <time>2020-06-07T10:55:52Z</time>
      </trkpt>
      <trkpt lat="47.26936" lon="-1.64163">
        <ele>40.3</ele>
        <time>2020-06-07T10:55:53Z</time>
      </trkpt>
      <trkpt lat="47.26937" lon="-1.64164">
        <ele>40.3</ele>
        <time>2020-06-07T10:55:54Z</time>
      </trkpt>
      <trkpt lat="47.26938" lon="-1.64164">
        <ele>40.3</ele>
        <time>2020-06-07T10:55:55Z</time>
      </trkpt>
      <trkpt lat="47.26938" lon="-1.64165">
        <ele>40.3</ele>
        <time>2020-06-07T10:55:56Z</time>
      </trkpt>
      <trkpt lat="47.26939" lon="-1.64166">
        <ele>40.3</ele>
        <time>2020-06-07T10:55:57Z</time>
      </trkpt>
      <trkpt lat="47.26939" lon="-1.64166">
        <ele>40.3</ele>
        <time>2020-06-07T10:55:58Z</time>
      </trkpt>
      <trkpt lat="47.2694" lon="-1.64167">
        <ele>40.3</ele>
        <time>2020-06-07T10:55:59Z</time>
      </trkpt>
      <trkpt lat="47.26941" lon="-1.64168">
        <ele>40.3</ele>
        <time>2020-06-07T10:56:00Z</time>
      </trkpt>
      <trkpt lat="47.26941" lon="-1.64168">
        <ele>40.3</ele>
        <time>2020-06-07T10:56:01Z</time>
      </trkpt>
      <trkpt lat="47.26942" lon="-1.64169">
        <ele>40.4</ele>
        <time>2020-06-07T10:56:02Z</time>
      </trkpt>
      <trkpt lat="47.26943" lon="-1.6417">
        <ele>40.4</ele>
        <time>2020-06-07T10:56:03Z</time>
      </trkpt>
      <trkpt lat="47.26944" lon="-1.64171">
        <ele>40.4</ele>
        <time>2020-06-07T10:56:04Z</time>
      </trkpt>
      <trkpt lat="47.26944" lon="-1.64172">
        <ele>40.5</ele>
        <time>2020-06-07T10:56:05Z</time>
      </trkpt>
      <trkpt lat="47.26945" lon="-1.64173">
        <ele>40.5</ele>
        <time>2020-06-07T10:56:06Z</time>
      </trkpt>
      <trkpt lat="47.26946" lon="-1.64173">
        <ele>40.5</ele>
        <time>2020-06-07T10:56:07Z</time>
      </trkpt>
      <trkpt lat="47.26947" lon="-1.64174">
        <ele>40.6</ele>
        <time>2020-06-07T10:56:08Z</time>
      </trkpt>
      <trkpt lat="47.26948" lon="-1.64175">
        <ele>40.6</ele>
        <time>2020-06-07T10:56:09Z</time>
      </trkpt>
      <trkpt lat="47.26948" lon="-1.64176">
        <ele>40.6</ele>
        <time>2020-06-07T10:56:10Z</time>
      </trkpt>
      <trkpt lat="47.26949" lon="-1.64177">
        <ele>40.6</ele>
        <time>2020-06-07T10:56:11Z</time>
      </trkpt>
      <trkpt lat="47.2695" lon="-1.64177">
        <ele>40.6</ele>
        <time>2020-06-07T10:56:12Z</time>
      </trkpt>
      <trkpt lat="47.26951" lon="-1.64178">
        <ele>40.6</ele>
        <time>2020-06-07T10:56:13Z</time>
      </trkpt>
      <trkpt lat="47.26951" lon="-1.64179">
        <ele>40.7</ele>
        <time>2020-06-07T10:56:14Z</time>
      </trkpt>
      <trkpt lat="47.26952" lon="-1.6418">
        <ele>40.7</ele>
        <time>2020-06-07T10:56:15Z</time>
      </trkpt>
      <trkpt lat="47.26953" lon="-1.6418">
        <ele>40.7</ele>
        <time>2020-06-07T10:56:16Z</time>
      </trkpt>
      <trkpt lat="47.26953" lon="-1.64181">
        <ele>40.7</ele>
        <time>2020-06-07T10:56:17Z</time>
      </trkpt>
      <trkpt lat="47.26954" lon="-1.64183">
        <ele>40.7</ele>
        <time>2020-06-07T10:56:18Z</time>
      </trkpt>
      <trkpt lat="47.26954" lon="-1.64184">
        <ele>40.7</ele>
        <time>2020-06-07T10:56:19Z</time>
      </trkpt>
      <trkpt lat="47.26955" lon="-1.64185">
        <ele>40.8</ele>
        <time>2020-06-07T10:56:20Z</time>
      </trkpt>
      <trkpt lat="47.26955" lon="-1.64186">
        <ele>40.8</ele>
        <time>2020-06-07T10:56:21Z</time>
      </trkpt>
      <trkpt lat="47.26955" lon="-1.64188">
        <ele>40.8</ele>
        <time>2020-06-07T10:56:22Z</time>
      </trkpt>
      <trkpt lat="47.26956" lon="-1.64189">
        <ele>40.8</ele>
        <time>2020-06-07T10:56:23Z</time>
      </trkpt>
      <trkpt lat="47.26956" lon="-1.6419">
        <ele>40.8</ele>
        <time>2020-06-07T10:56:24Z</time>
      </trkpt>
      <trkpt lat="47.26957" lon="-1.64192">
        <ele>40.8</ele>
        <time>2020-06-07T10:56:25Z</time>
      </trkpt>
      <trkpt lat="47.26957" lon="-1.64193">
        <ele>40.8</ele>
        <time>2020-06-07T10:56:26Z</time>
      </trkpt>
      <trkpt lat="47.26957" lon="-1.64194">
        <ele>40.8</ele>
        <time>2020-06-07T10:56:27Z</time>
      </trkpt>
      <trkpt lat="47.26958" lon="-1.64195">
        <ele>40.9</ele>
        <time>2020-06-07T10:56:28Z</time>
      </trkpt>
      <trkpt lat="47.26958" lon="-1.64196">
        <ele>40.9</ele>
        <time>2020-06-07T10:56:29Z</time>
      </trkpt>
      <trkpt lat="47.26959" lon="-1.64197">
        <ele>40.9</ele>
        <time>2020-06-07T10:56:30Z</time>
      </trkpt>
      <trkpt lat="47.26959" lon="-1.64197">
        <ele>40.9</ele>
        <time>2020-06-07T10:56:31Z</time>
      </trkpt>
      <trkpt lat="47.26959" lon="-1.64198">
        <ele>40.9</ele>
        <time>2020-06-07T10:56:32Z</time>
      </trkpt>
      <trkpt lat="47.2696" lon="-1.64199">
        <ele>40.9</ele>
        <time>2020-06-07T10:56:33Z</time>
      </trkpt>
      <trkpt lat="47.2696" lon="-1.642">
        <ele>40.8</ele>
        <time>2020-06-07T10:56:34Z</time>
      </trkpt>
      <trkpt lat="47.26961" lon="-1.64201">
        <ele>40.8</ele>
        <time>2020-06-07T10:56:35Z</time>
      </trkpt>
      <trkpt lat="47.26961" lon="-1.64202">
        <ele>40.8</ele>
        <time>2020-06-07T10:56:36Z</time>
      </trkpt>
      <trkpt lat="47.26962" lon="-1.64203">
        <ele>40.8</ele>
        <time>2020-06-07T10:56:37Z</time>
      </trkpt>
      <trkpt lat="47.26962" lon="-1.64204">
        <ele>40.8</ele>
        <time>2020-06-07T10:56:38Z</time>
      </trkpt>
      <trkpt lat="47.26963" lon="-1.64206">
        <ele>40.8</ele>
        <time>2020-06-07T10:56:39Z</time>
      </trkpt>
      <trkpt lat="47.26964" lon="-1.64207">
        <ele>40.8</ele>
        <time>2020-06-07T10:56:40Z</time>
      </trkpt>
      <trkpt lat="47.26964" lon="-1.64208">
        <ele>40.8</ele>
        <time>2020-06-07T10:56:41Z</time>
      </trkpt>
      <trkpt lat="47.26965" lon="-1.64209">
        <ele>40.8</ele>
        <time>2020-06-07T10:56:42Z</time>
      </trkpt>
      <trkpt lat="47.26966" lon="-1.6421">
        <ele>40.7</ele>
        <time>2020-06-07T10:56:43Z</time>
      </trkpt>
      <trkpt lat="47.26966" lon="-1.64211">
        <ele>40.7</ele>
        <time>2020-06-07T10:56:44Z</time>
      </trkpt>
      <trkpt lat="47.26967" lon="-1.64211">
        <ele>40.7</ele>
        <time>2020-06-07T10:56:45Z</time>
      </trkpt>
      <trkpt lat="47.26968" lon="-1.64212">
        <ele>40.7</ele>
        <time>2020-06-07T10:56:46Z</time>
      </trkpt>
      <trkpt lat="47.26969" lon="-1.64213">
        <ele>40.6</ele>
        <time>2020-06-07T10:56:47Z</time>
      </trkpt>
      <trkpt lat="47.2697" lon="-1.64213">
        <ele>40.6</ele>
        <time>2020-06-07T10:56:48Z</time>
      </trkpt>
      <trkpt lat="47.26971" lon="-1.64213">
        <ele>40.5</ele>
        <time>2020-06-07T10:56:49Z</time>
      </trkpt>
      <trkpt lat="47.26972" lon="-1.64214">
        <ele>40.5</ele>
        <time>2020-06-07T10:56:50Z</time>
      </trkpt>
      <trkpt lat="47.26973" lon="-1.64214">
        <ele>40.4</ele>
        <time>2020-06-07T10:56:51Z</time>
      </trkpt>
      <trkpt lat="47.26974" lon="-1.64214">
        <ele>40.4</ele>
        <time>2020-06-07T10:56:52Z</time>
      </trkpt>
      <trkpt lat="47.26975" lon="-1.64214">
        <ele>40.3</ele>
        <time>2020-06-07T10:56:53Z</time>
      </trkpt>
      <trkpt lat="47.26976" lon="-1.64215">
        <ele>40.3</ele>
        <time>2020-06-07T10:56:54Z</time>
      </trkpt>
      <trkpt lat="47.26978" lon="-1.64215">
        <ele>40.2</ele>
        <time>2020-06-07T10:56:55Z</time>
      </trkpt>
      <trkpt lat="47.26979" lon="-1.64215">
        <ele>40.2</ele>
        <time>2020-06-07T10:56:56Z</time>
      </trkpt>
      <trkpt lat="47.2698" lon="-1.64215">
        <ele>40.1</ele>
        <time>2020-06-07T10:56:57Z</time>
      </trkpt>
      <trkpt lat="47.26981" lon="-1.64216">
        <ele>40.1</ele>
        <time>2020-06-07T10:56:58Z</time>
      </trkpt>
      <trkpt lat="47.26982" lon="-1.64216">
        <ele>40</ele>
        <time>2020-06-07T10:56:59Z</time>
      </trkpt>
      <trkpt lat="47.26983" lon="-1.64216">
        <ele>40</ele>
        <time>2020-06-07T10:57:00Z</time>
      </trkpt>
      <trkpt lat="47.26984" lon="-1.64217">
        <ele>39.9</ele>
        <time>2020-06-07T10:57:01Z</time>
      </trkpt>
      <trkpt lat="47.26985" lon="-1.64217">
        <ele>39.9</ele>
        <time>2020-06-07T10:57:02Z</time>
      </trkpt>
      <trkpt lat="47.26985" lon="-1.64218">
        <ele>39.9</ele>
        <time>2020-06-07T10:57:03Z</time>
      </trkpt>
      <trkpt lat="47.26986" lon="-1.64218">
        <ele>39.8</ele>
        <time>2020-06-07T10:57:04Z</time>
      </trkpt>
      <trkpt lat="47.26986" lon="-1.64219">
        <ele>39.8</ele>
        <time>2020-06-07T10:57:05Z</time>
      </trkpt>
      <trkpt lat="47.26987" lon="-1.6422">
        <ele>39.7</ele>
        <time>2020-06-07T10:57:06Z</time>
      </trkpt>
      <trkpt lat="47.26987" lon="-1.64221">
        <ele>39.7</ele>
        <time>2020-06-07T10:57:07Z</time>
      </trkpt>
      <trkpt lat="47.26988" lon="-1.64222">
        <ele>39.7</ele>
        <time>2020-06-07T10:57:08Z</time>
      </trkpt>
      <trkpt lat="47.26988" lon="-1.64223">
        <ele>39.6</ele>
        <time>2020-06-07T10:57:09Z</time>
      </trkpt>
      <trkpt lat="47.26988" lon="-1.64224">
        <ele>39.6</ele>
        <time>2020-06-07T10:57:10Z</time>
      </trkpt>
      <trkpt lat="47.26989" lon="-1.64225">
        <ele>39.5</ele>
        <time>2020-06-07T10:57:11Z</time>
      </trkpt>
      <trkpt lat="47.26989" lon="-1.64226">
        <ele>39.5</ele>
        <time>2020-06-07T10:57:12Z</time>
      </trkpt>
      <trkpt lat="47.2699" lon="-1.64228">
        <ele>39.4</ele>
        <time>2020-06-07T10:57:13Z</time>
      </trkpt>
      <trkpt lat="47.2699" lon="-1.64229">
        <ele>39.4</ele>
        <time>2020-06-07T10:57:14Z</time>
      </trkpt>
      <trkpt lat="47.2699" lon="-1.6423">
        <ele>39.3</ele>
        <time>2020-06-07T10:57:15Z</time>
      </trkpt>
      <trkpt lat="47.26991" lon="-1.64231">
        <ele>39.3</ele>
        <time>2020-06-07T10:57:16Z</time>
      </trkpt>
      <trkpt lat="47.26991" lon="-1.64232">
        <ele>39.2</ele>
        <time>2020-06-07T10:57:17Z</time>
      </trkpt>
      <trkpt lat="47.26992" lon="-1.64233">
        <ele>39.2</ele>
        <time>2020-06-07T10:57:18Z</time>
      </trkpt>
      <trkpt lat="47.26992" lon="-1.64234">
        <ele>39.1</ele>
        <time>2020-06-07T10:57:19Z</time>
      </trkpt>
      <trkpt lat="47.26992" lon="-1.64235">
        <ele>39.1</ele>
        <time>2020-06-07T10:57:20Z</time>
      </trkpt>
      <trkpt lat="47.26992" lon="-1.64236">
        <ele>39</ele>
        <time>2020-06-07T10:57:21Z</time>
      </trkpt>
      <trkpt lat="47.26992" lon="-1.64236">
        <ele>39</ele>
        <time>2020-06-07T10:57:22Z</time>
      </trkpt>
      <trkpt lat="47.26992" lon="-1.64237">
        <ele>39</ele>
        <time>2020-06-07T10:57:23Z</time>
      </trkpt>
      <trkpt lat="47.26992" lon="-1.64238">
        <ele>39</ele>
        <time>2020-06-07T10:57:24Z</time>
      </trkpt>
      <trkpt lat="47.26993" lon="-1.64239">
        <ele>38.9</ele>
        <time>2020-06-07T10:57:25Z</time>
      </trkpt>
      <trkpt lat="47.26993" lon="-1.64239">
        <ele>38.9</ele>
        <time>2020-06-07T10:57:26Z</time>
      </trkpt>
      <trkpt lat="47.26993" lon="-1.6424">
        <ele>38.9</ele>
        <time>2020-06-07T10:57:27Z</time>
      </trkpt>
      <trkpt lat="47.26993" lon="-1.64241">
        <ele>38.8</ele>
        <time>2020-06-07T10:57:28Z</time>
      </trkpt>
      <trkpt lat="47.26994" lon="-1.64242">
        <ele>38.8</ele>
        <time>2020-06-07T10:57:29Z</time>
      </trkpt>
      <trkpt lat="47.26994" lon="-1.64243">
        <ele>38.7</ele>
        <time>2020-06-07T10:57:30Z</time>
      </trkpt>
      <trkpt lat="47.26994" lon="-1.64244">
        <ele>38.7</ele>
        <time>2020-06-07T10:57:31Z</time>
      </trkpt>
      <trkpt lat="47.26994" lon="-1.64245">
        <ele>38.6</ele>
        <time>2020-06-07T10:57:32Z</time>
      </trkpt>
      <trkpt lat="47.26994" lon="-1.64245">
        <ele>38.6</ele>
        <time>2020-06-07T10:57:33Z</time>
      </trkpt>
      <trkpt lat="47.26994" lon="-1.64245">
        <ele>38.6</ele>
        <time>2020-06-07T10:57:34Z</time>
      </trkpt>
      <trkpt lat="47.26994" lon="-1.64245">
        <ele>38.6</ele>
        <time>2020-06-07T10:57:35Z</time>
      </trkpt>
      <trkpt lat="47.26995" lon="-1.64246">
        <ele>38.6</ele>
        <time>2020-06-07T10:57:36Z</time>
      </trkpt>
      <trkpt lat="47.26995" lon="-1.64248">
        <ele>38.4</ele>
        <time>2020-06-07T10:57:37Z</time>
      </trkpt>
      <trkpt lat="47.26996" lon="-1.6425">
        <ele>38.3</ele>
        <time>2020-06-07T10:57:38Z</time>
      </trkpt>
      <trkpt lat="47.26997" lon="-1.64253">
        <ele>38.3</ele>
        <time>2020-06-07T10:57:39Z</time>
      </trkpt>
      <trkpt lat="47.26998" lon="-1.64254">
        <ele>38.2</ele>
        <time>2020-06-07T10:57:40Z</time>
      </trkpt>
      <trkpt lat="47.26999" lon="-1.64255">
        <ele>38.2</ele>
        <time>2020-06-07T10:57:41Z</time>
      </trkpt>
      <trkpt lat="47.26999" lon="-1.64256">
        <ele>38.1</ele>
        <time>2020-06-07T10:57:42Z</time>
      </trkpt>
      <trkpt lat="47.27" lon="-1.64257">
        <ele>38.1</ele>
        <time>2020-06-07T10:57:43Z</time>
      </trkpt>
      <trkpt lat="47.27001" lon="-1.64258">
        <ele>38.2</ele>
        <time>2020-06-07T10:57:44Z</time>
      </trkpt>
      <trkpt lat="47.27002" lon="-1.64259">
        <ele>38.3</ele>
        <time>2020-06-07T10:57:45Z</time>
      </trkpt>
      <trkpt lat="47.27002" lon="-1.6426">
        <ele>38.3</ele>
        <time>2020-06-07T10:57:46Z</time>
      </trkpt>
      <trkpt lat="47.27002" lon="-1.64261">
        <ele>38.4</ele>
        <time>2020-06-07T10:57:47Z</time>
      </trkpt>
      <trkpt lat="47.27003" lon="-1.64262">
        <ele>38.5</ele>
        <time>2020-06-07T10:57:48Z</time>
      </trkpt>
      <trkpt lat="47.27003" lon="-1.64263">
        <ele>38.5</ele>
        <time>2020-06-07T10:57:49Z</time>
      </trkpt>
      <trkpt lat="47.27003" lon="-1.64264">
        <ele>38.5</ele>
        <time>2020-06-07T10:57:50Z</time>
      </trkpt>
      <trkpt lat="47.27004" lon="-1.64265">
        <ele>38.6</ele>
        <time>2020-06-07T10:57:51Z</time>
      </trkpt>
      <trkpt lat="47.27004" lon="-1.64266">
        <ele>38.6</ele>
        <time>2020-06-07T10:57:52Z</time>
      </trkpt>
      <trkpt lat="47.27004" lon="-1.64267">
        <ele>38.6</ele>
        <time>2020-06-07T10:57:53Z</time>
      </trkpt>
      <trkpt lat="47.27004" lon="-1.64268">
        <ele>38.7</ele>
        <time>2020-06-07T10:57:54Z</time>
      </trkpt>
      <trkpt lat="47.27005" lon="-1.64268">
        <ele>38.7</ele>
        <time>2020-06-07T10:57:55Z</time>
      </trkpt>
      <trkpt lat="47.27005" lon="-1.64269">
        <ele>38.8</ele>
        <time>2020-06-07T10:57:56Z</time>
      </trkpt>
      <trkpt lat="47.27005" lon="-1.6427">
        <ele>38.8</ele>
        <time>2020-06-07T10:57:57Z</time>
      </trkpt>
      <trkpt lat="47.27006" lon="-1.6427">
        <ele>38.8</ele>
        <time>2020-06-07T10:57:58Z</time>
      </trkpt>
      <trkpt lat="47.27006" lon="-1.6427">
        <ele>38.8</ele>
        <time>2020-06-07T10:57:59Z</time>
      </trkpt>
      <trkpt lat="47.27006" lon="-1.64271">
        <ele>38.8</ele>
        <time>2020-06-07T10:58:00Z</time>
      </trkpt>
      <trkpt lat="47.27006" lon="-1.64272">
        <ele>38.9</ele>
        <time>2020-06-07T10:58:01Z</time>
      </trkpt>
      <trkpt lat="47.27006" lon="-1.64274">
        <ele>38.9</ele>
        <time>2020-06-07T10:58:02Z</time>
      </trkpt>
      <trkpt lat="47.27007" lon="-1.64276">
        <ele>39</ele>
        <time>2020-06-07T10:58:03Z</time>
      </trkpt>
      <trkpt lat="47.27007" lon="-1.64278">
        <ele>39</ele>
        <time>2020-06-07T10:58:04Z</time>
      </trkpt>
      <trkpt lat="47.27007" lon="-1.64279">
        <ele>39.1</ele>
        <time>2020-06-07T10:58:05Z</time>
      </trkpt>
      <trkpt lat="47.27008" lon="-1.6428">
        <ele>39.1</ele>
        <time>2020-06-07T10:58:06Z</time>
      </trkpt>
      <trkpt lat="47.27008" lon="-1.64281">
        <ele>39.1</ele>
        <time>2020-06-07T10:58:07Z</time>
      </trkpt>
      <trkpt lat="47.27008" lon="-1.64282">
        <ele>39.2</ele>
        <time>2020-06-07T10:58:08Z</time>
      </trkpt>
      <trkpt lat="47.27009" lon="-1.64283">
        <ele>39.2</ele>
        <time>2020-06-07T10:58:09Z</time>
      </trkpt>
      <trkpt lat="47.27009" lon="-1.64285">
        <ele>39.3</ele>
        <time>2020-06-07T10:58:10Z</time>
      </trkpt>
      <trkpt lat="47.27009" lon="-1.64286">
        <ele>39.3</ele>
        <time>2020-06-07T10:58:11Z</time>
      </trkpt>
      <trkpt lat="47.2701" lon="-1.64287">
        <ele>39.3</ele>
        <time>2020-06-07T10:58:12Z</time>
      </trkpt>
      <trkpt lat="47.2701" lon="-1.64288">
        <ele>39.4</ele>
        <time>2020-06-07T10:58:13Z</time>
      </trkpt>
      <trkpt lat="47.2701" lon="-1.64289">
        <ele>39.4</ele>
        <time>2020-06-07T10:58:14Z</time>
      </trkpt>
      <trkpt lat="47.27011" lon="-1.6429">
        <ele>39.4</ele>
        <time>2020-06-07T10:58:15Z</time>
      </trkpt>
      <trkpt lat="47.27011" lon="-1.64291">
        <ele>39.5</ele>
        <time>2020-06-07T10:58:16Z</time>
      </trkpt>
      <trkpt lat="47.27011" lon="-1.64292">
        <ele>39.5</ele>
        <time>2020-06-07T10:58:17Z</time>
      </trkpt>
      <trkpt lat="47.27011" lon="-1.64293">
        <ele>39.5</ele>
        <time>2020-06-07T10:58:18Z</time>
      </trkpt>
      <trkpt lat="47.27011" lon="-1.64293">
        <ele>39.5</ele>
        <time>2020-06-07T10:58:19Z</time>
      </trkpt>
      <trkpt lat="47.27011" lon="-1.64294">
        <ele>39.5</ele>
        <time>2020-06-07T10:58:20Z</time>
      </trkpt>
      <trkpt lat="47.27011" lon="-1.64295">
        <ele>39.5</ele>
        <time>2020-06-07T10:58:21Z</time>
      </trkpt>
      <trkpt lat="47.27011" lon="-1.64296">
        <ele>39.5</ele>
        <time>2020-06-07T10:58:22Z</time>
      </trkpt>
      <trkpt lat="47.2701" lon="-1.64296">
        <ele>39.4</ele>
        <time>2020-06-07T10:58:23Z</time>
      </trkpt>
      <trkpt lat="47.2701" lon="-1.64297">
        <ele>39.4</ele>
        <time>2020-06-07T10:58:24Z</time>
      </trkpt>
      <trkpt lat="47.2701" lon="-1.64298">
        <ele>39.4</ele>
        <time>2020-06-07T10:58:25Z</time>
      </trkpt>
      <trkpt lat="47.27009" lon="-1.64299">
        <ele>39.4</ele>
        <time>2020-06-07T10:58:26Z</time>
      </trkpt>
      <trkpt lat="47.27009" lon="-1.643">
        <ele>39.3</ele>
        <time>2020-06-07T10:58:27Z</time>
      </trkpt>
      <trkpt lat="47.27008" lon="-1.64301">
        <ele>39.3</ele>
        <time>2020-06-07T10:58:28Z</time>
      </trkpt>
      <trkpt lat="47.27008" lon="-1.64302">
        <ele>39.3</ele>
        <time>2020-06-07T10:58:29Z</time>
      </trkpt>
      <trkpt lat="47.27007" lon="-1.64304">
        <ele>39.2</ele>
        <time>2020-06-07T10:58:30Z</time>
      </trkpt>
      <trkpt lat="47.27007" lon="-1.64304">
        <ele>39.2</ele>
        <time>2020-06-07T10:58:31Z</time>
      </trkpt>
      <trkpt lat="47.27007" lon="-1.64305">
        <ele>39.2</ele>
        <time>2020-06-07T10:58:32Z</time>
      </trkpt>
      <trkpt lat="47.27007" lon="-1.64305">
        <ele>39.2</ele>
        <time>2020-06-07T10:58:33Z</time>
      </trkpt>
      <trkpt lat="47.27006" lon="-1.64305">
        <ele>39.2</ele>
        <time>2020-06-07T10:58:34Z</time>
      </trkpt>
      <trkpt lat="47.27006" lon="-1.64306">
        <ele>39.2</ele>
        <time>2020-06-07T10:58:35Z</time>
      </trkpt>
      <trkpt lat="47.27006" lon="-1.64308">
        <ele>39.1</ele>
        <time>2020-06-07T10:58:36Z</time>
      </trkpt>
      <trkpt lat="47.27005" lon="-1.64309">
        <ele>39.1</ele>
        <time>2020-06-07T10:58:37Z</time>
      </trkpt>
      <trkpt lat="47.27005" lon="-1.6431">
        <ele>39.1</ele>
        <time>2020-06-07T10:58:38Z</time>
      </trkpt>
      <trkpt lat="47.27005" lon="-1.64311">
        <ele>39.1</ele>
        <time>2020-06-07T10:58:39Z</time>
      </trkpt>
      <trkpt lat="47.27005" lon="-1.64312">
        <ele>39.1</ele>
        <time>2020-06-07T10:58:40Z</time>
      </trkpt>
      <trkpt lat="47.27005" lon="-1.64312">
        <ele>39.1</ele>
        <time>2020-06-07T10:58:41Z</time>
      </trkpt>
      <trkpt lat="47.27005" lon="-1.64312">
        <ele>39.1</ele>
        <time>2020-06-07T10:58:42Z</time>
      </trkpt>
      <trkpt lat="47.27005" lon="-1.64312">
        <ele>39.1</ele>
        <time>2020-06-07T10:58:43Z</time>
      </trkpt>
      <trkpt lat="47.27005" lon="-1.64312">
        <ele>39.1</ele>
        <time>2020-06-07T10:58:44Z</time>
      </trkpt>
      <trkpt lat="47.27005" lon="-1.64313">
        <ele>39.1</ele>
        <time>2020-06-07T10:58:45Z</time>
      </trkpt>
      <trkpt lat="47.27005" lon="-1.64313">
        <ele>39.1</ele>
        <time>2020-06-07T10:58:46Z</time>
      </trkpt>
      <trkpt lat="47.27005" lon="-1.64314">
        <ele>39.1</ele>
        <time>2020-06-07T10:58:47Z</time>
      </trkpt>
      <trkpt lat="47.27005" lon="-1.64316">
        <ele>39.2</ele>
        <time>2020-06-07T10:58:48Z</time>
      </trkpt>
      <trkpt lat="47.27005" lon="-1.64318">
        <ele>39.2</ele>
        <time>2020-06-07T10:58:49Z</time>
      </trkpt>
      <trkpt lat="47.27005" lon="-1.6432">
        <ele>39.2</ele>
        <time>2020-06-07T10:58:50Z</time>
      </trkpt>
      <trkpt lat="47.27006" lon="-1.64323">
        <ele>39.3</ele>
        <time>2020-06-07T10:58:51Z</time>
      </trkpt>
      <trkpt lat="47.27006" lon="-1.64326">
        <ele>39.3</ele>
        <time>2020-06-07T10:58:52Z</time>
      </trkpt>
      <trkpt lat="47.27007" lon="-1.64328">
        <ele>39.4</ele>
        <time>2020-06-07T10:58:53Z</time>
      </trkpt>
      <trkpt lat="47.27007" lon="-1.64329">
        <ele>39.4</ele>
        <time>2020-06-07T10:58:54Z</time>
      </trkpt>
      <trkpt lat="47.27007" lon="-1.6433">
        <ele>39.4</ele>
        <time>2020-06-07T10:58:55Z</time>
      </trkpt>
      <trkpt lat="47.27008" lon="-1.64331">
        <ele>39.4</ele>
        <time>2020-06-07T10:58:56Z</time>
      </trkpt>
      <trkpt lat="47.27008" lon="-1.64332">
        <ele>39.5</ele>
        <time>2020-06-07T10:58:57Z</time>
      </trkpt>
      <trkpt lat="47.27008" lon="-1.64333">
        <ele>39.5</ele>
        <time>2020-06-07T10:58:58Z</time>
      </trkpt>
      <trkpt lat="47.27009" lon="-1.64335">
        <ele>39.5</ele>
        <time>2020-06-07T10:58:59Z</time>
      </trkpt>
      <trkpt lat="47.27009" lon="-1.64336">
        <ele>39.6</ele>
        <time>2020-06-07T10:59:00Z</time>
      </trkpt>
      <trkpt lat="47.27009" lon="-1.64337">
        <ele>39.6</ele>
        <time>2020-06-07T10:59:01Z</time>
      </trkpt>
      <trkpt lat="47.27009" lon="-1.64338">
        <ele>39.6</ele>
        <time>2020-06-07T10:59:02Z</time>
      </trkpt>
      <trkpt lat="47.2701" lon="-1.6434">
        <ele>39.6</ele>
        <time>2020-06-07T10:59:03Z</time>
      </trkpt>
      <trkpt lat="47.2701" lon="-1.64341">
        <ele>39.7</ele>
        <time>2020-06-07T10:59:04Z</time>
      </trkpt>
      <trkpt lat="47.2701" lon="-1.64343">
        <ele>39.7</ele>
        <time>2020-06-07T10:59:05Z</time>
      </trkpt>
      <trkpt lat="47.2701" lon="-1.64345">
        <ele>39.7</ele>
        <time>2020-06-07T10:59:06Z</time>
      </trkpt>
      <trkpt lat="47.27011" lon="-1.64346">
        <ele>39.7</ele>
        <time>2020-06-07T10:59:07Z</time>
      </trkpt>
      <trkpt lat="47.27011" lon="-1.64348">
        <ele>39.8</ele>
        <time>2020-06-07T10:59:08Z</time>
      </trkpt>
      <trkpt lat="47.27011" lon="-1.64349">
        <ele>39.8</ele>
        <time>2020-06-07T10:59:09Z</time>
      </trkpt>
      <trkpt lat="47.27011" lon="-1.64351">
        <ele>39.8</ele>
        <time>2020-06-07T10:59:10Z</time>
      </trkpt>
      <trkpt lat="47.27011" lon="-1.64352">
        <ele>39.8</ele>
        <time>2020-06-07T10:59:11Z</time>
      </trkpt>
      <trkpt lat="47.27011" lon="-1.64353">
        <ele>39.8</ele>
        <time>2020-06-07T10:59:12Z</time>
      </trkpt>
      <trkpt lat="47.27011" lon="-1.64353">
        <ele>39.8</ele>
        <time>2020-06-07T10:59:13Z</time>
      </trkpt>
      <trkpt lat="47.27011" lon="-1.64354">
        <ele>39.8</ele>
        <time>2020-06-07T10:59:14Z</time>
      </trkpt>
      <trkpt lat="47.27012" lon="-1.64355">
        <ele>39.8</ele>
        <time>2020-06-07T10:59:15Z</time>
      </trkpt>
      <trkpt lat="47.27012" lon="-1.64356">
        <ele>39.9</ele>
        <time>2020-06-07T10:59:16Z</time>
      </trkpt>
      <trkpt lat="47.27012" lon="-1.64357">
        <ele>39.9</ele>
        <time>2020-06-07T10:59:17Z</time>
      </trkpt>
      <trkpt lat="47.27012" lon="-1.64358">
        <ele>39.9</ele>
        <time>2020-06-07T10:59:18Z</time>
      </trkpt>
      <trkpt lat="47.27013" lon="-1.6436">
        <ele>39.9</ele>
        <time>2020-06-07T10:59:19Z</time>
      </trkpt>
      <trkpt lat="47.27013" lon="-1.64362">
        <ele>40</ele>
        <time>2020-06-07T10:59:20Z</time>
      </trkpt>
      <trkpt lat="47.27013" lon="-1.64363">
        <ele>40</ele>
        <time>2020-06-07T10:59:21Z</time>
      </trkpt>
      <trkpt lat="47.27013" lon="-1.64365">
        <ele>40</ele>
        <time>2020-06-07T10:59:22Z</time>
      </trkpt>
      <trkpt lat="47.27013" lon="-1.64366">
        <ele>40</ele>
        <time>2020-06-07T10:59:23Z</time>
      </trkpt>
      <trkpt lat="47.27013" lon="-1.64368">
        <ele>40</ele>
        <time>2020-06-07T10:59:24Z</time>
      </trkpt>
      <trkpt lat="47.27013" lon="-1.64369">
        <ele>40</ele>
        <time>2020-06-07T10:59:25Z</time>
      </trkpt>
      <trkpt lat="47.27013" lon="-1.64371">
        <ele>40</ele>
        <time>2020-06-07T10:59:26Z</time>
      </trkpt>
      <trkpt lat="47.27013" lon="-1.64372">
        <ele>40</ele>
        <time>2020-06-07T10:59:27Z</time>
      </trkpt>
      <trkpt lat="47.27013" lon="-1.64374">
        <ele>40</ele>
        <time>2020-06-07T10:59:28Z</time>
      </trkpt>
      <trkpt lat="47.27013" lon="-1.64375">
        <ele>40</ele>
        <time>2020-06-07T10:59:29Z</time>
      </trkpt>
      <trkpt lat="47.27013" lon="-1.64377">
        <ele>40</ele>
        <time>2020-06-07T10:59:30Z</time>
      </trkpt>
      <trkpt lat="47.27013" lon="-1.64378">
        <ele>40</ele>
        <time>2020-06-07T10:59:31Z</time>
      </trkpt>
      <trkpt lat="47.27012" lon="-1.6438">
        <ele>40</ele>
        <time>2020-06-07T10:59:32Z</time>
      </trkpt>
      <trkpt lat="47.27012" lon="-1.64381">
        <ele>40</ele>
        <time>2020-06-07T10:59:33Z</time>
      </trkpt>
      <trkpt lat="47.27012" lon="-1.64383">
        <ele>40</ele>
        <time>2020-06-07T10:59:34Z</time>
      </trkpt>
      <trkpt lat="47.27011" lon="-1.64384">
        <ele>40</ele>
        <time>2020-06-07T10:59:35Z</time>
      </trkpt>
      <trkpt lat="47.27011" lon="-1.64386">
        <ele>40</ele>
        <time>2020-06-07T10:59:36Z</time>
      </trkpt>
      <trkpt lat="47.27011" lon="-1.64387">
        <ele>40</ele>
        <time>2020-06-07T10:59:37Z</time>
      </trkpt>
      <trkpt lat="47.2701" lon="-1.64389">
        <ele>40</ele>
        <time>2020-06-07T10:59:38Z</time>
      </trkpt>
      <trkpt lat="47.2701" lon="-1.6439">
        <ele>40</ele>
        <time>2020-06-07T10:59:39Z</time>
      </trkpt>
      <trkpt lat="47.2701" lon="-1.64391">
        <ele>40</ele>
        <time>2020-06-07T10:59:40Z</time>
      </trkpt>
      <trkpt lat="47.2701" lon="-1.64393">
        <ele>40</ele>
        <time>2020-06-07T10:59:41Z</time>
      </trkpt>
      <trkpt lat="47.2701" lon="-1.64394">
        <ele>40.1</ele>
        <time>2020-06-07T10:59:42Z</time>
      </trkpt>
      <trkpt lat="47.27009" lon="-1.64396">
        <ele>40.1</ele>
        <time>2020-06-07T10:59:43Z</time>
      </trkpt>
      <trkpt lat="47.27009" lon="-1.64397">
        <ele>40.1</ele>
        <time>2020-06-07T10:59:44Z</time>
      </trkpt>
      <trkpt lat="47.27009" lon="-1.64398">
        <ele>40.1</ele>
        <time>2020-06-07T10:59:45Z</time>
      </trkpt>
      <trkpt lat="47.27009" lon="-1.644">
        <ele>40.1</ele>
        <time>2020-06-07T10:59:46Z</time>
      </trkpt>
      <trkpt lat="47.27009" lon="-1.64401">
        <ele>40.1</ele>
        <time>2020-06-07T10:59:47Z</time>
      </trkpt>
      <trkpt lat="47.27009" lon="-1.64403">
        <ele>40.1</ele>
        <time>2020-06-07T10:59:48Z</time>
      </trkpt>
      <trkpt lat="47.27009" lon="-1.64404">
        <ele>40.1</ele>
        <time>2020-06-07T10:59:49Z</time>
      </trkpt>
      <trkpt lat="47.27008" lon="-1.64405">
        <ele>40.1</ele>
        <time>2020-06-07T10:59:50Z</time>
      </trkpt>
      <trkpt lat="47.27008" lon="-1.64407">
        <ele>40.1</ele>
        <time>2020-06-07T10:59:51Z</time>
      </trkpt>
      <trkpt lat="47.27008" lon="-1.64408">
        <ele>40.1</ele>
        <time>2020-06-07T10:59:52Z</time>
      </trkpt>
      <trkpt lat="47.27008" lon="-1.64409">
        <ele>40.1</ele>
        <time>2020-06-07T10:59:53Z</time>
      </trkpt>
      <trkpt lat="47.27008" lon="-1.6441">
        <ele>40.1</ele>
        <time>2020-06-07T10:59:54Z</time>
      </trkpt>
      <trkpt lat="47.27008" lon="-1.64412">
        <ele>40.1</ele>
        <time>2020-06-07T10:59:55Z</time>
      </trkpt>
      <trkpt lat="47.27008" lon="-1.64413">
        <ele>40.2</ele>
        <time>2020-06-07T10:59:56Z</time>
      </trkpt>
      <trkpt lat="47.27008" lon="-1.64414">
        <ele>40.2</ele>
        <time>2020-06-07T10:59:57Z</time>
      </trkpt>
      <trkpt lat="47.27008" lon="-1.64415">
        <ele>40.2</ele>
        <time>2020-06-07T10:59:58Z</time>
      </trkpt>
      <trkpt lat="47.27008" lon="-1.64417">
        <ele>40.2</ele>
        <time>2020-06-07T10:59:59Z</time>
      </trkpt>
      <trkpt lat="47.27008" lon="-1.64418">
        <ele>40.2</ele>
        <time>2020-06-07T11:00:00Z</time>
      </trkpt>
      <trkpt lat="47.27007" lon="-1.64419">
        <ele>40.1</ele>
        <time>2020-06-07T11:00:01Z</time>
      </trkpt>
      <trkpt lat="47.27007" lon="-1.6442">
        <ele>40.1</ele>
        <time>2020-06-07T11:00:02Z</time>
      </trkpt>
      <trkpt lat="47.27007" lon="-1.64422">
        <ele>40.1</ele>
        <time>2020-06-07T11:00:03Z</time>
      </trkpt>
      <trkpt lat="47.27007" lon="-1.64423">
        <ele>40</ele>
        <time>2020-06-07T11:00:04Z</time>
      </trkpt>
      <trkpt lat="47.27007" lon="-1.64424">
        <ele>40</ele>
        <time>2020-06-07T11:00:05Z</time>
      </trkpt>
      <trkpt lat="47.27007" lon="-1.64425">
        <ele>40</ele>
        <time>2020-06-07T11:00:06Z</time>
      </trkpt>
      <trkpt lat="47.27007" lon="-1.64426">
        <ele>39.9</ele>
        <time>2020-06-07T11:00:07Z</time>
      </trkpt>
      <trkpt lat="47.27006" lon="-1.64427">
        <ele>39.9</ele>
        <time>2020-06-07T11:00:08Z</time>
      </trkpt>
      <trkpt lat="47.27006" lon="-1.64429">
        <ele>39.9</ele>
        <time>2020-06-07T11:00:09Z</time>
      </trkpt>
      <trkpt lat="47.27006" lon="-1.6443">
        <ele>39.8</ele>
        <time>2020-06-07T11:00:10Z</time>
      </trkpt>
      <trkpt lat="47.27006" lon="-1.64431">
        <ele>39.8</ele>
        <time>2020-06-07T11:00:11Z</time>
      </trkpt>
      <trkpt lat="47.27006" lon="-1.64432">
        <ele>39.8</ele>
        <time>2020-06-07T11:00:12Z</time>
      </trkpt>
      <trkpt lat="47.27006" lon="-1.64433">
        <ele>39.8</ele>
        <time>2020-06-07T11:00:13Z</time>
      </trkpt>
      <trkpt lat="47.27006" lon="-1.64434">
        <ele>39.7</ele>
        <time>2020-06-07T11:00:14Z</time>
      </trkpt>
      <trkpt lat="47.27006" lon="-1.64436">
        <ele>39.7</ele>
        <time>2020-06-07T11:00:15Z</time>
      </trkpt>
      <trkpt lat="47.27006" lon="-1.64437">
        <ele>39.7</ele>
        <time>2020-06-07T11:00:16Z</time>
      </trkpt>
      <trkpt lat="47.27006" lon="-1.64438">
        <ele>39.7</ele>
        <time>2020-06-07T11:00:17Z</time>
      </trkpt>
      <trkpt lat="47.27006" lon="-1.64439">
        <ele>39.6</ele>
        <time>2020-06-07T11:00:18Z</time>
      </trkpt>
      <trkpt lat="47.27007" lon="-1.6444">
        <ele>39.6</ele>
        <time>2020-06-07T11:00:19Z</time>
      </trkpt>
      <trkpt lat="47.27007" lon="-1.64441">
        <ele>39.6</ele>
        <time>2020-06-07T11:00:20Z</time>
      </trkpt>
      <trkpt lat="47.27007" lon="-1.64442">
        <ele>39.6</ele>
        <time>2020-06-07T11:00:21Z</time>
      </trkpt>
      <trkpt lat="47.27007" lon="-1.64443">
        <ele>39.6</ele>
        <time>2020-06-07T11:00:22Z</time>
      </trkpt>
      <trkpt lat="47.27007" lon="-1.64444">
        <ele>39.6</ele>
        <time>2020-06-07T11:00:23Z</time>
      </trkpt>
      <trkpt lat="47.27007" lon="-1.64444">
        <ele>39.5</ele>
        <time>2020-06-07T11:00:24Z</time>
      </trkpt>
      <trkpt lat="47.27007" lon="-1.64445">
        <ele>39.5</ele>
        <time>2020-06-07T11:00:25Z</time>
      </trkpt>
      <trkpt lat="47.27008" lon="-1.64445">
        <ele>39.5</ele>
        <time>2020-06-07T11:00:26Z</time>
      </trkpt>
      <trkpt lat="47.27008" lon="-1.64446">
        <ele>39.5</ele>
        <time>2020-06-07T11:00:27Z</time>
      </trkpt>
      <trkpt lat="47.27008" lon="-1.64446">
        <ele>39.5</ele>
        <time>2020-06-07T11:00:28Z</time>
      </trkpt>
      <trkpt lat="47.27008" lon="-1.64446">
        <ele>39.5</ele>
        <time>2020-06-07T11:00:29Z</time>
      </trkpt>
      <trkpt lat="47.27008" lon="-1.64446">
        <ele>39.5</ele>
        <time>2020-06-07T11:00:30Z</time>
      </trkpt>
      <trkpt lat="47.27008" lon="-1.64446">
        <ele>39.5</ele>
        <time>2020-06-07T11:00:31Z</time>
      </trkpt>
      <trkpt lat="47.27008" lon="-1.64446">
        <ele>39.5</ele>
        <time>2020-06-07T11:00:32Z</time>
      </trkpt>
      <trkpt lat="47.27008" lon="-1.64446">
        <ele>39.5</ele>
        <time>2020-06-07T11:00:33Z</time>
      </trkpt>
      <trkpt lat="47.27008" lon="-1.64447">
        <ele>39.5</ele>
        <time>2020-06-07T11:00:34Z</time>
      </trkpt>
      <trkpt lat="47.27008" lon="-1.64447">
        <ele>39.5</ele>
        <time>2020-06-07T11:00:35Z</time>
      </trkpt>
      <trkpt lat="47.27008" lon="-1.64448">
        <ele>39.5</ele>
        <time>2020-06-07T11:00:36Z</time>
      </trkpt>
      <trkpt lat="47.27008" lon="-1.64449">
        <ele>39.5</ele>
        <time>2020-06-07T11:00:37Z</time>
      </trkpt>
      <trkpt lat="47.27008" lon="-1.6445">
        <ele>39.4</ele>
        <time>2020-06-07T11:00:38Z</time>
      </trkpt>
      <trkpt lat="47.27007" lon="-1.64451">
        <ele>39.4</ele>
        <time>2020-06-07T11:00:39Z</time>
      </trkpt>
      <trkpt lat="47.27007" lon="-1.64452">
        <ele>39.3</ele>
        <time>2020-06-07T11:00:40Z</time>
      </trkpt>
      <trkpt lat="47.27007" lon="-1.64453">
        <ele>39.3</ele>
        <time>2020-06-07T11:00:41Z</time>
      </trkpt>
      <trkpt lat="47.27006" lon="-1.64454">
        <ele>39.3</ele>
        <time>2020-06-07T11:00:42Z</time>
      </trkpt>
      <trkpt lat="47.27006" lon="-1.64455">
        <ele>39.2</ele>
        <time>2020-06-07T11:00:43Z</time>
      </trkpt>
      <trkpt lat="47.27006" lon="-1.64456">
        <ele>39.2</ele>
        <time>2020-06-07T11:00:44Z</time>
      </trkpt>
      <trkpt lat="47.27005" lon="-1.64457">
        <ele>39.2</ele>
        <time>2020-06-07T11:00:45Z</time>
      </trkpt>
      <trkpt lat="47.27005" lon="-1.64457">
        <ele>39.2</ele>
        <time>2020-06-07T11:00:46Z</time>
      </trkpt>
      <trkpt lat="47.27005" lon="-1.64458">
        <ele>39.1</ele>
        <time>2020-06-07T11:00:47Z</time>
      </trkpt>
      <trkpt lat="47.27004" lon="-1.64458">
        <ele>39.1</ele>
        <time>2020-06-07T11:00:48Z</time>
      </trkpt>
      <trkpt lat="47.27004" lon="-1.64459">
        <ele>39.1</ele>
        <time>2020-06-07T11:00:49Z</time>
      </trkpt>
      <trkpt lat="47.27004" lon="-1.64459">
        <ele>39.1</ele>
        <time>2020-06-07T11:00:50Z</time>
      </trkpt>
      <trkpt lat="47.27004" lon="-1.64459">
        <ele>39.1</ele>
        <time>2020-06-07T11:00:51Z</time>
      </trkpt>
      <trkpt lat="47.27004" lon="-1.64459">
        <ele>39.1</ele>
        <time>2020-06-07T11:00:52Z</time>
      </trkpt>
      <trkpt lat="47.27004" lon="-1.64459">
        <ele>39.1</ele>
        <time>2020-06-07T11:00:53Z</time>
      </trkpt>
      <trkpt lat="47.27004" lon="-1.64459">
        <ele>39.1</ele>
        <time>2020-06-07T11:00:54Z</time>
      </trkpt>
      <trkpt lat="47.27004" lon="-1.64459">
        <ele>39.1</ele>
        <time>2020-06-07T11:00:55Z</time>
      </trkpt>
      <trkpt lat="47.26973" lon="-1.6459">
        <ele>29.2</ele>
        <time>2020-06-07T11:53:52Z</time>
      </trkpt>
      <trkpt lat="47.26973" lon="-1.64591">
        <ele>29.2</ele>
        <time>2020-06-07T11:53:53Z</time>
      </trkpt>
      <trkpt lat="47.26974" lon="-1.64594">
        <ele>29.2</ele>
        <time>2020-06-07T11:53:54Z</time>
      </trkpt>
      <trkpt lat="47.26975" lon="-1.64596">
        <ele>29.2</ele>
        <time>2020-06-07T11:53:55Z</time>
      </trkpt>
      <trkpt lat="47.26976" lon="-1.64597">
        <ele>29.2</ele>
        <time>2020-06-07T11:53:56Z</time>
      </trkpt>
      <trkpt lat="47.26976" lon="-1.64598">
        <ele>29.3</ele>
        <time>2020-06-07T11:53:57Z</time>
      </trkpt>
      <trkpt lat="47.26976" lon="-1.64599">
        <ele>29.3</ele>
        <time>2020-06-07T11:53:58Z</time>
      </trkpt>
      <trkpt lat="47.26977" lon="-1.646">
        <ele>29.3</ele>
        <time>2020-06-07T11:53:59Z</time>
      </trkpt>
      <trkpt lat="47.26977" lon="-1.64601">
        <ele>29.3</ele>
        <time>2020-06-07T11:54:00Z</time>
      </trkpt>
      <trkpt lat="47.26977" lon="-1.64602">
        <ele>29.3</ele>
        <time>2020-06-07T11:54:01Z</time>
      </trkpt>
      <trkpt lat="47.26977" lon="-1.64603">
        <ele>29.3</ele>
        <time>2020-06-07T11:54:02Z</time>
      </trkpt>
      <trkpt lat="47.26977" lon="-1.64605">
        <ele>29.3</ele>
        <time>2020-06-07T11:54:03Z</time>
      </trkpt>
      <trkpt lat="47.26977" lon="-1.64606">
        <ele>29.3</ele>
        <time>2020-06-07T11:54:04Z</time>
      </trkpt>
      <trkpt lat="47.26977" lon="-1.64607">
        <ele>29.3</ele>
        <time>2020-06-07T11:54:05Z</time>
      </trkpt>
      <trkpt lat="47.26976" lon="-1.64608">
        <ele>29.3</ele>
        <time>2020-06-07T11:54:06Z</time>
      </trkpt>
      <trkpt lat="47.26976" lon="-1.6461">
        <ele>29.4</ele>
        <time>2020-06-07T11:54:07Z</time>
      </trkpt>
      <trkpt lat="47.26975" lon="-1.64611">
        <ele>29.4</ele>
        <time>2020-06-07T11:54:08Z</time>
      </trkpt>
      <trkpt lat="47.26975" lon="-1.64613">
        <ele>29.4</ele>
        <time>2020-06-07T11:54:09Z</time>
      </trkpt>
      <trkpt lat="47.26974" lon="-1.64614">
        <ele>29.4</ele>
        <time>2020-06-07T11:54:10Z</time>
      </trkpt>
      <trkpt lat="47.26974" lon="-1.64615">
        <ele>29.4</ele>
        <time>2020-06-07T11:54:11Z</time>
      </trkpt>
      <trkpt lat="47.26975" lon="-1.64618">
        <ele>29.4</ele>
        <time>2020-06-07T11:54:12Z</time>
      </trkpt>
      <trkpt lat="47.26975" lon="-1.64619">
        <ele>29.4</ele>
        <time>2020-06-07T11:54:13Z</time>
      </trkpt>
      <trkpt lat="47.26976" lon="-1.64621">
        <ele>29.5</ele>
        <time>2020-06-07T11:54:14Z</time>
      </trkpt>
      <trkpt lat="47.26976" lon="-1.64623">
        <ele>29.5</ele>
        <time>2020-06-07T11:54:15Z</time>
      </trkpt>
      <trkpt lat="47.26976" lon="-1.64625">
        <ele>29.5</ele>
        <time>2020-06-07T11:54:16Z</time>
      </trkpt>
      <trkpt lat="47.26976" lon="-1.64627">
        <ele>29.5</ele>
        <time>2020-06-07T11:54:17Z</time>
      </trkpt>
      <trkpt lat="47.26977" lon="-1.64629">
        <ele>29.5</ele>
        <time>2020-06-07T11:54:18Z</time>
      </trkpt>
      <trkpt lat="47.26976" lon="-1.64632">
        <ele>29.5</ele>
        <time>2020-06-07T11:54:19Z</time>
      </trkpt>
      <trkpt lat="47.26976" lon="-1.64634">
        <ele>29.6</ele>
        <time>2020-06-07T11:54:20Z</time>
      </trkpt>
      <trkpt lat="47.26975" lon="-1.64637">
        <ele>29.6</ele>
        <time>2020-06-07T11:54:21Z</time>
      </trkpt>
      <trkpt lat="47.26975" lon="-1.64638">
        <ele>29.6</ele>
        <time>2020-06-07T11:54:22Z</time>
      </trkpt>
      <trkpt lat="47.26975" lon="-1.64639">
        <ele>29.6</ele>
        <time>2020-06-07T11:54:23Z</time>
      </trkpt>
      <trkpt lat="47.26975" lon="-1.64641">
        <ele>29.6</ele>
        <time>2020-06-07T11:54:24Z</time>
      </trkpt>
      <trkpt lat="47.26976" lon="-1.64642">
        <ele>29.6</ele>
        <time>2020-06-07T11:54:25Z</time>
      </trkpt>
      <trkpt lat="47.26976" lon="-1.64644">
        <ele>29.6</ele>
        <time>2020-06-07T11:54:26Z</time>
      </trkpt>
      <trkpt lat="47.26976" lon="-1.64647">
        <ele>29.7</ele>
        <time>2020-06-07T11:54:27Z</time>
      </trkpt>
      <trkpt lat="47.26976" lon="-1.64649">
        <ele>29.7</ele>
        <time>2020-06-07T11:54:28Z</time>
      </trkpt>
      <trkpt lat="47.26977" lon="-1.6465">
        <ele>29.7</ele>
        <time>2020-06-07T11:54:29Z</time>
      </trkpt>
      <trkpt lat="47.26977" lon="-1.64651">
        <ele>29.7</ele>
        <time>2020-06-07T11:54:30Z</time>
      </trkpt>
      <trkpt lat="47.26977" lon="-1.64653">
        <ele>29.7</ele>
        <time>2020-06-07T11:54:31Z</time>
      </trkpt>
      <trkpt lat="47.26978" lon="-1.64654">
        <ele>29.7</ele>
        <time>2020-06-07T11:54:32Z</time>
      </trkpt>
      <trkpt lat="47.26978" lon="-1.64656">
        <ele>29.7</ele>
        <time>2020-06-07T11:54:33Z</time>
      </trkpt>
      <trkpt lat="47.26978" lon="-1.64658">
        <ele>29.7</ele>
        <time>2020-06-07T11:54:34Z</time>
      </trkpt>
      <trkpt lat="47.26978" lon="-1.64659">
        <ele>29.7</ele>
        <time>2020-06-07T11:54:35Z</time>
      </trkpt>
      <trkpt lat="47.26978" lon="-1.64661">
        <ele>29.7</ele>
        <time>2020-06-07T11:54:36Z</time>
      </trkpt>
      <trkpt lat="47.26979" lon="-1.64662">
        <ele>29.7</ele>
        <time>2020-06-07T11:54:37Z</time>
      </trkpt>
      <trkpt lat="47.26979" lon="-1.64664">
        <ele>29.7</ele>
        <time>2020-06-07T11:54:38Z</time>
      </trkpt>
      <trkpt lat="47.2698" lon="-1.64667">
        <ele>29.7</ele>
        <time>2020-06-07T11:54:39Z</time>
      </trkpt>
      <trkpt lat="47.2698" lon="-1.64668">
        <ele>29.7</ele>
        <time>2020-06-07T11:54:40Z</time>
      </trkpt>
      <trkpt lat="47.2698" lon="-1.64669">
        <ele>29.7</ele>
        <time>2020-06-07T11:54:41Z</time>
      </trkpt>
      <trkpt lat="47.2698" lon="-1.64671">
        <ele>29.7</ele>
        <time>2020-06-07T11:54:42Z</time>
      </trkpt>
      <trkpt lat="47.26981" lon="-1.64672">
        <ele>29.7</ele>
        <time>2020-06-07T11:54:43Z</time>
      </trkpt>
      <trkpt lat="47.26981" lon="-1.64673">
        <ele>29.7</ele>
        <time>2020-06-07T11:54:44Z</time>
      </trkpt>
      <trkpt lat="47.26981" lon="-1.64675">
        <ele>29.7</ele>
        <time>2020-06-07T11:54:45Z</time>
      </trkpt>
      <trkpt lat="47.26981" lon="-1.64676">
        <ele>29.7</ele>
        <time>2020-06-07T11:54:46Z</time>
      </trkpt>
      <trkpt lat="47.26982" lon="-1.64677">
        <ele>29.7</ele>
        <time>2020-06-07T11:54:47Z</time>
      </trkpt>
      <trkpt lat="47.26984" lon="-1.6468">
        <ele>29.7</ele>
        <time>2020-06-07T11:54:48Z</time>
      </trkpt>
      <trkpt lat="47.26984" lon="-1.6468">
        <ele>29.7</ele>
        <time>2020-06-07T11:54:49Z</time>
      </trkpt>
      <trkpt lat="47.26985" lon="-1.64681">
        <ele>29.7</ele>
        <time>2020-06-07T11:54:50Z</time>
      </trkpt>
      <trkpt lat="47.26985" lon="-1.64683">
        <ele>29.7</ele>
        <time>2020-06-07T11:54:51Z</time>
      </trkpt>
      <trkpt lat="47.26985" lon="-1.64684">
        <ele>29.7</ele>
        <time>2020-06-07T11:54:52Z</time>
      </trkpt>
      <trkpt lat="47.26984" lon="-1.64686">
        <ele>29.7</ele>
        <time>2020-06-07T11:54:53Z</time>
      </trkpt>
      <trkpt lat="47.26984" lon="-1.64687">
        <ele>29.7</ele>
        <time>2020-06-07T11:54:54Z</time>
      </trkpt>
      <trkpt lat="47.26984" lon="-1.64688">
        <ele>29.7</ele>
        <time>2020-06-07T11:54:55Z</time>
      </trkpt>
      <trkpt lat="47.26984" lon="-1.64689">
        <ele>29.7</ele>
        <time>2020-06-07T11:54:56Z</time>
      </trkpt>
      <trkpt lat="47.26983" lon="-1.6469">
        <ele>29.7</ele>
        <time>2020-06-07T11:54:57Z</time>
      </trkpt>
      <trkpt lat="47.26983" lon="-1.64691">
        <ele>29.7</ele>
        <time>2020-06-07T11:54:58Z</time>
      </trkpt>
      <trkpt lat="47.26983" lon="-1.64692">
        <ele>29.7</ele>
        <time>2020-06-07T11:54:59Z</time>
      </trkpt>
      <trkpt lat="47.26983" lon="-1.64693">
        <ele>29.7</ele>
        <time>2020-06-07T11:55:00Z</time>
      </trkpt>
      <trkpt lat="47.26983" lon="-1.64694">
        <ele>29.7</ele>
        <time>2020-06-07T11:55:01Z</time>
      </trkpt>
      <trkpt lat="47.26983" lon="-1.64695">
        <ele>29.7</ele>
        <time>2020-06-07T11:55:02Z</time>
      </trkpt>
      <trkpt lat="47.26983" lon="-1.64696">
        <ele>29.7</ele>
        <time>2020-06-07T11:55:03Z</time>
      </trkpt>
      <trkpt lat="47.26983" lon="-1.64697">
        <ele>29.7</ele>
        <time>2020-06-07T11:55:04Z</time>
      </trkpt>
      <trkpt lat="47.26983" lon="-1.64698">
        <ele>29.7</ele>
        <time>2020-06-07T11:55:05Z</time>
      </trkpt>
      <trkpt lat="47.26982" lon="-1.647">
        <ele>29.7</ele>
        <time>2020-06-07T11:55:06Z</time>
      </trkpt>
      <trkpt lat="47.26981" lon="-1.64701">
        <ele>29.7</ele>
        <time>2020-06-07T11:55:07Z</time>
      </trkpt>
      <trkpt lat="47.26981" lon="-1.64702">
        <ele>29.7</ele>
        <time>2020-06-07T11:55:08Z</time>
      </trkpt>
      <trkpt lat="47.26981" lon="-1.64702">
        <ele>29.7</ele>
        <time>2020-06-07T11:55:09Z</time>
      </trkpt>
      <trkpt lat="47.26982" lon="-1.64703">
        <ele>29.7</ele>
        <time>2020-06-07T11:55:10Z</time>
      </trkpt>
      <trkpt lat="47.26981" lon="-1.64704">
        <ele>29.7</ele>
        <time>2020-06-07T11:55:11Z</time>
      </trkpt>
      <trkpt lat="47.26981" lon="-1.64706">
        <ele>29.7</ele>
        <time>2020-06-07T11:55:12Z</time>
      </trkpt>
      <trkpt lat="47.2698" lon="-1.64707">
        <ele>29.7</ele>
        <time>2020-06-07T11:55:13Z</time>
      </trkpt>
      <trkpt lat="47.2698" lon="-1.64707">
        <ele>29.7</ele>
        <time>2020-06-07T11:55:14Z</time>
      </trkpt>
      <trkpt lat="47.2698" lon="-1.64708">
        <ele>29.7</ele>
        <time>2020-06-07T11:55:15Z</time>
      </trkpt>
      <trkpt lat="47.2698" lon="-1.64709">
        <ele>29.7</ele>
        <time>2020-06-07T11:55:16Z</time>
      </trkpt>
      <trkpt lat="47.26979" lon="-1.64709">
        <ele>29.7</ele>
        <time>2020-06-07T11:55:17Z</time>
      </trkpt>
      <trkpt lat="47.26979" lon="-1.6471">
        <ele>29.7</ele>
        <time>2020-06-07T11:55:18Z</time>
      </trkpt>
      <trkpt lat="47.26979" lon="-1.64711">
        <ele>29.7</ele>
        <time>2020-06-07T11:55:19Z</time>
      </trkpt>
      <trkpt lat="47.26979" lon="-1.64712">
        <ele>29.7</ele>
        <time>2020-06-07T11:55:20Z</time>
      </trkpt>
      <trkpt lat="47.26977" lon="-1.64712">
        <ele>29.7</ele>
        <time>2020-06-07T11:55:21Z</time>
      </trkpt>
      <trkpt lat="47.26976" lon="-1.64712">
        <ele>29.7</ele>
        <time>2020-06-07T11:55:22Z</time>
      </trkpt>
      <trkpt lat="47.26975" lon="-1.64711">
        <ele>29.7</ele>
        <time>2020-06-07T11:55:23Z</time>
      </trkpt>
      <trkpt lat="47.26975" lon="-1.64712">
        <ele>29.7</ele>
        <time>2020-06-07T11:55:24Z</time>
      </trkpt>
      <trkpt lat="47.26975" lon="-1.64713">
        <ele>29.7</ele>
        <time>2020-06-07T11:55:25Z</time>
      </trkpt>
      <trkpt lat="47.26975" lon="-1.64715">
        <ele>29.7</ele>
        <time>2020-06-07T11:55:26Z</time>
      </trkpt>
      <trkpt lat="47.26974" lon="-1.64718">
        <ele>29.7</ele>
        <time>2020-06-07T11:55:27Z</time>
      </trkpt>
      <trkpt lat="47.26974" lon="-1.64719">
        <ele>29.7</ele>
        <time>2020-06-07T11:55:28Z</time>
      </trkpt>
      <trkpt lat="47.26974" lon="-1.6472">
        <ele>29.7</ele>
        <time>2020-06-07T11:55:29Z</time>
      </trkpt>
      <trkpt lat="47.26973" lon="-1.64723">
        <ele>29.7</ele>
        <time>2020-06-07T11:55:30Z</time>
      </trkpt>
      <trkpt lat="47.26973" lon="-1.64725">
        <ele>29.7</ele>
        <time>2020-06-07T11:55:31Z</time>
      </trkpt>
      <trkpt lat="47.26973" lon="-1.64726">
        <ele>29.7</ele>
        <time>2020-06-07T11:55:32Z</time>
      </trkpt>
      <trkpt lat="47.26972" lon="-1.64728">
        <ele>29.7</ele>
        <time>2020-06-07T11:55:33Z</time>
      </trkpt>
      <trkpt lat="47.26972" lon="-1.64729">
        <ele>29.7</ele>
        <time>2020-06-07T11:55:34Z</time>
      </trkpt>
      <trkpt lat="47.26972" lon="-1.6473">
        <ele>29.7</ele>
        <time>2020-06-07T11:55:35Z</time>
      </trkpt>
      <trkpt lat="47.26971" lon="-1.64731">
        <ele>29.7</ele>
        <time>2020-06-07T11:55:36Z</time>
      </trkpt>
      <trkpt lat="47.26971" lon="-1.64732">
        <ele>29.7</ele>
        <time>2020-06-07T11:55:37Z</time>
      </trkpt>
      <trkpt lat="47.2697" lon="-1.64734">
        <ele>29.7</ele>
        <time>2020-06-07T11:55:38Z</time>
      </trkpt>
      <trkpt lat="47.26969" lon="-1.64735">
        <ele>29.7</ele>
        <time>2020-06-07T11:55:39Z</time>
      </trkpt>
      <trkpt lat="47.26969" lon="-1.64736">
        <ele>29.7</ele>
        <time>2020-06-07T11:55:40Z</time>
      </trkpt>
      <trkpt lat="47.26968" lon="-1.64737">
        <ele>29.7</ele>
        <time>2020-06-07T11:55:41Z</time>
      </trkpt>
      <trkpt lat="47.26968" lon="-1.64739">
        <ele>29.7</ele>
        <time>2020-06-07T11:55:42Z</time>
      </trkpt>
      <trkpt lat="47.26968" lon="-1.6474">
        <ele>29.7</ele>
        <time>2020-06-07T11:55:43Z</time>
      </trkpt>
      <trkpt lat="47.26968" lon="-1.64742">
        <ele>29.7</ele>
        <time>2020-06-07T11:55:44Z</time>
      </trkpt>
      <trkpt lat="47.26969" lon="-1.64744">
        <ele>29.7</ele>
        <time>2020-06-07T11:55:45Z</time>
      </trkpt>
      <trkpt lat="47.26969" lon="-1.64745">
        <ele>29.8</ele>
        <time>2020-06-07T11:55:46Z</time>
      </trkpt>
      <trkpt lat="47.26969" lon="-1.64746">
        <ele>29.8</ele>
        <time>2020-06-07T11:55:47Z</time>
      </trkpt>
      <trkpt lat="47.26969" lon="-1.64747">
        <ele>29.8</ele>
        <time>2020-06-07T11:55:48Z</time>
      </trkpt>
      <trkpt lat="47.2697" lon="-1.64749">
        <ele>29.8</ele>
        <time>2020-06-07T11:55:49Z</time>
      </trkpt>
      <trkpt lat="47.26971" lon="-1.6475">
        <ele>29.8</ele>
        <time>2020-06-07T11:55:50Z</time>
      </trkpt>
      <trkpt lat="47.26971" lon="-1.64752">
        <ele>29.8</ele>
        <time>2020-06-07T11:55:51Z</time>
      </trkpt>
      <trkpt lat="47.26972" lon="-1.64753">
        <ele>29.8</ele>
        <time>2020-06-07T11:55:52Z</time>
      </trkpt>
      <trkpt lat="47.26971" lon="-1.64754">
        <ele>29.8</ele>
        <time>2020-06-07T11:55:53Z</time>
      </trkpt>
      <trkpt lat="47.26971" lon="-1.64756">
        <ele>29.8</ele>
        <time>2020-06-07T11:55:54Z</time>
      </trkpt>
      <trkpt lat="47.26972" lon="-1.64757">
        <ele>29.8</ele>
        <time>2020-06-07T11:55:55Z</time>
      </trkpt>
      <trkpt lat="47.26972" lon="-1.64758">
        <ele>29.8</ele>
        <time>2020-06-07T11:55:56Z</time>
      </trkpt>
      <trkpt lat="47.26972" lon="-1.64759">
        <ele>29.8</ele>
        <time>2020-06-07T11:55:57Z</time>
      </trkpt>
      <trkpt lat="47.26972" lon="-1.64759">
        <ele>29.8</ele>
        <time>2020-06-07T11:55:58Z</time>
      </trkpt>
      <trkpt lat="47.26972" lon="-1.6476">
        <ele>29.8</ele>
        <time>2020-06-07T11:55:59Z</time>
      </trkpt>
      <trkpt lat="47.26972" lon="-1.64761">
        <ele>29.8</ele>
        <time>2020-06-07T11:56:00Z</time>
      </trkpt>
      <trkpt lat="47.26972" lon="-1.64762">
        <ele>29.8</ele>
        <time>2020-06-07T11:56:01Z</time>
      </trkpt>
      <trkpt lat="47.26971" lon="-1.64763">
        <ele>29.8</ele>
        <time>2020-06-07T11:56:02Z</time>
      </trkpt>
      <trkpt lat="47.2697" lon="-1.64764">
        <ele>29.8</ele>
        <time>2020-06-07T11:56:03Z</time>
      </trkpt>
      <trkpt lat="47.2697" lon="-1.64764">
        <ele>29.8</ele>
        <time>2020-06-07T11:56:04Z</time>
      </trkpt>
      <trkpt lat="47.26969" lon="-1.64764">
        <ele>29.8</ele>
        <time>2020-06-07T11:56:05Z</time>
      </trkpt>
      <trkpt lat="47.26968" lon="-1.64765">
        <ele>29.8</ele>
        <time>2020-06-07T11:56:06Z</time>
      </trkpt>
      <trkpt lat="47.26968" lon="-1.64765">
        <ele>29.8</ele>
        <time>2020-06-07T11:56:07Z</time>
      </trkpt>
      <trkpt lat="47.26967" lon="-1.64766">
        <ele>29.8</ele>
        <time>2020-06-07T11:56:08Z</time>
      </trkpt>
      <trkpt lat="47.26967" lon="-1.64767">
        <ele>29.8</ele>
        <time>2020-06-07T11:56:09Z</time>
      </trkpt>
      <trkpt lat="47.26968" lon="-1.64767">
        <ele>29.8</ele>
        <time>2020-06-07T11:56:10Z</time>
      </trkpt>
      <trkpt lat="47.26968" lon="-1.64767">
        <ele>29.8</ele>
        <time>2020-06-07T11:56:11Z</time>
      </trkpt>
      <trkpt lat="47.26968" lon="-1.64768">
        <ele>29.8</ele>
        <time>2020-06-07T11:56:12Z</time>
      </trkpt>
      <trkpt lat="47.26968" lon="-1.64768">
        <ele>29.8</ele>
        <time>2020-06-07T11:56:13Z</time>
      </trkpt>
      <trkpt lat="47.26968" lon="-1.64769">
        <ele>29.8</ele>
        <time>2020-06-07T11:56:14Z</time>
      </trkpt>
      <trkpt lat="47.26968" lon="-1.6477">
        <ele>29.8</ele>
        <time>2020-06-07T11:56:15Z</time>
      </trkpt>
      <trkpt lat="47.26968" lon="-1.64772">
        <ele>29.8</ele>
        <time>2020-06-07T11:56:16Z</time>
      </trkpt>
      <trkpt lat="47.26968" lon="-1.64773">
        <ele>29.9</ele>
        <time>2020-06-07T11:56:17Z</time>
      </trkpt>
      <trkpt lat="47.26968" lon="-1.64775">
        <ele>29.9</ele>
        <time>2020-06-07T11:56:18Z</time>
      </trkpt>
      <trkpt lat="47.26968" lon="-1.64776">
        <ele>29.9</ele>
        <time>2020-06-07T11:56:19Z</time>
      </trkpt>
      <trkpt lat="47.26967" lon="-1.64777">
        <ele>29.9</ele>
        <time>2020-06-07T11:56:20Z</time>
      </trkpt>
      <trkpt lat="47.26967" lon="-1.64778">
        <ele>29.9</ele>
        <time>2020-06-07T11:56:21Z</time>
      </trkpt>
      <trkpt lat="47.26966" lon="-1.6478">
        <ele>29.9</ele>
        <time>2020-06-07T11:56:22Z</time>
      </trkpt>
      <trkpt lat="47.26966" lon="-1.64781">
        <ele>29.9</ele>
        <time>2020-06-07T11:56:23Z</time>
      </trkpt>
      <trkpt lat="47.26965" lon="-1.64782">
        <ele>29.9</ele>
        <time>2020-06-07T11:56:24Z</time>
      </trkpt>
      <trkpt lat="47.26965" lon="-1.64783">
        <ele>29.9</ele>
        <time>2020-06-07T11:56:25Z</time>
      </trkpt>
      <trkpt lat="47.26965" lon="-1.64784">
        <ele>29.9</ele>
        <time>2020-06-07T11:56:26Z</time>
      </trkpt>
      <trkpt lat="47.26965" lon="-1.64785">
        <ele>29.9</ele>
        <time>2020-06-07T11:56:27Z</time>
      </trkpt>
      <trkpt lat="47.26965" lon="-1.64787">
        <ele>29.9</ele>
        <time>2020-06-07T11:56:28Z</time>
      </trkpt>
      <trkpt lat="47.26965" lon="-1.64789">
        <ele>29.9</ele>
        <time>2020-06-07T11:56:29Z</time>
      </trkpt>
      <trkpt lat="47.26965" lon="-1.6479">
        <ele>29.9</ele>
        <time>2020-06-07T11:56:30Z</time>
      </trkpt>
      <trkpt lat="47.26964" lon="-1.64794">
        <ele>29.9</ele>
        <time>2020-06-07T11:56:31Z</time>
      </trkpt>
      <trkpt lat="47.26963" lon="-1.64795">
        <ele>29.9</ele>
        <time>2020-06-07T11:56:32Z</time>
      </trkpt>
      <trkpt lat="47.26963" lon="-1.64796">
        <ele>29.9</ele>
        <time>2020-06-07T11:56:33Z</time>
      </trkpt>
      <trkpt lat="47.26961" lon="-1.64798">
        <ele>29.9</ele>
        <time>2020-06-07T11:56:34Z</time>
      </trkpt>
      <trkpt lat="47.26961" lon="-1.648">
        <ele>29.9</ele>
        <time>2020-06-07T11:56:35Z</time>
      </trkpt>
      <trkpt lat="47.26961" lon="-1.64802">
        <ele>29.9</ele>
        <time>2020-06-07T11:56:36Z</time>
      </trkpt>
      <trkpt lat="47.26961" lon="-1.64803">
        <ele>29.9</ele>
        <time>2020-06-07T11:56:37Z</time>
      </trkpt>
      <trkpt lat="47.26961" lon="-1.64804">
        <ele>30</ele>
        <time>2020-06-07T11:56:38Z</time>
      </trkpt>
      <trkpt lat="47.26961" lon="-1.64805">
        <ele>30</ele>
        <time>2020-06-07T11:56:39Z</time>
      </trkpt>
      <trkpt lat="47.26961" lon="-1.64806">
        <ele>30</ele>
        <time>2020-06-07T11:56:40Z</time>
      </trkpt>
      <trkpt lat="47.2696" lon="-1.64807">
        <ele>30</ele>
        <time>2020-06-07T11:56:41Z</time>
      </trkpt>
      <trkpt lat="47.2696" lon="-1.64808">
        <ele>30</ele>
        <time>2020-06-07T11:56:42Z</time>
      </trkpt>
      <trkpt lat="47.2696" lon="-1.6481">
        <ele>30</ele>
        <time>2020-06-07T11:56:43Z</time>
      </trkpt>
      <trkpt lat="47.26959" lon="-1.64811">
        <ele>30</ele>
        <time>2020-06-07T11:56:44Z</time>
      </trkpt>
      <trkpt lat="47.26959" lon="-1.64812">
        <ele>30</ele>
        <time>2020-06-07T11:56:45Z</time>
      </trkpt>
      <trkpt lat="47.26958" lon="-1.64813">
        <ele>30</ele>
        <time>2020-06-07T11:56:46Z</time>
      </trkpt>
      <trkpt lat="47.26958" lon="-1.64814">
        <ele>30</ele>
        <time>2020-06-07T11:56:47Z</time>
      </trkpt>
      <trkpt lat="47.26958" lon="-1.64815">
        <ele>30</ele>
        <time>2020-06-07T11:56:48Z</time>
      </trkpt>
      <trkpt lat="47.26957" lon="-1.64815">
        <ele>30</ele>
        <time>2020-06-07T11:56:49Z</time>
      </trkpt>
      <trkpt lat="47.26956" lon="-1.64816">
        <ele>30</ele>
        <time>2020-06-07T11:56:50Z</time>
      </trkpt>
      <trkpt lat="47.26955" lon="-1.64817">
        <ele>30</ele>
        <time>2020-06-07T11:56:51Z</time>
      </trkpt>
      <trkpt lat="47.26954" lon="-1.64817">
        <ele>30.1</ele>
        <time>2020-06-07T11:56:52Z</time>
      </trkpt>
      <trkpt lat="47.26953" lon="-1.64817">
        <ele>30.1</ele>
        <time>2020-06-07T11:56:53Z</time>
      </trkpt>
      <trkpt lat="47.26953" lon="-1.64818">
        <ele>30.1</ele>
        <time>2020-06-07T11:56:54Z</time>
      </trkpt>
      <trkpt lat="47.26952" lon="-1.64818">
        <ele>30.1</ele>
        <time>2020-06-07T11:56:55Z</time>
      </trkpt>
      <trkpt lat="47.26952" lon="-1.64818">
        <ele>30.1</ele>
        <time>2020-06-07T11:56:56Z</time>
      </trkpt>
      <trkpt lat="47.26951" lon="-1.64818">
        <ele>30.1</ele>
        <time>2020-06-07T11:56:57Z</time>
      </trkpt>
      <trkpt lat="47.2695" lon="-1.64818">
        <ele>30.1</ele>
        <time>2020-06-07T11:56:58Z</time>
      </trkpt>
      <trkpt lat="47.26949" lon="-1.64818">
        <ele>30.1</ele>
        <time>2020-06-07T11:56:59Z</time>
      </trkpt>
      <trkpt lat="47.26948" lon="-1.64818">
        <ele>30.2</ele>
        <time>2020-06-07T11:57:00Z</time>
      </trkpt>
      <trkpt lat="47.26947" lon="-1.64817">
        <ele>30.2</ele>
        <time>2020-06-07T11:57:01Z</time>
      </trkpt>
      <trkpt lat="47.26947" lon="-1.64817">
        <ele>30.2</ele>
        <time>2020-06-07T11:57:02Z</time>
      </trkpt>
      <trkpt lat="47.26947" lon="-1.64816">
        <ele>30.2</ele>
        <time>2020-06-07T11:57:03Z</time>
      </trkpt>
      <trkpt lat="47.26946" lon="-1.64815">
        <ele>30.2</ele>
        <time>2020-06-07T11:57:04Z</time>
      </trkpt>
      <trkpt lat="47.26944" lon="-1.64815">
        <ele>30.2</ele>
        <time>2020-06-07T11:57:05Z</time>
      </trkpt>
      <trkpt lat="47.26943" lon="-1.64815">
        <ele>30.3</ele>
        <time>2020-06-07T11:57:06Z</time>
      </trkpt>
      <trkpt lat="47.26941" lon="-1.64815">
        <ele>30.3</ele>
        <time>2020-06-07T11:57:07Z</time>
      </trkpt>
      <trkpt lat="47.26941" lon="-1.64815">
        <ele>30.3</ele>
        <time>2020-06-07T11:57:08Z</time>
      </trkpt>
      <trkpt lat="47.26941" lon="-1.64814">
        <ele>30.3</ele>
        <time>2020-06-07T11:57:09Z</time>
      </trkpt>
      <trkpt lat="47.2694" lon="-1.64813">
        <ele>30.3</ele>
        <time>2020-06-07T11:57:10Z</time>
      </trkpt>
      <trkpt lat="47.2694" lon="-1.64813">
        <ele>30.3</ele>
        <time>2020-06-07T11:57:11Z</time>
      </trkpt>
      <trkpt lat="47.26939" lon="-1.64812">
        <ele>30.4</ele>
        <time>2020-06-07T11:57:12Z</time>
      </trkpt>
      <trkpt lat="47.26938" lon="-1.64813">
        <ele>30.4</ele>
        <time>2020-06-07T11:57:13Z</time>
      </trkpt>
      <trkpt lat="47.26938" lon="-1.64813">
        <ele>30.4</ele>
        <time>2020-06-07T11:57:14Z</time>
      </trkpt>
      <trkpt lat="47.26938" lon="-1.64813">
        <ele>30.4</ele>
        <time>2020-06-07T11:57:15Z</time>
      </trkpt>
      <trkpt lat="47.26937" lon="-1.64813">
        <ele>30.4</ele>
        <time>2020-06-07T11:57:16Z</time>
      </trkpt>
      <trkpt lat="47.26937" lon="-1.64813">
        <ele>30.4</ele>
        <time>2020-06-07T11:57:17Z</time>
      </trkpt>
      <trkpt lat="47.26937" lon="-1.64814">
        <ele>30.4</ele>
        <time>2020-06-07T11:57:18Z</time>
      </trkpt>
      <trkpt lat="47.26936" lon="-1.64815">
        <ele>30.4</ele>
        <time>2020-06-07T11:57:19Z</time>
      </trkpt>
      <trkpt lat="47.26935" lon="-1.64817">
        <ele>30.5</ele>
        <time>2020-06-07T11:57:20Z</time>
      </trkpt>
      <trkpt lat="47.26934" lon="-1.64817">
        <ele>30.5</ele>
        <time>2020-06-07T11:57:21Z</time>
      </trkpt>
      <trkpt lat="47.26932" lon="-1.64819">
        <ele>30.5</ele>
        <time>2020-06-07T11:57:22Z</time>
      </trkpt>
      <trkpt lat="47.26932" lon="-1.64819">
        <ele>30.5</ele>
        <time>2020-06-07T11:57:23Z</time>
      </trkpt>
      <trkpt lat="47.26931" lon="-1.6482">
        <ele>30.6</ele>
        <time>2020-06-07T11:57:24Z</time>
      </trkpt>
      <trkpt lat="47.26929" lon="-1.64821">
        <ele>30.6</ele>
        <time>2020-06-07T11:57:25Z</time>
      </trkpt>
      <trkpt lat="47.26928" lon="-1.64822">
        <ele>30.6</ele>
        <time>2020-06-07T11:57:26Z</time>
      </trkpt>
      <trkpt lat="47.26927" lon="-1.64823">
        <ele>30.6</ele>
        <time>2020-06-07T11:57:27Z</time>
      </trkpt>
      <trkpt lat="47.26926" lon="-1.64824">
        <ele>30.7</ele>
        <time>2020-06-07T11:57:28Z</time>
      </trkpt>
      <trkpt lat="47.26925" lon="-1.64825">
        <ele>30.7</ele>
        <time>2020-06-07T11:57:29Z</time>
      </trkpt>
      <trkpt lat="47.26924" lon="-1.64825">
        <ele>30.7</ele>
        <time>2020-06-07T11:57:30Z</time>
      </trkpt>
      <trkpt lat="47.26924" lon="-1.64826">
        <ele>30.7</ele>
        <time>2020-06-07T11:57:31Z</time>
      </trkpt>
      <trkpt lat="47.26923" lon="-1.64827">
        <ele>30.7</ele>
        <time>2020-06-07T11:57:32Z</time>
      </trkpt>
      <trkpt lat="47.26922" lon="-1.64827">
        <ele>30.7</ele>
        <time>2020-06-07T11:57:33Z</time>
      </trkpt>
      <trkpt lat="47.26921" lon="-1.64828">
        <ele>30.7</ele>
        <time>2020-06-07T11:57:34Z</time>
      </trkpt>
      <trkpt lat="47.26921" lon="-1.64829">
        <ele>30.7</ele>
        <time>2020-06-07T11:57:35Z</time>
      </trkpt>
      <trkpt lat="47.2692" lon="-1.64829">
        <ele>30.7</ele>
        <time>2020-06-07T11:57:36Z</time>
      </trkpt>
      <trkpt lat="47.2692" lon="-1.6483">
        <ele>30.7</ele>
        <time>2020-06-07T11:57:37Z</time>
      </trkpt>
      <trkpt lat="47.2692" lon="-1.64831">
        <ele>30.7</ele>
        <time>2020-06-07T11:57:38Z</time>
      </trkpt>
      <trkpt lat="47.26919" lon="-1.64832">
        <ele>30.7</ele>
        <time>2020-06-07T11:57:39Z</time>
      </trkpt>
      <trkpt lat="47.26918" lon="-1.64834">
        <ele>30.7</ele>
        <time>2020-06-07T11:57:40Z</time>
      </trkpt>
      <trkpt lat="47.26918" lon="-1.64835">
        <ele>30.7</ele>
        <time>2020-06-07T11:57:41Z</time>
      </trkpt>
      <trkpt lat="47.26917" lon="-1.64836">
        <ele>30.7</ele>
        <time>2020-06-07T11:57:42Z</time>
      </trkpt>
      <trkpt lat="47.26917" lon="-1.64836">
        <ele>30.7</ele>
        <time>2020-06-07T11:57:43Z</time>
      </trkpt>
      <trkpt lat="47.26917" lon="-1.64836">
        <ele>30.7</ele>
        <time>2020-06-07T11:57:44Z</time>
      </trkpt>
      <trkpt lat="47.26917" lon="-1.64837">
        <ele>30.7</ele>
        <time>2020-06-07T11:57:45Z</time>
      </trkpt>
      <trkpt lat="47.26916" lon="-1.64838">
        <ele>30.7</ele>
        <time>2020-06-07T11:57:46Z</time>
      </trkpt>
      <trkpt lat="47.26916" lon="-1.64839">
        <ele>30.7</ele>
        <time>2020-06-07T11:57:47Z</time>
      </trkpt>
      <trkpt lat="47.26915" lon="-1.64839">
        <ele>30.7</ele>
        <time>2020-06-07T11:57:48Z</time>
      </trkpt>
      <trkpt lat="47.26914" lon="-1.6484">
        <ele>30.7</ele>
        <time>2020-06-07T11:57:49Z</time>
      </trkpt>
      <trkpt lat="47.26913" lon="-1.64841">
        <ele>30.7</ele>
        <time>2020-06-07T11:57:50Z</time>
      </trkpt>
      <trkpt lat="47.26913" lon="-1.64842">
        <ele>30.7</ele>
        <time>2020-06-07T11:57:51Z</time>
      </trkpt>
      <trkpt lat="47.26912" lon="-1.64843">
        <ele>30.7</ele>
        <time>2020-06-07T11:57:52Z</time>
      </trkpt>
      <trkpt lat="47.26912" lon="-1.64843">
        <ele>30.7</ele>
        <time>2020-06-07T11:57:53Z</time>
      </trkpt>
      <trkpt lat="47.26911" lon="-1.64844">
        <ele>30.7</ele>
        <time>2020-06-07T11:57:54Z</time>
      </trkpt>
      <trkpt lat="47.2691" lon="-1.64844">
        <ele>30.7</ele>
        <time>2020-06-07T11:57:55Z</time>
      </trkpt>
      <trkpt lat="47.2691" lon="-1.64845">
        <ele>30.7</ele>
        <time>2020-06-07T11:57:56Z</time>
      </trkpt>
      <trkpt lat="47.26909" lon="-1.64845">
        <ele>30.7</ele>
        <time>2020-06-07T11:57:57Z</time>
      </trkpt>
      <trkpt lat="47.26908" lon="-1.64846">
        <ele>30.6</ele>
        <time>2020-06-07T11:57:58Z</time>
      </trkpt>
      <trkpt lat="47.26907" lon="-1.64847">
        <ele>30.6</ele>
        <time>2020-06-07T11:57:59Z</time>
      </trkpt>
      <trkpt lat="47.26907" lon="-1.64848">
        <ele>30.6</ele>
        <time>2020-06-07T11:58:00Z</time>
      </trkpt>
      <trkpt lat="47.26906" lon="-1.64848">
        <ele>30.6</ele>
        <time>2020-06-07T11:58:01Z</time>
      </trkpt>
      <trkpt lat="47.26905" lon="-1.64849">
        <ele>30.6</ele>
        <time>2020-06-07T11:58:02Z</time>
      </trkpt>
      <trkpt lat="47.26904" lon="-1.6485">
        <ele>30.6</ele>
        <time>2020-06-07T11:58:03Z</time>
      </trkpt>
      <trkpt lat="47.26903" lon="-1.64851">
        <ele>30.5</ele>
        <time>2020-06-07T11:58:04Z</time>
      </trkpt>
      <trkpt lat="47.26902" lon="-1.64851">
        <ele>30.5</ele>
        <time>2020-06-07T11:58:05Z</time>
      </trkpt>
      <trkpt lat="47.26901" lon="-1.64852">
        <ele>30.5</ele>
        <time>2020-06-07T11:58:06Z</time>
      </trkpt>
      <trkpt lat="47.26901" lon="-1.64853">
        <ele>30.5</ele>
        <time>2020-06-07T11:58:07Z</time>
      </trkpt>
      <trkpt lat="47.26901" lon="-1.64854">
        <ele>30.5</ele>
        <time>2020-06-07T11:58:08Z</time>
      </trkpt>
      <trkpt lat="47.269" lon="-1.64856">
        <ele>30.5</ele>
        <time>2020-06-07T11:58:09Z</time>
      </trkpt>
      <trkpt lat="47.269" lon="-1.64857">
        <ele>30.4</ele>
        <time>2020-06-07T11:58:10Z</time>
      </trkpt>
      <trkpt lat="47.269" lon="-1.64858">
        <ele>30.4</ele>
        <time>2020-06-07T11:58:11Z</time>
      </trkpt>
      <trkpt lat="47.269" lon="-1.64859">
        <ele>30.4</ele>
        <time>2020-06-07T11:58:12Z</time>
      </trkpt>
      <trkpt lat="47.269" lon="-1.64861">
        <ele>30.4</ele>
        <time>2020-06-07T11:58:13Z</time>
      </trkpt>
      <trkpt lat="47.269" lon="-1.64862">
        <ele>30.4</ele>
        <time>2020-06-07T11:58:14Z</time>
      </trkpt>
      <trkpt lat="47.26901" lon="-1.64863">
        <ele>30.4</ele>
        <time>2020-06-07T11:58:15Z</time>
      </trkpt>
      <trkpt lat="47.269" lon="-1.64865">
        <ele>30.4</ele>
        <time>2020-06-07T11:58:16Z</time>
      </trkpt>
      <trkpt lat="47.269" lon="-1.64866">
        <ele>30.3</ele>
        <time>2020-06-07T11:58:17Z</time>
      </trkpt>
      <trkpt lat="47.269" lon="-1.64868">
        <ele>30.3</ele>
        <time>2020-06-07T11:58:18Z</time>
      </trkpt>
      <trkpt lat="47.269" lon="-1.64869">
        <ele>30.3</ele>
        <time>2020-06-07T11:58:19Z</time>
      </trkpt>
      <trkpt lat="47.26899" lon="-1.6487">
        <ele>30.3</ele>
        <time>2020-06-07T11:58:20Z</time>
      </trkpt>
      <trkpt lat="47.26899" lon="-1.64872">
        <ele>30.3</ele>
        <time>2020-06-07T11:58:21Z</time>
      </trkpt>
      <trkpt lat="47.26899" lon="-1.64873">
        <ele>30.3</ele>
        <time>2020-06-07T11:58:22Z</time>
      </trkpt>
      <trkpt lat="47.26899" lon="-1.64875">
        <ele>30.3</ele>
        <time>2020-06-07T11:58:23Z</time>
      </trkpt>
      <trkpt lat="47.26898" lon="-1.64876">
        <ele>30.3</ele>
        <time>2020-06-07T11:58:24Z</time>
      </trkpt>
      <trkpt lat="47.26898" lon="-1.64878">
        <ele>30.3</ele>
        <time>2020-06-07T11:58:25Z</time>
      </trkpt>
      <trkpt lat="47.26898" lon="-1.64879">
        <ele>30.2</ele>
        <time>2020-06-07T11:58:26Z</time>
      </trkpt>
      <trkpt lat="47.26897" lon="-1.6488">
        <ele>30.2</ele>
        <time>2020-06-07T11:58:27Z</time>
      </trkpt>
      <trkpt lat="47.26896" lon="-1.64882">
        <ele>30.2</ele>
        <time>2020-06-07T11:58:28Z</time>
      </trkpt>
      <trkpt lat="47.26896" lon="-1.64883">
        <ele>30.2</ele>
        <time>2020-06-07T11:58:29Z</time>
      </trkpt>
      <trkpt lat="47.26895" lon="-1.64885">
        <ele>30.2</ele>
        <time>2020-06-07T11:58:30Z</time>
      </trkpt>
      <trkpt lat="47.26894" lon="-1.64886">
        <ele>30.2</ele>
        <time>2020-06-07T11:58:31Z</time>
      </trkpt>
      <trkpt lat="47.26894" lon="-1.64887">
        <ele>30.2</ele>
        <time>2020-06-07T11:58:32Z</time>
      </trkpt>
      <trkpt lat="47.26893" lon="-1.64888">
        <ele>30.2</ele>
        <time>2020-06-07T11:58:33Z</time>
      </trkpt>
      <trkpt lat="47.26892" lon="-1.6489">
        <ele>30.2</ele>
        <time>2020-06-07T11:58:34Z</time>
      </trkpt>
      <trkpt lat="47.26892" lon="-1.64891">
        <ele>30.2</ele>
        <time>2020-06-07T11:58:35Z</time>
      </trkpt>
      <trkpt lat="47.26891" lon="-1.64893">
        <ele>30.2</ele>
        <time>2020-06-07T11:58:36Z</time>
      </trkpt>
      <trkpt lat="47.2689" lon="-1.64894">
        <ele>30.2</ele>
        <time>2020-06-07T11:58:37Z</time>
      </trkpt>
      <trkpt lat="47.2689" lon="-1.64896">
        <ele>30.2</ele>
        <time>2020-06-07T11:58:38Z</time>
      </trkpt>
      <trkpt lat="47.2689" lon="-1.64897">
        <ele>30.2</ele>
        <time>2020-06-07T11:58:39Z</time>
      </trkpt>
      <trkpt lat="47.2689" lon="-1.64899">
        <ele>30.2</ele>
        <time>2020-06-07T11:58:40Z</time>
      </trkpt>
      <trkpt lat="47.2689" lon="-1.649">
        <ele>30.2</ele>
        <time>2020-06-07T11:58:41Z</time>
      </trkpt>
      <trkpt lat="47.2689" lon="-1.64901">
        <ele>30.2</ele>
        <time>2020-06-07T11:58:42Z</time>
      </trkpt>
      <trkpt lat="47.2689" lon="-1.64901">
        <ele>30.2</ele>
        <time>2020-06-07T11:58:43Z</time>
      </trkpt>
      <trkpt lat="47.26889" lon="-1.64902">
        <ele>30.2</ele>
        <time>2020-06-07T11:58:44Z</time>
      </trkpt>
      <trkpt lat="47.26888" lon="-1.64903">
        <ele>30.2</ele>
        <time>2020-06-07T11:58:45Z</time>
      </trkpt>
      <trkpt lat="47.26887" lon="-1.64903">
        <ele>30.2</ele>
        <time>2020-06-07T11:58:46Z</time>
      </trkpt>
      <trkpt lat="47.26887" lon="-1.64903">
        <ele>30.2</ele>
        <time>2020-06-07T11:58:47Z</time>
      </trkpt>
      <trkpt lat="47.26886" lon="-1.64904">
        <ele>30.2</ele>
        <time>2020-06-07T11:58:48Z</time>
      </trkpt>
      <trkpt lat="47.26886" lon="-1.64905">
        <ele>30.2</ele>
        <time>2020-06-07T11:58:49Z</time>
      </trkpt>
      <trkpt lat="47.26885" lon="-1.64906">
        <ele>30.2</ele>
        <time>2020-06-07T11:58:50Z</time>
      </trkpt>
      <trkpt lat="47.26885" lon="-1.64907">
        <ele>30.2</ele>
        <time>2020-06-07T11:58:51Z</time>
      </trkpt>
      <trkpt lat="47.26885" lon="-1.64909">
        <ele>30.2</ele>
        <time>2020-06-07T11:58:52Z</time>
      </trkpt>
      <trkpt lat="47.26885" lon="-1.6491">
        <ele>30.2</ele>
        <time>2020-06-07T11:58:53Z</time>
      </trkpt>
      <trkpt lat="47.26884" lon="-1.64912">
        <ele>30.2</ele>
        <time>2020-06-07T11:58:54Z</time>
      </trkpt>
      <trkpt lat="47.26884" lon="-1.64913">
        <ele>30.2</ele>
        <time>2020-06-07T11:58:55Z</time>
      </trkpt>
      <trkpt lat="47.26883" lon="-1.64915">
        <ele>30.2</ele>
        <time>2020-06-07T11:58:56Z</time>
      </trkpt>
      <trkpt lat="47.26883" lon="-1.64916">
        <ele>30.2</ele>
        <time>2020-06-07T11:58:57Z</time>
      </trkpt>
      <trkpt lat="47.26882" lon="-1.64918">
        <ele>30.2</ele>
        <time>2020-06-07T11:58:58Z</time>
      </trkpt>
      <trkpt lat="47.26881" lon="-1.64919">
        <ele>30.2</ele>
        <time>2020-06-07T11:58:59Z</time>
      </trkpt>
      <trkpt lat="47.26881" lon="-1.6492">
        <ele>30.2</ele>
        <time>2020-06-07T11:59:00Z</time>
      </trkpt>
      <trkpt lat="47.2688" lon="-1.64923">
        <ele>30.2</ele>
        <time>2020-06-07T11:59:01Z</time>
      </trkpt>
      <trkpt lat="47.26879" lon="-1.64924">
        <ele>30.2</ele>
        <time>2020-06-07T11:59:02Z</time>
      </trkpt>
      <trkpt lat="47.26879" lon="-1.64925">
        <ele>30.2</ele>
        <time>2020-06-07T11:59:03Z</time>
      </trkpt>
      <trkpt lat="47.26879" lon="-1.64927">
        <ele>30.2</ele>
        <time>2020-06-07T11:59:04Z</time>
      </trkpt>
      <trkpt lat="47.26878" lon="-1.64928">
        <ele>30.2</ele>
        <time>2020-06-07T11:59:05Z</time>
      </trkpt>
      <trkpt lat="47.26878" lon="-1.64929">
        <ele>30.2</ele>
        <time>2020-06-07T11:59:06Z</time>
      </trkpt>
      <trkpt lat="47.26877" lon="-1.6493">
        <ele>30.2</ele>
        <time>2020-06-07T11:59:07Z</time>
      </trkpt>
      <trkpt lat="47.26877" lon="-1.64931">
        <ele>30.2</ele>
        <time>2020-06-07T11:59:08Z</time>
      </trkpt>
      <trkpt lat="47.26877" lon="-1.64932">
        <ele>30.2</ele>
        <time>2020-06-07T11:59:09Z</time>
      </trkpt>
      <trkpt lat="47.26877" lon="-1.64934">
        <ele>30.2</ele>
        <time>2020-06-07T11:59:10Z</time>
      </trkpt>
      <trkpt lat="47.26876" lon="-1.64935">
        <ele>30.2</ele>
        <time>2020-06-07T11:59:11Z</time>
      </trkpt>
      <trkpt lat="47.26876" lon="-1.64936">
        <ele>30.2</ele>
        <time>2020-06-07T11:59:12Z</time>
      </trkpt>
      <trkpt lat="47.26875" lon="-1.64937">
        <ele>30.3</ele>
        <time>2020-06-07T11:59:13Z</time>
      </trkpt>
      <trkpt lat="47.26875" lon="-1.64938">
        <ele>30.3</ele>
        <time>2020-06-07T11:59:14Z</time>
      </trkpt>
      <trkpt lat="47.26875" lon="-1.64939">
        <ele>30.3</ele>
        <time>2020-06-07T11:59:15Z</time>
      </trkpt>
      <trkpt lat="47.26875" lon="-1.6494">
        <ele>30.3</ele>
        <time>2020-06-07T11:59:16Z</time>
      </trkpt>
      <trkpt lat="47.26875" lon="-1.64941">
        <ele>30.3</ele>
        <time>2020-06-07T11:59:17Z</time>
      </trkpt>
      <trkpt lat="47.26874" lon="-1.64942">
        <ele>30.3</ele>
        <time>2020-06-07T11:59:18Z</time>
      </trkpt>
      <trkpt lat="47.26874" lon="-1.64944">
        <ele>30.3</ele>
        <time>2020-06-07T11:59:19Z</time>
      </trkpt>
      <trkpt lat="47.26873" lon="-1.64945">
        <ele>30.3</ele>
        <time>2020-06-07T11:59:20Z</time>
      </trkpt>
      <trkpt lat="47.26874" lon="-1.64947">
        <ele>30.3</ele>
        <time>2020-06-07T11:59:21Z</time>
      </trkpt>
      <trkpt lat="47.26874" lon="-1.6495">
        <ele>30.3</ele>
        <time>2020-06-07T11:59:22Z</time>
      </trkpt>
      <trkpt lat="47.26873" lon="-1.64951">
        <ele>30.3</ele>
        <time>2020-06-07T11:59:23Z</time>
      </trkpt>
      <trkpt lat="47.26873" lon="-1.64952">
        <ele>30.3</ele>
        <time>2020-06-07T11:59:24Z</time>
      </trkpt>
      <trkpt lat="47.26872" lon="-1.64955">
        <ele>30.3</ele>
        <time>2020-06-07T11:59:25Z</time>
      </trkpt>
      <trkpt lat="47.26871" lon="-1.64956">
        <ele>30.3</ele>
        <time>2020-06-07T11:59:26Z</time>
      </trkpt>
      <trkpt lat="47.26871" lon="-1.64957">
        <ele>30.4</ele>
        <time>2020-06-07T11:59:27Z</time>
      </trkpt>
      <trkpt lat="47.2687" lon="-1.64958">
        <ele>30.4</ele>
        <time>2020-06-07T11:59:28Z</time>
      </trkpt>
      <trkpt lat="47.26869" lon="-1.64959">
        <ele>30.4</ele>
        <time>2020-06-07T11:59:29Z</time>
      </trkpt>
      <trkpt lat="47.26869" lon="-1.6496">
        <ele>30.4</ele>
        <time>2020-06-07T11:59:30Z</time>
      </trkpt>
      <trkpt lat="47.26868" lon="-1.64961">
        <ele>30.4</ele>
        <time>2020-06-07T11:59:31Z</time>
      </trkpt>
      <trkpt lat="47.26868" lon="-1.64963">
        <ele>30.4</ele>
        <time>2020-06-07T11:59:32Z</time>
      </trkpt>
      <trkpt lat="47.26867" lon="-1.64964">
        <ele>30.4</ele>
        <time>2020-06-07T11:59:33Z</time>
      </trkpt>
      <trkpt lat="47.26867" lon="-1.64965">
        <ele>30.4</ele>
        <time>2020-06-07T11:59:34Z</time>
      </trkpt>
      <trkpt lat="47.26867" lon="-1.64966">
        <ele>30.4</ele>
        <time>2020-06-07T11:59:35Z</time>
      </trkpt>
      <trkpt lat="47.26866" lon="-1.64968">
        <ele>30.4</ele>
        <time>2020-06-07T11:59:36Z</time>
      </trkpt>
      <trkpt lat="47.26865" lon="-1.64969">
        <ele>30.4</ele>
        <time>2020-06-07T11:59:37Z</time>
      </trkpt>
      <trkpt lat="47.26864" lon="-1.6497">
        <ele>30.4</ele>
        <time>2020-06-07T11:59:38Z</time>
      </trkpt>
      <trkpt lat="47.26863" lon="-1.64971">
        <ele>30.4</ele>
        <time>2020-06-07T11:59:39Z</time>
      </trkpt>
      <trkpt lat="47.26863" lon="-1.64971">
        <ele>30.4</ele>
        <time>2020-06-07T11:59:40Z</time>
      </trkpt>
      <trkpt lat="47.26862" lon="-1.64971">
        <ele>30.4</ele>
        <time>2020-06-07T11:59:41Z</time>
      </trkpt>
      <trkpt lat="47.26862" lon="-1.64972">
        <ele>30.4</ele>
        <time>2020-06-07T11:59:42Z</time>
      </trkpt>
      <trkpt lat="47.26862" lon="-1.64972">
        <ele>30.4</ele>
        <time>2020-06-07T11:59:43Z</time>
      </trkpt>
      <trkpt lat="47.26862" lon="-1.64973">
        <ele>30.4</ele>
        <time>2020-06-07T11:59:44Z</time>
      </trkpt>
      <trkpt lat="47.26861" lon="-1.64974">
        <ele>30.4</ele>
        <time>2020-06-07T11:59:45Z</time>
      </trkpt>
      <trkpt lat="47.26862" lon="-1.64975">
        <ele>30.4</ele>
        <time>2020-06-07T11:59:46Z</time>
      </trkpt>
      <trkpt lat="47.26861" lon="-1.64976">
        <ele>30.4</ele>
        <time>2020-06-07T11:59:47Z</time>
      </trkpt>
      <trkpt lat="47.26861" lon="-1.64977">
        <ele>30.5</ele>
        <time>2020-06-07T11:59:48Z</time>
      </trkpt>
      <trkpt lat="47.26861" lon="-1.64978">
        <ele>30.5</ele>
        <time>2020-06-07T11:59:49Z</time>
      </trkpt>
      <trkpt lat="47.26861" lon="-1.64979">
        <ele>30.5</ele>
        <time>2020-06-07T11:59:50Z</time>
      </trkpt>
      <trkpt lat="47.26861" lon="-1.64979">
        <ele>30.5</ele>
        <time>2020-06-07T11:59:51Z</time>
      </trkpt>
      <trkpt lat="47.26861" lon="-1.6498">
        <ele>30.5</ele>
        <time>2020-06-07T11:59:52Z</time>
      </trkpt>
      <trkpt lat="47.26861" lon="-1.64981">
        <ele>30.5</ele>
        <time>2020-06-07T11:59:53Z</time>
      </trkpt>
      <trkpt lat="47.26861" lon="-1.64982">
        <ele>30.5</ele>
        <time>2020-06-07T11:59:54Z</time>
      </trkpt>
      <trkpt lat="47.26861" lon="-1.64983">
        <ele>30.5</ele>
        <time>2020-06-07T11:59:55Z</time>
      </trkpt>
      <trkpt lat="47.26861" lon="-1.64984">
        <ele>30.5</ele>
        <time>2020-06-07T11:59:56Z</time>
      </trkpt>
      <trkpt lat="47.26861" lon="-1.64985">
        <ele>30.5</ele>
        <time>2020-06-07T11:59:57Z</time>
      </trkpt>
      <trkpt lat="47.26861" lon="-1.64986">
        <ele>30.5</ele>
        <time>2020-06-07T11:59:58Z</time>
      </trkpt>
      <trkpt lat="47.2686" lon="-1.64987">
        <ele>30.5</ele>
        <time>2020-06-07T11:59:59Z</time>
      </trkpt>
      <trkpt lat="47.26859" lon="-1.64988">
        <ele>30.5</ele>
        <time>2020-06-07T12:00:00Z</time>
      </trkpt>
      <trkpt lat="47.26858" lon="-1.64989">
        <ele>30.6</ele>
        <time>2020-06-07T12:00:01Z</time>
      </trkpt>
      <trkpt lat="47.26858" lon="-1.6499">
        <ele>30.6</ele>
        <time>2020-06-07T12:00:02Z</time>
      </trkpt>
      <trkpt lat="47.26857" lon="-1.64991">
        <ele>30.6</ele>
        <time>2020-06-07T12:00:03Z</time>
      </trkpt>
      <trkpt lat="47.26857" lon="-1.64992">
        <ele>30.6</ele>
        <time>2020-06-07T12:00:04Z</time>
      </trkpt>
      <trkpt lat="47.26856" lon="-1.64992">
        <ele>30.6</ele>
        <time>2020-06-07T12:00:05Z</time>
      </trkpt>
      <trkpt lat="47.26856" lon="-1.64993">
        <ele>30.6</ele>
        <time>2020-06-07T12:00:06Z</time>
      </trkpt>
      <trkpt lat="47.26855" lon="-1.64994">
        <ele>30.6</ele>
        <time>2020-06-07T12:00:07Z</time>
      </trkpt>
      <trkpt lat="47.26855" lon="-1.64995">
        <ele>30.6</ele>
        <time>2020-06-07T12:00:08Z</time>
      </trkpt>
      <trkpt lat="47.26855" lon="-1.64996">
        <ele>30.6</ele>
        <time>2020-06-07T12:00:09Z</time>
      </trkpt>
      <trkpt lat="47.26855" lon="-1.64997">
        <ele>30.6</ele>
        <time>2020-06-07T12:00:10Z</time>
      </trkpt>
      <trkpt lat="47.26855" lon="-1.64998">
        <ele>30.6</ele>
        <time>2020-06-07T12:00:11Z</time>
      </trkpt>
      <trkpt lat="47.26854" lon="-1.64998">
        <ele>30.6</ele>
        <time>2020-06-07T12:00:12Z</time>
      </trkpt>
      <trkpt lat="47.26854" lon="-1.64998">
        <ele>30.6</ele>
        <time>2020-06-07T12:00:13Z</time>
      </trkpt>
      <trkpt lat="47.26853" lon="-1.64999">
        <ele>30.7</ele>
        <time>2020-06-07T12:00:14Z</time>
      </trkpt>
      <trkpt lat="47.26853" lon="-1.65">
        <ele>30.7</ele>
        <time>2020-06-07T12:00:15Z</time>
      </trkpt>
      <trkpt lat="47.26852" lon="-1.65001">
        <ele>30.7</ele>
        <time>2020-06-07T12:00:16Z</time>
      </trkpt>
      <trkpt lat="47.26852" lon="-1.65003">
        <ele>30.7</ele>
        <time>2020-06-07T12:00:17Z</time>
      </trkpt>
      <trkpt lat="47.26852" lon="-1.65004">
        <ele>30.7</ele>
        <time>2020-06-07T12:00:18Z</time>
      </trkpt>
      <trkpt lat="47.26852" lon="-1.65006">
        <ele>30.7</ele>
        <time>2020-06-07T12:00:19Z</time>
      </trkpt>
      <trkpt lat="47.26851" lon="-1.65008">
        <ele>30.7</ele>
        <time>2020-06-07T12:00:20Z</time>
      </trkpt>
      <trkpt lat="47.26851" lon="-1.65009">
        <ele>30.7</ele>
        <time>2020-06-07T12:00:21Z</time>
      </trkpt>
      <trkpt lat="47.26851" lon="-1.65011">
        <ele>30.7</ele>
        <time>2020-06-07T12:00:22Z</time>
      </trkpt>
      <trkpt lat="47.26851" lon="-1.65013">
        <ele>30.7</ele>
        <time>2020-06-07T12:00:23Z</time>
      </trkpt>
      <trkpt lat="47.26851" lon="-1.65014">
        <ele>30.7</ele>
        <time>2020-06-07T12:00:24Z</time>
      </trkpt>
      <trkpt lat="47.2685" lon="-1.65016">
        <ele>30.7</ele>
        <time>2020-06-07T12:00:25Z</time>
      </trkpt>
      <trkpt lat="47.2685" lon="-1.65017">
        <ele>30.7</ele>
        <time>2020-06-07T12:00:26Z</time>
      </trkpt>
      <trkpt lat="47.26849" lon="-1.65019">
        <ele>30.7</ele>
        <time>2020-06-07T12:00:27Z</time>
      </trkpt>
      <trkpt lat="47.26849" lon="-1.6502">
        <ele>30.7</ele>
        <time>2020-06-07T12:00:28Z</time>
      </trkpt>
      <trkpt lat="47.26848" lon="-1.65021">
        <ele>30.7</ele>
        <time>2020-06-07T12:00:29Z</time>
      </trkpt>
      <trkpt lat="47.26848" lon="-1.65023">
        <ele>30.8</ele>
        <time>2020-06-07T12:00:30Z</time>
      </trkpt>
      <trkpt lat="47.26848" lon="-1.65025">
        <ele>30.8</ele>
        <time>2020-06-07T12:00:31Z</time>
      </trkpt>
      <trkpt lat="47.26848" lon="-1.65028">
        <ele>30.8</ele>
        <time>2020-06-07T12:00:32Z</time>
      </trkpt>
      <trkpt lat="47.26848" lon="-1.65029">
        <ele>30.8</ele>
        <time>2020-06-07T12:00:33Z</time>
      </trkpt>
      <trkpt lat="47.26849" lon="-1.65031">
        <ele>30.8</ele>
        <time>2020-06-07T12:00:34Z</time>
      </trkpt>
      <trkpt lat="47.26848" lon="-1.65032">
        <ele>30.8</ele>
        <time>2020-06-07T12:00:35Z</time>
      </trkpt>
      <trkpt lat="47.26848" lon="-1.65034">
        <ele>30.8</ele>
        <time>2020-06-07T12:00:36Z</time>
      </trkpt>
      <trkpt lat="47.26848" lon="-1.65034">
        <ele>30.8</ele>
        <time>2020-06-07T12:00:37Z</time>
      </trkpt>
      <trkpt lat="47.26848" lon="-1.65034">
        <ele>30.8</ele>
        <time>2020-06-07T12:00:38Z</time>
      </trkpt>
      <trkpt lat="47.26848" lon="-1.65034">
        <ele>30.8</ele>
        <time>2020-06-07T12:00:39Z</time>
      </trkpt>
      <trkpt lat="47.26848" lon="-1.65034">
        <ele>30.8</ele>
        <time>2020-06-07T12:00:40Z</time>
      </trkpt>
      <trkpt lat="47.26847" lon="-1.65035">
        <ele>30.8</ele>
        <time>2020-06-07T12:00:41Z</time>
      </trkpt>
      <trkpt lat="47.26846" lon="-1.65036">
        <ele>30.8</ele>
        <time>2020-06-07T12:00:42Z</time>
      </trkpt>
      <trkpt lat="47.26846" lon="-1.65036">
        <ele>30.8</ele>
        <time>2020-06-07T12:00:43Z</time>
      </trkpt>
      <trkpt lat="47.26845" lon="-1.65037">
        <ele>30.8</ele>
        <time>2020-06-07T12:00:44Z</time>
      </trkpt>
      <trkpt lat="47.26844" lon="-1.65038">
        <ele>30.8</ele>
        <time>2020-06-07T12:00:45Z</time>
      </trkpt>
      <trkpt lat="47.26844" lon="-1.65039">
        <ele>30.8</ele>
        <time>2020-06-07T12:00:46Z</time>
      </trkpt>
      <trkpt lat="47.26843" lon="-1.6504">
        <ele>30.8</ele>
        <time>2020-06-07T12:00:47Z</time>
      </trkpt>
      <trkpt lat="47.26843" lon="-1.65041">
        <ele>30.8</ele>
        <time>2020-06-07T12:00:48Z</time>
      </trkpt>
      <trkpt lat="47.26842" lon="-1.65041">
        <ele>30.8</ele>
        <time>2020-06-07T12:00:49Z</time>
      </trkpt>
      <trkpt lat="47.26842" lon="-1.65042">
        <ele>30.8</ele>
        <time>2020-06-07T12:00:50Z</time>
      </trkpt>
      <trkpt lat="47.26842" lon="-1.65043">
        <ele>30.8</ele>
        <time>2020-06-07T12:00:51Z</time>
      </trkpt>
      <trkpt lat="47.26842" lon="-1.65043">
        <ele>30.8</ele>
        <time>2020-06-07T12:00:52Z</time>
      </trkpt>
      <trkpt lat="47.26842" lon="-1.65043">
        <ele>30.8</ele>
        <time>2020-06-07T12:00:53Z</time>
      </trkpt>
      <trkpt lat="47.26842" lon="-1.65043">
        <ele>30.8</ele>
        <time>2020-06-07T12:00:54Z</time>
      </trkpt>
      <trkpt lat="47.26842" lon="-1.65044">
        <ele>30.8</ele>
        <time>2020-06-07T12:00:55Z</time>
      </trkpt>
      <trkpt lat="47.26842" lon="-1.65044">
        <ele>30.8</ele>
        <time>2020-06-07T12:00:56Z</time>
      </trkpt>
      <trkpt lat="47.26842" lon="-1.65045">
        <ele>30.8</ele>
        <time>2020-06-07T12:00:57Z</time>
      </trkpt>
      <trkpt lat="47.26841" lon="-1.65046">
        <ele>30.8</ele>
        <time>2020-06-07T12:00:58Z</time>
      </trkpt>
      <trkpt lat="47.26841" lon="-1.65047">
        <ele>30.8</ele>
        <time>2020-06-07T12:00:59Z</time>
      </trkpt>
      <trkpt lat="47.26841" lon="-1.65048">
        <ele>30.8</ele>
        <time>2020-06-07T12:01:00Z</time>
      </trkpt>
      <trkpt lat="47.2684" lon="-1.65049">
        <ele>30.8</ele>
        <time>2020-06-07T12:01:01Z</time>
      </trkpt>
      <trkpt lat="47.2684" lon="-1.6505">
        <ele>30.8</ele>
        <time>2020-06-07T12:01:02Z</time>
      </trkpt>
      <trkpt lat="47.26839" lon="-1.65051">
        <ele>30.8</ele>
        <time>2020-06-07T12:01:03Z</time>
      </trkpt>
      <trkpt lat="47.26839" lon="-1.65053">
        <ele>30.8</ele>
        <time>2020-06-07T12:01:04Z</time>
      </trkpt>
      <trkpt lat="47.26839" lon="-1.65055">
        <ele>30.8</ele>
        <time>2020-06-07T12:01:05Z</time>
      </trkpt>
      <trkpt lat="47.26839" lon="-1.65056">
        <ele>30.8</ele>
        <time>2020-06-07T12:01:06Z</time>
      </trkpt>
      <trkpt lat="47.26839" lon="-1.65056">
        <ele>30.8</ele>
        <time>2020-06-07T12:01:07Z</time>
      </trkpt>
      <trkpt lat="47.26839" lon="-1.65058">
        <ele>30.8</ele>
        <time>2020-06-07T12:01:08Z</time>
      </trkpt>
      <trkpt lat="47.26839" lon="-1.65059">
        <ele>30.8</ele>
        <time>2020-06-07T12:01:09Z</time>
      </trkpt>
      <trkpt lat="47.26838" lon="-1.65061">
        <ele>30.8</ele>
        <time>2020-06-07T12:01:10Z</time>
      </trkpt>
      <trkpt lat="47.26838" lon="-1.65062">
        <ele>30.8</ele>
        <time>2020-06-07T12:01:11Z</time>
      </trkpt>
      <trkpt lat="47.26838" lon="-1.65063">
        <ele>30.8</ele>
        <time>2020-06-07T12:01:12Z</time>
      </trkpt>
      <trkpt lat="47.26838" lon="-1.65064">
        <ele>30.7</ele>
        <time>2020-06-07T12:01:13Z</time>
      </trkpt>
      <trkpt lat="47.26838" lon="-1.65066">
        <ele>30.7</ele>
        <time>2020-06-07T12:01:14Z</time>
      </trkpt>
      <trkpt lat="47.26837" lon="-1.65067">
        <ele>30.7</ele>
        <time>2020-06-07T12:01:15Z</time>
      </trkpt>
      <trkpt lat="47.26837" lon="-1.65068">
        <ele>30.7</ele>
        <time>2020-06-07T12:01:16Z</time>
      </trkpt>
      <trkpt lat="47.26837" lon="-1.65069">
        <ele>30.7</ele>
        <time>2020-06-07T12:01:17Z</time>
      </trkpt>
      <trkpt lat="47.26836" lon="-1.65071">
        <ele>30.7</ele>
        <time>2020-06-07T12:01:18Z</time>
      </trkpt>
      <trkpt lat="47.26836" lon="-1.65072">
        <ele>30.7</ele>
        <time>2020-06-07T12:01:19Z</time>
      </trkpt>
      <trkpt lat="47.26836" lon="-1.65073">
        <ele>30.7</ele>
        <time>2020-06-07T12:01:20Z</time>
      </trkpt>
      <trkpt lat="47.26836" lon="-1.65075">
        <ele>30.7</ele>
        <time>2020-06-07T12:01:21Z</time>
      </trkpt>
      <trkpt lat="47.26837" lon="-1.65076">
        <ele>30.7</ele>
        <time>2020-06-07T12:01:22Z</time>
      </trkpt>
      <trkpt lat="47.26837" lon="-1.65076">
        <ele>30.7</ele>
        <time>2020-06-07T12:01:23Z</time>
      </trkpt>
      <trkpt lat="47.26837" lon="-1.65077">
        <ele>30.7</ele>
        <time>2020-06-07T12:01:24Z</time>
      </trkpt>
      <trkpt lat="47.26837" lon="-1.65078">
        <ele>30.7</ele>
        <time>2020-06-07T12:01:25Z</time>
      </trkpt>
      <trkpt lat="47.26836" lon="-1.65079">
        <ele>30.7</ele>
        <time>2020-06-07T12:01:26Z</time>
      </trkpt>
      <trkpt lat="47.26835" lon="-1.6508">
        <ele>30.7</ele>
        <time>2020-06-07T12:01:27Z</time>
      </trkpt>
      <trkpt lat="47.26835" lon="-1.65081">
        <ele>30.7</ele>
        <time>2020-06-07T12:01:28Z</time>
      </trkpt>
      <trkpt lat="47.26834" lon="-1.65082">
        <ele>30.7</ele>
        <time>2020-06-07T12:01:29Z</time>
      </trkpt>
      <trkpt lat="47.26834" lon="-1.65083">
        <ele>30.7</ele>
        <time>2020-06-07T12:01:30Z</time>
      </trkpt>
      <trkpt lat="47.26833" lon="-1.65084">
        <ele>30.7</ele>
        <time>2020-06-07T12:01:31Z</time>
      </trkpt>
      <trkpt lat="47.26833" lon="-1.65086">
        <ele>30.7</ele>
        <time>2020-06-07T12:01:32Z</time>
      </trkpt>
      <trkpt lat="47.26832" lon="-1.65087">
        <ele>30.7</ele>
        <time>2020-06-07T12:01:33Z</time>
      </trkpt>
      <trkpt lat="47.26832" lon="-1.65089">
        <ele>30.7</ele>
        <time>2020-06-07T12:01:34Z</time>
      </trkpt>
      <trkpt lat="47.26832" lon="-1.6509">
        <ele>30.7</ele>
        <time>2020-06-07T12:01:35Z</time>
      </trkpt>
      <trkpt lat="47.26831" lon="-1.65092">
        <ele>30.7</ele>
        <time>2020-06-07T12:01:36Z</time>
      </trkpt>
      <trkpt lat="47.26831" lon="-1.65093">
        <ele>30.7</ele>
        <time>2020-06-07T12:01:37Z</time>
      </trkpt>
      <trkpt lat="47.2683" lon="-1.65095">
        <ele>30.7</ele>
        <time>2020-06-07T12:01:38Z</time>
      </trkpt>
      <trkpt lat="47.2683" lon="-1.65096">
        <ele>30.7</ele>
        <time>2020-06-07T12:01:39Z</time>
      </trkpt>
      <trkpt lat="47.2683" lon="-1.65098">
        <ele>30.7</ele>
        <time>2020-06-07T12:01:40Z</time>
      </trkpt>
      <trkpt lat="47.26829" lon="-1.65099">
        <ele>30.7</ele>
        <time>2020-06-07T12:01:41Z</time>
      </trkpt>
      <trkpt lat="47.26829" lon="-1.651">
        <ele>30.7</ele>
        <time>2020-06-07T12:01:42Z</time>
      </trkpt>
      <trkpt lat="47.26829" lon="-1.65101">
        <ele>30.7</ele>
        <time>2020-06-07T12:01:43Z</time>
      </trkpt>
      <trkpt lat="47.26829" lon="-1.65102">
        <ele>30.7</ele>
        <time>2020-06-07T12:01:44Z</time>
      </trkpt>
      <trkpt lat="47.26828" lon="-1.65104">
        <ele>30.7</ele>
        <time>2020-06-07T12:01:45Z</time>
      </trkpt>
      <trkpt lat="47.26828" lon="-1.65105">
        <ele>30.7</ele>
        <time>2020-06-07T12:01:46Z</time>
      </trkpt>
      <trkpt lat="47.26828" lon="-1.65106">
        <ele>30.7</ele>
        <time>2020-06-07T12:01:47Z</time>
      </trkpt>
      <trkpt lat="47.26828" lon="-1.65107">
        <ele>30.7</ele>
        <time>2020-06-07T12:01:48Z</time>
      </trkpt>
      <trkpt lat="47.26827" lon="-1.65108">
        <ele>30.7</ele>
        <time>2020-06-07T12:01:49Z</time>
      </trkpt>
      <trkpt lat="47.26827" lon="-1.65109">
        <ele>30.7</ele>
        <time>2020-06-07T12:01:50Z</time>
      </trkpt>
      <trkpt lat="47.26827" lon="-1.65111">
        <ele>30.7</ele>
        <time>2020-06-07T12:01:51Z</time>
      </trkpt>
      <trkpt lat="47.26826" lon="-1.65112">
        <ele>30.7</ele>
        <time>2020-06-07T12:01:52Z</time>
      </trkpt>
      <trkpt lat="47.26826" lon="-1.65113">
        <ele>30.7</ele>
        <time>2020-06-07T12:01:53Z</time>
      </trkpt>
      <trkpt lat="47.26826" lon="-1.65114">
        <ele>30.7</ele>
        <time>2020-06-07T12:01:54Z</time>
      </trkpt>
      <trkpt lat="47.26825" lon="-1.65115">
        <ele>30.7</ele>
        <time>2020-06-07T12:01:55Z</time>
      </trkpt>
      <trkpt lat="47.26824" lon="-1.65116">
        <ele>30.7</ele>
        <time>2020-06-07T12:01:56Z</time>
      </trkpt>
      <trkpt lat="47.26824" lon="-1.65117">
        <ele>30.7</ele>
        <time>2020-06-07T12:01:57Z</time>
      </trkpt>
      <trkpt lat="47.26823" lon="-1.65118">
        <ele>30.7</ele>
        <time>2020-06-07T12:01:58Z</time>
      </trkpt>
      <trkpt lat="47.26823" lon="-1.65119">
        <ele>30.7</ele>
        <time>2020-06-07T12:01:59Z</time>
      </trkpt>
      <trkpt lat="47.26822" lon="-1.6512">
        <ele>30.7</ele>
        <time>2020-06-07T12:02:00Z</time>
      </trkpt>
      <trkpt lat="47.26821" lon="-1.65121">
        <ele>30.7</ele>
        <time>2020-06-07T12:02:01Z</time>
      </trkpt>
      <trkpt lat="47.26821" lon="-1.65122">
        <ele>30.7</ele>
        <time>2020-06-07T12:02:02Z</time>
      </trkpt>
      <trkpt lat="47.2682" lon="-1.65123">
        <ele>30.7</ele>
        <time>2020-06-07T12:02:03Z</time>
      </trkpt>
      <trkpt lat="47.2682" lon="-1.65124">
        <ele>30.7</ele>
        <time>2020-06-07T12:02:04Z</time>
      </trkpt>
      <trkpt lat="47.26819" lon="-1.65125">
        <ele>30.7</ele>
        <time>2020-06-07T12:02:05Z</time>
      </trkpt>
      <trkpt lat="47.26818" lon="-1.65126">
        <ele>30.7</ele>
        <time>2020-06-07T12:02:06Z</time>
      </trkpt>
      <trkpt lat="47.26817" lon="-1.65127">
        <ele>30.7</ele>
        <time>2020-06-07T12:02:07Z</time>
      </trkpt>
      <trkpt lat="47.26817" lon="-1.65128">
        <ele>30.7</ele>
        <time>2020-06-07T12:02:08Z</time>
      </trkpt>
      <trkpt lat="47.26816" lon="-1.65129">
        <ele>30.7</ele>
        <time>2020-06-07T12:02:09Z</time>
      </trkpt>
      <trkpt lat="47.26815" lon="-1.6513">
        <ele>30.7</ele>
        <time>2020-06-07T12:02:10Z</time>
      </trkpt>
      <trkpt lat="47.26814" lon="-1.65131">
        <ele>30.7</ele>
        <time>2020-06-07T12:02:11Z</time>
      </trkpt>
      <trkpt lat="47.26814" lon="-1.65132">
        <ele>30.7</ele>
        <time>2020-06-07T12:02:12Z</time>
      </trkpt>
      <trkpt lat="47.26814" lon="-1.65133">
        <ele>30.7</ele>
        <time>2020-06-07T12:02:13Z</time>
      </trkpt>
      <trkpt lat="47.26813" lon="-1.65134">
        <ele>30.7</ele>
        <time>2020-06-07T12:02:14Z</time>
      </trkpt>
      <trkpt lat="47.26813" lon="-1.65135">
        <ele>30.7</ele>
        <time>2020-06-07T12:02:15Z</time>
      </trkpt>
      <trkpt lat="47.26812" lon="-1.65136">
        <ele>30.7</ele>
        <time>2020-06-07T12:02:16Z</time>
      </trkpt>
      <trkpt lat="47.26811" lon="-1.65137">
        <ele>30.7</ele>
        <time>2020-06-07T12:02:17Z</time>
      </trkpt>
      <trkpt lat="47.2681" lon="-1.65137">
        <ele>30.7</ele>
        <time>2020-06-07T12:02:18Z</time>
      </trkpt>
      <trkpt lat="47.26809" lon="-1.65138">
        <ele>30.7</ele>
        <time>2020-06-07T12:02:19Z</time>
      </trkpt>
      <trkpt lat="47.2681" lon="-1.65138">
        <ele>30.7</ele>
        <time>2020-06-07T12:02:20Z</time>
      </trkpt>
      <trkpt lat="47.26809" lon="-1.65138">
        <ele>30.7</ele>
        <time>2020-06-07T12:02:21Z</time>
      </trkpt>
      <trkpt lat="47.26809" lon="-1.65138">
        <ele>30.7</ele>
        <time>2020-06-07T12:02:22Z</time>
      </trkpt>
      <trkpt lat="47.26808" lon="-1.65139">
        <ele>30.7</ele>
        <time>2020-06-07T12:02:23Z</time>
      </trkpt>
      <trkpt lat="47.26808" lon="-1.65139">
        <ele>30.7</ele>
        <time>2020-06-07T12:02:24Z</time>
      </trkpt>
      <trkpt lat="47.26807" lon="-1.6514">
        <ele>30.7</ele>
        <time>2020-06-07T12:02:25Z</time>
      </trkpt>
      <trkpt lat="47.26806" lon="-1.6514">
        <ele>30.7</ele>
        <time>2020-06-07T12:02:26Z</time>
      </trkpt>
      <trkpt lat="47.26806" lon="-1.65141">
        <ele>30.7</ele>
        <time>2020-06-07T12:02:27Z</time>
      </trkpt>
      <trkpt lat="47.26805" lon="-1.65141">
        <ele>30.7</ele>
        <time>2020-06-07T12:02:28Z</time>
      </trkpt>
      <trkpt lat="47.26804" lon="-1.65142">
        <ele>30.7</ele>
        <time>2020-06-07T12:02:29Z</time>
      </trkpt>
      <trkpt lat="47.26803" lon="-1.65143">
        <ele>30.7</ele>
        <time>2020-06-07T12:02:30Z</time>
      </trkpt>
      <trkpt lat="47.26802" lon="-1.65144">
        <ele>30.7</ele>
        <time>2020-06-07T12:02:31Z</time>
      </trkpt>
      <trkpt lat="47.26801" lon="-1.65145">
        <ele>30.7</ele>
        <time>2020-06-07T12:02:32Z</time>
      </trkpt>
      <trkpt lat="47.268" lon="-1.65147">
        <ele>30.7</ele>
        <time>2020-06-07T12:02:33Z</time>
      </trkpt>
      <trkpt lat="47.26799" lon="-1.65147">
        <ele>30.7</ele>
        <time>2020-06-07T12:02:34Z</time>
      </trkpt>
      <trkpt lat="47.26799" lon="-1.65148">
        <ele>30.7</ele>
        <time>2020-06-07T12:02:35Z</time>
      </trkpt>
      <trkpt lat="47.26798" lon="-1.6515">
        <ele>30.7</ele>
        <time>2020-06-07T12:02:36Z</time>
      </trkpt>
      <trkpt lat="47.26797" lon="-1.65151">
        <ele>30.7</ele>
        <time>2020-06-07T12:02:37Z</time>
      </trkpt>
      <trkpt lat="47.26797" lon="-1.65152">
        <ele>30.7</ele>
        <time>2020-06-07T12:02:38Z</time>
      </trkpt>
      <trkpt lat="47.26796" lon="-1.65153">
        <ele>30.7</ele>
        <time>2020-06-07T12:02:39Z</time>
      </trkpt>
      <trkpt lat="47.26796" lon="-1.65154">
        <ele>30.7</ele>
        <time>2020-06-07T12:02:40Z</time>
      </trkpt>
      <trkpt lat="47.26795" lon="-1.65155">
        <ele>30.7</ele>
        <time>2020-06-07T12:02:41Z</time>
      </trkpt>
      <trkpt lat="47.26794" lon="-1.65156">
        <ele>30.7</ele>
        <time>2020-06-07T12:02:42Z</time>
      </trkpt>
      <trkpt lat="47.26794" lon="-1.65158">
        <ele>30.7</ele>
        <time>2020-06-07T12:02:43Z</time>
      </trkpt>
      <trkpt lat="47.26794" lon="-1.65159">
        <ele>30.8</ele>
        <time>2020-06-07T12:02:44Z</time>
      </trkpt>
      <trkpt lat="47.26793" lon="-1.6516">
        <ele>30.8</ele>
        <time>2020-06-07T12:02:45Z</time>
      </trkpt>
      <trkpt lat="47.26793" lon="-1.65161">
        <ele>30.8</ele>
        <time>2020-06-07T12:02:46Z</time>
      </trkpt>
      <trkpt lat="47.26792" lon="-1.65162">
        <ele>30.8</ele>
        <time>2020-06-07T12:02:47Z</time>
      </trkpt>
      <trkpt lat="47.26791" lon="-1.65163">
        <ele>30.8</ele>
        <time>2020-06-07T12:02:48Z</time>
      </trkpt>
      <trkpt lat="47.26791" lon="-1.65165">
        <ele>30.8</ele>
        <time>2020-06-07T12:02:49Z</time>
      </trkpt>
      <trkpt lat="47.26791" lon="-1.65166">
        <ele>30.8</ele>
        <time>2020-06-07T12:02:50Z</time>
      </trkpt>
      <trkpt lat="47.2679" lon="-1.65168">
        <ele>30.8</ele>
        <time>2020-06-07T12:02:51Z</time>
      </trkpt>
      <trkpt lat="47.2679" lon="-1.65169">
        <ele>30.8</ele>
        <time>2020-06-07T12:02:52Z</time>
      </trkpt>
      <trkpt lat="47.26789" lon="-1.6517">
        <ele>30.9</ele>
        <time>2020-06-07T12:02:53Z</time>
      </trkpt>
      <trkpt lat="47.26789" lon="-1.65171">
        <ele>30.9</ele>
        <time>2020-06-07T12:02:54Z</time>
      </trkpt>
      <trkpt lat="47.26789" lon="-1.65174">
        <ele>30.9</ele>
        <time>2020-06-07T12:02:55Z</time>
      </trkpt>
      <trkpt lat="47.26789" lon="-1.65175">
        <ele>30.9</ele>
        <time>2020-06-07T12:02:56Z</time>
      </trkpt>
      <trkpt lat="47.26788" lon="-1.65176">
        <ele>30.9</ele>
        <time>2020-06-07T12:02:57Z</time>
      </trkpt>
      <trkpt lat="47.26788" lon="-1.65177">
        <ele>30.9</ele>
        <time>2020-06-07T12:02:58Z</time>
      </trkpt>
      <trkpt lat="47.26788" lon="-1.65178">
        <ele>30.9</ele>
        <time>2020-06-07T12:02:59Z</time>
      </trkpt>
      <trkpt lat="47.26788" lon="-1.65179">
        <ele>30.9</ele>
        <time>2020-06-07T12:03:00Z</time>
      </trkpt>
      <trkpt lat="47.26787" lon="-1.6518">
        <ele>30.9</ele>
        <time>2020-06-07T12:03:01Z</time>
      </trkpt>
      <trkpt lat="47.26787" lon="-1.65181">
        <ele>30.9</ele>
        <time>2020-06-07T12:03:02Z</time>
      </trkpt>
      <trkpt lat="47.26787" lon="-1.65182">
        <ele>30.9</ele>
        <time>2020-06-07T12:03:03Z</time>
      </trkpt>
      <trkpt lat="47.26786" lon="-1.65183">
        <ele>30.9</ele>
        <time>2020-06-07T12:03:04Z</time>
      </trkpt>
      <trkpt lat="47.26786" lon="-1.65183">
        <ele>30.9</ele>
        <time>2020-06-07T12:03:05Z</time>
      </trkpt>
      <trkpt lat="47.26785" lon="-1.65185">
        <ele>30.9</ele>
        <time>2020-06-07T12:03:06Z</time>
      </trkpt>
      <trkpt lat="47.26784" lon="-1.65185">
        <ele>31</ele>
        <time>2020-06-07T12:03:07Z</time>
      </trkpt>
      <trkpt lat="47.26784" lon="-1.65186">
        <ele>31</ele>
        <time>2020-06-07T12:03:08Z</time>
      </trkpt>
      <trkpt lat="47.26783" lon="-1.65187">
        <ele>31</ele>
        <time>2020-06-07T12:03:09Z</time>
      </trkpt>
      <trkpt lat="47.26783" lon="-1.65188">
        <ele>31</ele>
        <time>2020-06-07T12:03:10Z</time>
      </trkpt>
      <trkpt lat="47.26782" lon="-1.65189">
        <ele>31</ele>
        <time>2020-06-07T12:03:11Z</time>
      </trkpt>
      <trkpt lat="47.26782" lon="-1.6519">
        <ele>31</ele>
        <time>2020-06-07T12:03:12Z</time>
      </trkpt>
      <trkpt lat="47.26782" lon="-1.6519">
        <ele>31</ele>
        <time>2020-06-07T12:03:13Z</time>
      </trkpt>
      <trkpt lat="47.26782" lon="-1.6519">
        <ele>31</ele>
        <time>2020-06-07T12:03:14Z</time>
      </trkpt>
      <trkpt lat="47.26781" lon="-1.6519">
        <ele>31</ele>
        <time>2020-06-07T12:03:15Z</time>
      </trkpt>
      <trkpt lat="47.2678" lon="-1.65191">
        <ele>31</ele>
        <time>2020-06-07T12:03:16Z</time>
      </trkpt>
      <trkpt lat="47.26779" lon="-1.65193">
        <ele>31</ele>
        <time>2020-06-07T12:03:17Z</time>
      </trkpt>
      <trkpt lat="47.26778" lon="-1.65193">
        <ele>31</ele>
        <time>2020-06-07T12:03:18Z</time>
      </trkpt>
      <trkpt lat="47.26775" lon="-1.65194">
        <ele>31</ele>
        <time>2020-06-07T12:03:19Z</time>
      </trkpt>
      <trkpt lat="47.26774" lon="-1.65194">
        <ele>31</ele>
        <time>2020-06-07T12:03:20Z</time>
      </trkpt>
      <trkpt lat="47.26772" lon="-1.65196">
        <ele>31</ele>
        <time>2020-06-07T12:03:21Z</time>
      </trkpt>
      <trkpt lat="47.26772" lon="-1.65198">
        <ele>31</ele>
        <time>2020-06-07T12:03:22Z</time>
      </trkpt>
      <trkpt lat="47.26771" lon="-1.65199">
        <ele>31</ele>
        <time>2020-06-07T12:03:23Z</time>
      </trkpt>
      <trkpt lat="47.26771" lon="-1.652">
        <ele>31</ele>
        <time>2020-06-07T12:03:24Z</time>
      </trkpt>
      <trkpt lat="47.2677" lon="-1.65202">
        <ele>31</ele>
        <time>2020-06-07T12:03:25Z</time>
      </trkpt>
      <trkpt lat="47.2677" lon="-1.65203">
        <ele>31</ele>
        <time>2020-06-07T12:03:26Z</time>
      </trkpt>
      <trkpt lat="47.26769" lon="-1.65204">
        <ele>31</ele>
        <time>2020-06-07T12:03:27Z</time>
      </trkpt>
      <trkpt lat="47.26768" lon="-1.65205">
        <ele>31</ele>
        <time>2020-06-07T12:03:28Z</time>
      </trkpt>
      <trkpt lat="47.26768" lon="-1.65206">
        <ele>31</ele>
        <time>2020-06-07T12:03:29Z</time>
      </trkpt>
      <trkpt lat="47.26767" lon="-1.65208">
        <ele>31</ele>
        <time>2020-06-07T12:03:30Z</time>
      </trkpt>
      <trkpt lat="47.26767" lon="-1.6521">
        <ele>31.1</ele>
        <time>2020-06-07T12:03:31Z</time>
      </trkpt>
      <trkpt lat="47.26767" lon="-1.65211">
        <ele>31.1</ele>
        <time>2020-06-07T12:03:32Z</time>
      </trkpt>
      <trkpt lat="47.26768" lon="-1.65213">
        <ele>31.1</ele>
        <time>2020-06-07T12:03:33Z</time>
      </trkpt>
      <trkpt lat="47.26768" lon="-1.65214">
        <ele>31.1</ele>
        <time>2020-06-07T12:03:34Z</time>
      </trkpt>
      <trkpt lat="47.26769" lon="-1.65215">
        <ele>31.1</ele>
        <time>2020-06-07T12:03:35Z</time>
      </trkpt>
      <trkpt lat="47.26769" lon="-1.65217">
        <ele>31.1</ele>
        <time>2020-06-07T12:03:36Z</time>
      </trkpt>
      <trkpt lat="47.26769" lon="-1.65218">
        <ele>31.1</ele>
        <time>2020-06-07T12:03:37Z</time>
      </trkpt>
      <trkpt lat="47.26769" lon="-1.6522">
        <ele>31.1</ele>
        <time>2020-06-07T12:03:38Z</time>
      </trkpt>
      <trkpt lat="47.2677" lon="-1.65223">
        <ele>31.1</ele>
        <time>2020-06-07T12:03:39Z</time>
      </trkpt>
      <trkpt lat="47.2677" lon="-1.65224">
        <ele>31.1</ele>
        <time>2020-06-07T12:03:40Z</time>
      </trkpt>
      <trkpt lat="47.26771" lon="-1.65225">
        <ele>31.1</ele>
        <time>2020-06-07T12:03:41Z</time>
      </trkpt>
      <trkpt lat="47.26771" lon="-1.65226">
        <ele>31.2</ele>
        <time>2020-06-07T12:03:42Z</time>
      </trkpt>
      <trkpt lat="47.26772" lon="-1.65227">
        <ele>31.2</ele>
        <time>2020-06-07T12:03:43Z</time>
      </trkpt>
      <trkpt lat="47.26772" lon="-1.65229">
        <ele>31.2</ele>
        <time>2020-06-07T12:03:44Z</time>
      </trkpt>
      <trkpt lat="47.26772" lon="-1.6523">
        <ele>31.2</ele>
        <time>2020-06-07T12:03:45Z</time>
      </trkpt>
      <trkpt lat="47.26773" lon="-1.65232">
        <ele>31.2</ele>
        <time>2020-06-07T12:03:46Z</time>
      </trkpt>
      <trkpt lat="47.26774" lon="-1.65233">
        <ele>31.2</ele>
        <time>2020-06-07T12:03:47Z</time>
      </trkpt>
      <trkpt lat="47.26775" lon="-1.65234">
        <ele>31.2</ele>
        <time>2020-06-07T12:03:48Z</time>
      </trkpt>
      <trkpt lat="47.26776" lon="-1.65235">
        <ele>31.3</ele>
        <time>2020-06-07T12:03:49Z</time>
      </trkpt>
      <trkpt lat="47.26776" lon="-1.65237">
        <ele>31.3</ele>
        <time>2020-06-07T12:03:50Z</time>
      </trkpt>
      <trkpt lat="47.26777" lon="-1.65238">
        <ele>31.3</ele>
        <time>2020-06-07T12:03:51Z</time>
      </trkpt>
      <trkpt lat="47.26777" lon="-1.65239">
        <ele>31.3</ele>
        <time>2020-06-07T12:03:52Z</time>
      </trkpt>
      <trkpt lat="47.26777" lon="-1.65241">
        <ele>31.3</ele>
        <time>2020-06-07T12:03:53Z</time>
      </trkpt>
      <trkpt lat="47.26777" lon="-1.65242">
        <ele>31.4</ele>
        <time>2020-06-07T12:03:54Z</time>
      </trkpt>
      <trkpt lat="47.26776" lon="-1.65243">
        <ele>31.4</ele>
        <time>2020-06-07T12:03:55Z</time>
      </trkpt>
      <trkpt lat="47.26776" lon="-1.65245">
        <ele>31.4</ele>
        <time>2020-06-07T12:03:56Z</time>
      </trkpt>
      <trkpt lat="47.26776" lon="-1.65246">
        <ele>31.4</ele>
        <time>2020-06-07T12:03:57Z</time>
      </trkpt>
      <trkpt lat="47.26775" lon="-1.65246">
        <ele>31.5</ele>
        <time>2020-06-07T12:03:58Z</time>
      </trkpt>
      <trkpt lat="47.26775" lon="-1.65247">
        <ele>31.5</ele>
        <time>2020-06-07T12:03:59Z</time>
      </trkpt>
      <trkpt lat="47.26774" lon="-1.65248">
        <ele>31.5</ele>
        <time>2020-06-07T12:04:00Z</time>
      </trkpt>
      <trkpt lat="47.26773" lon="-1.65249">
        <ele>31.5</ele>
        <time>2020-06-07T12:04:01Z</time>
      </trkpt>
      <trkpt lat="47.26773" lon="-1.65249">
        <ele>31.6</ele>
        <time>2020-06-07T12:04:02Z</time>
      </trkpt>
      <trkpt lat="47.26772" lon="-1.6525">
        <ele>31.6</ele>
        <time>2020-06-07T12:04:03Z</time>
      </trkpt>
      <trkpt lat="47.26772" lon="-1.65251">
        <ele>31.6</ele>
        <time>2020-06-07T12:04:04Z</time>
      </trkpt>
      <trkpt lat="47.26771" lon="-1.65252">
        <ele>31.7</ele>
        <time>2020-06-07T12:04:05Z</time>
      </trkpt>
      <trkpt lat="47.2677" lon="-1.65253">
        <ele>31.7</ele>
        <time>2020-06-07T12:04:06Z</time>
      </trkpt>
      <trkpt lat="47.26769" lon="-1.65254">
        <ele>31.8</ele>
        <time>2020-06-07T12:04:07Z</time>
      </trkpt>
      <trkpt lat="47.26768" lon="-1.65256">
        <ele>31.9</ele>
        <time>2020-06-07T12:04:08Z</time>
      </trkpt>
      <trkpt lat="47.26768" lon="-1.65257">
        <ele>31.9</ele>
        <time>2020-06-07T12:04:09Z</time>
      </trkpt>
      <trkpt lat="47.26767" lon="-1.65258">
        <ele>32</ele>
        <time>2020-06-07T12:04:10Z</time>
      </trkpt>
      <trkpt lat="47.26767" lon="-1.65259">
        <ele>32</ele>
        <time>2020-06-07T12:04:11Z</time>
      </trkpt>
      <trkpt lat="47.26766" lon="-1.6526">
        <ele>32.1</ele>
        <time>2020-06-07T12:04:12Z</time>
      </trkpt>
      <trkpt lat="47.26766" lon="-1.65261">
        <ele>32.1</ele>
        <time>2020-06-07T12:04:13Z</time>
      </trkpt>
      <trkpt lat="47.26766" lon="-1.65262">
        <ele>32.1</ele>
        <time>2020-06-07T12:04:14Z</time>
      </trkpt>
      <trkpt lat="47.26765" lon="-1.65263">
        <ele>32.2</ele>
        <time>2020-06-07T12:04:15Z</time>
      </trkpt>
      <trkpt lat="47.26765" lon="-1.65263">
        <ele>32.2</ele>
        <time>2020-06-07T12:04:16Z</time>
      </trkpt>
      <trkpt lat="47.26764" lon="-1.65264">
        <ele>32.3</ele>
        <time>2020-06-07T12:04:17Z</time>
      </trkpt>
      <trkpt lat="47.26763" lon="-1.65265">
        <ele>32.3</ele>
        <time>2020-06-07T12:04:18Z</time>
      </trkpt>
      <trkpt lat="47.26763" lon="-1.65264">
        <ele>32.4</ele>
        <time>2020-06-07T12:04:19Z</time>
      </trkpt>
      <trkpt lat="47.26762" lon="-1.65264">
        <ele>32.4</ele>
        <time>2020-06-07T12:04:20Z</time>
      </trkpt>
      <trkpt lat="47.26761" lon="-1.65265">
        <ele>32.5</ele>
        <time>2020-06-07T12:04:21Z</time>
      </trkpt>
      <trkpt lat="47.2676" lon="-1.65264">
        <ele>32.5</ele>
        <time>2020-06-07T12:04:22Z</time>
      </trkpt>
      <trkpt lat="47.2676" lon="-1.65265">
        <ele>32.5</ele>
        <time>2020-06-07T12:04:23Z</time>
      </trkpt>
      <trkpt lat="47.2676" lon="-1.65266">
        <ele>32.6</ele>
        <time>2020-06-07T12:04:24Z</time>
      </trkpt>
      <trkpt lat="47.2676" lon="-1.65267">
        <ele>32.6</ele>
        <time>2020-06-07T12:04:25Z</time>
      </trkpt>
      <trkpt lat="47.2676" lon="-1.65268">
        <ele>32.7</ele>
        <time>2020-06-07T12:04:26Z</time>
      </trkpt>
      <trkpt lat="47.2676" lon="-1.65269">
        <ele>32.7</ele>
        <time>2020-06-07T12:04:27Z</time>
      </trkpt>
      <trkpt lat="47.26761" lon="-1.6527">
        <ele>32.8</ele>
        <time>2020-06-07T12:04:28Z</time>
      </trkpt>
      <trkpt lat="47.26761" lon="-1.65271">
        <ele>32.8</ele>
        <time>2020-06-07T12:04:29Z</time>
      </trkpt>
      <trkpt lat="47.26761" lon="-1.65272">
        <ele>32.9</ele>
        <time>2020-06-07T12:04:30Z</time>
      </trkpt>
      <trkpt lat="47.26761" lon="-1.65274">
        <ele>32.9</ele>
        <time>2020-06-07T12:04:31Z</time>
      </trkpt>
      <trkpt lat="47.26761" lon="-1.65275">
        <ele>33</ele>
        <time>2020-06-07T12:04:32Z</time>
      </trkpt>
      <trkpt lat="47.26761" lon="-1.65276">
        <ele>33.1</ele>
        <time>2020-06-07T12:04:33Z</time>
      </trkpt>
      <trkpt lat="47.26761" lon="-1.65278">
        <ele>33.1</ele>
        <time>2020-06-07T12:04:34Z</time>
      </trkpt>
      <trkpt lat="47.26761" lon="-1.65279">
        <ele>33.2</ele>
        <time>2020-06-07T12:04:35Z</time>
      </trkpt>
      <trkpt lat="47.26761" lon="-1.6528">
        <ele>33.2</ele>
        <time>2020-06-07T12:04:36Z</time>
      </trkpt>
      <trkpt lat="47.26761" lon="-1.65281">
        <ele>33.3</ele>
        <time>2020-06-07T12:04:37Z</time>
      </trkpt>
      <trkpt lat="47.26761" lon="-1.65283">
        <ele>33.3</ele>
        <time>2020-06-07T12:04:38Z</time>
      </trkpt>
      <trkpt lat="47.26761" lon="-1.65284">
        <ele>33.4</ele>
        <time>2020-06-07T12:04:39Z</time>
      </trkpt>
      <trkpt lat="47.26761" lon="-1.65285">
        <ele>33.4</ele>
        <time>2020-06-07T12:04:40Z</time>
      </trkpt>
      <trkpt lat="47.26761" lon="-1.65286">
        <ele>33.5</ele>
        <time>2020-06-07T12:04:41Z</time>
      </trkpt>
      <trkpt lat="47.2676" lon="-1.65288">
        <ele>33.5</ele>
        <time>2020-06-07T12:04:42Z</time>
      </trkpt>
      <trkpt lat="47.2676" lon="-1.65289">
        <ele>33.6</ele>
        <time>2020-06-07T12:04:43Z</time>
      </trkpt>
      <trkpt lat="47.2676" lon="-1.6529">
        <ele>33.6</ele>
        <time>2020-06-07T12:04:44Z</time>
      </trkpt>
      <trkpt lat="47.26759" lon="-1.65291">
        <ele>33.7</ele>
        <time>2020-06-07T12:04:45Z</time>
      </trkpt>
      <trkpt lat="47.26759" lon="-1.65292">
        <ele>33.7</ele>
        <time>2020-06-07T12:04:46Z</time>
      </trkpt>
      <trkpt lat="47.26759" lon="-1.65293">
        <ele>33.8</ele>
        <time>2020-06-07T12:04:47Z</time>
      </trkpt>
      <trkpt lat="47.26759" lon="-1.65295">
        <ele>33.9</ele>
        <time>2020-06-07T12:04:48Z</time>
      </trkpt>
      <trkpt lat="47.26758" lon="-1.65296">
        <ele>33.9</ele>
        <time>2020-06-07T12:04:49Z</time>
      </trkpt>
      <trkpt lat="47.26758" lon="-1.65297">
        <ele>34</ele>
        <time>2020-06-07T12:04:50Z</time>
      </trkpt>
      <trkpt lat="47.26758" lon="-1.65298">
        <ele>34</ele>
        <time>2020-06-07T12:04:51Z</time>
      </trkpt>
      <trkpt lat="47.26758" lon="-1.653">
        <ele>34.1</ele>
        <time>2020-06-07T12:04:52Z</time>
      </trkpt>
      <trkpt lat="47.26758" lon="-1.65301">
        <ele>34.2</ele>
        <time>2020-06-07T12:04:53Z</time>
      </trkpt>
      <trkpt lat="47.26758" lon="-1.65303">
        <ele>34.2</ele>
        <time>2020-06-07T12:04:54Z</time>
      </trkpt>
      <trkpt lat="47.26758" lon="-1.65304">
        <ele>34.3</ele>
        <time>2020-06-07T12:04:55Z</time>
      </trkpt>
      <trkpt lat="47.26758" lon="-1.65305">
        <ele>34.4</ele>
        <time>2020-06-07T12:04:56Z</time>
      </trkpt>
      <trkpt lat="47.26758" lon="-1.65307">
        <ele>34.4</ele>
        <time>2020-06-07T12:04:57Z</time>
      </trkpt>
      <trkpt lat="47.26758" lon="-1.65308">
        <ele>34.5</ele>
        <time>2020-06-07T12:04:58Z</time>
      </trkpt>
      <trkpt lat="47.26758" lon="-1.65309">
        <ele>34.5</ele>
        <time>2020-06-07T12:04:59Z</time>
      </trkpt>
      <trkpt lat="47.26758" lon="-1.6531">
        <ele>34.6</ele>
        <time>2020-06-07T12:05:00Z</time>
      </trkpt>
      <trkpt lat="47.26758" lon="-1.65311">
        <ele>34.7</ele>
        <time>2020-06-07T12:05:01Z</time>
      </trkpt>
      <trkpt lat="47.26757" lon="-1.65312">
        <ele>34.7</ele>
        <time>2020-06-07T12:05:02Z</time>
      </trkpt>
      <trkpt lat="47.26758" lon="-1.65313">
        <ele>34.8</ele>
        <time>2020-06-07T12:05:03Z</time>
      </trkpt>
      <trkpt lat="47.26758" lon="-1.65313">
        <ele>34.8</ele>
        <time>2020-06-07T12:05:04Z</time>
      </trkpt>
      <trkpt lat="47.26759" lon="-1.65314">
        <ele>34.8</ele>
        <time>2020-06-07T12:05:05Z</time>
      </trkpt>
      <trkpt lat="47.26759" lon="-1.65315">
        <ele>34.9</ele>
        <time>2020-06-07T12:05:06Z</time>
      </trkpt>
      <trkpt lat="47.26759" lon="-1.65316">
        <ele>35</ele>
        <time>2020-06-07T12:05:07Z</time>
      </trkpt>
      <trkpt lat="47.26759" lon="-1.65317">
        <ele>35</ele>
        <time>2020-06-07T12:05:08Z</time>
      </trkpt>
      <trkpt lat="47.26759" lon="-1.65317">
        <ele>35</ele>
        <time>2020-06-07T12:05:09Z</time>
      </trkpt>
      <trkpt lat="47.26759" lon="-1.65318">
        <ele>35</ele>
        <time>2020-06-07T12:05:10Z</time>
      </trkpt>
      <trkpt lat="47.26759" lon="-1.65318">
        <ele>35</ele>
        <time>2020-06-07T12:05:11Z</time>
      </trkpt>
      <trkpt lat="47.2676" lon="-1.65318">
        <ele>35</ele>
        <time>2020-06-07T12:05:12Z</time>
      </trkpt>
      <trkpt lat="47.2676" lon="-1.65318">
        <ele>35</ele>
        <time>2020-06-07T12:05:13Z</time>
      </trkpt>
      <trkpt lat="47.26761" lon="-1.65318">
        <ele>34.8</ele>
        <time>2020-06-07T12:05:14Z</time>
      </trkpt>
      <trkpt lat="47.26762" lon="-1.65318">
        <ele>34.8</ele>
        <time>2020-06-07T12:05:15Z</time>
      </trkpt>
      <trkpt lat="47.26763" lon="-1.65319">
        <ele>34.6</ele>
        <time>2020-06-07T12:05:16Z</time>
      </trkpt>
      <trkpt lat="47.26764" lon="-1.65319">
        <ele>34.6</ele>
        <time>2020-06-07T12:05:17Z</time>
      </trkpt>
      <trkpt lat="47.26765" lon="-1.65319">
        <ele>34.4</ele>
        <time>2020-06-07T12:05:18Z</time>
      </trkpt>
      <trkpt lat="47.26765" lon="-1.65319">
        <ele>34.4</ele>
        <time>2020-06-07T12:05:19Z</time>
      </trkpt>
      <trkpt lat="47.26766" lon="-1.65319">
        <ele>34.4</ele>
        <time>2020-06-07T12:05:20Z</time>
      </trkpt>
      <trkpt lat="47.26767" lon="-1.65319">
        <ele>34.4</ele>
        <time>2020-06-07T12:05:21Z</time>
      </trkpt>
      <trkpt lat="47.26768" lon="-1.65319">
        <ele>34.2</ele>
        <time>2020-06-07T12:05:22Z</time>
      </trkpt>
      <trkpt lat="47.26768" lon="-1.65319">
        <ele>34.2</ele>
        <time>2020-06-07T12:05:23Z</time>
      </trkpt>
      <trkpt lat="47.26769" lon="-1.65319">
        <ele>34.2</ele>
        <time>2020-06-07T12:05:24Z</time>
      </trkpt>
      <trkpt lat="47.2677" lon="-1.65319">
        <ele>34.2</ele>
        <time>2020-06-07T12:05:25Z</time>
      </trkpt>
      <trkpt lat="47.2677" lon="-1.65318">
        <ele>34.2</ele>
        <time>2020-06-07T12:05:26Z</time>
      </trkpt>
      <trkpt lat="47.26771" lon="-1.65317">
        <ele>34.2</ele>
        <time>2020-06-07T12:05:27Z</time>
      </trkpt>
      <trkpt lat="47.26772" lon="-1.65317">
        <ele>34.2</ele>
        <time>2020-06-07T12:05:28Z</time>
      </trkpt>
      <trkpt lat="47.26772" lon="-1.65317">
        <ele>34.2</ele>
        <time>2020-06-07T12:05:29Z</time>
      </trkpt>
      <trkpt lat="47.26773" lon="-1.65317">
        <ele>34</ele>
        <time>2020-06-07T12:05:30Z</time>
      </trkpt>
      <trkpt lat="47.26774" lon="-1.65317">
        <ele>34</ele>
        <time>2020-06-07T12:05:31Z</time>
      </trkpt>
      <trkpt lat="47.26775" lon="-1.65317">
        <ele>34</ele>
        <time>2020-06-07T12:05:32Z</time>
      </trkpt>
      <trkpt lat="47.26776" lon="-1.65317">
        <ele>33.7</ele>
        <time>2020-06-07T12:05:33Z</time>
      </trkpt>
      <trkpt lat="47.26777" lon="-1.65317">
        <ele>33.7</ele>
        <time>2020-06-07T12:05:34Z</time>
      </trkpt>
      <trkpt lat="47.26778" lon="-1.65318">
        <ele>33.8</ele>
        <time>2020-06-07T12:05:35Z</time>
      </trkpt>
      <trkpt lat="47.26779" lon="-1.65318">
        <ele>33.5</ele>
        <time>2020-06-07T12:05:36Z</time>
      </trkpt>
      <trkpt lat="47.2678" lon="-1.65319">
        <ele>33.4</ele>
        <time>2020-06-07T12:05:37Z</time>
      </trkpt>
      <trkpt lat="47.26782" lon="-1.65319">
        <ele>33.2</ele>
        <time>2020-06-07T12:05:38Z</time>
      </trkpt>
      <trkpt lat="47.26783" lon="-1.65319">
        <ele>33.2</ele>
        <time>2020-06-07T12:05:39Z</time>
      </trkpt>
      <trkpt lat="47.26784" lon="-1.65319">
        <ele>33.2</ele>
        <time>2020-06-07T12:05:40Z</time>
      </trkpt>
      <trkpt lat="47.26785" lon="-1.65319">
        <ele>33</ele>
        <time>2020-06-07T12:05:41Z</time>
      </trkpt>
      <trkpt lat="47.26786" lon="-1.65318">
        <ele>33.1</ele>
        <time>2020-06-07T12:05:42Z</time>
      </trkpt>
      <trkpt lat="47.26787" lon="-1.65318">
        <ele>33.1</ele>
        <time>2020-06-07T12:05:43Z</time>
      </trkpt>
      <trkpt lat="47.26788" lon="-1.65318">
        <ele>32.8</ele>
        <time>2020-06-07T12:05:44Z</time>
      </trkpt>
      <trkpt lat="47.26789" lon="-1.65318">
        <ele>32.8</ele>
        <time>2020-06-07T12:05:45Z</time>
      </trkpt>
      <trkpt lat="47.26789" lon="-1.65318">
        <ele>32.8</ele>
        <time>2020-06-07T12:05:46Z</time>
      </trkpt>
      <trkpt lat="47.2679" lon="-1.65318">
        <ele>32.8</ele>
        <time>2020-06-07T12:05:47Z</time>
      </trkpt>
      <trkpt lat="47.2679" lon="-1.65317">
        <ele>32.6</ele>
        <time>2020-06-07T12:05:48Z</time>
      </trkpt>
      <trkpt lat="47.26791" lon="-1.65316">
        <ele>32.6</ele>
        <time>2020-06-07T12:05:49Z</time>
      </trkpt>
      <trkpt lat="47.26792" lon="-1.65315">
        <ele>32.6</ele>
        <time>2020-06-07T12:05:50Z</time>
      </trkpt>
      <trkpt lat="47.26792" lon="-1.65314">
        <ele>32.6</ele>
        <time>2020-06-07T12:05:51Z</time>
      </trkpt>
      <trkpt lat="47.26793" lon="-1.65313">
        <ele>32.4</ele>
        <time>2020-06-07T12:05:52Z</time>
      </trkpt>
      <trkpt lat="47.26794" lon="-1.65312">
        <ele>32.4</ele>
        <time>2020-06-07T12:05:53Z</time>
      </trkpt>
      <trkpt lat="47.26795" lon="-1.65311">
        <ele>32.4</ele>
        <time>2020-06-07T12:05:54Z</time>
      </trkpt>
      <trkpt lat="47.26795" lon="-1.65311">
        <ele>32.4</ele>
        <time>2020-06-07T12:05:55Z</time>
      </trkpt>
      <trkpt lat="47.26796" lon="-1.65311">
        <ele>32.5</ele>
        <time>2020-06-07T12:05:56Z</time>
      </trkpt>
      <trkpt lat="47.26797" lon="-1.65311">
        <ele>32.2</ele>
        <time>2020-06-07T12:05:57Z</time>
      </trkpt>
      <trkpt lat="47.26797" lon="-1.65312">
        <ele>32.2</ele>
        <time>2020-06-07T12:05:58Z</time>
      </trkpt>
      <trkpt lat="47.26798" lon="-1.65313">
        <ele>32.2</ele>
        <time>2020-06-07T12:05:59Z</time>
      </trkpt>
      <trkpt lat="47.26799" lon="-1.65314">
        <ele>32.1</ele>
        <time>2020-06-07T12:06:00Z</time>
      </trkpt>
      <trkpt lat="47.26799" lon="-1.65315">
        <ele>31.8</ele>
        <time>2020-06-07T12:06:01Z</time>
      </trkpt>
      <trkpt lat="47.268" lon="-1.65317">
        <ele>31.8</ele>
        <time>2020-06-07T12:06:02Z</time>
      </trkpt>
      <trkpt lat="47.26801" lon="-1.65318">
        <ele>31.9</ele>
        <time>2020-06-07T12:06:03Z</time>
      </trkpt>
      <trkpt lat="47.26801" lon="-1.65319">
        <ele>31.8</ele>
        <time>2020-06-07T12:06:04Z</time>
      </trkpt>
      <trkpt lat="47.26801" lon="-1.65321">
        <ele>31.8</ele>
        <time>2020-06-07T12:06:05Z</time>
      </trkpt>
      <trkpt lat="47.26802" lon="-1.65322">
        <ele>31.8</ele>
        <time>2020-06-07T12:06:06Z</time>
      </trkpt>
      <trkpt lat="47.26802" lon="-1.65324">
        <ele>31.7</ele>
        <time>2020-06-07T12:06:07Z</time>
      </trkpt>
      <trkpt lat="47.26802" lon="-1.65325">
        <ele>31.7</ele>
        <time>2020-06-07T12:06:08Z</time>
      </trkpt>
      <trkpt lat="47.26802" lon="-1.65327">
        <ele>31.5</ele>
        <time>2020-06-07T12:06:09Z</time>
      </trkpt>
      <trkpt lat="47.26802" lon="-1.65328">
        <ele>31.4</ele>
        <time>2020-06-07T12:06:10Z</time>
      </trkpt>
      <trkpt lat="47.26803" lon="-1.65329">
        <ele>31.4</ele>
        <time>2020-06-07T12:06:11Z</time>
      </trkpt>
      <trkpt lat="47.26803" lon="-1.65331">
        <ele>31.4</ele>
        <time>2020-06-07T12:06:12Z</time>
      </trkpt>
      <trkpt lat="47.26803" lon="-1.65332">
        <ele>31.4</ele>
        <time>2020-06-07T12:06:13Z</time>
      </trkpt>
      <trkpt lat="47.26803" lon="-1.65333">
        <ele>31.4</ele>
        <time>2020-06-07T12:06:14Z</time>
      </trkpt>
      <trkpt lat="47.26803" lon="-1.65333">
        <ele>31.4</ele>
        <time>2020-06-07T12:06:15Z</time>
      </trkpt>
      <trkpt lat="47.26803" lon="-1.65334">
        <ele>31.4</ele>
        <time>2020-06-07T12:06:16Z</time>
      </trkpt>
      <trkpt lat="47.26803" lon="-1.65335">
        <ele>31.4</ele>
        <time>2020-06-07T12:06:17Z</time>
      </trkpt>
      <trkpt lat="47.26803" lon="-1.65336">
        <ele>31.4</ele>
        <time>2020-06-07T12:06:18Z</time>
      </trkpt>
      <trkpt lat="47.26804" lon="-1.65337">
        <ele>31.4</ele>
        <time>2020-06-07T12:06:19Z</time>
      </trkpt>
      <trkpt lat="47.26804" lon="-1.65338">
        <ele>31.4</ele>
        <time>2020-06-07T12:06:20Z</time>
      </trkpt>
      <trkpt lat="47.26805" lon="-1.65339">
        <ele>31.4</ele>
        <time>2020-06-07T12:06:21Z</time>
      </trkpt>
      <trkpt lat="47.26805" lon="-1.6534">
        <ele>31.2</ele>
        <time>2020-06-07T12:06:22Z</time>
      </trkpt>
      <trkpt lat="47.26806" lon="-1.65341">
        <ele>31.1</ele>
        <time>2020-06-07T12:06:23Z</time>
      </trkpt>
      <trkpt lat="47.26806" lon="-1.65342">
        <ele>31.1</ele>
        <time>2020-06-07T12:06:24Z</time>
      </trkpt>
      <trkpt lat="47.26807" lon="-1.65342">
        <ele>31.1</ele>
        <time>2020-06-07T12:06:25Z</time>
      </trkpt>
      <trkpt lat="47.26808" lon="-1.65343">
        <ele>31.1</ele>
        <time>2020-06-07T12:06:26Z</time>
      </trkpt>
      <trkpt lat="47.26808" lon="-1.65343">
        <ele>31</ele>
        <time>2020-06-07T12:06:27Z</time>
      </trkpt>
      <trkpt lat="47.26809" lon="-1.65343">
        <ele>31</ele>
        <time>2020-06-07T12:06:28Z</time>
      </trkpt>
      <trkpt lat="47.2681" lon="-1.65343">
        <ele>31</ele>
        <time>2020-06-07T12:06:29Z</time>
      </trkpt>
      <trkpt lat="47.26811" lon="-1.65344">
        <ele>30.8</ele>
        <time>2020-06-07T12:06:30Z</time>
      </trkpt>
      <trkpt lat="47.26811" lon="-1.65345">
        <ele>30.8</ele>
        <time>2020-06-07T12:06:31Z</time>
      </trkpt>
      <trkpt lat="47.26812" lon="-1.65346">
        <ele>30.8</ele>
        <time>2020-06-07T12:06:32Z</time>
      </trkpt>
      <trkpt lat="47.26812" lon="-1.65347">
        <ele>30.8</ele>
        <time>2020-06-07T12:06:33Z</time>
      </trkpt>
      <trkpt lat="47.26813" lon="-1.65348">
        <ele>30.8</ele>
        <time>2020-06-07T12:06:34Z</time>
      </trkpt>
      <trkpt lat="47.26813" lon="-1.65349">
        <ele>30.8</ele>
        <time>2020-06-07T12:06:35Z</time>
      </trkpt>
      <trkpt lat="47.26813" lon="-1.6535">
        <ele>30.8</ele>
        <time>2020-06-07T12:06:36Z</time>
      </trkpt>
      <trkpt lat="47.26813" lon="-1.65351">
        <ele>30.8</ele>
        <time>2020-06-07T12:06:37Z</time>
      </trkpt>
      <trkpt lat="47.26814" lon="-1.65352">
        <ele>30.8</ele>
        <time>2020-06-07T12:06:38Z</time>
      </trkpt>
      <trkpt lat="47.26814" lon="-1.65353">
        <ele>30.7</ele>
        <time>2020-06-07T12:06:39Z</time>
      </trkpt>
      <trkpt lat="47.26814" lon="-1.65354">
        <ele>30.7</ele>
        <time>2020-06-07T12:06:40Z</time>
      </trkpt>
      <trkpt lat="47.26814" lon="-1.65355">
        <ele>30.8</ele>
        <time>2020-06-07T12:06:41Z</time>
      </trkpt>
      <trkpt lat="47.26815" lon="-1.65356">
        <ele>30.8</ele>
        <time>2020-06-07T12:06:42Z</time>
      </trkpt>
      <trkpt lat="47.26815" lon="-1.65357">
        <ele>30.8</ele>
        <time>2020-06-07T12:06:43Z</time>
      </trkpt>
      <trkpt lat="47.26815" lon="-1.65358">
        <ele>30.8</ele>
        <time>2020-06-07T12:06:44Z</time>
      </trkpt>
      <trkpt lat="47.26815" lon="-1.6536">
        <ele>30.8</ele>
        <time>2020-06-07T12:06:45Z</time>
      </trkpt>
      <trkpt lat="47.26815" lon="-1.65361">
        <ele>30.8</ele>
        <time>2020-06-07T12:06:46Z</time>
      </trkpt>
      <trkpt lat="47.26815" lon="-1.65362">
        <ele>30.8</ele>
        <time>2020-06-07T12:06:47Z</time>
      </trkpt>
      <trkpt lat="47.26814" lon="-1.65364">
        <ele>30.8</ele>
        <time>2020-06-07T12:06:48Z</time>
      </trkpt>
      <trkpt lat="47.26814" lon="-1.65365">
        <ele>30.8</ele>
        <time>2020-06-07T12:06:49Z</time>
      </trkpt>
      <trkpt lat="47.26813" lon="-1.65366">
        <ele>31</ele>
        <time>2020-06-07T12:06:50Z</time>
      </trkpt>
      <trkpt lat="47.26812" lon="-1.65367">
        <ele>31</ele>
        <time>2020-06-07T12:06:51Z</time>
      </trkpt>
      <trkpt lat="47.26812" lon="-1.65368">
        <ele>31</ele>
        <time>2020-06-07T12:06:52Z</time>
      </trkpt>
      <trkpt lat="47.26811" lon="-1.65368">
        <ele>31</ele>
        <time>2020-06-07T12:06:53Z</time>
      </trkpt>
      <trkpt lat="47.2681" lon="-1.65369">
        <ele>31.2</ele>
        <time>2020-06-07T12:06:54Z</time>
      </trkpt>
      <trkpt lat="47.2681" lon="-1.6537">
        <ele>31.2</ele>
        <time>2020-06-07T12:06:55Z</time>
      </trkpt>
      <trkpt lat="47.26809" lon="-1.6537">
        <ele>31.2</ele>
        <time>2020-06-07T12:06:56Z</time>
      </trkpt>
      <trkpt lat="47.26809" lon="-1.65371">
        <ele>31.2</ele>
        <time>2020-06-07T12:06:57Z</time>
      </trkpt>
      <trkpt lat="47.26808" lon="-1.65372">
        <ele>31.2</ele>
        <time>2020-06-07T12:06:58Z</time>
      </trkpt>
      <trkpt lat="47.26807" lon="-1.65374">
        <ele>31.4</ele>
        <time>2020-06-07T12:06:59Z</time>
      </trkpt>
      <trkpt lat="47.26807" lon="-1.65375">
        <ele>31.5</ele>
        <time>2020-06-07T12:07:00Z</time>
      </trkpt>
      <trkpt lat="47.26807" lon="-1.65376">
        <ele>31.5</ele>
        <time>2020-06-07T12:07:01Z</time>
      </trkpt>
      <trkpt lat="47.26806" lon="-1.65377">
        <ele>31.5</ele>
        <time>2020-06-07T12:07:02Z</time>
      </trkpt>
      <trkpt lat="47.26806" lon="-1.65378">
        <ele>31.5</ele>
        <time>2020-06-07T12:07:03Z</time>
      </trkpt>
      <trkpt lat="47.26806" lon="-1.65379">
        <ele>31.5</ele>
        <time>2020-06-07T12:07:04Z</time>
      </trkpt>
      <trkpt lat="47.26805" lon="-1.65381">
        <ele>31.8</ele>
        <time>2020-06-07T12:07:05Z</time>
      </trkpt>
      <trkpt lat="47.26804" lon="-1.65382">
        <ele>31.8</ele>
        <time>2020-06-07T12:07:06Z</time>
      </trkpt>
      <trkpt lat="47.26803" lon="-1.65383">
        <ele>31.8</ele>
        <time>2020-06-07T12:07:07Z</time>
      </trkpt>
      <trkpt lat="47.26803" lon="-1.65383">
        <ele>31.8</ele>
        <time>2020-06-07T12:07:08Z</time>
      </trkpt>
      <trkpt lat="47.26802" lon="-1.65384">
        <ele>31.8</ele>
        <time>2020-06-07T12:07:09Z</time>
      </trkpt>
      <trkpt lat="47.26802" lon="-1.65385">
        <ele>32.1</ele>
        <time>2020-06-07T12:07:10Z</time>
      </trkpt>
      <trkpt lat="47.26802" lon="-1.65386">
        <ele>32.1</ele>
        <time>2020-06-07T12:07:11Z</time>
      </trkpt>
      <trkpt lat="47.26801" lon="-1.65388">
        <ele>32.1</ele>
        <time>2020-06-07T12:07:12Z</time>
      </trkpt>
      <trkpt lat="47.26801" lon="-1.65389">
        <ele>32.1</ele>
        <time>2020-06-07T12:07:13Z</time>
      </trkpt>
      <trkpt lat="47.26802" lon="-1.6539">
        <ele>32.1</ele>
        <time>2020-06-07T12:07:14Z</time>
      </trkpt>
      <trkpt lat="47.26802" lon="-1.65391">
        <ele>31.9</ele>
        <time>2020-06-07T12:07:15Z</time>
      </trkpt>
      <trkpt lat="47.26802" lon="-1.65393">
        <ele>32</ele>
        <time>2020-06-07T12:07:16Z</time>
      </trkpt>
      <trkpt lat="47.26802" lon="-1.65394">
        <ele>32</ele>
        <time>2020-06-07T12:07:17Z</time>
      </trkpt>
      <trkpt lat="47.26803" lon="-1.65396">
        <ele>32</ele>
        <time>2020-06-07T12:07:18Z</time>
      </trkpt>
      <trkpt lat="47.26805" lon="-1.65398">
        <ele>32</ele>
        <time>2020-06-07T12:07:19Z</time>
      </trkpt>
      <trkpt lat="47.26805" lon="-1.65398">
        <ele>31.8</ele>
        <time>2020-06-07T12:07:20Z</time>
      </trkpt>
      <trkpt lat="47.26806" lon="-1.65399">
        <ele>31.8</ele>
        <time>2020-06-07T12:07:21Z</time>
      </trkpt>
      <trkpt lat="47.26807" lon="-1.654">
        <ele>31.8</ele>
        <time>2020-06-07T12:07:22Z</time>
      </trkpt>
      <trkpt lat="47.26808" lon="-1.65401">
        <ele>31.7</ele>
        <time>2020-06-07T12:07:23Z</time>
      </trkpt>
      <trkpt lat="47.26809" lon="-1.65401">
        <ele>31.7</ele>
        <time>2020-06-07T12:07:24Z</time>
      </trkpt>
      <trkpt lat="47.2681" lon="-1.65402">
        <ele>31.7</ele>
        <time>2020-06-07T12:07:25Z</time>
      </trkpt>
      <trkpt lat="47.26811" lon="-1.65402">
        <ele>31.5</ele>
        <time>2020-06-07T12:07:26Z</time>
      </trkpt>
      <trkpt lat="47.26812" lon="-1.65403">
        <ele>31.6</ele>
        <time>2020-06-07T12:07:27Z</time>
      </trkpt>
      <trkpt lat="47.26813" lon="-1.65404">
        <ele>31.6</ele>
        <time>2020-06-07T12:07:28Z</time>
      </trkpt>
      <trkpt lat="47.26813" lon="-1.65405">
        <ele>31.6</ele>
        <time>2020-06-07T12:07:29Z</time>
      </trkpt>
      <trkpt lat="47.26814" lon="-1.65407">
        <ele>31.5</ele>
        <time>2020-06-07T12:07:30Z</time>
      </trkpt>
      <trkpt lat="47.26814" lon="-1.65408">
        <ele>31.5</ele>
        <time>2020-06-07T12:07:31Z</time>
      </trkpt>
      <trkpt lat="47.26814" lon="-1.6541">
        <ele>31.6</ele>
        <time>2020-06-07T12:07:32Z</time>
      </trkpt>
      <trkpt lat="47.26814" lon="-1.65411">
        <ele>31.6</ele>
        <time>2020-06-07T12:07:33Z</time>
      </trkpt>
      <trkpt lat="47.26814" lon="-1.65412">
        <ele>31.6</ele>
        <time>2020-06-07T12:07:34Z</time>
      </trkpt>
      <trkpt lat="47.26815" lon="-1.65413">
        <ele>31.6</ele>
        <time>2020-06-07T12:07:35Z</time>
      </trkpt>
      <trkpt lat="47.26815" lon="-1.65414">
        <ele>31.7</ele>
        <time>2020-06-07T12:07:36Z</time>
      </trkpt>
      <trkpt lat="47.26816" lon="-1.65415">
        <ele>31.7</ele>
        <time>2020-06-07T12:07:37Z</time>
      </trkpt>
      <trkpt lat="47.26816" lon="-1.65416">
        <ele>31.7</ele>
        <time>2020-06-07T12:07:38Z</time>
      </trkpt>
      <trkpt lat="47.26817" lon="-1.65417">
        <ele>31.6</ele>
        <time>2020-06-07T12:07:39Z</time>
      </trkpt>
      <trkpt lat="47.26818" lon="-1.65418">
        <ele>31.6</ele>
        <time>2020-06-07T12:07:40Z</time>
      </trkpt>
      <trkpt lat="47.26819" lon="-1.65419">
        <ele>31.6</ele>
        <time>2020-06-07T12:07:41Z</time>
      </trkpt>
      <trkpt lat="47.26819" lon="-1.6542">
        <ele>31.7</ele>
        <time>2020-06-07T12:07:42Z</time>
      </trkpt>
      <trkpt lat="47.2682" lon="-1.65421">
        <ele>31.6</ele>
        <time>2020-06-07T12:07:43Z</time>
      </trkpt>
      <trkpt lat="47.2682" lon="-1.65422">
        <ele>31.7</ele>
        <time>2020-06-07T12:07:44Z</time>
      </trkpt>
      <trkpt lat="47.26821" lon="-1.65423">
        <ele>31.7</ele>
        <time>2020-06-07T12:07:45Z</time>
      </trkpt>
      <trkpt lat="47.26822" lon="-1.65424">
        <ele>31.7</ele>
        <time>2020-06-07T12:07:46Z</time>
      </trkpt>
      <trkpt lat="47.26822" lon="-1.65425">
        <ele>31.7</ele>
        <time>2020-06-07T12:07:47Z</time>
      </trkpt>
      <trkpt lat="47.26822" lon="-1.65426">
        <ele>31.7</ele>
        <time>2020-06-07T12:07:48Z</time>
      </trkpt>
      <trkpt lat="47.26822" lon="-1.65427">
        <ele>31.7</ele>
        <time>2020-06-07T12:07:49Z</time>
      </trkpt>
      <trkpt lat="47.26823" lon="-1.65428">
        <ele>31.7</ele>
        <time>2020-06-07T12:07:50Z</time>
      </trkpt>
      <trkpt lat="47.26823" lon="-1.65429">
        <ele>31.8</ele>
        <time>2020-06-07T12:07:51Z</time>
      </trkpt>
      <trkpt lat="47.26823" lon="-1.6543">
        <ele>31.8</ele>
        <time>2020-06-07T12:07:52Z</time>
      </trkpt>
      <trkpt lat="47.26823" lon="-1.65431">
        <ele>31.8</ele>
        <time>2020-06-07T12:07:53Z</time>
      </trkpt>
      <trkpt lat="47.26824" lon="-1.65433">
        <ele>31.8</ele>
        <time>2020-06-07T12:07:54Z</time>
      </trkpt>
      <trkpt lat="47.26824" lon="-1.65434">
        <ele>31.8</ele>
        <time>2020-06-07T12:07:55Z</time>
      </trkpt>
      <trkpt lat="47.26825" lon="-1.65435">
        <ele>31.8</ele>
        <time>2020-06-07T12:07:56Z</time>
      </trkpt>
      <trkpt lat="47.26826" lon="-1.65436">
        <ele>31.9</ele>
        <time>2020-06-07T12:07:57Z</time>
      </trkpt>
      <trkpt lat="47.26826" lon="-1.65437">
        <ele>31.9</ele>
        <time>2020-06-07T12:07:58Z</time>
      </trkpt>
      <trkpt lat="47.26826" lon="-1.65437">
        <ele>31.9</ele>
        <time>2020-06-07T12:07:59Z</time>
      </trkpt>
      <trkpt lat="47.26826" lon="-1.65438">
        <ele>31.9</ele>
        <time>2020-06-07T12:08:00Z</time>
      </trkpt>
      <trkpt lat="47.26826" lon="-1.6544">
        <ele>31.9</ele>
        <time>2020-06-07T12:08:01Z</time>
      </trkpt>
      <trkpt lat="47.26826" lon="-1.65441">
        <ele>31.9</ele>
        <time>2020-06-07T12:08:02Z</time>
      </trkpt>
      <trkpt lat="47.26826" lon="-1.65443">
        <ele>31.9</ele>
        <time>2020-06-07T12:08:03Z</time>
      </trkpt>
      <trkpt lat="47.26826" lon="-1.65445">
        <ele>31.9</ele>
        <time>2020-06-07T12:08:04Z</time>
      </trkpt>
      <trkpt lat="47.26826" lon="-1.65446">
        <ele>31.9</ele>
        <time>2020-06-07T12:08:05Z</time>
      </trkpt>
      <trkpt lat="47.26826" lon="-1.65447">
        <ele>31.8</ele>
        <time>2020-06-07T12:08:06Z</time>
      </trkpt>
      <trkpt lat="47.26826" lon="-1.65449">
        <ele>31.8</ele>
        <time>2020-06-07T12:08:07Z</time>
      </trkpt>
      <trkpt lat="47.26825" lon="-1.65451">
        <ele>31.9</ele>
        <time>2020-06-07T12:08:08Z</time>
      </trkpt>
      <trkpt lat="47.26825" lon="-1.65452">
        <ele>31.8</ele>
        <time>2020-06-07T12:08:09Z</time>
      </trkpt>
      <trkpt lat="47.26825" lon="-1.65454">
        <ele>31.8</ele>
        <time>2020-06-07T12:08:10Z</time>
      </trkpt>
      <trkpt lat="47.26825" lon="-1.65455">
        <ele>31.7</ele>
        <time>2020-06-07T12:08:11Z</time>
      </trkpt>
      <trkpt lat="47.26825" lon="-1.65457">
        <ele>31.7</ele>
        <time>2020-06-07T12:08:12Z</time>
      </trkpt>
      <trkpt lat="47.26824" lon="-1.65459">
        <ele>31.7</ele>
        <time>2020-06-07T12:08:13Z</time>
      </trkpt>
      <trkpt lat="47.26824" lon="-1.6546">
        <ele>31.7</ele>
        <time>2020-06-07T12:08:14Z</time>
      </trkpt>
      <trkpt lat="47.26824" lon="-1.65461">
        <ele>31.7</ele>
        <time>2020-06-07T12:08:15Z</time>
      </trkpt>
      <trkpt lat="47.26824" lon="-1.65463">
        <ele>31.7</ele>
        <time>2020-06-07T12:08:16Z</time>
      </trkpt>
      <trkpt lat="47.26824" lon="-1.65464">
        <ele>31.7</ele>
        <time>2020-06-07T12:08:17Z</time>
      </trkpt>
      <trkpt lat="47.26824" lon="-1.65466">
        <ele>31.7</ele>
        <time>2020-06-07T12:08:18Z</time>
      </trkpt>
      <trkpt lat="47.26824" lon="-1.65467">
        <ele>31.7</ele>
        <time>2020-06-07T12:08:19Z</time>
      </trkpt>
      <trkpt lat="47.26825" lon="-1.65468">
        <ele>31.7</ele>
        <time>2020-06-07T12:08:20Z</time>
      </trkpt>
      <trkpt lat="47.26825" lon="-1.65468">
        <ele>31.8</ele>
        <time>2020-06-07T12:08:21Z</time>
      </trkpt>
      <trkpt lat="47.26826" lon="-1.65468">
        <ele>31.8</ele>
        <time>2020-06-07T12:08:22Z</time>
      </trkpt>
      <trkpt lat="47.26826" lon="-1.65469">
        <ele>31.8</ele>
        <time>2020-06-07T12:08:23Z</time>
      </trkpt>
      <trkpt lat="47.26826" lon="-1.6547">
        <ele>31.8</ele>
        <time>2020-06-07T12:08:24Z</time>
      </trkpt>
      <trkpt lat="47.26826" lon="-1.65471">
        <ele>31.8</ele>
        <time>2020-06-07T12:08:25Z</time>
      </trkpt>
      <trkpt lat="47.26825" lon="-1.65472">
        <ele>31.8</ele>
        <time>2020-06-07T12:08:26Z</time>
      </trkpt>
      <trkpt lat="47.26825" lon="-1.65473">
        <ele>31.7</ele>
        <time>2020-06-07T12:08:27Z</time>
      </trkpt>
      <trkpt lat="47.26825" lon="-1.65474">
        <ele>31.7</ele>
        <time>2020-06-07T12:08:28Z</time>
      </trkpt>
      <trkpt lat="47.26825" lon="-1.65475">
        <ele>31.7</ele>
        <time>2020-06-07T12:08:29Z</time>
      </trkpt>
      <trkpt lat="47.26825" lon="-1.65476">
        <ele>31.7</ele>
        <time>2020-06-07T12:08:30Z</time>
      </trkpt>
      <trkpt lat="47.26825" lon="-1.65477">
        <ele>31.7</ele>
        <time>2020-06-07T12:08:31Z</time>
      </trkpt>
      <trkpt lat="47.26824" lon="-1.65477">
        <ele>31.7</ele>
        <time>2020-06-07T12:08:32Z</time>
      </trkpt>
      <trkpt lat="47.26824" lon="-1.65478">
        <ele>31.7</ele>
        <time>2020-06-07T12:08:33Z</time>
      </trkpt>
      <trkpt lat="47.26824" lon="-1.65478">
        <ele>31.7</ele>
        <time>2020-06-07T12:08:34Z</time>
      </trkpt>
      <trkpt lat="47.26824" lon="-1.65478">
        <ele>31.7</ele>
        <time>2020-06-07T12:08:35Z</time>
      </trkpt>
      <trkpt lat="47.26824" lon="-1.65479">
        <ele>31.7</ele>
        <time>2020-06-07T12:08:36Z</time>
      </trkpt>
      <trkpt lat="47.26824" lon="-1.6548">
        <ele>31.7</ele>
        <time>2020-06-07T12:08:37Z</time>
      </trkpt>
      <trkpt lat="47.26824" lon="-1.65481">
        <ele>31.7</ele>
        <time>2020-06-07T12:08:38Z</time>
      </trkpt>
      <trkpt lat="47.26824" lon="-1.65482">
        <ele>31.7</ele>
        <time>2020-06-07T12:08:39Z</time>
      </trkpt>
      <trkpt lat="47.26823" lon="-1.65483">
        <ele>31.7</ele>
        <time>2020-06-07T12:08:40Z</time>
      </trkpt>
      <trkpt lat="47.26823" lon="-1.65484">
        <ele>31.7</ele>
        <time>2020-06-07T12:08:41Z</time>
      </trkpt>
      <trkpt lat="47.26823" lon="-1.65485">
        <ele>31.7</ele>
        <time>2020-06-07T12:08:42Z</time>
      </trkpt>
      <trkpt lat="47.26822" lon="-1.65486">
        <ele>31.6</ele>
        <time>2020-06-07T12:08:43Z</time>
      </trkpt>
      <trkpt lat="47.26822" lon="-1.65488">
        <ele>31.6</ele>
        <time>2020-06-07T12:08:44Z</time>
      </trkpt>
      <trkpt lat="47.26821" lon="-1.65489">
        <ele>31.6</ele>
        <time>2020-06-07T12:08:45Z</time>
      </trkpt>
      <trkpt lat="47.2682" lon="-1.6549">
        <ele>31.6</ele>
        <time>2020-06-07T12:08:46Z</time>
      </trkpt>
      <trkpt lat="47.2682" lon="-1.65492">
        <ele>31.6</ele>
        <time>2020-06-07T12:08:47Z</time>
      </trkpt>
      <trkpt lat="47.26819" lon="-1.65493">
        <ele>31.6</ele>
        <time>2020-06-07T12:08:48Z</time>
      </trkpt>
      <trkpt lat="47.26819" lon="-1.65495">
        <ele>31.7</ele>
        <time>2020-06-07T12:08:49Z</time>
      </trkpt>
      <trkpt lat="47.26818" lon="-1.65496">
        <ele>31.7</ele>
        <time>2020-06-07T12:08:50Z</time>
      </trkpt>
      <trkpt lat="47.26818" lon="-1.65497">
        <ele>31.7</ele>
        <time>2020-06-07T12:08:51Z</time>
      </trkpt>
      <trkpt lat="47.26818" lon="-1.65498">
        <ele>31.7</ele>
        <time>2020-06-07T12:08:52Z</time>
      </trkpt>
      <trkpt lat="47.26818" lon="-1.65499">
        <ele>31.7</ele>
        <time>2020-06-07T12:08:53Z</time>
      </trkpt>
      <trkpt lat="47.26818" lon="-1.65501">
        <ele>31.7</ele>
        <time>2020-06-07T12:08:54Z</time>
      </trkpt>
      <trkpt lat="47.26818" lon="-1.65502">
        <ele>31.7</ele>
        <time>2020-06-07T12:08:55Z</time>
      </trkpt>
      <trkpt lat="47.26818" lon="-1.65505">
        <ele>31.7</ele>
        <time>2020-06-07T12:08:56Z</time>
      </trkpt>
      <trkpt lat="47.26817" lon="-1.65507">
        <ele>31.7</ele>
        <time>2020-06-07T12:08:57Z</time>
      </trkpt>
      <trkpt lat="47.26817" lon="-1.65508">
        <ele>31.7</ele>
        <time>2020-06-07T12:08:58Z</time>
      </trkpt>
      <trkpt lat="47.26817" lon="-1.6551">
        <ele>31.7</ele>
        <time>2020-06-07T12:08:59Z</time>
      </trkpt>
      <trkpt lat="47.26817" lon="-1.65511">
        <ele>31.7</ele>
        <time>2020-06-07T12:09:00Z</time>
      </trkpt>
      <trkpt lat="47.26817" lon="-1.65512">
        <ele>31.8</ele>
        <time>2020-06-07T12:09:01Z</time>
      </trkpt>
      <trkpt lat="47.26817" lon="-1.65514">
        <ele>31.8</ele>
        <time>2020-06-07T12:09:02Z</time>
      </trkpt>
      <trkpt lat="47.26818" lon="-1.65516">
        <ele>31.8</ele>
        <time>2020-06-07T12:09:03Z</time>
      </trkpt>
      <trkpt lat="47.26818" lon="-1.65517">
        <ele>31.8</ele>
        <time>2020-06-07T12:09:04Z</time>
      </trkpt>
      <trkpt lat="47.26818" lon="-1.65517">
        <ele>31.8</ele>
        <time>2020-06-07T12:09:05Z</time>
      </trkpt>
      <trkpt lat="47.26819" lon="-1.65519">
        <ele>31.8</ele>
        <time>2020-06-07T12:09:06Z</time>
      </trkpt>
      <trkpt lat="47.2682" lon="-1.6552">
        <ele>31.8</ele>
        <time>2020-06-07T12:09:07Z</time>
      </trkpt>
      <trkpt lat="47.2682" lon="-1.65521">
        <ele>31.9</ele>
        <time>2020-06-07T12:09:08Z</time>
      </trkpt>
      <trkpt lat="47.26821" lon="-1.65522">
        <ele>31.9</ele>
        <time>2020-06-07T12:09:09Z</time>
      </trkpt>
      <trkpt lat="47.26821" lon="-1.65524">
        <ele>31.9</ele>
        <time>2020-06-07T12:09:10Z</time>
      </trkpt>
      <trkpt lat="47.26822" lon="-1.65525">
        <ele>32</ele>
        <time>2020-06-07T12:09:11Z</time>
      </trkpt>
      <trkpt lat="47.26823" lon="-1.65526">
        <ele>32</ele>
        <time>2020-06-07T12:09:12Z</time>
      </trkpt>
      <trkpt lat="47.26824" lon="-1.65527">
        <ele>32.1</ele>
        <time>2020-06-07T12:09:13Z</time>
      </trkpt>
      <trkpt lat="47.26824" lon="-1.65529">
        <ele>32.1</ele>
        <time>2020-06-07T12:09:14Z</time>
      </trkpt>
      <trkpt lat="47.26825" lon="-1.6553">
        <ele>32.1</ele>
        <time>2020-06-07T12:09:15Z</time>
      </trkpt>
      <trkpt lat="47.26825" lon="-1.65531">
        <ele>32.3</ele>
        <time>2020-06-07T12:09:16Z</time>
      </trkpt>
      <trkpt lat="47.26826" lon="-1.65532">
        <ele>32.3</ele>
        <time>2020-06-07T12:09:17Z</time>
      </trkpt>
      <trkpt lat="47.26827" lon="-1.65533">
        <ele>32.3</ele>
        <time>2020-06-07T12:09:18Z</time>
      </trkpt>
      <trkpt lat="47.26827" lon="-1.65534">
        <ele>32.4</ele>
        <time>2020-06-07T12:09:19Z</time>
      </trkpt>
      <trkpt lat="47.26828" lon="-1.65534">
        <ele>32.4</ele>
        <time>2020-06-07T12:09:20Z</time>
      </trkpt>
      <trkpt lat="47.26829" lon="-1.65535">
        <ele>32.3</ele>
        <time>2020-06-07T12:09:21Z</time>
      </trkpt>
      <trkpt lat="47.26829" lon="-1.65535">
        <ele>32.3</ele>
        <time>2020-06-07T12:09:22Z</time>
      </trkpt>
      <trkpt lat="47.2683" lon="-1.65536">
        <ele>32.3</ele>
        <time>2020-06-07T12:09:23Z</time>
      </trkpt>
      <trkpt lat="47.26831" lon="-1.65537">
        <ele>32.3</ele>
        <time>2020-06-07T12:09:24Z</time>
      </trkpt>
      <trkpt lat="47.26832" lon="-1.65537">
        <ele>32.2</ele>
        <time>2020-06-07T12:09:25Z</time>
      </trkpt>
      <trkpt lat="47.26833" lon="-1.65537">
        <ele>32.2</ele>
        <time>2020-06-07T12:09:26Z</time>
      </trkpt>
      <trkpt lat="47.26834" lon="-1.65536">
        <ele>32.2</ele>
        <time>2020-06-07T12:09:27Z</time>
      </trkpt>
      <trkpt lat="47.26835" lon="-1.65536">
        <ele>32.2</ele>
        <time>2020-06-07T12:09:28Z</time>
      </trkpt>
      <trkpt lat="47.26837" lon="-1.65536">
        <ele>32</ele>
        <time>2020-06-07T12:09:29Z</time>
      </trkpt>
      <trkpt lat="47.26838" lon="-1.65536">
        <ele>32</ele>
        <time>2020-06-07T12:09:30Z</time>
      </trkpt>
      <trkpt lat="47.26839" lon="-1.65536">
        <ele>32</ele>
        <time>2020-06-07T12:09:31Z</time>
      </trkpt>
      <trkpt lat="47.2684" lon="-1.65536">
        <ele>32</ele>
        <time>2020-06-07T12:09:32Z</time>
      </trkpt>
      <trkpt lat="47.26841" lon="-1.65537">
        <ele>32</ele>
        <time>2020-06-07T12:09:33Z</time>
      </trkpt>
      <trkpt lat="47.26842" lon="-1.65537">
        <ele>32</ele>
        <time>2020-06-07T12:09:34Z</time>
      </trkpt>
      <trkpt lat="47.26843" lon="-1.65537">
        <ele>32</ele>
        <time>2020-06-07T12:09:35Z</time>
      </trkpt>
      <trkpt lat="47.26844" lon="-1.65537">
        <ele>32</ele>
        <time>2020-06-07T12:09:36Z</time>
      </trkpt>
      <trkpt lat="47.26844" lon="-1.65537">
        <ele>32</ele>
        <time>2020-06-07T12:09:37Z</time>
      </trkpt>
      <trkpt lat="47.26844" lon="-1.65538">
        <ele>32</ele>
        <time>2020-06-07T12:09:38Z</time>
      </trkpt>
      <trkpt lat="47.26844" lon="-1.65539">
        <ele>32</ele>
        <time>2020-06-07T12:09:39Z</time>
      </trkpt>
      <trkpt lat="47.26843" lon="-1.6554">
        <ele>32</ele>
        <time>2020-06-07T12:09:40Z</time>
      </trkpt>
      <trkpt lat="47.26843" lon="-1.65541">
        <ele>32</ele>
        <time>2020-06-07T12:09:41Z</time>
      </trkpt>
      <trkpt lat="47.26842" lon="-1.65541">
        <ele>31.9</ele>
        <time>2020-06-07T12:09:42Z</time>
      </trkpt>
      <trkpt lat="47.26842" lon="-1.65541">
        <ele>31.9</ele>
        <time>2020-06-07T12:09:43Z</time>
      </trkpt>
      <trkpt lat="47.26841" lon="-1.65542">
        <ele>31.9</ele>
        <time>2020-06-07T12:09:44Z</time>
      </trkpt>
      <trkpt lat="47.26841" lon="-1.65542">
        <ele>31.9</ele>
        <time>2020-06-07T12:09:45Z</time>
      </trkpt>
      <trkpt lat="47.26841" lon="-1.65544">
        <ele>31.9</ele>
        <time>2020-06-07T12:09:46Z</time>
      </trkpt>
      <trkpt lat="47.26841" lon="-1.65545">
        <ele>31.9</ele>
        <time>2020-06-07T12:09:47Z</time>
      </trkpt>
      <trkpt lat="47.26841" lon="-1.65547">
        <ele>31.9</ele>
        <time>2020-06-07T12:09:48Z</time>
      </trkpt>
      <trkpt lat="47.26841" lon="-1.65548">
        <ele>31.9</ele>
        <time>2020-06-07T12:09:49Z</time>
      </trkpt>
      <trkpt lat="47.26842" lon="-1.65549">
        <ele>31.9</ele>
        <time>2020-06-07T12:09:50Z</time>
      </trkpt>
      <trkpt lat="47.26842" lon="-1.6555">
        <ele>31.9</ele>
        <time>2020-06-07T12:09:51Z</time>
      </trkpt>
      <trkpt lat="47.26843" lon="-1.65552">
        <ele>31.9</ele>
        <time>2020-06-07T12:09:52Z</time>
      </trkpt>
      <trkpt lat="47.26844" lon="-1.65553">
        <ele>31.9</ele>
        <time>2020-06-07T12:09:53Z</time>
      </trkpt>
      <trkpt lat="47.26845" lon="-1.65555">
        <ele>31.9</ele>
        <time>2020-06-07T12:09:54Z</time>
      </trkpt>
      <trkpt lat="47.26846" lon="-1.65556">
        <ele>31.9</ele>
        <time>2020-06-07T12:09:55Z</time>
      </trkpt>
      <trkpt lat="47.26846" lon="-1.65556">
        <ele>31.8</ele>
        <time>2020-06-07T12:09:56Z</time>
      </trkpt>
      <trkpt lat="47.26846" lon="-1.65558">
        <ele>31.8</ele>
        <time>2020-06-07T12:09:57Z</time>
      </trkpt>
      <trkpt lat="47.26846" lon="-1.65559">
        <ele>31.8</ele>
        <time>2020-06-07T12:09:58Z</time>
      </trkpt>
      <trkpt lat="47.26846" lon="-1.6556">
        <ele>31.8</ele>
        <time>2020-06-07T12:09:59Z</time>
      </trkpt>
      <trkpt lat="47.26847" lon="-1.65562">
        <ele>31.8</ele>
        <time>2020-06-07T12:10:00Z</time>
      </trkpt>
      <trkpt lat="47.26847" lon="-1.65563">
        <ele>31.8</ele>
        <time>2020-06-07T12:10:01Z</time>
      </trkpt>
      <trkpt lat="47.26848" lon="-1.65564">
        <ele>31.8</ele>
        <time>2020-06-07T12:10:02Z</time>
      </trkpt>
      <trkpt lat="47.26849" lon="-1.65565">
        <ele>31.8</ele>
        <time>2020-06-07T12:10:03Z</time>
      </trkpt>
      <trkpt lat="47.26849" lon="-1.65566">
        <ele>31.8</ele>
        <time>2020-06-07T12:10:04Z</time>
      </trkpt>
      <trkpt lat="47.26849" lon="-1.65567">
        <ele>31.8</ele>
        <time>2020-06-07T12:10:05Z</time>
      </trkpt>
      <trkpt lat="47.26849" lon="-1.65569">
        <ele>31.8</ele>
        <time>2020-06-07T12:10:06Z</time>
      </trkpt>
      <trkpt lat="47.26849" lon="-1.6557">
        <ele>31.8</ele>
        <time>2020-06-07T12:10:07Z</time>
      </trkpt>
      <trkpt lat="47.2685" lon="-1.65571">
        <ele>31.8</ele>
        <time>2020-06-07T12:10:08Z</time>
      </trkpt>
      <trkpt lat="47.2685" lon="-1.65572">
        <ele>31.8</ele>
        <time>2020-06-07T12:10:09Z</time>
      </trkpt>
      <trkpt lat="47.2685" lon="-1.65574">
        <ele>31.8</ele>
        <time>2020-06-07T12:10:10Z</time>
      </trkpt>
      <trkpt lat="47.26851" lon="-1.65575">
        <ele>31.8</ele>
        <time>2020-06-07T12:10:11Z</time>
      </trkpt>
      <trkpt lat="47.26851" lon="-1.65576">
        <ele>31.8</ele>
        <time>2020-06-07T12:10:12Z</time>
      </trkpt>
      <trkpt lat="47.26851" lon="-1.65577">
        <ele>31.8</ele>
        <time>2020-06-07T12:10:13Z</time>
      </trkpt>
      <trkpt lat="47.26852" lon="-1.65577">
        <ele>31.8</ele>
        <time>2020-06-07T12:10:14Z</time>
      </trkpt>
      <trkpt lat="47.26853" lon="-1.65578">
        <ele>31.8</ele>
        <time>2020-06-07T12:10:15Z</time>
      </trkpt>
      <trkpt lat="47.26854" lon="-1.65579">
        <ele>31.8</ele>
        <time>2020-06-07T12:10:16Z</time>
      </trkpt>
      <trkpt lat="47.26855" lon="-1.65579">
        <ele>31.8</ele>
        <time>2020-06-07T12:10:17Z</time>
      </trkpt>
      <trkpt lat="47.26856" lon="-1.6558">
        <ele>31.8</ele>
        <time>2020-06-07T12:10:18Z</time>
      </trkpt>
      <trkpt lat="47.26856" lon="-1.65581">
        <ele>31.8</ele>
        <time>2020-06-07T12:10:19Z</time>
      </trkpt>
      <trkpt lat="47.26857" lon="-1.65582">
        <ele>31.8</ele>
        <time>2020-06-07T12:10:20Z</time>
      </trkpt>
      <trkpt lat="47.26858" lon="-1.65583">
        <ele>31.8</ele>
        <time>2020-06-07T12:10:21Z</time>
      </trkpt>
      <trkpt lat="47.26858" lon="-1.65584">
        <ele>31.8</ele>
        <time>2020-06-07T12:10:22Z</time>
      </trkpt>
      <trkpt lat="47.26859" lon="-1.65586">
        <ele>31.8</ele>
        <time>2020-06-07T12:10:23Z</time>
      </trkpt>
      <trkpt lat="47.26859" lon="-1.65587">
        <ele>31.8</ele>
        <time>2020-06-07T12:10:24Z</time>
      </trkpt>
      <trkpt lat="47.2686" lon="-1.65589">
        <ele>31.8</ele>
        <time>2020-06-07T12:10:25Z</time>
      </trkpt>
      <trkpt lat="47.2686" lon="-1.6559">
        <ele>31.8</ele>
        <time>2020-06-07T12:10:26Z</time>
      </trkpt>
      <trkpt lat="47.2686" lon="-1.65591">
        <ele>31.8</ele>
        <time>2020-06-07T12:10:27Z</time>
      </trkpt>
      <trkpt lat="47.26861" lon="-1.65592">
        <ele>31.8</ele>
        <time>2020-06-07T12:10:28Z</time>
      </trkpt>
      <trkpt lat="47.26861" lon="-1.65594">
        <ele>31.8</ele>
        <time>2020-06-07T12:10:29Z</time>
      </trkpt>
      <trkpt lat="47.26862" lon="-1.65595">
        <ele>31.8</ele>
        <time>2020-06-07T12:10:30Z</time>
      </trkpt>
      <trkpt lat="47.26863" lon="-1.65596">
        <ele>31.8</ele>
        <time>2020-06-07T12:10:31Z</time>
      </trkpt>
      <trkpt lat="47.26863" lon="-1.65597">
        <ele>31.9</ele>
        <time>2020-06-07T12:10:32Z</time>
      </trkpt>
      <trkpt lat="47.26863" lon="-1.65598">
        <ele>31.9</ele>
        <time>2020-06-07T12:10:33Z</time>
      </trkpt>
      <trkpt lat="47.26864" lon="-1.65599">
        <ele>31.9</ele>
        <time>2020-06-07T12:10:34Z</time>
      </trkpt>
      <trkpt lat="47.26864" lon="-1.65601">
        <ele>31.9</ele>
        <time>2020-06-07T12:10:35Z</time>
      </trkpt>
      <trkpt lat="47.26864" lon="-1.65602">
        <ele>31.9</ele>
        <time>2020-06-07T12:10:36Z</time>
      </trkpt>
      <trkpt lat="47.26864" lon="-1.65603">
        <ele>31.9</ele>
        <time>2020-06-07T12:10:37Z</time>
      </trkpt>
      <trkpt lat="47.26864" lon="-1.65604">
        <ele>31.9</ele>
        <time>2020-06-07T12:10:38Z</time>
      </trkpt>
      <trkpt lat="47.26864" lon="-1.65605">
        <ele>31.9</ele>
        <time>2020-06-07T12:10:39Z</time>
      </trkpt>
      <trkpt lat="47.26864" lon="-1.65605">
        <ele>31.9</ele>
        <time>2020-06-07T12:10:40Z</time>
      </trkpt>
      <trkpt lat="47.26865" lon="-1.65606">
        <ele>31.9</ele>
        <time>2020-06-07T12:10:41Z</time>
      </trkpt>
      <trkpt lat="47.26865" lon="-1.65607">
        <ele>31.9</ele>
        <time>2020-06-07T12:10:42Z</time>
      </trkpt>
      <trkpt lat="47.26865" lon="-1.65608">
        <ele>31.9</ele>
        <time>2020-06-07T12:10:43Z</time>
      </trkpt>
      <trkpt lat="47.26866" lon="-1.65609">
        <ele>31.9</ele>
        <time>2020-06-07T12:10:44Z</time>
      </trkpt>
      <trkpt lat="47.26866" lon="-1.65611">
        <ele>31.9</ele>
        <time>2020-06-07T12:10:45Z</time>
      </trkpt>
      <trkpt lat="47.26866" lon="-1.65612">
        <ele>31.9</ele>
        <time>2020-06-07T12:10:46Z</time>
      </trkpt>
      <trkpt lat="47.26866" lon="-1.65614">
        <ele>31.9</ele>
        <time>2020-06-07T12:10:47Z</time>
      </trkpt>
      <trkpt lat="47.26866" lon="-1.65615">
        <ele>31.9</ele>
        <time>2020-06-07T12:10:48Z</time>
      </trkpt>
      <trkpt lat="47.26866" lon="-1.65617">
        <ele>31.9</ele>
        <time>2020-06-07T12:10:49Z</time>
      </trkpt>
      <trkpt lat="47.26867" lon="-1.65619">
        <ele>31.9</ele>
        <time>2020-06-07T12:10:50Z</time>
      </trkpt>
      <trkpt lat="47.26867" lon="-1.6562">
        <ele>31.9</ele>
        <time>2020-06-07T12:10:51Z</time>
      </trkpt>
      <trkpt lat="47.26867" lon="-1.65621">
        <ele>32</ele>
        <time>2020-06-07T12:10:52Z</time>
      </trkpt>
      <trkpt lat="47.26866" lon="-1.65622">
        <ele>32</ele>
        <time>2020-06-07T12:10:53Z</time>
      </trkpt>
      <trkpt lat="47.26866" lon="-1.65622">
        <ele>32</ele>
        <time>2020-06-07T12:10:54Z</time>
      </trkpt>
      <trkpt lat="47.26865" lon="-1.65622">
        <ele>32</ele>
        <time>2020-06-07T12:10:55Z</time>
      </trkpt>
      <trkpt lat="47.26864" lon="-1.65623">
        <ele>32</ele>
        <time>2020-06-07T12:10:56Z</time>
      </trkpt>
      <trkpt lat="47.26862" lon="-1.65624">
        <ele>32</ele>
        <time>2020-06-07T12:10:57Z</time>
      </trkpt>
      <trkpt lat="47.26862" lon="-1.65624">
        <ele>32</ele>
        <time>2020-06-07T12:10:58Z</time>
      </trkpt>
      <trkpt lat="47.26861" lon="-1.65625">
        <ele>32</ele>
        <time>2020-06-07T12:10:59Z</time>
      </trkpt>
      <trkpt lat="47.2686" lon="-1.65626">
        <ele>32</ele>
        <time>2020-06-07T12:11:00Z</time>
      </trkpt>
      <trkpt lat="47.26859" lon="-1.65627">
        <ele>32</ele>
        <time>2020-06-07T12:11:01Z</time>
      </trkpt>
      <trkpt lat="47.26858" lon="-1.65629">
        <ele>32</ele>
        <time>2020-06-07T12:11:02Z</time>
      </trkpt>
      <trkpt lat="47.26858" lon="-1.6563">
        <ele>32</ele>
        <time>2020-06-07T12:11:03Z</time>
      </trkpt>
      <trkpt lat="47.26858" lon="-1.65631">
        <ele>32</ele>
        <time>2020-06-07T12:11:04Z</time>
      </trkpt>
      <trkpt lat="47.26857" lon="-1.65632">
        <ele>32</ele>
        <time>2020-06-07T12:11:05Z</time>
      </trkpt>
      <trkpt lat="47.26857" lon="-1.65634">
        <ele>32</ele>
        <time>2020-06-07T12:11:06Z</time>
      </trkpt>
      <trkpt lat="47.26857" lon="-1.65636">
        <ele>32</ele>
        <time>2020-06-07T12:11:07Z</time>
      </trkpt>
      <trkpt lat="47.26857" lon="-1.65637">
        <ele>32</ele>
        <time>2020-06-07T12:11:08Z</time>
      </trkpt>
      <trkpt lat="47.26858" lon="-1.65638">
        <ele>32.1</ele>
        <time>2020-06-07T12:11:09Z</time>
      </trkpt>
      <trkpt lat="47.26859" lon="-1.65639">
        <ele>32.1</ele>
        <time>2020-06-07T12:11:10Z</time>
      </trkpt>
      <trkpt lat="47.2686" lon="-1.6564">
        <ele>32.1</ele>
        <time>2020-06-07T12:11:11Z</time>
      </trkpt>
      <trkpt lat="47.26861" lon="-1.6564">
        <ele>32.1</ele>
        <time>2020-06-07T12:11:12Z</time>
      </trkpt>
      <trkpt lat="47.26862" lon="-1.65641">
        <ele>32.1</ele>
        <time>2020-06-07T12:11:13Z</time>
      </trkpt>
      <trkpt lat="47.26862" lon="-1.65642">
        <ele>32.1</ele>
        <time>2020-06-07T12:11:14Z</time>
      </trkpt>
      <trkpt lat="47.26862" lon="-1.65643">
        <ele>32.1</ele>
        <time>2020-06-07T12:11:15Z</time>
      </trkpt>
      <trkpt lat="47.26862" lon="-1.65644">
        <ele>32.1</ele>
        <time>2020-06-07T12:11:16Z</time>
      </trkpt>
      <trkpt lat="47.26862" lon="-1.65645">
        <ele>32.1</ele>
        <time>2020-06-07T12:11:17Z</time>
      </trkpt>
      <trkpt lat="47.26863" lon="-1.65647">
        <ele>32.1</ele>
        <time>2020-06-07T12:11:18Z</time>
      </trkpt>
      <trkpt lat="47.26864" lon="-1.65648">
        <ele>32.1</ele>
        <time>2020-06-07T12:11:19Z</time>
      </trkpt>
      <trkpt lat="47.26864" lon="-1.65649">
        <ele>32.1</ele>
        <time>2020-06-07T12:11:20Z</time>
      </trkpt>
      <trkpt lat="47.26864" lon="-1.6565">
        <ele>32.1</ele>
        <time>2020-06-07T12:11:21Z</time>
      </trkpt>
      <trkpt lat="47.26864" lon="-1.65651">
        <ele>32.1</ele>
        <time>2020-06-07T12:11:22Z</time>
      </trkpt>
      <trkpt lat="47.26865" lon="-1.65652">
        <ele>32.1</ele>
        <time>2020-06-07T12:11:23Z</time>
      </trkpt>
      <trkpt lat="47.26864" lon="-1.65653">
        <ele>32.1</ele>
        <time>2020-06-07T12:11:24Z</time>
      </trkpt>
      <trkpt lat="47.26864" lon="-1.65654">
        <ele>32.1</ele>
        <time>2020-06-07T12:11:25Z</time>
      </trkpt>
      <trkpt lat="47.26864" lon="-1.65655">
        <ele>32.1</ele>
        <time>2020-06-07T12:11:26Z</time>
      </trkpt>
      <trkpt lat="47.26864" lon="-1.65656">
        <ele>32.1</ele>
        <time>2020-06-07T12:11:27Z</time>
      </trkpt>
      <trkpt lat="47.26864" lon="-1.65658">
        <ele>32.1</ele>
        <time>2020-06-07T12:11:28Z</time>
      </trkpt>
      <trkpt lat="47.26863" lon="-1.65659">
        <ele>32.1</ele>
        <time>2020-06-07T12:11:29Z</time>
      </trkpt>
      <trkpt lat="47.26863" lon="-1.6566">
        <ele>32.1</ele>
        <time>2020-06-07T12:11:30Z</time>
      </trkpt>
      <trkpt lat="47.26863" lon="-1.65661">
        <ele>32.1</ele>
        <time>2020-06-07T12:11:31Z</time>
      </trkpt>
      <trkpt lat="47.26862" lon="-1.65661">
        <ele>32.1</ele>
        <time>2020-06-07T12:11:32Z</time>
      </trkpt>
      <trkpt lat="47.26862" lon="-1.65662">
        <ele>32.1</ele>
        <time>2020-06-07T12:11:33Z</time>
      </trkpt>
      <trkpt lat="47.26862" lon="-1.65663">
        <ele>32.1</ele>
        <time>2020-06-07T12:11:34Z</time>
      </trkpt>
      <trkpt lat="47.26862" lon="-1.65665">
        <ele>32.1</ele>
        <time>2020-06-07T12:11:35Z</time>
      </trkpt>
      <trkpt lat="47.26862" lon="-1.65666">
        <ele>32.1</ele>
        <time>2020-06-07T12:11:36Z</time>
      </trkpt>
      <trkpt lat="47.26863" lon="-1.65668">
        <ele>32.1</ele>
        <time>2020-06-07T12:11:37Z</time>
      </trkpt>
      <trkpt lat="47.26864" lon="-1.65669">
        <ele>32.1</ele>
        <time>2020-06-07T12:11:38Z</time>
      </trkpt>
      <trkpt lat="47.26864" lon="-1.6567">
        <ele>32</ele>
        <time>2020-06-07T12:11:39Z</time>
      </trkpt>
      <trkpt lat="47.26863" lon="-1.65671">
        <ele>32</ele>
        <time>2020-06-07T12:11:40Z</time>
      </trkpt>
      <trkpt lat="47.26862" lon="-1.65672">
        <ele>32</ele>
        <time>2020-06-07T12:11:41Z</time>
      </trkpt>
      <trkpt lat="47.26862" lon="-1.65673">
        <ele>32</ele>
        <time>2020-06-07T12:11:42Z</time>
      </trkpt>
      <trkpt lat="47.26861" lon="-1.65674">
        <ele>32</ele>
        <time>2020-06-07T12:11:43Z</time>
      </trkpt>
      <trkpt lat="47.2686" lon="-1.65675">
        <ele>32</ele>
        <time>2020-06-07T12:11:44Z</time>
      </trkpt>
      <trkpt lat="47.2686" lon="-1.65676">
        <ele>32</ele>
        <time>2020-06-07T12:11:45Z</time>
      </trkpt>
      <trkpt lat="47.26859" lon="-1.65677">
        <ele>32</ele>
        <time>2020-06-07T12:11:46Z</time>
      </trkpt>
      <trkpt lat="47.26859" lon="-1.65677">
        <ele>32</ele>
        <time>2020-06-07T12:11:47Z</time>
      </trkpt>
      <trkpt lat="47.26859" lon="-1.65678">
        <ele>32</ele>
        <time>2020-06-07T12:11:48Z</time>
      </trkpt>
      <trkpt lat="47.26859" lon="-1.65679">
        <ele>32</ele>
        <time>2020-06-07T12:11:49Z</time>
      </trkpt>
      <trkpt lat="47.26858" lon="-1.6568">
        <ele>32</ele>
        <time>2020-06-07T12:11:50Z</time>
      </trkpt>
      <trkpt lat="47.26858" lon="-1.6568">
        <ele>32</ele>
        <time>2020-06-07T12:11:51Z</time>
      </trkpt>
      <trkpt lat="47.26858" lon="-1.65681">
        <ele>32</ele>
        <time>2020-06-07T12:11:52Z</time>
      </trkpt>
      <trkpt lat="47.26858" lon="-1.65682">
        <ele>32</ele>
        <time>2020-06-07T12:11:53Z</time>
      </trkpt>
      <trkpt lat="47.26858" lon="-1.65684">
        <ele>32</ele>
        <time>2020-06-07T12:11:54Z</time>
      </trkpt>
      <trkpt lat="47.26858" lon="-1.65685">
        <ele>32</ele>
        <time>2020-06-07T12:11:55Z</time>
      </trkpt>
      <trkpt lat="47.26858" lon="-1.65687">
        <ele>32</ele>
        <time>2020-06-07T12:11:56Z</time>
      </trkpt>
      <trkpt lat="47.26858" lon="-1.65688">
        <ele>32</ele>
        <time>2020-06-07T12:11:57Z</time>
      </trkpt>
      <trkpt lat="47.26858" lon="-1.65689">
        <ele>32</ele>
        <time>2020-06-07T12:11:58Z</time>
      </trkpt>
      <trkpt lat="47.26858" lon="-1.6569">
        <ele>32</ele>
        <time>2020-06-07T12:11:59Z</time>
      </trkpt>
      <trkpt lat="47.26857" lon="-1.65691">
        <ele>32</ele>
        <time>2020-06-07T12:12:00Z</time>
      </trkpt>
      <trkpt lat="47.26856" lon="-1.65693">
        <ele>32</ele>
        <time>2020-06-07T12:12:01Z</time>
      </trkpt>
      <trkpt lat="47.26855" lon="-1.65694">
        <ele>32</ele>
        <time>2020-06-07T12:12:02Z</time>
      </trkpt>
      <trkpt lat="47.26855" lon="-1.65695">
        <ele>32</ele>
        <time>2020-06-07T12:12:03Z</time>
      </trkpt>
      <trkpt lat="47.26854" lon="-1.65695">
        <ele>32</ele>
        <time>2020-06-07T12:12:04Z</time>
      </trkpt>
      <trkpt lat="47.26853" lon="-1.65696">
        <ele>32</ele>
        <time>2020-06-07T12:12:05Z</time>
      </trkpt>
      <trkpt lat="47.26853" lon="-1.65697">
        <ele>32</ele>
        <time>2020-06-07T12:12:06Z</time>
      </trkpt>
      <trkpt lat="47.26852" lon="-1.65698">
        <ele>32</ele>
        <time>2020-06-07T12:12:07Z</time>
      </trkpt>
      <trkpt lat="47.26851" lon="-1.65699">
        <ele>32</ele>
        <time>2020-06-07T12:12:08Z</time>
      </trkpt>
      <trkpt lat="47.2685" lon="-1.657">
        <ele>32</ele>
        <time>2020-06-07T12:12:09Z</time>
      </trkpt>
      <trkpt lat="47.26849" lon="-1.657">
        <ele>32.1</ele>
        <time>2020-06-07T12:12:10Z</time>
      </trkpt>
      <trkpt lat="47.26848" lon="-1.65701">
        <ele>32.1</ele>
        <time>2020-06-07T12:12:11Z</time>
      </trkpt>
      <trkpt lat="47.26848" lon="-1.65701">
        <ele>32.1</ele>
        <time>2020-06-07T12:12:12Z</time>
      </trkpt>
      <trkpt lat="47.26847" lon="-1.65702">
        <ele>32.1</ele>
        <time>2020-06-07T12:12:13Z</time>
      </trkpt>
      <trkpt lat="47.26846" lon="-1.65703">
        <ele>32.1</ele>
        <time>2020-06-07T12:12:14Z</time>
      </trkpt>
      <trkpt lat="47.26846" lon="-1.65704">
        <ele>32.1</ele>
        <time>2020-06-07T12:12:15Z</time>
      </trkpt>
      <trkpt lat="47.26845" lon="-1.65705">
        <ele>32.1</ele>
        <time>2020-06-07T12:12:16Z</time>
      </trkpt>
      <trkpt lat="47.26845" lon="-1.65706">
        <ele>32.1</ele>
        <time>2020-06-07T12:12:17Z</time>
      </trkpt>
      <trkpt lat="47.26844" lon="-1.65707">
        <ele>32.1</ele>
        <time>2020-06-07T12:12:18Z</time>
      </trkpt>
      <trkpt lat="47.26843" lon="-1.65709">
        <ele>32.1</ele>
        <time>2020-06-07T12:12:19Z</time>
      </trkpt>
      <trkpt lat="47.26842" lon="-1.6571">
        <ele>32.1</ele>
        <time>2020-06-07T12:12:20Z</time>
      </trkpt>
      <trkpt lat="47.26841" lon="-1.65711">
        <ele>32.1</ele>
        <time>2020-06-07T12:12:21Z</time>
      </trkpt>
      <trkpt lat="47.2684" lon="-1.65712">
        <ele>32.1</ele>
        <time>2020-06-07T12:12:22Z</time>
      </trkpt>
      <trkpt lat="47.2684" lon="-1.65713">
        <ele>32.2</ele>
        <time>2020-06-07T12:12:23Z</time>
      </trkpt>
      <trkpt lat="47.26839" lon="-1.65714">
        <ele>32.2</ele>
        <time>2020-06-07T12:12:24Z</time>
      </trkpt>
      <trkpt lat="47.26839" lon="-1.65715">
        <ele>32.2</ele>
        <time>2020-06-07T12:12:25Z</time>
      </trkpt>
      <trkpt lat="47.26839" lon="-1.65716">
        <ele>32.2</ele>
        <time>2020-06-07T12:12:26Z</time>
      </trkpt>
      <trkpt lat="47.26839" lon="-1.65717">
        <ele>32.2</ele>
        <time>2020-06-07T12:12:27Z</time>
      </trkpt>
      <trkpt lat="47.26839" lon="-1.65718">
        <ele>32.2</ele>
        <time>2020-06-07T12:12:28Z</time>
      </trkpt>
      <trkpt lat="47.26838" lon="-1.6572">
        <ele>32.2</ele>
        <time>2020-06-07T12:12:29Z</time>
      </trkpt>
      <trkpt lat="47.26837" lon="-1.65721">
        <ele>32.2</ele>
        <time>2020-06-07T12:12:30Z</time>
      </trkpt>
      <trkpt lat="47.26837" lon="-1.65722">
        <ele>32.3</ele>
        <time>2020-06-07T12:12:31Z</time>
      </trkpt>
      <trkpt lat="47.26836" lon="-1.65722">
        <ele>32.3</ele>
        <time>2020-06-07T12:12:32Z</time>
      </trkpt>
      <trkpt lat="47.26836" lon="-1.65723">
        <ele>32.3</ele>
        <time>2020-06-07T12:12:33Z</time>
      </trkpt>
      <trkpt lat="47.26836" lon="-1.65725">
        <ele>32.3</ele>
        <time>2020-06-07T12:12:34Z</time>
      </trkpt>
      <trkpt lat="47.26835" lon="-1.65728">
        <ele>32.3</ele>
        <time>2020-06-07T12:12:35Z</time>
      </trkpt>
      <trkpt lat="47.26835" lon="-1.65729">
        <ele>32.3</ele>
        <time>2020-06-07T12:12:36Z</time>
      </trkpt>
      <trkpt lat="47.26835" lon="-1.6573">
        <ele>32.3</ele>
        <time>2020-06-07T12:12:37Z</time>
      </trkpt>
      <trkpt lat="47.26834" lon="-1.65731">
        <ele>32.3</ele>
        <time>2020-06-07T12:12:38Z</time>
      </trkpt>
      <trkpt lat="47.26834" lon="-1.65732">
        <ele>32.4</ele>
        <time>2020-06-07T12:12:39Z</time>
      </trkpt>
      <trkpt lat="47.26833" lon="-1.65733">
        <ele>32.4</ele>
        <time>2020-06-07T12:12:40Z</time>
      </trkpt>
      <trkpt lat="47.26833" lon="-1.65734">
        <ele>32.4</ele>
        <time>2020-06-07T12:12:41Z</time>
      </trkpt>
      <trkpt lat="47.26833" lon="-1.65735">
        <ele>32.4</ele>
        <time>2020-06-07T12:12:42Z</time>
      </trkpt>
      <trkpt lat="47.26833" lon="-1.65736">
        <ele>32.4</ele>
        <time>2020-06-07T12:12:43Z</time>
      </trkpt>
      <trkpt lat="47.26833" lon="-1.65737">
        <ele>32.4</ele>
        <time>2020-06-07T12:12:44Z</time>
      </trkpt>
      <trkpt lat="47.26833" lon="-1.65738">
        <ele>32.4</ele>
        <time>2020-06-07T12:12:45Z</time>
      </trkpt>
      <trkpt lat="47.26833" lon="-1.65738">
        <ele>32.4</ele>
        <time>2020-06-07T12:12:46Z</time>
      </trkpt>
      <trkpt lat="47.26833" lon="-1.65739">
        <ele>32.4</ele>
        <time>2020-06-07T12:12:47Z</time>
      </trkpt>
      <trkpt lat="47.26833" lon="-1.6574">
        <ele>32.4</ele>
        <time>2020-06-07T12:12:48Z</time>
      </trkpt>
      <trkpt lat="47.26833" lon="-1.65742">
        <ele>32.4</ele>
        <time>2020-06-07T12:12:49Z</time>
      </trkpt>
      <trkpt lat="47.26833" lon="-1.65743">
        <ele>32.4</ele>
        <time>2020-06-07T12:12:50Z</time>
      </trkpt>
      <trkpt lat="47.26834" lon="-1.65744">
        <ele>32.4</ele>
        <time>2020-06-07T12:12:51Z</time>
      </trkpt>
      <trkpt lat="47.26834" lon="-1.65744">
        <ele>32.5</ele>
        <time>2020-06-07T12:12:52Z</time>
      </trkpt>
      <trkpt lat="47.26834" lon="-1.65745">
        <ele>32.5</ele>
        <time>2020-06-07T12:12:53Z</time>
      </trkpt>
      <trkpt lat="47.26834" lon="-1.65746">
        <ele>32.5</ele>
        <time>2020-06-07T12:12:54Z</time>
      </trkpt>
      <trkpt lat="47.26835" lon="-1.65746">
        <ele>32.5</ele>
        <time>2020-06-07T12:12:55Z</time>
      </trkpt>
      <trkpt lat="47.26835" lon="-1.65747">
        <ele>32.5</ele>
        <time>2020-06-07T12:12:56Z</time>
      </trkpt>
      <trkpt lat="47.26835" lon="-1.65747">
        <ele>32.5</ele>
        <time>2020-06-07T12:12:57Z</time>
      </trkpt>
      <trkpt lat="47.26834" lon="-1.65748">
        <ele>32.5</ele>
        <time>2020-06-07T12:12:58Z</time>
      </trkpt>
      <trkpt lat="47.26834" lon="-1.65749">
        <ele>32.5</ele>
        <time>2020-06-07T12:12:59Z</time>
      </trkpt>
      <trkpt lat="47.26834" lon="-1.65751">
        <ele>32.5</ele>
        <time>2020-06-07T12:13:00Z</time>
      </trkpt>
      <trkpt lat="47.26834" lon="-1.65751">
        <ele>32.5</ele>
        <time>2020-06-07T12:13:01Z</time>
      </trkpt>
      <trkpt lat="47.26834" lon="-1.65752">
        <ele>32.5</ele>
        <time>2020-06-07T12:13:02Z</time>
      </trkpt>
      <trkpt lat="47.26834" lon="-1.65752">
        <ele>32.5</ele>
        <time>2020-06-07T12:13:03Z</time>
      </trkpt>
      <trkpt lat="47.26834" lon="-1.65752">
        <ele>32.5</ele>
        <time>2020-06-07T12:13:04Z</time>
      </trkpt>
      <trkpt lat="47.26834" lon="-1.65752">
        <ele>32.5</ele>
        <time>2020-06-07T12:13:05Z</time>
      </trkpt>
      <trkpt lat="47.26834" lon="-1.65753">
        <ele>32.5</ele>
        <time>2020-06-07T12:13:06Z</time>
      </trkpt>
      <trkpt lat="47.26834" lon="-1.65753">
        <ele>32.5</ele>
        <time>2020-06-07T12:13:07Z</time>
      </trkpt>
      <trkpt lat="47.26834" lon="-1.65754">
        <ele>32.5</ele>
        <time>2020-06-07T12:13:08Z</time>
      </trkpt>
      <trkpt lat="47.26834" lon="-1.65756">
        <ele>32.5</ele>
        <time>2020-06-07T12:13:09Z</time>
      </trkpt>
      <trkpt lat="47.26833" lon="-1.65757">
        <ele>32.5</ele>
        <time>2020-06-07T12:13:10Z</time>
      </trkpt>
      <trkpt lat="47.26833" lon="-1.65757">
        <ele>32.5</ele>
        <time>2020-06-07T12:13:11Z</time>
      </trkpt>
      <trkpt lat="47.26833" lon="-1.65758">
        <ele>32.5</ele>
        <time>2020-06-07T12:13:12Z</time>
      </trkpt>
      <trkpt lat="47.26832" lon="-1.65759">
        <ele>32.4</ele>
        <time>2020-06-07T12:13:13Z</time>
      </trkpt>
      <trkpt lat="47.26832" lon="-1.6576">
        <ele>32.4</ele>
        <time>2020-06-07T12:13:14Z</time>
      </trkpt>
      <trkpt lat="47.26831" lon="-1.65761">
        <ele>32.4</ele>
        <time>2020-06-07T12:13:15Z</time>
      </trkpt>
      <trkpt lat="47.2683" lon="-1.65761">
        <ele>32.4</ele>
        <time>2020-06-07T12:13:16Z</time>
      </trkpt>
      <trkpt lat="47.26829" lon="-1.65761">
        <ele>32.4</ele>
        <time>2020-06-07T12:13:17Z</time>
      </trkpt>
      <trkpt lat="47.26828" lon="-1.65762">
        <ele>32.4</ele>
        <time>2020-06-07T12:13:18Z</time>
      </trkpt>
      <trkpt lat="47.26828" lon="-1.65762">
        <ele>32.4</ele>
        <time>2020-06-07T12:13:19Z</time>
      </trkpt>
      <trkpt lat="47.26827" lon="-1.65763">
        <ele>32.4</ele>
        <time>2020-06-07T12:13:20Z</time>
      </trkpt>
      <trkpt lat="47.26827" lon="-1.65764">
        <ele>32.4</ele>
        <time>2020-06-07T12:13:21Z</time>
      </trkpt>
      <trkpt lat="47.26827" lon="-1.65764">
        <ele>32.3</ele>
        <time>2020-06-07T12:13:22Z</time>
      </trkpt>
      <trkpt lat="47.26826" lon="-1.65765">
        <ele>32.3</ele>
        <time>2020-06-07T12:13:23Z</time>
      </trkpt>
      <trkpt lat="47.26825" lon="-1.65765">
        <ele>32.3</ele>
        <time>2020-06-07T12:13:24Z</time>
      </trkpt>
      <trkpt lat="47.26825" lon="-1.65766">
        <ele>32.3</ele>
        <time>2020-06-07T12:13:25Z</time>
      </trkpt>
      <trkpt lat="47.26824" lon="-1.65767">
        <ele>32.3</ele>
        <time>2020-06-07T12:13:26Z</time>
      </trkpt>
      <trkpt lat="47.26823" lon="-1.65767">
        <ele>32.3</ele>
        <time>2020-06-07T12:13:27Z</time>
      </trkpt>
      <trkpt lat="47.26823" lon="-1.65768">
        <ele>32.3</ele>
        <time>2020-06-07T12:13:28Z</time>
      </trkpt>
      <trkpt lat="47.26822" lon="-1.65768">
        <ele>32.2</ele>
        <time>2020-06-07T12:13:29Z</time>
      </trkpt>
      <trkpt lat="47.26821" lon="-1.65768">
        <ele>32.2</ele>
        <time>2020-06-07T12:13:30Z</time>
      </trkpt>
      <trkpt lat="47.2682" lon="-1.65768">
        <ele>32.2</ele>
        <time>2020-06-07T12:13:31Z</time>
      </trkpt>
      <trkpt lat="47.26819" lon="-1.65767">
        <ele>32.2</ele>
        <time>2020-06-07T12:13:32Z</time>
      </trkpt>
      <trkpt lat="47.26818" lon="-1.65767">
        <ele>32.2</ele>
        <time>2020-06-07T12:13:33Z</time>
      </trkpt>
      <trkpt lat="47.26818" lon="-1.65767">
        <ele>32.2</ele>
        <time>2020-06-07T12:13:34Z</time>
      </trkpt>
      <trkpt lat="47.26817" lon="-1.65766">
        <ele>32.2</ele>
        <time>2020-06-07T12:13:35Z</time>
      </trkpt>
      <trkpt lat="47.26816" lon="-1.65766">
        <ele>32.2</ele>
        <time>2020-06-07T12:13:36Z</time>
      </trkpt>
      <trkpt lat="47.26815" lon="-1.65766">
        <ele>32.2</ele>
        <time>2020-06-07T12:13:37Z</time>
      </trkpt>
      <trkpt lat="47.26815" lon="-1.65766">
        <ele>32.2</ele>
        <time>2020-06-07T12:13:38Z</time>
      </trkpt>
      <trkpt lat="47.26815" lon="-1.65766">
        <ele>32.2</ele>
        <time>2020-06-07T12:13:39Z</time>
      </trkpt>
      <trkpt lat="47.26815" lon="-1.65766">
        <ele>32.2</ele>
        <time>2020-06-07T12:13:40Z</time>
      </trkpt>
      <trkpt lat="47.26815" lon="-1.65767">
        <ele>32.2</ele>
        <time>2020-06-07T12:13:41Z</time>
      </trkpt>
      <trkpt lat="47.26815" lon="-1.65767">
        <ele>32.2</ele>
        <time>2020-06-07T12:13:42Z</time>
      </trkpt>
      <trkpt lat="47.26814" lon="-1.65767">
        <ele>32.2</ele>
        <time>2020-06-07T12:13:43Z</time>
      </trkpt>
      <trkpt lat="47.26813" lon="-1.65768">
        <ele>32.2</ele>
        <time>2020-06-07T12:13:44Z</time>
      </trkpt>
      <trkpt lat="47.26813" lon="-1.65768">
        <ele>32.2</ele>
        <time>2020-06-07T12:13:45Z</time>
      </trkpt>
      <trkpt lat="47.26813" lon="-1.65768">
        <ele>32.2</ele>
        <time>2020-06-07T12:13:46Z</time>
      </trkpt>
      <trkpt lat="47.26812" lon="-1.65768">
        <ele>32.2</ele>
        <time>2020-06-07T12:13:47Z</time>
      </trkpt>
      <trkpt lat="47.26812" lon="-1.65768">
        <ele>32.2</ele>
        <time>2020-06-07T12:13:48Z</time>
      </trkpt>
      <trkpt lat="47.26813" lon="-1.65767">
        <ele>32.2</ele>
        <time>2020-06-07T12:13:49Z</time>
      </trkpt>
      <trkpt lat="47.26813" lon="-1.65767">
        <ele>32.2</ele>
        <time>2020-06-07T12:13:50Z</time>
      </trkpt>
      <trkpt lat="47.26812" lon="-1.65767">
        <ele>32.2</ele>
        <time>2020-06-07T12:13:51Z</time>
      </trkpt>
      <trkpt lat="47.26812" lon="-1.65766">
        <ele>32.2</ele>
        <time>2020-06-07T12:13:52Z</time>
      </trkpt>
      <trkpt lat="47.26812" lon="-1.65765">
        <ele>32.2</ele>
        <time>2020-06-07T12:13:53Z</time>
      </trkpt>
      <trkpt lat="47.26812" lon="-1.65764">
        <ele>32.2</ele>
        <time>2020-06-07T12:13:54Z</time>
      </trkpt>
      <trkpt lat="47.26812" lon="-1.65764">
        <ele>32.2</ele>
        <time>2020-06-07T12:13:55Z</time>
      </trkpt>
      <trkpt lat="47.26812" lon="-1.65763">
        <ele>32.2</ele>
        <time>2020-06-07T12:13:56Z</time>
      </trkpt>
      <trkpt lat="47.26811" lon="-1.65763">
        <ele>32.2</ele>
        <time>2020-06-07T12:13:57Z</time>
      </trkpt>
      <trkpt lat="47.26811" lon="-1.65763">
        <ele>32.2</ele>
        <time>2020-06-07T12:13:58Z</time>
      </trkpt>
      <trkpt lat="47.26811" lon="-1.65763">
        <ele>32.2</ele>
        <time>2020-06-07T12:13:59Z</time>
      </trkpt>
      <trkpt lat="47.2681" lon="-1.65763">
        <ele>32.2</ele>
        <time>2020-06-07T12:14:00Z</time>
      </trkpt>
      <trkpt lat="47.2681" lon="-1.65763">
        <ele>32.2</ele>
        <time>2020-06-07T12:14:01Z</time>
      </trkpt>
      <trkpt lat="47.2681" lon="-1.65763">
        <ele>32.2</ele>
        <time>2020-06-07T12:14:02Z</time>
      </trkpt>
      <trkpt lat="47.26809" lon="-1.65762">
        <ele>32.2</ele>
        <time>2020-06-07T12:14:03Z</time>
      </trkpt>
      <trkpt lat="47.26809" lon="-1.65762">
        <ele>32.2</ele>
        <time>2020-06-07T12:14:04Z</time>
      </trkpt>
      <trkpt lat="47.26809" lon="-1.65763">
        <ele>32.2</ele>
        <time>2020-06-07T12:14:05Z</time>
      </trkpt>
      <trkpt lat="47.26808" lon="-1.65763">
        <ele>32.2</ele>
        <time>2020-06-07T12:14:06Z</time>
      </trkpt>
      <trkpt lat="47.26808" lon="-1.65764">
        <ele>32.2</ele>
        <time>2020-06-07T12:14:07Z</time>
      </trkpt>
      <trkpt lat="47.26807" lon="-1.65765">
        <ele>32.2</ele>
        <time>2020-06-07T12:14:08Z</time>
      </trkpt>
      <trkpt lat="47.26806" lon="-1.65766">
        <ele>32.2</ele>
        <time>2020-06-07T12:14:09Z</time>
      </trkpt>
      <trkpt lat="47.26805" lon="-1.65766">
        <ele>32.2</ele>
        <time>2020-06-07T12:14:10Z</time>
      </trkpt>
      <trkpt lat="47.26804" lon="-1.65767">
        <ele>32.2</ele>
        <time>2020-06-07T12:14:11Z</time>
      </trkpt>
      <trkpt lat="47.26804" lon="-1.65767">
        <ele>32.2</ele>
        <time>2020-06-07T12:14:12Z</time>
      </trkpt>
      <trkpt lat="47.26803" lon="-1.65767">
        <ele>32.2</ele>
        <time>2020-06-07T12:14:13Z</time>
      </trkpt>
      <trkpt lat="47.26802" lon="-1.65768">
        <ele>32.2</ele>
        <time>2020-06-07T12:14:14Z</time>
      </trkpt>
      <trkpt lat="47.26801" lon="-1.65768">
        <ele>32.2</ele>
        <time>2020-06-07T12:14:15Z</time>
      </trkpt>
      <trkpt lat="47.268" lon="-1.65768">
        <ele>32.2</ele>
        <time>2020-06-07T12:14:16Z</time>
      </trkpt>
      <trkpt lat="47.26799" lon="-1.65769">
        <ele>32.2</ele>
        <time>2020-06-07T12:14:17Z</time>
      </trkpt>
      <trkpt lat="47.26798" lon="-1.6577">
        <ele>32.2</ele>
        <time>2020-06-07T12:14:18Z</time>
      </trkpt>
      <trkpt lat="47.26797" lon="-1.6577">
        <ele>32.2</ele>
        <time>2020-06-07T12:14:19Z</time>
      </trkpt>
      <trkpt lat="47.26796" lon="-1.65771">
        <ele>32.2</ele>
        <time>2020-06-07T12:14:20Z</time>
      </trkpt>
      <trkpt lat="47.26796" lon="-1.65771">
        <ele>32.2</ele>
        <time>2020-06-07T12:14:21Z</time>
      </trkpt>
      <trkpt lat="47.26795" lon="-1.65772">
        <ele>32.2</ele>
        <time>2020-06-07T12:14:22Z</time>
      </trkpt>
      <trkpt lat="47.26794" lon="-1.65772">
        <ele>32.2</ele>
        <time>2020-06-07T12:14:23Z</time>
      </trkpt>
      <trkpt lat="47.26794" lon="-1.65773">
        <ele>32.2</ele>
        <time>2020-06-07T12:14:24Z</time>
      </trkpt>
      <trkpt lat="47.26793" lon="-1.65773">
        <ele>32.2</ele>
        <time>2020-06-07T12:14:25Z</time>
      </trkpt>
      <trkpt lat="47.26793" lon="-1.65773">
        <ele>32.2</ele>
        <time>2020-06-07T12:14:26Z</time>
      </trkpt>
      <trkpt lat="47.26792" lon="-1.65773">
        <ele>32.2</ele>
        <time>2020-06-07T12:14:27Z</time>
      </trkpt>
      <trkpt lat="47.26791" lon="-1.65774">
        <ele>32.2</ele>
        <time>2020-06-07T12:14:28Z</time>
      </trkpt>
      <trkpt lat="47.26791" lon="-1.65774">
        <ele>32.2</ele>
        <time>2020-06-07T12:14:29Z</time>
      </trkpt>
      <trkpt lat="47.2679" lon="-1.65775">
        <ele>32.2</ele>
        <time>2020-06-07T12:14:30Z</time>
      </trkpt>
      <trkpt lat="47.26789" lon="-1.65776">
        <ele>32.2</ele>
        <time>2020-06-07T12:14:31Z</time>
      </trkpt>
      <trkpt lat="47.26788" lon="-1.65777">
        <ele>32.2</ele>
        <time>2020-06-07T12:14:32Z</time>
      </trkpt>
      <trkpt lat="47.26787" lon="-1.65778">
        <ele>32.2</ele>
        <time>2020-06-07T12:14:33Z</time>
      </trkpt>
      <trkpt lat="47.26786" lon="-1.65779">
        <ele>32.2</ele>
        <time>2020-06-07T12:14:34Z</time>
      </trkpt>
      <trkpt lat="47.26786" lon="-1.65779">
        <ele>32.2</ele>
        <time>2020-06-07T12:14:35Z</time>
      </trkpt>
      <trkpt lat="47.26786" lon="-1.6578">
        <ele>32.2</ele>
        <time>2020-06-07T12:14:36Z</time>
      </trkpt>
      <trkpt lat="47.26785" lon="-1.65781">
        <ele>32.2</ele>
        <time>2020-06-07T12:14:37Z</time>
      </trkpt>
      <trkpt lat="47.26785" lon="-1.65781">
        <ele>32.2</ele>
        <time>2020-06-07T12:14:38Z</time>
      </trkpt>
      <trkpt lat="47.26785" lon="-1.65782">
        <ele>32.2</ele>
        <time>2020-06-07T12:14:39Z</time>
      </trkpt>
      <trkpt lat="47.26784" lon="-1.65783">
        <ele>32.2</ele>
        <time>2020-06-07T12:14:40Z</time>
      </trkpt>
      <trkpt lat="47.26783" lon="-1.65784">
        <ele>32.2</ele>
        <time>2020-06-07T12:14:41Z</time>
      </trkpt>
      <trkpt lat="47.26782" lon="-1.65786">
        <ele>32.2</ele>
        <time>2020-06-07T12:14:42Z</time>
      </trkpt>
      <trkpt lat="47.26781" lon="-1.65787">
        <ele>32.2</ele>
        <time>2020-06-07T12:14:43Z</time>
      </trkpt>
      <trkpt lat="47.2678" lon="-1.65788">
        <ele>32.2</ele>
        <time>2020-06-07T12:14:44Z</time>
      </trkpt>
      <trkpt lat="47.2678" lon="-1.65788">
        <ele>32.2</ele>
        <time>2020-06-07T12:14:45Z</time>
      </trkpt>
      <trkpt lat="47.26779" lon="-1.65789">
        <ele>32.2</ele>
        <time>2020-06-07T12:14:46Z</time>
      </trkpt>
      <trkpt lat="47.26779" lon="-1.6579">
        <ele>32.2</ele>
        <time>2020-06-07T12:14:47Z</time>
      </trkpt>
      <trkpt lat="47.26779" lon="-1.65791">
        <ele>32.2</ele>
        <time>2020-06-07T12:14:48Z</time>
      </trkpt>
      <trkpt lat="47.26778" lon="-1.65791">
        <ele>32.2</ele>
        <time>2020-06-07T12:14:49Z</time>
      </trkpt>
      <trkpt lat="47.26778" lon="-1.65791">
        <ele>32.2</ele>
        <time>2020-06-07T12:14:50Z</time>
      </trkpt>
      <trkpt lat="47.26777" lon="-1.65791">
        <ele>32.2</ele>
        <time>2020-06-07T12:14:51Z</time>
      </trkpt>
      <trkpt lat="47.26777" lon="-1.65791">
        <ele>32.2</ele>
        <time>2020-06-07T12:14:52Z</time>
      </trkpt>
      <trkpt lat="47.26777" lon="-1.65791">
        <ele>32.2</ele>
        <time>2020-06-07T12:14:53Z</time>
      </trkpt>
      <trkpt lat="47.26777" lon="-1.65791">
        <ele>32.2</ele>
        <time>2020-06-07T12:14:54Z</time>
      </trkpt>
      <trkpt lat="47.26776" lon="-1.65791">
        <ele>32.2</ele>
        <time>2020-06-07T12:14:55Z</time>
      </trkpt>
      <trkpt lat="47.26776" lon="-1.65791">
        <ele>32.2</ele>
        <time>2020-06-07T12:14:56Z</time>
      </trkpt>
      <trkpt lat="47.26776" lon="-1.65792">
        <ele>32.2</ele>
        <time>2020-06-07T12:14:57Z</time>
      </trkpt>
      <trkpt lat="47.26776" lon="-1.65792">
        <ele>32.2</ele>
        <time>2020-06-07T12:14:58Z</time>
      </trkpt>
      <trkpt lat="47.26775" lon="-1.65792">
        <ele>32.2</ele>
        <time>2020-06-07T12:14:59Z</time>
      </trkpt>
      <trkpt lat="47.26775" lon="-1.65792">
        <ele>32.2</ele>
        <time>2020-06-07T12:15:00Z</time>
      </trkpt>
      <trkpt lat="47.26775" lon="-1.65792">
        <ele>32.2</ele>
        <time>2020-06-07T12:15:01Z</time>
      </trkpt>
      <trkpt lat="47.26775" lon="-1.65792">
        <ele>32.2</ele>
        <time>2020-06-07T12:15:02Z</time>
      </trkpt>
      <trkpt lat="47.26774" lon="-1.65792">
        <ele>32.2</ele>
        <time>2020-06-07T12:15:03Z</time>
      </trkpt>
      <trkpt lat="47.26774" lon="-1.65792">
        <ele>32.2</ele>
        <time>2020-06-07T12:15:04Z</time>
      </trkpt>
      <trkpt lat="47.26774" lon="-1.65792">
        <ele>32.2</ele>
        <time>2020-06-07T12:15:05Z</time>
      </trkpt>
      <trkpt lat="47.26774" lon="-1.65792">
        <ele>32.2</ele>
        <time>2020-06-07T12:15:06Z</time>
      </trkpt>
      <trkpt lat="47.26773" lon="-1.65792">
        <ele>32.2</ele>
        <time>2020-06-07T12:15:07Z</time>
      </trkpt>
      <trkpt lat="47.26773" lon="-1.65792">
        <ele>32.2</ele>
        <time>2020-06-07T12:15:08Z</time>
      </trkpt>
      <trkpt lat="47.26773" lon="-1.65792">
        <ele>32.2</ele>
        <time>2020-06-07T12:15:09Z</time>
      </trkpt>
      <trkpt lat="47.26772" lon="-1.65792">
        <ele>32.2</ele>
        <time>2020-06-07T12:15:10Z</time>
      </trkpt>
      <trkpt lat="47.26772" lon="-1.65792">
        <ele>32.2</ele>
        <time>2020-06-07T12:15:11Z</time>
      </trkpt>
      <trkpt lat="47.26771" lon="-1.65793">
        <ele>32.2</ele>
        <time>2020-06-07T12:15:16Z</time>
      </trkpt>
      <trkpt lat="47.26771" lon="-1.65793">
        <ele>32.2</ele>
        <time>2020-06-07T12:15:17Z</time>
      </trkpt>
      <trkpt lat="47.2677" lon="-1.65792">
        <ele>32.2</ele>
        <time>2020-06-07T12:15:18Z</time>
      </trkpt>
      <trkpt lat="47.2677" lon="-1.65792">
        <ele>32.2</ele>
        <time>2020-06-07T12:15:19Z</time>
      </trkpt>
      <trkpt lat="47.26769" lon="-1.65792">
        <ele>32.2</ele>
        <time>2020-06-07T12:15:20Z</time>
      </trkpt>
      <trkpt lat="47.26769" lon="-1.65792">
        <ele>32.2</ele>
        <time>2020-06-07T12:15:21Z</time>
      </trkpt>
      <trkpt lat="47.2677" lon="-1.65792">
        <ele>32.2</ele>
        <time>2020-06-07T12:15:22Z</time>
      </trkpt>
      <trkpt lat="47.2677" lon="-1.65793">
        <ele>32.2</ele>
        <time>2020-06-07T12:15:23Z</time>
      </trkpt>
      <trkpt lat="47.26771" lon="-1.65793">
        <ele>32.2</ele>
        <time>2020-06-07T12:15:24Z</time>
      </trkpt>
      <trkpt lat="47.26772" lon="-1.65793">
        <ele>32.2</ele>
        <time>2020-06-07T12:15:25Z</time>
      </trkpt>
      <trkpt lat="47.26772" lon="-1.65793">
        <ele>32.2</ele>
        <time>2020-06-07T12:15:26Z</time>
      </trkpt>
      <trkpt lat="47.26773" lon="-1.65793">
        <ele>32.2</ele>
        <time>2020-06-07T12:15:27Z</time>
      </trkpt>
      <trkpt lat="47.26773" lon="-1.65793">
        <ele>32.2</ele>
        <time>2020-06-07T12:15:28Z</time>
      </trkpt>
      <trkpt lat="47.26773" lon="-1.65792">
        <ele>32.2</ele>
        <time>2020-06-07T12:15:29Z</time>
      </trkpt>
      <trkpt lat="47.26774" lon="-1.65792">
        <ele>32.2</ele>
        <time>2020-06-07T12:15:30Z</time>
      </trkpt>
      <trkpt lat="47.26774" lon="-1.65792">
        <ele>32.2</ele>
        <time>2020-06-07T12:15:31Z</time>
      </trkpt>
      <trkpt lat="47.26774" lon="-1.65792">
        <ele>32.2</ele>
        <time>2020-06-07T12:15:32Z</time>
      </trkpt>
      <trkpt lat="47.26775" lon="-1.65793">
        <ele>32.2</ele>
        <time>2020-06-07T12:15:33Z</time>
      </trkpt>
      <trkpt lat="47.26776" lon="-1.65794">
        <ele>32.2</ele>
        <time>2020-06-07T12:15:34Z</time>
      </trkpt>
      <trkpt lat="47.26777" lon="-1.65794">
        <ele>32.2</ele>
        <time>2020-06-07T12:15:35Z</time>
      </trkpt>
      <trkpt lat="47.26777" lon="-1.65794">
        <ele>32.2</ele>
        <time>2020-06-07T12:15:36Z</time>
      </trkpt>
      <trkpt lat="47.26776" lon="-1.65796">
        <ele>32.2</ele>
        <time>2020-06-07T12:15:37Z</time>
      </trkpt>
      <trkpt lat="47.26775" lon="-1.65796">
        <ele>32.2</ele>
        <time>2020-06-07T12:15:38Z</time>
      </trkpt>
      <trkpt lat="47.26775" lon="-1.65797">
        <ele>32.3</ele>
        <time>2020-06-07T12:15:39Z</time>
      </trkpt>
      <trkpt lat="47.26775" lon="-1.65797">
        <ele>32.3</ele>
        <time>2020-06-07T12:15:40Z</time>
      </trkpt>
      <trkpt lat="47.26775" lon="-1.65798">
        <ele>32.3</ele>
        <time>2020-06-07T12:15:41Z</time>
      </trkpt>
      <trkpt lat="47.26775" lon="-1.65799">
        <ele>32.3</ele>
        <time>2020-06-07T12:15:42Z</time>
      </trkpt>
      <trkpt lat="47.26775" lon="-1.65799">
        <ele>32.3</ele>
        <time>2020-06-07T12:15:43Z</time>
      </trkpt>
      <trkpt lat="47.26776" lon="-1.65798">
        <ele>32.3</ele>
        <time>2020-06-07T12:15:44Z</time>
      </trkpt>
      <trkpt lat="47.26777" lon="-1.65797">
        <ele>32.3</ele>
        <time>2020-06-07T12:15:45Z</time>
      </trkpt>
      <trkpt lat="47.26777" lon="-1.65796">
        <ele>32.3</ele>
        <time>2020-06-07T12:15:46Z</time>
      </trkpt>
      <trkpt lat="47.26778" lon="-1.65796">
        <ele>32.3</ele>
        <time>2020-06-07T12:15:47Z</time>
      </trkpt>
      <trkpt lat="47.26778" lon="-1.65796">
        <ele>32.3</ele>
        <time>2020-06-07T12:15:48Z</time>
      </trkpt>
      <trkpt lat="47.26778" lon="-1.65795">
        <ele>32.3</ele>
        <time>2020-06-07T12:15:49Z</time>
      </trkpt>
      <trkpt lat="47.26778" lon="-1.65794">
        <ele>32.3</ele>
        <time>2020-06-07T12:15:50Z</time>
      </trkpt>
      <trkpt lat="47.26781" lon="-1.6579">
        <ele>32.3</ele>
        <time>2020-06-07T12:16:11Z</time>
      </trkpt>
      <trkpt lat="47.26781" lon="-1.6579">
        <ele>32.3</ele>
        <time>2020-06-07T12:16:12Z</time>
      </trkpt>
      <trkpt lat="47.26781" lon="-1.6579">
        <ele>32.3</ele>
        <time>2020-06-07T12:16:13Z</time>
      </trkpt>
      <trkpt lat="47.26781" lon="-1.6579">
        <ele>32.3</ele>
        <time>2020-06-07T12:16:14Z</time>
      </trkpt>
      <trkpt lat="47.26782" lon="-1.6579">
        <ele>32.3</ele>
        <time>2020-06-07T12:16:15Z</time>
      </trkpt>
      <trkpt lat="47.26782" lon="-1.6579">
        <ele>32.3</ele>
        <time>2020-06-07T12:16:16Z</time>
      </trkpt>
      <trkpt lat="47.26782" lon="-1.6579">
        <ele>32.3</ele>
        <time>2020-06-07T12:16:17Z</time>
      </trkpt>
      <trkpt lat="47.26782" lon="-1.6579">
        <ele>32.3</ele>
        <time>2020-06-07T12:16:18Z</time>
      </trkpt>
      <trkpt lat="47.26782" lon="-1.6579">
        <ele>32.3</ele>
        <time>2020-06-07T12:16:19Z</time>
      </trkpt>
      <trkpt lat="47.26782" lon="-1.6579">
        <ele>32.3</ele>
        <time>2020-06-07T12:16:20Z</time>
      </trkpt>
      <trkpt lat="47.26782" lon="-1.6579">
        <ele>32.3</ele>
        <time>2020-06-07T12:16:21Z</time>
      </trkpt>
      <trkpt lat="47.26777" lon="-1.65803">
        <ele>32.4</ele>
        <time>2020-06-07T12:20:57Z</time>
      </trkpt>
      <trkpt lat="47.26777" lon="-1.65804">
        <ele>32.4</ele>
        <time>2020-06-07T12:20:58Z</time>
      </trkpt>
      <trkpt lat="47.26776" lon="-1.65806">
        <ele>32.4</ele>
        <time>2020-06-07T12:20:59Z</time>
      </trkpt>
      <trkpt lat="47.26776" lon="-1.65806">
        <ele>32.5</ele>
        <time>2020-06-07T12:21:00Z</time>
      </trkpt>
      <trkpt lat="47.26775" lon="-1.65807">
        <ele>32.5</ele>
        <time>2020-06-07T12:21:01Z</time>
      </trkpt>
      <trkpt lat="47.26774" lon="-1.65808">
        <ele>32.5</ele>
        <time>2020-06-07T12:21:02Z</time>
      </trkpt>
      <trkpt lat="47.26773" lon="-1.6581">
        <ele>32.5</ele>
        <time>2020-06-07T12:21:03Z</time>
      </trkpt>
      <trkpt lat="47.26772" lon="-1.65812">
        <ele>32.5</ele>
        <time>2020-06-07T12:21:04Z</time>
      </trkpt>
      <trkpt lat="47.26771" lon="-1.65813">
        <ele>32.5</ele>
        <time>2020-06-07T12:21:05Z</time>
      </trkpt>
      <trkpt lat="47.2677" lon="-1.65815">
        <ele>32.5</ele>
        <time>2020-06-07T12:21:06Z</time>
      </trkpt>
      <trkpt lat="47.2677" lon="-1.65816">
        <ele>32.5</ele>
        <time>2020-06-07T12:21:07Z</time>
      </trkpt>
      <trkpt lat="47.26769" lon="-1.65817">
        <ele>32.6</ele>
        <time>2020-06-07T12:21:08Z</time>
      </trkpt>
      <trkpt lat="47.26768" lon="-1.65819">
        <ele>32.6</ele>
        <time>2020-06-07T12:21:09Z</time>
      </trkpt>
      <trkpt lat="47.26767" lon="-1.65823">
        <ele>32.6</ele>
        <time>2020-06-07T12:21:10Z</time>
      </trkpt>
      <trkpt lat="47.26766" lon="-1.65824">
        <ele>32.6</ele>
        <time>2020-06-07T12:21:11Z</time>
      </trkpt>
      <trkpt lat="47.26765" lon="-1.65828">
        <ele>32.6</ele>
        <time>2020-06-07T12:21:12Z</time>
      </trkpt>
      <trkpt lat="47.26764" lon="-1.65829">
        <ele>32.6</ele>
        <time>2020-06-07T12:21:13Z</time>
      </trkpt>
      <trkpt lat="47.26764" lon="-1.6583">
        <ele>32.7</ele>
        <time>2020-06-07T12:21:14Z</time>
      </trkpt>
      <trkpt lat="47.26763" lon="-1.65831">
        <ele>32.7</ele>
        <time>2020-06-07T12:21:15Z</time>
      </trkpt>
      <trkpt lat="47.26762" lon="-1.65832">
        <ele>32.7</ele>
        <time>2020-06-07T12:21:16Z</time>
      </trkpt>
      <trkpt lat="47.26761" lon="-1.65832">
        <ele>32.7</ele>
        <time>2020-06-07T12:21:17Z</time>
      </trkpt>
      <trkpt lat="47.2676" lon="-1.65833">
        <ele>32.7</ele>
        <time>2020-06-07T12:21:18Z</time>
      </trkpt>
      <trkpt lat="47.26759" lon="-1.65833">
        <ele>32.8</ele>
        <time>2020-06-07T12:21:19Z</time>
      </trkpt>
      <trkpt lat="47.26756" lon="-1.65834">
        <ele>32.8</ele>
        <time>2020-06-07T12:21:20Z</time>
      </trkpt>
      <trkpt lat="47.26755" lon="-1.65834">
        <ele>32.8</ele>
        <time>2020-06-07T12:21:21Z</time>
      </trkpt>
      <trkpt lat="47.26754" lon="-1.65834">
        <ele>32.9</ele>
        <time>2020-06-07T12:21:22Z</time>
      </trkpt>
      <trkpt lat="47.26753" lon="-1.65834">
        <ele>32.9</ele>
        <time>2020-06-07T12:21:23Z</time>
      </trkpt>
      <trkpt lat="47.26752" lon="-1.65834">
        <ele>32.9</ele>
        <time>2020-06-07T12:21:24Z</time>
      </trkpt>
      <trkpt lat="47.2675" lon="-1.65834">
        <ele>33</ele>
        <time>2020-06-07T12:21:25Z</time>
      </trkpt>
      <trkpt lat="47.26749" lon="-1.65834">
        <ele>33</ele>
        <time>2020-06-07T12:21:26Z</time>
      </trkpt>
      <trkpt lat="47.26748" lon="-1.65834">
        <ele>33.1</ele>
        <time>2020-06-07T12:21:27Z</time>
      </trkpt>
      <trkpt lat="47.26746" lon="-1.65834">
        <ele>33.1</ele>
        <time>2020-06-07T12:21:28Z</time>
      </trkpt>
      <trkpt lat="47.26745" lon="-1.65833">
        <ele>33.1</ele>
        <time>2020-06-07T12:21:29Z</time>
      </trkpt>
      <trkpt lat="47.26745" lon="-1.65833">
        <ele>33.2</ele>
        <time>2020-06-07T12:21:30Z</time>
      </trkpt>
      <trkpt lat="47.26743" lon="-1.65834">
        <ele>33.2</ele>
        <time>2020-06-07T12:21:31Z</time>
      </trkpt>
      <trkpt lat="47.26742" lon="-1.65834">
        <ele>33.3</ele>
        <time>2020-06-07T12:21:32Z</time>
      </trkpt>
      <trkpt lat="47.26742" lon="-1.65835">
        <ele>33.3</ele>
        <time>2020-06-07T12:21:33Z</time>
      </trkpt>
      <trkpt lat="47.26741" lon="-1.65836">
        <ele>33.3</ele>
        <time>2020-06-07T12:21:34Z</time>
      </trkpt>
      <trkpt lat="47.2674" lon="-1.65836">
        <ele>33.4</ele>
        <time>2020-06-07T12:21:35Z</time>
      </trkpt>
      <trkpt lat="47.26739" lon="-1.65836">
        <ele>33.4</ele>
        <time>2020-06-07T12:21:36Z</time>
      </trkpt>
      <trkpt lat="47.26738" lon="-1.65836">
        <ele>33.4</ele>
        <time>2020-06-07T12:21:37Z</time>
      </trkpt>
      <trkpt lat="47.26738" lon="-1.65836">
        <ele>33.4</ele>
        <time>2020-06-07T12:21:38Z</time>
      </trkpt>
      <trkpt lat="47.26738" lon="-1.65837">
        <ele>33.4</ele>
        <time>2020-06-07T12:21:39Z</time>
      </trkpt>
      <trkpt lat="47.26738" lon="-1.65837">
        <ele>33.4</ele>
        <time>2020-06-07T12:21:40Z</time>
      </trkpt>
      <trkpt lat="47.26737" lon="-1.65838">
        <ele>33.5</ele>
        <time>2020-06-07T12:21:41Z</time>
      </trkpt>
      <trkpt lat="47.26737" lon="-1.65838">
        <ele>33.5</ele>
        <time>2020-06-07T12:21:42Z</time>
      </trkpt>
      <trkpt lat="47.26736" lon="-1.65838">
        <ele>33.5</ele>
        <time>2020-06-07T12:21:43Z</time>
      </trkpt>
      <trkpt lat="47.26736" lon="-1.65838">
        <ele>33.5</ele>
        <time>2020-06-07T12:21:44Z</time>
      </trkpt>
      <trkpt lat="47.26736" lon="-1.6584">
        <ele>33.5</ele>
        <time>2020-06-07T12:21:45Z</time>
      </trkpt>
      <trkpt lat="47.26736" lon="-1.65841">
        <ele>33.5</ele>
        <time>2020-06-07T12:21:46Z</time>
      </trkpt>
      <trkpt lat="47.26736" lon="-1.65841">
        <ele>33.6</ele>
        <time>2020-06-07T12:21:47Z</time>
      </trkpt>
      <trkpt lat="47.26736" lon="-1.65842">
        <ele>33.6</ele>
        <time>2020-06-07T12:21:48Z</time>
      </trkpt>
      <trkpt lat="47.26735" lon="-1.65843">
        <ele>33.6</ele>
        <time>2020-06-07T12:21:49Z</time>
      </trkpt>
      <trkpt lat="47.26734" lon="-1.65845">
        <ele>33.6</ele>
        <time>2020-06-07T12:21:50Z</time>
      </trkpt>
      <trkpt lat="47.26734" lon="-1.65846">
        <ele>33.7</ele>
        <time>2020-06-07T12:21:51Z</time>
      </trkpt>
      <trkpt lat="47.26733" lon="-1.65846">
        <ele>33.7</ele>
        <time>2020-06-07T12:21:52Z</time>
      </trkpt>
      <trkpt lat="47.26732" lon="-1.65847">
        <ele>33.7</ele>
        <time>2020-06-07T12:21:53Z</time>
      </trkpt>
      <trkpt lat="47.26731" lon="-1.65847">
        <ele>33.7</ele>
        <time>2020-06-07T12:21:54Z</time>
      </trkpt>
      <trkpt lat="47.2673" lon="-1.65847">
        <ele>33.8</ele>
        <time>2020-06-07T12:21:55Z</time>
      </trkpt>
      <trkpt lat="47.26729" lon="-1.65847">
        <ele>33.8</ele>
        <time>2020-06-07T12:21:56Z</time>
      </trkpt>
      <trkpt lat="47.26728" lon="-1.65847">
        <ele>33.8</ele>
        <time>2020-06-07T12:21:57Z</time>
      </trkpt>
      <trkpt lat="47.26727" lon="-1.65847">
        <ele>33.8</ele>
        <time>2020-06-07T12:21:58Z</time>
      </trkpt>
      <trkpt lat="47.26726" lon="-1.65847">
        <ele>33.9</ele>
        <time>2020-06-07T12:21:59Z</time>
      </trkpt>
      <trkpt lat="47.26725" lon="-1.65847">
        <ele>33.9</ele>
        <time>2020-06-07T12:22:00Z</time>
      </trkpt>
      <trkpt lat="47.26724" lon="-1.65846">
        <ele>33.9</ele>
        <time>2020-06-07T12:22:01Z</time>
      </trkpt>
      <trkpt lat="47.26723" lon="-1.65845">
        <ele>33.9</ele>
        <time>2020-06-07T12:22:02Z</time>
      </trkpt>
      <trkpt lat="47.26722" lon="-1.65845">
        <ele>33.9</ele>
        <time>2020-06-07T12:22:03Z</time>
      </trkpt>
      <trkpt lat="47.26721" lon="-1.65845">
        <ele>34</ele>
        <time>2020-06-07T12:22:04Z</time>
      </trkpt>
      <trkpt lat="47.26719" lon="-1.65844">
        <ele>34</ele>
        <time>2020-06-07T12:22:05Z</time>
      </trkpt>
      <trkpt lat="47.26718" lon="-1.65844">
        <ele>34</ele>
        <time>2020-06-07T12:22:06Z</time>
      </trkpt>
      <trkpt lat="47.26717" lon="-1.65844">
        <ele>34</ele>
        <time>2020-06-07T12:22:07Z</time>
      </trkpt>
      <trkpt lat="47.26716" lon="-1.65843">
        <ele>34</ele>
        <time>2020-06-07T12:22:08Z</time>
      </trkpt>
      <trkpt lat="47.26715" lon="-1.65843">
        <ele>34.1</ele>
        <time>2020-06-07T12:22:09Z</time>
      </trkpt>
      <trkpt lat="47.26714" lon="-1.65842">
        <ele>34.1</ele>
        <time>2020-06-07T12:22:10Z</time>
      </trkpt>
      <trkpt lat="47.26713" lon="-1.65841">
        <ele>34.1</ele>
        <time>2020-06-07T12:22:11Z</time>
      </trkpt>
      <trkpt lat="47.26711" lon="-1.65841">
        <ele>34.1</ele>
        <time>2020-06-07T12:22:12Z</time>
      </trkpt>
      <trkpt lat="47.26709" lon="-1.65842">
        <ele>34.2</ele>
        <time>2020-06-07T12:22:13Z</time>
      </trkpt>
      <trkpt lat="47.26709" lon="-1.65842">
        <ele>34.2</ele>
        <time>2020-06-07T12:22:14Z</time>
      </trkpt>
      <trkpt lat="47.26708" lon="-1.65842">
        <ele>34.2</ele>
        <time>2020-06-07T12:22:15Z</time>
      </trkpt>
      <trkpt lat="47.26707" lon="-1.65843">
        <ele>34.2</ele>
        <time>2020-06-07T12:22:16Z</time>
      </trkpt>
      <trkpt lat="47.26706" lon="-1.65844">
        <ele>34.3</ele>
        <time>2020-06-07T12:22:17Z</time>
      </trkpt>
      <trkpt lat="47.26704" lon="-1.65846">
        <ele>34.3</ele>
        <time>2020-06-07T12:22:18Z</time>
      </trkpt>
      <trkpt lat="47.26703" lon="-1.65847">
        <ele>34.4</ele>
        <time>2020-06-07T12:22:19Z</time>
      </trkpt>
      <trkpt lat="47.26703" lon="-1.65847">
        <ele>34.4</ele>
        <time>2020-06-07T12:22:20Z</time>
      </trkpt>
      <trkpt lat="47.26702" lon="-1.65848">
        <ele>34.4</ele>
        <time>2020-06-07T12:22:21Z</time>
      </trkpt>
      <trkpt lat="47.26701" lon="-1.6585">
        <ele>34.5</ele>
        <time>2020-06-07T12:22:22Z</time>
      </trkpt>
      <trkpt lat="47.26701" lon="-1.6585">
        <ele>34.5</ele>
        <time>2020-06-07T12:22:23Z</time>
      </trkpt>
      <trkpt lat="47.26699" lon="-1.65852">
        <ele>34.6</ele>
        <time>2020-06-07T12:22:24Z</time>
      </trkpt>
      <trkpt lat="47.26699" lon="-1.65852">
        <ele>34.6</ele>
        <time>2020-06-07T12:22:25Z</time>
      </trkpt>
      <trkpt lat="47.26698" lon="-1.65852">
        <ele>34.6</ele>
        <time>2020-06-07T12:22:26Z</time>
      </trkpt>
      <trkpt lat="47.26697" lon="-1.65853">
        <ele>34.7</ele>
        <time>2020-06-07T12:22:27Z</time>
      </trkpt>
      <trkpt lat="47.26696" lon="-1.65854">
        <ele>34.7</ele>
        <time>2020-06-07T12:22:28Z</time>
      </trkpt>
      <trkpt lat="47.26696" lon="-1.65854">
        <ele>34.7</ele>
        <time>2020-06-07T12:22:29Z</time>
      </trkpt>
      <trkpt lat="47.26695" lon="-1.65855">
        <ele>34.8</ele>
        <time>2020-06-07T12:22:30Z</time>
      </trkpt>
      <trkpt lat="47.26695" lon="-1.65856">
        <ele>34.8</ele>
        <time>2020-06-07T12:22:31Z</time>
      </trkpt>
      <trkpt lat="47.26694" lon="-1.65857">
        <ele>34.9</ele>
        <time>2020-06-07T12:22:32Z</time>
      </trkpt>
      <trkpt lat="47.26694" lon="-1.65859">
        <ele>34.9</ele>
        <time>2020-06-07T12:22:33Z</time>
      </trkpt>
      <trkpt lat="47.26694" lon="-1.6586">
        <ele>35</ele>
        <time>2020-06-07T12:22:34Z</time>
      </trkpt>
      <trkpt lat="47.26695" lon="-1.65861">
        <ele>35</ele>
        <time>2020-06-07T12:22:35Z</time>
      </trkpt>
      <trkpt lat="47.26694" lon="-1.65862">
        <ele>35</ele>
        <time>2020-06-07T12:22:36Z</time>
      </trkpt>
      <trkpt lat="47.26694" lon="-1.65862">
        <ele>35.1</ele>
        <time>2020-06-07T12:22:37Z</time>
      </trkpt>
      <trkpt lat="47.26693" lon="-1.65862">
        <ele>35.1</ele>
        <time>2020-06-07T12:22:38Z</time>
      </trkpt>
      <trkpt lat="47.26693" lon="-1.65862">
        <ele>35.1</ele>
        <time>2020-06-07T12:22:39Z</time>
      </trkpt>
      <trkpt lat="47.26692" lon="-1.65862">
        <ele>35.2</ele>
        <time>2020-06-07T12:22:40Z</time>
      </trkpt>
      <trkpt lat="47.26692" lon="-1.65862">
        <ele>35.2</ele>
        <time>2020-06-07T12:22:41Z</time>
      </trkpt>
      <trkpt lat="47.26691" lon="-1.65862">
        <ele>35.2</ele>
        <time>2020-06-07T12:22:42Z</time>
      </trkpt>
      <trkpt lat="47.26692" lon="-1.65862">
        <ele>35.2</ele>
        <time>2020-06-07T12:22:43Z</time>
      </trkpt>
      <trkpt lat="47.26692" lon="-1.65862">
        <ele>35.2</ele>
        <time>2020-06-07T12:22:44Z</time>
      </trkpt>
      <trkpt lat="47.26692" lon="-1.65862">
        <ele>35.2</ele>
        <time>2020-06-07T12:22:45Z</time>
      </trkpt>
      <trkpt lat="47.26692" lon="-1.65862">
        <ele>35.2</ele>
        <time>2020-06-07T12:22:46Z</time>
      </trkpt>
      <trkpt lat="47.26692" lon="-1.65863">
        <ele>35.3</ele>
        <time>2020-06-07T12:22:47Z</time>
      </trkpt>
      <trkpt lat="47.26692" lon="-1.65863">
        <ele>35.3</ele>
        <time>2020-06-07T12:22:48Z</time>
      </trkpt>
      <trkpt lat="47.26692" lon="-1.65864">
        <ele>35.3</ele>
        <time>2020-06-07T12:22:49Z</time>
      </trkpt>
      <trkpt lat="47.26692" lon="-1.65864">
        <ele>35.3</ele>
        <time>2020-06-07T12:22:50Z</time>
      </trkpt>
      <trkpt lat="47.26691" lon="-1.65865">
        <ele>35.4</ele>
        <time>2020-06-07T12:22:51Z</time>
      </trkpt>
      <trkpt lat="47.26691" lon="-1.65865">
        <ele>35.4</ele>
        <time>2020-06-07T12:22:52Z</time>
      </trkpt>
      <trkpt lat="47.26692" lon="-1.65864">
        <ele>35.4</ele>
        <time>2020-06-07T12:22:53Z</time>
      </trkpt>
      <trkpt lat="47.26693" lon="-1.65863">
        <ele>35.5</ele>
        <time>2020-06-07T12:22:54Z</time>
      </trkpt>
      <trkpt lat="47.26695" lon="-1.65861">
        <ele>35.5</ele>
        <time>2020-06-07T12:22:55Z</time>
      </trkpt>
      <trkpt lat="47.26695" lon="-1.65861">
        <ele>35.6</ele>
        <time>2020-06-07T12:22:56Z</time>
      </trkpt>
      <trkpt lat="47.26695" lon="-1.6586">
        <ele>35.6</ele>
        <time>2020-06-07T12:22:57Z</time>
      </trkpt>
      <trkpt lat="47.26695" lon="-1.6586">
        <ele>35.6</ele>
        <time>2020-06-07T12:22:58Z</time>
      </trkpt>
      <trkpt lat="47.26695" lon="-1.65861">
        <ele>35.6</ele>
        <time>2020-06-07T12:22:59Z</time>
      </trkpt>
      <trkpt lat="47.26694" lon="-1.65861">
        <ele>35.6</ele>
        <time>2020-06-07T12:23:00Z</time>
      </trkpt>
      <trkpt lat="47.26694" lon="-1.65861">
        <ele>35.6</ele>
        <time>2020-06-07T12:23:01Z</time>
      </trkpt>
      <trkpt lat="47.26694" lon="-1.65862">
        <ele>35.6</ele>
        <time>2020-06-07T12:23:02Z</time>
      </trkpt>
      <trkpt lat="47.26694" lon="-1.65863">
        <ele>35.6</ele>
        <time>2020-06-07T12:23:03Z</time>
      </trkpt>
      <trkpt lat="47.26694" lon="-1.65864">
        <ele>35.6</ele>
        <time>2020-06-07T12:23:04Z</time>
      </trkpt>
      <trkpt lat="47.26694" lon="-1.65864">
        <ele>35.6</ele>
        <time>2020-06-07T12:23:05Z</time>
      </trkpt>
      <trkpt lat="47.26694" lon="-1.65864">
        <ele>35.6</ele>
        <time>2020-06-07T12:23:06Z</time>
      </trkpt>
      <trkpt lat="47.26694" lon="-1.65864">
        <ele>35.7</ele>
        <time>2020-06-07T12:23:07Z</time>
      </trkpt>
      <trkpt lat="47.26693" lon="-1.65865">
        <ele>35.7</ele>
        <time>2020-06-07T12:23:08Z</time>
      </trkpt>
      <trkpt lat="47.26693" lon="-1.65865">
        <ele>35.7</ele>
        <time>2020-06-07T12:23:09Z</time>
      </trkpt>
      <trkpt lat="47.26691" lon="-1.65866">
        <ele>35.7</ele>
        <time>2020-06-07T12:23:10Z</time>
      </trkpt>
      <trkpt lat="47.2669" lon="-1.65866">
        <ele>35.7</ele>
        <time>2020-06-07T12:23:11Z</time>
      </trkpt>
      <trkpt lat="47.26688" lon="-1.65866">
        <ele>35.7</ele>
        <time>2020-06-07T12:23:12Z</time>
      </trkpt>
      <trkpt lat="47.26687" lon="-1.65867">
        <ele>35.7</ele>
        <time>2020-06-07T12:23:13Z</time>
      </trkpt>
      <trkpt lat="47.26685" lon="-1.65866">
        <ele>35.7</ele>
        <time>2020-06-07T12:23:14Z</time>
      </trkpt>
      <trkpt lat="47.26684" lon="-1.65866">
        <ele>35.7</ele>
        <time>2020-06-07T12:23:15Z</time>
      </trkpt>
      <trkpt lat="47.26683" lon="-1.65866">
        <ele>35.7</ele>
        <time>2020-06-07T12:23:16Z</time>
      </trkpt>
      <trkpt lat="47.26682" lon="-1.65867">
        <ele>35.7</ele>
        <time>2020-06-07T12:23:17Z</time>
      </trkpt>
      <trkpt lat="47.26682" lon="-1.65867">
        <ele>35.7</ele>
        <time>2020-06-07T12:23:18Z</time>
      </trkpt>
      <trkpt lat="47.2668" lon="-1.65866">
        <ele>35.7</ele>
        <time>2020-06-07T12:23:19Z</time>
      </trkpt>
      <trkpt lat="47.26678" lon="-1.65866">
        <ele>35.6</ele>
        <time>2020-06-07T12:23:20Z</time>
      </trkpt>
      <trkpt lat="47.26677" lon="-1.65866">
        <ele>35.6</ele>
        <time>2020-06-07T12:23:21Z</time>
      </trkpt>
      <trkpt lat="47.26677" lon="-1.65865">
        <ele>35.6</ele>
        <time>2020-06-07T12:23:22Z</time>
      </trkpt>
      <trkpt lat="47.26676" lon="-1.65865">
        <ele>35.6</ele>
        <time>2020-06-07T12:23:23Z</time>
      </trkpt>
      <trkpt lat="47.26675" lon="-1.65864">
        <ele>35.6</ele>
        <time>2020-06-07T12:23:24Z</time>
      </trkpt>
      <trkpt lat="47.26675" lon="-1.65864">
        <ele>35.6</ele>
        <time>2020-06-07T12:23:25Z</time>
      </trkpt>
      <trkpt lat="47.26674" lon="-1.65863">
        <ele>35.5</ele>
        <time>2020-06-07T12:23:26Z</time>
      </trkpt>
      <trkpt lat="47.26674" lon="-1.65863">
        <ele>35.5</ele>
        <time>2020-06-07T12:23:27Z</time>
      </trkpt>
      <trkpt lat="47.26673" lon="-1.65863">
        <ele>35.5</ele>
        <time>2020-06-07T12:23:28Z</time>
      </trkpt>
      <trkpt lat="47.26672" lon="-1.65863">
        <ele>35.5</ele>
        <time>2020-06-07T12:23:29Z</time>
      </trkpt>
      <trkpt lat="47.26671" lon="-1.65862">
        <ele>35.5</ele>
        <time>2020-06-07T12:23:30Z</time>
      </trkpt>
      <trkpt lat="47.26669" lon="-1.65861">
        <ele>35.4</ele>
        <time>2020-06-07T12:23:31Z</time>
      </trkpt>
      <trkpt lat="47.26668" lon="-1.65859">
        <ele>35.4</ele>
        <time>2020-06-07T12:23:32Z</time>
      </trkpt>
      <trkpt lat="47.26665" lon="-1.65859">
        <ele>35.4</ele>
        <time>2020-06-07T12:23:33Z</time>
      </trkpt>
      <trkpt lat="47.26664" lon="-1.65859">
        <ele>35.3</ele>
        <time>2020-06-07T12:23:34Z</time>
      </trkpt>
      <trkpt lat="47.26661" lon="-1.65861">
        <ele>35.3</ele>
        <time>2020-06-07T12:23:35Z</time>
      </trkpt>
      <trkpt lat="47.2666" lon="-1.65861">
        <ele>35.2</ele>
        <time>2020-06-07T12:23:36Z</time>
      </trkpt>
      <trkpt lat="47.26657" lon="-1.65863">
        <ele>35.2</ele>
        <time>2020-06-07T12:23:37Z</time>
      </trkpt>
      <trkpt lat="47.26657" lon="-1.65864">
        <ele>35.2</ele>
        <time>2020-06-07T12:23:38Z</time>
      </trkpt>
      <trkpt lat="47.26655" lon="-1.65864">
        <ele>35.2</ele>
        <time>2020-06-07T12:23:39Z</time>
      </trkpt>
      <trkpt lat="47.26655" lon="-1.65864">
        <ele>35.1</ele>
        <time>2020-06-07T12:23:40Z</time>
      </trkpt>
      <trkpt lat="47.26654" lon="-1.65864">
        <ele>35.1</ele>
        <time>2020-06-07T12:23:41Z</time>
      </trkpt>
      <trkpt lat="47.26654" lon="-1.65863">
        <ele>35.1</ele>
        <time>2020-06-07T12:23:42Z</time>
      </trkpt>
      <trkpt lat="47.26654" lon="-1.65862">
        <ele>35.1</ele>
        <time>2020-06-07T12:23:43Z</time>
      </trkpt>
      <trkpt lat="47.26654" lon="-1.65861">
        <ele>35.1</ele>
        <time>2020-06-07T12:23:44Z</time>
      </trkpt>
      <trkpt lat="47.26654" lon="-1.65861">
        <ele>35.1</ele>
        <time>2020-06-07T12:23:45Z</time>
      </trkpt>
      <trkpt lat="47.26653" lon="-1.6586">
        <ele>35.1</ele>
        <time>2020-06-07T12:23:46Z</time>
      </trkpt>
      <trkpt lat="47.26652" lon="-1.65861">
        <ele>35.1</ele>
        <time>2020-06-07T12:23:47Z</time>
      </trkpt>
      <trkpt lat="47.26651" lon="-1.65861">
        <ele>35.1</ele>
        <time>2020-06-07T12:23:48Z</time>
      </trkpt>
      <trkpt lat="47.2665" lon="-1.65862">
        <ele>35.1</ele>
        <time>2020-06-07T12:23:49Z</time>
      </trkpt>
      <trkpt lat="47.26649" lon="-1.65862">
        <ele>35</ele>
        <time>2020-06-07T12:23:50Z</time>
      </trkpt>
      <trkpt lat="47.26648" lon="-1.65862">
        <ele>35</ele>
        <time>2020-06-07T12:23:51Z</time>
      </trkpt>
      <trkpt lat="47.26646" lon="-1.65863">
        <ele>35</ele>
        <time>2020-06-07T12:23:52Z</time>
      </trkpt>
      <trkpt lat="47.26646" lon="-1.65864">
        <ele>35</ele>
        <time>2020-06-07T12:23:53Z</time>
      </trkpt>
      <trkpt lat="47.26645" lon="-1.65864">
        <ele>35</ele>
        <time>2020-06-07T12:23:54Z</time>
      </trkpt>
      <trkpt lat="47.26645" lon="-1.65864">
        <ele>35</ele>
        <time>2020-06-07T12:23:55Z</time>
      </trkpt>
      <trkpt lat="47.26644" lon="-1.65865">
        <ele>35</ele>
        <time>2020-06-07T12:23:56Z</time>
      </trkpt>
      <trkpt lat="47.26642" lon="-1.65865">
        <ele>35</ele>
        <time>2020-06-07T12:23:57Z</time>
      </trkpt>
      <trkpt lat="47.26641" lon="-1.65865">
        <ele>34.9</ele>
        <time>2020-06-07T12:23:58Z</time>
      </trkpt>
      <trkpt lat="47.2664" lon="-1.65865">
        <ele>34.9</ele>
        <time>2020-06-07T12:23:59Z</time>
      </trkpt>
      <trkpt lat="47.26639" lon="-1.65865">
        <ele>34.9</ele>
        <time>2020-06-07T12:24:00Z</time>
      </trkpt>
      <trkpt lat="47.26638" lon="-1.65865">
        <ele>34.9</ele>
        <time>2020-06-07T12:24:01Z</time>
      </trkpt>
      <trkpt lat="47.26638" lon="-1.65865">
        <ele>34.9</ele>
        <time>2020-06-07T12:24:02Z</time>
      </trkpt>
      <trkpt lat="47.26637" lon="-1.65864">
        <ele>34.8</ele>
        <time>2020-06-07T12:24:03Z</time>
      </trkpt>
      <trkpt lat="47.26636" lon="-1.65863">
        <ele>34.8</ele>
        <time>2020-06-07T12:24:04Z</time>
      </trkpt>
      <trkpt lat="47.26636" lon="-1.65862">
        <ele>34.8</ele>
        <time>2020-06-07T12:24:05Z</time>
      </trkpt>
      <trkpt lat="47.26636" lon="-1.65861">
        <ele>34.8</ele>
        <time>2020-06-07T12:24:06Z</time>
      </trkpt>
      <trkpt lat="47.26635" lon="-1.6586">
        <ele>34.8</ele>
        <time>2020-06-07T12:24:07Z</time>
      </trkpt>
      <trkpt lat="47.26635" lon="-1.65857">
        <ele>34.7</ele>
        <time>2020-06-07T12:24:08Z</time>
      </trkpt>
      <trkpt lat="47.26634" lon="-1.65855">
        <ele>34.7</ele>
        <time>2020-06-07T12:24:09Z</time>
      </trkpt>
      <trkpt lat="47.26633" lon="-1.65855">
        <ele>34.6</ele>
        <time>2020-06-07T12:24:10Z</time>
      </trkpt>
      <trkpt lat="47.26632" lon="-1.65854">
        <ele>34.6</ele>
        <time>2020-06-07T12:24:11Z</time>
      </trkpt>
      <trkpt lat="47.26631" lon="-1.65854">
        <ele>34.6</ele>
        <time>2020-06-07T12:24:12Z</time>
      </trkpt>
      <trkpt lat="47.26631" lon="-1.65853">
        <ele>34.5</ele>
        <time>2020-06-07T12:24:13Z</time>
      </trkpt>
      <trkpt lat="47.2663" lon="-1.65852">
        <ele>34.5</ele>
        <time>2020-06-07T12:24:14Z</time>
      </trkpt>
      <trkpt lat="47.26628" lon="-1.65852">
        <ele>34.4</ele>
        <time>2020-06-07T12:24:15Z</time>
      </trkpt>
      <trkpt lat="47.26627" lon="-1.65852">
        <ele>34.4</ele>
        <time>2020-06-07T12:24:16Z</time>
      </trkpt>
      <trkpt lat="47.26626" lon="-1.65852">
        <ele>34.3</ele>
        <time>2020-06-07T12:24:17Z</time>
      </trkpt>
      <trkpt lat="47.26625" lon="-1.65851">
        <ele>34.3</ele>
        <time>2020-06-07T12:24:18Z</time>
      </trkpt>
      <trkpt lat="47.26624" lon="-1.65851">
        <ele>34.2</ele>
        <time>2020-06-07T12:24:19Z</time>
      </trkpt>
      <trkpt lat="47.26623" lon="-1.65851">
        <ele>34.2</ele>
        <time>2020-06-07T12:24:20Z</time>
      </trkpt>
      <trkpt lat="47.26622" lon="-1.65851">
        <ele>34.1</ele>
        <time>2020-06-07T12:24:21Z</time>
      </trkpt>
      <trkpt lat="47.2662" lon="-1.65851">
        <ele>34</ele>
        <time>2020-06-07T12:24:22Z</time>
      </trkpt>
      <trkpt lat="47.26618" lon="-1.65851">
        <ele>33.9</ele>
        <time>2020-06-07T12:24:23Z</time>
      </trkpt>
      <trkpt lat="47.26617" lon="-1.65851">
        <ele>33.9</ele>
        <time>2020-06-07T12:24:24Z</time>
      </trkpt>
      <trkpt lat="47.26616" lon="-1.65851">
        <ele>33.9</ele>
        <time>2020-06-07T12:24:25Z</time>
      </trkpt>
      <trkpt lat="47.26615" lon="-1.65851">
        <ele>33.8</ele>
        <time>2020-06-07T12:24:26Z</time>
      </trkpt>
      <trkpt lat="47.26614" lon="-1.65851">
        <ele>33.8</ele>
        <time>2020-06-07T12:24:27Z</time>
      </trkpt>
      <trkpt lat="47.26613" lon="-1.65851">
        <ele>33.7</ele>
        <time>2020-06-07T12:24:28Z</time>
      </trkpt>
      <trkpt lat="47.26612" lon="-1.65851">
        <ele>33.7</ele>
        <time>2020-06-07T12:24:29Z</time>
      </trkpt>
      <trkpt lat="47.26611" lon="-1.65851">
        <ele>33.7</ele>
        <time>2020-06-07T12:24:30Z</time>
      </trkpt>
      <trkpt lat="47.26611" lon="-1.65851">
        <ele>33.7</ele>
        <time>2020-06-07T12:24:31Z</time>
      </trkpt>
      <trkpt lat="47.26611" lon="-1.65852">
        <ele>33.6</ele>
        <time>2020-06-07T12:24:32Z</time>
      </trkpt>
      <trkpt lat="47.2661" lon="-1.65852">
        <ele>33.6</ele>
        <time>2020-06-07T12:24:33Z</time>
      </trkpt>
      <trkpt lat="47.2661" lon="-1.65853">
        <ele>33.6</ele>
        <time>2020-06-07T12:24:34Z</time>
      </trkpt>
      <trkpt lat="47.26609" lon="-1.65853">
        <ele>33.6</ele>
        <time>2020-06-07T12:24:35Z</time>
      </trkpt>
      <trkpt lat="47.26609" lon="-1.65854">
        <ele>33.6</ele>
        <time>2020-06-07T12:24:36Z</time>
      </trkpt>
      <trkpt lat="47.26608" lon="-1.65854">
        <ele>33.5</ele>
        <time>2020-06-07T12:24:37Z</time>
      </trkpt>
      <trkpt lat="47.26608" lon="-1.65854">
        <ele>33.5</ele>
        <time>2020-06-07T12:24:38Z</time>
      </trkpt>
      <trkpt lat="47.26608" lon="-1.65855">
        <ele>33.5</ele>
        <time>2020-06-07T12:24:39Z</time>
      </trkpt>
      <trkpt lat="47.26608" lon="-1.65855">
        <ele>33.5</ele>
        <time>2020-06-07T12:24:40Z</time>
      </trkpt>
      <trkpt lat="47.26608" lon="-1.65855">
        <ele>33.5</ele>
        <time>2020-06-07T12:24:41Z</time>
      </trkpt>
      <trkpt lat="47.26609" lon="-1.65855">
        <ele>33.5</ele>
        <time>2020-06-07T12:24:42Z</time>
      </trkpt>
      <trkpt lat="47.26609" lon="-1.65856">
        <ele>33.5</ele>
        <time>2020-06-07T12:24:43Z</time>
      </trkpt>
      <trkpt lat="47.26609" lon="-1.65856">
        <ele>33.5</ele>
        <time>2020-06-07T12:24:44Z</time>
      </trkpt>
      <trkpt lat="47.26608" lon="-1.65857">
        <ele>33.5</ele>
        <time>2020-06-07T12:24:45Z</time>
      </trkpt>
      <trkpt lat="47.26608" lon="-1.65857">
        <ele>33.4</ele>
        <time>2020-06-07T12:24:46Z</time>
      </trkpt>
      <trkpt lat="47.26608" lon="-1.65857">
        <ele>33.4</ele>
        <time>2020-06-07T12:24:47Z</time>
      </trkpt>
      <trkpt lat="47.26608" lon="-1.65857">
        <ele>33.4</ele>
        <time>2020-06-07T12:24:48Z</time>
      </trkpt>
      <trkpt lat="47.26608" lon="-1.65857">
        <ele>33.4</ele>
        <time>2020-06-07T12:24:49Z</time>
      </trkpt>
      <trkpt lat="47.26607" lon="-1.65858">
        <ele>33.4</ele>
        <time>2020-06-07T12:24:50Z</time>
      </trkpt>
      <trkpt lat="47.26607" lon="-1.65858">
        <ele>33.4</ele>
        <time>2020-06-07T12:24:51Z</time>
      </trkpt>
      <trkpt lat="47.26607" lon="-1.65858">
        <ele>33.4</ele>
        <time>2020-06-07T12:24:52Z</time>
      </trkpt>
      <trkpt lat="47.26607" lon="-1.65858">
        <ele>33.4</ele>
        <time>2020-06-07T12:24:53Z</time>
      </trkpt>
      <trkpt lat="47.26607" lon="-1.65858">
        <ele>33.4</ele>
        <time>2020-06-07T12:24:54Z</time>
      </trkpt>
      <trkpt lat="47.26607" lon="-1.65858">
        <ele>33.4</ele>
        <time>2020-06-07T12:24:55Z</time>
      </trkpt>
      <trkpt lat="47.26607" lon="-1.65858">
        <ele>33.4</ele>
        <time>2020-06-07T12:24:56Z</time>
      </trkpt>
      <trkpt lat="47.26613" lon="-1.6585">
        <ele>33.3</ele>
        <time>2020-06-07T12:25:55Z</time>
      </trkpt>
      <trkpt lat="47.26612" lon="-1.65849">
        <ele>33.3</ele>
        <time>2020-06-07T12:25:56Z</time>
      </trkpt>
      <trkpt lat="47.26612" lon="-1.65848">
        <ele>33.3</ele>
        <time>2020-06-07T12:25:57Z</time>
      </trkpt>
      <trkpt lat="47.26611" lon="-1.65848">
        <ele>33.3</ele>
        <time>2020-06-07T12:25:58Z</time>
      </trkpt>
      <trkpt lat="47.2661" lon="-1.65847">
        <ele>33.2</ele>
        <time>2020-06-07T12:25:59Z</time>
      </trkpt>
      <trkpt lat="47.2661" lon="-1.65847">
        <ele>33.2</ele>
        <time>2020-06-07T12:26:00Z</time>
      </trkpt>
      <trkpt lat="47.26609" lon="-1.65847">
        <ele>33.2</ele>
        <time>2020-06-07T12:26:01Z</time>
      </trkpt>
      <trkpt lat="47.26608" lon="-1.65847">
        <ele>33.2</ele>
        <time>2020-06-07T12:26:02Z</time>
      </trkpt>
      <trkpt lat="47.26606" lon="-1.65847">
        <ele>33.2</ele>
        <time>2020-06-07T12:26:03Z</time>
      </trkpt>
      <trkpt lat="47.26605" lon="-1.65846">
        <ele>33.2</ele>
        <time>2020-06-07T12:26:04Z</time>
      </trkpt>
      <trkpt lat="47.26604" lon="-1.65846">
        <ele>33.2</ele>
        <time>2020-06-07T12:26:05Z</time>
      </trkpt>
      <trkpt lat="47.26603" lon="-1.65845">
        <ele>33.2</ele>
        <time>2020-06-07T12:26:06Z</time>
      </trkpt>
      <trkpt lat="47.26602" lon="-1.65844">
        <ele>33.2</ele>
        <time>2020-06-07T12:26:07Z</time>
      </trkpt>
      <trkpt lat="47.266" lon="-1.65844">
        <ele>33.2</ele>
        <time>2020-06-07T12:26:08Z</time>
      </trkpt>
      <trkpt lat="47.26599" lon="-1.65844">
        <ele>33.2</ele>
        <time>2020-06-07T12:26:09Z</time>
      </trkpt>
      <trkpt lat="47.26597" lon="-1.65844">
        <ele>33.2</ele>
        <time>2020-06-07T12:26:10Z</time>
      </trkpt>
      <trkpt lat="47.26596" lon="-1.65844">
        <ele>33.2</ele>
        <time>2020-06-07T12:26:11Z</time>
      </trkpt>
      <trkpt lat="47.26594" lon="-1.65844">
        <ele>33.2</ele>
        <time>2020-06-07T12:26:12Z</time>
      </trkpt>
      <trkpt lat="47.26593" lon="-1.65844">
        <ele>33.2</ele>
        <time>2020-06-07T12:26:13Z</time>
      </trkpt>
      <trkpt lat="47.26592" lon="-1.65844">
        <ele>33.2</ele>
        <time>2020-06-07T12:26:14Z</time>
      </trkpt>
      <trkpt lat="47.26591" lon="-1.65845">
        <ele>33.2</ele>
        <time>2020-06-07T12:26:15Z</time>
      </trkpt>
      <trkpt lat="47.2659" lon="-1.65845">
        <ele>33.2</ele>
        <time>2020-06-07T12:26:16Z</time>
      </trkpt>
      <trkpt lat="47.2659" lon="-1.65846">
        <ele>33.2</ele>
        <time>2020-06-07T12:26:17Z</time>
      </trkpt>
      <trkpt lat="47.26589" lon="-1.65846">
        <ele>33.2</ele>
        <time>2020-06-07T12:26:18Z</time>
      </trkpt>
      <trkpt lat="47.26589" lon="-1.65847">
        <ele>33.3</ele>
        <time>2020-06-07T12:26:19Z</time>
      </trkpt>
      <trkpt lat="47.26589" lon="-1.65847">
        <ele>33.3</ele>
        <time>2020-06-07T12:26:20Z</time>
      </trkpt>
      <trkpt lat="47.26589" lon="-1.65847">
        <ele>33.3</ele>
        <time>2020-06-07T12:26:21Z</time>
      </trkpt>
      <trkpt lat="47.26589" lon="-1.65847">
        <ele>33.3</ele>
        <time>2020-06-07T12:26:22Z</time>
      </trkpt>
      <trkpt lat="47.26589" lon="-1.65848">
        <ele>33.3</ele>
        <time>2020-06-07T12:26:23Z</time>
      </trkpt>
      <trkpt lat="47.26588" lon="-1.65849">
        <ele>33.3</ele>
        <time>2020-06-07T12:26:24Z</time>
      </trkpt>
      <trkpt lat="47.26587" lon="-1.6585">
        <ele>33.3</ele>
        <time>2020-06-07T12:26:25Z</time>
      </trkpt>
      <trkpt lat="47.26587" lon="-1.65851">
        <ele>33.3</ele>
        <time>2020-06-07T12:26:26Z</time>
      </trkpt>
      <trkpt lat="47.26585" lon="-1.65852">
        <ele>33.3</ele>
        <time>2020-06-07T12:26:27Z</time>
      </trkpt>
      <trkpt lat="47.26584" lon="-1.65852">
        <ele>33.3</ele>
        <time>2020-06-07T12:26:28Z</time>
      </trkpt>
      <trkpt lat="47.26583" lon="-1.65853">
        <ele>33.3</ele>
        <time>2020-06-07T12:26:29Z</time>
      </trkpt>
      <trkpt lat="47.26582" lon="-1.65853">
        <ele>33.3</ele>
        <time>2020-06-07T12:26:30Z</time>
      </trkpt>
      <trkpt lat="47.26581" lon="-1.65853">
        <ele>33.3</ele>
        <time>2020-06-07T12:26:31Z</time>
      </trkpt>
      <trkpt lat="47.2658" lon="-1.65854">
        <ele>33.3</ele>
        <time>2020-06-07T12:26:32Z</time>
      </trkpt>
      <trkpt lat="47.26578" lon="-1.65854">
        <ele>33.4</ele>
        <time>2020-06-07T12:26:33Z</time>
      </trkpt>
      <trkpt lat="47.26577" lon="-1.65854">
        <ele>33.4</ele>
        <time>2020-06-07T12:26:34Z</time>
      </trkpt>
      <trkpt lat="47.26577" lon="-1.65854">
        <ele>33.4</ele>
        <time>2020-06-07T12:26:35Z</time>
      </trkpt>
      <trkpt lat="47.26576" lon="-1.65855">
        <ele>33.4</ele>
        <time>2020-06-07T12:26:36Z</time>
      </trkpt>
      <trkpt lat="47.26575" lon="-1.65855">
        <ele>33.4</ele>
        <time>2020-06-07T12:26:37Z</time>
      </trkpt>
      <trkpt lat="47.26575" lon="-1.65855">
        <ele>33.4</ele>
        <time>2020-06-07T12:26:38Z</time>
      </trkpt>
      <trkpt lat="47.26574" lon="-1.65855">
        <ele>33.4</ele>
        <time>2020-06-07T12:26:39Z</time>
      </trkpt>
      <trkpt lat="47.26574" lon="-1.65855">
        <ele>33.4</ele>
        <time>2020-06-07T12:26:40Z</time>
      </trkpt>
      <trkpt lat="47.26574" lon="-1.65855">
        <ele>33.4</ele>
        <time>2020-06-07T12:26:41Z</time>
      </trkpt>
      <trkpt lat="47.26574" lon="-1.65856">
        <ele>33.4</ele>
        <time>2020-06-07T12:26:42Z</time>
      </trkpt>
      <trkpt lat="47.26574" lon="-1.65856">
        <ele>33.4</ele>
        <time>2020-06-07T12:26:43Z</time>
      </trkpt>
      <trkpt lat="47.26574" lon="-1.65856">
        <ele>33.4</ele>
        <time>2020-06-07T12:26:44Z</time>
      </trkpt>
      <trkpt lat="47.26573" lon="-1.65856">
        <ele>33.4</ele>
        <time>2020-06-07T12:26:45Z</time>
      </trkpt>
      <trkpt lat="47.26572" lon="-1.65856">
        <ele>33.4</ele>
        <time>2020-06-07T12:26:46Z</time>
      </trkpt>
      <trkpt lat="47.26572" lon="-1.65856">
        <ele>33.4</ele>
        <time>2020-06-07T12:26:47Z</time>
      </trkpt>
      <trkpt lat="47.26573" lon="-1.65856">
        <ele>33.4</ele>
        <time>2020-06-07T12:26:48Z</time>
      </trkpt>
      <trkpt lat="47.26573" lon="-1.65855">
        <ele>33.4</ele>
        <time>2020-06-07T12:26:49Z</time>
      </trkpt>
      <trkpt lat="47.26573" lon="-1.65855">
        <ele>33.4</ele>
        <time>2020-06-07T12:26:50Z</time>
      </trkpt>
      <trkpt lat="47.26574" lon="-1.65854">
        <ele>33.4</ele>
        <time>2020-06-07T12:26:51Z</time>
      </trkpt>
      <trkpt lat="47.26574" lon="-1.65854">
        <ele>33.4</ele>
        <time>2020-06-07T12:26:52Z</time>
      </trkpt>
      <trkpt lat="47.26574" lon="-1.65854">
        <ele>33.4</ele>
        <time>2020-06-07T12:26:53Z</time>
      </trkpt>
      <trkpt lat="47.26575" lon="-1.65853">
        <ele>33.4</ele>
        <time>2020-06-07T12:26:54Z</time>
      </trkpt>
      <trkpt lat="47.26575" lon="-1.65853">
        <ele>33.4</ele>
        <time>2020-06-07T12:26:55Z</time>
      </trkpt>
      <trkpt lat="47.26576" lon="-1.65852">
        <ele>33.4</ele>
        <time>2020-06-07T12:26:56Z</time>
      </trkpt>
      <trkpt lat="47.26576" lon="-1.65852">
        <ele>33.5</ele>
        <time>2020-06-07T12:26:57Z</time>
      </trkpt>
      <trkpt lat="47.26576" lon="-1.65851">
        <ele>33.5</ele>
        <time>2020-06-07T12:26:58Z</time>
      </trkpt>
      <trkpt lat="47.26576" lon="-1.6585">
        <ele>33.5</ele>
        <time>2020-06-07T12:26:59Z</time>
      </trkpt>
      <trkpt lat="47.26576" lon="-1.65849">
        <ele>33.5</ele>
        <time>2020-06-07T12:27:00Z</time>
      </trkpt>
      <trkpt lat="47.26576" lon="-1.65849">
        <ele>33.5</ele>
        <time>2020-06-07T12:27:01Z</time>
      </trkpt>
      <trkpt lat="47.26576" lon="-1.6585">
        <ele>33.5</ele>
        <time>2020-06-07T12:27:02Z</time>
      </trkpt>
      <trkpt lat="47.26576" lon="-1.65851">
        <ele>33.5</ele>
        <time>2020-06-07T12:27:03Z</time>
      </trkpt>
      <trkpt lat="47.26576" lon="-1.65851">
        <ele>33.5</ele>
        <time>2020-06-07T12:27:04Z</time>
      </trkpt>
      <trkpt lat="47.26574" lon="-1.65852">
        <ele>33.5</ele>
        <time>2020-06-07T12:27:05Z</time>
      </trkpt>
      <trkpt lat="47.26573" lon="-1.65853">
        <ele>33.5</ele>
        <time>2020-06-07T12:27:06Z</time>
      </trkpt>
      <trkpt lat="47.26573" lon="-1.65853">
        <ele>33.5</ele>
        <time>2020-06-07T12:27:07Z</time>
      </trkpt>
      <trkpt lat="47.26572" lon="-1.65854">
        <ele>33.5</ele>
        <time>2020-06-07T12:27:08Z</time>
      </trkpt>
      <trkpt lat="47.26571" lon="-1.65855">
        <ele>33.5</ele>
        <time>2020-06-07T12:27:09Z</time>
      </trkpt>
      <trkpt lat="47.26571" lon="-1.65855">
        <ele>33.5</ele>
        <time>2020-06-07T12:27:10Z</time>
      </trkpt>
      <trkpt lat="47.2657" lon="-1.65856">
        <ele>33.6</ele>
        <time>2020-06-07T12:27:11Z</time>
      </trkpt>
      <trkpt lat="47.2657" lon="-1.65856">
        <ele>33.6</ele>
        <time>2020-06-07T12:27:12Z</time>
      </trkpt>
      <trkpt lat="47.26569" lon="-1.65857">
        <ele>33.6</ele>
        <time>2020-06-07T12:27:13Z</time>
      </trkpt>
      <trkpt lat="47.26568" lon="-1.65857">
        <ele>33.6</ele>
        <time>2020-06-07T12:27:14Z</time>
      </trkpt>
      <trkpt lat="47.26567" lon="-1.65858">
        <ele>33.6</ele>
        <time>2020-06-07T12:27:15Z</time>
      </trkpt>
      <trkpt lat="47.26567" lon="-1.65858">
        <ele>33.6</ele>
        <time>2020-06-07T12:27:16Z</time>
      </trkpt>
      <trkpt lat="47.26567" lon="-1.65858">
        <ele>33.6</ele>
        <time>2020-06-07T12:27:17Z</time>
      </trkpt>
      <trkpt lat="47.26567" lon="-1.65858">
        <ele>33.6</ele>
        <time>2020-06-07T12:27:18Z</time>
      </trkpt>
      <trkpt lat="47.26567" lon="-1.65859">
        <ele>33.6</ele>
        <time>2020-06-07T12:27:19Z</time>
      </trkpt>
      <trkpt lat="47.26567" lon="-1.65859">
        <ele>33.6</ele>
        <time>2020-06-07T12:27:20Z</time>
      </trkpt>
      <trkpt lat="47.26567" lon="-1.6586">
        <ele>33.6</ele>
        <time>2020-06-07T12:27:21Z</time>
      </trkpt>
      <trkpt lat="47.26568" lon="-1.6586">
        <ele>33.6</ele>
        <time>2020-06-07T12:27:22Z</time>
      </trkpt>
      <trkpt lat="47.26568" lon="-1.65861">
        <ele>33.6</ele>
        <time>2020-06-07T12:27:23Z</time>
      </trkpt>
      <trkpt lat="47.26567" lon="-1.65862">
        <ele>33.7</ele>
        <time>2020-06-07T12:27:24Z</time>
      </trkpt>
      <trkpt lat="47.26566" lon="-1.65863">
        <ele>33.7</ele>
        <time>2020-06-07T12:27:25Z</time>
      </trkpt>
      <trkpt lat="47.26566" lon="-1.65864">
        <ele>33.7</ele>
        <time>2020-06-07T12:27:26Z</time>
      </trkpt>
      <trkpt lat="47.26566" lon="-1.65865">
        <ele>33.7</ele>
        <time>2020-06-07T12:27:27Z</time>
      </trkpt>
      <trkpt lat="47.26565" lon="-1.65866">
        <ele>33.7</ele>
        <time>2020-06-07T12:27:28Z</time>
      </trkpt>
      <trkpt lat="47.26566" lon="-1.65867">
        <ele>33.7</ele>
        <time>2020-06-07T12:27:29Z</time>
      </trkpt>
      <trkpt lat="47.26566" lon="-1.65868">
        <ele>33.8</ele>
        <time>2020-06-07T12:27:30Z</time>
      </trkpt>
      <trkpt lat="47.26565" lon="-1.65869">
        <ele>33.8</ele>
        <time>2020-06-07T12:27:31Z</time>
      </trkpt>
      <trkpt lat="47.26565" lon="-1.65871">
        <ele>33.8</ele>
        <time>2020-06-07T12:27:32Z</time>
      </trkpt>
      <trkpt lat="47.26565" lon="-1.65872">
        <ele>33.8</ele>
        <time>2020-06-07T12:27:33Z</time>
      </trkpt>
      <trkpt lat="47.26565" lon="-1.65873">
        <ele>33.8</ele>
        <time>2020-06-07T12:27:34Z</time>
      </trkpt>
      <trkpt lat="47.26566" lon="-1.65874">
        <ele>33.8</ele>
        <time>2020-06-07T12:27:35Z</time>
      </trkpt>
      <trkpt lat="47.26566" lon="-1.65875">
        <ele>33.9</ele>
        <time>2020-06-07T12:27:36Z</time>
      </trkpt>
      <trkpt lat="47.26566" lon="-1.65876">
        <ele>33.9</ele>
        <time>2020-06-07T12:27:37Z</time>
      </trkpt>
      <trkpt lat="47.26565" lon="-1.65877">
        <ele>33.9</ele>
        <time>2020-06-07T12:27:38Z</time>
      </trkpt>
      <trkpt lat="47.26564" lon="-1.65878">
        <ele>33.9</ele>
        <time>2020-06-07T12:27:39Z</time>
      </trkpt>
      <trkpt lat="47.26564" lon="-1.65878">
        <ele>33.9</ele>
        <time>2020-06-07T12:27:40Z</time>
      </trkpt>
      <trkpt lat="47.26563" lon="-1.65879">
        <ele>33.9</ele>
        <time>2020-06-07T12:27:41Z</time>
      </trkpt>
      <trkpt lat="47.26563" lon="-1.6588">
        <ele>34</ele>
        <time>2020-06-07T12:27:42Z</time>
      </trkpt>
      <trkpt lat="47.26563" lon="-1.65881">
        <ele>34</ele>
        <time>2020-06-07T12:27:43Z</time>
      </trkpt>
      <trkpt lat="47.26564" lon="-1.65883">
        <ele>34</ele>
        <time>2020-06-07T12:27:44Z</time>
      </trkpt>
      <trkpt lat="47.26564" lon="-1.65884">
        <ele>34</ele>
        <time>2020-06-07T12:27:45Z</time>
      </trkpt>
      <trkpt lat="47.26565" lon="-1.65885">
        <ele>34.1</ele>
        <time>2020-06-07T12:27:46Z</time>
      </trkpt>
      <trkpt lat="47.26566" lon="-1.65886">
        <ele>34.1</ele>
        <time>2020-06-07T12:27:47Z</time>
      </trkpt>
      <trkpt lat="47.26566" lon="-1.65887">
        <ele>34.1</ele>
        <time>2020-06-07T12:27:48Z</time>
      </trkpt>
      <trkpt lat="47.26567" lon="-1.65888">
        <ele>34.1</ele>
        <time>2020-06-07T12:27:49Z</time>
      </trkpt>
      <trkpt lat="47.26568" lon="-1.6589">
        <ele>34.2</ele>
        <time>2020-06-07T12:27:50Z</time>
      </trkpt>
      <trkpt lat="47.26568" lon="-1.65891">
        <ele>34.2</ele>
        <time>2020-06-07T12:27:51Z</time>
      </trkpt>
      <trkpt lat="47.26569" lon="-1.65891">
        <ele>34.2</ele>
        <time>2020-06-07T12:27:52Z</time>
      </trkpt>
      <trkpt lat="47.26569" lon="-1.65892">
        <ele>34.2</ele>
        <time>2020-06-07T12:27:53Z</time>
      </trkpt>
      <trkpt lat="47.26569" lon="-1.65893">
        <ele>34.2</ele>
        <time>2020-06-07T12:27:54Z</time>
      </trkpt>
      <trkpt lat="47.26569" lon="-1.65894">
        <ele>34.2</ele>
        <time>2020-06-07T12:27:55Z</time>
      </trkpt>
      <trkpt lat="47.26569" lon="-1.65895">
        <ele>34.3</ele>
        <time>2020-06-07T12:27:56Z</time>
      </trkpt>
      <trkpt lat="47.26569" lon="-1.65895">
        <ele>34.3</ele>
        <time>2020-06-07T12:27:57Z</time>
      </trkpt>
      <trkpt lat="47.26569" lon="-1.65895">
        <ele>34.3</ele>
        <time>2020-06-07T12:27:58Z</time>
      </trkpt>
      <trkpt lat="47.26569" lon="-1.65896">
        <ele>34.3</ele>
        <time>2020-06-07T12:27:59Z</time>
      </trkpt>
      <trkpt lat="47.26569" lon="-1.65897">
        <ele>34.3</ele>
        <time>2020-06-07T12:28:00Z</time>
      </trkpt>
      <trkpt lat="47.26569" lon="-1.65897">
        <ele>34.3</ele>
        <time>2020-06-07T12:28:01Z</time>
      </trkpt>
      <trkpt lat="47.26569" lon="-1.65898">
        <ele>34.3</ele>
        <time>2020-06-07T12:28:02Z</time>
      </trkpt>
      <trkpt lat="47.26569" lon="-1.65898">
        <ele>34.3</ele>
        <time>2020-06-07T12:28:03Z</time>
      </trkpt>
      <trkpt lat="47.26569" lon="-1.659">
        <ele>34.3</ele>
        <time>2020-06-07T12:28:04Z</time>
      </trkpt>
      <trkpt lat="47.26568" lon="-1.65901">
        <ele>34.4</ele>
        <time>2020-06-07T12:28:05Z</time>
      </trkpt>
      <trkpt lat="47.26568" lon="-1.65902">
        <ele>34.4</ele>
        <time>2020-06-07T12:28:06Z</time>
      </trkpt>
      <trkpt lat="47.26567" lon="-1.65903">
        <ele>34.4</ele>
        <time>2020-06-07T12:28:07Z</time>
      </trkpt>
      <trkpt lat="47.26566" lon="-1.65904">
        <ele>34.4</ele>
        <time>2020-06-07T12:28:08Z</time>
      </trkpt>
      <trkpt lat="47.26566" lon="-1.65904">
        <ele>34.4</ele>
        <time>2020-06-07T12:28:09Z</time>
      </trkpt>
      <trkpt lat="47.26565" lon="-1.65905">
        <ele>34.4</ele>
        <time>2020-06-07T12:28:10Z</time>
      </trkpt>
      <trkpt lat="47.26565" lon="-1.65905">
        <ele>34.4</ele>
        <time>2020-06-07T12:28:11Z</time>
      </trkpt>
      <trkpt lat="47.26565" lon="-1.65906">
        <ele>34.4</ele>
        <time>2020-06-07T12:28:12Z</time>
      </trkpt>
      <trkpt lat="47.26564" lon="-1.65906">
        <ele>34.5</ele>
        <time>2020-06-07T12:28:13Z</time>
      </trkpt>
      <trkpt lat="47.26564" lon="-1.65906">
        <ele>34.5</ele>
        <time>2020-06-07T12:28:14Z</time>
      </trkpt>
      <trkpt lat="47.26564" lon="-1.65907">
        <ele>34.5</ele>
        <time>2020-06-07T12:28:15Z</time>
      </trkpt>
      <trkpt lat="47.26563" lon="-1.65907">
        <ele>34.5</ele>
        <time>2020-06-07T12:28:16Z</time>
      </trkpt>
      <trkpt lat="47.26563" lon="-1.65907">
        <ele>34.5</ele>
        <time>2020-06-07T12:28:17Z</time>
      </trkpt>
      <trkpt lat="47.26562" lon="-1.65908">
        <ele>34.5</ele>
        <time>2020-06-07T12:28:18Z</time>
      </trkpt>
      <trkpt lat="47.2656" lon="-1.65909">
        <ele>34.5</ele>
        <time>2020-06-07T12:28:19Z</time>
      </trkpt>
      <trkpt lat="47.26559" lon="-1.6591">
        <ele>34.5</ele>
        <time>2020-06-07T12:28:20Z</time>
      </trkpt>
      <trkpt lat="47.26557" lon="-1.65911">
        <ele>34.5</ele>
        <time>2020-06-07T12:28:21Z</time>
      </trkpt>
      <trkpt lat="47.26556" lon="-1.65912">
        <ele>34.5</ele>
        <time>2020-06-07T12:28:22Z</time>
      </trkpt>
      <trkpt lat="47.26555" lon="-1.65913">
        <ele>34.5</ele>
        <time>2020-06-07T12:28:23Z</time>
      </trkpt>
      <trkpt lat="47.26554" lon="-1.65914">
        <ele>34.5</ele>
        <time>2020-06-07T12:28:24Z</time>
      </trkpt>
      <trkpt lat="47.26552" lon="-1.65915">
        <ele>34.5</ele>
        <time>2020-06-07T12:28:25Z</time>
      </trkpt>
      <trkpt lat="47.2655" lon="-1.65915">
        <ele>34.5</ele>
        <time>2020-06-07T12:28:26Z</time>
      </trkpt>
      <trkpt lat="47.26549" lon="-1.65915">
        <ele>34.5</ele>
        <time>2020-06-07T12:28:27Z</time>
      </trkpt>
      <trkpt lat="47.26548" lon="-1.65915">
        <ele>34.5</ele>
        <time>2020-06-07T12:28:28Z</time>
      </trkpt>
      <trkpt lat="47.26547" lon="-1.65915">
        <ele>34.5</ele>
        <time>2020-06-07T12:28:29Z</time>
      </trkpt>
      <trkpt lat="47.26547" lon="-1.65915">
        <ele>34.5</ele>
        <time>2020-06-07T12:28:30Z</time>
      </trkpt>
      <trkpt lat="47.26546" lon="-1.65915">
        <ele>34.5</ele>
        <time>2020-06-07T12:28:31Z</time>
      </trkpt>
      <trkpt lat="47.26546" lon="-1.65914">
        <ele>34.5</ele>
        <time>2020-06-07T12:28:32Z</time>
      </trkpt>
      <trkpt lat="47.26545" lon="-1.65914">
        <ele>34.5</ele>
        <time>2020-06-07T12:28:33Z</time>
      </trkpt>
      <trkpt lat="47.26544" lon="-1.65913">
        <ele>34.5</ele>
        <time>2020-06-07T12:28:34Z</time>
      </trkpt>
      <trkpt lat="47.26543" lon="-1.65913">
        <ele>34.5</ele>
        <time>2020-06-07T12:28:35Z</time>
      </trkpt>
      <trkpt lat="47.26542" lon="-1.65912">
        <ele>34.4</ele>
        <time>2020-06-07T12:28:36Z</time>
      </trkpt>
      <trkpt lat="47.26541" lon="-1.6591">
        <ele>34.4</ele>
        <time>2020-06-07T12:28:37Z</time>
      </trkpt>
      <trkpt lat="47.2654" lon="-1.65909">
        <ele>34.4</ele>
        <time>2020-06-07T12:28:38Z</time>
      </trkpt>
      <trkpt lat="47.26539" lon="-1.65908">
        <ele>34.4</ele>
        <time>2020-06-07T12:28:39Z</time>
      </trkpt>
      <trkpt lat="47.26539" lon="-1.65908">
        <ele>34.4</ele>
        <time>2020-06-07T12:28:40Z</time>
      </trkpt>
      <trkpt lat="47.26538" lon="-1.65908">
        <ele>34.3</ele>
        <time>2020-06-07T12:28:41Z</time>
      </trkpt>
      <trkpt lat="47.26536" lon="-1.65908">
        <ele>34.3</ele>
        <time>2020-06-07T12:28:42Z</time>
      </trkpt>
      <trkpt lat="47.26535" lon="-1.65908">
        <ele>34.3</ele>
        <time>2020-06-07T12:28:43Z</time>
      </trkpt>
      <trkpt lat="47.26534" lon="-1.65908">
        <ele>34.3</ele>
        <time>2020-06-07T12:28:44Z</time>
      </trkpt>
      <trkpt lat="47.26534" lon="-1.65908">
        <ele>34.3</ele>
        <time>2020-06-07T12:28:45Z</time>
      </trkpt>
      <trkpt lat="47.26533" lon="-1.65908">
        <ele>34.3</ele>
        <time>2020-06-07T12:28:46Z</time>
      </trkpt>
      <trkpt lat="47.26532" lon="-1.65908">
        <ele>34.2</ele>
        <time>2020-06-07T12:28:47Z</time>
      </trkpt>
      <trkpt lat="47.2653" lon="-1.65908">
        <ele>34.2</ele>
        <time>2020-06-07T12:28:48Z</time>
      </trkpt>
      <trkpt lat="47.26529" lon="-1.65908">
        <ele>34.2</ele>
        <time>2020-06-07T12:28:49Z</time>
      </trkpt>
      <trkpt lat="47.26528" lon="-1.65908">
        <ele>34.2</ele>
        <time>2020-06-07T12:28:50Z</time>
      </trkpt>
      <trkpt lat="47.26527" lon="-1.65908">
        <ele>34.2</ele>
        <time>2020-06-07T12:28:51Z</time>
      </trkpt>
      <trkpt lat="47.26527" lon="-1.65908">
        <ele>34.1</ele>
        <time>2020-06-07T12:28:52Z</time>
      </trkpt>
      <trkpt lat="47.26526" lon="-1.65907">
        <ele>34.1</ele>
        <time>2020-06-07T12:28:53Z</time>
      </trkpt>
      <trkpt lat="47.26526" lon="-1.65905">
        <ele>34.1</ele>
        <time>2020-06-07T12:28:54Z</time>
      </trkpt>
      <trkpt lat="47.26525" lon="-1.65905">
        <ele>34.1</ele>
        <time>2020-06-07T12:28:55Z</time>
      </trkpt>
      <trkpt lat="47.26525" lon="-1.65904">
        <ele>34.1</ele>
        <time>2020-06-07T12:28:56Z</time>
      </trkpt>
      <trkpt lat="47.26524" lon="-1.65904">
        <ele>34.1</ele>
        <time>2020-06-07T12:28:57Z</time>
      </trkpt>
      <trkpt lat="47.26523" lon="-1.65904">
        <ele>34.1</ele>
        <time>2020-06-07T12:28:58Z</time>
      </trkpt>
      <trkpt lat="47.26523" lon="-1.65904">
        <ele>34.1</ele>
        <time>2020-06-07T12:28:59Z</time>
      </trkpt>
      <trkpt lat="47.26521" lon="-1.65904">
        <ele>34.1</ele>
        <time>2020-06-07T12:29:00Z</time>
      </trkpt>
      <trkpt lat="47.2652" lon="-1.65904">
        <ele>34</ele>
        <time>2020-06-07T12:29:01Z</time>
      </trkpt>
      <trkpt lat="47.26519" lon="-1.65904">
        <ele>34</ele>
        <time>2020-06-07T12:29:02Z</time>
      </trkpt>
      <trkpt lat="47.26518" lon="-1.65903">
        <ele>34</ele>
        <time>2020-06-07T12:29:03Z</time>
      </trkpt>
      <trkpt lat="47.26517" lon="-1.65903">
        <ele>34</ele>
        <time>2020-06-07T12:29:04Z</time>
      </trkpt>
      <trkpt lat="47.26516" lon="-1.65903">
        <ele>34</ele>
        <time>2020-06-07T12:29:05Z</time>
      </trkpt>
      <trkpt lat="47.26516" lon="-1.65904">
        <ele>33.9</ele>
        <time>2020-06-07T12:29:06Z</time>
      </trkpt>
      <trkpt lat="47.26516" lon="-1.65903">
        <ele>33.9</ele>
        <time>2020-06-07T12:29:07Z</time>
      </trkpt>
      <trkpt lat="47.26516" lon="-1.65903">
        <ele>33.9</ele>
        <time>2020-06-07T12:29:08Z</time>
      </trkpt>
      <trkpt lat="47.26516" lon="-1.65903">
        <ele>33.9</ele>
        <time>2020-06-07T12:29:09Z</time>
      </trkpt>
      <trkpt lat="47.26515" lon="-1.65903">
        <ele>33.9</ele>
        <time>2020-06-07T12:29:10Z</time>
      </trkpt>
      <trkpt lat="47.26515" lon="-1.65903">
        <ele>33.9</ele>
        <time>2020-06-07T12:29:11Z</time>
      </trkpt>
      <trkpt lat="47.26515" lon="-1.65903">
        <ele>33.9</ele>
        <time>2020-06-07T12:29:12Z</time>
      </trkpt>
      <trkpt lat="47.26515" lon="-1.65903">
        <ele>33.9</ele>
        <time>2020-06-07T12:29:13Z</time>
      </trkpt>
      <trkpt lat="47.26515" lon="-1.65903">
        <ele>33.9</ele>
        <time>2020-06-07T12:29:14Z</time>
      </trkpt>
      <trkpt lat="47.26515" lon="-1.65901">
        <ele>33.9</ele>
        <time>2020-06-07T12:29:15Z</time>
      </trkpt>
      <trkpt lat="47.26516" lon="-1.659">
        <ele>33.9</ele>
        <time>2020-06-07T12:29:16Z</time>
      </trkpt>
      <trkpt lat="47.26517" lon="-1.65899">
        <ele>33.9</ele>
        <time>2020-06-07T12:29:17Z</time>
      </trkpt>
      <trkpt lat="47.26518" lon="-1.65898">
        <ele>33.9</ele>
        <time>2020-06-07T12:29:18Z</time>
      </trkpt>
      <trkpt lat="47.26518" lon="-1.65897">
        <ele>33.9</ele>
        <time>2020-06-07T12:29:19Z</time>
      </trkpt>
      <trkpt lat="47.26519" lon="-1.65895">
        <ele>33.9</ele>
        <time>2020-06-07T12:29:20Z</time>
      </trkpt>
      <trkpt lat="47.26519" lon="-1.65892">
        <ele>33.9</ele>
        <time>2020-06-07T12:29:21Z</time>
      </trkpt>
      <trkpt lat="47.26518" lon="-1.65891">
        <ele>33.9</ele>
        <time>2020-06-07T12:29:22Z</time>
      </trkpt>
      <trkpt lat="47.26518" lon="-1.65889">
        <ele>33.9</ele>
        <time>2020-06-07T12:29:23Z</time>
      </trkpt>
      <trkpt lat="47.26518" lon="-1.65888">
        <ele>33.9</ele>
        <time>2020-06-07T12:29:24Z</time>
      </trkpt>
      <trkpt lat="47.26518" lon="-1.65886">
        <ele>33.9</ele>
        <time>2020-06-07T12:29:25Z</time>
      </trkpt>
      <trkpt lat="47.26518" lon="-1.65884">
        <ele>33.9</ele>
        <time>2020-06-07T12:29:26Z</time>
      </trkpt>
      <trkpt lat="47.26519" lon="-1.65882">
        <ele>33.9</ele>
        <time>2020-06-07T12:29:27Z</time>
      </trkpt>
      <trkpt lat="47.26519" lon="-1.6588">
        <ele>33.9</ele>
        <time>2020-06-07T12:29:28Z</time>
      </trkpt>
      <trkpt lat="47.26519" lon="-1.65878">
        <ele>33.8</ele>
        <time>2020-06-07T12:29:29Z</time>
      </trkpt>
      <trkpt lat="47.26519" lon="-1.65876">
        <ele>33.8</ele>
        <time>2020-06-07T12:29:30Z</time>
      </trkpt>
      <trkpt lat="47.26519" lon="-1.65875">
        <ele>33.9</ele>
        <time>2020-06-07T12:29:31Z</time>
      </trkpt>
      <trkpt lat="47.26519" lon="-1.65874">
        <ele>33.9</ele>
        <time>2020-06-07T12:29:32Z</time>
      </trkpt>
      <trkpt lat="47.26518" lon="-1.65872">
        <ele>33.9</ele>
        <time>2020-06-07T12:29:33Z</time>
      </trkpt>
      <trkpt lat="47.26518" lon="-1.6587">
        <ele>34</ele>
        <time>2020-06-07T12:29:34Z</time>
      </trkpt>
      <trkpt lat="47.26518" lon="-1.65869">
        <ele>34</ele>
        <time>2020-06-07T12:29:35Z</time>
      </trkpt>
      <trkpt lat="47.26519" lon="-1.65867">
        <ele>34</ele>
        <time>2020-06-07T12:29:36Z</time>
      </trkpt>
      <trkpt lat="47.26518" lon="-1.65866">
        <ele>34.1</ele>
        <time>2020-06-07T12:29:37Z</time>
      </trkpt>
      <trkpt lat="47.26519" lon="-1.65864">
        <ele>34.1</ele>
        <time>2020-06-07T12:29:38Z</time>
      </trkpt>
      <trkpt lat="47.26519" lon="-1.65862">
        <ele>34.2</ele>
        <time>2020-06-07T12:29:39Z</time>
      </trkpt>
      <trkpt lat="47.2652" lon="-1.65861">
        <ele>34.2</ele>
        <time>2020-06-07T12:29:40Z</time>
      </trkpt>
      <trkpt lat="47.2652" lon="-1.65859">
        <ele>34.2</ele>
        <time>2020-06-07T12:29:41Z</time>
      </trkpt>
      <trkpt lat="47.2652" lon="-1.65858">
        <ele>34.2</ele>
        <time>2020-06-07T12:29:42Z</time>
      </trkpt>
      <trkpt lat="47.2652" lon="-1.65857">
        <ele>34.3</ele>
        <time>2020-06-07T12:29:43Z</time>
      </trkpt>
      <trkpt lat="47.26519" lon="-1.65856">
        <ele>34.3</ele>
        <time>2020-06-07T12:29:44Z</time>
      </trkpt>
      <trkpt lat="47.26519" lon="-1.65856">
        <ele>34.3</ele>
        <time>2020-06-07T12:29:45Z</time>
      </trkpt>
      <trkpt lat="47.2652" lon="-1.65856">
        <ele>34.3</ele>
        <time>2020-06-07T12:29:46Z</time>
      </trkpt>
      <trkpt lat="47.2652" lon="-1.65854">
        <ele>34.3</ele>
        <time>2020-06-07T12:29:47Z</time>
      </trkpt>
      <trkpt lat="47.2652" lon="-1.65853">
        <ele>34.4</ele>
        <time>2020-06-07T12:29:48Z</time>
      </trkpt>
      <trkpt lat="47.2652" lon="-1.65851">
        <ele>34.4</ele>
        <time>2020-06-07T12:29:49Z</time>
      </trkpt>
      <trkpt lat="47.2652" lon="-1.65851">
        <ele>34.4</ele>
        <time>2020-06-07T12:29:50Z</time>
      </trkpt>
      <trkpt lat="47.2652" lon="-1.6585">
        <ele>34.5</ele>
        <time>2020-06-07T12:29:51Z</time>
      </trkpt>
      <trkpt lat="47.2652" lon="-1.65849">
        <ele>34.5</ele>
        <time>2020-06-07T12:29:52Z</time>
      </trkpt>
      <trkpt lat="47.26521" lon="-1.65848">
        <ele>34.5</ele>
        <time>2020-06-07T12:29:53Z</time>
      </trkpt>
      <trkpt lat="47.26521" lon="-1.65846">
        <ele>34.6</ele>
        <time>2020-06-07T12:29:54Z</time>
      </trkpt>
      <trkpt lat="47.26521" lon="-1.65846">
        <ele>34.6</ele>
        <time>2020-06-07T12:29:55Z</time>
      </trkpt>
      <trkpt lat="47.2652" lon="-1.65845">
        <ele>34.6</ele>
        <time>2020-06-07T12:29:56Z</time>
      </trkpt>
      <trkpt lat="47.2652" lon="-1.65844">
        <ele>34.6</ele>
        <time>2020-06-07T12:29:57Z</time>
      </trkpt>
      <trkpt lat="47.2652" lon="-1.65844">
        <ele>34.6</ele>
        <time>2020-06-07T12:29:58Z</time>
      </trkpt>
      <trkpt lat="47.26521" lon="-1.65844">
        <ele>34.7</ele>
        <time>2020-06-07T12:29:59Z</time>
      </trkpt>
      <trkpt lat="47.26521" lon="-1.65842">
        <ele>34.7</ele>
        <time>2020-06-07T12:30:00Z</time>
      </trkpt>
      <trkpt lat="47.2652" lon="-1.65841">
        <ele>34.8</ele>
        <time>2020-06-07T12:30:01Z</time>
      </trkpt>
      <trkpt lat="47.26519" lon="-1.65839">
        <ele>34.8</ele>
        <time>2020-06-07T12:30:02Z</time>
      </trkpt>
      <trkpt lat="47.26517" lon="-1.65837">
        <ele>34.9</ele>
        <time>2020-06-07T12:30:03Z</time>
      </trkpt>
      <trkpt lat="47.26517" lon="-1.65837">
        <ele>35</ele>
        <time>2020-06-07T12:30:04Z</time>
      </trkpt>
      <trkpt lat="47.26516" lon="-1.65836">
        <ele>35</ele>
        <time>2020-06-07T12:30:05Z</time>
      </trkpt>
      <trkpt lat="47.26515" lon="-1.65835">
        <ele>35.1</ele>
        <time>2020-06-07T12:30:06Z</time>
      </trkpt>
      <trkpt lat="47.26514" lon="-1.65833">
        <ele>35.1</ele>
        <time>2020-06-07T12:30:07Z</time>
      </trkpt>
      <trkpt lat="47.26514" lon="-1.65831">
        <ele>35.2</ele>
        <time>2020-06-07T12:30:08Z</time>
      </trkpt>
      <trkpt lat="47.26513" lon="-1.6583">
        <ele>35.2</ele>
        <time>2020-06-07T12:30:09Z</time>
      </trkpt>
      <trkpt lat="47.26513" lon="-1.65828">
        <ele>35.3</ele>
        <time>2020-06-07T12:30:10Z</time>
      </trkpt>
      <trkpt lat="47.26513" lon="-1.65828">
        <ele>35.3</ele>
        <time>2020-06-07T12:30:11Z</time>
      </trkpt>
      <trkpt lat="47.26513" lon="-1.65827">
        <ele>35.3</ele>
        <time>2020-06-07T12:30:12Z</time>
      </trkpt>
      <trkpt lat="47.26513" lon="-1.65827">
        <ele>35.3</ele>
        <time>2020-06-07T12:30:13Z</time>
      </trkpt>
      <trkpt lat="47.26513" lon="-1.65826">
        <ele>35.4</ele>
        <time>2020-06-07T12:30:14Z</time>
      </trkpt>
      <trkpt lat="47.26513" lon="-1.65826">
        <ele>35.4</ele>
        <time>2020-06-07T12:30:15Z</time>
      </trkpt>
      <trkpt lat="47.26514" lon="-1.65826">
        <ele>35.4</ele>
        <time>2020-06-07T12:30:16Z</time>
      </trkpt>
      <trkpt lat="47.26515" lon="-1.65826">
        <ele>35.4</ele>
        <time>2020-06-07T12:30:17Z</time>
      </trkpt>
      <trkpt lat="47.26515" lon="-1.65826">
        <ele>35.5</ele>
        <time>2020-06-07T12:30:18Z</time>
      </trkpt>
      <trkpt lat="47.26515" lon="-1.65826">
        <ele>35.5</ele>
        <time>2020-06-07T12:30:19Z</time>
      </trkpt>
      <trkpt lat="47.26515" lon="-1.65825">
        <ele>35.5</ele>
        <time>2020-06-07T12:30:20Z</time>
      </trkpt>
      <trkpt lat="47.26515" lon="-1.65825">
        <ele>35.5</ele>
        <time>2020-06-07T12:30:21Z</time>
      </trkpt>
      <trkpt lat="47.26515" lon="-1.65825">
        <ele>35.5</ele>
        <time>2020-06-07T12:30:22Z</time>
      </trkpt>
      <trkpt lat="47.26515" lon="-1.65825">
        <ele>35.5</ele>
        <time>2020-06-07T12:30:23Z</time>
      </trkpt>
      <trkpt lat="47.26515" lon="-1.65825">
        <ele>35.5</ele>
        <time>2020-06-07T12:30:24Z</time>
      </trkpt>
      <trkpt lat="47.26514" lon="-1.65826">
        <ele>35.6</ele>
        <time>2020-06-07T12:30:25Z</time>
      </trkpt>
      <trkpt lat="47.26514" lon="-1.65826">
        <ele>35.6</ele>
        <time>2020-06-07T12:30:26Z</time>
      </trkpt>
      <trkpt lat="47.26514" lon="-1.65826">
        <ele>35.6</ele>
        <time>2020-06-07T12:30:27Z</time>
      </trkpt>
      <trkpt lat="47.26514" lon="-1.65826">
        <ele>35.6</ele>
        <time>2020-06-07T12:30:28Z</time>
      </trkpt>
      <trkpt lat="47.26514" lon="-1.65826">
        <ele>35.6</ele>
        <time>2020-06-07T12:30:29Z</time>
      </trkpt>
      <trkpt lat="47.26514" lon="-1.65826">
        <ele>35.6</ele>
        <time>2020-06-07T12:30:30Z</time>
      </trkpt>
      <trkpt lat="47.26514" lon="-1.65825">
        <ele>35.7</ele>
        <time>2020-06-07T12:30:31Z</time>
      </trkpt>
      <trkpt lat="47.26513" lon="-1.65824">
        <ele>35.7</ele>
        <time>2020-06-07T12:30:32Z</time>
      </trkpt>
      <trkpt lat="47.26513" lon="-1.65824">
        <ele>35.7</ele>
        <time>2020-06-07T12:30:33Z</time>
      </trkpt>
      <trkpt lat="47.26513" lon="-1.65823">
        <ele>35.7</ele>
        <time>2020-06-07T12:30:34Z</time>
      </trkpt>
      <trkpt lat="47.26513" lon="-1.65822">
        <ele>35.7</ele>
        <time>2020-06-07T12:30:35Z</time>
      </trkpt>
      <trkpt lat="47.26513" lon="-1.65822">
        <ele>35.7</ele>
        <time>2020-06-07T12:30:36Z</time>
      </trkpt>
      <trkpt lat="47.26513" lon="-1.65823">
        <ele>35.8</ele>
        <time>2020-06-07T12:30:37Z</time>
      </trkpt>
      <trkpt lat="47.26514" lon="-1.65823">
        <ele>35.8</ele>
        <time>2020-06-07T12:30:38Z</time>
      </trkpt>
      <trkpt lat="47.26514" lon="-1.65822">
        <ele>35.8</ele>
        <time>2020-06-07T12:30:39Z</time>
      </trkpt>
      <trkpt lat="47.26514" lon="-1.65821">
        <ele>35.8</ele>
        <time>2020-06-07T12:30:40Z</time>
      </trkpt>
      <trkpt lat="47.26514" lon="-1.65821">
        <ele>35.9</ele>
        <time>2020-06-07T12:30:41Z</time>
      </trkpt>
      <trkpt lat="47.26515" lon="-1.6582">
        <ele>35.9</ele>
        <time>2020-06-07T12:30:42Z</time>
      </trkpt>
      <trkpt lat="47.26516" lon="-1.6582">
        <ele>36</ele>
        <time>2020-06-07T12:30:43Z</time>
      </trkpt>
      <trkpt lat="47.26517" lon="-1.6582">
        <ele>36</ele>
        <time>2020-06-07T12:30:44Z</time>
      </trkpt>
      <trkpt lat="47.26518" lon="-1.65821">
        <ele>36.1</ele>
        <time>2020-06-07T12:30:45Z</time>
      </trkpt>
      <trkpt lat="47.26519" lon="-1.65822">
        <ele>36.1</ele>
        <time>2020-06-07T12:30:46Z</time>
      </trkpt>
      <trkpt lat="47.2652" lon="-1.65823">
        <ele>36.2</ele>
        <time>2020-06-07T12:30:47Z</time>
      </trkpt>
      <trkpt lat="47.26521" lon="-1.65825">
        <ele>36.3</ele>
        <time>2020-06-07T12:30:48Z</time>
      </trkpt>
      <trkpt lat="47.26521" lon="-1.65825">
        <ele>36.3</ele>
        <time>2020-06-07T12:30:49Z</time>
      </trkpt>
      <trkpt lat="47.2652" lon="-1.65824">
        <ele>36.3</ele>
        <time>2020-06-07T12:30:50Z</time>
      </trkpt>
      <trkpt lat="47.2652" lon="-1.65824">
        <ele>36.3</ele>
        <time>2020-06-07T12:30:51Z</time>
      </trkpt>
      <trkpt lat="47.26519" lon="-1.65824">
        <ele>36.4</ele>
        <time>2020-06-07T12:30:52Z</time>
      </trkpt>
      <trkpt lat="47.26518" lon="-1.65823">
        <ele>36.4</ele>
        <time>2020-06-07T12:30:53Z</time>
      </trkpt>
      <trkpt lat="47.26518" lon="-1.65823">
        <ele>36.5</ele>
        <time>2020-06-07T12:30:54Z</time>
      </trkpt>
      <trkpt lat="47.26517" lon="-1.65823">
        <ele>36.5</ele>
        <time>2020-06-07T12:30:55Z</time>
      </trkpt>
      <trkpt lat="47.26517" lon="-1.65821">
        <ele>36.6</ele>
        <time>2020-06-07T12:30:56Z</time>
      </trkpt>
      <trkpt lat="47.26517" lon="-1.65821">
        <ele>36.6</ele>
        <time>2020-06-07T12:30:57Z</time>
      </trkpt>
      <trkpt lat="47.26517" lon="-1.65821">
        <ele>36.6</ele>
        <time>2020-06-07T12:30:58Z</time>
      </trkpt>
      <trkpt lat="47.26517" lon="-1.6582">
        <ele>36.7</ele>
        <time>2020-06-07T12:30:59Z</time>
      </trkpt>
      <trkpt lat="47.26517" lon="-1.65818">
        <ele>36.7</ele>
        <time>2020-06-07T12:31:00Z</time>
      </trkpt>
      <trkpt lat="47.26516" lon="-1.65816">
        <ele>36.8</ele>
        <time>2020-06-07T12:31:01Z</time>
      </trkpt>
      <trkpt lat="47.26515" lon="-1.65814">
        <ele>36.9</ele>
        <time>2020-06-07T12:31:02Z</time>
      </trkpt>
      <trkpt lat="47.26515" lon="-1.65811">
        <ele>37</ele>
        <time>2020-06-07T12:31:03Z</time>
      </trkpt>
      <trkpt lat="47.26514" lon="-1.65809">
        <ele>37.1</ele>
        <time>2020-06-07T12:31:04Z</time>
      </trkpt>
      <trkpt lat="47.26514" lon="-1.65808">
        <ele>37.2</ele>
        <time>2020-06-07T12:31:05Z</time>
      </trkpt>
      <trkpt lat="47.26514" lon="-1.65806">
        <ele>37.3</ele>
        <time>2020-06-07T12:31:06Z</time>
      </trkpt>
      <trkpt lat="47.26513" lon="-1.65805">
        <ele>37.4</ele>
        <time>2020-06-07T12:31:07Z</time>
      </trkpt>
      <trkpt lat="47.26514" lon="-1.65804">
        <ele>37.4</ele>
        <time>2020-06-07T12:31:08Z</time>
      </trkpt>
      <trkpt lat="47.26514" lon="-1.65804">
        <ele>37.4</ele>
        <time>2020-06-07T12:31:09Z</time>
      </trkpt>
      <trkpt lat="47.26513" lon="-1.65803">
        <ele>37.4</ele>
        <time>2020-06-07T12:31:10Z</time>
      </trkpt>
      <trkpt lat="47.26513" lon="-1.65802">
        <ele>37.5</ele>
        <time>2020-06-07T12:31:11Z</time>
      </trkpt>
      <trkpt lat="47.26512" lon="-1.65802">
        <ele>37.6</ele>
        <time>2020-06-07T12:31:12Z</time>
      </trkpt>
      <trkpt lat="47.26511" lon="-1.65801">
        <ele>37.6</ele>
        <time>2020-06-07T12:31:13Z</time>
      </trkpt>
      <trkpt lat="47.26509" lon="-1.658">
        <ele>37.8</ele>
        <time>2020-06-07T12:31:14Z</time>
      </trkpt>
      <trkpt lat="47.26508" lon="-1.658">
        <ele>37.8</ele>
        <time>2020-06-07T12:31:15Z</time>
      </trkpt>
      <trkpt lat="47.26507" lon="-1.658">
        <ele>37.9</ele>
        <time>2020-06-07T12:31:16Z</time>
      </trkpt>
      <trkpt lat="47.26505" lon="-1.65799">
        <ele>38.1</ele>
        <time>2020-06-07T12:31:17Z</time>
      </trkpt>
      <trkpt lat="47.26504" lon="-1.65799">
        <ele>38.1</ele>
        <time>2020-06-07T12:31:18Z</time>
      </trkpt>
      <trkpt lat="47.26503" lon="-1.65798">
        <ele>38.2</ele>
        <time>2020-06-07T12:31:19Z</time>
      </trkpt>
      <trkpt lat="47.26503" lon="-1.65797">
        <ele>38.2</ele>
        <time>2020-06-07T12:31:20Z</time>
      </trkpt>
      <trkpt lat="47.26503" lon="-1.65796">
        <ele>38.3</ele>
        <time>2020-06-07T12:31:21Z</time>
      </trkpt>
      <trkpt lat="47.26503" lon="-1.65795">
        <ele>38.3</ele>
        <time>2020-06-07T12:31:22Z</time>
      </trkpt>
      <trkpt lat="47.26503" lon="-1.65795">
        <ele>38.4</ele>
        <time>2020-06-07T12:31:23Z</time>
      </trkpt>
      <trkpt lat="47.26504" lon="-1.65793">
        <ele>38.4</ele>
        <time>2020-06-07T12:31:24Z</time>
      </trkpt>
      <trkpt lat="47.26504" lon="-1.65792">
        <ele>38.5</ele>
        <time>2020-06-07T12:31:25Z</time>
      </trkpt>
      <trkpt lat="47.26505" lon="-1.65791">
        <ele>38.6</ele>
        <time>2020-06-07T12:31:26Z</time>
      </trkpt>
      <trkpt lat="47.26505" lon="-1.65789">
        <ele>38.7</ele>
        <time>2020-06-07T12:31:27Z</time>
      </trkpt>
      <trkpt lat="47.26505" lon="-1.65788">
        <ele>38.7</ele>
        <time>2020-06-07T12:31:28Z</time>
      </trkpt>
      <trkpt lat="47.26505" lon="-1.65787">
        <ele>38.8</ele>
        <time>2020-06-07T12:31:29Z</time>
      </trkpt>
      <trkpt lat="47.26505" lon="-1.65786">
        <ele>38.8</ele>
        <time>2020-06-07T12:31:30Z</time>
      </trkpt>
      <trkpt lat="47.26505" lon="-1.65784">
        <ele>38.9</ele>
        <time>2020-06-07T12:31:31Z</time>
      </trkpt>
      <trkpt lat="47.26505" lon="-1.65783">
        <ele>39</ele>
        <time>2020-06-07T12:31:32Z</time>
      </trkpt>
      <trkpt lat="47.26505" lon="-1.65781">
        <ele>39</ele>
        <time>2020-06-07T12:31:33Z</time>
      </trkpt>
      <trkpt lat="47.26505" lon="-1.65779">
        <ele>39.1</ele>
        <time>2020-06-07T12:31:34Z</time>
      </trkpt>
      <trkpt lat="47.26505" lon="-1.65778">
        <ele>39.2</ele>
        <time>2020-06-07T12:31:35Z</time>
      </trkpt>
      <trkpt lat="47.26505" lon="-1.65778">
        <ele>39.2</ele>
        <time>2020-06-07T12:31:36Z</time>
      </trkpt>
      <trkpt lat="47.26505" lon="-1.65778">
        <ele>39.2</ele>
        <time>2020-06-07T12:31:37Z</time>
      </trkpt>
      <trkpt lat="47.26505" lon="-1.65778">
        <ele>39.2</ele>
        <time>2020-06-07T12:31:38Z</time>
      </trkpt>
      <trkpt lat="47.26505" lon="-1.65775">
        <ele>39.3</ele>
        <time>2020-06-07T12:31:39Z</time>
      </trkpt>
      <trkpt lat="47.26505" lon="-1.65774">
        <ele>39.4</ele>
        <time>2020-06-07T12:31:40Z</time>
      </trkpt>
      <trkpt lat="47.26505" lon="-1.65773">
        <ele>39.4</ele>
        <time>2020-06-07T12:31:41Z</time>
      </trkpt>
      <trkpt lat="47.26505" lon="-1.65773">
        <ele>39.4</ele>
        <time>2020-06-07T12:31:42Z</time>
      </trkpt>
      <trkpt lat="47.26504" lon="-1.65773">
        <ele>39.4</ele>
        <time>2020-06-07T12:31:43Z</time>
      </trkpt>
      <trkpt lat="47.26504" lon="-1.65772">
        <ele>39.4</ele>
        <time>2020-06-07T12:31:44Z</time>
      </trkpt>
      <trkpt lat="47.26504" lon="-1.65772">
        <ele>39.5</ele>
        <time>2020-06-07T12:31:45Z</time>
      </trkpt>
      <trkpt lat="47.26504" lon="-1.65772">
        <ele>39.5</ele>
        <time>2020-06-07T12:31:46Z</time>
      </trkpt>
      <trkpt lat="47.26504" lon="-1.65771">
        <ele>39.5</ele>
        <time>2020-06-07T12:31:47Z</time>
      </trkpt>
      <trkpt lat="47.26504" lon="-1.65771">
        <ele>39.5</ele>
        <time>2020-06-07T12:31:48Z</time>
      </trkpt>
      <trkpt lat="47.26504" lon="-1.6577">
        <ele>39.5</ele>
        <time>2020-06-07T12:31:49Z</time>
      </trkpt>
      <trkpt lat="47.26504" lon="-1.6577">
        <ele>39.6</ele>
        <time>2020-06-07T12:31:50Z</time>
      </trkpt>
      <trkpt lat="47.26504" lon="-1.6577">
        <ele>39.6</ele>
        <time>2020-06-07T12:31:51Z</time>
      </trkpt>
      <trkpt lat="47.26504" lon="-1.65768">
        <ele>39.6</ele>
        <time>2020-06-07T12:31:52Z</time>
      </trkpt>
      <trkpt lat="47.26503" lon="-1.65766">
        <ele>39.6</ele>
        <time>2020-06-07T12:31:53Z</time>
      </trkpt>
      <trkpt lat="47.26503" lon="-1.65765">
        <ele>39.5</ele>
        <time>2020-06-07T12:31:54Z</time>
      </trkpt>
      <trkpt lat="47.26502" lon="-1.65765">
        <ele>39.5</ele>
        <time>2020-06-07T12:31:55Z</time>
      </trkpt>
      <trkpt lat="47.26502" lon="-1.65765">
        <ele>39.5</ele>
        <time>2020-06-07T12:31:56Z</time>
      </trkpt>
      <trkpt lat="47.26501" lon="-1.65765">
        <ele>39.5</ele>
        <time>2020-06-07T12:31:57Z</time>
      </trkpt>
      <trkpt lat="47.26502" lon="-1.65764">
        <ele>39.4</ele>
        <time>2020-06-07T12:31:58Z</time>
      </trkpt>
      <trkpt lat="47.26503" lon="-1.65764">
        <ele>39.4</ele>
        <time>2020-06-07T12:31:59Z</time>
      </trkpt>
      <trkpt lat="47.26503" lon="-1.65763">
        <ele>39.4</ele>
        <time>2020-06-07T12:32:00Z</time>
      </trkpt>
      <trkpt lat="47.26503" lon="-1.65762">
        <ele>39.3</ele>
        <time>2020-06-07T12:32:01Z</time>
      </trkpt>
      <trkpt lat="47.26503" lon="-1.65761">
        <ele>39.3</ele>
        <time>2020-06-07T12:32:02Z</time>
      </trkpt>
      <trkpt lat="47.26503" lon="-1.65761">
        <ele>39.3</ele>
        <time>2020-06-07T12:32:03Z</time>
      </trkpt>
      <trkpt lat="47.26503" lon="-1.65759">
        <ele>39.2</ele>
        <time>2020-06-07T12:32:04Z</time>
      </trkpt>
      <trkpt lat="47.26503" lon="-1.65759">
        <ele>39.2</ele>
        <time>2020-06-07T12:32:05Z</time>
      </trkpt>
      <trkpt lat="47.26502" lon="-1.65758">
        <ele>39.1</ele>
        <time>2020-06-07T12:32:06Z</time>
      </trkpt>
      <trkpt lat="47.26501" lon="-1.65759">
        <ele>39.1</ele>
        <time>2020-06-07T12:32:07Z</time>
      </trkpt>
      <trkpt lat="47.265" lon="-1.6576">
        <ele>39</ele>
        <time>2020-06-07T12:32:08Z</time>
      </trkpt>
      <trkpt lat="47.265" lon="-1.6576">
        <ele>39</ele>
        <time>2020-06-07T12:32:09Z</time>
      </trkpt>
      <trkpt lat="47.26499" lon="-1.65761">
        <ele>39</ele>
        <time>2020-06-07T12:32:10Z</time>
      </trkpt>
      <trkpt lat="47.26499" lon="-1.65762">
        <ele>38.9</ele>
        <time>2020-06-07T12:32:11Z</time>
      </trkpt>
      <trkpt lat="47.265" lon="-1.65762">
        <ele>38.9</ele>
        <time>2020-06-07T12:32:12Z</time>
      </trkpt>
      <trkpt lat="47.265" lon="-1.65763">
        <ele>38.9</ele>
        <time>2020-06-07T12:32:13Z</time>
      </trkpt>
      <trkpt lat="47.26501" lon="-1.65763">
        <ele>38.9</ele>
        <time>2020-06-07T12:32:14Z</time>
      </trkpt>
      <trkpt lat="47.26501" lon="-1.65764">
        <ele>38.8</ele>
        <time>2020-06-07T12:32:15Z</time>
      </trkpt>
      <trkpt lat="47.26502" lon="-1.65763">
        <ele>38.8</ele>
        <time>2020-06-07T12:32:16Z</time>
      </trkpt>
      <trkpt lat="47.26501" lon="-1.65763">
        <ele>38.8</ele>
        <time>2020-06-07T12:32:17Z</time>
      </trkpt>
      <trkpt lat="47.26501" lon="-1.65763">
        <ele>38.8</ele>
        <time>2020-06-07T12:32:18Z</time>
      </trkpt>
      <trkpt lat="47.26501" lon="-1.65763">
        <ele>38.8</ele>
        <time>2020-06-07T12:32:19Z</time>
      </trkpt>
      <trkpt lat="47.265" lon="-1.65763">
        <ele>38.7</ele>
        <time>2020-06-07T12:32:20Z</time>
      </trkpt>
      <trkpt lat="47.26499" lon="-1.65764">
        <ele>38.6</ele>
        <time>2020-06-07T12:32:21Z</time>
      </trkpt>
      <trkpt lat="47.26498" lon="-1.65763">
        <ele>38.6</ele>
        <time>2020-06-07T12:32:22Z</time>
      </trkpt>
      <trkpt lat="47.26497" lon="-1.65762">
        <ele>38.6</ele>
        <time>2020-06-07T12:32:23Z</time>
      </trkpt>
      <trkpt lat="47.26497" lon="-1.65762">
        <ele>38.5</ele>
        <time>2020-06-07T12:32:24Z</time>
      </trkpt>
      <trkpt lat="47.26497" lon="-1.65761">
        <ele>38.5</ele>
        <time>2020-06-07T12:32:25Z</time>
      </trkpt>
      <trkpt lat="47.26497" lon="-1.6576">
        <ele>38.5</ele>
        <time>2020-06-07T12:32:26Z</time>
      </trkpt>
      <trkpt lat="47.26498" lon="-1.65759">
        <ele>38.4</ele>
        <time>2020-06-07T12:32:27Z</time>
      </trkpt>
      <trkpt lat="47.26498" lon="-1.65759">
        <ele>38.4</ele>
        <time>2020-06-07T12:32:28Z</time>
      </trkpt>
      <trkpt lat="47.26498" lon="-1.65758">
        <ele>38.4</ele>
        <time>2020-06-07T12:32:29Z</time>
      </trkpt>
      <trkpt lat="47.26498" lon="-1.65757">
        <ele>38.3</ele>
        <time>2020-06-07T12:32:30Z</time>
      </trkpt>
      <trkpt lat="47.26498" lon="-1.65757">
        <ele>38.3</ele>
        <time>2020-06-07T12:32:31Z</time>
      </trkpt>
      <trkpt lat="47.26497" lon="-1.65756">
        <ele>38.3</ele>
        <time>2020-06-07T12:32:32Z</time>
      </trkpt>
      <trkpt lat="47.26497" lon="-1.65755">
        <ele>38.2</ele>
        <time>2020-06-07T12:32:33Z</time>
      </trkpt>
      <trkpt lat="47.26497" lon="-1.65755">
        <ele>38.2</ele>
        <time>2020-06-07T12:32:34Z</time>
      </trkpt>
      <trkpt lat="47.26498" lon="-1.65755">
        <ele>38.2</ele>
        <time>2020-06-07T12:32:35Z</time>
      </trkpt>
      <trkpt lat="47.26498" lon="-1.65755">
        <ele>38.2</ele>
        <time>2020-06-07T12:32:36Z</time>
      </trkpt>
      <trkpt lat="47.26498" lon="-1.65754">
        <ele>38.2</ele>
        <time>2020-06-07T12:32:37Z</time>
      </trkpt>
      <trkpt lat="47.26498" lon="-1.65754">
        <ele>38.2</ele>
        <time>2020-06-07T12:32:38Z</time>
      </trkpt>
      <trkpt lat="47.26499" lon="-1.65753">
        <ele>38.1</ele>
        <time>2020-06-07T12:32:39Z</time>
      </trkpt>
      <trkpt lat="47.26499" lon="-1.65753">
        <ele>38.1</ele>
        <time>2020-06-07T12:32:40Z</time>
      </trkpt>
      <trkpt lat="47.265" lon="-1.65753">
        <ele>38.1</ele>
        <time>2020-06-07T12:32:41Z</time>
      </trkpt>
      <trkpt lat="47.26501" lon="-1.65752">
        <ele>38</ele>
        <time>2020-06-07T12:32:42Z</time>
      </trkpt>
      <trkpt lat="47.26501" lon="-1.65752">
        <ele>38</ele>
        <time>2020-06-07T12:32:43Z</time>
      </trkpt>
      <trkpt lat="47.26501" lon="-1.65752">
        <ele>38</ele>
        <time>2020-06-07T12:32:44Z</time>
      </trkpt>
      <trkpt lat="47.26501" lon="-1.65751">
        <ele>38</ele>
        <time>2020-06-07T12:32:45Z</time>
      </trkpt>
      <trkpt lat="47.26501" lon="-1.65751">
        <ele>37.9</ele>
        <time>2020-06-07T12:32:46Z</time>
      </trkpt>
      <trkpt lat="47.26501" lon="-1.6575">
        <ele>37.9</ele>
        <time>2020-06-07T12:32:47Z</time>
      </trkpt>
      <trkpt lat="47.26501" lon="-1.6575">
        <ele>37.9</ele>
        <time>2020-06-07T12:32:48Z</time>
      </trkpt>
      <trkpt lat="47.26502" lon="-1.6575">
        <ele>37.9</ele>
        <time>2020-06-07T12:32:49Z</time>
      </trkpt>
      <trkpt lat="47.26502" lon="-1.65751">
        <ele>37.9</ele>
        <time>2020-06-07T12:32:50Z</time>
      </trkpt>
      <trkpt lat="47.26502" lon="-1.65751">
        <ele>37.9</ele>
        <time>2020-06-07T12:32:51Z</time>
      </trkpt>
      <trkpt lat="47.26502" lon="-1.65751">
        <ele>37.9</ele>
        <time>2020-06-07T12:32:52Z</time>
      </trkpt>
      <trkpt lat="47.26502" lon="-1.65751">
        <ele>37.9</ele>
        <time>2020-06-07T12:32:53Z</time>
      </trkpt>
      <trkpt lat="47.26502" lon="-1.65751">
        <ele>37.9</ele>
        <time>2020-06-07T12:32:54Z</time>
      </trkpt>
      <trkpt lat="47.26502" lon="-1.65751">
        <ele>37.9</ele>
        <time>2020-06-07T12:32:55Z</time>
      </trkpt>
      <trkpt lat="47.26502" lon="-1.65751">
        <ele>37.9</ele>
        <time>2020-06-07T12:32:56Z</time>
      </trkpt>
      <trkpt lat="47.26502" lon="-1.65751">
        <ele>37.9</ele>
        <time>2020-06-07T12:32:57Z</time>
      </trkpt>
      <trkpt lat="47.26502" lon="-1.65751">
        <ele>37.9</ele>
        <time>2020-06-07T12:32:58Z</time>
      </trkpt>
      <trkpt lat="47.26501" lon="-1.65751">
        <ele>37.8</ele>
        <time>2020-06-07T12:32:59Z</time>
      </trkpt>
      <trkpt lat="47.26501" lon="-1.65751">
        <ele>37.8</ele>
        <time>2020-06-07T12:33:00Z</time>
      </trkpt>
      <trkpt lat="47.26502" lon="-1.6575">
        <ele>37.8</ele>
        <time>2020-06-07T12:33:01Z</time>
      </trkpt>
      <trkpt lat="47.26502" lon="-1.6575">
        <ele>37.7</ele>
        <time>2020-06-07T12:33:02Z</time>
      </trkpt>
      <trkpt lat="47.26503" lon="-1.65751">
        <ele>37.7</ele>
        <time>2020-06-07T12:33:03Z</time>
      </trkpt>
      <trkpt lat="47.26503" lon="-1.65751">
        <ele>37.7</ele>
        <time>2020-06-07T12:33:04Z</time>
      </trkpt>
      <trkpt lat="47.26503" lon="-1.65751">
        <ele>37.7</ele>
        <time>2020-06-07T12:33:05Z</time>
      </trkpt>
      <trkpt lat="47.26503" lon="-1.65751">
        <ele>37.7</ele>
        <time>2020-06-07T12:33:06Z</time>
      </trkpt>
      <trkpt lat="47.26503" lon="-1.65752">
        <ele>37.7</ele>
        <time>2020-06-07T12:33:07Z</time>
      </trkpt>
      <trkpt lat="47.26503" lon="-1.65752">
        <ele>37.7</ele>
        <time>2020-06-07T12:33:08Z</time>
      </trkpt>
      <trkpt lat="47.26503" lon="-1.65752">
        <ele>37.7</ele>
        <time>2020-06-07T12:33:09Z</time>
      </trkpt>
      <trkpt lat="47.26503" lon="-1.65752">
        <ele>37.7</ele>
        <time>2020-06-07T12:33:10Z</time>
      </trkpt>
      <trkpt lat="47.26503" lon="-1.65752">
        <ele>37.7</ele>
        <time>2020-06-07T12:33:11Z</time>
      </trkpt>
      <trkpt lat="47.26503" lon="-1.65752">
        <ele>37.7</ele>
        <time>2020-06-07T12:33:12Z</time>
      </trkpt>
      <trkpt lat="47.26503" lon="-1.65752">
        <ele>37.7</ele>
        <time>2020-06-07T12:33:13Z</time>
      </trkpt>
      <trkpt lat="47.26503" lon="-1.65752">
        <ele>37.7</ele>
        <time>2020-06-07T12:33:14Z</time>
      </trkpt>
      <trkpt lat="47.26505" lon="-1.65786">
        <ele>36.5</ele>
        <time>2020-06-07T12:34:14Z</time>
      </trkpt>
      <trkpt lat="47.26506" lon="-1.65788">
        <ele>36.4</ele>
        <time>2020-06-07T12:34:15Z</time>
      </trkpt>
      <trkpt lat="47.26506" lon="-1.65789">
        <ele>36.4</ele>
        <time>2020-06-07T12:34:16Z</time>
      </trkpt>
      <trkpt lat="47.26506" lon="-1.6579">
        <ele>36.3</ele>
        <time>2020-06-07T12:34:17Z</time>
      </trkpt>
      <trkpt lat="47.26507" lon="-1.6579">
        <ele>36.3</ele>
        <time>2020-06-07T12:34:18Z</time>
      </trkpt>
      <trkpt lat="47.26507" lon="-1.6579">
        <ele>36.3</ele>
        <time>2020-06-07T12:34:19Z</time>
      </trkpt>
      <trkpt lat="47.26507" lon="-1.65791">
        <ele>36.3</ele>
        <time>2020-06-07T12:34:20Z</time>
      </trkpt>
      <trkpt lat="47.26507" lon="-1.65792">
        <ele>36.3</ele>
        <time>2020-06-07T12:34:21Z</time>
      </trkpt>
      <trkpt lat="47.26508" lon="-1.65794">
        <ele>36.2</ele>
        <time>2020-06-07T12:34:22Z</time>
      </trkpt>
      <trkpt lat="47.26509" lon="-1.65795">
        <ele>36.1</ele>
        <time>2020-06-07T12:34:23Z</time>
      </trkpt>
      <trkpt lat="47.26509" lon="-1.65796">
        <ele>36.1</ele>
        <time>2020-06-07T12:34:24Z</time>
      </trkpt>
      <trkpt lat="47.2651" lon="-1.65797">
        <ele>36</ele>
        <time>2020-06-07T12:34:25Z</time>
      </trkpt>
      <trkpt lat="47.26511" lon="-1.65799">
        <ele>36</ele>
        <time>2020-06-07T12:34:26Z</time>
      </trkpt>
      <trkpt lat="47.26512" lon="-1.658">
        <ele>35.9</ele>
        <time>2020-06-07T12:34:27Z</time>
      </trkpt>
      <trkpt lat="47.26512" lon="-1.65802">
        <ele>35.9</ele>
        <time>2020-06-07T12:34:28Z</time>
      </trkpt>
      <trkpt lat="47.26511" lon="-1.65804">
        <ele>35.8</ele>
        <time>2020-06-07T12:34:29Z</time>
      </trkpt>
      <trkpt lat="47.26509" lon="-1.65807">
        <ele>35.7</ele>
        <time>2020-06-07T12:34:30Z</time>
      </trkpt>
      <trkpt lat="47.26509" lon="-1.65808">
        <ele>35.7</ele>
        <time>2020-06-07T12:34:31Z</time>
      </trkpt>
      <trkpt lat="47.26507" lon="-1.6581">
        <ele>35.6</ele>
        <time>2020-06-07T12:34:32Z</time>
      </trkpt>
      <trkpt lat="47.26506" lon="-1.6581">
        <ele>35.6</ele>
        <time>2020-06-07T12:34:33Z</time>
      </trkpt>
      <trkpt lat="47.26505" lon="-1.65811">
        <ele>35.5</ele>
        <time>2020-06-07T12:34:34Z</time>
      </trkpt>
      <trkpt lat="47.26504" lon="-1.65811">
        <ele>35.5</ele>
        <time>2020-06-07T12:34:35Z</time>
      </trkpt>
      <trkpt lat="47.26503" lon="-1.65812">
        <ele>35.4</ele>
        <time>2020-06-07T12:34:36Z</time>
      </trkpt>
      <trkpt lat="47.26502" lon="-1.65813">
        <ele>35.4</ele>
        <time>2020-06-07T12:34:37Z</time>
      </trkpt>
      <trkpt lat="47.26503" lon="-1.65815">
        <ele>35.3</ele>
        <time>2020-06-07T12:34:38Z</time>
      </trkpt>
      <trkpt lat="47.26504" lon="-1.65816">
        <ele>35.3</ele>
        <time>2020-06-07T12:34:39Z</time>
      </trkpt>
      <trkpt lat="47.26504" lon="-1.65817">
        <ele>35.3</ele>
        <time>2020-06-07T12:34:40Z</time>
      </trkpt>
      <trkpt lat="47.26505" lon="-1.65817">
        <ele>35.3</ele>
        <time>2020-06-07T12:34:41Z</time>
      </trkpt>
      <trkpt lat="47.26505" lon="-1.65817">
        <ele>35.3</ele>
        <time>2020-06-07T12:34:42Z</time>
      </trkpt>
      <trkpt lat="47.26505" lon="-1.65817">
        <ele>35.2</ele>
        <time>2020-06-07T12:34:43Z</time>
      </trkpt>
      <trkpt lat="47.26506" lon="-1.65817">
        <ele>35.2</ele>
        <time>2020-06-07T12:34:44Z</time>
      </trkpt>
      <trkpt lat="47.26507" lon="-1.65817">
        <ele>35.2</ele>
        <time>2020-06-07T12:34:45Z</time>
      </trkpt>
      <trkpt lat="47.26507" lon="-1.65817">
        <ele>35.2</ele>
        <time>2020-06-07T12:34:46Z</time>
      </trkpt>
      <trkpt lat="47.26507" lon="-1.65817">
        <ele>35.2</ele>
        <time>2020-06-07T12:34:47Z</time>
      </trkpt>
      <trkpt lat="47.26508" lon="-1.65818">
        <ele>35.2</ele>
        <time>2020-06-07T12:34:48Z</time>
      </trkpt>
      <trkpt lat="47.26509" lon="-1.65819">
        <ele>35.1</ele>
        <time>2020-06-07T12:34:49Z</time>
      </trkpt>
      <trkpt lat="47.2651" lon="-1.6582">
        <ele>35.1</ele>
        <time>2020-06-07T12:34:50Z</time>
      </trkpt>
      <trkpt lat="47.26511" lon="-1.65821">
        <ele>35</ele>
        <time>2020-06-07T12:34:51Z</time>
      </trkpt>
      <trkpt lat="47.26511" lon="-1.65822">
        <ele>35</ele>
        <time>2020-06-07T12:34:52Z</time>
      </trkpt>
      <trkpt lat="47.26511" lon="-1.65824">
        <ele>35</ele>
        <time>2020-06-07T12:34:53Z</time>
      </trkpt>
      <trkpt lat="47.26512" lon="-1.65826">
        <ele>34.9</ele>
        <time>2020-06-07T12:34:54Z</time>
      </trkpt>
      <trkpt lat="47.26512" lon="-1.65829">
        <ele>34.8</ele>
        <time>2020-06-07T12:34:55Z</time>
      </trkpt>
      <trkpt lat="47.26514" lon="-1.65831">
        <ele>34.8</ele>
        <time>2020-06-07T12:34:56Z</time>
      </trkpt>
      <trkpt lat="47.26513" lon="-1.65833">
        <ele>34.7</ele>
        <time>2020-06-07T12:34:57Z</time>
      </trkpt>
      <trkpt lat="47.26513" lon="-1.65836">
        <ele>34.7</ele>
        <time>2020-06-07T12:34:58Z</time>
      </trkpt>
      <trkpt lat="47.26513" lon="-1.65838">
        <ele>34.6</ele>
        <time>2020-06-07T12:34:59Z</time>
      </trkpt>
      <trkpt lat="47.26513" lon="-1.65839">
        <ele>34.6</ele>
        <time>2020-06-07T12:35:00Z</time>
      </trkpt>
      <trkpt lat="47.26512" lon="-1.65841">
        <ele>34.5</ele>
        <time>2020-06-07T12:35:01Z</time>
      </trkpt>
      <trkpt lat="47.26513" lon="-1.65842">
        <ele>34.5</ele>
        <time>2020-06-07T12:35:02Z</time>
      </trkpt>
      <trkpt lat="47.26514" lon="-1.65846">
        <ele>34.4</ele>
        <time>2020-06-07T12:35:03Z</time>
      </trkpt>
      <trkpt lat="47.26515" lon="-1.65847">
        <ele>34.4</ele>
        <time>2020-06-07T12:35:04Z</time>
      </trkpt>
      <trkpt lat="47.26518" lon="-1.65851">
        <ele>34.3</ele>
        <time>2020-06-07T12:35:05Z</time>
      </trkpt>
      <trkpt lat="47.26519" lon="-1.65852">
        <ele>34.2</ele>
        <time>2020-06-07T12:35:06Z</time>
      </trkpt>
      <trkpt lat="47.26521" lon="-1.65855">
        <ele>34.1</ele>
        <time>2020-06-07T12:35:07Z</time>
      </trkpt>
      <trkpt lat="47.26521" lon="-1.65856">
        <ele>33.8</ele>
        <time>2020-06-07T12:35:08Z</time>
      </trkpt>
      <trkpt lat="47.26521" lon="-1.65858">
        <ele>33.8</ele>
        <time>2020-06-07T12:35:09Z</time>
      </trkpt>
      <trkpt lat="47.26522" lon="-1.6586">
        <ele>33.8</ele>
        <time>2020-06-07T12:35:10Z</time>
      </trkpt>
      <trkpt lat="47.26521" lon="-1.65862">
        <ele>33.8</ele>
        <time>2020-06-07T12:35:11Z</time>
      </trkpt>
      <trkpt lat="47.26521" lon="-1.65863">
        <ele>33.8</ele>
        <time>2020-06-07T12:35:12Z</time>
      </trkpt>
      <trkpt lat="47.26521" lon="-1.65864">
        <ele>33.8</ele>
        <time>2020-06-07T12:35:13Z</time>
      </trkpt>
      <trkpt lat="47.2652" lon="-1.65866">
        <ele>33.8</ele>
        <time>2020-06-07T12:35:14Z</time>
      </trkpt>
      <trkpt lat="47.2652" lon="-1.65867">
        <ele>33.8</ele>
        <time>2020-06-07T12:35:15Z</time>
      </trkpt>
      <trkpt lat="47.26519" lon="-1.65869">
        <ele>33.8</ele>
        <time>2020-06-07T12:35:16Z</time>
      </trkpt>
      <trkpt lat="47.26519" lon="-1.6587">
        <ele>33.8</ele>
        <time>2020-06-07T12:35:17Z</time>
      </trkpt>
      <trkpt lat="47.26519" lon="-1.65871">
        <ele>33.8</ele>
        <time>2020-06-07T12:35:18Z</time>
      </trkpt>
      <trkpt lat="47.26519" lon="-1.65872">
        <ele>33.8</ele>
        <time>2020-06-07T12:35:19Z</time>
      </trkpt>
      <trkpt lat="47.26518" lon="-1.65873">
        <ele>33.8</ele>
        <time>2020-06-07T12:35:20Z</time>
      </trkpt>
      <trkpt lat="47.26518" lon="-1.65875">
        <ele>33.8</ele>
        <time>2020-06-07T12:35:21Z</time>
      </trkpt>
      <trkpt lat="47.26517" lon="-1.65877">
        <ele>34</ele>
        <time>2020-06-07T12:35:22Z</time>
      </trkpt>
      <trkpt lat="47.26516" lon="-1.65878">
        <ele>34</ele>
        <time>2020-06-07T12:35:23Z</time>
      </trkpt>
      <trkpt lat="47.26515" lon="-1.65879">
        <ele>34</ele>
        <time>2020-06-07T12:35:24Z</time>
      </trkpt>
      <trkpt lat="47.26515" lon="-1.6588">
        <ele>34</ele>
        <time>2020-06-07T12:35:25Z</time>
      </trkpt>
      <trkpt lat="47.26515" lon="-1.65882">
        <ele>34</ele>
        <time>2020-06-07T12:35:26Z</time>
      </trkpt>
      <trkpt lat="47.26516" lon="-1.65885">
        <ele>34</ele>
        <time>2020-06-07T12:35:27Z</time>
      </trkpt>
      <trkpt lat="47.26515" lon="-1.65888">
        <ele>34</ele>
        <time>2020-06-07T12:35:28Z</time>
      </trkpt>
      <trkpt lat="47.26514" lon="-1.65889">
        <ele>34</ele>
        <time>2020-06-07T12:35:29Z</time>
      </trkpt>
      <trkpt lat="47.26514" lon="-1.6589">
        <ele>34.1</ele>
        <time>2020-06-07T12:35:30Z</time>
      </trkpt>
      <trkpt lat="47.26513" lon="-1.65892">
        <ele>34.1</ele>
        <time>2020-06-07T12:35:31Z</time>
      </trkpt>
      <trkpt lat="47.26512" lon="-1.65893">
        <ele>34.1</ele>
        <time>2020-06-07T12:35:32Z</time>
      </trkpt>
      <trkpt lat="47.26511" lon="-1.65894">
        <ele>34.1</ele>
        <time>2020-06-07T12:35:33Z</time>
      </trkpt>
      <trkpt lat="47.26511" lon="-1.65895">
        <ele>34.1</ele>
        <time>2020-06-07T12:35:34Z</time>
      </trkpt>
      <trkpt lat="47.2651" lon="-1.65897">
        <ele>34</ele>
        <time>2020-06-07T12:35:35Z</time>
      </trkpt>
      <trkpt lat="47.2651" lon="-1.65899">
        <ele>34</ele>
        <time>2020-06-07T12:35:36Z</time>
      </trkpt>
      <trkpt lat="47.2651" lon="-1.65901">
        <ele>34</ele>
        <time>2020-06-07T12:35:37Z</time>
      </trkpt>
      <trkpt lat="47.26509" lon="-1.65903">
        <ele>34</ele>
        <time>2020-06-07T12:35:38Z</time>
      </trkpt>
      <trkpt lat="47.26509" lon="-1.65905">
        <ele>34</ele>
        <time>2020-06-07T12:35:39Z</time>
      </trkpt>
      <trkpt lat="47.26508" lon="-1.65906">
        <ele>34</ele>
        <time>2020-06-07T12:35:40Z</time>
      </trkpt>
      <trkpt lat="47.26508" lon="-1.65907">
        <ele>34</ele>
        <time>2020-06-07T12:35:41Z</time>
      </trkpt>
      <trkpt lat="47.26508" lon="-1.65909">
        <ele>34</ele>
        <time>2020-06-07T12:35:42Z</time>
      </trkpt>
      <trkpt lat="47.26508" lon="-1.6591">
        <ele>33.9</ele>
        <time>2020-06-07T12:35:43Z</time>
      </trkpt>
      <trkpt lat="47.26508" lon="-1.65912">
        <ele>33.9</ele>
        <time>2020-06-07T12:35:44Z</time>
      </trkpt>
      <trkpt lat="47.26507" lon="-1.65915">
        <ele>33.9</ele>
        <time>2020-06-07T12:35:45Z</time>
      </trkpt>
      <trkpt lat="47.26507" lon="-1.65916">
        <ele>33.9</ele>
        <time>2020-06-07T12:35:46Z</time>
      </trkpt>
      <trkpt lat="47.26507" lon="-1.65917">
        <ele>33.9</ele>
        <time>2020-06-07T12:35:47Z</time>
      </trkpt>
      <trkpt lat="47.26508" lon="-1.65919">
        <ele>33.9</ele>
        <time>2020-06-07T12:35:48Z</time>
      </trkpt>
      <trkpt lat="47.26508" lon="-1.65921">
        <ele>33.9</ele>
        <time>2020-06-07T12:35:49Z</time>
      </trkpt>
      <trkpt lat="47.26507" lon="-1.65923">
        <ele>33.9</ele>
        <time>2020-06-07T12:35:50Z</time>
      </trkpt>
      <trkpt lat="47.26508" lon="-1.65925">
        <ele>33.9</ele>
        <time>2020-06-07T12:35:51Z</time>
      </trkpt>
      <trkpt lat="47.26508" lon="-1.65927">
        <ele>33.9</ele>
        <time>2020-06-07T12:35:52Z</time>
      </trkpt>
      <trkpt lat="47.26508" lon="-1.65928">
        <ele>33.9</ele>
        <time>2020-06-07T12:35:53Z</time>
      </trkpt>
      <trkpt lat="47.26508" lon="-1.65928">
        <ele>33.9</ele>
        <time>2020-06-07T12:35:54Z</time>
      </trkpt>
      <trkpt lat="47.26509" lon="-1.65929">
        <ele>33.9</ele>
        <time>2020-06-07T12:35:55Z</time>
      </trkpt>
      <trkpt lat="47.2651" lon="-1.6593">
        <ele>33.9</ele>
        <time>2020-06-07T12:35:56Z</time>
      </trkpt>
      <trkpt lat="47.26511" lon="-1.65931">
        <ele>33.9</ele>
        <time>2020-06-07T12:35:57Z</time>
      </trkpt>
      <trkpt lat="47.26512" lon="-1.65933">
        <ele>34</ele>
        <time>2020-06-07T12:35:58Z</time>
      </trkpt>
      <trkpt lat="47.26512" lon="-1.65934">
        <ele>34</ele>
        <time>2020-06-07T12:35:59Z</time>
      </trkpt>
      <trkpt lat="47.26512" lon="-1.65934">
        <ele>34</ele>
        <time>2020-06-07T12:36:00Z</time>
      </trkpt>
      <trkpt lat="47.26513" lon="-1.65935">
        <ele>34</ele>
        <time>2020-06-07T12:36:01Z</time>
      </trkpt>
      <trkpt lat="47.26513" lon="-1.65937">
        <ele>34</ele>
        <time>2020-06-07T12:36:02Z</time>
      </trkpt>
      <trkpt lat="47.26513" lon="-1.65938">
        <ele>34</ele>
        <time>2020-06-07T12:36:03Z</time>
      </trkpt>
      <trkpt lat="47.26513" lon="-1.65939">
        <ele>34</ele>
        <time>2020-06-07T12:36:04Z</time>
      </trkpt>
      <trkpt lat="47.26513" lon="-1.6594">
        <ele>34</ele>
        <time>2020-06-07T12:36:05Z</time>
      </trkpt>
      <trkpt lat="47.26513" lon="-1.65942">
        <ele>34</ele>
        <time>2020-06-07T12:36:06Z</time>
      </trkpt>
      <trkpt lat="47.26514" lon="-1.65945">
        <ele>34</ele>
        <time>2020-06-07T12:36:07Z</time>
      </trkpt>
      <trkpt lat="47.26515" lon="-1.65946">
        <ele>34</ele>
        <time>2020-06-07T12:36:08Z</time>
      </trkpt>
      <trkpt lat="47.26515" lon="-1.65947">
        <ele>34</ele>
        <time>2020-06-07T12:36:09Z</time>
      </trkpt>
      <trkpt lat="47.26516" lon="-1.65948">
        <ele>34.1</ele>
        <time>2020-06-07T12:36:10Z</time>
      </trkpt>
      <trkpt lat="47.26516" lon="-1.65949">
        <ele>34.1</ele>
        <time>2020-06-07T12:36:11Z</time>
      </trkpt>
      <trkpt lat="47.26517" lon="-1.6595">
        <ele>34.1</ele>
        <time>2020-06-07T12:36:12Z</time>
      </trkpt>
      <trkpt lat="47.26517" lon="-1.65951">
        <ele>34.1</ele>
        <time>2020-06-07T12:36:13Z</time>
      </trkpt>
      <trkpt lat="47.26518" lon="-1.65953">
        <ele>34.1</ele>
        <time>2020-06-07T12:36:14Z</time>
      </trkpt>
      <trkpt lat="47.26519" lon="-1.65954">
        <ele>34.1</ele>
        <time>2020-06-07T12:36:15Z</time>
      </trkpt>
      <trkpt lat="47.2652" lon="-1.65955">
        <ele>34.1</ele>
        <time>2020-06-07T12:36:16Z</time>
      </trkpt>
      <trkpt lat="47.26521" lon="-1.65957">
        <ele>34.2</ele>
        <time>2020-06-07T12:36:17Z</time>
      </trkpt>
      <trkpt lat="47.26522" lon="-1.65959">
        <ele>34.2</ele>
        <time>2020-06-07T12:36:18Z</time>
      </trkpt>
      <trkpt lat="47.26523" lon="-1.65961">
        <ele>34.2</ele>
        <time>2020-06-07T12:36:19Z</time>
      </trkpt>
      <trkpt lat="47.26523" lon="-1.65963">
        <ele>34.2</ele>
        <time>2020-06-07T12:36:20Z</time>
      </trkpt>
      <trkpt lat="47.26523" lon="-1.65964">
        <ele>34.3</ele>
        <time>2020-06-07T12:36:21Z</time>
      </trkpt>
      <trkpt lat="47.26524" lon="-1.65966">
        <ele>34.3</ele>
        <time>2020-06-07T12:36:22Z</time>
      </trkpt>
      <trkpt lat="47.26524" lon="-1.65967">
        <ele>34.3</ele>
        <time>2020-06-07T12:36:23Z</time>
      </trkpt>
      <trkpt lat="47.26525" lon="-1.65969">
        <ele>34.3</ele>
        <time>2020-06-07T12:36:24Z</time>
      </trkpt>
      <trkpt lat="47.26525" lon="-1.6597">
        <ele>34.3</ele>
        <time>2020-06-07T12:36:25Z</time>
      </trkpt>
      <trkpt lat="47.26525" lon="-1.65972">
        <ele>34.3</ele>
        <time>2020-06-07T12:36:26Z</time>
      </trkpt>
      <trkpt lat="47.26525" lon="-1.65974">
        <ele>34.4</ele>
        <time>2020-06-07T12:36:27Z</time>
      </trkpt>
      <trkpt lat="47.26526" lon="-1.65976">
        <ele>34.4</ele>
        <time>2020-06-07T12:36:28Z</time>
      </trkpt>
      <trkpt lat="47.26526" lon="-1.65978">
        <ele>34.5</ele>
        <time>2020-06-07T12:36:29Z</time>
      </trkpt>
      <trkpt lat="47.26527" lon="-1.65979">
        <ele>34.5</ele>
        <time>2020-06-07T12:36:30Z</time>
      </trkpt>
      <trkpt lat="47.26528" lon="-1.65981">
        <ele>34.5</ele>
        <time>2020-06-07T12:36:31Z</time>
      </trkpt>
      <trkpt lat="47.26528" lon="-1.65983">
        <ele>34.5</ele>
        <time>2020-06-07T12:36:32Z</time>
      </trkpt>
      <trkpt lat="47.26529" lon="-1.65985">
        <ele>34.5</ele>
        <time>2020-06-07T12:36:33Z</time>
      </trkpt>
      <trkpt lat="47.26529" lon="-1.65986">
        <ele>34.5</ele>
        <time>2020-06-07T12:36:34Z</time>
      </trkpt>
      <trkpt lat="47.2653" lon="-1.65987">
        <ele>34.6</ele>
        <time>2020-06-07T12:36:35Z</time>
      </trkpt>
      <trkpt lat="47.26531" lon="-1.65989">
        <ele>34.6</ele>
        <time>2020-06-07T12:36:36Z</time>
      </trkpt>
      <trkpt lat="47.26531" lon="-1.6599">
        <ele>34.6</ele>
        <time>2020-06-07T12:36:37Z</time>
      </trkpt>
      <trkpt lat="47.26532" lon="-1.65992">
        <ele>34.6</ele>
        <time>2020-06-07T12:36:38Z</time>
      </trkpt>
      <trkpt lat="47.26533" lon="-1.65993">
        <ele>34.6</ele>
        <time>2020-06-07T12:36:39Z</time>
      </trkpt>
      <trkpt lat="47.26533" lon="-1.65995">
        <ele>34.6</ele>
        <time>2020-06-07T12:36:40Z</time>
      </trkpt>
      <trkpt lat="47.26533" lon="-1.65996">
        <ele>34.6</ele>
        <time>2020-06-07T12:36:41Z</time>
      </trkpt>
      <trkpt lat="47.26533" lon="-1.65997">
        <ele>34.6</ele>
        <time>2020-06-07T12:36:42Z</time>
      </trkpt>
      <trkpt lat="47.26533" lon="-1.65999">
        <ele>34.6</ele>
        <time>2020-06-07T12:36:43Z</time>
      </trkpt>
      <trkpt lat="47.26533" lon="-1.66">
        <ele>34.6</ele>
        <time>2020-06-07T12:36:44Z</time>
      </trkpt>
      <trkpt lat="47.26532" lon="-1.66001">
        <ele>34.6</ele>
        <time>2020-06-07T12:36:45Z</time>
      </trkpt>
      <trkpt lat="47.26532" lon="-1.66002">
        <ele>34.6</ele>
        <time>2020-06-07T12:36:46Z</time>
      </trkpt>
      <trkpt lat="47.26531" lon="-1.66003">
        <ele>34.6</ele>
        <time>2020-06-07T12:36:47Z</time>
      </trkpt>
      <trkpt lat="47.26531" lon="-1.66005">
        <ele>34.6</ele>
        <time>2020-06-07T12:36:48Z</time>
      </trkpt>
      <trkpt lat="47.26531" lon="-1.66006">
        <ele>34.6</ele>
        <time>2020-06-07T12:36:49Z</time>
      </trkpt>
      <trkpt lat="47.2653" lon="-1.66007">
        <ele>34.6</ele>
        <time>2020-06-07T12:36:50Z</time>
      </trkpt>
      <trkpt lat="47.2653" lon="-1.66009">
        <ele>34.6</ele>
        <time>2020-06-07T12:36:51Z</time>
      </trkpt>
      <trkpt lat="47.2653" lon="-1.66011">
        <ele>34.6</ele>
        <time>2020-06-07T12:36:52Z</time>
      </trkpt>
      <trkpt lat="47.26531" lon="-1.66012">
        <ele>34.6</ele>
        <time>2020-06-07T12:36:53Z</time>
      </trkpt>
      <trkpt lat="47.26531" lon="-1.66014">
        <ele>34.6</ele>
        <time>2020-06-07T12:36:54Z</time>
      </trkpt>
      <trkpt lat="47.26531" lon="-1.66015">
        <ele>34.6</ele>
        <time>2020-06-07T12:36:55Z</time>
      </trkpt>
      <trkpt lat="47.26532" lon="-1.66017">
        <ele>34.6</ele>
        <time>2020-06-07T12:36:56Z</time>
      </trkpt>
      <trkpt lat="47.26532" lon="-1.66018">
        <ele>34.6</ele>
        <time>2020-06-07T12:36:57Z</time>
      </trkpt>
      <trkpt lat="47.26533" lon="-1.6602">
        <ele>34.6</ele>
        <time>2020-06-07T12:36:58Z</time>
      </trkpt>
      <trkpt lat="47.26533" lon="-1.66021">
        <ele>34.6</ele>
        <time>2020-06-07T12:36:59Z</time>
      </trkpt>
      <trkpt lat="47.26533" lon="-1.66023">
        <ele>34.6</ele>
        <time>2020-06-07T12:37:00Z</time>
      </trkpt>
      <trkpt lat="47.26533" lon="-1.66024">
        <ele>34.6</ele>
        <time>2020-06-07T12:37:01Z</time>
      </trkpt>
      <trkpt lat="47.26533" lon="-1.66025">
        <ele>34.6</ele>
        <time>2020-06-07T12:37:02Z</time>
      </trkpt>
      <trkpt lat="47.26533" lon="-1.66025">
        <ele>34.6</ele>
        <time>2020-06-07T12:37:03Z</time>
      </trkpt>
      <trkpt lat="47.26534" lon="-1.66027">
        <ele>34.6</ele>
        <time>2020-06-07T12:37:04Z</time>
      </trkpt>
      <trkpt lat="47.26534" lon="-1.66028">
        <ele>34.6</ele>
        <time>2020-06-07T12:37:05Z</time>
      </trkpt>
      <trkpt lat="47.26535" lon="-1.66028">
        <ele>34.6</ele>
        <time>2020-06-07T12:37:06Z</time>
      </trkpt>
      <trkpt lat="47.26536" lon="-1.66029">
        <ele>34.6</ele>
        <time>2020-06-07T12:37:07Z</time>
      </trkpt>
      <trkpt lat="47.26537" lon="-1.6603">
        <ele>34.5</ele>
        <time>2020-06-07T12:37:08Z</time>
      </trkpt>
      <trkpt lat="47.26538" lon="-1.66031">
        <ele>34.5</ele>
        <time>2020-06-07T12:37:09Z</time>
      </trkpt>
      <trkpt lat="47.26539" lon="-1.66032">
        <ele>34.5</ele>
        <time>2020-06-07T12:37:10Z</time>
      </trkpt>
      <trkpt lat="47.26541" lon="-1.66033">
        <ele>34.5</ele>
        <time>2020-06-07T12:37:11Z</time>
      </trkpt>
      <trkpt lat="47.26542" lon="-1.66033">
        <ele>34.5</ele>
        <time>2020-06-07T12:37:12Z</time>
      </trkpt>
      <trkpt lat="47.26543" lon="-1.66033">
        <ele>34.5</ele>
        <time>2020-06-07T12:37:13Z</time>
      </trkpt>
      <trkpt lat="47.26544" lon="-1.66034">
        <ele>34.5</ele>
        <time>2020-06-07T12:37:14Z</time>
      </trkpt>
      <trkpt lat="47.26545" lon="-1.66035">
        <ele>34.4</ele>
        <time>2020-06-07T12:37:15Z</time>
      </trkpt>
      <trkpt lat="47.26546" lon="-1.66035">
        <ele>34.4</ele>
        <time>2020-06-07T12:37:16Z</time>
      </trkpt>
      <trkpt lat="47.26546" lon="-1.66036">
        <ele>34.4</ele>
        <time>2020-06-07T12:37:17Z</time>
      </trkpt>
      <trkpt lat="47.26546" lon="-1.66036">
        <ele>34.4</ele>
        <time>2020-06-07T12:37:18Z</time>
      </trkpt>
      <trkpt lat="47.26546" lon="-1.66037">
        <ele>34.4</ele>
        <time>2020-06-07T12:37:19Z</time>
      </trkpt>
      <trkpt lat="47.26547" lon="-1.66038">
        <ele>34.4</ele>
        <time>2020-06-07T12:37:20Z</time>
      </trkpt>
      <trkpt lat="47.26547" lon="-1.66038">
        <ele>34.4</ele>
        <time>2020-06-07T12:37:21Z</time>
      </trkpt>
      <trkpt lat="47.26548" lon="-1.66039">
        <ele>34.4</ele>
        <time>2020-06-07T12:37:22Z</time>
      </trkpt>
      <trkpt lat="47.26548" lon="-1.66039">
        <ele>34.4</ele>
        <time>2020-06-07T12:37:23Z</time>
      </trkpt>
      <trkpt lat="47.26549" lon="-1.6604">
        <ele>34.4</ele>
        <time>2020-06-07T12:37:24Z</time>
      </trkpt>
      <trkpt lat="47.26549" lon="-1.66041">
        <ele>34.4</ele>
        <time>2020-06-07T12:37:25Z</time>
      </trkpt>
      <trkpt lat="47.26549" lon="-1.66041">
        <ele>34.4</ele>
        <time>2020-06-07T12:37:26Z</time>
      </trkpt>
      <trkpt lat="47.26551" lon="-1.66043">
        <ele>34.3</ele>
        <time>2020-06-07T12:37:27Z</time>
      </trkpt>
      <trkpt lat="47.26552" lon="-1.66043">
        <ele>34.3</ele>
        <time>2020-06-07T12:37:28Z</time>
      </trkpt>
      <trkpt lat="47.26553" lon="-1.66044">
        <ele>34.3</ele>
        <time>2020-06-07T12:37:29Z</time>
      </trkpt>
      <trkpt lat="47.26554" lon="-1.66044">
        <ele>34.3</ele>
        <time>2020-06-07T12:37:30Z</time>
      </trkpt>
      <trkpt lat="47.26555" lon="-1.66044">
        <ele>34.3</ele>
        <time>2020-06-07T12:37:31Z</time>
      </trkpt>
      <trkpt lat="47.26557" lon="-1.66044">
        <ele>34.2</ele>
        <time>2020-06-07T12:37:32Z</time>
      </trkpt>
      <trkpt lat="47.26557" lon="-1.66043">
        <ele>34.2</ele>
        <time>2020-06-07T12:37:33Z</time>
      </trkpt>
      <trkpt lat="47.26557" lon="-1.66042">
        <ele>34.2</ele>
        <time>2020-06-07T12:37:34Z</time>
      </trkpt>
      <trkpt lat="47.26557" lon="-1.66041">
        <ele>34.2</ele>
        <time>2020-06-07T12:37:35Z</time>
      </trkpt>
      <trkpt lat="47.26557" lon="-1.66041">
        <ele>34.2</ele>
        <time>2020-06-07T12:37:36Z</time>
      </trkpt>
      <trkpt lat="47.26558" lon="-1.6604">
        <ele>34.2</ele>
        <time>2020-06-07T12:37:37Z</time>
      </trkpt>
      <trkpt lat="47.26558" lon="-1.66039">
        <ele>34.2</ele>
        <time>2020-06-07T12:37:38Z</time>
      </trkpt>
      <trkpt lat="47.26558" lon="-1.66039">
        <ele>34.2</ele>
        <time>2020-06-07T12:37:39Z</time>
      </trkpt>
      <trkpt lat="47.26557" lon="-1.66038">
        <ele>34.2</ele>
        <time>2020-06-07T12:37:40Z</time>
      </trkpt>
      <trkpt lat="47.26556" lon="-1.66039">
        <ele>34.1</ele>
        <time>2020-06-07T12:37:41Z</time>
      </trkpt>
      <trkpt lat="47.26555" lon="-1.66039">
        <ele>34.1</ele>
        <time>2020-06-07T12:37:42Z</time>
      </trkpt>
      <trkpt lat="47.26555" lon="-1.6604">
        <ele>34.1</ele>
        <time>2020-06-07T12:37:43Z</time>
      </trkpt>
      <trkpt lat="47.26554" lon="-1.6604">
        <ele>34.1</ele>
        <time>2020-06-07T12:37:44Z</time>
      </trkpt>
      <trkpt lat="47.26555" lon="-1.6604">
        <ele>34.1</ele>
        <time>2020-06-07T12:37:45Z</time>
      </trkpt>
      <trkpt lat="47.26555" lon="-1.6604">
        <ele>34.1</ele>
        <time>2020-06-07T12:37:46Z</time>
      </trkpt>
      <trkpt lat="47.26555" lon="-1.66041">
        <ele>34.1</ele>
        <time>2020-06-07T12:37:47Z</time>
      </trkpt>
      <trkpt lat="47.26555" lon="-1.66041">
        <ele>34.1</ele>
        <time>2020-06-07T12:37:48Z</time>
      </trkpt>
      <trkpt lat="47.26555" lon="-1.66041">
        <ele>34.1</ele>
        <time>2020-06-07T12:37:49Z</time>
      </trkpt>
      <trkpt lat="47.26555" lon="-1.66041">
        <ele>34.1</ele>
        <time>2020-06-07T12:37:50Z</time>
      </trkpt>
      <trkpt lat="47.26555" lon="-1.66041">
        <ele>34.1</ele>
        <time>2020-06-07T12:37:51Z</time>
      </trkpt>
      <trkpt lat="47.26555" lon="-1.66041">
        <ele>34.1</ele>
        <time>2020-06-07T12:37:52Z</time>
      </trkpt>
      <trkpt lat="47.26555" lon="-1.66042">
        <ele>34.1</ele>
        <time>2020-06-07T12:37:53Z</time>
      </trkpt>
      <trkpt lat="47.26555" lon="-1.66042">
        <ele>34.1</ele>
        <time>2020-06-07T12:37:54Z</time>
      </trkpt>
      <trkpt lat="47.26556" lon="-1.66042">
        <ele>34.1</ele>
        <time>2020-06-07T12:38:39Z</time>
      </trkpt>
      <trkpt lat="47.26556" lon="-1.66042">
        <ele>34.1</ele>
        <time>2020-06-07T12:38:40Z</time>
      </trkpt>
      <trkpt lat="47.26556" lon="-1.66042">
        <ele>34.1</ele>
        <time>2020-06-07T12:38:41Z</time>
      </trkpt>
      <trkpt lat="47.26556" lon="-1.66042">
        <ele>34.1</ele>
        <time>2020-06-07T12:38:42Z</time>
      </trkpt>
      <trkpt lat="47.26556" lon="-1.66043">
        <ele>34.1</ele>
        <time>2020-06-07T12:38:43Z</time>
      </trkpt>
      <trkpt lat="47.26556" lon="-1.66043">
        <ele>34.1</ele>
        <time>2020-06-07T12:38:44Z</time>
      </trkpt>
      <trkpt lat="47.26556" lon="-1.66043">
        <ele>34.1</ele>
        <time>2020-06-07T12:38:45Z</time>
      </trkpt>
      <trkpt lat="47.26556" lon="-1.66043">
        <ele>34.1</ele>
        <time>2020-06-07T12:38:46Z</time>
      </trkpt>
      <trkpt lat="47.26556" lon="-1.66043">
        <ele>34.1</ele>
        <time>2020-06-07T12:38:47Z</time>
      </trkpt>
      <trkpt lat="47.26556" lon="-1.66043">
        <ele>34.1</ele>
        <time>2020-06-07T12:38:48Z</time>
      </trkpt>
      <trkpt lat="47.26555" lon="-1.66044">
        <ele>34.1</ele>
        <time>2020-06-07T12:38:49Z</time>
      </trkpt>
      <trkpt lat="47.26555" lon="-1.66044">
        <ele>34.1</ele>
        <time>2020-06-07T12:38:50Z</time>
      </trkpt>
      <trkpt lat="47.26555" lon="-1.66044">
        <ele>34.1</ele>
        <time>2020-06-07T12:38:51Z</time>
      </trkpt>
      <trkpt lat="47.26555" lon="-1.66044">
        <ele>34.1</ele>
        <time>2020-06-07T12:38:52Z</time>
      </trkpt>
      <trkpt lat="47.26555" lon="-1.66046">
        <ele>34</ele>
        <time>2020-06-07T12:38:53Z</time>
      </trkpt>
      <trkpt lat="47.26555" lon="-1.66047">
        <ele>34</ele>
        <time>2020-06-07T12:38:54Z</time>
      </trkpt>
      <trkpt lat="47.26555" lon="-1.66048">
        <ele>34</ele>
        <time>2020-06-07T12:38:55Z</time>
      </trkpt>
      <trkpt lat="47.26556" lon="-1.66048">
        <ele>34</ele>
        <time>2020-06-07T12:38:56Z</time>
      </trkpt>
      <trkpt lat="47.26556" lon="-1.66048">
        <ele>34</ele>
        <time>2020-06-07T12:38:57Z</time>
      </trkpt>
      <trkpt lat="47.26556" lon="-1.66048">
        <ele>34</ele>
        <time>2020-06-07T12:38:58Z</time>
      </trkpt>
      <trkpt lat="47.26557" lon="-1.66049">
        <ele>34</ele>
        <time>2020-06-07T12:38:59Z</time>
      </trkpt>
      <trkpt lat="47.26557" lon="-1.66049">
        <ele>34</ele>
        <time>2020-06-07T12:39:00Z</time>
      </trkpt>
      <trkpt lat="47.26557" lon="-1.66049">
        <ele>34</ele>
        <time>2020-06-07T12:39:01Z</time>
      </trkpt>
      <trkpt lat="47.26557" lon="-1.66049">
        <ele>34</ele>
        <time>2020-06-07T12:39:02Z</time>
      </trkpt>
      <trkpt lat="47.26558" lon="-1.6605">
        <ele>34</ele>
        <time>2020-06-07T12:39:03Z</time>
      </trkpt>
      <trkpt lat="47.26558" lon="-1.6605">
        <ele>34</ele>
        <time>2020-06-07T12:39:04Z</time>
      </trkpt>
      <trkpt lat="47.26558" lon="-1.6605">
        <ele>34</ele>
        <time>2020-06-07T12:39:05Z</time>
      </trkpt>
      <trkpt lat="47.26559" lon="-1.66051">
        <ele>34</ele>
        <time>2020-06-07T12:39:06Z</time>
      </trkpt>
      <trkpt lat="47.26559" lon="-1.66051">
        <ele>34</ele>
        <time>2020-06-07T12:39:07Z</time>
      </trkpt>
      <trkpt lat="47.2656" lon="-1.66052">
        <ele>34</ele>
        <time>2020-06-07T12:39:08Z</time>
      </trkpt>
      <trkpt lat="47.2656" lon="-1.66052">
        <ele>34</ele>
        <time>2020-06-07T12:39:09Z</time>
      </trkpt>
      <trkpt lat="47.2656" lon="-1.66052">
        <ele>34</ele>
        <time>2020-06-07T12:39:10Z</time>
      </trkpt>
      <trkpt lat="47.2656" lon="-1.66052">
        <ele>34</ele>
        <time>2020-06-07T12:39:11Z</time>
      </trkpt>
      <trkpt lat="47.26561" lon="-1.66052">
        <ele>34</ele>
        <time>2020-06-07T12:39:12Z</time>
      </trkpt>
      <trkpt lat="47.26561" lon="-1.66052">
        <ele>34</ele>
        <time>2020-06-07T12:39:13Z</time>
      </trkpt>
      <trkpt lat="47.26561" lon="-1.66052">
        <ele>34</ele>
        <time>2020-06-07T12:39:14Z</time>
      </trkpt>
      <trkpt lat="47.26561" lon="-1.66052">
        <ele>34</ele>
        <time>2020-06-07T12:39:15Z</time>
      </trkpt>
      <trkpt lat="47.26561" lon="-1.66052">
        <ele>34</ele>
        <time>2020-06-07T12:39:16Z</time>
      </trkpt>
      <trkpt lat="47.26561" lon="-1.66052">
        <ele>34</ele>
        <time>2020-06-07T12:39:17Z</time>
      </trkpt>
      <trkpt lat="47.26562" lon="-1.66051">
        <ele>34</ele>
        <time>2020-06-07T12:39:18Z</time>
      </trkpt>
      <trkpt lat="47.26562" lon="-1.66051">
        <ele>34</ele>
        <time>2020-06-07T12:39:19Z</time>
      </trkpt>
      <trkpt lat="47.26561" lon="-1.66051">
        <ele>34</ele>
        <time>2020-06-07T12:39:20Z</time>
      </trkpt>
      <trkpt lat="47.26561" lon="-1.66051">
        <ele>33.9</ele>
        <time>2020-06-07T12:39:21Z</time>
      </trkpt>
      <trkpt lat="47.26561" lon="-1.6605">
        <ele>33.9</ele>
        <time>2020-06-07T12:39:22Z</time>
      </trkpt>
      <trkpt lat="47.26561" lon="-1.6605">
        <ele>33.9</ele>
        <time>2020-06-07T12:39:23Z</time>
      </trkpt>
      <trkpt lat="47.26561" lon="-1.6605">
        <ele>33.9</ele>
        <time>2020-06-07T12:39:24Z</time>
      </trkpt>
      <trkpt lat="47.26561" lon="-1.6605">
        <ele>33.9</ele>
        <time>2020-06-07T12:39:25Z</time>
      </trkpt>
      <trkpt lat="47.26561" lon="-1.6605">
        <ele>33.9</ele>
        <time>2020-06-07T12:39:26Z</time>
      </trkpt>
      <trkpt lat="47.26561" lon="-1.6605">
        <ele>33.9</ele>
        <time>2020-06-07T12:39:27Z</time>
      </trkpt>
      <trkpt lat="47.26561" lon="-1.6605">
        <ele>33.9</ele>
        <time>2020-06-07T12:39:28Z</time>
      </trkpt>
      <trkpt lat="47.26561" lon="-1.6605">
        <ele>33.9</ele>
        <time>2020-06-07T12:39:29Z</time>
      </trkpt>
      <trkpt lat="47.26561" lon="-1.6605">
        <ele>33.9</ele>
        <time>2020-06-07T12:39:30Z</time>
      </trkpt>
      <trkpt lat="47.26561" lon="-1.6605">
        <ele>33.9</ele>
        <time>2020-06-07T12:39:31Z</time>
      </trkpt>
      <trkpt lat="47.26561" lon="-1.66048">
        <ele>33.9</ele>
        <time>2020-06-07T12:39:32Z</time>
      </trkpt>
      <trkpt lat="47.26561" lon="-1.66048">
        <ele>33.9</ele>
        <time>2020-06-07T12:39:33Z</time>
      </trkpt>
      <trkpt lat="47.26558" lon="-1.66048">
        <ele>33.9</ele>
        <time>2020-06-07T12:40:16Z</time>
      </trkpt>
      <trkpt lat="47.26559" lon="-1.66048">
        <ele>33.9</ele>
        <time>2020-06-07T12:40:17Z</time>
      </trkpt>
      <trkpt lat="47.2656" lon="-1.66047">
        <ele>33.9</ele>
        <time>2020-06-07T12:40:18Z</time>
      </trkpt>
      <trkpt lat="47.26561" lon="-1.66047">
        <ele>33.9</ele>
        <time>2020-06-07T12:40:19Z</time>
      </trkpt>
      <trkpt lat="47.26562" lon="-1.66047">
        <ele>33.9</ele>
        <time>2020-06-07T12:40:20Z</time>
      </trkpt>
      <trkpt lat="47.26564" lon="-1.66048">
        <ele>33.9</ele>
        <time>2020-06-07T12:40:21Z</time>
      </trkpt>
      <trkpt lat="47.26565" lon="-1.66048">
        <ele>33.9</ele>
        <time>2020-06-07T12:40:22Z</time>
      </trkpt>
      <trkpt lat="47.26566" lon="-1.66048">
        <ele>33.9</ele>
        <time>2020-06-07T12:40:23Z</time>
      </trkpt>
      <trkpt lat="47.26567" lon="-1.66048">
        <ele>33.9</ele>
        <time>2020-06-07T12:40:24Z</time>
      </trkpt>
      <trkpt lat="47.26568" lon="-1.66047">
        <ele>33.9</ele>
        <time>2020-06-07T12:40:25Z</time>
      </trkpt>
      <trkpt lat="47.26568" lon="-1.66047">
        <ele>33.9</ele>
        <time>2020-06-07T12:40:26Z</time>
      </trkpt>
      <trkpt lat="47.26569" lon="-1.66047">
        <ele>33.9</ele>
        <time>2020-06-07T12:40:27Z</time>
      </trkpt>
      <trkpt lat="47.26569" lon="-1.66047">
        <ele>33.9</ele>
        <time>2020-06-07T12:40:28Z</time>
      </trkpt>
      <trkpt lat="47.2657" lon="-1.66047">
        <ele>33.9</ele>
        <time>2020-06-07T12:40:29Z</time>
      </trkpt>
      <trkpt lat="47.26571" lon="-1.66046">
        <ele>33.9</ele>
        <time>2020-06-07T12:40:30Z</time>
      </trkpt>
      <trkpt lat="47.26573" lon="-1.66046">
        <ele>33.9</ele>
        <time>2020-06-07T12:40:31Z</time>
      </trkpt>
      <trkpt lat="47.26574" lon="-1.66046">
        <ele>33.9</ele>
        <time>2020-06-07T12:40:32Z</time>
      </trkpt>
      <trkpt lat="47.26575" lon="-1.66047">
        <ele>33.9</ele>
        <time>2020-06-07T12:40:33Z</time>
      </trkpt>
      <trkpt lat="47.26576" lon="-1.66047">
        <ele>33.9</ele>
        <time>2020-06-07T12:40:34Z</time>
      </trkpt>
      <trkpt lat="47.26578" lon="-1.66048">
        <ele>33.9</ele>
        <time>2020-06-07T12:40:35Z</time>
      </trkpt>
      <trkpt lat="47.26579" lon="-1.66048">
        <ele>33.9</ele>
        <time>2020-06-07T12:40:36Z</time>
      </trkpt>
      <trkpt lat="47.2658" lon="-1.66048">
        <ele>33.9</ele>
        <time>2020-06-07T12:40:37Z</time>
      </trkpt>
      <trkpt lat="47.26581" lon="-1.66048">
        <ele>34</ele>
        <time>2020-06-07T12:40:38Z</time>
      </trkpt>
      <trkpt lat="47.26582" lon="-1.66049">
        <ele>34</ele>
        <time>2020-06-07T12:40:39Z</time>
      </trkpt>
      <trkpt lat="47.26584" lon="-1.66049">
        <ele>34</ele>
        <time>2020-06-07T12:40:40Z</time>
      </trkpt>
      <trkpt lat="47.26585" lon="-1.66049">
        <ele>34</ele>
        <time>2020-06-07T12:40:41Z</time>
      </trkpt>
      <trkpt lat="47.26586" lon="-1.6605">
        <ele>34</ele>
        <time>2020-06-07T12:40:42Z</time>
      </trkpt>
      <trkpt lat="47.26587" lon="-1.66051">
        <ele>34</ele>
        <time>2020-06-07T12:40:43Z</time>
      </trkpt>
      <trkpt lat="47.26588" lon="-1.66051">
        <ele>34</ele>
        <time>2020-06-07T12:40:44Z</time>
      </trkpt>
      <trkpt lat="47.26589" lon="-1.66052">
        <ele>34</ele>
        <time>2020-06-07T12:40:45Z</time>
      </trkpt>
      <trkpt lat="47.26589" lon="-1.66052">
        <ele>34</ele>
        <time>2020-06-07T12:40:46Z</time>
      </trkpt>
      <trkpt lat="47.2659" lon="-1.66052">
        <ele>34</ele>
        <time>2020-06-07T12:40:47Z</time>
      </trkpt>
      <trkpt lat="47.2659" lon="-1.66052">
        <ele>34</ele>
        <time>2020-06-07T12:40:48Z</time>
      </trkpt>
      <trkpt lat="47.2659" lon="-1.66053">
        <ele>34</ele>
        <time>2020-06-07T12:40:49Z</time>
      </trkpt>
      <trkpt lat="47.26591" lon="-1.66054">
        <ele>34</ele>
        <time>2020-06-07T12:40:50Z</time>
      </trkpt>
      <trkpt lat="47.26591" lon="-1.66055">
        <ele>34</ele>
        <time>2020-06-07T12:40:51Z</time>
      </trkpt>
      <trkpt lat="47.26591" lon="-1.66056">
        <ele>34</ele>
        <time>2020-06-07T12:40:52Z</time>
      </trkpt>
      <trkpt lat="47.26591" lon="-1.66057">
        <ele>34</ele>
        <time>2020-06-07T12:40:53Z</time>
      </trkpt>
      <trkpt lat="47.26592" lon="-1.66058">
        <ele>34</ele>
        <time>2020-06-07T12:40:54Z</time>
      </trkpt>
      <trkpt lat="47.26593" lon="-1.66059">
        <ele>34</ele>
        <time>2020-06-07T12:40:55Z</time>
      </trkpt>
      <trkpt lat="47.26593" lon="-1.66061">
        <ele>34</ele>
        <time>2020-06-07T12:40:56Z</time>
      </trkpt>
      <trkpt lat="47.26594" lon="-1.66062">
        <ele>34</ele>
        <time>2020-06-07T12:40:57Z</time>
      </trkpt>
      <trkpt lat="47.26594" lon="-1.66064">
        <ele>34</ele>
        <time>2020-06-07T12:40:58Z</time>
      </trkpt>
      <trkpt lat="47.26595" lon="-1.66064">
        <ele>34</ele>
        <time>2020-06-07T12:40:59Z</time>
      </trkpt>
      <trkpt lat="47.26595" lon="-1.66065">
        <ele>34</ele>
        <time>2020-06-07T12:41:00Z</time>
      </trkpt>
      <trkpt lat="47.26596" lon="-1.66066">
        <ele>34</ele>
        <time>2020-06-07T12:41:01Z</time>
      </trkpt>
      <trkpt lat="47.26598" lon="-1.66068">
        <ele>34</ele>
        <time>2020-06-07T12:41:02Z</time>
      </trkpt>
      <trkpt lat="47.26599" lon="-1.66068">
        <ele>34</ele>
        <time>2020-06-07T12:41:03Z</time>
      </trkpt>
      <trkpt lat="47.266" lon="-1.66069">
        <ele>34</ele>
        <time>2020-06-07T12:41:04Z</time>
      </trkpt>
      <trkpt lat="47.26603" lon="-1.66069">
        <ele>34</ele>
        <time>2020-06-07T12:41:05Z</time>
      </trkpt>
      <trkpt lat="47.26604" lon="-1.66069">
        <ele>34</ele>
        <time>2020-06-07T12:41:06Z</time>
      </trkpt>
      <trkpt lat="47.26606" lon="-1.66069">
        <ele>34.1</ele>
        <time>2020-06-07T12:41:07Z</time>
      </trkpt>
      <trkpt lat="47.26607" lon="-1.66069">
        <ele>34.1</ele>
        <time>2020-06-07T12:41:08Z</time>
      </trkpt>
      <trkpt lat="47.26609" lon="-1.6607">
        <ele>34.1</ele>
        <time>2020-06-07T12:41:09Z</time>
      </trkpt>
      <trkpt lat="47.2661" lon="-1.66071">
        <ele>34.1</ele>
        <time>2020-06-07T12:41:10Z</time>
      </trkpt>
      <trkpt lat="47.26611" lon="-1.66071">
        <ele>34.1</ele>
        <time>2020-06-07T12:41:11Z</time>
      </trkpt>
      <trkpt lat="47.26612" lon="-1.66072">
        <ele>34.1</ele>
        <time>2020-06-07T12:41:12Z</time>
      </trkpt>
      <trkpt lat="47.26613" lon="-1.66073">
        <ele>34.1</ele>
        <time>2020-06-07T12:41:13Z</time>
      </trkpt>
      <trkpt lat="47.26615" lon="-1.66074">
        <ele>34.1</ele>
        <time>2020-06-07T12:41:14Z</time>
      </trkpt>
      <trkpt lat="47.26615" lon="-1.66075">
        <ele>34.1</ele>
        <time>2020-06-07T12:41:15Z</time>
      </trkpt>
      <trkpt lat="47.26616" lon="-1.66075">
        <ele>34.1</ele>
        <time>2020-06-07T12:41:16Z</time>
      </trkpt>
      <trkpt lat="47.26618" lon="-1.66076">
        <ele>34.1</ele>
        <time>2020-06-07T12:41:17Z</time>
      </trkpt>
      <trkpt lat="47.26618" lon="-1.66077">
        <ele>34.1</ele>
        <time>2020-06-07T12:41:18Z</time>
      </trkpt>
      <trkpt lat="47.26619" lon="-1.66078">
        <ele>34.1</ele>
        <time>2020-06-07T12:41:19Z</time>
      </trkpt>
      <trkpt lat="47.26619" lon="-1.66078">
        <ele>34.1</ele>
        <time>2020-06-07T12:41:20Z</time>
      </trkpt>
      <trkpt lat="47.2662" lon="-1.66079">
        <ele>34.2</ele>
        <time>2020-06-07T12:41:21Z</time>
      </trkpt>
      <trkpt lat="47.26621" lon="-1.6608">
        <ele>34.2</ele>
        <time>2020-06-07T12:41:22Z</time>
      </trkpt>
      <trkpt lat="47.26623" lon="-1.66081">
        <ele>34.2</ele>
        <time>2020-06-07T12:41:23Z</time>
      </trkpt>
      <trkpt lat="47.26624" lon="-1.66082">
        <ele>34.2</ele>
        <time>2020-06-07T12:41:24Z</time>
      </trkpt>
      <trkpt lat="47.26625" lon="-1.66083">
        <ele>34.2</ele>
        <time>2020-06-07T12:41:25Z</time>
      </trkpt>
      <trkpt lat="47.26626" lon="-1.66085">
        <ele>34.2</ele>
        <time>2020-06-07T12:41:26Z</time>
      </trkpt>
      <trkpt lat="47.26627" lon="-1.66087">
        <ele>34.2</ele>
        <time>2020-06-07T12:41:27Z</time>
      </trkpt>
      <trkpt lat="47.26628" lon="-1.66089">
        <ele>34.2</ele>
        <time>2020-06-07T12:41:28Z</time>
      </trkpt>
      <trkpt lat="47.26628" lon="-1.6609">
        <ele>34.3</ele>
        <time>2020-06-07T12:41:29Z</time>
      </trkpt>
      <trkpt lat="47.26629" lon="-1.66091">
        <ele>34.3</ele>
        <time>2020-06-07T12:41:30Z</time>
      </trkpt>
      <trkpt lat="47.2663" lon="-1.66092">
        <ele>34.3</ele>
        <time>2020-06-07T12:41:31Z</time>
      </trkpt>
      <trkpt lat="47.2663" lon="-1.66092">
        <ele>34.3</ele>
        <time>2020-06-07T12:41:32Z</time>
      </trkpt>
      <trkpt lat="47.26631" lon="-1.66093">
        <ele>34.3</ele>
        <time>2020-06-07T12:41:33Z</time>
      </trkpt>
      <trkpt lat="47.26632" lon="-1.66095">
        <ele>34.3</ele>
        <time>2020-06-07T12:41:34Z</time>
      </trkpt>
      <trkpt lat="47.26633" lon="-1.66096">
        <ele>34.3</ele>
        <time>2020-06-07T12:41:35Z</time>
      </trkpt>
      <trkpt lat="47.26633" lon="-1.66097">
        <ele>34.3</ele>
        <time>2020-06-07T12:41:36Z</time>
      </trkpt>
      <trkpt lat="47.26634" lon="-1.66098">
        <ele>34.3</ele>
        <time>2020-06-07T12:41:37Z</time>
      </trkpt>
      <trkpt lat="47.26634" lon="-1.66099">
        <ele>34.3</ele>
        <time>2020-06-07T12:41:38Z</time>
      </trkpt>
      <trkpt lat="47.26634" lon="-1.661">
        <ele>34.4</ele>
        <time>2020-06-07T12:41:39Z</time>
      </trkpt>
      <trkpt lat="47.26634" lon="-1.66102">
        <ele>34.4</ele>
        <time>2020-06-07T12:41:40Z</time>
      </trkpt>
      <trkpt lat="47.26635" lon="-1.66104">
        <ele>34.4</ele>
        <time>2020-06-07T12:41:41Z</time>
      </trkpt>
      <trkpt lat="47.26635" lon="-1.66105">
        <ele>34.4</ele>
        <time>2020-06-07T12:41:42Z</time>
      </trkpt>
      <trkpt lat="47.26636" lon="-1.66107">
        <ele>34.4</ele>
        <time>2020-06-07T12:41:43Z</time>
      </trkpt>
      <trkpt lat="47.26637" lon="-1.66109">
        <ele>34.4</ele>
        <time>2020-06-07T12:41:44Z</time>
      </trkpt>
      <trkpt lat="47.26639" lon="-1.66111">
        <ele>34.5</ele>
        <time>2020-06-07T12:41:45Z</time>
      </trkpt>
      <trkpt lat="47.26639" lon="-1.66113">
        <ele>34.5</ele>
        <time>2020-06-07T12:41:46Z</time>
      </trkpt>
      <trkpt lat="47.26639" lon="-1.66114">
        <ele>34.5</ele>
        <time>2020-06-07T12:41:47Z</time>
      </trkpt>
      <trkpt lat="47.2664" lon="-1.66115">
        <ele>34.5</ele>
        <time>2020-06-07T12:41:48Z</time>
      </trkpt>
      <trkpt lat="47.26641" lon="-1.66117">
        <ele>34.5</ele>
        <time>2020-06-07T12:41:49Z</time>
      </trkpt>
      <trkpt lat="47.26641" lon="-1.66119">
        <ele>34.5</ele>
        <time>2020-06-07T12:41:50Z</time>
      </trkpt>
      <trkpt lat="47.26641" lon="-1.6612">
        <ele>34.5</ele>
        <time>2020-06-07T12:41:51Z</time>
      </trkpt>
      <trkpt lat="47.26641" lon="-1.66121">
        <ele>34.5</ele>
        <time>2020-06-07T12:41:52Z</time>
      </trkpt>
      <trkpt lat="47.26641" lon="-1.66123">
        <ele>34.5</ele>
        <time>2020-06-07T12:41:53Z</time>
      </trkpt>
      <trkpt lat="47.26641" lon="-1.66124">
        <ele>34.5</ele>
        <time>2020-06-07T12:41:54Z</time>
      </trkpt>
      <trkpt lat="47.26642" lon="-1.66126">
        <ele>34.6</ele>
        <time>2020-06-07T12:41:55Z</time>
      </trkpt>
      <trkpt lat="47.26642" lon="-1.66128">
        <ele>34.6</ele>
        <time>2020-06-07T12:41:56Z</time>
      </trkpt>
      <trkpt lat="47.26643" lon="-1.6613">
        <ele>34.6</ele>
        <time>2020-06-07T12:41:57Z</time>
      </trkpt>
      <trkpt lat="47.26643" lon="-1.66133">
        <ele>34.6</ele>
        <time>2020-06-07T12:41:58Z</time>
      </trkpt>
      <trkpt lat="47.26644" lon="-1.66135">
        <ele>34.6</ele>
        <time>2020-06-07T12:41:59Z</time>
      </trkpt>
      <trkpt lat="47.26644" lon="-1.66137">
        <ele>34.6</ele>
        <time>2020-06-07T12:42:00Z</time>
      </trkpt>
      <trkpt lat="47.26644" lon="-1.66138">
        <ele>34.6</ele>
        <time>2020-06-07T12:42:01Z</time>
      </trkpt>
      <trkpt lat="47.26644" lon="-1.6614">
        <ele>34.6</ele>
        <time>2020-06-07T12:42:02Z</time>
      </trkpt>
      <trkpt lat="47.26644" lon="-1.66143">
        <ele>34.6</ele>
        <time>2020-06-07T12:42:03Z</time>
      </trkpt>
      <trkpt lat="47.26644" lon="-1.66144">
        <ele>34.6</ele>
        <time>2020-06-07T12:42:04Z</time>
      </trkpt>
      <trkpt lat="47.26644" lon="-1.66146">
        <ele>34.6</ele>
        <time>2020-06-07T12:42:05Z</time>
      </trkpt>
      <trkpt lat="47.26643" lon="-1.66148">
        <ele>34.6</ele>
        <time>2020-06-07T12:42:06Z</time>
      </trkpt>
      <trkpt lat="47.26643" lon="-1.66149">
        <ele>34.6</ele>
        <time>2020-06-07T12:42:07Z</time>
      </trkpt>
      <trkpt lat="47.26643" lon="-1.66151">
        <ele>34.6</ele>
        <time>2020-06-07T12:42:08Z</time>
      </trkpt>
      <trkpt lat="47.26642" lon="-1.66153">
        <ele>34.6</ele>
        <time>2020-06-07T12:42:09Z</time>
      </trkpt>
      <trkpt lat="47.26641" lon="-1.66155">
        <ele>34.6</ele>
        <time>2020-06-07T12:42:10Z</time>
      </trkpt>
      <trkpt lat="47.26641" lon="-1.66156">
        <ele>34.6</ele>
        <time>2020-06-07T12:42:11Z</time>
      </trkpt>
      <trkpt lat="47.26641" lon="-1.66156">
        <ele>34.6</ele>
        <time>2020-06-07T12:42:12Z</time>
      </trkpt>
      <trkpt lat="47.26641" lon="-1.66157">
        <ele>34.6</ele>
        <time>2020-06-07T12:42:13Z</time>
      </trkpt>
      <trkpt lat="47.2664" lon="-1.66157">
        <ele>34.6</ele>
        <time>2020-06-07T12:42:14Z</time>
      </trkpt>
      <trkpt lat="47.26639" lon="-1.66157">
        <ele>34.6</ele>
        <time>2020-06-07T12:42:15Z</time>
      </trkpt>
      <trkpt lat="47.26638" lon="-1.66157">
        <ele>34.6</ele>
        <time>2020-06-07T12:42:16Z</time>
      </trkpt>
      <trkpt lat="47.26637" lon="-1.66157">
        <ele>34.6</ele>
        <time>2020-06-07T12:42:17Z</time>
      </trkpt>
      <trkpt lat="47.26636" lon="-1.66158">
        <ele>34.6</ele>
        <time>2020-06-07T12:42:18Z</time>
      </trkpt>
      <trkpt lat="47.26635" lon="-1.66158">
        <ele>34.6</ele>
        <time>2020-06-07T12:42:19Z</time>
      </trkpt>
      <trkpt lat="47.26634" lon="-1.66158">
        <ele>34.6</ele>
        <time>2020-06-07T12:42:20Z</time>
      </trkpt>
      <trkpt lat="47.26633" lon="-1.66159">
        <ele>34.6</ele>
        <time>2020-06-07T12:42:21Z</time>
      </trkpt>
      <trkpt lat="47.26632" lon="-1.66159">
        <ele>34.6</ele>
        <time>2020-06-07T12:42:22Z</time>
      </trkpt>
      <trkpt lat="47.26633" lon="-1.66158">
        <ele>34.6</ele>
        <time>2020-06-07T12:42:23Z</time>
      </trkpt>
      <trkpt lat="47.26633" lon="-1.66158">
        <ele>34.6</ele>
        <time>2020-06-07T12:42:24Z</time>
      </trkpt>
      <trkpt lat="47.26634" lon="-1.66157">
        <ele>34.6</ele>
        <time>2020-06-07T12:42:25Z</time>
      </trkpt>
      <trkpt lat="47.26634" lon="-1.66157">
        <ele>34.6</ele>
        <time>2020-06-07T12:42:26Z</time>
      </trkpt>
      <trkpt lat="47.26635" lon="-1.66156">
        <ele>34.6</ele>
        <time>2020-06-07T12:42:27Z</time>
      </trkpt>
      <trkpt lat="47.26635" lon="-1.66156">
        <ele>34.6</ele>
        <time>2020-06-07T12:42:28Z</time>
      </trkpt>
      <trkpt lat="47.26635" lon="-1.66155">
        <ele>34.6</ele>
        <time>2020-06-07T12:42:29Z</time>
      </trkpt>
      <trkpt lat="47.26636" lon="-1.66155">
        <ele>34.6</ele>
        <time>2020-06-07T12:42:30Z</time>
      </trkpt>
      <trkpt lat="47.26637" lon="-1.66155">
        <ele>34.6</ele>
        <time>2020-06-07T12:42:31Z</time>
      </trkpt>
      <trkpt lat="47.26637" lon="-1.66155">
        <ele>34.6</ele>
        <time>2020-06-07T12:42:32Z</time>
      </trkpt>
      <trkpt lat="47.26638" lon="-1.66155">
        <ele>34.6</ele>
        <time>2020-06-07T12:42:33Z</time>
      </trkpt>
      <trkpt lat="47.26638" lon="-1.66156">
        <ele>34.6</ele>
        <time>2020-06-07T12:42:34Z</time>
      </trkpt>
      <trkpt lat="47.26638" lon="-1.66156">
        <ele>34.6</ele>
        <time>2020-06-07T12:42:35Z</time>
      </trkpt>
      <trkpt lat="47.26638" lon="-1.66156">
        <ele>34.6</ele>
        <time>2020-06-07T12:42:36Z</time>
      </trkpt>
      <trkpt lat="47.26638" lon="-1.66157">
        <ele>34.6</ele>
        <time>2020-06-07T12:42:37Z</time>
      </trkpt>
      <trkpt lat="47.26637" lon="-1.66157">
        <ele>34.6</ele>
        <time>2020-06-07T12:42:38Z</time>
      </trkpt>
      <trkpt lat="47.26637" lon="-1.66158">
        <ele>34.6</ele>
        <time>2020-06-07T12:42:39Z</time>
      </trkpt>
      <trkpt lat="47.26636" lon="-1.66158">
        <ele>34.6</ele>
        <time>2020-06-07T12:42:40Z</time>
      </trkpt>
      <trkpt lat="47.26636" lon="-1.66158">
        <ele>34.6</ele>
        <time>2020-06-07T12:42:41Z</time>
      </trkpt>
      <trkpt lat="47.26636" lon="-1.66158">
        <ele>34.6</ele>
        <time>2020-06-07T12:42:42Z</time>
      </trkpt>
      <trkpt lat="47.26637" lon="-1.66156">
        <ele>34.6</ele>
        <time>2020-06-07T12:42:43Z</time>
      </trkpt>
      <trkpt lat="47.26637" lon="-1.66154">
        <ele>34.5</ele>
        <time>2020-06-07T12:42:44Z</time>
      </trkpt>
      <trkpt lat="47.26639" lon="-1.66151">
        <ele>34.5</ele>
        <time>2020-06-07T12:42:45Z</time>
      </trkpt>
      <trkpt lat="47.26639" lon="-1.6615">
        <ele>34.5</ele>
        <time>2020-06-07T12:42:46Z</time>
      </trkpt>
      <trkpt lat="47.2664" lon="-1.66149">
        <ele>34.5</ele>
        <time>2020-06-07T12:42:47Z</time>
      </trkpt>
      <trkpt lat="47.2664" lon="-1.66149">
        <ele>34.5</ele>
        <time>2020-06-07T12:42:48Z</time>
      </trkpt>
      <trkpt lat="47.2664" lon="-1.66149">
        <ele>34.5</ele>
        <time>2020-06-07T12:42:49Z</time>
      </trkpt>
      <trkpt lat="47.26641" lon="-1.66148">
        <ele>34.5</ele>
        <time>2020-06-07T12:42:50Z</time>
      </trkpt>
      <trkpt lat="47.26641" lon="-1.66148">
        <ele>34.5</ele>
        <time>2020-06-07T12:42:51Z</time>
      </trkpt>
      <trkpt lat="47.26642" lon="-1.66148">
        <ele>34.5</ele>
        <time>2020-06-07T12:42:52Z</time>
      </trkpt>
      <trkpt lat="47.26642" lon="-1.66148">
        <ele>34.5</ele>
        <time>2020-06-07T12:42:53Z</time>
      </trkpt>
      <trkpt lat="47.26643" lon="-1.66148">
        <ele>34.5</ele>
        <time>2020-06-07T12:42:54Z</time>
      </trkpt>
      <trkpt lat="47.26643" lon="-1.66148">
        <ele>34.5</ele>
        <time>2020-06-07T12:42:55Z</time>
      </trkpt>
      <trkpt lat="47.26643" lon="-1.66148">
        <ele>34.5</ele>
        <time>2020-06-07T12:42:56Z</time>
      </trkpt>
      <trkpt lat="47.26643" lon="-1.66148">
        <ele>34.5</ele>
        <time>2020-06-07T12:42:57Z</time>
      </trkpt>
      <trkpt lat="47.26642" lon="-1.6615">
        <ele>34.5</ele>
        <time>2020-06-07T12:42:58Z</time>
      </trkpt>
      <trkpt lat="47.26639" lon="-1.66156">
        <ele>34.5</ele>
        <time>2020-06-07T12:43:08Z</time>
      </trkpt>
      <trkpt lat="47.26639" lon="-1.66156">
        <ele>34.5</ele>
        <time>2020-06-07T12:43:09Z</time>
      </trkpt>
      <trkpt lat="47.26639" lon="-1.66157">
        <ele>34.5</ele>
        <time>2020-06-07T12:43:10Z</time>
      </trkpt>
      <trkpt lat="47.26639" lon="-1.66157">
        <ele>34.5</ele>
        <time>2020-06-07T12:43:11Z</time>
      </trkpt>
      <trkpt lat="47.26639" lon="-1.66157">
        <ele>34.5</ele>
        <time>2020-06-07T12:43:12Z</time>
      </trkpt>
      <trkpt lat="47.2664" lon="-1.66156">
        <ele>34.5</ele>
        <time>2020-06-07T12:43:13Z</time>
      </trkpt>
      <trkpt lat="47.26641" lon="-1.66155">
        <ele>34.5</ele>
        <time>2020-06-07T12:43:14Z</time>
      </trkpt>
      <trkpt lat="47.26641" lon="-1.66155">
        <ele>34.5</ele>
        <time>2020-06-07T12:43:15Z</time>
      </trkpt>
      <trkpt lat="47.26641" lon="-1.66155">
        <ele>34.5</ele>
        <time>2020-06-07T12:43:16Z</time>
      </trkpt>
      <trkpt lat="47.26641" lon="-1.66155">
        <ele>34.5</ele>
        <time>2020-06-07T12:43:17Z</time>
      </trkpt>
      <trkpt lat="47.26641" lon="-1.66155">
        <ele>34.5</ele>
        <time>2020-06-07T12:43:18Z</time>
      </trkpt>
      <trkpt lat="47.26641" lon="-1.66155">
        <ele>34.5</ele>
        <time>2020-06-07T12:43:19Z</time>
      </trkpt>
      <trkpt lat="47.26641" lon="-1.66155">
        <ele>34.5</ele>
        <time>2020-06-07T12:43:20Z</time>
      </trkpt>
      <trkpt lat="47.26641" lon="-1.66155">
        <ele>34.5</ele>
        <time>2020-06-07T12:43:21Z</time>
      </trkpt>
      <trkpt lat="47.26641" lon="-1.66155">
        <ele>34.5</ele>
        <time>2020-06-07T12:43:22Z</time>
      </trkpt>
      <trkpt lat="47.26642" lon="-1.66156">
        <ele>34.4</ele>
        <time>2020-06-07T12:43:23Z</time>
      </trkpt>
      <trkpt lat="47.26641" lon="-1.66157">
        <ele>34.4</ele>
        <time>2020-06-07T12:43:24Z</time>
      </trkpt>
      <trkpt lat="47.26639" lon="-1.6616">
        <ele>34.4</ele>
        <time>2020-06-07T12:43:25Z</time>
      </trkpt>
      <trkpt lat="47.26631" lon="-1.66167">
        <ele>34.2</ele>
        <time>2020-06-07T12:43:40Z</time>
      </trkpt>
      <trkpt lat="47.2663" lon="-1.66167">
        <ele>34.2</ele>
        <time>2020-06-07T12:43:41Z</time>
      </trkpt>
      <trkpt lat="47.2663" lon="-1.66167">
        <ele>34.2</ele>
        <time>2020-06-07T12:43:42Z</time>
      </trkpt>
      <trkpt lat="47.26629" lon="-1.66168">
        <ele>34.2</ele>
        <time>2020-06-07T12:43:43Z</time>
      </trkpt>
      <trkpt lat="47.26628" lon="-1.66169">
        <ele>34.2</ele>
        <time>2020-06-07T12:43:44Z</time>
      </trkpt>
      <trkpt lat="47.26627" lon="-1.6617">
        <ele>34.2</ele>
        <time>2020-06-07T12:43:45Z</time>
      </trkpt>
      <trkpt lat="47.26626" lon="-1.66171">
        <ele>34.1</ele>
        <time>2020-06-07T12:43:46Z</time>
      </trkpt>
      <trkpt lat="47.26625" lon="-1.66172">
        <ele>34.1</ele>
        <time>2020-06-07T12:43:47Z</time>
      </trkpt>
      <trkpt lat="47.26625" lon="-1.66172">
        <ele>34.1</ele>
        <time>2020-06-07T12:43:48Z</time>
      </trkpt>
      <trkpt lat="47.26625" lon="-1.66172">
        <ele>34.1</ele>
        <time>2020-06-07T12:43:49Z</time>
      </trkpt>
      <trkpt lat="47.26625" lon="-1.66172">
        <ele>34.1</ele>
        <time>2020-06-07T12:43:50Z</time>
      </trkpt>
      <trkpt lat="47.26624" lon="-1.66172">
        <ele>34.1</ele>
        <time>2020-06-07T12:43:51Z</time>
      </trkpt>
      <trkpt lat="47.26624" lon="-1.66172">
        <ele>34.1</ele>
        <time>2020-06-07T12:43:52Z</time>
      </trkpt>
      <trkpt lat="47.26624" lon="-1.66172">
        <ele>34.1</ele>
        <time>2020-06-07T12:43:53Z</time>
      </trkpt>
      <trkpt lat="47.26623" lon="-1.66173">
        <ele>34.1</ele>
        <time>2020-06-07T12:43:54Z</time>
      </trkpt>
      <trkpt lat="47.26623" lon="-1.66173">
        <ele>34.1</ele>
        <time>2020-06-07T12:43:55Z</time>
      </trkpt>
      <trkpt lat="47.26623" lon="-1.66173">
        <ele>34.1</ele>
        <time>2020-06-07T12:43:56Z</time>
      </trkpt>
      <trkpt lat="47.26623" lon="-1.66173">
        <ele>34.1</ele>
        <time>2020-06-07T12:43:57Z</time>
      </trkpt>
      <trkpt lat="47.26622" lon="-1.66173">
        <ele>34.1</ele>
        <time>2020-06-07T12:43:58Z</time>
      </trkpt>
      <trkpt lat="47.26622" lon="-1.66173">
        <ele>34.1</ele>
        <time>2020-06-07T12:43:59Z</time>
      </trkpt>
      <trkpt lat="47.26622" lon="-1.66173">
        <ele>34.1</ele>
        <time>2020-06-07T12:44:00Z</time>
      </trkpt>
      <trkpt lat="47.26619" lon="-1.66174">
        <ele>34.1</ele>
        <time>2020-06-07T12:44:01Z</time>
      </trkpt>
      <trkpt lat="47.26618" lon="-1.66175">
        <ele>34.1</ele>
        <time>2020-06-07T12:44:02Z</time>
      </trkpt>
      <trkpt lat="47.26616" lon="-1.66175">
        <ele>34</ele>
        <time>2020-06-07T12:44:03Z</time>
      </trkpt>
      <trkpt lat="47.26615" lon="-1.66176">
        <ele>34</ele>
        <time>2020-06-07T12:44:04Z</time>
      </trkpt>
      <trkpt lat="47.26615" lon="-1.66176">
        <ele>34</ele>
        <time>2020-06-07T12:44:05Z</time>
      </trkpt>
      <trkpt lat="47.26614" lon="-1.66177">
        <ele>34</ele>
        <time>2020-06-07T12:44:06Z</time>
      </trkpt>
      <trkpt lat="47.26613" lon="-1.66178">
        <ele>34</ele>
        <time>2020-06-07T12:44:07Z</time>
      </trkpt>
      <trkpt lat="47.26612" lon="-1.66179">
        <ele>34</ele>
        <time>2020-06-07T12:44:08Z</time>
      </trkpt>
      <trkpt lat="47.26611" lon="-1.66181">
        <ele>34</ele>
        <time>2020-06-07T12:44:09Z</time>
      </trkpt>
      <trkpt lat="47.26611" lon="-1.66181">
        <ele>34</ele>
        <time>2020-06-07T12:44:10Z</time>
      </trkpt>
      <trkpt lat="47.26611" lon="-1.66182">
        <ele>34</ele>
        <time>2020-06-07T12:44:11Z</time>
      </trkpt>
      <trkpt lat="47.26611" lon="-1.66183">
        <ele>34</ele>
        <time>2020-06-07T12:44:12Z</time>
      </trkpt>
      <trkpt lat="47.2661" lon="-1.66185">
        <ele>34</ele>
        <time>2020-06-07T12:44:13Z</time>
      </trkpt>
      <trkpt lat="47.2661" lon="-1.66186">
        <ele>34</ele>
        <time>2020-06-07T12:44:14Z</time>
      </trkpt>
      <trkpt lat="47.2661" lon="-1.66188">
        <ele>34</ele>
        <time>2020-06-07T12:44:15Z</time>
      </trkpt>
      <trkpt lat="47.2661" lon="-1.66189">
        <ele>34</ele>
        <time>2020-06-07T12:44:16Z</time>
      </trkpt>
      <trkpt lat="47.2661" lon="-1.6619">
        <ele>33.9</ele>
        <time>2020-06-07T12:44:17Z</time>
      </trkpt>
      <trkpt lat="47.26611" lon="-1.66191">
        <ele>33.9</ele>
        <time>2020-06-07T12:44:18Z</time>
      </trkpt>
      <trkpt lat="47.26611" lon="-1.66192">
        <ele>33.9</ele>
        <time>2020-06-07T12:44:19Z</time>
      </trkpt>
      <trkpt lat="47.26611" lon="-1.66193">
        <ele>33.9</ele>
        <time>2020-06-07T12:44:20Z</time>
      </trkpt>
      <trkpt lat="47.26612" lon="-1.66195">
        <ele>33.9</ele>
        <time>2020-06-07T12:44:21Z</time>
      </trkpt>
      <trkpt lat="47.26612" lon="-1.66197">
        <ele>33.9</ele>
        <time>2020-06-07T12:44:22Z</time>
      </trkpt>
      <trkpt lat="47.26614" lon="-1.66199">
        <ele>33.9</ele>
        <time>2020-06-07T12:44:23Z</time>
      </trkpt>
      <trkpt lat="47.26614" lon="-1.662">
        <ele>33.9</ele>
        <time>2020-06-07T12:44:24Z</time>
      </trkpt>
      <trkpt lat="47.26614" lon="-1.66201">
        <ele>33.9</ele>
        <time>2020-06-07T12:44:25Z</time>
      </trkpt>
      <trkpt lat="47.26615" lon="-1.66203">
        <ele>33.9</ele>
        <time>2020-06-07T12:44:26Z</time>
      </trkpt>
      <trkpt lat="47.26616" lon="-1.66204">
        <ele>33.9</ele>
        <time>2020-06-07T12:44:27Z</time>
      </trkpt>
      <trkpt lat="47.26616" lon="-1.66206">
        <ele>33.9</ele>
        <time>2020-06-07T12:44:28Z</time>
      </trkpt>
      <trkpt lat="47.26616" lon="-1.66207">
        <ele>33.9</ele>
        <time>2020-06-07T12:44:29Z</time>
      </trkpt>
      <trkpt lat="47.26616" lon="-1.66208">
        <ele>33.9</ele>
        <time>2020-06-07T12:44:30Z</time>
      </trkpt>
      <trkpt lat="47.26616" lon="-1.66209">
        <ele>33.9</ele>
        <time>2020-06-07T12:44:31Z</time>
      </trkpt>
      <trkpt lat="47.26616" lon="-1.6621">
        <ele>33.9</ele>
        <time>2020-06-07T12:44:32Z</time>
      </trkpt>
      <trkpt lat="47.26615" lon="-1.66212">
        <ele>33.9</ele>
        <time>2020-06-07T12:44:33Z</time>
      </trkpt>
      <trkpt lat="47.26614" lon="-1.66213">
        <ele>34</ele>
        <time>2020-06-07T12:44:34Z</time>
      </trkpt>
      <trkpt lat="47.26613" lon="-1.66214">
        <ele>34</ele>
        <time>2020-06-07T12:44:35Z</time>
      </trkpt>
      <trkpt lat="47.26613" lon="-1.66215">
        <ele>34</ele>
        <time>2020-06-07T12:44:36Z</time>
      </trkpt>
      <trkpt lat="47.26612" lon="-1.66217">
        <ele>34</ele>
        <time>2020-06-07T12:44:37Z</time>
      </trkpt>
      <trkpt lat="47.26612" lon="-1.66218">
        <ele>34</ele>
        <time>2020-06-07T12:44:38Z</time>
      </trkpt>
      <trkpt lat="47.26611" lon="-1.66219">
        <ele>34</ele>
        <time>2020-06-07T12:44:39Z</time>
      </trkpt>
      <trkpt lat="47.2661" lon="-1.6622">
        <ele>34</ele>
        <time>2020-06-07T12:44:40Z</time>
      </trkpt>
      <trkpt lat="47.2661" lon="-1.66221">
        <ele>34</ele>
        <time>2020-06-07T12:44:41Z</time>
      </trkpt>
      <trkpt lat="47.26609" lon="-1.66222">
        <ele>34</ele>
        <time>2020-06-07T12:44:42Z</time>
      </trkpt>
      <trkpt lat="47.26608" lon="-1.66223">
        <ele>34</ele>
        <time>2020-06-07T12:44:43Z</time>
      </trkpt>
      <trkpt lat="47.26607" lon="-1.66224">
        <ele>34</ele>
        <time>2020-06-07T12:44:44Z</time>
      </trkpt>
      <trkpt lat="47.26606" lon="-1.66225">
        <ele>34</ele>
        <time>2020-06-07T12:44:45Z</time>
      </trkpt>
      <trkpt lat="47.26605" lon="-1.66226">
        <ele>34</ele>
        <time>2020-06-07T12:44:46Z</time>
      </trkpt>
      <trkpt lat="47.26605" lon="-1.66227">
        <ele>34</ele>
        <time>2020-06-07T12:44:47Z</time>
      </trkpt>
      <trkpt lat="47.26604" lon="-1.66227">
        <ele>34</ele>
        <time>2020-06-07T12:44:48Z</time>
      </trkpt>
      <trkpt lat="47.26603" lon="-1.66228">
        <ele>34</ele>
        <time>2020-06-07T12:44:49Z</time>
      </trkpt>
      <trkpt lat="47.26603" lon="-1.66229">
        <ele>34</ele>
        <time>2020-06-07T12:44:50Z</time>
      </trkpt>
      <trkpt lat="47.26603" lon="-1.6623">
        <ele>34</ele>
        <time>2020-06-07T12:44:51Z</time>
      </trkpt>
      <trkpt lat="47.26604" lon="-1.66231">
        <ele>34</ele>
        <time>2020-06-07T12:44:52Z</time>
      </trkpt>
      <trkpt lat="47.26605" lon="-1.66233">
        <ele>34</ele>
        <time>2020-06-07T12:44:53Z</time>
      </trkpt>
      <trkpt lat="47.26606" lon="-1.66234">
        <ele>34</ele>
        <time>2020-06-07T12:44:54Z</time>
      </trkpt>
      <trkpt lat="47.26607" lon="-1.66235">
        <ele>34</ele>
        <time>2020-06-07T12:44:55Z</time>
      </trkpt>
      <trkpt lat="47.26608" lon="-1.66236">
        <ele>34</ele>
        <time>2020-06-07T12:44:56Z</time>
      </trkpt>
      <trkpt lat="47.26608" lon="-1.66237">
        <ele>34</ele>
        <time>2020-06-07T12:44:57Z</time>
      </trkpt>
      <trkpt lat="47.26608" lon="-1.66237">
        <ele>34.1</ele>
        <time>2020-06-07T12:44:58Z</time>
      </trkpt>
      <trkpt lat="47.26607" lon="-1.66238">
        <ele>34.1</ele>
        <time>2020-06-07T12:44:59Z</time>
      </trkpt>
      <trkpt lat="47.26607" lon="-1.6624">
        <ele>34.1</ele>
        <time>2020-06-07T12:45:00Z</time>
      </trkpt>
      <trkpt lat="47.26605" lon="-1.66243">
        <ele>34.1</ele>
        <time>2020-06-07T12:45:01Z</time>
      </trkpt>
      <trkpt lat="47.26604" lon="-1.66243">
        <ele>34.1</ele>
        <time>2020-06-07T12:45:02Z</time>
      </trkpt>
      <trkpt lat="47.26601" lon="-1.66246">
        <ele>34.1</ele>
        <time>2020-06-07T12:45:03Z</time>
      </trkpt>
      <trkpt lat="47.266" lon="-1.66247">
        <ele>34.1</ele>
        <time>2020-06-07T12:45:04Z</time>
      </trkpt>
      <trkpt lat="47.26598" lon="-1.66249">
        <ele>34.1</ele>
        <time>2020-06-07T12:45:05Z</time>
      </trkpt>
      <trkpt lat="47.26597" lon="-1.6625">
        <ele>34.1</ele>
        <time>2020-06-07T12:45:06Z</time>
      </trkpt>
      <trkpt lat="47.26597" lon="-1.66253">
        <ele>34.1</ele>
        <time>2020-06-07T12:45:07Z</time>
      </trkpt>
      <trkpt lat="47.26597" lon="-1.66254">
        <ele>34.1</ele>
        <time>2020-06-07T12:45:08Z</time>
      </trkpt>
      <trkpt lat="47.26597" lon="-1.66255">
        <ele>34.1</ele>
        <time>2020-06-07T12:45:09Z</time>
      </trkpt>
      <trkpt lat="47.26597" lon="-1.66257">
        <ele>34.1</ele>
        <time>2020-06-07T12:45:10Z</time>
      </trkpt>
      <trkpt lat="47.26598" lon="-1.6626">
        <ele>34.1</ele>
        <time>2020-06-07T12:45:11Z</time>
      </trkpt>
      <trkpt lat="47.26599" lon="-1.66261">
        <ele>34.1</ele>
        <time>2020-06-07T12:45:12Z</time>
      </trkpt>
      <trkpt lat="47.266" lon="-1.66263">
        <ele>34.1</ele>
        <time>2020-06-07T12:45:13Z</time>
      </trkpt>
      <trkpt lat="47.26601" lon="-1.66265">
        <ele>34.1</ele>
        <time>2020-06-07T12:45:14Z</time>
      </trkpt>
      <trkpt lat="47.26602" lon="-1.66266">
        <ele>34.1</ele>
        <time>2020-06-07T12:45:15Z</time>
      </trkpt>
      <trkpt lat="47.26603" lon="-1.66268">
        <ele>34.2</ele>
        <time>2020-06-07T12:45:16Z</time>
      </trkpt>
      <trkpt lat="47.26604" lon="-1.6627">
        <ele>34.2</ele>
        <time>2020-06-07T12:45:17Z</time>
      </trkpt>
      <trkpt lat="47.26607" lon="-1.66272">
        <ele>34.2</ele>
        <time>2020-06-07T12:45:18Z</time>
      </trkpt>
      <trkpt lat="47.26607" lon="-1.66273">
        <ele>34.2</ele>
        <time>2020-06-07T12:45:19Z</time>
      </trkpt>
      <trkpt lat="47.2661" lon="-1.66275">
        <ele>34.2</ele>
        <time>2020-06-07T12:45:20Z</time>
      </trkpt>
      <trkpt lat="47.26611" lon="-1.66276">
        <ele>34.2</ele>
        <time>2020-06-07T12:45:21Z</time>
      </trkpt>
      <trkpt lat="47.26613" lon="-1.66278">
        <ele>34.2</ele>
        <time>2020-06-07T12:45:22Z</time>
      </trkpt>
      <trkpt lat="47.26613" lon="-1.66279">
        <ele>34.2</ele>
        <time>2020-06-07T12:45:23Z</time>
      </trkpt>
      <trkpt lat="47.26614" lon="-1.6628">
        <ele>34.2</ele>
        <time>2020-06-07T12:45:24Z</time>
      </trkpt>
      <trkpt lat="47.26615" lon="-1.66281">
        <ele>34.2</ele>
        <time>2020-06-07T12:45:25Z</time>
      </trkpt>
      <trkpt lat="47.26615" lon="-1.66282">
        <ele>34.2</ele>
        <time>2020-06-07T12:45:26Z</time>
      </trkpt>
      <trkpt lat="47.26615" lon="-1.66283">
        <ele>34.2</ele>
        <time>2020-06-07T12:45:27Z</time>
      </trkpt>
      <trkpt lat="47.26615" lon="-1.66284">
        <ele>34.2</ele>
        <time>2020-06-07T12:45:28Z</time>
      </trkpt>
      <trkpt lat="47.26615" lon="-1.66285">
        <ele>34.2</ele>
        <time>2020-06-07T12:45:29Z</time>
      </trkpt>
      <trkpt lat="47.26616" lon="-1.66286">
        <ele>34.2</ele>
        <time>2020-06-07T12:45:30Z</time>
      </trkpt>
      <trkpt lat="47.26616" lon="-1.66287">
        <ele>34.2</ele>
        <time>2020-06-07T12:45:31Z</time>
      </trkpt>
      <trkpt lat="47.26616" lon="-1.66288">
        <ele>34.2</ele>
        <time>2020-06-07T12:45:32Z</time>
      </trkpt>
      <trkpt lat="47.26617" lon="-1.6629">
        <ele>34.2</ele>
        <time>2020-06-07T12:45:33Z</time>
      </trkpt>
      <trkpt lat="47.26617" lon="-1.66291">
        <ele>34.2</ele>
        <time>2020-06-07T12:45:34Z</time>
      </trkpt>
      <trkpt lat="47.26618" lon="-1.66292">
        <ele>34.2</ele>
        <time>2020-06-07T12:45:35Z</time>
      </trkpt>
      <trkpt lat="47.26618" lon="-1.66293">
        <ele>34.2</ele>
        <time>2020-06-07T12:45:36Z</time>
      </trkpt>
      <trkpt lat="47.26618" lon="-1.66295">
        <ele>34.2</ele>
        <time>2020-06-07T12:45:37Z</time>
      </trkpt>
      <trkpt lat="47.26618" lon="-1.66296">
        <ele>34.2</ele>
        <time>2020-06-07T12:45:38Z</time>
      </trkpt>
      <trkpt lat="47.26618" lon="-1.66297">
        <ele>34.2</ele>
        <time>2020-06-07T12:45:39Z</time>
      </trkpt>
      <trkpt lat="47.26618" lon="-1.66298">
        <ele>34.2</ele>
        <time>2020-06-07T12:45:40Z</time>
      </trkpt>
      <trkpt lat="47.26617" lon="-1.66299">
        <ele>34.3</ele>
        <time>2020-06-07T12:45:41Z</time>
      </trkpt>
      <trkpt lat="47.26617" lon="-1.66301">
        <ele>34.3</ele>
        <time>2020-06-07T12:45:42Z</time>
      </trkpt>
      <trkpt lat="47.26617" lon="-1.66302">
        <ele>34.3</ele>
        <time>2020-06-07T12:45:43Z</time>
      </trkpt>
      <trkpt lat="47.26616" lon="-1.66304">
        <ele>34.3</ele>
        <time>2020-06-07T12:45:44Z</time>
      </trkpt>
      <trkpt lat="47.26616" lon="-1.66305">
        <ele>34.3</ele>
        <time>2020-06-07T12:45:45Z</time>
      </trkpt>
      <trkpt lat="47.26615" lon="-1.66305">
        <ele>34.3</ele>
        <time>2020-06-07T12:45:46Z</time>
      </trkpt>
      <trkpt lat="47.26616" lon="-1.66306">
        <ele>34.3</ele>
        <time>2020-06-07T12:45:47Z</time>
      </trkpt>
      <trkpt lat="47.26616" lon="-1.66307">
        <ele>34.3</ele>
        <time>2020-06-07T12:45:48Z</time>
      </trkpt>
      <trkpt lat="47.26616" lon="-1.66309">
        <ele>34.3</ele>
        <time>2020-06-07T12:45:49Z</time>
      </trkpt>
      <trkpt lat="47.26617" lon="-1.66311">
        <ele>34.3</ele>
        <time>2020-06-07T12:45:50Z</time>
      </trkpt>
      <trkpt lat="47.26618" lon="-1.66313">
        <ele>34.3</ele>
        <time>2020-06-07T12:45:51Z</time>
      </trkpt>
      <trkpt lat="47.26619" lon="-1.66315">
        <ele>34.3</ele>
        <time>2020-06-07T12:45:52Z</time>
      </trkpt>
      <trkpt lat="47.2662" lon="-1.66317">
        <ele>34.3</ele>
        <time>2020-06-07T12:45:53Z</time>
      </trkpt>
      <trkpt lat="47.26621" lon="-1.66318">
        <ele>34.3</ele>
        <time>2020-06-07T12:45:54Z</time>
      </trkpt>
      <trkpt lat="47.26622" lon="-1.66319">
        <ele>34.3</ele>
        <time>2020-06-07T12:45:55Z</time>
      </trkpt>
      <trkpt lat="47.26622" lon="-1.6632">
        <ele>34.3</ele>
        <time>2020-06-07T12:45:56Z</time>
      </trkpt>
      <trkpt lat="47.26623" lon="-1.66322">
        <ele>34.3</ele>
        <time>2020-06-07T12:45:57Z</time>
      </trkpt>
      <trkpt lat="47.26623" lon="-1.66323">
        <ele>34.3</ele>
        <time>2020-06-07T12:45:58Z</time>
      </trkpt>
      <trkpt lat="47.26623" lon="-1.66324">
        <ele>34.3</ele>
        <time>2020-06-07T12:45:59Z</time>
      </trkpt>
      <trkpt lat="47.26623" lon="-1.66326">
        <ele>34.3</ele>
        <time>2020-06-07T12:46:00Z</time>
      </trkpt>
      <trkpt lat="47.26623" lon="-1.66327">
        <ele>34.3</ele>
        <time>2020-06-07T12:46:01Z</time>
      </trkpt>
      <trkpt lat="47.26624" lon="-1.66329">
        <ele>34.3</ele>
        <time>2020-06-07T12:46:02Z</time>
      </trkpt>
      <trkpt lat="47.26624" lon="-1.6633">
        <ele>34.3</ele>
        <time>2020-06-07T12:46:03Z</time>
      </trkpt>
      <trkpt lat="47.26623" lon="-1.66331">
        <ele>34.3</ele>
        <time>2020-06-07T12:46:04Z</time>
      </trkpt>
      <trkpt lat="47.26624" lon="-1.66333">
        <ele>34.3</ele>
        <time>2020-06-07T12:46:05Z</time>
      </trkpt>
      <trkpt lat="47.26624" lon="-1.66336">
        <ele>34.3</ele>
        <time>2020-06-07T12:46:06Z</time>
      </trkpt>
      <trkpt lat="47.26624" lon="-1.66337">
        <ele>34.3</ele>
        <time>2020-06-07T12:46:07Z</time>
      </trkpt>
      <trkpt lat="47.26624" lon="-1.66338">
        <ele>34.3</ele>
        <time>2020-06-07T12:46:08Z</time>
      </trkpt>
      <trkpt lat="47.26625" lon="-1.6634">
        <ele>34.4</ele>
        <time>2020-06-07T12:46:09Z</time>
      </trkpt>
      <trkpt lat="47.26625" lon="-1.66342">
        <ele>34.4</ele>
        <time>2020-06-07T12:46:10Z</time>
      </trkpt>
      <trkpt lat="47.26626" lon="-1.66343">
        <ele>34.4</ele>
        <time>2020-06-07T12:46:11Z</time>
      </trkpt>
      <trkpt lat="47.26626" lon="-1.66345">
        <ele>34.4</ele>
        <time>2020-06-07T12:46:12Z</time>
      </trkpt>
      <trkpt lat="47.26626" lon="-1.66347">
        <ele>34.4</ele>
        <time>2020-06-07T12:46:13Z</time>
      </trkpt>
      <trkpt lat="47.26626" lon="-1.66348">
        <ele>34.4</ele>
        <time>2020-06-07T12:46:14Z</time>
      </trkpt>
      <trkpt lat="47.26626" lon="-1.6635">
        <ele>34.4</ele>
        <time>2020-06-07T12:46:15Z</time>
      </trkpt>
      <trkpt lat="47.26626" lon="-1.66352">
        <ele>34.4</ele>
        <time>2020-06-07T12:46:16Z</time>
      </trkpt>
      <trkpt lat="47.26626" lon="-1.66353">
        <ele>34.4</ele>
        <time>2020-06-07T12:46:17Z</time>
      </trkpt>
      <trkpt lat="47.26626" lon="-1.66355">
        <ele>34.4</ele>
        <time>2020-06-07T12:46:18Z</time>
      </trkpt>
      <trkpt lat="47.26626" lon="-1.66356">
        <ele>34.4</ele>
        <time>2020-06-07T12:46:19Z</time>
      </trkpt>
      <trkpt lat="47.26626" lon="-1.66358">
        <ele>34.4</ele>
        <time>2020-06-07T12:46:20Z</time>
      </trkpt>
      <trkpt lat="47.26626" lon="-1.66359">
        <ele>34.4</ele>
        <time>2020-06-07T12:46:21Z</time>
      </trkpt>
      <trkpt lat="47.26626" lon="-1.6636">
        <ele>34.4</ele>
        <time>2020-06-07T12:46:22Z</time>
      </trkpt>
      <trkpt lat="47.26627" lon="-1.66361">
        <ele>34.4</ele>
        <time>2020-06-07T12:46:23Z</time>
      </trkpt>
      <trkpt lat="47.26626" lon="-1.66362">
        <ele>34.4</ele>
        <time>2020-06-07T12:46:24Z</time>
      </trkpt>
      <trkpt lat="47.26626" lon="-1.66364">
        <ele>34.4</ele>
        <time>2020-06-07T12:46:25Z</time>
      </trkpt>
      <trkpt lat="47.26627" lon="-1.66365">
        <ele>34.4</ele>
        <time>2020-06-07T12:46:26Z</time>
      </trkpt>
      <trkpt lat="47.26628" lon="-1.66366">
        <ele>34.4</ele>
        <time>2020-06-07T12:46:27Z</time>
      </trkpt>
      <trkpt lat="47.26628" lon="-1.66367">
        <ele>34.4</ele>
        <time>2020-06-07T12:46:28Z</time>
      </trkpt>
      <trkpt lat="47.26629" lon="-1.66368">
        <ele>34.4</ele>
        <time>2020-06-07T12:46:29Z</time>
      </trkpt>
      <trkpt lat="47.26629" lon="-1.66369">
        <ele>34.5</ele>
        <time>2020-06-07T12:46:30Z</time>
      </trkpt>
      <trkpt lat="47.2663" lon="-1.6637">
        <ele>34.5</ele>
        <time>2020-06-07T12:46:31Z</time>
      </trkpt>
      <trkpt lat="47.2663" lon="-1.66371">
        <ele>34.5</ele>
        <time>2020-06-07T12:46:32Z</time>
      </trkpt>
      <trkpt lat="47.2663" lon="-1.66372">
        <ele>34.5</ele>
        <time>2020-06-07T12:46:33Z</time>
      </trkpt>
      <trkpt lat="47.2663" lon="-1.66373">
        <ele>34.5</ele>
        <time>2020-06-07T12:46:34Z</time>
      </trkpt>
      <trkpt lat="47.2663" lon="-1.66375">
        <ele>34.5</ele>
        <time>2020-06-07T12:46:35Z</time>
      </trkpt>
      <trkpt lat="47.26631" lon="-1.66376">
        <ele>34.5</ele>
        <time>2020-06-07T12:46:36Z</time>
      </trkpt>
      <trkpt lat="47.26631" lon="-1.66377">
        <ele>34.5</ele>
        <time>2020-06-07T12:46:37Z</time>
      </trkpt>
      <trkpt lat="47.26631" lon="-1.66378">
        <ele>34.5</ele>
        <time>2020-06-07T12:46:38Z</time>
      </trkpt>
      <trkpt lat="47.26631" lon="-1.66379">
        <ele>34.5</ele>
        <time>2020-06-07T12:46:39Z</time>
      </trkpt>
      <trkpt lat="47.26631" lon="-1.6638">
        <ele>34.5</ele>
        <time>2020-06-07T12:46:40Z</time>
      </trkpt>
      <trkpt lat="47.26631" lon="-1.66381">
        <ele>34.5</ele>
        <time>2020-06-07T12:46:41Z</time>
      </trkpt>
      <trkpt lat="47.26631" lon="-1.66383">
        <ele>34.5</ele>
        <time>2020-06-07T12:46:42Z</time>
      </trkpt>
      <trkpt lat="47.26631" lon="-1.66384">
        <ele>34.5</ele>
        <time>2020-06-07T12:46:43Z</time>
      </trkpt>
      <trkpt lat="47.26631" lon="-1.66385">
        <ele>34.5</ele>
        <time>2020-06-07T12:46:44Z</time>
      </trkpt>
      <trkpt lat="47.26632" lon="-1.66386">
        <ele>34.5</ele>
        <time>2020-06-07T12:46:45Z</time>
      </trkpt>
      <trkpt lat="47.26632" lon="-1.66387">
        <ele>34.6</ele>
        <time>2020-06-07T12:46:46Z</time>
      </trkpt>
      <trkpt lat="47.26633" lon="-1.66389">
        <ele>34.6</ele>
        <time>2020-06-07T12:46:47Z</time>
      </trkpt>
      <trkpt lat="47.26633" lon="-1.66391">
        <ele>34.6</ele>
        <time>2020-06-07T12:46:48Z</time>
      </trkpt>
      <trkpt lat="47.26634" lon="-1.66393">
        <ele>34.6</ele>
        <time>2020-06-07T12:46:49Z</time>
      </trkpt>
      <trkpt lat="47.26635" lon="-1.66394">
        <ele>34.6</ele>
        <time>2020-06-07T12:46:50Z</time>
      </trkpt>
      <trkpt lat="47.26636" lon="-1.66394">
        <ele>34.6</ele>
        <time>2020-06-07T12:46:51Z</time>
      </trkpt>
      <trkpt lat="47.26637" lon="-1.66396">
        <ele>34.6</ele>
        <time>2020-06-07T12:46:52Z</time>
      </trkpt>
      <trkpt lat="47.26638" lon="-1.66397">
        <ele>34.6</ele>
        <time>2020-06-07T12:46:53Z</time>
      </trkpt>
      <trkpt lat="47.26638" lon="-1.66398">
        <ele>34.6</ele>
        <time>2020-06-07T12:46:54Z</time>
      </trkpt>
      <trkpt lat="47.26639" lon="-1.66399">
        <ele>34.6</ele>
        <time>2020-06-07T12:46:55Z</time>
      </trkpt>
      <trkpt lat="47.26639" lon="-1.66399">
        <ele>34.6</ele>
        <time>2020-06-07T12:46:56Z</time>
      </trkpt>
      <trkpt lat="47.26639" lon="-1.66401">
        <ele>34.6</ele>
        <time>2020-06-07T12:46:57Z</time>
      </trkpt>
      <trkpt lat="47.26639" lon="-1.66402">
        <ele>34.6</ele>
        <time>2020-06-07T12:46:58Z</time>
      </trkpt>
      <trkpt lat="47.26639" lon="-1.66403">
        <ele>34.6</ele>
        <time>2020-06-07T12:46:59Z</time>
      </trkpt>
      <trkpt lat="47.26639" lon="-1.66405">
        <ele>34.6</ele>
        <time>2020-06-07T12:47:00Z</time>
      </trkpt>
      <trkpt lat="47.2664" lon="-1.66406">
        <ele>34.6</ele>
        <time>2020-06-07T12:47:01Z</time>
      </trkpt>
      <trkpt lat="47.2664" lon="-1.66408">
        <ele>34.6</ele>
        <time>2020-06-07T12:47:02Z</time>
      </trkpt>
      <trkpt lat="47.26641" lon="-1.66409">
        <ele>34.6</ele>
        <time>2020-06-07T12:47:03Z</time>
      </trkpt>
      <trkpt lat="47.26641" lon="-1.6641">
        <ele>34.6</ele>
        <time>2020-06-07T12:47:04Z</time>
      </trkpt>
      <trkpt lat="47.26643" lon="-1.66411">
        <ele>34.6</ele>
        <time>2020-06-07T12:47:05Z</time>
      </trkpt>
      <trkpt lat="47.26644" lon="-1.66413">
        <ele>34.7</ele>
        <time>2020-06-07T12:47:06Z</time>
      </trkpt>
      <trkpt lat="47.26645" lon="-1.66415">
        <ele>34.7</ele>
        <time>2020-06-07T12:47:07Z</time>
      </trkpt>
      <trkpt lat="47.26647" lon="-1.66416">
        <ele>34.7</ele>
        <time>2020-06-07T12:47:08Z</time>
      </trkpt>
      <trkpt lat="47.26648" lon="-1.66417">
        <ele>34.7</ele>
        <time>2020-06-07T12:47:09Z</time>
      </trkpt>
      <trkpt lat="47.26649" lon="-1.66419">
        <ele>34.7</ele>
        <time>2020-06-07T12:47:10Z</time>
      </trkpt>
      <trkpt lat="47.2665" lon="-1.66421">
        <ele>34.7</ele>
        <time>2020-06-07T12:47:11Z</time>
      </trkpt>
      <trkpt lat="47.2665" lon="-1.66424">
        <ele>34.7</ele>
        <time>2020-06-07T12:47:12Z</time>
      </trkpt>
      <trkpt lat="47.26651" lon="-1.66425">
        <ele>34.7</ele>
        <time>2020-06-07T12:47:13Z</time>
      </trkpt>
      <trkpt lat="47.26651" lon="-1.66426">
        <ele>34.7</ele>
        <time>2020-06-07T12:47:14Z</time>
      </trkpt>
      <trkpt lat="47.26652" lon="-1.66428">
        <ele>34.7</ele>
        <time>2020-06-07T12:47:15Z</time>
      </trkpt>
      <trkpt lat="47.26652" lon="-1.66429">
        <ele>34.8</ele>
        <time>2020-06-07T12:47:16Z</time>
      </trkpt>
      <trkpt lat="47.26653" lon="-1.6643">
        <ele>34.8</ele>
        <time>2020-06-07T12:47:17Z</time>
      </trkpt>
      <trkpt lat="47.26653" lon="-1.6643">
        <ele>34.8</ele>
        <time>2020-06-07T12:47:18Z</time>
      </trkpt>
      <trkpt lat="47.26654" lon="-1.66431">
        <ele>34.8</ele>
        <time>2020-06-07T12:47:19Z</time>
      </trkpt>
      <trkpt lat="47.26654" lon="-1.66432">
        <ele>34.8</ele>
        <time>2020-06-07T12:47:20Z</time>
      </trkpt>
      <trkpt lat="47.26655" lon="-1.66434">
        <ele>34.8</ele>
        <time>2020-06-07T12:47:21Z</time>
      </trkpt>
      <trkpt lat="47.26655" lon="-1.66435">
        <ele>34.8</ele>
        <time>2020-06-07T12:47:22Z</time>
      </trkpt>
      <trkpt lat="47.26654" lon="-1.66437">
        <ele>34.8</ele>
        <time>2020-06-07T12:47:23Z</time>
      </trkpt>
      <trkpt lat="47.26654" lon="-1.66439">
        <ele>34.9</ele>
        <time>2020-06-07T12:47:24Z</time>
      </trkpt>
      <trkpt lat="47.26653" lon="-1.6644">
        <ele>34.9</ele>
        <time>2020-06-07T12:47:25Z</time>
      </trkpt>
      <trkpt lat="47.26654" lon="-1.66441">
        <ele>34.9</ele>
        <time>2020-06-07T12:47:26Z</time>
      </trkpt>
      <trkpt lat="47.26654" lon="-1.66442">
        <ele>34.9</ele>
        <time>2020-06-07T12:47:27Z</time>
      </trkpt>
      <trkpt lat="47.26654" lon="-1.66443">
        <ele>34.9</ele>
        <time>2020-06-07T12:47:28Z</time>
      </trkpt>
      <trkpt lat="47.26654" lon="-1.66444">
        <ele>34.9</ele>
        <time>2020-06-07T12:47:29Z</time>
      </trkpt>
      <trkpt lat="47.26654" lon="-1.66445">
        <ele>35</ele>
        <time>2020-06-07T12:47:30Z</time>
      </trkpt>
      <trkpt lat="47.26654" lon="-1.66445">
        <ele>35</ele>
        <time>2020-06-07T12:47:31Z</time>
      </trkpt>
      <trkpt lat="47.26653" lon="-1.66446">
        <ele>35</ele>
        <time>2020-06-07T12:47:32Z</time>
      </trkpt>
      <trkpt lat="47.26653" lon="-1.66447">
        <ele>35</ele>
        <time>2020-06-07T12:47:33Z</time>
      </trkpt>
      <trkpt lat="47.26654" lon="-1.66448">
        <ele>35</ele>
        <time>2020-06-07T12:47:34Z</time>
      </trkpt>
      <trkpt lat="47.26655" lon="-1.6645">
        <ele>35</ele>
        <time>2020-06-07T12:47:35Z</time>
      </trkpt>
      <trkpt lat="47.26655" lon="-1.66451">
        <ele>35.1</ele>
        <time>2020-06-07T12:47:36Z</time>
      </trkpt>
      <trkpt lat="47.26656" lon="-1.66452">
        <ele>35.1</ele>
        <time>2020-06-07T12:47:37Z</time>
      </trkpt>
      <trkpt lat="47.26656" lon="-1.66453">
        <ele>35.1</ele>
        <time>2020-06-07T12:47:38Z</time>
      </trkpt>
      <trkpt lat="47.26657" lon="-1.66454">
        <ele>35.1</ele>
        <time>2020-06-07T12:47:39Z</time>
      </trkpt>
      <trkpt lat="47.26658" lon="-1.66456">
        <ele>35.2</ele>
        <time>2020-06-07T12:47:40Z</time>
      </trkpt>
      <trkpt lat="47.26659" lon="-1.66458">
        <ele>35.2</ele>
        <time>2020-06-07T12:47:41Z</time>
      </trkpt>
      <trkpt lat="47.2666" lon="-1.66459">
        <ele>35.3</ele>
        <time>2020-06-07T12:47:42Z</time>
      </trkpt>
      <trkpt lat="47.26662" lon="-1.6646">
        <ele>35.3</ele>
        <time>2020-06-07T12:47:43Z</time>
      </trkpt>
      <trkpt lat="47.26663" lon="-1.66461">
        <ele>35.4</ele>
        <time>2020-06-07T12:47:44Z</time>
      </trkpt>
      <trkpt lat="47.26664" lon="-1.66462">
        <ele>35.4</ele>
        <time>2020-06-07T12:47:45Z</time>
      </trkpt>
      <trkpt lat="47.26665" lon="-1.66463">
        <ele>35.4</ele>
        <time>2020-06-07T12:47:46Z</time>
      </trkpt>
      <trkpt lat="47.26666" lon="-1.66465">
        <ele>35.5</ele>
        <time>2020-06-07T12:47:47Z</time>
      </trkpt>
      <trkpt lat="47.26667" lon="-1.66466">
        <ele>35.5</ele>
        <time>2020-06-07T12:47:48Z</time>
      </trkpt>
      <trkpt lat="47.26667" lon="-1.66468">
        <ele>35.6</ele>
        <time>2020-06-07T12:47:49Z</time>
      </trkpt>
      <trkpt lat="47.26667" lon="-1.66469">
        <ele>35.6</ele>
        <time>2020-06-07T12:47:50Z</time>
      </trkpt>
      <trkpt lat="47.26668" lon="-1.66472">
        <ele>35.7</ele>
        <time>2020-06-07T12:47:51Z</time>
      </trkpt>
      <trkpt lat="47.26668" lon="-1.66473">
        <ele>35.7</ele>
        <time>2020-06-07T12:47:52Z</time>
      </trkpt>
      <trkpt lat="47.26668" lon="-1.66474">
        <ele>35.7</ele>
        <time>2020-06-07T12:47:53Z</time>
      </trkpt>
      <trkpt lat="47.26668" lon="-1.66476">
        <ele>35.8</ele>
        <time>2020-06-07T12:47:54Z</time>
      </trkpt>
      <trkpt lat="47.26668" lon="-1.66478">
        <ele>35.8</ele>
        <time>2020-06-07T12:47:55Z</time>
      </trkpt>
      <trkpt lat="47.26669" lon="-1.66478">
        <ele>35.9</ele>
        <time>2020-06-07T12:47:56Z</time>
      </trkpt>
      <trkpt lat="47.2667" lon="-1.66479">
        <ele>35.9</ele>
        <time>2020-06-07T12:47:57Z</time>
      </trkpt>
      <trkpt lat="47.2667" lon="-1.6648">
        <ele>35.9</ele>
        <time>2020-06-07T12:47:58Z</time>
      </trkpt>
      <trkpt lat="47.26671" lon="-1.66481">
        <ele>36</ele>
        <time>2020-06-07T12:47:59Z</time>
      </trkpt>
      <trkpt lat="47.26672" lon="-1.66482">
        <ele>36</ele>
        <time>2020-06-07T12:48:00Z</time>
      </trkpt>
      <trkpt lat="47.26673" lon="-1.66484">
        <ele>36.1</ele>
        <time>2020-06-07T12:48:01Z</time>
      </trkpt>
      <trkpt lat="47.26673" lon="-1.66486">
        <ele>36.1</ele>
        <time>2020-06-07T12:48:02Z</time>
      </trkpt>
      <trkpt lat="47.26674" lon="-1.66487">
        <ele>36.2</ele>
        <time>2020-06-07T12:48:03Z</time>
      </trkpt>
      <trkpt lat="47.26674" lon="-1.66489">
        <ele>36.2</ele>
        <time>2020-06-07T12:48:04Z</time>
      </trkpt>
      <trkpt lat="47.26674" lon="-1.66491">
        <ele>36.3</ele>
        <time>2020-06-07T12:48:05Z</time>
      </trkpt>
      <trkpt lat="47.26673" lon="-1.66493">
        <ele>36.3</ele>
        <time>2020-06-07T12:48:06Z</time>
      </trkpt>
      <trkpt lat="47.26673" lon="-1.66494">
        <ele>36.4</ele>
        <time>2020-06-07T12:48:07Z</time>
      </trkpt>
      <trkpt lat="47.26672" lon="-1.66495">
        <ele>36.4</ele>
        <time>2020-06-07T12:48:08Z</time>
      </trkpt>
      <trkpt lat="47.26672" lon="-1.66496">
        <ele>36.4</ele>
        <time>2020-06-07T12:48:09Z</time>
      </trkpt>
      <trkpt lat="47.26672" lon="-1.66497">
        <ele>36.5</ele>
        <time>2020-06-07T12:48:10Z</time>
      </trkpt>
      <trkpt lat="47.26672" lon="-1.66498">
        <ele>36.5</ele>
        <time>2020-06-07T12:48:11Z</time>
      </trkpt>
      <trkpt lat="47.26672" lon="-1.66499">
        <ele>36.5</ele>
        <time>2020-06-07T12:48:12Z</time>
      </trkpt>
      <trkpt lat="47.26671" lon="-1.66501">
        <ele>36.6</ele>
        <time>2020-06-07T12:48:13Z</time>
      </trkpt>
      <trkpt lat="47.26671" lon="-1.66504">
        <ele>36.6</ele>
        <time>2020-06-07T12:48:14Z</time>
      </trkpt>
      <trkpt lat="47.2667" lon="-1.66505">
        <ele>36.7</ele>
        <time>2020-06-07T12:48:15Z</time>
      </trkpt>
      <trkpt lat="47.26669" lon="-1.66506">
        <ele>36.7</ele>
        <time>2020-06-07T12:48:16Z</time>
      </trkpt>
      <trkpt lat="47.26669" lon="-1.66508">
        <ele>36.7</ele>
        <time>2020-06-07T12:48:17Z</time>
      </trkpt>
      <trkpt lat="47.26669" lon="-1.6651">
        <ele>36.8</ele>
        <time>2020-06-07T12:48:18Z</time>
      </trkpt>
      <trkpt lat="47.26669" lon="-1.66511">
        <ele>36.8</ele>
        <time>2020-06-07T12:48:19Z</time>
      </trkpt>
      <trkpt lat="47.26669" lon="-1.66512">
        <ele>36.8</ele>
        <time>2020-06-07T12:48:20Z</time>
      </trkpt>
      <trkpt lat="47.26668" lon="-1.66513">
        <ele>36.9</ele>
        <time>2020-06-07T12:48:21Z</time>
      </trkpt>
      <trkpt lat="47.26669" lon="-1.66516">
        <ele>36.9</ele>
        <time>2020-06-07T12:48:22Z</time>
      </trkpt>
      <trkpt lat="47.2667" lon="-1.66517">
        <ele>37</ele>
        <time>2020-06-07T12:48:23Z</time>
      </trkpt>
      <trkpt lat="47.2667" lon="-1.66518">
        <ele>37</ele>
        <time>2020-06-07T12:48:24Z</time>
      </trkpt>
      <trkpt lat="47.26671" lon="-1.66519">
        <ele>37</ele>
        <time>2020-06-07T12:48:25Z</time>
      </trkpt>
      <trkpt lat="47.26671" lon="-1.66521">
        <ele>37.1</ele>
        <time>2020-06-07T12:48:26Z</time>
      </trkpt>
      <trkpt lat="47.2667" lon="-1.66522">
        <ele>37.1</ele>
        <time>2020-06-07T12:48:27Z</time>
      </trkpt>
      <trkpt lat="47.26671" lon="-1.66524">
        <ele>37.1</ele>
        <time>2020-06-07T12:48:28Z</time>
      </trkpt>
      <trkpt lat="47.26671" lon="-1.66525">
        <ele>37.2</ele>
        <time>2020-06-07T12:48:29Z</time>
      </trkpt>
      <trkpt lat="47.26671" lon="-1.66526">
        <ele>37.2</ele>
        <time>2020-06-07T12:48:30Z</time>
      </trkpt>
      <trkpt lat="47.26672" lon="-1.66529">
        <ele>37.3</ele>
        <time>2020-06-07T12:48:31Z</time>
      </trkpt>
      <trkpt lat="47.26673" lon="-1.66529">
        <ele>37.3</ele>
        <time>2020-06-07T12:48:32Z</time>
      </trkpt>
      <trkpt lat="47.26673" lon="-1.6653">
        <ele>37.3</ele>
        <time>2020-06-07T12:48:33Z</time>
      </trkpt>
      <trkpt lat="47.26674" lon="-1.66532">
        <ele>37.4</ele>
        <time>2020-06-07T12:48:34Z</time>
      </trkpt>
      <trkpt lat="47.26674" lon="-1.66533">
        <ele>37.4</ele>
        <time>2020-06-07T12:48:35Z</time>
      </trkpt>
      <trkpt lat="47.26674" lon="-1.66535">
        <ele>37.4</ele>
        <time>2020-06-07T12:48:36Z</time>
      </trkpt>
      <trkpt lat="47.26674" lon="-1.66537">
        <ele>37.5</ele>
        <time>2020-06-07T12:48:37Z</time>
      </trkpt>
      <trkpt lat="47.26674" lon="-1.66539">
        <ele>37.5</ele>
        <time>2020-06-07T12:48:38Z</time>
      </trkpt>
      <trkpt lat="47.26674" lon="-1.6654">
        <ele>37.5</ele>
        <time>2020-06-07T12:48:39Z</time>
      </trkpt>
      <trkpt lat="47.26673" lon="-1.66541">
        <ele>37.5</ele>
        <time>2020-06-07T12:48:40Z</time>
      </trkpt>
      <trkpt lat="47.26673" lon="-1.66542">
        <ele>37.5</ele>
        <time>2020-06-07T12:48:41Z</time>
      </trkpt>
      <trkpt lat="47.26673" lon="-1.66542">
        <ele>37.5</ele>
        <time>2020-06-07T12:48:42Z</time>
      </trkpt>
      <trkpt lat="47.26673" lon="-1.66543">
        <ele>37.6</ele>
        <time>2020-06-07T12:48:43Z</time>
      </trkpt>
      <trkpt lat="47.26673" lon="-1.66544">
        <ele>37.6</ele>
        <time>2020-06-07T12:48:44Z</time>
      </trkpt>
      <trkpt lat="47.26673" lon="-1.66545">
        <ele>37.6</ele>
        <time>2020-06-07T12:48:45Z</time>
      </trkpt>
      <trkpt lat="47.26672" lon="-1.66547">
        <ele>37.6</ele>
        <time>2020-06-07T12:48:46Z</time>
      </trkpt>
      <trkpt lat="47.26673" lon="-1.66548">
        <ele>37.6</ele>
        <time>2020-06-07T12:48:47Z</time>
      </trkpt>
      <trkpt lat="47.26673" lon="-1.6655">
        <ele>37.7</ele>
        <time>2020-06-07T12:48:48Z</time>
      </trkpt>
      <trkpt lat="47.26674" lon="-1.66551">
        <ele>37.7</ele>
        <time>2020-06-07T12:48:49Z</time>
      </trkpt>
      <trkpt lat="47.26675" lon="-1.66552">
        <ele>37.7</ele>
        <time>2020-06-07T12:48:50Z</time>
      </trkpt>
      <trkpt lat="47.26676" lon="-1.66552">
        <ele>37.8</ele>
        <time>2020-06-07T12:48:51Z</time>
      </trkpt>
      <trkpt lat="47.26677" lon="-1.66552">
        <ele>37.8</ele>
        <time>2020-06-07T12:48:52Z</time>
      </trkpt>
      <trkpt lat="47.26677" lon="-1.66552">
        <ele>37.8</ele>
        <time>2020-06-07T12:48:53Z</time>
      </trkpt>
      <trkpt lat="47.26678" lon="-1.66553">
        <ele>37.8</ele>
        <time>2020-06-07T12:48:54Z</time>
      </trkpt>
      <trkpt lat="47.26678" lon="-1.66554">
        <ele>37.8</ele>
        <time>2020-06-07T12:48:55Z</time>
      </trkpt>
      <trkpt lat="47.26678" lon="-1.66556">
        <ele>37.9</ele>
        <time>2020-06-07T12:48:56Z</time>
      </trkpt>
      <trkpt lat="47.26678" lon="-1.66558">
        <ele>37.9</ele>
        <time>2020-06-07T12:48:57Z</time>
      </trkpt>
      <trkpt lat="47.26679" lon="-1.66559">
        <ele>37.9</ele>
        <time>2020-06-07T12:48:58Z</time>
      </trkpt>
      <trkpt lat="47.26681" lon="-1.6656">
        <ele>38</ele>
        <time>2020-06-07T12:48:59Z</time>
      </trkpt>
      <trkpt lat="47.26681" lon="-1.6656">
        <ele>38</ele>
        <time>2020-06-07T12:49:00Z</time>
      </trkpt>
      <trkpt lat="47.26682" lon="-1.66561">
        <ele>38</ele>
        <time>2020-06-07T12:49:01Z</time>
      </trkpt>
      <trkpt lat="47.26684" lon="-1.66562">
        <ele>38</ele>
        <time>2020-06-07T12:49:02Z</time>
      </trkpt>
      <trkpt lat="47.26684" lon="-1.66563">
        <ele>38.1</ele>
        <time>2020-06-07T12:49:03Z</time>
      </trkpt>
      <trkpt lat="47.26685" lon="-1.66563">
        <ele>38.1</ele>
        <time>2020-06-07T12:49:04Z</time>
      </trkpt>
      <trkpt lat="47.26685" lon="-1.66564">
        <ele>38.1</ele>
        <time>2020-06-07T12:49:05Z</time>
      </trkpt>
      <trkpt lat="47.26686" lon="-1.66564">
        <ele>38.1</ele>
        <time>2020-06-07T12:49:06Z</time>
      </trkpt>
      <trkpt lat="47.26687" lon="-1.66565">
        <ele>38.1</ele>
        <time>2020-06-07T12:49:07Z</time>
      </trkpt>
      <trkpt lat="47.26687" lon="-1.66565">
        <ele>38.1</ele>
        <time>2020-06-07T12:49:08Z</time>
      </trkpt>
      <trkpt lat="47.26686" lon="-1.66565">
        <ele>38.1</ele>
        <time>2020-06-07T12:49:09Z</time>
      </trkpt>
      <trkpt lat="47.26686" lon="-1.66566">
        <ele>38.2</ele>
        <time>2020-06-07T12:49:10Z</time>
      </trkpt>
      <trkpt lat="47.26685" lon="-1.66567">
        <ele>38.2</ele>
        <time>2020-06-07T12:49:11Z</time>
      </trkpt>
      <trkpt lat="47.26686" lon="-1.66568">
        <ele>38.2</ele>
        <time>2020-06-07T12:49:12Z</time>
      </trkpt>
      <trkpt lat="47.26686" lon="-1.66569">
        <ele>38.2</ele>
        <time>2020-06-07T12:49:13Z</time>
      </trkpt>
      <trkpt lat="47.26687" lon="-1.6657">
        <ele>38.2</ele>
        <time>2020-06-07T12:49:14Z</time>
      </trkpt>
      <trkpt lat="47.26688" lon="-1.66571">
        <ele>38.3</ele>
        <time>2020-06-07T12:49:15Z</time>
      </trkpt>
      <trkpt lat="47.26689" lon="-1.66573">
        <ele>38.3</ele>
        <time>2020-06-07T12:49:16Z</time>
      </trkpt>
      <trkpt lat="47.2669" lon="-1.66575">
        <ele>38.3</ele>
        <time>2020-06-07T12:49:17Z</time>
      </trkpt>
      <trkpt lat="47.26691" lon="-1.66576">
        <ele>38.3</ele>
        <time>2020-06-07T12:49:18Z</time>
      </trkpt>
      <trkpt lat="47.26692" lon="-1.66576">
        <ele>38.4</ele>
        <time>2020-06-07T12:49:19Z</time>
      </trkpt>
      <trkpt lat="47.26693" lon="-1.66577">
        <ele>38.4</ele>
        <time>2020-06-07T12:49:20Z</time>
      </trkpt>
      <trkpt lat="47.26694" lon="-1.66579">
        <ele>38.4</ele>
        <time>2020-06-07T12:49:21Z</time>
      </trkpt>
      <trkpt lat="47.26695" lon="-1.66581">
        <ele>38.5</ele>
        <time>2020-06-07T12:49:22Z</time>
      </trkpt>
      <trkpt lat="47.26696" lon="-1.66582">
        <ele>38.5</ele>
        <time>2020-06-07T12:49:23Z</time>
      </trkpt>
      <trkpt lat="47.26697" lon="-1.66584">
        <ele>38.5</ele>
        <time>2020-06-07T12:49:24Z</time>
      </trkpt>
      <trkpt lat="47.26697" lon="-1.66585">
        <ele>38.5</ele>
        <time>2020-06-07T12:49:25Z</time>
      </trkpt>
      <trkpt lat="47.26698" lon="-1.66586">
        <ele>38.5</ele>
        <time>2020-06-07T12:49:26Z</time>
      </trkpt>
      <trkpt lat="47.26699" lon="-1.66587">
        <ele>38.6</ele>
        <time>2020-06-07T12:49:27Z</time>
      </trkpt>
      <trkpt lat="47.26699" lon="-1.66588">
        <ele>38.6</ele>
        <time>2020-06-07T12:49:28Z</time>
      </trkpt>
      <trkpt lat="47.26699" lon="-1.66589">
        <ele>38.6</ele>
        <time>2020-06-07T12:49:29Z</time>
      </trkpt>
      <trkpt lat="47.26699" lon="-1.6659">
        <ele>38.6</ele>
        <time>2020-06-07T12:49:30Z</time>
      </trkpt>
      <trkpt lat="47.26699" lon="-1.66591">
        <ele>38.6</ele>
        <time>2020-06-07T12:49:31Z</time>
      </trkpt>
      <trkpt lat="47.26699" lon="-1.66592">
        <ele>38.6</ele>
        <time>2020-06-07T12:49:32Z</time>
      </trkpt>
      <trkpt lat="47.26699" lon="-1.66592">
        <ele>38.6</ele>
        <time>2020-06-07T12:49:33Z</time>
      </trkpt>
      <trkpt lat="47.26699" lon="-1.66593">
        <ele>38.6</ele>
        <time>2020-06-07T12:49:34Z</time>
      </trkpt>
      <trkpt lat="47.26699" lon="-1.66594">
        <ele>38.7</ele>
        <time>2020-06-07T12:49:35Z</time>
      </trkpt>
      <trkpt lat="47.26699" lon="-1.66595">
        <ele>38.7</ele>
        <time>2020-06-07T12:49:36Z</time>
      </trkpt>
      <trkpt lat="47.26699" lon="-1.66596">
        <ele>38.7</ele>
        <time>2020-06-07T12:49:37Z</time>
      </trkpt>
      <trkpt lat="47.26698" lon="-1.66598">
        <ele>38.7</ele>
        <time>2020-06-07T12:49:38Z</time>
      </trkpt>
      <trkpt lat="47.26698" lon="-1.666">
        <ele>38.7</ele>
        <time>2020-06-07T12:49:39Z</time>
      </trkpt>
      <trkpt lat="47.26699" lon="-1.66601">
        <ele>38.7</ele>
        <time>2020-06-07T12:49:40Z</time>
      </trkpt>
      <trkpt lat="47.267" lon="-1.66603">
        <ele>38.8</ele>
        <time>2020-06-07T12:49:41Z</time>
      </trkpt>
      <trkpt lat="47.26701" lon="-1.66604">
        <ele>38.8</ele>
        <time>2020-06-07T12:49:42Z</time>
      </trkpt>
      <trkpt lat="47.26701" lon="-1.66605">
        <ele>38.8</ele>
        <time>2020-06-07T12:49:43Z</time>
      </trkpt>
      <trkpt lat="47.26702" lon="-1.66607">
        <ele>38.8</ele>
        <time>2020-06-07T12:49:44Z</time>
      </trkpt>
      <trkpt lat="47.26702" lon="-1.66608">
        <ele>38.8</ele>
        <time>2020-06-07T12:49:45Z</time>
      </trkpt>
      <trkpt lat="47.26702" lon="-1.66608">
        <ele>38.8</ele>
        <time>2020-06-07T12:49:46Z</time>
      </trkpt>
      <trkpt lat="47.26701" lon="-1.66608">
        <ele>38.8</ele>
        <time>2020-06-07T12:49:47Z</time>
      </trkpt>
      <trkpt lat="47.267" lon="-1.66607">
        <ele>38.8</ele>
        <time>2020-06-07T12:49:48Z</time>
      </trkpt>
      <trkpt lat="47.267" lon="-1.66607">
        <ele>38.8</ele>
        <time>2020-06-07T12:49:49Z</time>
      </trkpt>
      <trkpt lat="47.267" lon="-1.66607">
        <ele>38.8</ele>
        <time>2020-06-07T12:49:50Z</time>
      </trkpt>
      <trkpt lat="47.267" lon="-1.66607">
        <ele>38.8</ele>
        <time>2020-06-07T12:49:51Z</time>
      </trkpt>
      <trkpt lat="47.267" lon="-1.66607">
        <ele>38.8</ele>
        <time>2020-06-07T12:49:52Z</time>
      </trkpt>
      <trkpt lat="47.267" lon="-1.66607">
        <ele>38.8</ele>
        <time>2020-06-07T12:49:53Z</time>
      </trkpt>
      <trkpt lat="47.267" lon="-1.66607">
        <ele>38.8</ele>
        <time>2020-06-07T12:49:54Z</time>
      </trkpt>
      <trkpt lat="47.267" lon="-1.66607">
        <ele>38.8</ele>
        <time>2020-06-07T12:49:55Z</time>
      </trkpt>
      <trkpt lat="47.267" lon="-1.66609">
        <ele>38.8</ele>
        <time>2020-06-07T12:49:56Z</time>
      </trkpt>
      <trkpt lat="47.267" lon="-1.6661">
        <ele>38.9</ele>
        <time>2020-06-07T12:49:57Z</time>
      </trkpt>
      <trkpt lat="47.267" lon="-1.66611">
        <ele>38.9</ele>
        <time>2020-06-07T12:49:58Z</time>
      </trkpt>
      <trkpt lat="47.26699" lon="-1.66612">
        <ele>38.9</ele>
        <time>2020-06-07T12:49:59Z</time>
      </trkpt>
      <trkpt lat="47.26699" lon="-1.66613">
        <ele>38.9</ele>
        <time>2020-06-07T12:50:00Z</time>
      </trkpt>
      <trkpt lat="47.26699" lon="-1.66614">
        <ele>38.9</ele>
        <time>2020-06-07T12:50:01Z</time>
      </trkpt>
      <trkpt lat="47.26699" lon="-1.66615">
        <ele>38.9</ele>
        <time>2020-06-07T12:50:02Z</time>
      </trkpt>
      <trkpt lat="47.26699" lon="-1.66616">
        <ele>38.9</ele>
        <time>2020-06-07T12:50:03Z</time>
      </trkpt>
      <trkpt lat="47.26699" lon="-1.66616">
        <ele>38.9</ele>
        <time>2020-06-07T12:50:04Z</time>
      </trkpt>
      <trkpt lat="47.26699" lon="-1.66616">
        <ele>38.9</ele>
        <time>2020-06-07T12:50:05Z</time>
      </trkpt>
      <trkpt lat="47.26698" lon="-1.66618">
        <ele>38.9</ele>
        <time>2020-06-07T12:50:06Z</time>
      </trkpt>
      <trkpt lat="47.26698" lon="-1.66617">
        <ele>38.9</ele>
        <time>2020-06-07T12:50:07Z</time>
      </trkpt>
      <trkpt lat="47.26698" lon="-1.66617">
        <ele>38.9</ele>
        <time>2020-06-07T12:50:08Z</time>
      </trkpt>
      <trkpt lat="47.26698" lon="-1.66616">
        <ele>38.9</ele>
        <time>2020-06-07T12:50:09Z</time>
      </trkpt>
      <trkpt lat="47.26698" lon="-1.66616">
        <ele>38.9</ele>
        <time>2020-06-07T12:50:10Z</time>
      </trkpt>
      <trkpt lat="47.26698" lon="-1.66614">
        <ele>38.9</ele>
        <time>2020-06-07T12:50:11Z</time>
      </trkpt>
      <trkpt lat="47.26698" lon="-1.66614">
        <ele>38.9</ele>
        <time>2020-06-07T12:50:12Z</time>
      </trkpt>
      <trkpt lat="47.26698" lon="-1.66614">
        <ele>38.9</ele>
        <time>2020-06-07T12:50:13Z</time>
      </trkpt>
      <trkpt lat="47.26698" lon="-1.66614">
        <ele>38.9</ele>
        <time>2020-06-07T12:50:14Z</time>
      </trkpt>
      <trkpt lat="47.26698" lon="-1.66611">
        <ele>38.9</ele>
        <time>2020-06-07T12:50:15Z</time>
      </trkpt>
      <trkpt lat="47.26698" lon="-1.66611">
        <ele>38.9</ele>
        <time>2020-06-07T12:50:16Z</time>
      </trkpt>
      <trkpt lat="47.26698" lon="-1.66609">
        <ele>38.9</ele>
        <time>2020-06-07T12:50:17Z</time>
      </trkpt>
      <trkpt lat="47.26698" lon="-1.66608">
        <ele>38.8</ele>
        <time>2020-06-07T12:50:18Z</time>
      </trkpt>
      <trkpt lat="47.26698" lon="-1.66606">
        <ele>38.8</ele>
        <time>2020-06-07T12:50:19Z</time>
      </trkpt>
      <trkpt lat="47.267" lon="-1.66606">
        <ele>38.8</ele>
        <time>2020-06-07T12:50:20Z</time>
      </trkpt>
      <trkpt lat="47.26701" lon="-1.66606">
        <ele>38.8</ele>
        <time>2020-06-07T12:50:21Z</time>
      </trkpt>
      <trkpt lat="47.26701" lon="-1.66607">
        <ele>38.8</ele>
        <time>2020-06-07T12:50:22Z</time>
      </trkpt>
      <trkpt lat="47.26702" lon="-1.66607">
        <ele>38.8</ele>
        <time>2020-06-07T12:50:23Z</time>
      </trkpt>
      <trkpt lat="47.26704" lon="-1.66607">
        <ele>38.7</ele>
        <time>2020-06-07T12:50:24Z</time>
      </trkpt>
      <trkpt lat="47.26704" lon="-1.66607">
        <ele>38.7</ele>
        <time>2020-06-07T12:50:25Z</time>
      </trkpt>
      <trkpt lat="47.26705" lon="-1.66607">
        <ele>38.7</ele>
        <time>2020-06-07T12:50:26Z</time>
      </trkpt>
      <trkpt lat="47.26705" lon="-1.66607">
        <ele>38.7</ele>
        <time>2020-06-07T12:50:27Z</time>
      </trkpt>
      <trkpt lat="47.26705" lon="-1.66607">
        <ele>38.7</ele>
        <time>2020-06-07T12:50:28Z</time>
      </trkpt>
      <trkpt lat="47.26705" lon="-1.66607">
        <ele>38.7</ele>
        <time>2020-06-07T12:50:29Z</time>
      </trkpt>
      <trkpt lat="47.26707" lon="-1.66606">
        <ele>38.6</ele>
        <time>2020-06-07T12:50:30Z</time>
      </trkpt>
      <trkpt lat="47.26708" lon="-1.66606">
        <ele>38.6</ele>
        <time>2020-06-07T12:50:31Z</time>
      </trkpt>
      <trkpt lat="47.26708" lon="-1.66605">
        <ele>38.6</ele>
        <time>2020-06-07T12:50:32Z</time>
      </trkpt>
      <trkpt lat="47.2671" lon="-1.66605">
        <ele>38.6</ele>
        <time>2020-06-07T12:50:33Z</time>
      </trkpt>
      <trkpt lat="47.2671" lon="-1.66604">
        <ele>38.5</ele>
        <time>2020-06-07T12:50:34Z</time>
      </trkpt>
      <trkpt lat="47.26711" lon="-1.66603">
        <ele>38.5</ele>
        <time>2020-06-07T12:50:35Z</time>
      </trkpt>
      <trkpt lat="47.26712" lon="-1.66603">
        <ele>38.5</ele>
        <time>2020-06-07T12:50:36Z</time>
      </trkpt>
      <trkpt lat="47.26712" lon="-1.66603">
        <ele>38.4</ele>
        <time>2020-06-07T12:50:37Z</time>
      </trkpt>
      <trkpt lat="47.26712" lon="-1.66603">
        <ele>38.4</ele>
        <time>2020-06-07T12:50:38Z</time>
      </trkpt>
      <trkpt lat="47.26712" lon="-1.66601">
        <ele>38.4</ele>
        <time>2020-06-07T12:50:39Z</time>
      </trkpt>
      <trkpt lat="47.26713" lon="-1.666">
        <ele>38.4</ele>
        <time>2020-06-07T12:50:40Z</time>
      </trkpt>
      <trkpt lat="47.26714" lon="-1.666">
        <ele>38.3</ele>
        <time>2020-06-07T12:50:41Z</time>
      </trkpt>
      <trkpt lat="47.26714" lon="-1.66599">
        <ele>38.3</ele>
        <time>2020-06-07T12:50:42Z</time>
      </trkpt>
      <trkpt lat="47.26716" lon="-1.666">
        <ele>38.2</ele>
        <time>2020-06-07T12:50:43Z</time>
      </trkpt>
      <trkpt lat="47.26718" lon="-1.666">
        <ele>38.1</ele>
        <time>2020-06-07T12:50:44Z</time>
      </trkpt>
      <trkpt lat="47.26718" lon="-1.66601">
        <ele>37.3</ele>
        <time>2020-06-07T12:50:45Z</time>
      </trkpt>
      <trkpt lat="47.26719" lon="-1.66601">
        <ele>37.3</ele>
        <time>2020-06-07T12:50:46Z</time>
      </trkpt>
      <trkpt lat="47.2672" lon="-1.66601">
        <ele>37.3</ele>
        <time>2020-06-07T12:50:47Z</time>
      </trkpt>
      <trkpt lat="47.26721" lon="-1.66603">
        <ele>37.4</ele>
        <time>2020-06-07T12:50:48Z</time>
      </trkpt>
      <trkpt lat="47.26722" lon="-1.66604">
        <ele>37.4</ele>
        <time>2020-06-07T12:50:49Z</time>
      </trkpt>
      <trkpt lat="47.26723" lon="-1.66604">
        <ele>37.4</ele>
        <time>2020-06-07T12:50:50Z</time>
      </trkpt>
      <trkpt lat="47.26724" lon="-1.66605">
        <ele>37.4</ele>
        <time>2020-06-07T12:50:51Z</time>
      </trkpt>
      <trkpt lat="47.26725" lon="-1.66606">
        <ele>37.4</ele>
        <time>2020-06-07T12:50:52Z</time>
      </trkpt>
      <trkpt lat="47.26725" lon="-1.66606">
        <ele>37.4</ele>
        <time>2020-06-07T12:50:53Z</time>
      </trkpt>
      <trkpt lat="47.26726" lon="-1.66607">
        <ele>37.4</ele>
        <time>2020-06-07T12:50:54Z</time>
      </trkpt>
      <trkpt lat="47.26727" lon="-1.66607">
        <ele>37.4</ele>
        <time>2020-06-07T12:50:55Z</time>
      </trkpt>
      <trkpt lat="47.26728" lon="-1.66608">
        <ele>37.4</ele>
        <time>2020-06-07T12:50:56Z</time>
      </trkpt>
      <trkpt lat="47.26729" lon="-1.66608">
        <ele>37.4</ele>
        <time>2020-06-07T12:50:57Z</time>
      </trkpt>
      <trkpt lat="47.2673" lon="-1.66609">
        <ele>36.9</ele>
        <time>2020-06-07T12:50:58Z</time>
      </trkpt>
      <trkpt lat="47.26731" lon="-1.66609">
        <ele>36.9</ele>
        <time>2020-06-07T12:50:59Z</time>
      </trkpt>
      <trkpt lat="47.26732" lon="-1.6661">
        <ele>36.9</ele>
        <time>2020-06-07T12:51:00Z</time>
      </trkpt>
      <trkpt lat="47.26733" lon="-1.6661">
        <ele>36.8</ele>
        <time>2020-06-07T12:51:01Z</time>
      </trkpt>
      <trkpt lat="47.26734" lon="-1.6661">
        <ele>36.7</ele>
        <time>2020-06-07T12:51:02Z</time>
      </trkpt>
      <trkpt lat="47.26737" lon="-1.6661">
        <ele>36.6</ele>
        <time>2020-06-07T12:51:03Z</time>
      </trkpt>
      <trkpt lat="47.26738" lon="-1.6661">
        <ele>36.6</ele>
        <time>2020-06-07T12:51:04Z</time>
      </trkpt>
      <trkpt lat="47.26738" lon="-1.6661">
        <ele>36.6</ele>
        <time>2020-06-07T12:51:05Z</time>
      </trkpt>
      <trkpt lat="47.2674" lon="-1.66609">
        <ele>36.5</ele>
        <time>2020-06-07T12:51:06Z</time>
      </trkpt>
      <trkpt lat="47.26741" lon="-1.66609">
        <ele>36.5</ele>
        <time>2020-06-07T12:51:07Z</time>
      </trkpt>
      <trkpt lat="47.26742" lon="-1.66609">
        <ele>36.5</ele>
        <time>2020-06-07T12:51:08Z</time>
      </trkpt>
      <trkpt lat="47.26742" lon="-1.66609">
        <ele>36.4</ele>
        <time>2020-06-07T12:51:09Z</time>
      </trkpt>
      <trkpt lat="47.26743" lon="-1.66609">
        <ele>36.4</ele>
        <time>2020-06-07T12:51:10Z</time>
      </trkpt>
      <trkpt lat="47.26744" lon="-1.66608">
        <ele>36.4</ele>
        <time>2020-06-07T12:51:11Z</time>
      </trkpt>
      <trkpt lat="47.26745" lon="-1.66608">
        <ele>36.4</ele>
        <time>2020-06-07T12:51:12Z</time>
      </trkpt>
      <trkpt lat="47.26746" lon="-1.66607">
        <ele>36.3</ele>
        <time>2020-06-07T12:51:13Z</time>
      </trkpt>
      <trkpt lat="47.26746" lon="-1.66607">
        <ele>36.3</ele>
        <time>2020-06-07T12:51:14Z</time>
      </trkpt>
      <trkpt lat="47.26746" lon="-1.66606">
        <ele>36.3</ele>
        <time>2020-06-07T12:51:15Z</time>
      </trkpt>
      <trkpt lat="47.26747" lon="-1.66605">
        <ele>36.3</ele>
        <time>2020-06-07T12:51:16Z</time>
      </trkpt>
      <trkpt lat="47.26747" lon="-1.66604">
        <ele>36.3</ele>
        <time>2020-06-07T12:51:17Z</time>
      </trkpt>
      <trkpt lat="47.26748" lon="-1.66603">
        <ele>36.3</ele>
        <time>2020-06-07T12:51:18Z</time>
      </trkpt>
      <trkpt lat="47.26748" lon="-1.66602">
        <ele>36.2</ele>
        <time>2020-06-07T12:51:19Z</time>
      </trkpt>
      <trkpt lat="47.26749" lon="-1.66602">
        <ele>36.2</ele>
        <time>2020-06-07T12:51:20Z</time>
      </trkpt>
      <trkpt lat="47.2675" lon="-1.66602">
        <ele>36.2</ele>
        <time>2020-06-07T12:51:21Z</time>
      </trkpt>
      <trkpt lat="47.26751" lon="-1.66602">
        <ele>36.1</ele>
        <time>2020-06-07T12:51:22Z</time>
      </trkpt>
      <trkpt lat="47.26752" lon="-1.66603">
        <ele>36.1</ele>
        <time>2020-06-07T12:51:23Z</time>
      </trkpt>
      <trkpt lat="47.26753" lon="-1.66603">
        <ele>36.1</ele>
        <time>2020-06-07T12:51:24Z</time>
      </trkpt>
      <trkpt lat="47.26754" lon="-1.66604">
        <ele>36.1</ele>
        <time>2020-06-07T12:51:25Z</time>
      </trkpt>
      <trkpt lat="47.26755" lon="-1.66604">
        <ele>36.1</ele>
        <time>2020-06-07T12:51:26Z</time>
      </trkpt>
      <trkpt lat="47.26756" lon="-1.66604">
        <ele>36.1</ele>
        <time>2020-06-07T12:51:27Z</time>
      </trkpt>
      <trkpt lat="47.26757" lon="-1.66605">
        <ele>36.1</ele>
        <time>2020-06-07T12:51:28Z</time>
      </trkpt>
      <trkpt lat="47.26757" lon="-1.66605">
        <ele>36.1</ele>
        <time>2020-06-07T12:51:29Z</time>
      </trkpt>
      <trkpt lat="47.26757" lon="-1.66606">
        <ele>36.1</ele>
        <time>2020-06-07T12:51:30Z</time>
      </trkpt>
      <trkpt lat="47.26758" lon="-1.66607">
        <ele>36.1</ele>
        <time>2020-06-07T12:51:31Z</time>
      </trkpt>
      <trkpt lat="47.26759" lon="-1.66607">
        <ele>36.1</ele>
        <time>2020-06-07T12:51:32Z</time>
      </trkpt>
      <trkpt lat="47.2676" lon="-1.66608">
        <ele>36.1</ele>
        <time>2020-06-07T12:51:33Z</time>
      </trkpt>
      <trkpt lat="47.2676" lon="-1.66608">
        <ele>36.1</ele>
        <time>2020-06-07T12:51:34Z</time>
      </trkpt>
      <trkpt lat="47.26761" lon="-1.66608">
        <ele>36.1</ele>
        <time>2020-06-07T12:51:35Z</time>
      </trkpt>
      <trkpt lat="47.26762" lon="-1.66608">
        <ele>36</ele>
        <time>2020-06-07T12:51:36Z</time>
      </trkpt>
      <trkpt lat="47.26762" lon="-1.66608">
        <ele>36</ele>
        <time>2020-06-07T12:51:37Z</time>
      </trkpt>
      <trkpt lat="47.26763" lon="-1.66608">
        <ele>36</ele>
        <time>2020-06-07T12:51:38Z</time>
      </trkpt>
      <trkpt lat="47.26763" lon="-1.66609">
        <ele>36</ele>
        <time>2020-06-07T12:51:39Z</time>
      </trkpt>
      <trkpt lat="47.26763" lon="-1.66609">
        <ele>36</ele>
        <time>2020-06-07T12:51:40Z</time>
      </trkpt>
      <trkpt lat="47.26763" lon="-1.66609">
        <ele>36</ele>
        <time>2020-06-07T12:51:41Z</time>
      </trkpt>
      <trkpt lat="47.26764" lon="-1.6661">
        <ele>36</ele>
        <time>2020-06-07T12:51:42Z</time>
      </trkpt>
      <trkpt lat="47.26764" lon="-1.66611">
        <ele>36</ele>
        <time>2020-06-07T12:51:43Z</time>
      </trkpt>
      <trkpt lat="47.26764" lon="-1.66612">
        <ele>36</ele>
        <time>2020-06-07T12:51:44Z</time>
      </trkpt>
      <trkpt lat="47.26764" lon="-1.66613">
        <ele>36</ele>
        <time>2020-06-07T12:51:45Z</time>
      </trkpt>
      <trkpt lat="47.26765" lon="-1.66614">
        <ele>36</ele>
        <time>2020-06-07T12:51:46Z</time>
      </trkpt>
      <trkpt lat="47.26766" lon="-1.66614">
        <ele>36</ele>
        <time>2020-06-07T12:51:47Z</time>
      </trkpt>
      <trkpt lat="47.26767" lon="-1.66615">
        <ele>36</ele>
        <time>2020-06-07T12:51:48Z</time>
      </trkpt>
      <trkpt lat="47.26768" lon="-1.66616">
        <ele>36</ele>
        <time>2020-06-07T12:51:49Z</time>
      </trkpt>
      <trkpt lat="47.26769" lon="-1.66616">
        <ele>36</ele>
        <time>2020-06-07T12:51:50Z</time>
      </trkpt>
      <trkpt lat="47.26771" lon="-1.66616">
        <ele>36</ele>
        <time>2020-06-07T12:51:51Z</time>
      </trkpt>
      <trkpt lat="47.26771" lon="-1.66617">
        <ele>35.9</ele>
        <time>2020-06-07T12:51:52Z</time>
      </trkpt>
      <trkpt lat="47.26772" lon="-1.66619">
        <ele>35.9</ele>
        <time>2020-06-07T12:51:53Z</time>
      </trkpt>
      <trkpt lat="47.26773" lon="-1.66621">
        <ele>35.9</ele>
        <time>2020-06-07T12:51:54Z</time>
      </trkpt>
      <trkpt lat="47.26774" lon="-1.66622">
        <ele>35.9</ele>
        <time>2020-06-07T12:51:55Z</time>
      </trkpt>
      <trkpt lat="47.26774" lon="-1.66623">
        <ele>35.9</ele>
        <time>2020-06-07T12:51:56Z</time>
      </trkpt>
      <trkpt lat="47.26775" lon="-1.66626">
        <ele>35.9</ele>
        <time>2020-06-07T12:51:57Z</time>
      </trkpt>
      <trkpt lat="47.26775" lon="-1.66627">
        <ele>35.9</ele>
        <time>2020-06-07T12:51:58Z</time>
      </trkpt>
      <trkpt lat="47.26775" lon="-1.66629">
        <ele>35.9</ele>
        <time>2020-06-07T12:51:59Z</time>
      </trkpt>
      <trkpt lat="47.26774" lon="-1.66631">
        <ele>35.9</ele>
        <time>2020-06-07T12:52:00Z</time>
      </trkpt>
      <trkpt lat="47.26775" lon="-1.66632">
        <ele>35.9</ele>
        <time>2020-06-07T12:52:01Z</time>
      </trkpt>
      <trkpt lat="47.26776" lon="-1.66633">
        <ele>35.9</ele>
        <time>2020-06-07T12:52:02Z</time>
      </trkpt>
      <trkpt lat="47.26779" lon="-1.66635">
        <ele>35.9</ele>
        <time>2020-06-07T12:52:03Z</time>
      </trkpt>
      <trkpt lat="47.2678" lon="-1.66635">
        <ele>35.9</ele>
        <time>2020-06-07T12:52:04Z</time>
      </trkpt>
      <trkpt lat="47.26781" lon="-1.66635">
        <ele>35.9</ele>
        <time>2020-06-07T12:52:05Z</time>
      </trkpt>
      <trkpt lat="47.26781" lon="-1.66636">
        <ele>35.9</ele>
        <time>2020-06-07T12:52:06Z</time>
      </trkpt>
      <trkpt lat="47.26782" lon="-1.66637">
        <ele>35.9</ele>
        <time>2020-06-07T12:52:07Z</time>
      </trkpt>
      <trkpt lat="47.26782" lon="-1.66638">
        <ele>35.9</ele>
        <time>2020-06-07T12:52:08Z</time>
      </trkpt>
      <trkpt lat="47.26782" lon="-1.66641">
        <ele>35.9</ele>
        <time>2020-06-07T12:52:09Z</time>
      </trkpt>
      <trkpt lat="47.26782" lon="-1.66642">
        <ele>35.8</ele>
        <time>2020-06-07T12:52:10Z</time>
      </trkpt>
      <trkpt lat="47.26782" lon="-1.66644">
        <ele>35.8</ele>
        <time>2020-06-07T12:52:11Z</time>
      </trkpt>
      <trkpt lat="47.26781" lon="-1.66645">
        <ele>35.8</ele>
        <time>2020-06-07T12:52:12Z</time>
      </trkpt>
      <trkpt lat="47.26781" lon="-1.66647">
        <ele>35.8</ele>
        <time>2020-06-07T12:52:13Z</time>
      </trkpt>
      <trkpt lat="47.26781" lon="-1.66649">
        <ele>35.8</ele>
        <time>2020-06-07T12:52:14Z</time>
      </trkpt>
      <trkpt lat="47.26781" lon="-1.6665">
        <ele>35.8</ele>
        <time>2020-06-07T12:52:15Z</time>
      </trkpt>
      <trkpt lat="47.26781" lon="-1.66652">
        <ele>35.8</ele>
        <time>2020-06-07T12:52:16Z</time>
      </trkpt>
      <trkpt lat="47.26782" lon="-1.66653">
        <ele>35.8</ele>
        <time>2020-06-07T12:52:17Z</time>
      </trkpt>
      <trkpt lat="47.26782" lon="-1.66653">
        <ele>35.8</ele>
        <time>2020-06-07T12:52:18Z</time>
      </trkpt>
      <trkpt lat="47.26783" lon="-1.66654">
        <ele>35.8</ele>
        <time>2020-06-07T12:52:19Z</time>
      </trkpt>
      <trkpt lat="47.26782" lon="-1.66655">
        <ele>35.8</ele>
        <time>2020-06-07T12:52:20Z</time>
      </trkpt>
      <trkpt lat="47.26782" lon="-1.66656">
        <ele>35.8</ele>
        <time>2020-06-07T12:52:21Z</time>
      </trkpt>
      <trkpt lat="47.26783" lon="-1.66657">
        <ele>35.8</ele>
        <time>2020-06-07T12:52:22Z</time>
      </trkpt>
      <trkpt lat="47.26783" lon="-1.66659">
        <ele>35.8</ele>
        <time>2020-06-07T12:52:23Z</time>
      </trkpt>
      <trkpt lat="47.26784" lon="-1.66659">
        <ele>35.8</ele>
        <time>2020-06-07T12:52:24Z</time>
      </trkpt>
      <trkpt lat="47.26785" lon="-1.66659">
        <ele>35.8</ele>
        <time>2020-06-07T12:52:25Z</time>
      </trkpt>
      <trkpt lat="47.26787" lon="-1.66659">
        <ele>35.8</ele>
        <time>2020-06-07T12:52:26Z</time>
      </trkpt>
      <trkpt lat="47.26789" lon="-1.66659">
        <ele>35.8</ele>
        <time>2020-06-07T12:52:27Z</time>
      </trkpt>
      <trkpt lat="47.2679" lon="-1.66659">
        <ele>35.8</ele>
        <time>2020-06-07T12:52:28Z</time>
      </trkpt>
      <trkpt lat="47.26792" lon="-1.66659">
        <ele>35.8</ele>
        <time>2020-06-07T12:52:29Z</time>
      </trkpt>
      <trkpt lat="47.26794" lon="-1.66658">
        <ele>35.8</ele>
        <time>2020-06-07T12:52:30Z</time>
      </trkpt>
      <trkpt lat="47.26795" lon="-1.66657">
        <ele>35.8</ele>
        <time>2020-06-07T12:52:31Z</time>
      </trkpt>
      <trkpt lat="47.26795" lon="-1.66656">
        <ele>35.8</ele>
        <time>2020-06-07T12:52:32Z</time>
      </trkpt>
      <trkpt lat="47.26796" lon="-1.66654">
        <ele>35.8</ele>
        <time>2020-06-07T12:52:33Z</time>
      </trkpt>
      <trkpt lat="47.26797" lon="-1.66654">
        <ele>35.8</ele>
        <time>2020-06-07T12:52:34Z</time>
      </trkpt>
      <trkpt lat="47.26797" lon="-1.66654">
        <ele>35.8</ele>
        <time>2020-06-07T12:52:35Z</time>
      </trkpt>
      <trkpt lat="47.26798" lon="-1.66656">
        <ele>35.8</ele>
        <time>2020-06-07T12:52:36Z</time>
      </trkpt>
      <trkpt lat="47.26798" lon="-1.66658">
        <ele>35.8</ele>
        <time>2020-06-07T12:52:37Z</time>
      </trkpt>
      <trkpt lat="47.268" lon="-1.66662">
        <ele>35.8</ele>
        <time>2020-06-07T12:52:38Z</time>
      </trkpt>
      <trkpt lat="47.268" lon="-1.66664">
        <ele>35.8</ele>
        <time>2020-06-07T12:52:39Z</time>
      </trkpt>
      <trkpt lat="47.26801" lon="-1.66668">
        <ele>35.8</ele>
        <time>2020-06-07T12:52:40Z</time>
      </trkpt>
      <trkpt lat="47.26802" lon="-1.66671">
        <ele>35.8</ele>
        <time>2020-06-07T12:52:41Z</time>
      </trkpt>
      <trkpt lat="47.26802" lon="-1.66673">
        <ele>35.8</ele>
        <time>2020-06-07T12:52:42Z</time>
      </trkpt>
      <trkpt lat="47.26803" lon="-1.66675">
        <ele>35.8</ele>
        <time>2020-06-07T12:52:43Z</time>
      </trkpt>
      <trkpt lat="47.26803" lon="-1.66676">
        <ele>35.8</ele>
        <time>2020-06-07T12:52:44Z</time>
      </trkpt>
      <trkpt lat="47.26803" lon="-1.66678">
        <ele>35.8</ele>
        <time>2020-06-07T12:52:45Z</time>
      </trkpt>
      <trkpt lat="47.26803" lon="-1.66679">
        <ele>35.8</ele>
        <time>2020-06-07T12:52:46Z</time>
      </trkpt>
      <trkpt lat="47.26803" lon="-1.66681">
        <ele>35.8</ele>
        <time>2020-06-07T12:52:47Z</time>
      </trkpt>
      <trkpt lat="47.26804" lon="-1.66682">
        <ele>35.8</ele>
        <time>2020-06-07T12:52:48Z</time>
      </trkpt>
      <trkpt lat="47.26804" lon="-1.66683">
        <ele>35.8</ele>
        <time>2020-06-07T12:52:49Z</time>
      </trkpt>
      <trkpt lat="47.26805" lon="-1.66684">
        <ele>35.8</ele>
        <time>2020-06-07T12:52:50Z</time>
      </trkpt>
      <trkpt lat="47.26806" lon="-1.66685">
        <ele>35.8</ele>
        <time>2020-06-07T12:52:51Z</time>
      </trkpt>
      <trkpt lat="47.26806" lon="-1.66686">
        <ele>35.8</ele>
        <time>2020-06-07T12:52:52Z</time>
      </trkpt>
      <trkpt lat="47.26807" lon="-1.66686">
        <ele>35.8</ele>
        <time>2020-06-07T12:52:53Z</time>
      </trkpt>
      <trkpt lat="47.26807" lon="-1.66687">
        <ele>35.8</ele>
        <time>2020-06-07T12:52:54Z</time>
      </trkpt>
      <trkpt lat="47.26808" lon="-1.66689">
        <ele>35.8</ele>
        <time>2020-06-07T12:52:55Z</time>
      </trkpt>
      <trkpt lat="47.26808" lon="-1.6669">
        <ele>35.8</ele>
        <time>2020-06-07T12:52:56Z</time>
      </trkpt>
      <trkpt lat="47.26809" lon="-1.66691">
        <ele>35.8</ele>
        <time>2020-06-07T12:52:57Z</time>
      </trkpt>
      <trkpt lat="47.26809" lon="-1.66691">
        <ele>35.8</ele>
        <time>2020-06-07T12:52:58Z</time>
      </trkpt>
      <trkpt lat="47.2681" lon="-1.66692">
        <ele>35.8</ele>
        <time>2020-06-07T12:52:59Z</time>
      </trkpt>
      <trkpt lat="47.2681" lon="-1.66694">
        <ele>35.8</ele>
        <time>2020-06-07T12:53:00Z</time>
      </trkpt>
      <trkpt lat="47.2681" lon="-1.66695">
        <ele>35.8</ele>
        <time>2020-06-07T12:53:01Z</time>
      </trkpt>
      <trkpt lat="47.2681" lon="-1.66697">
        <ele>35.8</ele>
        <time>2020-06-07T12:53:02Z</time>
      </trkpt>
      <trkpt lat="47.2681" lon="-1.66698">
        <ele>35.8</ele>
        <time>2020-06-07T12:53:03Z</time>
      </trkpt>
      <trkpt lat="47.2681" lon="-1.667">
        <ele>35.8</ele>
        <time>2020-06-07T12:53:04Z</time>
      </trkpt>
      <trkpt lat="47.2681" lon="-1.66702">
        <ele>35.8</ele>
        <time>2020-06-07T12:53:05Z</time>
      </trkpt>
      <trkpt lat="47.26809" lon="-1.66703">
        <ele>35.8</ele>
        <time>2020-06-07T12:53:06Z</time>
      </trkpt>
      <trkpt lat="47.26809" lon="-1.66704">
        <ele>35.8</ele>
        <time>2020-06-07T12:53:07Z</time>
      </trkpt>
      <trkpt lat="47.26809" lon="-1.66705">
        <ele>35.8</ele>
        <time>2020-06-07T12:53:08Z</time>
      </trkpt>
      <trkpt lat="47.2681" lon="-1.66705">
        <ele>35.8</ele>
        <time>2020-06-07T12:53:09Z</time>
      </trkpt>
      <trkpt lat="47.26811" lon="-1.66706">
        <ele>35.8</ele>
        <time>2020-06-07T12:53:10Z</time>
      </trkpt>
      <trkpt lat="47.26813" lon="-1.66708">
        <ele>35.8</ele>
        <time>2020-06-07T12:53:11Z</time>
      </trkpt>
      <trkpt lat="47.26813" lon="-1.66709">
        <ele>35.8</ele>
        <time>2020-06-07T12:53:12Z</time>
      </trkpt>
      <trkpt lat="47.26814" lon="-1.66709">
        <ele>35.8</ele>
        <time>2020-06-07T12:53:13Z</time>
      </trkpt>
      <trkpt lat="47.26815" lon="-1.6671">
        <ele>35.8</ele>
        <time>2020-06-07T12:53:14Z</time>
      </trkpt>
      <trkpt lat="47.26815" lon="-1.6671">
        <ele>35.8</ele>
        <time>2020-06-07T12:53:15Z</time>
      </trkpt>
      <trkpt lat="47.26815" lon="-1.66711">
        <ele>35.8</ele>
        <time>2020-06-07T12:53:16Z</time>
      </trkpt>
      <trkpt lat="47.26814" lon="-1.66713">
        <ele>35.8</ele>
        <time>2020-06-07T12:53:17Z</time>
      </trkpt>
      <trkpt lat="47.26814" lon="-1.66714">
        <ele>35.8</ele>
        <time>2020-06-07T12:53:18Z</time>
      </trkpt>
      <trkpt lat="47.26814" lon="-1.66715">
        <ele>35.8</ele>
        <time>2020-06-07T12:53:19Z</time>
      </trkpt>
      <trkpt lat="47.26814" lon="-1.66716">
        <ele>35.8</ele>
        <time>2020-06-07T12:53:20Z</time>
      </trkpt>
      <trkpt lat="47.26815" lon="-1.66718">
        <ele>35.8</ele>
        <time>2020-06-07T12:53:21Z</time>
      </trkpt>
      <trkpt lat="47.26815" lon="-1.66719">
        <ele>35.8</ele>
        <time>2020-06-07T12:53:22Z</time>
      </trkpt>
      <trkpt lat="47.26816" lon="-1.66721">
        <ele>35.8</ele>
        <time>2020-06-07T12:53:23Z</time>
      </trkpt>
      <trkpt lat="47.26816" lon="-1.66721">
        <ele>35.8</ele>
        <time>2020-06-07T12:53:24Z</time>
      </trkpt>
      <trkpt lat="47.26816" lon="-1.66722">
        <ele>35.8</ele>
        <time>2020-06-07T12:53:25Z</time>
      </trkpt>
      <trkpt lat="47.26817" lon="-1.66724">
        <ele>35.7</ele>
        <time>2020-06-07T12:53:26Z</time>
      </trkpt>
      <trkpt lat="47.26817" lon="-1.66725">
        <ele>35.7</ele>
        <time>2020-06-07T12:53:27Z</time>
      </trkpt>
      <trkpt lat="47.26818" lon="-1.66727">
        <ele>35.7</ele>
        <time>2020-06-07T12:53:28Z</time>
      </trkpt>
      <trkpt lat="47.26819" lon="-1.66728">
        <ele>35.7</ele>
        <time>2020-06-07T12:53:29Z</time>
      </trkpt>
      <trkpt lat="47.26819" lon="-1.66729">
        <ele>35.7</ele>
        <time>2020-06-07T12:53:30Z</time>
      </trkpt>
      <trkpt lat="47.26819" lon="-1.6673">
        <ele>35.7</ele>
        <time>2020-06-07T12:53:31Z</time>
      </trkpt>
      <trkpt lat="47.2682" lon="-1.66731">
        <ele>35.7</ele>
        <time>2020-06-07T12:53:32Z</time>
      </trkpt>
      <trkpt lat="47.2682" lon="-1.66732">
        <ele>35.7</ele>
        <time>2020-06-07T12:53:33Z</time>
      </trkpt>
      <trkpt lat="47.26821" lon="-1.66733">
        <ele>35.7</ele>
        <time>2020-06-07T12:53:34Z</time>
      </trkpt>
      <trkpt lat="47.26822" lon="-1.66734">
        <ele>35.7</ele>
        <time>2020-06-07T12:53:35Z</time>
      </trkpt>
      <trkpt lat="47.26823" lon="-1.66735">
        <ele>35.7</ele>
        <time>2020-06-07T12:53:36Z</time>
      </trkpt>
      <trkpt lat="47.26825" lon="-1.66736">
        <ele>35.7</ele>
        <time>2020-06-07T12:53:37Z</time>
      </trkpt>
      <trkpt lat="47.26825" lon="-1.66737">
        <ele>35.7</ele>
        <time>2020-06-07T12:53:38Z</time>
      </trkpt>
      <trkpt lat="47.26826" lon="-1.66738">
        <ele>35.7</ele>
        <time>2020-06-07T12:53:39Z</time>
      </trkpt>
      <trkpt lat="47.26828" lon="-1.66739">
        <ele>35.7</ele>
        <time>2020-06-07T12:53:40Z</time>
      </trkpt>
      <trkpt lat="47.26828" lon="-1.6674">
        <ele>35.7</ele>
        <time>2020-06-07T12:53:41Z</time>
      </trkpt>
      <trkpt lat="47.26829" lon="-1.6674">
        <ele>35.7</ele>
        <time>2020-06-07T12:53:42Z</time>
      </trkpt>
      <trkpt lat="47.26829" lon="-1.66742">
        <ele>35.7</ele>
        <time>2020-06-07T12:53:43Z</time>
      </trkpt>
      <trkpt lat="47.2683" lon="-1.66743">
        <ele>35.6</ele>
        <time>2020-06-07T12:53:44Z</time>
      </trkpt>
      <trkpt lat="47.26831" lon="-1.66744">
        <ele>35.6</ele>
        <time>2020-06-07T12:53:45Z</time>
      </trkpt>
      <trkpt lat="47.26832" lon="-1.66745">
        <ele>35.6</ele>
        <time>2020-06-07T12:53:46Z</time>
      </trkpt>
      <trkpt lat="47.26833" lon="-1.66746">
        <ele>35.6</ele>
        <time>2020-06-07T12:53:47Z</time>
      </trkpt>
      <trkpt lat="47.26834" lon="-1.66747">
        <ele>35.6</ele>
        <time>2020-06-07T12:53:48Z</time>
      </trkpt>
      <trkpt lat="47.26835" lon="-1.66747">
        <ele>35.6</ele>
        <time>2020-06-07T12:53:49Z</time>
      </trkpt>
      <trkpt lat="47.26836" lon="-1.66749">
        <ele>35.6</ele>
        <time>2020-06-07T12:53:50Z</time>
      </trkpt>
      <trkpt lat="47.26837" lon="-1.66749">
        <ele>35.6</ele>
        <time>2020-06-07T12:53:51Z</time>
      </trkpt>
      <trkpt lat="47.26838" lon="-1.6675">
        <ele>35.6</ele>
        <time>2020-06-07T12:53:52Z</time>
      </trkpt>
      <trkpt lat="47.26838" lon="-1.66751">
        <ele>35.6</ele>
        <time>2020-06-07T12:53:53Z</time>
      </trkpt>
      <trkpt lat="47.2684" lon="-1.66752">
        <ele>35.6</ele>
        <time>2020-06-07T12:53:54Z</time>
      </trkpt>
      <trkpt lat="47.26841" lon="-1.66752">
        <ele>35.6</ele>
        <time>2020-06-07T12:53:55Z</time>
      </trkpt>
      <trkpt lat="47.26842" lon="-1.66752">
        <ele>35.6</ele>
        <time>2020-06-07T12:53:56Z</time>
      </trkpt>
      <trkpt lat="47.26846" lon="-1.66752">
        <ele>35.6</ele>
        <time>2020-06-07T12:53:57Z</time>
      </trkpt>
      <trkpt lat="47.26847" lon="-1.66753">
        <ele>35.5</ele>
        <time>2020-06-07T12:53:58Z</time>
      </trkpt>
      <trkpt lat="47.26849" lon="-1.66754">
        <ele>35.5</ele>
        <time>2020-06-07T12:53:59Z</time>
      </trkpt>
      <trkpt lat="47.2685" lon="-1.66754">
        <ele>35.5</ele>
        <time>2020-06-07T12:54:00Z</time>
      </trkpt>
      <trkpt lat="47.2685" lon="-1.66755">
        <ele>35.5</ele>
        <time>2020-06-07T12:54:01Z</time>
      </trkpt>
      <trkpt lat="47.26851" lon="-1.66756">
        <ele>35.5</ele>
        <time>2020-06-07T12:54:02Z</time>
      </trkpt>
      <trkpt lat="47.26852" lon="-1.66756">
        <ele>35.5</ele>
        <time>2020-06-07T12:54:03Z</time>
      </trkpt>
      <trkpt lat="47.26852" lon="-1.66757">
        <ele>35.5</ele>
        <time>2020-06-07T12:54:04Z</time>
      </trkpt>
      <trkpt lat="47.26852" lon="-1.66757">
        <ele>35.5</ele>
        <time>2020-06-07T12:54:05Z</time>
      </trkpt>
      <trkpt lat="47.26853" lon="-1.66758">
        <ele>35.5</ele>
        <time>2020-06-07T12:54:06Z</time>
      </trkpt>
      <trkpt lat="47.26853" lon="-1.66758">
        <ele>35.5</ele>
        <time>2020-06-07T12:54:07Z</time>
      </trkpt>
      <trkpt lat="47.26853" lon="-1.66759">
        <ele>35.5</ele>
        <time>2020-06-07T12:54:08Z</time>
      </trkpt>
      <trkpt lat="47.26854" lon="-1.6676">
        <ele>35.5</ele>
        <time>2020-06-07T12:54:09Z</time>
      </trkpt>
      <trkpt lat="47.26855" lon="-1.66761">
        <ele>35.5</ele>
        <time>2020-06-07T12:54:10Z</time>
      </trkpt>
      <trkpt lat="47.26856" lon="-1.66762">
        <ele>35.5</ele>
        <time>2020-06-07T12:54:11Z</time>
      </trkpt>
      <trkpt lat="47.26857" lon="-1.66762">
        <ele>35.5</ele>
        <time>2020-06-07T12:54:12Z</time>
      </trkpt>
      <trkpt lat="47.26858" lon="-1.66763">
        <ele>35.5</ele>
        <time>2020-06-07T12:54:13Z</time>
      </trkpt>
      <trkpt lat="47.26858" lon="-1.66763">
        <ele>35.5</ele>
        <time>2020-06-07T12:54:14Z</time>
      </trkpt>
      <trkpt lat="47.26858" lon="-1.66763">
        <ele>35.5</ele>
        <time>2020-06-07T12:54:15Z</time>
      </trkpt>
      <trkpt lat="47.26858" lon="-1.66764">
        <ele>35.5</ele>
        <time>2020-06-07T12:54:16Z</time>
      </trkpt>
      <trkpt lat="47.26859" lon="-1.66764">
        <ele>35.5</ele>
        <time>2020-06-07T12:54:17Z</time>
      </trkpt>
      <trkpt lat="47.26859" lon="-1.66764">
        <ele>35.5</ele>
        <time>2020-06-07T12:54:18Z</time>
      </trkpt>
      <trkpt lat="47.26859" lon="-1.66765">
        <ele>35.5</ele>
        <time>2020-06-07T12:54:19Z</time>
      </trkpt>
      <trkpt lat="47.26859" lon="-1.66765">
        <ele>35.5</ele>
        <time>2020-06-07T12:54:20Z</time>
      </trkpt>
      <trkpt lat="47.2686" lon="-1.66766">
        <ele>35.4</ele>
        <time>2020-06-07T12:54:21Z</time>
      </trkpt>
      <trkpt lat="47.2686" lon="-1.66768">
        <ele>35.4</ele>
        <time>2020-06-07T12:54:22Z</time>
      </trkpt>
      <trkpt lat="47.26861" lon="-1.66769">
        <ele>35.4</ele>
        <time>2020-06-07T12:54:23Z</time>
      </trkpt>
      <trkpt lat="47.26861" lon="-1.6677">
        <ele>35.4</ele>
        <time>2020-06-07T12:54:24Z</time>
      </trkpt>
      <trkpt lat="47.26863" lon="-1.66771">
        <ele>35.4</ele>
        <time>2020-06-07T12:54:25Z</time>
      </trkpt>
      <trkpt lat="47.26864" lon="-1.66772">
        <ele>35.4</ele>
        <time>2020-06-07T12:54:26Z</time>
      </trkpt>
      <trkpt lat="47.26865" lon="-1.66773">
        <ele>35.4</ele>
        <time>2020-06-07T12:54:27Z</time>
      </trkpt>
      <trkpt lat="47.26865" lon="-1.66773">
        <ele>35.4</ele>
        <time>2020-06-07T12:54:28Z</time>
      </trkpt>
      <trkpt lat="47.26866" lon="-1.66774">
        <ele>35.4</ele>
        <time>2020-06-07T12:54:29Z</time>
      </trkpt>
      <trkpt lat="47.26866" lon="-1.66775">
        <ele>35.4</ele>
        <time>2020-06-07T12:54:30Z</time>
      </trkpt>
      <trkpt lat="47.26867" lon="-1.66775">
        <ele>35.4</ele>
        <time>2020-06-07T12:54:31Z</time>
      </trkpt>
      <trkpt lat="47.26868" lon="-1.66776">
        <ele>35.4</ele>
        <time>2020-06-07T12:54:32Z</time>
      </trkpt>
      <trkpt lat="47.26869" lon="-1.66777">
        <ele>35.4</ele>
        <time>2020-06-07T12:54:33Z</time>
      </trkpt>
      <trkpt lat="47.26869" lon="-1.66778">
        <ele>35.4</ele>
        <time>2020-06-07T12:54:34Z</time>
      </trkpt>
      <trkpt lat="47.2687" lon="-1.66779">
        <ele>35.4</ele>
        <time>2020-06-07T12:54:35Z</time>
      </trkpt>
      <trkpt lat="47.26871" lon="-1.6678">
        <ele>35.3</ele>
        <time>2020-06-07T12:54:36Z</time>
      </trkpt>
      <trkpt lat="47.26871" lon="-1.66781">
        <ele>35.3</ele>
        <time>2020-06-07T12:54:37Z</time>
      </trkpt>
      <trkpt lat="47.26872" lon="-1.66782">
        <ele>35.3</ele>
        <time>2020-06-07T12:54:38Z</time>
      </trkpt>
      <trkpt lat="47.26873" lon="-1.66782">
        <ele>35.3</ele>
        <time>2020-06-07T12:54:39Z</time>
      </trkpt>
      <trkpt lat="47.26873" lon="-1.66784">
        <ele>35.3</ele>
        <time>2020-06-07T12:54:40Z</time>
      </trkpt>
      <trkpt lat="47.26872" lon="-1.66785">
        <ele>35.3</ele>
        <time>2020-06-07T12:54:41Z</time>
      </trkpt>
      <trkpt lat="47.26872" lon="-1.66786">
        <ele>35.3</ele>
        <time>2020-06-07T12:54:42Z</time>
      </trkpt>
      <trkpt lat="47.26872" lon="-1.66787">
        <ele>35.3</ele>
        <time>2020-06-07T12:54:43Z</time>
      </trkpt>
      <trkpt lat="47.26872" lon="-1.66789">
        <ele>35.3</ele>
        <time>2020-06-07T12:54:44Z</time>
      </trkpt>
      <trkpt lat="47.26873" lon="-1.66789">
        <ele>35.3</ele>
        <time>2020-06-07T12:54:45Z</time>
      </trkpt>
      <trkpt lat="47.26874" lon="-1.6679">
        <ele>35.3</ele>
        <time>2020-06-07T12:54:46Z</time>
      </trkpt>
      <trkpt lat="47.26875" lon="-1.66791">
        <ele>35.3</ele>
        <time>2020-06-07T12:54:47Z</time>
      </trkpt>
      <trkpt lat="47.26876" lon="-1.66791">
        <ele>35.3</ele>
        <time>2020-06-07T12:54:48Z</time>
      </trkpt>
      <trkpt lat="47.26876" lon="-1.66791">
        <ele>35.3</ele>
        <time>2020-06-07T12:54:49Z</time>
      </trkpt>
      <trkpt lat="47.26877" lon="-1.66791">
        <ele>35.3</ele>
        <time>2020-06-07T12:54:50Z</time>
      </trkpt>
      <trkpt lat="47.26878" lon="-1.66792">
        <ele>35.2</ele>
        <time>2020-06-07T12:54:51Z</time>
      </trkpt>
      <trkpt lat="47.26879" lon="-1.66792">
        <ele>35.2</ele>
        <time>2020-06-07T12:54:52Z</time>
      </trkpt>
      <trkpt lat="47.2688" lon="-1.66792">
        <ele>35.2</ele>
        <time>2020-06-07T12:54:53Z</time>
      </trkpt>
      <trkpt lat="47.26882" lon="-1.66793">
        <ele>35.2</ele>
        <time>2020-06-07T12:54:54Z</time>
      </trkpt>
      <trkpt lat="47.26883" lon="-1.66793">
        <ele>35.2</ele>
        <time>2020-06-07T12:54:55Z</time>
      </trkpt>
      <trkpt lat="47.26884" lon="-1.66793">
        <ele>35.2</ele>
        <time>2020-06-07T12:54:56Z</time>
      </trkpt>
      <trkpt lat="47.26886" lon="-1.66793">
        <ele>35.2</ele>
        <time>2020-06-07T12:54:57Z</time>
      </trkpt>
      <trkpt lat="47.26887" lon="-1.66793">
        <ele>35.2</ele>
        <time>2020-06-07T12:54:58Z</time>
      </trkpt>
      <trkpt lat="47.26888" lon="-1.66793">
        <ele>35.2</ele>
        <time>2020-06-07T12:54:59Z</time>
      </trkpt>
      <trkpt lat="47.26889" lon="-1.66794">
        <ele>35.2</ele>
        <time>2020-06-07T12:55:00Z</time>
      </trkpt>
      <trkpt lat="47.2689" lon="-1.66794">
        <ele>35.2</ele>
        <time>2020-06-07T12:55:01Z</time>
      </trkpt>
      <trkpt lat="47.26891" lon="-1.66796">
        <ele>35.2</ele>
        <time>2020-06-07T12:55:02Z</time>
      </trkpt>
      <trkpt lat="47.26892" lon="-1.66797">
        <ele>35.2</ele>
        <time>2020-06-07T12:55:03Z</time>
      </trkpt>
      <trkpt lat="47.26892" lon="-1.66798">
        <ele>35.2</ele>
        <time>2020-06-07T12:55:04Z</time>
      </trkpt>
      <trkpt lat="47.26893" lon="-1.66799">
        <ele>35.2</ele>
        <time>2020-06-07T12:55:05Z</time>
      </trkpt>
      <trkpt lat="47.26894" lon="-1.668">
        <ele>35.2</ele>
        <time>2020-06-07T12:55:06Z</time>
      </trkpt>
      <trkpt lat="47.26895" lon="-1.66801">
        <ele>35.2</ele>
        <time>2020-06-07T12:55:07Z</time>
      </trkpt>
      <trkpt lat="47.26897" lon="-1.66802">
        <ele>35.2</ele>
        <time>2020-06-07T12:55:08Z</time>
      </trkpt>
      <trkpt lat="47.26898" lon="-1.66804">
        <ele>35.2</ele>
        <time>2020-06-07T12:55:09Z</time>
      </trkpt>
      <trkpt lat="47.269" lon="-1.66805">
        <ele>35.2</ele>
        <time>2020-06-07T12:55:10Z</time>
      </trkpt>
      <trkpt lat="47.269" lon="-1.66806">
        <ele>35.2</ele>
        <time>2020-06-07T12:55:11Z</time>
      </trkpt>
      <trkpt lat="47.26901" lon="-1.66807">
        <ele>35.2</ele>
        <time>2020-06-07T12:55:12Z</time>
      </trkpt>
      <trkpt lat="47.26902" lon="-1.66807">
        <ele>35.2</ele>
        <time>2020-06-07T12:55:13Z</time>
      </trkpt>
      <trkpt lat="47.26904" lon="-1.66808">
        <ele>35.2</ele>
        <time>2020-06-07T12:55:14Z</time>
      </trkpt>
      <trkpt lat="47.26904" lon="-1.66809">
        <ele>35.2</ele>
        <time>2020-06-07T12:55:15Z</time>
      </trkpt>
      <trkpt lat="47.26905" lon="-1.66809">
        <ele>35.2</ele>
        <time>2020-06-07T12:55:16Z</time>
      </trkpt>
      <trkpt lat="47.26906" lon="-1.6681">
        <ele>35.2</ele>
        <time>2020-06-07T12:55:17Z</time>
      </trkpt>
      <trkpt lat="47.26906" lon="-1.66811">
        <ele>35.2</ele>
        <time>2020-06-07T12:55:18Z</time>
      </trkpt>
      <trkpt lat="47.26906" lon="-1.66813">
        <ele>35.2</ele>
        <time>2020-06-07T12:55:19Z</time>
      </trkpt>
      <trkpt lat="47.26906" lon="-1.66814">
        <ele>35.2</ele>
        <time>2020-06-07T12:55:20Z</time>
      </trkpt>
      <trkpt lat="47.26906" lon="-1.66815">
        <ele>35.2</ele>
        <time>2020-06-07T12:55:21Z</time>
      </trkpt>
      <trkpt lat="47.26907" lon="-1.66815">
        <ele>35.2</ele>
        <time>2020-06-07T12:55:22Z</time>
      </trkpt>
      <trkpt lat="47.26908" lon="-1.66815">
        <ele>35.2</ele>
        <time>2020-06-07T12:55:23Z</time>
      </trkpt>
      <trkpt lat="47.26908" lon="-1.66816">
        <ele>35.2</ele>
        <time>2020-06-07T12:55:24Z</time>
      </trkpt>
      <trkpt lat="47.26909" lon="-1.66816">
        <ele>35.2</ele>
        <time>2020-06-07T12:55:25Z</time>
      </trkpt>
      <trkpt lat="47.26909" lon="-1.66816">
        <ele>35.2</ele>
        <time>2020-06-07T12:55:26Z</time>
      </trkpt>
      <trkpt lat="47.2691" lon="-1.66817">
        <ele>35.2</ele>
        <time>2020-06-07T12:55:27Z</time>
      </trkpt>
      <trkpt lat="47.26911" lon="-1.66819">
        <ele>35.2</ele>
        <time>2020-06-07T12:55:28Z</time>
      </trkpt>
      <trkpt lat="47.26912" lon="-1.6682">
        <ele>35.2</ele>
        <time>2020-06-07T12:55:29Z</time>
      </trkpt>
      <trkpt lat="47.26913" lon="-1.66821">
        <ele>35.3</ele>
        <time>2020-06-07T12:55:30Z</time>
      </trkpt>
      <trkpt lat="47.26915" lon="-1.6682">
        <ele>35.3</ele>
        <time>2020-06-07T12:55:31Z</time>
      </trkpt>
      <trkpt lat="47.26916" lon="-1.66821">
        <ele>35.3</ele>
        <time>2020-06-07T12:55:32Z</time>
      </trkpt>
      <trkpt lat="47.26918" lon="-1.66822">
        <ele>35.3</ele>
        <time>2020-06-07T12:55:33Z</time>
      </trkpt>
      <trkpt lat="47.26918" lon="-1.66824">
        <ele>35.3</ele>
        <time>2020-06-07T12:55:34Z</time>
      </trkpt>
      <trkpt lat="47.26919" lon="-1.66827">
        <ele>35.3</ele>
        <time>2020-06-07T12:55:35Z</time>
      </trkpt>
      <trkpt lat="47.26918" lon="-1.66829">
        <ele>35.3</ele>
        <time>2020-06-07T12:55:36Z</time>
      </trkpt>
      <trkpt lat="47.26918" lon="-1.6683">
        <ele>35.3</ele>
        <time>2020-06-07T12:55:37Z</time>
      </trkpt>
      <trkpt lat="47.26919" lon="-1.66831">
        <ele>35.3</ele>
        <time>2020-06-07T12:55:38Z</time>
      </trkpt>
      <trkpt lat="47.26919" lon="-1.66833">
        <ele>35.3</ele>
        <time>2020-06-07T12:55:39Z</time>
      </trkpt>
      <trkpt lat="47.26919" lon="-1.66833">
        <ele>35.3</ele>
        <time>2020-06-07T12:55:40Z</time>
      </trkpt>
      <trkpt lat="47.2692" lon="-1.66834">
        <ele>35.3</ele>
        <time>2020-06-07T12:55:41Z</time>
      </trkpt>
      <trkpt lat="47.2692" lon="-1.66835">
        <ele>35.3</ele>
        <time>2020-06-07T12:55:42Z</time>
      </trkpt>
      <trkpt lat="47.26921" lon="-1.66836">
        <ele>35.3</ele>
        <time>2020-06-07T12:55:43Z</time>
      </trkpt>
      <trkpt lat="47.26923" lon="-1.66837">
        <ele>35.4</ele>
        <time>2020-06-07T12:55:44Z</time>
      </trkpt>
      <trkpt lat="47.26924" lon="-1.66838">
        <ele>35.4</ele>
        <time>2020-06-07T12:55:45Z</time>
      </trkpt>
      <trkpt lat="47.26924" lon="-1.6684">
        <ele>35.4</ele>
        <time>2020-06-07T12:55:46Z</time>
      </trkpt>
      <trkpt lat="47.26925" lon="-1.66842">
        <ele>35.4</ele>
        <time>2020-06-07T12:55:47Z</time>
      </trkpt>
      <trkpt lat="47.26926" lon="-1.66843">
        <ele>35.4</ele>
        <time>2020-06-07T12:55:48Z</time>
      </trkpt>
      <trkpt lat="47.26926" lon="-1.66844">
        <ele>35.4</ele>
        <time>2020-06-07T12:55:49Z</time>
      </trkpt>
      <trkpt lat="47.26926" lon="-1.66845">
        <ele>35.4</ele>
        <time>2020-06-07T12:55:50Z</time>
      </trkpt>
      <trkpt lat="47.26927" lon="-1.66846">
        <ele>35.4</ele>
        <time>2020-06-07T12:55:51Z</time>
      </trkpt>
      <trkpt lat="47.26927" lon="-1.66848">
        <ele>35.4</ele>
        <time>2020-06-07T12:55:52Z</time>
      </trkpt>
      <trkpt lat="47.26928" lon="-1.66849">
        <ele>35.4</ele>
        <time>2020-06-07T12:55:53Z</time>
      </trkpt>
      <trkpt lat="47.26928" lon="-1.6685">
        <ele>35.4</ele>
        <time>2020-06-07T12:55:54Z</time>
      </trkpt>
      <trkpt lat="47.26928" lon="-1.66852">
        <ele>35.4</ele>
        <time>2020-06-07T12:55:55Z</time>
      </trkpt>
      <trkpt lat="47.26928" lon="-1.66854">
        <ele>35.4</ele>
        <time>2020-06-07T12:55:56Z</time>
      </trkpt>
      <trkpt lat="47.26928" lon="-1.66856">
        <ele>35.4</ele>
        <time>2020-06-07T12:55:57Z</time>
      </trkpt>
      <trkpt lat="47.26928" lon="-1.66857">
        <ele>35.4</ele>
        <time>2020-06-07T12:55:58Z</time>
      </trkpt>
      <trkpt lat="47.26928" lon="-1.66859">
        <ele>35.4</ele>
        <time>2020-06-07T12:55:59Z</time>
      </trkpt>
      <trkpt lat="47.26928" lon="-1.6686">
        <ele>35.4</ele>
        <time>2020-06-07T12:56:00Z</time>
      </trkpt>
      <trkpt lat="47.26928" lon="-1.66862">
        <ele>35.4</ele>
        <time>2020-06-07T12:56:01Z</time>
      </trkpt>
      <trkpt lat="47.26928" lon="-1.66865">
        <ele>35.5</ele>
        <time>2020-06-07T12:56:02Z</time>
      </trkpt>
      <trkpt lat="47.26928" lon="-1.66867">
        <ele>35.5</ele>
        <time>2020-06-07T12:56:03Z</time>
      </trkpt>
      <trkpt lat="47.26928" lon="-1.66868">
        <ele>35.5</ele>
        <time>2020-06-07T12:56:04Z</time>
      </trkpt>
      <trkpt lat="47.26929" lon="-1.66869">
        <ele>35.5</ele>
        <time>2020-06-07T12:56:05Z</time>
      </trkpt>
      <trkpt lat="47.26929" lon="-1.66871">
        <ele>35.5</ele>
        <time>2020-06-07T12:56:06Z</time>
      </trkpt>
      <trkpt lat="47.26929" lon="-1.66872">
        <ele>35.5</ele>
        <time>2020-06-07T12:56:07Z</time>
      </trkpt>
      <trkpt lat="47.26929" lon="-1.66873">
        <ele>35.5</ele>
        <time>2020-06-07T12:56:08Z</time>
      </trkpt>
      <trkpt lat="47.26929" lon="-1.66874">
        <ele>35.5</ele>
        <time>2020-06-07T12:56:09Z</time>
      </trkpt>
      <trkpt lat="47.2693" lon="-1.66876">
        <ele>35.5</ele>
        <time>2020-06-07T12:56:10Z</time>
      </trkpt>
      <trkpt lat="47.2693" lon="-1.66877">
        <ele>35.5</ele>
        <time>2020-06-07T12:56:11Z</time>
      </trkpt>
      <trkpt lat="47.26931" lon="-1.66878">
        <ele>35.5</ele>
        <time>2020-06-07T12:56:12Z</time>
      </trkpt>
      <trkpt lat="47.26931" lon="-1.6688">
        <ele>35.5</ele>
        <time>2020-06-07T12:56:13Z</time>
      </trkpt>
      <trkpt lat="47.26931" lon="-1.66881">
        <ele>35.5</ele>
        <time>2020-06-07T12:56:14Z</time>
      </trkpt>
      <trkpt lat="47.26931" lon="-1.66882">
        <ele>35.5</ele>
        <time>2020-06-07T12:56:15Z</time>
      </trkpt>
      <trkpt lat="47.26931" lon="-1.66883">
        <ele>35.5</ele>
        <time>2020-06-07T12:56:16Z</time>
      </trkpt>
      <trkpt lat="47.26931" lon="-1.66885">
        <ele>35.5</ele>
        <time>2020-06-07T12:56:17Z</time>
      </trkpt>
      <trkpt lat="47.26931" lon="-1.66887">
        <ele>35.5</ele>
        <time>2020-06-07T12:56:18Z</time>
      </trkpt>
      <trkpt lat="47.26932" lon="-1.66887">
        <ele>35.5</ele>
        <time>2020-06-07T12:56:19Z</time>
      </trkpt>
      <trkpt lat="47.26932" lon="-1.66888">
        <ele>35.5</ele>
        <time>2020-06-07T12:56:20Z</time>
      </trkpt>
      <trkpt lat="47.26932" lon="-1.66888">
        <ele>35.5</ele>
        <time>2020-06-07T12:56:21Z</time>
      </trkpt>
      <trkpt lat="47.26933" lon="-1.66889">
        <ele>35.5</ele>
        <time>2020-06-07T12:56:22Z</time>
      </trkpt>
      <trkpt lat="47.26933" lon="-1.6689">
        <ele>35.5</ele>
        <time>2020-06-07T12:56:23Z</time>
      </trkpt>
      <trkpt lat="47.26934" lon="-1.66891">
        <ele>35.6</ele>
        <time>2020-06-07T12:56:24Z</time>
      </trkpt>
      <trkpt lat="47.26934" lon="-1.66892">
        <ele>35.6</ele>
        <time>2020-06-07T12:56:25Z</time>
      </trkpt>
      <trkpt lat="47.26934" lon="-1.66893">
        <ele>35.6</ele>
        <time>2020-06-07T12:56:26Z</time>
      </trkpt>
      <trkpt lat="47.26935" lon="-1.66894">
        <ele>35.6</ele>
        <time>2020-06-07T12:56:27Z</time>
      </trkpt>
      <trkpt lat="47.26935" lon="-1.66895">
        <ele>35.6</ele>
        <time>2020-06-07T12:56:28Z</time>
      </trkpt>
      <trkpt lat="47.26936" lon="-1.66896">
        <ele>35.6</ele>
        <time>2020-06-07T12:56:29Z</time>
      </trkpt>
      <trkpt lat="47.26937" lon="-1.66897">
        <ele>35.6</ele>
        <time>2020-06-07T12:56:30Z</time>
      </trkpt>
      <trkpt lat="47.26937" lon="-1.66899">
        <ele>35.6</ele>
        <time>2020-06-07T12:56:31Z</time>
      </trkpt>
      <trkpt lat="47.26938" lon="-1.669">
        <ele>35.6</ele>
        <time>2020-06-07T12:56:32Z</time>
      </trkpt>
      <trkpt lat="47.26938" lon="-1.66902">
        <ele>35.6</ele>
        <time>2020-06-07T12:56:33Z</time>
      </trkpt>
      <trkpt lat="47.26938" lon="-1.66905">
        <ele>35.6</ele>
        <time>2020-06-07T12:56:34Z</time>
      </trkpt>
      <trkpt lat="47.26938" lon="-1.66908">
        <ele>35.6</ele>
        <time>2020-06-07T12:56:35Z</time>
      </trkpt>
      <trkpt lat="47.26938" lon="-1.66909">
        <ele>35.6</ele>
        <time>2020-06-07T12:56:36Z</time>
      </trkpt>
      <trkpt lat="47.26938" lon="-1.6691">
        <ele>35.6</ele>
        <time>2020-06-07T12:56:37Z</time>
      </trkpt>
      <trkpt lat="47.26937" lon="-1.66912">
        <ele>35.6</ele>
        <time>2020-06-07T12:56:38Z</time>
      </trkpt>
      <trkpt lat="47.26937" lon="-1.66913">
        <ele>35.6</ele>
        <time>2020-06-07T12:56:39Z</time>
      </trkpt>
      <trkpt lat="47.26938" lon="-1.66915">
        <ele>35.6</ele>
        <time>2020-06-07T12:56:40Z</time>
      </trkpt>
      <trkpt lat="47.26938" lon="-1.66917">
        <ele>35.7</ele>
        <time>2020-06-07T12:56:41Z</time>
      </trkpt>
      <trkpt lat="47.26937" lon="-1.66918">
        <ele>35.7</ele>
        <time>2020-06-07T12:56:42Z</time>
      </trkpt>
      <trkpt lat="47.26937" lon="-1.6692">
        <ele>35.7</ele>
        <time>2020-06-07T12:56:43Z</time>
      </trkpt>
      <trkpt lat="47.26937" lon="-1.66922">
        <ele>35.7</ele>
        <time>2020-06-07T12:56:44Z</time>
      </trkpt>
      <trkpt lat="47.26936" lon="-1.66924">
        <ele>35.7</ele>
        <time>2020-06-07T12:56:45Z</time>
      </trkpt>
      <trkpt lat="47.26936" lon="-1.66925">
        <ele>35.7</ele>
        <time>2020-06-07T12:56:46Z</time>
      </trkpt>
      <trkpt lat="47.26936" lon="-1.66926">
        <ele>35.7</ele>
        <time>2020-06-07T12:56:47Z</time>
      </trkpt>
      <trkpt lat="47.26935" lon="-1.66928">
        <ele>35.7</ele>
        <time>2020-06-07T12:56:48Z</time>
      </trkpt>
      <trkpt lat="47.26935" lon="-1.6693">
        <ele>35.7</ele>
        <time>2020-06-07T12:56:49Z</time>
      </trkpt>
      <trkpt lat="47.26936" lon="-1.66931">
        <ele>35.7</ele>
        <time>2020-06-07T12:56:50Z</time>
      </trkpt>
      <trkpt lat="47.26936" lon="-1.66933">
        <ele>35.7</ele>
        <time>2020-06-07T12:56:51Z</time>
      </trkpt>
      <trkpt lat="47.26936" lon="-1.66934">
        <ele>35.7</ele>
        <time>2020-06-07T12:56:52Z</time>
      </trkpt>
      <trkpt lat="47.26936" lon="-1.66936">
        <ele>35.7</ele>
        <time>2020-06-07T12:56:53Z</time>
      </trkpt>
      <trkpt lat="47.26936" lon="-1.66937">
        <ele>35.7</ele>
        <time>2020-06-07T12:56:54Z</time>
      </trkpt>
      <trkpt lat="47.26936" lon="-1.66939">
        <ele>35.7</ele>
        <time>2020-06-07T12:56:55Z</time>
      </trkpt>
      <trkpt lat="47.26935" lon="-1.66941">
        <ele>35.7</ele>
        <time>2020-06-07T12:56:56Z</time>
      </trkpt>
      <trkpt lat="47.26935" lon="-1.66943">
        <ele>35.7</ele>
        <time>2020-06-07T12:56:57Z</time>
      </trkpt>
      <trkpt lat="47.26935" lon="-1.66944">
        <ele>35.7</ele>
        <time>2020-06-07T12:56:58Z</time>
      </trkpt>
      <trkpt lat="47.26935" lon="-1.66946">
        <ele>35.7</ele>
        <time>2020-06-07T12:56:59Z</time>
      </trkpt>
      <trkpt lat="47.26935" lon="-1.66947">
        <ele>35.7</ele>
        <time>2020-06-07T12:57:00Z</time>
      </trkpt>
      <trkpt lat="47.26935" lon="-1.66948">
        <ele>35.7</ele>
        <time>2020-06-07T12:57:01Z</time>
      </trkpt>
      <trkpt lat="47.26935" lon="-1.6695">
        <ele>35.7</ele>
        <time>2020-06-07T12:57:02Z</time>
      </trkpt>
      <trkpt lat="47.26935" lon="-1.6695">
        <ele>35.7</ele>
        <time>2020-06-07T12:57:03Z</time>
      </trkpt>
      <trkpt lat="47.26935" lon="-1.66951">
        <ele>35.7</ele>
        <time>2020-06-07T12:57:04Z</time>
      </trkpt>
      <trkpt lat="47.26935" lon="-1.66953">
        <ele>35.7</ele>
        <time>2020-06-07T12:57:05Z</time>
      </trkpt>
      <trkpt lat="47.26934" lon="-1.66954">
        <ele>35.8</ele>
        <time>2020-06-07T12:57:06Z</time>
      </trkpt>
      <trkpt lat="47.26934" lon="-1.66956">
        <ele>35.8</ele>
        <time>2020-06-07T12:57:07Z</time>
      </trkpt>
      <trkpt lat="47.26933" lon="-1.66957">
        <ele>35.8</ele>
        <time>2020-06-07T12:57:08Z</time>
      </trkpt>
      <trkpt lat="47.26933" lon="-1.66958">
        <ele>35.8</ele>
        <time>2020-06-07T12:57:09Z</time>
      </trkpt>
      <trkpt lat="47.26932" lon="-1.66959">
        <ele>35.8</ele>
        <time>2020-06-07T12:57:10Z</time>
      </trkpt>
      <trkpt lat="47.26931" lon="-1.6696">
        <ele>35.8</ele>
        <time>2020-06-07T12:57:11Z</time>
      </trkpt>
      <trkpt lat="47.26931" lon="-1.66964">
        <ele>35.8</ele>
        <time>2020-06-07T12:57:12Z</time>
      </trkpt>
      <trkpt lat="47.26931" lon="-1.66965">
        <ele>35.8</ele>
        <time>2020-06-07T12:57:13Z</time>
      </trkpt>
      <trkpt lat="47.26931" lon="-1.66966">
        <ele>35.8</ele>
        <time>2020-06-07T12:57:14Z</time>
      </trkpt>
      <trkpt lat="47.26931" lon="-1.66968">
        <ele>35.8</ele>
        <time>2020-06-07T12:57:15Z</time>
      </trkpt>
      <trkpt lat="47.26931" lon="-1.66969">
        <ele>35.8</ele>
        <time>2020-06-07T12:57:16Z</time>
      </trkpt>
      <trkpt lat="47.2693" lon="-1.6697">
        <ele>35.8</ele>
        <time>2020-06-07T12:57:17Z</time>
      </trkpt>
      <trkpt lat="47.2693" lon="-1.66971">
        <ele>35.8</ele>
        <time>2020-06-07T12:57:18Z</time>
      </trkpt>
      <trkpt lat="47.2693" lon="-1.66973">
        <ele>35.8</ele>
        <time>2020-06-07T12:57:19Z</time>
      </trkpt>
      <trkpt lat="47.2693" lon="-1.66975">
        <ele>35.8</ele>
        <time>2020-06-07T12:57:20Z</time>
      </trkpt>
      <trkpt lat="47.2693" lon="-1.66976">
        <ele>35.8</ele>
        <time>2020-06-07T12:57:21Z</time>
      </trkpt>
      <trkpt lat="47.2693" lon="-1.66978">
        <ele>35.8</ele>
        <time>2020-06-07T12:57:22Z</time>
      </trkpt>
      <trkpt lat="47.2693" lon="-1.6698">
        <ele>35.8</ele>
        <time>2020-06-07T12:57:23Z</time>
      </trkpt>
      <trkpt lat="47.2693" lon="-1.66982">
        <ele>35.8</ele>
        <time>2020-06-07T12:57:24Z</time>
      </trkpt>
      <trkpt lat="47.2693" lon="-1.66983">
        <ele>35.8</ele>
        <time>2020-06-07T12:57:25Z</time>
      </trkpt>
      <trkpt lat="47.2693" lon="-1.66984">
        <ele>35.8</ele>
        <time>2020-06-07T12:57:26Z</time>
      </trkpt>
      <trkpt lat="47.26929" lon="-1.66985">
        <ele>35.8</ele>
        <time>2020-06-07T12:57:27Z</time>
      </trkpt>
      <trkpt lat="47.26929" lon="-1.66986">
        <ele>35.8</ele>
        <time>2020-06-07T12:57:28Z</time>
      </trkpt>
      <trkpt lat="47.26928" lon="-1.66987">
        <ele>35.8</ele>
        <time>2020-06-07T12:57:29Z</time>
      </trkpt>
      <trkpt lat="47.26927" lon="-1.66988">
        <ele>35.8</ele>
        <time>2020-06-07T12:57:30Z</time>
      </trkpt>
      <trkpt lat="47.26927" lon="-1.6699">
        <ele>35.8</ele>
        <time>2020-06-07T12:57:31Z</time>
      </trkpt>
      <trkpt lat="47.26927" lon="-1.66991">
        <ele>35.8</ele>
        <time>2020-06-07T12:57:32Z</time>
      </trkpt>
      <trkpt lat="47.26927" lon="-1.66993">
        <ele>35.8</ele>
        <time>2020-06-07T12:57:33Z</time>
      </trkpt>
      <trkpt lat="47.26927" lon="-1.66994">
        <ele>35.8</ele>
        <time>2020-06-07T12:57:34Z</time>
      </trkpt>
      <trkpt lat="47.26927" lon="-1.66996">
        <ele>35.8</ele>
        <time>2020-06-07T12:57:35Z</time>
      </trkpt>
      <trkpt lat="47.26927" lon="-1.66997">
        <ele>35.8</ele>
        <time>2020-06-07T12:57:36Z</time>
      </trkpt>
      <trkpt lat="47.26926" lon="-1.66999">
        <ele>35.8</ele>
        <time>2020-06-07T12:57:37Z</time>
      </trkpt>
      <trkpt lat="47.26925" lon="-1.67">
        <ele>35.8</ele>
        <time>2020-06-07T12:57:38Z</time>
      </trkpt>
      <trkpt lat="47.26924" lon="-1.67001">
        <ele>35.8</ele>
        <time>2020-06-07T12:57:39Z</time>
      </trkpt>
      <trkpt lat="47.26924" lon="-1.67003">
        <ele>35.8</ele>
        <time>2020-06-07T12:57:40Z</time>
      </trkpt>
      <trkpt lat="47.26924" lon="-1.67004">
        <ele>35.8</ele>
        <time>2020-06-07T12:57:41Z</time>
      </trkpt>
      <trkpt lat="47.26924" lon="-1.67006">
        <ele>35.8</ele>
        <time>2020-06-07T12:57:42Z</time>
      </trkpt>
      <trkpt lat="47.26924" lon="-1.67007">
        <ele>35.8</ele>
        <time>2020-06-07T12:57:43Z</time>
      </trkpt>
      <trkpt lat="47.26923" lon="-1.67009">
        <ele>35.8</ele>
        <time>2020-06-07T12:57:44Z</time>
      </trkpt>
      <trkpt lat="47.26924" lon="-1.6701">
        <ele>35.8</ele>
        <time>2020-06-07T12:57:45Z</time>
      </trkpt>
      <trkpt lat="47.26923" lon="-1.67011">
        <ele>35.8</ele>
        <time>2020-06-07T12:57:46Z</time>
      </trkpt>
      <trkpt lat="47.26923" lon="-1.67013">
        <ele>35.8</ele>
        <time>2020-06-07T12:57:47Z</time>
      </trkpt>
      <trkpt lat="47.26922" lon="-1.67015">
        <ele>35.8</ele>
        <time>2020-06-07T12:57:48Z</time>
      </trkpt>
      <trkpt lat="47.26921" lon="-1.67016">
        <ele>35.8</ele>
        <time>2020-06-07T12:57:49Z</time>
      </trkpt>
      <trkpt lat="47.26919" lon="-1.67017">
        <ele>35.8</ele>
        <time>2020-06-07T12:57:50Z</time>
      </trkpt>
      <trkpt lat="47.26917" lon="-1.67019">
        <ele>35.8</ele>
        <time>2020-06-07T12:57:51Z</time>
      </trkpt>
      <trkpt lat="47.26917" lon="-1.6702">
        <ele>35.8</ele>
        <time>2020-06-07T12:57:52Z</time>
      </trkpt>
      <trkpt lat="47.26916" lon="-1.67021">
        <ele>35.9</ele>
        <time>2020-06-07T12:57:53Z</time>
      </trkpt>
      <trkpt lat="47.26916" lon="-1.67022">
        <ele>35.9</ele>
        <time>2020-06-07T12:57:54Z</time>
      </trkpt>
      <trkpt lat="47.26916" lon="-1.67023">
        <ele>35.9</ele>
        <time>2020-06-07T12:57:55Z</time>
      </trkpt>
      <trkpt lat="47.26916" lon="-1.67025">
        <ele>35.9</ele>
        <time>2020-06-07T12:57:56Z</time>
      </trkpt>
      <trkpt lat="47.26916" lon="-1.67027">
        <ele>35.9</ele>
        <time>2020-06-07T12:57:57Z</time>
      </trkpt>
      <trkpt lat="47.26917" lon="-1.67028">
        <ele>35.9</ele>
        <time>2020-06-07T12:57:58Z</time>
      </trkpt>
      <trkpt lat="47.26917" lon="-1.6703">
        <ele>35.9</ele>
        <time>2020-06-07T12:57:59Z</time>
      </trkpt>
      <trkpt lat="47.26918" lon="-1.67031">
        <ele>35.9</ele>
        <time>2020-06-07T12:58:00Z</time>
      </trkpt>
      <trkpt lat="47.26918" lon="-1.67032">
        <ele>35.9</ele>
        <time>2020-06-07T12:58:01Z</time>
      </trkpt>
      <trkpt lat="47.26918" lon="-1.67033">
        <ele>35.9</ele>
        <time>2020-06-07T12:58:02Z</time>
      </trkpt>
      <trkpt lat="47.26918" lon="-1.67035">
        <ele>35.9</ele>
        <time>2020-06-07T12:58:03Z</time>
      </trkpt>
      <trkpt lat="47.26918" lon="-1.67036">
        <ele>35.9</ele>
        <time>2020-06-07T12:58:04Z</time>
      </trkpt>
      <trkpt lat="47.26919" lon="-1.67037">
        <ele>36</ele>
        <time>2020-06-07T12:58:05Z</time>
      </trkpt>
      <trkpt lat="47.26919" lon="-1.67038">
        <ele>36</ele>
        <time>2020-06-07T12:58:06Z</time>
      </trkpt>
      <trkpt lat="47.26919" lon="-1.67039">
        <ele>36</ele>
        <time>2020-06-07T12:58:07Z</time>
      </trkpt>
      <trkpt lat="47.26919" lon="-1.67039">
        <ele>36</ele>
        <time>2020-06-07T12:58:08Z</time>
      </trkpt>
      <trkpt lat="47.26919" lon="-1.6704">
        <ele>36</ele>
        <time>2020-06-07T12:58:09Z</time>
      </trkpt>
      <trkpt lat="47.26918" lon="-1.67041">
        <ele>36</ele>
        <time>2020-06-07T12:58:10Z</time>
      </trkpt>
      <trkpt lat="47.26918" lon="-1.67041">
        <ele>36</ele>
        <time>2020-06-07T12:58:11Z</time>
      </trkpt>
      <trkpt lat="47.26918" lon="-1.67042">
        <ele>36</ele>
        <time>2020-06-07T12:58:12Z</time>
      </trkpt>
      <trkpt lat="47.26917" lon="-1.67042">
        <ele>36</ele>
        <time>2020-06-07T12:58:13Z</time>
      </trkpt>
      <trkpt lat="47.26917" lon="-1.67043">
        <ele>36</ele>
        <time>2020-06-07T12:58:14Z</time>
      </trkpt>
      <trkpt lat="47.26917" lon="-1.67043">
        <ele>36</ele>
        <time>2020-06-07T12:58:15Z</time>
      </trkpt>
      <trkpt lat="47.26917" lon="-1.67044">
        <ele>36</ele>
        <time>2020-06-07T12:58:16Z</time>
      </trkpt>
      <trkpt lat="47.26917" lon="-1.67044">
        <ele>36</ele>
        <time>2020-06-07T12:58:17Z</time>
      </trkpt>
      <trkpt lat="47.26917" lon="-1.67044">
        <ele>36</ele>
        <time>2020-06-07T12:58:18Z</time>
      </trkpt>
      <trkpt lat="47.26917" lon="-1.67044">
        <ele>36</ele>
        <time>2020-06-07T12:58:19Z</time>
      </trkpt>
      <trkpt lat="47.26916" lon="-1.67044">
        <ele>36</ele>
        <time>2020-06-07T12:58:20Z</time>
      </trkpt>
      <trkpt lat="47.26916" lon="-1.67044">
        <ele>36</ele>
        <time>2020-06-07T12:58:21Z</time>
      </trkpt>
      <trkpt lat="47.26916" lon="-1.67045">
        <ele>36</ele>
        <time>2020-06-07T12:58:22Z</time>
      </trkpt>
      <trkpt lat="47.26915" lon="-1.67046">
        <ele>36</ele>
        <time>2020-06-07T12:58:23Z</time>
      </trkpt>
      <trkpt lat="47.26915" lon="-1.67047">
        <ele>36.1</ele>
        <time>2020-06-07T12:58:24Z</time>
      </trkpt>
      <trkpt lat="47.26915" lon="-1.67048">
        <ele>36.1</ele>
        <time>2020-06-07T12:58:25Z</time>
      </trkpt>
      <trkpt lat="47.26914" lon="-1.67049">
        <ele>36.1</ele>
        <time>2020-06-07T12:58:26Z</time>
      </trkpt>
      <trkpt lat="47.26914" lon="-1.67049">
        <ele>36.1</ele>
        <time>2020-06-07T12:58:27Z</time>
      </trkpt>
      <trkpt lat="47.26914" lon="-1.67049">
        <ele>36.1</ele>
        <time>2020-06-07T12:58:28Z</time>
      </trkpt>
      <trkpt lat="47.26913" lon="-1.67049">
        <ele>36.1</ele>
        <time>2020-06-07T12:58:29Z</time>
      </trkpt>
      <trkpt lat="47.26912" lon="-1.67049">
        <ele>36.1</ele>
        <time>2020-06-07T12:58:30Z</time>
      </trkpt>
      <trkpt lat="47.26912" lon="-1.67049">
        <ele>36.1</ele>
        <time>2020-06-07T12:58:31Z</time>
      </trkpt>
      <trkpt lat="47.26912" lon="-1.67049">
        <ele>36.1</ele>
        <time>2020-06-07T12:58:32Z</time>
      </trkpt>
      <trkpt lat="47.26912" lon="-1.67049">
        <ele>36.1</ele>
        <time>2020-06-07T12:58:33Z</time>
      </trkpt>
      <trkpt lat="47.26912" lon="-1.67049">
        <ele>36.1</ele>
        <time>2020-06-07T12:58:34Z</time>
      </trkpt>
      <trkpt lat="47.26912" lon="-1.67049">
        <ele>36.1</ele>
        <time>2020-06-07T12:58:35Z</time>
      </trkpt>
      <trkpt lat="47.26912" lon="-1.67049">
        <ele>36.1</ele>
        <time>2020-06-07T12:58:36Z</time>
      </trkpt>
      <trkpt lat="47.26912" lon="-1.6705">
        <ele>36.1</ele>
        <time>2020-06-07T12:58:37Z</time>
      </trkpt>
      <trkpt lat="47.2691" lon="-1.6706">
        <ele>36.2</ele>
        <time>2020-06-07T12:59:19Z</time>
      </trkpt>
      <trkpt lat="47.26909" lon="-1.67062">
        <ele>36.2</ele>
        <time>2020-06-07T12:59:20Z</time>
      </trkpt>
      <trkpt lat="47.26909" lon="-1.67064">
        <ele>36.2</ele>
        <time>2020-06-07T12:59:21Z</time>
      </trkpt>
      <trkpt lat="47.26909" lon="-1.67065">
        <ele>36.2</ele>
        <time>2020-06-07T12:59:22Z</time>
      </trkpt>
      <trkpt lat="47.26909" lon="-1.67066">
        <ele>36.2</ele>
        <time>2020-06-07T12:59:23Z</time>
      </trkpt>
      <trkpt lat="47.26909" lon="-1.67067">
        <ele>36.3</ele>
        <time>2020-06-07T12:59:24Z</time>
      </trkpt>
      <trkpt lat="47.26909" lon="-1.67068">
        <ele>36.3</ele>
        <time>2020-06-07T12:59:25Z</time>
      </trkpt>
      <trkpt lat="47.26909" lon="-1.6707">
        <ele>36.3</ele>
        <time>2020-06-07T12:59:26Z</time>
      </trkpt>
      <trkpt lat="47.26909" lon="-1.67071">
        <ele>36.3</ele>
        <time>2020-06-07T12:59:27Z</time>
      </trkpt>
      <trkpt lat="47.26909" lon="-1.67072">
        <ele>36.3</ele>
        <time>2020-06-07T12:59:28Z</time>
      </trkpt>
      <trkpt lat="47.26909" lon="-1.67073">
        <ele>36.3</ele>
        <time>2020-06-07T12:59:29Z</time>
      </trkpt>
      <trkpt lat="47.26908" lon="-1.67075">
        <ele>36.3</ele>
        <time>2020-06-07T12:59:30Z</time>
      </trkpt>
      <trkpt lat="47.26908" lon="-1.67075">
        <ele>36.3</ele>
        <time>2020-06-07T12:59:31Z</time>
      </trkpt>
      <trkpt lat="47.26907" lon="-1.67076">
        <ele>36.3</ele>
        <time>2020-06-07T12:59:32Z</time>
      </trkpt>
      <trkpt lat="47.26907" lon="-1.67077">
        <ele>36.3</ele>
        <time>2020-06-07T12:59:33Z</time>
      </trkpt>
      <trkpt lat="47.26907" lon="-1.67078">
        <ele>36.3</ele>
        <time>2020-06-07T12:59:34Z</time>
      </trkpt>
      <trkpt lat="47.26906" lon="-1.67079">
        <ele>36.3</ele>
        <time>2020-06-07T12:59:35Z</time>
      </trkpt>
      <trkpt lat="47.26905" lon="-1.67081">
        <ele>36.4</ele>
        <time>2020-06-07T12:59:36Z</time>
      </trkpt>
      <trkpt lat="47.26905" lon="-1.67082">
        <ele>36.4</ele>
        <time>2020-06-07T12:59:37Z</time>
      </trkpt>
      <trkpt lat="47.26904" lon="-1.67084">
        <ele>36.4</ele>
        <time>2020-06-07T12:59:38Z</time>
      </trkpt>
      <trkpt lat="47.26904" lon="-1.67085">
        <ele>36.4</ele>
        <time>2020-06-07T12:59:39Z</time>
      </trkpt>
      <trkpt lat="47.26904" lon="-1.67086">
        <ele>36.4</ele>
        <time>2020-06-07T12:59:40Z</time>
      </trkpt>
      <trkpt lat="47.26904" lon="-1.67088">
        <ele>36.4</ele>
        <time>2020-06-07T12:59:41Z</time>
      </trkpt>
      <trkpt lat="47.26904" lon="-1.67089">
        <ele>36.4</ele>
        <time>2020-06-07T12:59:42Z</time>
      </trkpt>
      <trkpt lat="47.26904" lon="-1.67091">
        <ele>36.4</ele>
        <time>2020-06-07T12:59:43Z</time>
      </trkpt>
      <trkpt lat="47.26904" lon="-1.67092">
        <ele>36.4</ele>
        <time>2020-06-07T12:59:44Z</time>
      </trkpt>
      <trkpt lat="47.26904" lon="-1.67093">
        <ele>36.4</ele>
        <time>2020-06-07T12:59:45Z</time>
      </trkpt>
      <trkpt lat="47.26904" lon="-1.67094">
        <ele>36.4</ele>
        <time>2020-06-07T12:59:46Z</time>
      </trkpt>
      <trkpt lat="47.26904" lon="-1.67096">
        <ele>36.4</ele>
        <time>2020-06-07T12:59:47Z</time>
      </trkpt>
      <trkpt lat="47.26905" lon="-1.67097">
        <ele>36.5</ele>
        <time>2020-06-07T12:59:48Z</time>
      </trkpt>
      <trkpt lat="47.26906" lon="-1.67099">
        <ele>36.5</ele>
        <time>2020-06-07T12:59:49Z</time>
      </trkpt>
      <trkpt lat="47.26906" lon="-1.67099">
        <ele>36.5</ele>
        <time>2020-06-07T12:59:50Z</time>
      </trkpt>
      <trkpt lat="47.26907" lon="-1.671">
        <ele>36.5</ele>
        <time>2020-06-07T12:59:51Z</time>
      </trkpt>
      <trkpt lat="47.26907" lon="-1.67101">
        <ele>36.5</ele>
        <time>2020-06-07T12:59:52Z</time>
      </trkpt>
      <trkpt lat="47.26907" lon="-1.67102">
        <ele>36.5</ele>
        <time>2020-06-07T12:59:53Z</time>
      </trkpt>
      <trkpt lat="47.26906" lon="-1.67104">
        <ele>36.5</ele>
        <time>2020-06-07T12:59:54Z</time>
      </trkpt>
      <trkpt lat="47.26906" lon="-1.67105">
        <ele>36.5</ele>
        <time>2020-06-07T12:59:55Z</time>
      </trkpt>
      <trkpt lat="47.26906" lon="-1.67105">
        <ele>36.5</ele>
        <time>2020-06-07T12:59:56Z</time>
      </trkpt>
      <trkpt lat="47.26905" lon="-1.67106">
        <ele>36.5</ele>
        <time>2020-06-07T12:59:57Z</time>
      </trkpt>
      <trkpt lat="47.26904" lon="-1.67107">
        <ele>36.6</ele>
        <time>2020-06-07T12:59:58Z</time>
      </trkpt>
      <trkpt lat="47.26904" lon="-1.6711">
        <ele>36.6</ele>
        <time>2020-06-07T12:59:59Z</time>
      </trkpt>
      <trkpt lat="47.26904" lon="-1.67112">
        <ele>36.6</ele>
        <time>2020-06-07T13:00:00Z</time>
      </trkpt>
      <trkpt lat="47.26904" lon="-1.67113">
        <ele>36.6</ele>
        <time>2020-06-07T13:00:01Z</time>
      </trkpt>
      <trkpt lat="47.26904" lon="-1.67114">
        <ele>36.7</ele>
        <time>2020-06-07T13:00:02Z</time>
      </trkpt>
      <trkpt lat="47.26904" lon="-1.67114">
        <ele>36.7</ele>
        <time>2020-06-07T13:00:03Z</time>
      </trkpt>
      <trkpt lat="47.26904" lon="-1.67115">
        <ele>36.7</ele>
        <time>2020-06-07T13:00:04Z</time>
      </trkpt>
      <trkpt lat="47.26904" lon="-1.67116">
        <ele>36.7</ele>
        <time>2020-06-07T13:00:05Z</time>
      </trkpt>
      <trkpt lat="47.26903" lon="-1.67117">
        <ele>36.7</ele>
        <time>2020-06-07T13:00:06Z</time>
      </trkpt>
      <trkpt lat="47.26903" lon="-1.67118">
        <ele>36.7</ele>
        <time>2020-06-07T13:00:07Z</time>
      </trkpt>
      <trkpt lat="47.26903" lon="-1.67118">
        <ele>36.7</ele>
        <time>2020-06-07T13:00:08Z</time>
      </trkpt>
      <trkpt lat="47.26902" lon="-1.67119">
        <ele>36.7</ele>
        <time>2020-06-07T13:00:09Z</time>
      </trkpt>
      <trkpt lat="47.26902" lon="-1.6712">
        <ele>36.8</ele>
        <time>2020-06-07T13:00:10Z</time>
      </trkpt>
      <trkpt lat="47.26901" lon="-1.67121">
        <ele>36.8</ele>
        <time>2020-06-07T13:00:11Z</time>
      </trkpt>
      <trkpt lat="47.269" lon="-1.67122">
        <ele>36.8</ele>
        <time>2020-06-07T13:00:12Z</time>
      </trkpt>
      <trkpt lat="47.269" lon="-1.67122">
        <ele>36.8</ele>
        <time>2020-06-07T13:00:13Z</time>
      </trkpt>
      <trkpt lat="47.269" lon="-1.67123">
        <ele>36.8</ele>
        <time>2020-06-07T13:00:14Z</time>
      </trkpt>
      <trkpt lat="47.26899" lon="-1.67124">
        <ele>36.9</ele>
        <time>2020-06-07T13:00:15Z</time>
      </trkpt>
      <trkpt lat="47.26899" lon="-1.67125">
        <ele>36.9</ele>
        <time>2020-06-07T13:00:16Z</time>
      </trkpt>
      <trkpt lat="47.26899" lon="-1.67126">
        <ele>36.9</ele>
        <time>2020-06-07T13:00:17Z</time>
      </trkpt>
      <trkpt lat="47.26898" lon="-1.67128">
        <ele>36.9</ele>
        <time>2020-06-07T13:00:18Z</time>
      </trkpt>
      <trkpt lat="47.26898" lon="-1.67129">
        <ele>37</ele>
        <time>2020-06-07T13:00:19Z</time>
      </trkpt>
      <trkpt lat="47.26897" lon="-1.67131">
        <ele>37</ele>
        <time>2020-06-07T13:00:20Z</time>
      </trkpt>
      <trkpt lat="47.26896" lon="-1.67132">
        <ele>37</ele>
        <time>2020-06-07T13:00:21Z</time>
      </trkpt>
      <trkpt lat="47.26895" lon="-1.67133">
        <ele>37.1</ele>
        <time>2020-06-07T13:00:22Z</time>
      </trkpt>
      <trkpt lat="47.26894" lon="-1.67133">
        <ele>37.1</ele>
        <time>2020-06-07T13:00:23Z</time>
      </trkpt>
      <trkpt lat="47.26893" lon="-1.67134">
        <ele>37.1</ele>
        <time>2020-06-07T13:00:24Z</time>
      </trkpt>
      <trkpt lat="47.26892" lon="-1.67134">
        <ele>37.2</ele>
        <time>2020-06-07T13:00:25Z</time>
      </trkpt>
      <trkpt lat="47.26891" lon="-1.67134">
        <ele>37.2</ele>
        <time>2020-06-07T13:00:26Z</time>
      </trkpt>
      <trkpt lat="47.26891" lon="-1.67134">
        <ele>37.2</ele>
        <time>2020-06-07T13:00:27Z</time>
      </trkpt>
      <trkpt lat="47.2689" lon="-1.67134">
        <ele>37.2</ele>
        <time>2020-06-07T13:00:28Z</time>
      </trkpt>
      <trkpt lat="47.2689" lon="-1.67134">
        <ele>37.2</ele>
        <time>2020-06-07T13:00:29Z</time>
      </trkpt>
      <trkpt lat="47.26889" lon="-1.67133">
        <ele>37.3</ele>
        <time>2020-06-07T13:00:30Z</time>
      </trkpt>
      <trkpt lat="47.26889" lon="-1.67133">
        <ele>37.3</ele>
        <time>2020-06-07T13:00:31Z</time>
      </trkpt>
      <trkpt lat="47.26888" lon="-1.67133">
        <ele>37.3</ele>
        <time>2020-06-07T13:00:32Z</time>
      </trkpt>
      <trkpt lat="47.26889" lon="-1.67131">
        <ele>37.3</ele>
        <time>2020-06-07T13:00:33Z</time>
      </trkpt>
      <trkpt lat="47.26888" lon="-1.67131">
        <ele>37.4</ele>
        <time>2020-06-07T13:00:34Z</time>
      </trkpt>
      <trkpt lat="47.26889" lon="-1.6713">
        <ele>37.4</ele>
        <time>2020-06-07T13:00:35Z</time>
      </trkpt>
      <trkpt lat="47.26888" lon="-1.67129">
        <ele>37.4</ele>
        <time>2020-06-07T13:00:36Z</time>
      </trkpt>
      <trkpt lat="47.26887" lon="-1.67129">
        <ele>37.4</ele>
        <time>2020-06-07T13:00:37Z</time>
      </trkpt>
      <trkpt lat="47.26886" lon="-1.67128">
        <ele>37.5</ele>
        <time>2020-06-07T13:00:38Z</time>
      </trkpt>
      <trkpt lat="47.26885" lon="-1.67128">
        <ele>37.5</ele>
        <time>2020-06-07T13:00:39Z</time>
      </trkpt>
      <trkpt lat="47.26884" lon="-1.67128">
        <ele>37.5</ele>
        <time>2020-06-07T13:00:40Z</time>
      </trkpt>
      <trkpt lat="47.26884" lon="-1.67128">
        <ele>37.6</ele>
        <time>2020-06-07T13:00:41Z</time>
      </trkpt>
      <trkpt lat="47.26883" lon="-1.67128">
        <ele>37.6</ele>
        <time>2020-06-07T13:00:42Z</time>
      </trkpt>
      <trkpt lat="47.26882" lon="-1.67128">
        <ele>37.6</ele>
        <time>2020-06-07T13:00:43Z</time>
      </trkpt>
      <trkpt lat="47.26881" lon="-1.67128">
        <ele>37.7</ele>
        <time>2020-06-07T13:00:44Z</time>
      </trkpt>
      <trkpt lat="47.2688" lon="-1.67128">
        <ele>37.7</ele>
        <time>2020-06-07T13:00:45Z</time>
      </trkpt>
      <trkpt lat="47.26879" lon="-1.67129">
        <ele>37.8</ele>
        <time>2020-06-07T13:00:46Z</time>
      </trkpt>
      <trkpt lat="47.26877" lon="-1.67129">
        <ele>37.8</ele>
        <time>2020-06-07T13:00:47Z</time>
      </trkpt>
      <trkpt lat="47.26876" lon="-1.6713">
        <ele>37.9</ele>
        <time>2020-06-07T13:00:48Z</time>
      </trkpt>
      <trkpt lat="47.26875" lon="-1.6713">
        <ele>37.9</ele>
        <time>2020-06-07T13:00:49Z</time>
      </trkpt>
      <trkpt lat="47.26874" lon="-1.6713">
        <ele>38</ele>
        <time>2020-06-07T13:00:50Z</time>
      </trkpt>
      <trkpt lat="47.26874" lon="-1.6713">
        <ele>38</ele>
        <time>2020-06-07T13:00:51Z</time>
      </trkpt>
      <trkpt lat="47.26873" lon="-1.6713">
        <ele>38.1</ele>
        <time>2020-06-07T13:00:52Z</time>
      </trkpt>
      <trkpt lat="47.26872" lon="-1.6713">
        <ele>38.1</ele>
        <time>2020-06-07T13:00:53Z</time>
      </trkpt>
      <trkpt lat="47.26872" lon="-1.6713">
        <ele>38.1</ele>
        <time>2020-06-07T13:00:54Z</time>
      </trkpt>
      <trkpt lat="47.26871" lon="-1.67131">
        <ele>38.1</ele>
        <time>2020-06-07T13:00:55Z</time>
      </trkpt>
      <trkpt lat="47.26871" lon="-1.67131">
        <ele>38.1</ele>
        <time>2020-06-07T13:00:56Z</time>
      </trkpt>
      <trkpt lat="47.26871" lon="-1.67132">
        <ele>38.2</ele>
        <time>2020-06-07T13:00:57Z</time>
      </trkpt>
      <trkpt lat="47.26871" lon="-1.67133">
        <ele>38.2</ele>
        <time>2020-06-07T13:00:58Z</time>
      </trkpt>
      <trkpt lat="47.26871" lon="-1.67134">
        <ele>38.3</ele>
        <time>2020-06-07T13:00:59Z</time>
      </trkpt>
      <trkpt lat="47.26871" lon="-1.67136">
        <ele>38.3</ele>
        <time>2020-06-07T13:01:00Z</time>
      </trkpt>
      <trkpt lat="47.26871" lon="-1.67137">
        <ele>38.3</ele>
        <time>2020-06-07T13:01:01Z</time>
      </trkpt>
      <trkpt lat="47.2687" lon="-1.67137">
        <ele>38.4</ele>
        <time>2020-06-07T13:01:02Z</time>
      </trkpt>
      <trkpt lat="47.2687" lon="-1.67137">
        <ele>38.4</ele>
        <time>2020-06-07T13:01:03Z</time>
      </trkpt>
      <trkpt lat="47.2687" lon="-1.67137">
        <ele>38.4</ele>
        <time>2020-06-07T13:01:04Z</time>
      </trkpt>
      <trkpt lat="47.2687" lon="-1.67138">
        <ele>38.4</ele>
        <time>2020-06-07T13:01:05Z</time>
      </trkpt>
      <trkpt lat="47.2687" lon="-1.67138">
        <ele>38.4</ele>
        <time>2020-06-07T13:01:06Z</time>
      </trkpt>
      <trkpt lat="47.2687" lon="-1.67138">
        <ele>38.4</ele>
        <time>2020-06-07T13:01:07Z</time>
      </trkpt>
      <trkpt lat="47.26869" lon="-1.67139">
        <ele>38.4</ele>
        <time>2020-06-07T13:01:08Z</time>
      </trkpt>
      <trkpt lat="47.26869" lon="-1.67139">
        <ele>38.5</ele>
        <time>2020-06-07T13:01:09Z</time>
      </trkpt>
      <trkpt lat="47.26868" lon="-1.67139">
        <ele>38.5</ele>
        <time>2020-06-07T13:01:10Z</time>
      </trkpt>
      <trkpt lat="47.26867" lon="-1.67139">
        <ele>38.5</ele>
        <time>2020-06-07T13:01:11Z</time>
      </trkpt>
      <trkpt lat="47.26866" lon="-1.67139">
        <ele>38.6</ele>
        <time>2020-06-07T13:01:12Z</time>
      </trkpt>
      <trkpt lat="47.26866" lon="-1.67139">
        <ele>38.6</ele>
        <time>2020-06-07T13:01:13Z</time>
      </trkpt>
      <trkpt lat="47.26866" lon="-1.67139">
        <ele>38.6</ele>
        <time>2020-06-07T13:01:14Z</time>
      </trkpt>
      <trkpt lat="47.26866" lon="-1.67139">
        <ele>38.6</ele>
        <time>2020-06-07T13:01:15Z</time>
      </trkpt>
      <trkpt lat="47.26866" lon="-1.67138">
        <ele>38.6</ele>
        <time>2020-06-07T13:01:16Z</time>
      </trkpt>
      <trkpt lat="47.26866" lon="-1.67139">
        <ele>38.6</ele>
        <time>2020-06-07T13:01:17Z</time>
      </trkpt>
      <trkpt lat="47.26866" lon="-1.67138">
        <ele>38.6</ele>
        <time>2020-06-07T13:01:18Z</time>
      </trkpt>
      <trkpt lat="47.26866" lon="-1.67138">
        <ele>38.6</ele>
        <time>2020-06-07T13:01:19Z</time>
      </trkpt>
      <trkpt lat="47.26866" lon="-1.67138">
        <ele>38.6</ele>
        <time>2020-06-07T13:01:20Z</time>
      </trkpt>
      <trkpt lat="47.26866" lon="-1.67138">
        <ele>38.6</ele>
        <time>2020-06-07T13:01:21Z</time>
      </trkpt>
      <trkpt lat="47.26866" lon="-1.67138">
        <ele>38.6</ele>
        <time>2020-06-07T13:01:22Z</time>
      </trkpt>
      <trkpt lat="47.26866" lon="-1.67138">
        <ele>38.6</ele>
        <time>2020-06-07T13:01:23Z</time>
      </trkpt>
      <trkpt lat="47.26866" lon="-1.67138">
        <ele>38.6</ele>
        <time>2020-06-07T13:01:24Z</time>
      </trkpt>
      <trkpt lat="47.26866" lon="-1.67141">
        <ele>38.7</ele>
        <time>2020-06-07T13:03:22Z</time>
      </trkpt>
      <trkpt lat="47.26865" lon="-1.6714">
        <ele>38.8</ele>
        <time>2020-06-07T13:03:23Z</time>
      </trkpt>
      <trkpt lat="47.26864" lon="-1.67139">
        <ele>38.8</ele>
        <time>2020-06-07T13:03:24Z</time>
      </trkpt>
      <trkpt lat="47.26863" lon="-1.67139">
        <ele>38.9</ele>
        <time>2020-06-07T13:03:25Z</time>
      </trkpt>
      <trkpt lat="47.26861" lon="-1.67138">
        <ele>39</ele>
        <time>2020-06-07T13:03:26Z</time>
      </trkpt>
      <trkpt lat="47.2686" lon="-1.67138">
        <ele>39</ele>
        <time>2020-06-07T13:03:27Z</time>
      </trkpt>
      <trkpt lat="47.26859" lon="-1.67137">
        <ele>39.1</ele>
        <time>2020-06-07T13:03:28Z</time>
      </trkpt>
      <trkpt lat="47.26858" lon="-1.67136">
        <ele>39.1</ele>
        <time>2020-06-07T13:03:29Z</time>
      </trkpt>
      <trkpt lat="47.26858" lon="-1.67135">
        <ele>39.1</ele>
        <time>2020-06-07T13:03:30Z</time>
      </trkpt>
      <trkpt lat="47.26858" lon="-1.67134">
        <ele>39.2</ele>
        <time>2020-06-07T13:03:31Z</time>
      </trkpt>
      <trkpt lat="47.26858" lon="-1.67133">
        <ele>39.2</ele>
        <time>2020-06-07T13:03:32Z</time>
      </trkpt>
      <trkpt lat="47.26858" lon="-1.67133">
        <ele>39.2</ele>
        <time>2020-06-07T13:03:33Z</time>
      </trkpt>
      <trkpt lat="47.26857" lon="-1.67134">
        <ele>39.2</ele>
        <time>2020-06-07T13:03:34Z</time>
      </trkpt>
      <trkpt lat="47.26857" lon="-1.67134">
        <ele>39.2</ele>
        <time>2020-06-07T13:03:35Z</time>
      </trkpt>
      <trkpt lat="47.26856" lon="-1.67135">
        <ele>39.3</ele>
        <time>2020-06-07T13:03:36Z</time>
      </trkpt>
      <trkpt lat="47.26856" lon="-1.67134">
        <ele>39.3</ele>
        <time>2020-06-07T13:03:37Z</time>
      </trkpt>
      <trkpt lat="47.26855" lon="-1.67134">
        <ele>39.3</ele>
        <time>2020-06-07T13:03:38Z</time>
      </trkpt>
      <trkpt lat="47.26854" lon="-1.67133">
        <ele>39.4</ele>
        <time>2020-06-07T13:03:39Z</time>
      </trkpt>
      <trkpt lat="47.26853" lon="-1.67132">
        <ele>39.4</ele>
        <time>2020-06-07T13:03:40Z</time>
      </trkpt>
      <trkpt lat="47.26852" lon="-1.67131">
        <ele>39.4</ele>
        <time>2020-06-07T13:03:41Z</time>
      </trkpt>
      <trkpt lat="47.26851" lon="-1.6713">
        <ele>39.4</ele>
        <time>2020-06-07T13:03:42Z</time>
      </trkpt>
      <trkpt lat="47.2685" lon="-1.67128">
        <ele>39.4</ele>
        <time>2020-06-07T13:03:43Z</time>
      </trkpt>
      <trkpt lat="47.26849" lon="-1.67127">
        <ele>39.4</ele>
        <time>2020-06-07T13:03:44Z</time>
      </trkpt>
      <trkpt lat="47.26849" lon="-1.67127">
        <ele>39.4</ele>
        <time>2020-06-07T13:03:45Z</time>
      </trkpt>
      <trkpt lat="47.26848" lon="-1.67126">
        <ele>39.4</ele>
        <time>2020-06-07T13:03:46Z</time>
      </trkpt>
      <trkpt lat="47.26847" lon="-1.67125">
        <ele>39.4</ele>
        <time>2020-06-07T13:03:47Z</time>
      </trkpt>
      <trkpt lat="47.26847" lon="-1.67124">
        <ele>39.4</ele>
        <time>2020-06-07T13:03:48Z</time>
      </trkpt>
      <trkpt lat="47.26846" lon="-1.67123">
        <ele>39.4</ele>
        <time>2020-06-07T13:03:49Z</time>
      </trkpt>
      <trkpt lat="47.26846" lon="-1.67121">
        <ele>39.4</ele>
        <time>2020-06-07T13:03:50Z</time>
      </trkpt>
      <trkpt lat="47.26846" lon="-1.6712">
        <ele>39.4</ele>
        <time>2020-06-07T13:03:51Z</time>
      </trkpt>
      <trkpt lat="47.26845" lon="-1.6712">
        <ele>39.4</ele>
        <time>2020-06-07T13:03:52Z</time>
      </trkpt>
      <trkpt lat="47.26845" lon="-1.6712">
        <ele>39.4</ele>
        <time>2020-06-07T13:03:53Z</time>
      </trkpt>
      <trkpt lat="47.26845" lon="-1.67119">
        <ele>39.4</ele>
        <time>2020-06-07T13:03:54Z</time>
      </trkpt>
      <trkpt lat="47.26845" lon="-1.67118">
        <ele>39.4</ele>
        <time>2020-06-07T13:03:55Z</time>
      </trkpt>
      <trkpt lat="47.26845" lon="-1.67116">
        <ele>39.4</ele>
        <time>2020-06-07T13:03:56Z</time>
      </trkpt>
      <trkpt lat="47.26844" lon="-1.67115">
        <ele>39.4</ele>
        <time>2020-06-07T13:03:57Z</time>
      </trkpt>
      <trkpt lat="47.26844" lon="-1.67114">
        <ele>39.4</ele>
        <time>2020-06-07T13:03:58Z</time>
      </trkpt>
      <trkpt lat="47.26844" lon="-1.67114">
        <ele>39.4</ele>
        <time>2020-06-07T13:03:59Z</time>
      </trkpt>
      <trkpt lat="47.26843" lon="-1.67113">
        <ele>39.4</ele>
        <time>2020-06-07T13:04:00Z</time>
      </trkpt>
      <trkpt lat="47.26843" lon="-1.67112">
        <ele>39.4</ele>
        <time>2020-06-07T13:04:01Z</time>
      </trkpt>
      <trkpt lat="47.26842" lon="-1.67111">
        <ele>39.4</ele>
        <time>2020-06-07T13:04:02Z</time>
      </trkpt>
      <trkpt lat="47.26842" lon="-1.6711">
        <ele>39.4</ele>
        <time>2020-06-07T13:04:03Z</time>
      </trkpt>
      <trkpt lat="47.26841" lon="-1.67109">
        <ele>39.4</ele>
        <time>2020-06-07T13:04:04Z</time>
      </trkpt>
      <trkpt lat="47.26841" lon="-1.67108">
        <ele>39.4</ele>
        <time>2020-06-07T13:04:05Z</time>
      </trkpt>
      <trkpt lat="47.2684" lon="-1.67107">
        <ele>39.4</ele>
        <time>2020-06-07T13:04:06Z</time>
      </trkpt>
      <trkpt lat="47.26839" lon="-1.67106">
        <ele>39.4</ele>
        <time>2020-06-07T13:04:07Z</time>
      </trkpt>
      <trkpt lat="47.26839" lon="-1.67105">
        <ele>39.4</ele>
        <time>2020-06-07T13:04:08Z</time>
      </trkpt>
      <trkpt lat="47.26838" lon="-1.67104">
        <ele>39.4</ele>
        <time>2020-06-07T13:04:09Z</time>
      </trkpt>
      <trkpt lat="47.26838" lon="-1.67103">
        <ele>39.4</ele>
        <time>2020-06-07T13:04:10Z</time>
      </trkpt>
      <trkpt lat="47.26837" lon="-1.67102">
        <ele>39.4</ele>
        <time>2020-06-07T13:04:11Z</time>
      </trkpt>
      <trkpt lat="47.26836" lon="-1.67102">
        <ele>39.4</ele>
        <time>2020-06-07T13:04:12Z</time>
      </trkpt>
      <trkpt lat="47.26835" lon="-1.67101">
        <ele>39.4</ele>
        <time>2020-06-07T13:04:13Z</time>
      </trkpt>
      <trkpt lat="47.26835" lon="-1.67101">
        <ele>39.4</ele>
        <time>2020-06-07T13:04:14Z</time>
      </trkpt>
      <trkpt lat="47.26835" lon="-1.671">
        <ele>39.4</ele>
        <time>2020-06-07T13:04:15Z</time>
      </trkpt>
      <trkpt lat="47.26834" lon="-1.671">
        <ele>39.4</ele>
        <time>2020-06-07T13:04:16Z</time>
      </trkpt>
      <trkpt lat="47.26834" lon="-1.67099">
        <ele>39.4</ele>
        <time>2020-06-07T13:04:17Z</time>
      </trkpt>
      <trkpt lat="47.26833" lon="-1.67098">
        <ele>39.4</ele>
        <time>2020-06-07T13:04:18Z</time>
      </trkpt>
      <trkpt lat="47.26832" lon="-1.67098">
        <ele>39.5</ele>
        <time>2020-06-07T13:04:19Z</time>
      </trkpt>
      <trkpt lat="47.26832" lon="-1.67097">
        <ele>39.5</ele>
        <time>2020-06-07T13:04:20Z</time>
      </trkpt>
      <trkpt lat="47.26831" lon="-1.67097">
        <ele>39.5</ele>
        <time>2020-06-07T13:04:21Z</time>
      </trkpt>
      <trkpt lat="47.2683" lon="-1.67096">
        <ele>39.5</ele>
        <time>2020-06-07T13:04:22Z</time>
      </trkpt>
      <trkpt lat="47.2683" lon="-1.67096">
        <ele>39.5</ele>
        <time>2020-06-07T13:04:23Z</time>
      </trkpt>
      <trkpt lat="47.26829" lon="-1.67094">
        <ele>39.5</ele>
        <time>2020-06-07T13:04:24Z</time>
      </trkpt>
      <trkpt lat="47.26829" lon="-1.67093">
        <ele>39.5</ele>
        <time>2020-06-07T13:04:25Z</time>
      </trkpt>
      <trkpt lat="47.26828" lon="-1.67092">
        <ele>39.5</ele>
        <time>2020-06-07T13:04:26Z</time>
      </trkpt>
      <trkpt lat="47.26827" lon="-1.67091">
        <ele>39.5</ele>
        <time>2020-06-07T13:04:27Z</time>
      </trkpt>
      <trkpt lat="47.26826" lon="-1.6709">
        <ele>39.5</ele>
        <time>2020-06-07T13:04:28Z</time>
      </trkpt>
      <trkpt lat="47.26826" lon="-1.67089">
        <ele>39.5</ele>
        <time>2020-06-07T13:04:29Z</time>
      </trkpt>
      <trkpt lat="47.26825" lon="-1.67087">
        <ele>39.5</ele>
        <time>2020-06-07T13:04:30Z</time>
      </trkpt>
      <trkpt lat="47.26825" lon="-1.67086">
        <ele>39.6</ele>
        <time>2020-06-07T13:04:31Z</time>
      </trkpt>
      <trkpt lat="47.26824" lon="-1.67085">
        <ele>39.6</ele>
        <time>2020-06-07T13:04:32Z</time>
      </trkpt>
      <trkpt lat="47.26824" lon="-1.67084">
        <ele>39.6</ele>
        <time>2020-06-07T13:04:33Z</time>
      </trkpt>
      <trkpt lat="47.26823" lon="-1.67083">
        <ele>39.6</ele>
        <time>2020-06-07T13:04:34Z</time>
      </trkpt>
      <trkpt lat="47.26822" lon="-1.67082">
        <ele>39.6</ele>
        <time>2020-06-07T13:04:35Z</time>
      </trkpt>
      <trkpt lat="47.26821" lon="-1.67081">
        <ele>39.6</ele>
        <time>2020-06-07T13:04:36Z</time>
      </trkpt>
      <trkpt lat="47.26821" lon="-1.6708">
        <ele>39.6</ele>
        <time>2020-06-07T13:04:37Z</time>
      </trkpt>
      <trkpt lat="47.2682" lon="-1.67079">
        <ele>39.6</ele>
        <time>2020-06-07T13:04:38Z</time>
      </trkpt>
      <trkpt lat="47.2682" lon="-1.67078">
        <ele>39.6</ele>
        <time>2020-06-07T13:04:39Z</time>
      </trkpt>
      <trkpt lat="47.2682" lon="-1.67077">
        <ele>39.6</ele>
        <time>2020-06-07T13:04:40Z</time>
      </trkpt>
      <trkpt lat="47.26819" lon="-1.67076">
        <ele>39.7</ele>
        <time>2020-06-07T13:04:41Z</time>
      </trkpt>
      <trkpt lat="47.26818" lon="-1.67074">
        <ele>39.7</ele>
        <time>2020-06-07T13:04:42Z</time>
      </trkpt>
      <trkpt lat="47.26818" lon="-1.67073">
        <ele>39.7</ele>
        <time>2020-06-07T13:04:43Z</time>
      </trkpt>
      <trkpt lat="47.26817" lon="-1.67072">
        <ele>39.7</ele>
        <time>2020-06-07T13:04:44Z</time>
      </trkpt>
      <trkpt lat="47.26817" lon="-1.67071">
        <ele>39.7</ele>
        <time>2020-06-07T13:04:45Z</time>
      </trkpt>
      <trkpt lat="47.26815" lon="-1.6707">
        <ele>39.7</ele>
        <time>2020-06-07T13:04:46Z</time>
      </trkpt>
      <trkpt lat="47.26814" lon="-1.67069">
        <ele>39.7</ele>
        <time>2020-06-07T13:04:47Z</time>
      </trkpt>
      <trkpt lat="47.26814" lon="-1.67068">
        <ele>39.8</ele>
        <time>2020-06-07T13:04:48Z</time>
      </trkpt>
      <trkpt lat="47.26813" lon="-1.67068">
        <ele>39.8</ele>
        <time>2020-06-07T13:04:49Z</time>
      </trkpt>
      <trkpt lat="47.26812" lon="-1.67068">
        <ele>39.9</ele>
        <time>2020-06-07T13:04:50Z</time>
      </trkpt>
      <trkpt lat="47.26811" lon="-1.67068">
        <ele>39.9</ele>
        <time>2020-06-07T13:04:51Z</time>
      </trkpt>
      <trkpt lat="47.2681" lon="-1.67068">
        <ele>40</ele>
        <time>2020-06-07T13:04:52Z</time>
      </trkpt>
      <trkpt lat="47.26809" lon="-1.67069">
        <ele>40.1</ele>
        <time>2020-06-07T13:04:53Z</time>
      </trkpt>
      <trkpt lat="47.26808" lon="-1.67069">
        <ele>40.2</ele>
        <time>2020-06-07T13:04:54Z</time>
      </trkpt>
      <trkpt lat="47.26808" lon="-1.67069">
        <ele>40.2</ele>
        <time>2020-06-07T13:04:55Z</time>
      </trkpt>
      <trkpt lat="47.26808" lon="-1.6707">
        <ele>40.2</ele>
        <time>2020-06-07T13:04:56Z</time>
      </trkpt>
      <trkpt lat="47.26808" lon="-1.67069">
        <ele>40.2</ele>
        <time>2020-06-07T13:04:57Z</time>
      </trkpt>
      <trkpt lat="47.26808" lon="-1.67069">
        <ele>40.2</ele>
        <time>2020-06-07T13:04:58Z</time>
      </trkpt>
      <trkpt lat="47.26808" lon="-1.6707">
        <ele>40.2</ele>
        <time>2020-06-07T13:04:59Z</time>
      </trkpt>
      <trkpt lat="47.26808" lon="-1.67071">
        <ele>40.3</ele>
        <time>2020-06-07T13:05:00Z</time>
      </trkpt>
      <trkpt lat="47.26807" lon="-1.67072">
        <ele>40.3</ele>
        <time>2020-06-07T13:05:01Z</time>
      </trkpt>
      <trkpt lat="47.26807" lon="-1.67073">
        <ele>40.4</ele>
        <time>2020-06-07T13:05:02Z</time>
      </trkpt>
      <trkpt lat="47.26807" lon="-1.67074">
        <ele>40.5</ele>
        <time>2020-06-07T13:05:03Z</time>
      </trkpt>
      <trkpt lat="47.26807" lon="-1.67076">
        <ele>40.6</ele>
        <time>2020-06-07T13:05:04Z</time>
      </trkpt>
      <trkpt lat="47.26807" lon="-1.67077">
        <ele>40.6</ele>
        <time>2020-06-07T13:05:05Z</time>
      </trkpt>
      <trkpt lat="47.26806" lon="-1.67078">
        <ele>40.7</ele>
        <time>2020-06-07T13:05:06Z</time>
      </trkpt>
      <trkpt lat="47.26806" lon="-1.6708">
        <ele>40.8</ele>
        <time>2020-06-07T13:05:07Z</time>
      </trkpt>
      <trkpt lat="47.26806" lon="-1.67081">
        <ele>40.9</ele>
        <time>2020-06-07T13:05:08Z</time>
      </trkpt>
      <trkpt lat="47.26806" lon="-1.67083">
        <ele>40.9</ele>
        <time>2020-06-07T13:05:09Z</time>
      </trkpt>
      <trkpt lat="47.26805" lon="-1.67084">
        <ele>41</ele>
        <time>2020-06-07T13:05:10Z</time>
      </trkpt>
      <trkpt lat="47.26805" lon="-1.67085">
        <ele>41.1</ele>
        <time>2020-06-07T13:05:11Z</time>
      </trkpt>
      <trkpt lat="47.26805" lon="-1.67087">
        <ele>41.1</ele>
        <time>2020-06-07T13:05:12Z</time>
      </trkpt>
      <trkpt lat="47.26805" lon="-1.67088">
        <ele>41.2</ele>
        <time>2020-06-07T13:05:13Z</time>
      </trkpt>
      <trkpt lat="47.26805" lon="-1.6709">
        <ele>41.3</ele>
        <time>2020-06-07T13:05:14Z</time>
      </trkpt>
      <trkpt lat="47.26805" lon="-1.67091">
        <ele>41.3</ele>
        <time>2020-06-07T13:05:15Z</time>
      </trkpt>
      <trkpt lat="47.26805" lon="-1.67092">
        <ele>41.4</ele>
        <time>2020-06-07T13:05:16Z</time>
      </trkpt>
      <trkpt lat="47.26805" lon="-1.67094">
        <ele>41.4</ele>
        <time>2020-06-07T13:05:17Z</time>
      </trkpt>
      <trkpt lat="47.26804" lon="-1.67095">
        <ele>41.5</ele>
        <time>2020-06-07T13:05:18Z</time>
      </trkpt>
      <trkpt lat="47.26804" lon="-1.67096">
        <ele>41.5</ele>
        <time>2020-06-07T13:05:19Z</time>
      </trkpt>
      <trkpt lat="47.26804" lon="-1.67097">
        <ele>41.6</ele>
        <time>2020-06-07T13:05:20Z</time>
      </trkpt>
      <trkpt lat="47.26803" lon="-1.67098">
        <ele>41.6</ele>
        <time>2020-06-07T13:05:21Z</time>
      </trkpt>
      <trkpt lat="47.26803" lon="-1.67099">
        <ele>41.7</ele>
        <time>2020-06-07T13:05:22Z</time>
      </trkpt>
      <trkpt lat="47.26803" lon="-1.671">
        <ele>41.7</ele>
        <time>2020-06-07T13:05:23Z</time>
      </trkpt>
      <trkpt lat="47.26803" lon="-1.67101">
        <ele>41.8</ele>
        <time>2020-06-07T13:05:24Z</time>
      </trkpt>
      <trkpt lat="47.26803" lon="-1.67102">
        <ele>41.8</ele>
        <time>2020-06-07T13:05:25Z</time>
      </trkpt>
      <trkpt lat="47.26802" lon="-1.67103">
        <ele>41.8</ele>
        <time>2020-06-07T13:05:26Z</time>
      </trkpt>
      <trkpt lat="47.26802" lon="-1.67104">
        <ele>41.9</ele>
        <time>2020-06-07T13:05:27Z</time>
      </trkpt>
      <trkpt lat="47.26802" lon="-1.67104">
        <ele>41.9</ele>
        <time>2020-06-07T13:05:28Z</time>
      </trkpt>
      <trkpt lat="47.26802" lon="-1.67104">
        <ele>41.9</ele>
        <time>2020-06-07T13:05:29Z</time>
      </trkpt>
      <trkpt lat="47.26802" lon="-1.67105">
        <ele>41.9</ele>
        <time>2020-06-07T13:05:30Z</time>
      </trkpt>
      <trkpt lat="47.26802" lon="-1.67105">
        <ele>41.9</ele>
        <time>2020-06-07T13:05:31Z</time>
      </trkpt>
      <trkpt lat="47.26802" lon="-1.67106">
        <ele>42</ele>
        <time>2020-06-07T13:05:32Z</time>
      </trkpt>
      <trkpt lat="47.26802" lon="-1.67107">
        <ele>42</ele>
        <time>2020-06-07T13:05:33Z</time>
      </trkpt>
      <trkpt lat="47.26802" lon="-1.67108">
        <ele>42</ele>
        <time>2020-06-07T13:05:34Z</time>
      </trkpt>
      <trkpt lat="47.26802" lon="-1.67108">
        <ele>42</ele>
        <time>2020-06-07T13:05:35Z</time>
      </trkpt>
      <trkpt lat="47.26803" lon="-1.67109">
        <ele>42.1</ele>
        <time>2020-06-07T13:05:36Z</time>
      </trkpt>
      <trkpt lat="47.26803" lon="-1.67109">
        <ele>42.1</ele>
        <time>2020-06-07T13:05:37Z</time>
      </trkpt>
      <trkpt lat="47.26802" lon="-1.67109">
        <ele>42.1</ele>
        <time>2020-06-07T13:05:38Z</time>
      </trkpt>
      <trkpt lat="47.26802" lon="-1.67109">
        <ele>42.1</ele>
        <time>2020-06-07T13:05:39Z</time>
      </trkpt>
      <trkpt lat="47.26802" lon="-1.67109">
        <ele>42.1</ele>
        <time>2020-06-07T13:05:40Z</time>
      </trkpt>
      <trkpt lat="47.26802" lon="-1.67109">
        <ele>42.1</ele>
        <time>2020-06-07T13:05:41Z</time>
      </trkpt>
      <trkpt lat="47.26802" lon="-1.67109">
        <ele>42.1</ele>
        <time>2020-06-07T13:05:42Z</time>
      </trkpt>
      <trkpt lat="47.26802" lon="-1.67109">
        <ele>42.1</ele>
        <time>2020-06-07T13:05:43Z</time>
      </trkpt>
      <trkpt lat="47.26802" lon="-1.67109">
        <ele>42.1</ele>
        <time>2020-06-07T13:05:44Z</time>
      </trkpt>
      <trkpt lat="47.26802" lon="-1.67109">
        <ele>42.1</ele>
        <time>2020-06-07T13:05:45Z</time>
      </trkpt>
      <trkpt lat="47.26802" lon="-1.67115">
        <ele>42.3</ele>
        <time>2020-06-07T13:06:11Z</time>
      </trkpt>
      <trkpt lat="47.26801" lon="-1.67116">
        <ele>42.4</ele>
        <time>2020-06-07T13:06:12Z</time>
      </trkpt>
      <trkpt lat="47.26801" lon="-1.67117">
        <ele>42.4</ele>
        <time>2020-06-07T13:06:13Z</time>
      </trkpt>
      <trkpt lat="47.26801" lon="-1.67118">
        <ele>42.5</ele>
        <time>2020-06-07T13:06:14Z</time>
      </trkpt>
      <trkpt lat="47.26801" lon="-1.67119">
        <ele>42.5</ele>
        <time>2020-06-07T13:06:15Z</time>
      </trkpt>
      <trkpt lat="47.26801" lon="-1.6712">
        <ele>42.6</ele>
        <time>2020-06-07T13:06:16Z</time>
      </trkpt>
      <trkpt lat="47.26801" lon="-1.67121">
        <ele>42.6</ele>
        <time>2020-06-07T13:06:17Z</time>
      </trkpt>
      <trkpt lat="47.26801" lon="-1.67122">
        <ele>42.6</ele>
        <time>2020-06-07T13:06:18Z</time>
      </trkpt>
      <trkpt lat="47.26801" lon="-1.67123">
        <ele>42.6</ele>
        <time>2020-06-07T13:06:19Z</time>
      </trkpt>
      <trkpt lat="47.268" lon="-1.67123">
        <ele>42.6</ele>
        <time>2020-06-07T13:06:20Z</time>
      </trkpt>
      <trkpt lat="47.268" lon="-1.67123">
        <ele>42.7</ele>
        <time>2020-06-07T13:06:21Z</time>
      </trkpt>
      <trkpt lat="47.268" lon="-1.67123">
        <ele>42.7</ele>
        <time>2020-06-07T13:06:22Z</time>
      </trkpt>
      <trkpt lat="47.268" lon="-1.67123">
        <ele>42.7</ele>
        <time>2020-06-07T13:06:23Z</time>
      </trkpt>
      <trkpt lat="47.268" lon="-1.67123">
        <ele>42.7</ele>
        <time>2020-06-07T13:06:24Z</time>
      </trkpt>
      <trkpt lat="47.268" lon="-1.67122">
        <ele>42.7</ele>
        <time>2020-06-07T13:06:25Z</time>
      </trkpt>
      <trkpt lat="47.268" lon="-1.67122">
        <ele>42.7</ele>
        <time>2020-06-07T13:06:26Z</time>
      </trkpt>
      <trkpt lat="47.268" lon="-1.67122">
        <ele>42.7</ele>
        <time>2020-06-07T13:06:27Z</time>
      </trkpt>
      <trkpt lat="47.268" lon="-1.67122">
        <ele>42.7</ele>
        <time>2020-06-07T13:06:28Z</time>
      </trkpt>
      <trkpt lat="47.268" lon="-1.67122">
        <ele>42.7</ele>
        <time>2020-06-07T13:06:29Z</time>
      </trkpt>
      <trkpt lat="47.268" lon="-1.67122">
        <ele>42.7</ele>
        <time>2020-06-07T13:06:30Z</time>
      </trkpt>
      <trkpt lat="47.268" lon="-1.67122">
        <ele>42.7</ele>
        <time>2020-06-07T13:06:31Z</time>
      </trkpt>
      <trkpt lat="47.268" lon="-1.67122">
        <ele>42.7</ele>
        <time>2020-06-07T13:06:32Z</time>
      </trkpt>
      <trkpt lat="47.268" lon="-1.67122">
        <ele>42.7</ele>
        <time>2020-06-07T13:06:33Z</time>
      </trkpt>
      <trkpt lat="47.268" lon="-1.67122">
        <ele>42.7</ele>
        <time>2020-06-07T13:06:34Z</time>
      </trkpt>
      <trkpt lat="47.268" lon="-1.67122">
        <ele>42.7</ele>
        <time>2020-06-07T13:06:35Z</time>
      </trkpt>
      <trkpt lat="47.268" lon="-1.67122">
        <ele>42.7</ele>
        <time>2020-06-07T13:06:36Z</time>
      </trkpt>
      <trkpt lat="47.26801" lon="-1.67121">
        <ele>42.8</ele>
        <time>2020-06-07T13:08:47Z</time>
      </trkpt>
      <trkpt lat="47.26802" lon="-1.67121">
        <ele>42.8</ele>
        <time>2020-06-07T13:08:48Z</time>
      </trkpt>
      <trkpt lat="47.26803" lon="-1.6712">
        <ele>42.9</ele>
        <time>2020-06-07T13:08:49Z</time>
      </trkpt>
      <trkpt lat="47.26805" lon="-1.6712">
        <ele>43</ele>
        <time>2020-06-07T13:08:50Z</time>
      </trkpt>
      <trkpt lat="47.26806" lon="-1.67119">
        <ele>42.8</ele>
        <time>2020-06-07T13:08:51Z</time>
      </trkpt>
      <trkpt lat="47.26807" lon="-1.67119">
        <ele>42.8</ele>
        <time>2020-06-07T13:08:52Z</time>
      </trkpt>
      <trkpt lat="47.26808" lon="-1.67119">
        <ele>42.7</ele>
        <time>2020-06-07T13:08:53Z</time>
      </trkpt>
      <trkpt lat="47.26809" lon="-1.67119">
        <ele>42.7</ele>
        <time>2020-06-07T13:08:54Z</time>
      </trkpt>
      <trkpt lat="47.2681" lon="-1.67119">
        <ele>42.7</ele>
        <time>2020-06-07T13:08:55Z</time>
      </trkpt>
      <trkpt lat="47.26811" lon="-1.67119">
        <ele>42.7</ele>
        <time>2020-06-07T13:08:56Z</time>
      </trkpt>
      <trkpt lat="47.26812" lon="-1.6712">
        <ele>42.6</ele>
        <time>2020-06-07T13:08:57Z</time>
      </trkpt>
      <trkpt lat="47.26813" lon="-1.6712">
        <ele>42.6</ele>
        <time>2020-06-07T13:08:58Z</time>
      </trkpt>
      <trkpt lat="47.26814" lon="-1.6712">
        <ele>42.6</ele>
        <time>2020-06-07T13:08:59Z</time>
      </trkpt>
      <trkpt lat="47.26815" lon="-1.67121">
        <ele>42.5</ele>
        <time>2020-06-07T13:09:00Z</time>
      </trkpt>
      <trkpt lat="47.26816" lon="-1.67121">
        <ele>42.5</ele>
        <time>2020-06-07T13:09:01Z</time>
      </trkpt>
      <trkpt lat="47.26817" lon="-1.67121">
        <ele>42.5</ele>
        <time>2020-06-07T13:09:02Z</time>
      </trkpt>
      <trkpt lat="47.26818" lon="-1.67122">
        <ele>42.4</ele>
        <time>2020-06-07T13:09:03Z</time>
      </trkpt>
      <trkpt lat="47.26819" lon="-1.67122">
        <ele>42.4</ele>
        <time>2020-06-07T13:09:04Z</time>
      </trkpt>
      <trkpt lat="47.2682" lon="-1.67122">
        <ele>42.4</ele>
        <time>2020-06-07T13:09:05Z</time>
      </trkpt>
      <trkpt lat="47.26822" lon="-1.67122">
        <ele>42.3</ele>
        <time>2020-06-07T13:09:06Z</time>
      </trkpt>
      <trkpt lat="47.26823" lon="-1.67122">
        <ele>42.3</ele>
        <time>2020-06-07T13:09:07Z</time>
      </trkpt>
      <trkpt lat="47.26824" lon="-1.67123">
        <ele>42.3</ele>
        <time>2020-06-07T13:09:08Z</time>
      </trkpt>
      <trkpt lat="47.26825" lon="-1.67123">
        <ele>42.3</ele>
        <time>2020-06-07T13:09:09Z</time>
      </trkpt>
      <trkpt lat="47.26826" lon="-1.67123">
        <ele>42.2</ele>
        <time>2020-06-07T13:09:10Z</time>
      </trkpt>
      <trkpt lat="47.26827" lon="-1.67124">
        <ele>42.2</ele>
        <time>2020-06-07T13:09:11Z</time>
      </trkpt>
      <trkpt lat="47.26827" lon="-1.67125">
        <ele>42.2</ele>
        <time>2020-06-07T13:09:12Z</time>
      </trkpt>
      <trkpt lat="47.26828" lon="-1.67126">
        <ele>42.1</ele>
        <time>2020-06-07T13:09:13Z</time>
      </trkpt>
      <trkpt lat="47.26829" lon="-1.67126">
        <ele>42.1</ele>
        <time>2020-06-07T13:09:14Z</time>
      </trkpt>
      <trkpt lat="47.26829" lon="-1.67127">
        <ele>42.1</ele>
        <time>2020-06-07T13:09:15Z</time>
      </trkpt>
      <trkpt lat="47.26829" lon="-1.67127">
        <ele>42.1</ele>
        <time>2020-06-07T13:09:16Z</time>
      </trkpt>
      <trkpt lat="47.26829" lon="-1.67126">
        <ele>42.1</ele>
        <time>2020-06-07T13:09:17Z</time>
      </trkpt>
      <trkpt lat="47.2683" lon="-1.67126">
        <ele>42.1</ele>
        <time>2020-06-07T13:09:18Z</time>
      </trkpt>
      <trkpt lat="47.2683" lon="-1.67126">
        <ele>42.1</ele>
        <time>2020-06-07T13:09:19Z</time>
      </trkpt>
      <trkpt lat="47.2683" lon="-1.67126">
        <ele>42.1</ele>
        <time>2020-06-07T13:09:20Z</time>
      </trkpt>
      <trkpt lat="47.2683" lon="-1.67126">
        <ele>42.1</ele>
        <time>2020-06-07T13:09:21Z</time>
      </trkpt>
      <trkpt lat="47.2683" lon="-1.67126">
        <ele>42.1</ele>
        <time>2020-06-07T13:09:22Z</time>
      </trkpt>
      <trkpt lat="47.2683" lon="-1.67126">
        <ele>42.1</ele>
        <time>2020-06-07T13:09:23Z</time>
      </trkpt>
      <trkpt lat="47.2683" lon="-1.67126">
        <ele>42.1</ele>
        <time>2020-06-07T13:09:24Z</time>
      </trkpt>
      <trkpt lat="47.2683" lon="-1.67126">
        <ele>42.1</ele>
        <time>2020-06-07T13:09:25Z</time>
      </trkpt>
      <trkpt lat="47.2683" lon="-1.67129">
        <ele>42.2</ele>
        <time>2020-06-07T13:09:26Z</time>
      </trkpt>
      <trkpt lat="47.2683" lon="-1.67129">
        <ele>42.2</ele>
        <time>2020-06-07T13:09:27Z</time>
      </trkpt>
      <trkpt lat="47.2683" lon="-1.67129">
        <ele>42.2</ele>
        <time>2020-06-07T13:09:28Z</time>
      </trkpt>
      <trkpt lat="47.26828" lon="-1.67139">
        <ele>42.3</ele>
        <time>2020-06-07T13:16:31Z</time>
      </trkpt>
      <trkpt lat="47.26829" lon="-1.67139">
        <ele>42.3</ele>
        <time>2020-06-07T13:16:32Z</time>
      </trkpt>
      <trkpt lat="47.26829" lon="-1.67139">
        <ele>42.3</ele>
        <time>2020-06-07T13:16:33Z</time>
      </trkpt>
      <trkpt lat="47.26829" lon="-1.67139">
        <ele>42.3</ele>
        <time>2020-06-07T13:16:34Z</time>
      </trkpt>
      <trkpt lat="47.2683" lon="-1.6714">
        <ele>42.3</ele>
        <time>2020-06-07T13:16:35Z</time>
      </trkpt>
      <trkpt lat="47.26831" lon="-1.6714">
        <ele>42.3</ele>
        <time>2020-06-07T13:16:36Z</time>
      </trkpt>
      <trkpt lat="47.26831" lon="-1.6714">
        <ele>42.3</ele>
        <time>2020-06-07T13:16:37Z</time>
      </trkpt>
      <trkpt lat="47.26831" lon="-1.6714">
        <ele>42.3</ele>
        <time>2020-06-07T13:16:38Z</time>
      </trkpt>
      <trkpt lat="47.26831" lon="-1.67141">
        <ele>42.3</ele>
        <time>2020-06-07T13:16:39Z</time>
      </trkpt>
      <trkpt lat="47.26832" lon="-1.67141">
        <ele>42.3</ele>
        <time>2020-06-07T13:16:40Z</time>
      </trkpt>
      <trkpt lat="47.26833" lon="-1.6714">
        <ele>42.3</ele>
        <time>2020-06-07T13:16:41Z</time>
      </trkpt>
      <trkpt lat="47.26833" lon="-1.67139">
        <ele>42.3</ele>
        <time>2020-06-07T13:16:42Z</time>
      </trkpt>
      <trkpt lat="47.26834" lon="-1.67139">
        <ele>42.3</ele>
        <time>2020-06-07T13:16:43Z</time>
      </trkpt>
      <trkpt lat="47.26833" lon="-1.67139">
        <ele>42.3</ele>
        <time>2020-06-07T13:16:44Z</time>
      </trkpt>
      <trkpt lat="47.26834" lon="-1.67139">
        <ele>42.3</ele>
        <time>2020-06-07T13:16:45Z</time>
      </trkpt>
      <trkpt lat="47.26834" lon="-1.67139">
        <ele>42.3</ele>
        <time>2020-06-07T13:16:46Z</time>
      </trkpt>
      <trkpt lat="47.26833" lon="-1.67139">
        <ele>42.3</ele>
        <time>2020-06-07T13:16:47Z</time>
      </trkpt>
      <trkpt lat="47.26834" lon="-1.67139">
        <ele>42.3</ele>
        <time>2020-06-07T13:16:48Z</time>
      </trkpt>
      <trkpt lat="47.26834" lon="-1.67139">
        <ele>42.3</ele>
        <time>2020-06-07T13:16:49Z</time>
      </trkpt>
      <trkpt lat="47.26832" lon="-1.6714">
        <ele>42.4</ele>
        <time>2020-06-07T13:16:50Z</time>
      </trkpt>
      <trkpt lat="47.26831" lon="-1.67141">
        <ele>42.4</ele>
        <time>2020-06-07T13:16:51Z</time>
      </trkpt>
      <trkpt lat="47.2683" lon="-1.67142">
        <ele>42.4</ele>
        <time>2020-06-07T13:16:52Z</time>
      </trkpt>
      <trkpt lat="47.26829" lon="-1.67142">
        <ele>42.4</ele>
        <time>2020-06-07T13:16:53Z</time>
      </trkpt>
      <trkpt lat="47.26829" lon="-1.67142">
        <ele>42.4</ele>
        <time>2020-06-07T13:16:54Z</time>
      </trkpt>
      <trkpt lat="47.26829" lon="-1.67141">
        <ele>42.4</ele>
        <time>2020-06-07T13:16:55Z</time>
      </trkpt>
      <trkpt lat="47.26829" lon="-1.6714">
        <ele>42.4</ele>
        <time>2020-06-07T13:16:56Z</time>
      </trkpt>
      <trkpt lat="47.26829" lon="-1.67139">
        <ele>42.4</ele>
        <time>2020-06-07T13:16:57Z</time>
      </trkpt>
      <trkpt lat="47.26829" lon="-1.67138">
        <ele>42.5</ele>
        <time>2020-06-07T13:16:58Z</time>
      </trkpt>
      <trkpt lat="47.26829" lon="-1.67137">
        <ele>42.5</ele>
        <time>2020-06-07T13:16:59Z</time>
      </trkpt>
      <trkpt lat="47.26829" lon="-1.67137">
        <ele>42.5</ele>
        <time>2020-06-07T13:17:00Z</time>
      </trkpt>
      <trkpt lat="47.26829" lon="-1.67137">
        <ele>42.5</ele>
        <time>2020-06-07T13:17:01Z</time>
      </trkpt>
      <trkpt lat="47.26829" lon="-1.67137">
        <ele>42.5</ele>
        <time>2020-06-07T13:17:02Z</time>
      </trkpt>
      <trkpt lat="47.26829" lon="-1.67137">
        <ele>42.5</ele>
        <time>2020-06-07T13:17:03Z</time>
      </trkpt>
      <trkpt lat="47.26829" lon="-1.67135">
        <ele>42.5</ele>
        <time>2020-06-07T13:17:04Z</time>
      </trkpt>
      <trkpt lat="47.2683" lon="-1.67136">
        <ele>42.5</ele>
        <time>2020-06-07T13:17:05Z</time>
      </trkpt>
      <trkpt lat="47.2683" lon="-1.67136">
        <ele>42.5</ele>
        <time>2020-06-07T13:17:06Z</time>
      </trkpt>
      <trkpt lat="47.26829" lon="-1.67136">
        <ele>42.5</ele>
        <time>2020-06-07T13:17:07Z</time>
      </trkpt>
      <trkpt lat="47.26829" lon="-1.67136">
        <ele>42.5</ele>
        <time>2020-06-07T13:17:08Z</time>
      </trkpt>
      <trkpt lat="47.26829" lon="-1.67136">
        <ele>42.5</ele>
        <time>2020-06-07T13:17:09Z</time>
      </trkpt>
      <trkpt lat="47.26829" lon="-1.67136">
        <ele>42.5</ele>
        <time>2020-06-07T13:17:10Z</time>
      </trkpt>
      <trkpt lat="47.26829" lon="-1.67136">
        <ele>42.5</ele>
        <time>2020-06-07T13:17:11Z</time>
      </trkpt>
      <trkpt lat="47.26829" lon="-1.67136">
        <ele>42.5</ele>
        <time>2020-06-07T13:17:12Z</time>
      </trkpt>
      <trkpt lat="47.26829" lon="-1.67136">
        <ele>42.5</ele>
        <time>2020-06-07T13:17:13Z</time>
      </trkpt>
      <trkpt lat="47.26829" lon="-1.67136">
        <ele>42.5</ele>
        <time>2020-06-07T13:17:14Z</time>
      </trkpt>
      <trkpt lat="47.26829" lon="-1.67136">
        <ele>42.5</ele>
        <time>2020-06-07T13:17:15Z</time>
      </trkpt>
      <trkpt lat="47.26829" lon="-1.67136">
        <ele>42.5</ele>
        <time>2020-06-07T13:17:16Z</time>
      </trkpt>
      <trkpt lat="47.26829" lon="-1.67136">
        <ele>42.5</ele>
        <time>2020-06-07T13:17:17Z</time>
      </trkpt>
      <trkpt lat="47.26829" lon="-1.67136">
        <ele>42.5</ele>
        <time>2020-06-07T13:17:18Z</time>
      </trkpt>
      <trkpt lat="47.26829" lon="-1.67136">
        <ele>42.5</ele>
        <time>2020-06-07T13:17:19Z</time>
      </trkpt>
      <trkpt lat="47.26829" lon="-1.67136">
        <ele>42.5</ele>
        <time>2020-06-07T13:17:20Z</time>
      </trkpt>
      <trkpt lat="47.26823" lon="-1.67127">
        <ele>42.6</ele>
        <time>2020-06-07T13:19:04Z</time>
      </trkpt>
      <trkpt lat="47.26822" lon="-1.67128">
        <ele>42.6</ele>
        <time>2020-06-07T13:19:05Z</time>
      </trkpt>
      <trkpt lat="47.26822" lon="-1.67128">
        <ele>42.6</ele>
        <time>2020-06-07T13:19:06Z</time>
      </trkpt>
      <trkpt lat="47.26822" lon="-1.67129">
        <ele>42.6</ele>
        <time>2020-06-07T13:19:07Z</time>
      </trkpt>
      <trkpt lat="47.26821" lon="-1.67129">
        <ele>42.6</ele>
        <time>2020-06-07T13:19:08Z</time>
      </trkpt>
      <trkpt lat="47.26821" lon="-1.6713">
        <ele>42.6</ele>
        <time>2020-06-07T13:19:09Z</time>
      </trkpt>
      <trkpt lat="47.26821" lon="-1.6713">
        <ele>42.7</ele>
        <time>2020-06-07T13:19:10Z</time>
      </trkpt>
      <trkpt lat="47.2682" lon="-1.6713">
        <ele>42.7</ele>
        <time>2020-06-07T13:19:11Z</time>
      </trkpt>
      <trkpt lat="47.26819" lon="-1.6713">
        <ele>42.7</ele>
        <time>2020-06-07T13:19:12Z</time>
      </trkpt>
      <trkpt lat="47.26819" lon="-1.6713">
        <ele>42.7</ele>
        <time>2020-06-07T13:19:13Z</time>
      </trkpt>
      <trkpt lat="47.26818" lon="-1.6713">
        <ele>42.7</ele>
        <time>2020-06-07T13:19:14Z</time>
      </trkpt>
      <trkpt lat="47.26818" lon="-1.6713">
        <ele>42.7</ele>
        <time>2020-06-07T13:19:15Z</time>
      </trkpt>
      <trkpt lat="47.26818" lon="-1.67129">
        <ele>42.7</ele>
        <time>2020-06-07T13:19:16Z</time>
      </trkpt>
      <trkpt lat="47.26817" lon="-1.67129">
        <ele>42.7</ele>
        <time>2020-06-07T13:19:17Z</time>
      </trkpt>
      <trkpt lat="47.26817" lon="-1.67128">
        <ele>42.7</ele>
        <time>2020-06-07T13:19:18Z</time>
      </trkpt>
      <trkpt lat="47.26816" lon="-1.67128">
        <ele>42.7</ele>
        <time>2020-06-07T13:19:19Z</time>
      </trkpt>
      <trkpt lat="47.26816" lon="-1.67127">
        <ele>42.7</ele>
        <time>2020-06-07T13:19:20Z</time>
      </trkpt>
      <trkpt lat="47.26815" lon="-1.67126">
        <ele>42.7</ele>
        <time>2020-06-07T13:19:21Z</time>
      </trkpt>
      <trkpt lat="47.26814" lon="-1.67126">
        <ele>42.7</ele>
        <time>2020-06-07T13:19:22Z</time>
      </trkpt>
      <trkpt lat="47.26814" lon="-1.67126">
        <ele>42.8</ele>
        <time>2020-06-07T13:19:23Z</time>
      </trkpt>
      <trkpt lat="47.26813" lon="-1.67126">
        <ele>42.8</ele>
        <time>2020-06-07T13:19:24Z</time>
      </trkpt>
      <trkpt lat="47.26812" lon="-1.67126">
        <ele>42.8</ele>
        <time>2020-06-07T13:19:25Z</time>
      </trkpt>
      <trkpt lat="47.26812" lon="-1.67126">
        <ele>42.8</ele>
        <time>2020-06-07T13:19:26Z</time>
      </trkpt>
      <trkpt lat="47.26811" lon="-1.67125">
        <ele>42.8</ele>
        <time>2020-06-07T13:19:27Z</time>
      </trkpt>
      <trkpt lat="47.2681" lon="-1.67125">
        <ele>42.8</ele>
        <time>2020-06-07T13:19:28Z</time>
      </trkpt>
      <trkpt lat="47.26809" lon="-1.67125">
        <ele>42.8</ele>
        <time>2020-06-07T13:19:29Z</time>
      </trkpt>
      <trkpt lat="47.26808" lon="-1.67125">
        <ele>42.8</ele>
        <time>2020-06-07T13:19:30Z</time>
      </trkpt>
      <trkpt lat="47.26807" lon="-1.67125">
        <ele>42.8</ele>
        <time>2020-06-07T13:19:31Z</time>
      </trkpt>
      <trkpt lat="47.26806" lon="-1.67125">
        <ele>42.9</ele>
        <time>2020-06-07T13:19:32Z</time>
      </trkpt>
      <trkpt lat="47.26805" lon="-1.67125">
        <ele>42.9</ele>
        <time>2020-06-07T13:19:33Z</time>
      </trkpt>
      <trkpt lat="47.26804" lon="-1.67125">
        <ele>42.9</ele>
        <time>2020-06-07T13:19:34Z</time>
      </trkpt>
      <trkpt lat="47.26803" lon="-1.67126">
        <ele>42.9</ele>
        <time>2020-06-07T13:19:35Z</time>
      </trkpt>
      <trkpt lat="47.26802" lon="-1.67126">
        <ele>42.9</ele>
        <time>2020-06-07T13:19:36Z</time>
      </trkpt>
      <trkpt lat="47.26801" lon="-1.67127">
        <ele>42.8</ele>
        <time>2020-06-07T13:19:37Z</time>
      </trkpt>
      <trkpt lat="47.268" lon="-1.67128">
        <ele>42.8</ele>
        <time>2020-06-07T13:19:38Z</time>
      </trkpt>
      <trkpt lat="47.268" lon="-1.67128">
        <ele>42.7</ele>
        <time>2020-06-07T13:19:39Z</time>
      </trkpt>
      <trkpt lat="47.26799" lon="-1.67129">
        <ele>42.7</ele>
        <time>2020-06-07T13:19:40Z</time>
      </trkpt>
      <trkpt lat="47.26799" lon="-1.67129">
        <ele>42.7</ele>
        <time>2020-06-07T13:19:41Z</time>
      </trkpt>
      <trkpt lat="47.26798" lon="-1.67129">
        <ele>42.7</ele>
        <time>2020-06-07T13:19:42Z</time>
      </trkpt>
      <trkpt lat="47.26797" lon="-1.6713">
        <ele>42.7</ele>
        <time>2020-06-07T13:19:43Z</time>
      </trkpt>
      <trkpt lat="47.26797" lon="-1.67129">
        <ele>42.7</ele>
        <time>2020-06-07T13:19:44Z</time>
      </trkpt>
      <trkpt lat="47.26796" lon="-1.67129">
        <ele>42.7</ele>
        <time>2020-06-07T13:19:45Z</time>
      </trkpt>
      <trkpt lat="47.26795" lon="-1.6713">
        <ele>42.6</ele>
        <time>2020-06-07T13:19:46Z</time>
      </trkpt>
      <trkpt lat="47.26794" lon="-1.6713">
        <ele>42.6</ele>
        <time>2020-06-07T13:19:47Z</time>
      </trkpt>
      <trkpt lat="47.26793" lon="-1.67131">
        <ele>42.6</ele>
        <time>2020-06-07T13:19:48Z</time>
      </trkpt>
      <trkpt lat="47.26793" lon="-1.67132">
        <ele>42.6</ele>
        <time>2020-06-07T13:19:49Z</time>
      </trkpt>
      <trkpt lat="47.26792" lon="-1.67133">
        <ele>42.6</ele>
        <time>2020-06-07T13:19:50Z</time>
      </trkpt>
      <trkpt lat="47.26792" lon="-1.67134">
        <ele>42.6</ele>
        <time>2020-06-07T13:19:51Z</time>
      </trkpt>
      <trkpt lat="47.26792" lon="-1.67134">
        <ele>42.6</ele>
        <time>2020-06-07T13:19:52Z</time>
      </trkpt>
      <trkpt lat="47.26792" lon="-1.67134">
        <ele>42.6</ele>
        <time>2020-06-07T13:19:53Z</time>
      </trkpt>
      <trkpt lat="47.26792" lon="-1.67134">
        <ele>42.6</ele>
        <time>2020-06-07T13:19:54Z</time>
      </trkpt>
      <trkpt lat="47.26793" lon="-1.67134">
        <ele>42.5</ele>
        <time>2020-06-07T13:19:55Z</time>
      </trkpt>
      <trkpt lat="47.26793" lon="-1.67134">
        <ele>42.5</ele>
        <time>2020-06-07T13:19:56Z</time>
      </trkpt>
      <trkpt lat="47.26793" lon="-1.67134">
        <ele>42.5</ele>
        <time>2020-06-07T13:19:57Z</time>
      </trkpt>
      <trkpt lat="47.26793" lon="-1.67134">
        <ele>42.5</ele>
        <time>2020-06-07T13:19:58Z</time>
      </trkpt>
      <trkpt lat="47.26793" lon="-1.67134">
        <ele>42.5</ele>
        <time>2020-06-07T13:19:59Z</time>
      </trkpt>
      <trkpt lat="47.26793" lon="-1.67134">
        <ele>42.5</ele>
        <time>2020-06-07T13:20:00Z</time>
      </trkpt>
      <trkpt lat="47.26793" lon="-1.67134">
        <ele>42.5</ele>
        <time>2020-06-07T13:20:01Z</time>
      </trkpt>
      <trkpt lat="47.26796" lon="-1.67136">
        <ele>41.5</ele>
        <time>2020-06-07T13:20:24Z</time>
      </trkpt>
      <trkpt lat="47.26796" lon="-1.67137">
        <ele>41.4</ele>
        <time>2020-06-07T13:20:25Z</time>
      </trkpt>
      <trkpt lat="47.26797" lon="-1.67138">
        <ele>41.3</ele>
        <time>2020-06-07T13:20:26Z</time>
      </trkpt>
      <trkpt lat="47.26798" lon="-1.67139">
        <ele>41.3</ele>
        <time>2020-06-07T13:20:27Z</time>
      </trkpt>
      <trkpt lat="47.26799" lon="-1.67139">
        <ele>41.2</ele>
        <time>2020-06-07T13:20:28Z</time>
      </trkpt>
      <trkpt lat="47.268" lon="-1.6714">
        <ele>41.1</ele>
        <time>2020-06-07T13:20:29Z</time>
      </trkpt>
      <trkpt lat="47.26801" lon="-1.67141">
        <ele>41</ele>
        <time>2020-06-07T13:20:30Z</time>
      </trkpt>
      <trkpt lat="47.26801" lon="-1.67142">
        <ele>41</ele>
        <time>2020-06-07T13:20:31Z</time>
      </trkpt>
      <trkpt lat="47.26802" lon="-1.67142">
        <ele>40.9</ele>
        <time>2020-06-07T13:20:32Z</time>
      </trkpt>
      <trkpt lat="47.26802" lon="-1.67142">
        <ele>40.9</ele>
        <time>2020-06-07T13:20:33Z</time>
      </trkpt>
      <trkpt lat="47.26803" lon="-1.67143">
        <ele>40.8</ele>
        <time>2020-06-07T13:20:34Z</time>
      </trkpt>
      <trkpt lat="47.26804" lon="-1.67144">
        <ele>40.5</ele>
        <time>2020-06-07T13:20:35Z</time>
      </trkpt>
      <trkpt lat="47.26805" lon="-1.67144">
        <ele>40.4</ele>
        <time>2020-06-07T13:20:36Z</time>
      </trkpt>
      <trkpt lat="47.26806" lon="-1.67145">
        <ele>40.4</ele>
        <time>2020-06-07T13:20:37Z</time>
      </trkpt>
      <trkpt lat="47.26807" lon="-1.67145">
        <ele>40.3</ele>
        <time>2020-06-07T13:20:38Z</time>
      </trkpt>
      <trkpt lat="47.26808" lon="-1.67146">
        <ele>40.2</ele>
        <time>2020-06-07T13:20:39Z</time>
      </trkpt>
      <trkpt lat="47.26809" lon="-1.67146">
        <ele>40.2</ele>
        <time>2020-06-07T13:20:40Z</time>
      </trkpt>
      <trkpt lat="47.2681" lon="-1.67146">
        <ele>40.1</ele>
        <time>2020-06-07T13:20:41Z</time>
      </trkpt>
      <trkpt lat="47.26811" lon="-1.67145">
        <ele>40</ele>
        <time>2020-06-07T13:20:42Z</time>
      </trkpt>
      <trkpt lat="47.26812" lon="-1.67145">
        <ele>40</ele>
        <time>2020-06-07T13:20:43Z</time>
      </trkpt>
      <trkpt lat="47.26812" lon="-1.67145">
        <ele>39.9</ele>
        <time>2020-06-07T13:20:44Z</time>
      </trkpt>
      <trkpt lat="47.26813" lon="-1.67145">
        <ele>39.9</ele>
        <time>2020-06-07T13:20:45Z</time>
      </trkpt>
      <trkpt lat="47.26814" lon="-1.67145">
        <ele>39.9</ele>
        <time>2020-06-07T13:20:46Z</time>
      </trkpt>
      <trkpt lat="47.26815" lon="-1.67145">
        <ele>39.8</ele>
        <time>2020-06-07T13:20:47Z</time>
      </trkpt>
      <trkpt lat="47.26816" lon="-1.67145">
        <ele>39.7</ele>
        <time>2020-06-07T13:20:48Z</time>
      </trkpt>
      <trkpt lat="47.26817" lon="-1.67145">
        <ele>39.6</ele>
        <time>2020-06-07T13:20:49Z</time>
      </trkpt>
      <trkpt lat="47.26818" lon="-1.67146">
        <ele>39.5</ele>
        <time>2020-06-07T13:20:50Z</time>
      </trkpt>
      <trkpt lat="47.26819" lon="-1.67146">
        <ele>39.5</ele>
        <time>2020-06-07T13:20:51Z</time>
      </trkpt>
      <trkpt lat="47.2682" lon="-1.67145">
        <ele>39.4</ele>
        <time>2020-06-07T13:20:52Z</time>
      </trkpt>
      <trkpt lat="47.26821" lon="-1.67145">
        <ele>39.4</ele>
        <time>2020-06-07T13:20:53Z</time>
      </trkpt>
      <trkpt lat="47.26822" lon="-1.67145">
        <ele>39.3</ele>
        <time>2020-06-07T13:20:54Z</time>
      </trkpt>
      <trkpt lat="47.26822" lon="-1.67145">
        <ele>39.3</ele>
        <time>2020-06-07T13:20:55Z</time>
      </trkpt>
      <trkpt lat="47.26823" lon="-1.67145">
        <ele>39.2</ele>
        <time>2020-06-07T13:20:56Z</time>
      </trkpt>
      <trkpt lat="47.26823" lon="-1.67145">
        <ele>39.2</ele>
        <time>2020-06-07T13:20:57Z</time>
      </trkpt>
      <trkpt lat="47.26824" lon="-1.67146">
        <ele>39</ele>
        <time>2020-06-07T13:20:58Z</time>
      </trkpt>
      <trkpt lat="47.26824" lon="-1.67147">
        <ele>39</ele>
        <time>2020-06-07T13:20:59Z</time>
      </trkpt>
      <trkpt lat="47.26826" lon="-1.67148">
        <ele>39</ele>
        <time>2020-06-07T13:21:00Z</time>
      </trkpt>
      <trkpt lat="47.26826" lon="-1.67149">
        <ele>39</ele>
        <time>2020-06-07T13:21:01Z</time>
      </trkpt>
      <trkpt lat="47.26827" lon="-1.67149">
        <ele>38.9</ele>
        <time>2020-06-07T13:21:02Z</time>
      </trkpt>
      <trkpt lat="47.26828" lon="-1.6715">
        <ele>38.9</ele>
        <time>2020-06-07T13:21:03Z</time>
      </trkpt>
      <trkpt lat="47.26829" lon="-1.6715">
        <ele>38.9</ele>
        <time>2020-06-07T13:21:04Z</time>
      </trkpt>
      <trkpt lat="47.2683" lon="-1.67151">
        <ele>38.9</ele>
        <time>2020-06-07T13:21:05Z</time>
      </trkpt>
      <trkpt lat="47.26831" lon="-1.67151">
        <ele>38.9</ele>
        <time>2020-06-07T13:21:06Z</time>
      </trkpt>
      <trkpt lat="47.26832" lon="-1.6715">
        <ele>38.8</ele>
        <time>2020-06-07T13:21:07Z</time>
      </trkpt>
      <trkpt lat="47.26833" lon="-1.6715">
        <ele>38.8</ele>
        <time>2020-06-07T13:21:08Z</time>
      </trkpt>
      <trkpt lat="47.26834" lon="-1.6715">
        <ele>38.8</ele>
        <time>2020-06-07T13:21:09Z</time>
      </trkpt>
      <trkpt lat="47.26835" lon="-1.6715">
        <ele>38.8</ele>
        <time>2020-06-07T13:21:10Z</time>
      </trkpt>
      <trkpt lat="47.26837" lon="-1.67149">
        <ele>38.8</ele>
        <time>2020-06-07T13:21:11Z</time>
      </trkpt>
      <trkpt lat="47.26838" lon="-1.67148">
        <ele>38.7</ele>
        <time>2020-06-07T13:21:12Z</time>
      </trkpt>
      <trkpt lat="47.2684" lon="-1.67148">
        <ele>38.7</ele>
        <time>2020-06-07T13:21:13Z</time>
      </trkpt>
      <trkpt lat="47.26841" lon="-1.67147">
        <ele>38.7</ele>
        <time>2020-06-07T13:21:14Z</time>
      </trkpt>
      <trkpt lat="47.26843" lon="-1.67147">
        <ele>39</ele>
        <time>2020-06-07T13:21:15Z</time>
      </trkpt>
      <trkpt lat="47.26844" lon="-1.67147">
        <ele>39.1</ele>
        <time>2020-06-07T13:21:16Z</time>
      </trkpt>
      <trkpt lat="47.26844" lon="-1.67147">
        <ele>39.1</ele>
        <time>2020-06-07T13:21:17Z</time>
      </trkpt>
      <trkpt lat="47.26845" lon="-1.67148">
        <ele>39.2</ele>
        <time>2020-06-07T13:21:18Z</time>
      </trkpt>
      <trkpt lat="47.26846" lon="-1.67149">
        <ele>39.2</ele>
        <time>2020-06-07T13:21:19Z</time>
      </trkpt>
      <trkpt lat="47.26846" lon="-1.67149">
        <ele>39.3</ele>
        <time>2020-06-07T13:21:20Z</time>
      </trkpt>
      <trkpt lat="47.26847" lon="-1.6715">
        <ele>39.3</ele>
        <time>2020-06-07T13:21:21Z</time>
      </trkpt>
      <trkpt lat="47.26848" lon="-1.67151">
        <ele>39.4</ele>
        <time>2020-06-07T13:21:22Z</time>
      </trkpt>
      <trkpt lat="47.26849" lon="-1.67151">
        <ele>39.5</ele>
        <time>2020-06-07T13:21:23Z</time>
      </trkpt>
      <trkpt lat="47.2685" lon="-1.67152">
        <ele>39.6</ele>
        <time>2020-06-07T13:21:24Z</time>
      </trkpt>
      <trkpt lat="47.26851" lon="-1.67153">
        <ele>39.6</ele>
        <time>2020-06-07T13:21:25Z</time>
      </trkpt>
      <trkpt lat="47.26852" lon="-1.67153">
        <ele>39.7</ele>
        <time>2020-06-07T13:21:26Z</time>
      </trkpt>
      <trkpt lat="47.26853" lon="-1.67153">
        <ele>39.8</ele>
        <time>2020-06-07T13:21:27Z</time>
      </trkpt>
      <trkpt lat="47.26854" lon="-1.67153">
        <ele>39.8</ele>
        <time>2020-06-07T13:21:28Z</time>
      </trkpt>
      <trkpt lat="47.26855" lon="-1.67153">
        <ele>39.9</ele>
        <time>2020-06-07T13:21:29Z</time>
      </trkpt>
      <trkpt lat="47.26856" lon="-1.67154">
        <ele>39.9</ele>
        <time>2020-06-07T13:21:30Z</time>
      </trkpt>
      <trkpt lat="47.26857" lon="-1.67154">
        <ele>40</ele>
        <time>2020-06-07T13:21:31Z</time>
      </trkpt>
      <trkpt lat="47.26858" lon="-1.67155">
        <ele>40</ele>
        <time>2020-06-07T13:21:32Z</time>
      </trkpt>
      <trkpt lat="47.26858" lon="-1.67155">
        <ele>40.1</ele>
        <time>2020-06-07T13:21:33Z</time>
      </trkpt>
      <trkpt lat="47.26859" lon="-1.67156">
        <ele>39.9</ele>
        <time>2020-06-07T13:21:34Z</time>
      </trkpt>
      <trkpt lat="47.2686" lon="-1.67156">
        <ele>39.9</ele>
        <time>2020-06-07T13:21:35Z</time>
      </trkpt>
      <trkpt lat="47.26861" lon="-1.67157">
        <ele>39.9</ele>
        <time>2020-06-07T13:21:36Z</time>
      </trkpt>
      <trkpt lat="47.26861" lon="-1.67158">
        <ele>39.9</ele>
        <time>2020-06-07T13:21:37Z</time>
      </trkpt>
      <trkpt lat="47.26862" lon="-1.67158">
        <ele>39.8</ele>
        <time>2020-06-07T13:21:38Z</time>
      </trkpt>
      <trkpt lat="47.26863" lon="-1.67159">
        <ele>39.8</ele>
        <time>2020-06-07T13:21:39Z</time>
      </trkpt>
      <trkpt lat="47.26863" lon="-1.6716">
        <ele>39.8</ele>
        <time>2020-06-07T13:21:40Z</time>
      </trkpt>
      <trkpt lat="47.26864" lon="-1.67161">
        <ele>39.8</ele>
        <time>2020-06-07T13:21:41Z</time>
      </trkpt>
      <trkpt lat="47.26865" lon="-1.67162">
        <ele>39.8</ele>
        <time>2020-06-07T13:21:42Z</time>
      </trkpt>
      <trkpt lat="47.26866" lon="-1.67163">
        <ele>39.7</ele>
        <time>2020-06-07T13:21:43Z</time>
      </trkpt>
      <trkpt lat="47.26867" lon="-1.67164">
        <ele>39.7</ele>
        <time>2020-06-07T13:21:44Z</time>
      </trkpt>
      <trkpt lat="47.26867" lon="-1.67164">
        <ele>39.7</ele>
        <time>2020-06-07T13:21:45Z</time>
      </trkpt>
      <trkpt lat="47.26868" lon="-1.67165">
        <ele>39.7</ele>
        <time>2020-06-07T13:21:46Z</time>
      </trkpt>
      <trkpt lat="47.26869" lon="-1.67166">
        <ele>39.7</ele>
        <time>2020-06-07T13:21:47Z</time>
      </trkpt>
      <trkpt lat="47.2687" lon="-1.67167">
        <ele>39.7</ele>
        <time>2020-06-07T13:21:48Z</time>
      </trkpt>
      <trkpt lat="47.26871" lon="-1.67168">
        <ele>39.7</ele>
        <time>2020-06-07T13:21:49Z</time>
      </trkpt>
      <trkpt lat="47.26872" lon="-1.67169">
        <ele>39.7</ele>
        <time>2020-06-07T13:21:50Z</time>
      </trkpt>
      <trkpt lat="47.26872" lon="-1.6717">
        <ele>39.7</ele>
        <time>2020-06-07T13:21:51Z</time>
      </trkpt>
      <trkpt lat="47.26873" lon="-1.6717">
        <ele>39.7</ele>
        <time>2020-06-07T13:21:52Z</time>
      </trkpt>
      <trkpt lat="47.26873" lon="-1.6717">
        <ele>39.7</ele>
        <time>2020-06-07T13:21:53Z</time>
      </trkpt>
      <trkpt lat="47.26874" lon="-1.67171">
        <ele>39.7</ele>
        <time>2020-06-07T13:21:54Z</time>
      </trkpt>
      <trkpt lat="47.26874" lon="-1.67171">
        <ele>39.6</ele>
        <time>2020-06-07T13:21:55Z</time>
      </trkpt>
      <trkpt lat="47.26875" lon="-1.67172">
        <ele>39.6</ele>
        <time>2020-06-07T13:21:56Z</time>
      </trkpt>
      <trkpt lat="47.26875" lon="-1.67173">
        <ele>39.6</ele>
        <time>2020-06-07T13:21:57Z</time>
      </trkpt>
      <trkpt lat="47.26875" lon="-1.67174">
        <ele>39.6</ele>
        <time>2020-06-07T13:21:58Z</time>
      </trkpt>
      <trkpt lat="47.26875" lon="-1.67174">
        <ele>39.6</ele>
        <time>2020-06-07T13:21:59Z</time>
      </trkpt>
      <trkpt lat="47.26876" lon="-1.67175">
        <ele>39.6</ele>
        <time>2020-06-07T13:22:00Z</time>
      </trkpt>
      <trkpt lat="47.26876" lon="-1.67175">
        <ele>39.6</ele>
        <time>2020-06-07T13:22:01Z</time>
      </trkpt>
      <trkpt lat="47.26876" lon="-1.67176">
        <ele>39.6</ele>
        <time>2020-06-07T13:22:02Z</time>
      </trkpt>
      <trkpt lat="47.26877" lon="-1.67176">
        <ele>39.6</ele>
        <time>2020-06-07T13:22:03Z</time>
      </trkpt>
      <trkpt lat="47.26878" lon="-1.67177">
        <ele>39.6</ele>
        <time>2020-06-07T13:22:04Z</time>
      </trkpt>
      <trkpt lat="47.26879" lon="-1.67177">
        <ele>39.6</ele>
        <time>2020-06-07T13:22:05Z</time>
      </trkpt>
      <trkpt lat="47.2688" lon="-1.67177">
        <ele>39.6</ele>
        <time>2020-06-07T13:22:06Z</time>
      </trkpt>
      <trkpt lat="47.26881" lon="-1.67178">
        <ele>39.6</ele>
        <time>2020-06-07T13:22:07Z</time>
      </trkpt>
      <trkpt lat="47.26883" lon="-1.67178">
        <ele>39.6</ele>
        <time>2020-06-07T13:22:08Z</time>
      </trkpt>
      <trkpt lat="47.26884" lon="-1.67177">
        <ele>39.5</ele>
        <time>2020-06-07T13:22:09Z</time>
      </trkpt>
      <trkpt lat="47.26885" lon="-1.67177">
        <ele>39.5</ele>
        <time>2020-06-07T13:22:10Z</time>
      </trkpt>
      <trkpt lat="47.26885" lon="-1.67177">
        <ele>39.5</ele>
        <time>2020-06-07T13:22:11Z</time>
      </trkpt>
      <trkpt lat="47.26886" lon="-1.67177">
        <ele>39.5</ele>
        <time>2020-06-07T13:22:12Z</time>
      </trkpt>
      <trkpt lat="47.26886" lon="-1.67178">
        <ele>39.5</ele>
        <time>2020-06-07T13:22:13Z</time>
      </trkpt>
      <trkpt lat="47.26887" lon="-1.67178">
        <ele>39.5</ele>
        <time>2020-06-07T13:22:14Z</time>
      </trkpt>
      <trkpt lat="47.26887" lon="-1.67179">
        <ele>39.5</ele>
        <time>2020-06-07T13:22:15Z</time>
      </trkpt>
      <trkpt lat="47.26887" lon="-1.67179">
        <ele>39.5</ele>
        <time>2020-06-07T13:22:16Z</time>
      </trkpt>
      <trkpt lat="47.26887" lon="-1.67179">
        <ele>39.5</ele>
        <time>2020-06-07T13:22:17Z</time>
      </trkpt>
      <trkpt lat="47.26887" lon="-1.67179">
        <ele>39.5</ele>
        <time>2020-06-07T13:22:18Z</time>
      </trkpt>
      <trkpt lat="47.26887" lon="-1.67179">
        <ele>39.5</ele>
        <time>2020-06-07T13:22:19Z</time>
      </trkpt>
      <trkpt lat="47.26887" lon="-1.67179">
        <ele>39.5</ele>
        <time>2020-06-07T13:22:20Z</time>
      </trkpt>
      <trkpt lat="47.26887" lon="-1.67179">
        <ele>39.5</ele>
        <time>2020-06-07T13:22:21Z</time>
      </trkpt>
      <trkpt lat="47.26887" lon="-1.67179">
        <ele>39.5</ele>
        <time>2020-06-07T13:22:22Z</time>
      </trkpt>
      <trkpt lat="47.26886" lon="-1.67179">
        <ele>39.5</ele>
        <time>2020-06-07T13:22:23Z</time>
      </trkpt>
      <trkpt lat="47.26886" lon="-1.67179">
        <ele>39.5</ele>
        <time>2020-06-07T13:22:24Z</time>
      </trkpt>
      <trkpt lat="47.26885" lon="-1.6718">
        <ele>39.5</ele>
        <time>2020-06-07T13:22:25Z</time>
      </trkpt>
      <trkpt lat="47.26885" lon="-1.6718">
        <ele>39.5</ele>
        <time>2020-06-07T13:22:26Z</time>
      </trkpt>
      <trkpt lat="47.26885" lon="-1.6718">
        <ele>39.5</ele>
        <time>2020-06-07T13:22:27Z</time>
      </trkpt>
      <trkpt lat="47.26885" lon="-1.6718">
        <ele>39.5</ele>
        <time>2020-06-07T13:22:28Z</time>
      </trkpt>
      <trkpt lat="47.26884" lon="-1.67181">
        <ele>39.5</ele>
        <time>2020-06-07T13:22:29Z</time>
      </trkpt>
      <trkpt lat="47.26884" lon="-1.67183">
        <ele>39.5</ele>
        <time>2020-06-07T13:22:30Z</time>
      </trkpt>
      <trkpt lat="47.26885" lon="-1.67184">
        <ele>39.5</ele>
        <time>2020-06-07T13:22:31Z</time>
      </trkpt>
      <trkpt lat="47.26886" lon="-1.67185">
        <ele>39.5</ele>
        <time>2020-06-07T13:22:32Z</time>
      </trkpt>
      <trkpt lat="47.26887" lon="-1.67186">
        <ele>39.5</ele>
        <time>2020-06-07T13:22:33Z</time>
      </trkpt>
      <trkpt lat="47.26887" lon="-1.67187">
        <ele>39.5</ele>
        <time>2020-06-07T13:22:34Z</time>
      </trkpt>
      <trkpt lat="47.26888" lon="-1.67188">
        <ele>39.5</ele>
        <time>2020-06-07T13:22:35Z</time>
      </trkpt>
      <trkpt lat="47.26888" lon="-1.67189">
        <ele>39.5</ele>
        <time>2020-06-07T13:22:36Z</time>
      </trkpt>
      <trkpt lat="47.26888" lon="-1.67189">
        <ele>39.5</ele>
        <time>2020-06-07T13:22:37Z</time>
      </trkpt>
      <trkpt lat="47.26889" lon="-1.6719">
        <ele>39.5</ele>
        <time>2020-06-07T13:22:38Z</time>
      </trkpt>
      <trkpt lat="47.26889" lon="-1.67191">
        <ele>39.5</ele>
        <time>2020-06-07T13:22:39Z</time>
      </trkpt>
      <trkpt lat="47.2689" lon="-1.67191">
        <ele>39.5</ele>
        <time>2020-06-07T13:22:40Z</time>
      </trkpt>
      <trkpt lat="47.26891" lon="-1.67192">
        <ele>39.5</ele>
        <time>2020-06-07T13:22:41Z</time>
      </trkpt>
      <trkpt lat="47.26892" lon="-1.67192">
        <ele>39.5</ele>
        <time>2020-06-07T13:22:42Z</time>
      </trkpt>
      <trkpt lat="47.26892" lon="-1.67192">
        <ele>39.5</ele>
        <time>2020-06-07T13:22:43Z</time>
      </trkpt>
      <trkpt lat="47.26893" lon="-1.67193">
        <ele>39.5</ele>
        <time>2020-06-07T13:22:44Z</time>
      </trkpt>
      <trkpt lat="47.26895" lon="-1.67193">
        <ele>39.6</ele>
        <time>2020-06-07T13:22:45Z</time>
      </trkpt>
      <trkpt lat="47.26896" lon="-1.67193">
        <ele>39.6</ele>
        <time>2020-06-07T13:22:46Z</time>
      </trkpt>
      <trkpt lat="47.26897" lon="-1.67193">
        <ele>39.6</ele>
        <time>2020-06-07T13:22:47Z</time>
      </trkpt>
      <trkpt lat="47.26897" lon="-1.67193">
        <ele>39.6</ele>
        <time>2020-06-07T13:22:48Z</time>
      </trkpt>
      <trkpt lat="47.26899" lon="-1.67193">
        <ele>39.6</ele>
        <time>2020-06-07T13:22:49Z</time>
      </trkpt>
      <trkpt lat="47.269" lon="-1.67193">
        <ele>39.6</ele>
        <time>2020-06-07T13:22:50Z</time>
      </trkpt>
      <trkpt lat="47.26901" lon="-1.67193">
        <ele>39.6</ele>
        <time>2020-06-07T13:22:51Z</time>
      </trkpt>
      <trkpt lat="47.26903" lon="-1.67194">
        <ele>39.7</ele>
        <time>2020-06-07T13:22:52Z</time>
      </trkpt>
      <trkpt lat="47.26904" lon="-1.67194">
        <ele>39.7</ele>
        <time>2020-06-07T13:22:53Z</time>
      </trkpt>
      <trkpt lat="47.26905" lon="-1.67194">
        <ele>39.7</ele>
        <time>2020-06-07T13:22:54Z</time>
      </trkpt>
      <trkpt lat="47.26907" lon="-1.67194">
        <ele>39.7</ele>
        <time>2020-06-07T13:22:55Z</time>
      </trkpt>
      <trkpt lat="47.26908" lon="-1.67194">
        <ele>39.7</ele>
        <time>2020-06-07T13:22:56Z</time>
      </trkpt>
      <trkpt lat="47.26909" lon="-1.67194">
        <ele>39.7</ele>
        <time>2020-06-07T13:22:57Z</time>
      </trkpt>
      <trkpt lat="47.2691" lon="-1.67194">
        <ele>39.8</ele>
        <time>2020-06-07T13:22:58Z</time>
      </trkpt>
      <trkpt lat="47.26911" lon="-1.67194">
        <ele>39.8</ele>
        <time>2020-06-07T13:22:59Z</time>
      </trkpt>
      <trkpt lat="47.26913" lon="-1.67194">
        <ele>39.8</ele>
        <time>2020-06-07T13:23:00Z</time>
      </trkpt>
      <trkpt lat="47.26913" lon="-1.67194">
        <ele>39.8</ele>
        <time>2020-06-07T13:23:01Z</time>
      </trkpt>
      <trkpt lat="47.26914" lon="-1.67193">
        <ele>39.8</ele>
        <time>2020-06-07T13:23:02Z</time>
      </trkpt>
      <trkpt lat="47.26916" lon="-1.67194">
        <ele>39.8</ele>
        <time>2020-06-07T13:23:03Z</time>
      </trkpt>
      <trkpt lat="47.26917" lon="-1.67193">
        <ele>39.8</ele>
        <time>2020-06-07T13:23:04Z</time>
      </trkpt>
      <trkpt lat="47.26918" lon="-1.67193">
        <ele>39.8</ele>
        <time>2020-06-07T13:23:05Z</time>
      </trkpt>
      <trkpt lat="47.2692" lon="-1.67194">
        <ele>39.8</ele>
        <time>2020-06-07T13:23:06Z</time>
      </trkpt>
      <trkpt lat="47.26921" lon="-1.67195">
        <ele>39.8</ele>
        <time>2020-06-07T13:23:07Z</time>
      </trkpt>
      <trkpt lat="47.26922" lon="-1.67195">
        <ele>39.8</ele>
        <time>2020-06-07T13:23:08Z</time>
      </trkpt>
      <trkpt lat="47.26923" lon="-1.67196">
        <ele>39.8</ele>
        <time>2020-06-07T13:23:09Z</time>
      </trkpt>
      <trkpt lat="47.26924" lon="-1.67197">
        <ele>39.8</ele>
        <time>2020-06-07T13:23:10Z</time>
      </trkpt>
      <trkpt lat="47.26925" lon="-1.67198">
        <ele>39.8</ele>
        <time>2020-06-07T13:23:11Z</time>
      </trkpt>
      <trkpt lat="47.26925" lon="-1.67198">
        <ele>39.8</ele>
        <time>2020-06-07T13:23:12Z</time>
      </trkpt>
      <trkpt lat="47.26926" lon="-1.67198">
        <ele>39.8</ele>
        <time>2020-06-07T13:23:13Z</time>
      </trkpt>
      <trkpt lat="47.26927" lon="-1.67198">
        <ele>39.8</ele>
        <time>2020-06-07T13:23:14Z</time>
      </trkpt>
      <trkpt lat="47.26927" lon="-1.67198">
        <ele>39.8</ele>
        <time>2020-06-07T13:23:15Z</time>
      </trkpt>
      <trkpt lat="47.26928" lon="-1.67198">
        <ele>39.9</ele>
        <time>2020-06-07T13:23:16Z</time>
      </trkpt>
      <trkpt lat="47.26929" lon="-1.67197">
        <ele>39.9</ele>
        <time>2020-06-07T13:23:17Z</time>
      </trkpt>
      <trkpt lat="47.26931" lon="-1.67196">
        <ele>39.9</ele>
        <time>2020-06-07T13:23:18Z</time>
      </trkpt>
      <trkpt lat="47.26932" lon="-1.67196">
        <ele>39.9</ele>
        <time>2020-06-07T13:23:19Z</time>
      </trkpt>
      <trkpt lat="47.26934" lon="-1.67195">
        <ele>39.9</ele>
        <time>2020-06-07T13:23:20Z</time>
      </trkpt>
      <trkpt lat="47.26935" lon="-1.67194">
        <ele>39.9</ele>
        <time>2020-06-07T13:23:21Z</time>
      </trkpt>
      <trkpt lat="47.26936" lon="-1.67193">
        <ele>39.9</ele>
        <time>2020-06-07T13:23:22Z</time>
      </trkpt>
      <trkpt lat="47.26938" lon="-1.67192">
        <ele>39.9</ele>
        <time>2020-06-07T13:23:23Z</time>
      </trkpt>
      <trkpt lat="47.26939" lon="-1.67192">
        <ele>39.9</ele>
        <time>2020-06-07T13:23:24Z</time>
      </trkpt>
      <trkpt lat="47.2694" lon="-1.67192">
        <ele>39.9</ele>
        <time>2020-06-07T13:23:25Z</time>
      </trkpt>
      <trkpt lat="47.26942" lon="-1.67191">
        <ele>39.9</ele>
        <time>2020-06-07T13:23:26Z</time>
      </trkpt>
      <trkpt lat="47.26943" lon="-1.67191">
        <ele>39.9</ele>
        <time>2020-06-07T13:23:27Z</time>
      </trkpt>
      <trkpt lat="47.26944" lon="-1.67191">
        <ele>39.9</ele>
        <time>2020-06-07T13:23:28Z</time>
      </trkpt>
      <trkpt lat="47.26945" lon="-1.67191">
        <ele>40</ele>
        <time>2020-06-07T13:23:29Z</time>
      </trkpt>
      <trkpt lat="47.26946" lon="-1.67191">
        <ele>40</ele>
        <time>2020-06-07T13:23:30Z</time>
      </trkpt>
      <trkpt lat="47.26947" lon="-1.67191">
        <ele>40</ele>
        <time>2020-06-07T13:23:31Z</time>
      </trkpt>
      <trkpt lat="47.26948" lon="-1.67191">
        <ele>40</ele>
        <time>2020-06-07T13:23:32Z</time>
      </trkpt>
      <trkpt lat="47.26949" lon="-1.67191">
        <ele>40</ele>
        <time>2020-06-07T13:23:33Z</time>
      </trkpt>
      <trkpt lat="47.2695" lon="-1.6719">
        <ele>40</ele>
        <time>2020-06-07T13:23:34Z</time>
      </trkpt>
      <trkpt lat="47.2695" lon="-1.6719">
        <ele>40</ele>
        <time>2020-06-07T13:23:35Z</time>
      </trkpt>
      <trkpt lat="47.26951" lon="-1.67189">
        <ele>40</ele>
        <time>2020-06-07T13:23:36Z</time>
      </trkpt>
      <trkpt lat="47.26952" lon="-1.67188">
        <ele>40</ele>
        <time>2020-06-07T13:23:37Z</time>
      </trkpt>
      <trkpt lat="47.26953" lon="-1.67188">
        <ele>40</ele>
        <time>2020-06-07T13:23:38Z</time>
      </trkpt>
      <trkpt lat="47.26953" lon="-1.67188">
        <ele>40</ele>
        <time>2020-06-07T13:23:39Z</time>
      </trkpt>
      <trkpt lat="47.26954" lon="-1.67188">
        <ele>40</ele>
        <time>2020-06-07T13:23:40Z</time>
      </trkpt>
      <trkpt lat="47.26955" lon="-1.67187">
        <ele>40</ele>
        <time>2020-06-07T13:23:41Z</time>
      </trkpt>
      <trkpt lat="47.26956" lon="-1.67187">
        <ele>40.1</ele>
        <time>2020-06-07T13:23:42Z</time>
      </trkpt>
      <trkpt lat="47.26957" lon="-1.67186">
        <ele>40.1</ele>
        <time>2020-06-07T13:23:43Z</time>
      </trkpt>
      <trkpt lat="47.26958" lon="-1.67186">
        <ele>40.1</ele>
        <time>2020-06-07T13:23:44Z</time>
      </trkpt>
      <trkpt lat="47.26958" lon="-1.67185">
        <ele>40.1</ele>
        <time>2020-06-07T13:23:45Z</time>
      </trkpt>
      <trkpt lat="47.26959" lon="-1.67185">
        <ele>40.1</ele>
        <time>2020-06-07T13:23:46Z</time>
      </trkpt>
      <trkpt lat="47.2696" lon="-1.67184">
        <ele>40.1</ele>
        <time>2020-06-07T13:23:47Z</time>
      </trkpt>
      <trkpt lat="47.2696" lon="-1.67184">
        <ele>40.1</ele>
        <time>2020-06-07T13:23:48Z</time>
      </trkpt>
      <trkpt lat="47.26961" lon="-1.67183">
        <ele>40.1</ele>
        <time>2020-06-07T13:23:49Z</time>
      </trkpt>
      <trkpt lat="47.26962" lon="-1.67182">
        <ele>40.1</ele>
        <time>2020-06-07T13:23:50Z</time>
      </trkpt>
      <trkpt lat="47.26963" lon="-1.67181">
        <ele>40.1</ele>
        <time>2020-06-07T13:23:51Z</time>
      </trkpt>
      <trkpt lat="47.26963" lon="-1.67181">
        <ele>40.1</ele>
        <time>2020-06-07T13:23:52Z</time>
      </trkpt>
      <trkpt lat="47.26964" lon="-1.6718">
        <ele>40.1</ele>
        <time>2020-06-07T13:23:53Z</time>
      </trkpt>
      <trkpt lat="47.26965" lon="-1.6718">
        <ele>40.1</ele>
        <time>2020-06-07T13:23:54Z</time>
      </trkpt>
      <trkpt lat="47.26967" lon="-1.67179">
        <ele>40.1</ele>
        <time>2020-06-07T13:23:55Z</time>
      </trkpt>
      <trkpt lat="47.26968" lon="-1.67178">
        <ele>40.1</ele>
        <time>2020-06-07T13:23:56Z</time>
      </trkpt>
      <trkpt lat="47.26969" lon="-1.67178">
        <ele>40.1</ele>
        <time>2020-06-07T13:23:57Z</time>
      </trkpt>
      <trkpt lat="47.2697" lon="-1.67178">
        <ele>40.1</ele>
        <time>2020-06-07T13:23:58Z</time>
      </trkpt>
      <trkpt lat="47.26972" lon="-1.67178">
        <ele>40.2</ele>
        <time>2020-06-07T13:23:59Z</time>
      </trkpt>
      <trkpt lat="47.26973" lon="-1.67178">
        <ele>40.2</ele>
        <time>2020-06-07T13:24:00Z</time>
      </trkpt>
      <trkpt lat="47.26975" lon="-1.67177">
        <ele>40.2</ele>
        <time>2020-06-07T13:24:01Z</time>
      </trkpt>
      <trkpt lat="47.26976" lon="-1.67177">
        <ele>40.2</ele>
        <time>2020-06-07T13:24:02Z</time>
      </trkpt>
      <trkpt lat="47.26977" lon="-1.67176">
        <ele>40.2</ele>
        <time>2020-06-07T13:24:03Z</time>
      </trkpt>
      <trkpt lat="47.26979" lon="-1.67176">
        <ele>40.2</ele>
        <time>2020-06-07T13:24:04Z</time>
      </trkpt>
      <trkpt lat="47.2698" lon="-1.67176">
        <ele>40.2</ele>
        <time>2020-06-07T13:24:05Z</time>
      </trkpt>
      <trkpt lat="47.26981" lon="-1.67176">
        <ele>40.2</ele>
        <time>2020-06-07T13:24:06Z</time>
      </trkpt>
      <trkpt lat="47.26982" lon="-1.67175">
        <ele>40.2</ele>
        <time>2020-06-07T13:24:07Z</time>
      </trkpt>
      <trkpt lat="47.26983" lon="-1.67175">
        <ele>40.2</ele>
        <time>2020-06-07T13:24:08Z</time>
      </trkpt>
      <trkpt lat="47.26984" lon="-1.67174">
        <ele>40.2</ele>
        <time>2020-06-07T13:24:09Z</time>
      </trkpt>
      <trkpt lat="47.26985" lon="-1.67174">
        <ele>40.2</ele>
        <time>2020-06-07T13:24:10Z</time>
      </trkpt>
      <trkpt lat="47.26985" lon="-1.67173">
        <ele>40.2</ele>
        <time>2020-06-07T13:24:11Z</time>
      </trkpt>
      <trkpt lat="47.26987" lon="-1.67173">
        <ele>40.2</ele>
        <time>2020-06-07T13:24:12Z</time>
      </trkpt>
      <trkpt lat="47.26988" lon="-1.67173">
        <ele>40.2</ele>
        <time>2020-06-07T13:24:13Z</time>
      </trkpt>
      <trkpt lat="47.26988" lon="-1.67173">
        <ele>40.2</ele>
        <time>2020-06-07T13:24:14Z</time>
      </trkpt>
      <trkpt lat="47.26989" lon="-1.67172">
        <ele>40.2</ele>
        <time>2020-06-07T13:24:15Z</time>
      </trkpt>
      <trkpt lat="47.2699" lon="-1.67172">
        <ele>40.2</ele>
        <time>2020-06-07T13:24:16Z</time>
      </trkpt>
      <trkpt lat="47.26991" lon="-1.67172">
        <ele>40.2</ele>
        <time>2020-06-07T13:24:17Z</time>
      </trkpt>
      <trkpt lat="47.26992" lon="-1.67172">
        <ele>40.2</ele>
        <time>2020-06-07T13:24:18Z</time>
      </trkpt>
      <trkpt lat="47.26994" lon="-1.67171">
        <ele>40.3</ele>
        <time>2020-06-07T13:24:19Z</time>
      </trkpt>
      <trkpt lat="47.26995" lon="-1.67171">
        <ele>40.3</ele>
        <time>2020-06-07T13:24:20Z</time>
      </trkpt>
      <trkpt lat="47.26996" lon="-1.6717">
        <ele>40.3</ele>
        <time>2020-06-07T13:24:21Z</time>
      </trkpt>
      <trkpt lat="47.26997" lon="-1.6717">
        <ele>40.3</ele>
        <time>2020-06-07T13:24:22Z</time>
      </trkpt>
      <trkpt lat="47.26998" lon="-1.67169">
        <ele>40.3</ele>
        <time>2020-06-07T13:24:23Z</time>
      </trkpt>
      <trkpt lat="47.26999" lon="-1.67169">
        <ele>40.3</ele>
        <time>2020-06-07T13:24:24Z</time>
      </trkpt>
      <trkpt lat="47.27002" lon="-1.67169">
        <ele>40.3</ele>
        <time>2020-06-07T13:24:25Z</time>
      </trkpt>
      <trkpt lat="47.27003" lon="-1.67169">
        <ele>40.3</ele>
        <time>2020-06-07T13:24:26Z</time>
      </trkpt>
      <trkpt lat="47.27004" lon="-1.67169">
        <ele>40.3</ele>
        <time>2020-06-07T13:24:27Z</time>
      </trkpt>
      <trkpt lat="47.27005" lon="-1.6717">
        <ele>40.3</ele>
        <time>2020-06-07T13:24:28Z</time>
      </trkpt>
      <trkpt lat="47.27005" lon="-1.67169">
        <ele>40.3</ele>
        <time>2020-06-07T13:24:29Z</time>
      </trkpt>
      <trkpt lat="47.27006" lon="-1.67169">
        <ele>40.3</ele>
        <time>2020-06-07T13:24:30Z</time>
      </trkpt>
      <trkpt lat="47.27008" lon="-1.67169">
        <ele>40.3</ele>
        <time>2020-06-07T13:24:31Z</time>
      </trkpt>
      <trkpt lat="47.27009" lon="-1.67168">
        <ele>40.3</ele>
        <time>2020-06-07T13:24:32Z</time>
      </trkpt>
      <trkpt lat="47.27011" lon="-1.67168">
        <ele>40.3</ele>
        <time>2020-06-07T13:24:33Z</time>
      </trkpt>
      <trkpt lat="47.27013" lon="-1.67168">
        <ele>40.3</ele>
        <time>2020-06-07T13:24:34Z</time>
      </trkpt>
      <trkpt lat="47.27014" lon="-1.67168">
        <ele>40.3</ele>
        <time>2020-06-07T13:24:35Z</time>
      </trkpt>
      <trkpt lat="47.27016" lon="-1.67168">
        <ele>40.4</ele>
        <time>2020-06-07T13:24:36Z</time>
      </trkpt>
      <trkpt lat="47.27017" lon="-1.67168">
        <ele>40.4</ele>
        <time>2020-06-07T13:24:37Z</time>
      </trkpt>
      <trkpt lat="47.27019" lon="-1.67168">
        <ele>40.4</ele>
        <time>2020-06-07T13:24:38Z</time>
      </trkpt>
      <trkpt lat="47.2702" lon="-1.67168">
        <ele>40.4</ele>
        <time>2020-06-07T13:24:39Z</time>
      </trkpt>
      <trkpt lat="47.27022" lon="-1.67168">
        <ele>40.4</ele>
        <time>2020-06-07T13:24:40Z</time>
      </trkpt>
      <trkpt lat="47.27023" lon="-1.67167">
        <ele>40.4</ele>
        <time>2020-06-07T13:24:41Z</time>
      </trkpt>
      <trkpt lat="47.27025" lon="-1.67167">
        <ele>40.4</ele>
        <time>2020-06-07T13:24:42Z</time>
      </trkpt>
      <trkpt lat="47.27026" lon="-1.67167">
        <ele>40.4</ele>
        <time>2020-06-07T13:24:43Z</time>
      </trkpt>
      <trkpt lat="47.27028" lon="-1.67167">
        <ele>40.4</ele>
        <time>2020-06-07T13:24:44Z</time>
      </trkpt>
      <trkpt lat="47.2703" lon="-1.67167">
        <ele>40.4</ele>
        <time>2020-06-07T13:24:45Z</time>
      </trkpt>
      <trkpt lat="47.27031" lon="-1.67166">
        <ele>40.5</ele>
        <time>2020-06-07T13:24:46Z</time>
      </trkpt>
      <trkpt lat="47.27032" lon="-1.67166">
        <ele>40.5</ele>
        <time>2020-06-07T13:24:47Z</time>
      </trkpt>
      <trkpt lat="47.27032" lon="-1.67165">
        <ele>40.5</ele>
        <time>2020-06-07T13:24:48Z</time>
      </trkpt>
      <trkpt lat="47.27033" lon="-1.67165">
        <ele>40.5</ele>
        <time>2020-06-07T13:24:49Z</time>
      </trkpt>
      <trkpt lat="47.27034" lon="-1.67165">
        <ele>40.5</ele>
        <time>2020-06-07T13:24:50Z</time>
      </trkpt>
      <trkpt lat="47.27035" lon="-1.67165">
        <ele>40.5</ele>
        <time>2020-06-07T13:24:51Z</time>
      </trkpt>
      <trkpt lat="47.27035" lon="-1.67165">
        <ele>40.5</ele>
        <time>2020-06-07T13:24:52Z</time>
      </trkpt>
      <trkpt lat="47.27037" lon="-1.67165">
        <ele>40.5</ele>
        <time>2020-06-07T13:24:53Z</time>
      </trkpt>
      <trkpt lat="47.27038" lon="-1.67165">
        <ele>40.5</ele>
        <time>2020-06-07T13:24:54Z</time>
      </trkpt>
      <trkpt lat="47.2704" lon="-1.67165">
        <ele>40.5</ele>
        <time>2020-06-07T13:24:55Z</time>
      </trkpt>
      <trkpt lat="47.27041" lon="-1.67165">
        <ele>40.5</ele>
        <time>2020-06-07T13:24:56Z</time>
      </trkpt>
      <trkpt lat="47.27042" lon="-1.67166">
        <ele>40.5</ele>
        <time>2020-06-07T13:24:57Z</time>
      </trkpt>
      <trkpt lat="47.27042" lon="-1.67166">
        <ele>40.5</ele>
        <time>2020-06-07T13:24:58Z</time>
      </trkpt>
      <trkpt lat="47.27043" lon="-1.67167">
        <ele>40.5</ele>
        <time>2020-06-07T13:24:59Z</time>
      </trkpt>
      <trkpt lat="47.27044" lon="-1.67168">
        <ele>40.5</ele>
        <time>2020-06-07T13:25:00Z</time>
      </trkpt>
      <trkpt lat="47.27044" lon="-1.67169">
        <ele>40.5</ele>
        <time>2020-06-07T13:25:01Z</time>
      </trkpt>
      <trkpt lat="47.27044" lon="-1.6717">
        <ele>40.5</ele>
        <time>2020-06-07T13:25:02Z</time>
      </trkpt>
      <trkpt lat="47.27044" lon="-1.6717">
        <ele>40.5</ele>
        <time>2020-06-07T13:25:03Z</time>
      </trkpt>
      <trkpt lat="47.27044" lon="-1.6717">
        <ele>40.5</ele>
        <time>2020-06-07T13:25:04Z</time>
      </trkpt>
      <trkpt lat="47.27046" lon="-1.6717">
        <ele>40.5</ele>
        <time>2020-06-07T13:25:05Z</time>
      </trkpt>
      <trkpt lat="47.27047" lon="-1.67169">
        <ele>40.5</ele>
        <time>2020-06-07T13:25:06Z</time>
      </trkpt>
      <trkpt lat="47.2705" lon="-1.67168">
        <ele>40.6</ele>
        <time>2020-06-07T13:25:07Z</time>
      </trkpt>
      <trkpt lat="47.27051" lon="-1.67168">
        <ele>40.6</ele>
        <time>2020-06-07T13:25:08Z</time>
      </trkpt>
      <trkpt lat="47.27052" lon="-1.67168">
        <ele>40.6</ele>
        <time>2020-06-07T13:25:09Z</time>
      </trkpt>
      <trkpt lat="47.27053" lon="-1.67168">
        <ele>40.6</ele>
        <time>2020-06-07T13:25:10Z</time>
      </trkpt>
      <trkpt lat="47.27054" lon="-1.67168">
        <ele>40.6</ele>
        <time>2020-06-07T13:25:11Z</time>
      </trkpt>
      <trkpt lat="47.27055" lon="-1.67168">
        <ele>40.6</ele>
        <time>2020-06-07T13:25:12Z</time>
      </trkpt>
      <trkpt lat="47.27056" lon="-1.67169">
        <ele>40.6</ele>
        <time>2020-06-07T13:25:13Z</time>
      </trkpt>
      <trkpt lat="47.27057" lon="-1.67169">
        <ele>40.7</ele>
        <time>2020-06-07T13:25:14Z</time>
      </trkpt>
      <trkpt lat="47.27059" lon="-1.6717">
        <ele>40.7</ele>
        <time>2020-06-07T13:25:15Z</time>
      </trkpt>
      <trkpt lat="47.2706" lon="-1.6717">
        <ele>40.7</ele>
        <time>2020-06-07T13:25:16Z</time>
      </trkpt>
      <trkpt lat="47.27062" lon="-1.6717">
        <ele>40.8</ele>
        <time>2020-06-07T13:25:17Z</time>
      </trkpt>
      <trkpt lat="47.27063" lon="-1.67171">
        <ele>40.8</ele>
        <time>2020-06-07T13:25:18Z</time>
      </trkpt>
      <trkpt lat="47.27064" lon="-1.67171">
        <ele>40.8</ele>
        <time>2020-06-07T13:25:19Z</time>
      </trkpt>
      <trkpt lat="47.27066" lon="-1.67171">
        <ele>40.9</ele>
        <time>2020-06-07T13:25:20Z</time>
      </trkpt>
      <trkpt lat="47.27067" lon="-1.67172">
        <ele>40.9</ele>
        <time>2020-06-07T13:25:21Z</time>
      </trkpt>
      <trkpt lat="47.27069" lon="-1.67172">
        <ele>41</ele>
        <time>2020-06-07T13:25:22Z</time>
      </trkpt>
      <trkpt lat="47.27071" lon="-1.67172">
        <ele>41.1</ele>
        <time>2020-06-07T13:25:23Z</time>
      </trkpt>
      <trkpt lat="47.27073" lon="-1.67173">
        <ele>41.1</ele>
        <time>2020-06-07T13:25:24Z</time>
      </trkpt>
      <trkpt lat="47.27074" lon="-1.67173">
        <ele>41.2</ele>
        <time>2020-06-07T13:25:25Z</time>
      </trkpt>
      <trkpt lat="47.27075" lon="-1.67173">
        <ele>41.2</ele>
        <time>2020-06-07T13:25:26Z</time>
      </trkpt>
      <trkpt lat="47.27076" lon="-1.67173">
        <ele>41.2</ele>
        <time>2020-06-07T13:25:27Z</time>
      </trkpt>
      <trkpt lat="47.27077" lon="-1.67174">
        <ele>41.2</ele>
        <time>2020-06-07T13:25:28Z</time>
      </trkpt>
      <trkpt lat="47.27078" lon="-1.67175">
        <ele>41.2</ele>
        <time>2020-06-07T13:25:29Z</time>
      </trkpt>
      <trkpt lat="47.27079" lon="-1.67176">
        <ele>41.2</ele>
        <time>2020-06-07T13:25:30Z</time>
      </trkpt>
      <trkpt lat="47.2708" lon="-1.67176">
        <ele>41.3</ele>
        <time>2020-06-07T13:25:31Z</time>
      </trkpt>
      <trkpt lat="47.27081" lon="-1.67176">
        <ele>41.3</ele>
        <time>2020-06-07T13:25:32Z</time>
      </trkpt>
      <trkpt lat="47.27082" lon="-1.67177">
        <ele>41.3</ele>
        <time>2020-06-07T13:25:33Z</time>
      </trkpt>
      <trkpt lat="47.27083" lon="-1.67178">
        <ele>41.3</ele>
        <time>2020-06-07T13:25:34Z</time>
      </trkpt>
      <trkpt lat="47.27083" lon="-1.67179">
        <ele>41.3</ele>
        <time>2020-06-07T13:25:35Z</time>
      </trkpt>
      <trkpt lat="47.27084" lon="-1.6718">
        <ele>41.3</ele>
        <time>2020-06-07T13:25:36Z</time>
      </trkpt>
      <trkpt lat="47.27085" lon="-1.6718">
        <ele>41.3</ele>
        <time>2020-06-07T13:25:37Z</time>
      </trkpt>
      <trkpt lat="47.27085" lon="-1.67181">
        <ele>41.3</ele>
        <time>2020-06-07T13:25:38Z</time>
      </trkpt>
      <trkpt lat="47.27086" lon="-1.67181">
        <ele>41.3</ele>
        <time>2020-06-07T13:25:39Z</time>
      </trkpt>
      <trkpt lat="47.27086" lon="-1.67181">
        <ele>41.3</ele>
        <time>2020-06-07T13:25:40Z</time>
      </trkpt>
      <trkpt lat="47.27087" lon="-1.67181">
        <ele>41.3</ele>
        <time>2020-06-07T13:25:41Z</time>
      </trkpt>
      <trkpt lat="47.27088" lon="-1.67181">
        <ele>41.3</ele>
        <time>2020-06-07T13:25:42Z</time>
      </trkpt>
      <trkpt lat="47.27088" lon="-1.67181">
        <ele>41.3</ele>
        <time>2020-06-07T13:25:43Z</time>
      </trkpt>
      <trkpt lat="47.27089" lon="-1.67181">
        <ele>41.3</ele>
        <time>2020-06-07T13:25:44Z</time>
      </trkpt>
      <trkpt lat="47.27089" lon="-1.67182">
        <ele>41.3</ele>
        <time>2020-06-07T13:25:45Z</time>
      </trkpt>
      <trkpt lat="47.2709" lon="-1.67182">
        <ele>41.3</ele>
        <time>2020-06-07T13:25:46Z</time>
      </trkpt>
      <trkpt lat="47.27092" lon="-1.67183">
        <ele>41.3</ele>
        <time>2020-06-07T13:25:47Z</time>
      </trkpt>
      <trkpt lat="47.27093" lon="-1.67183">
        <ele>41.3</ele>
        <time>2020-06-07T13:25:48Z</time>
      </trkpt>
      <trkpt lat="47.27094" lon="-1.67184">
        <ele>41.3</ele>
        <time>2020-06-07T13:25:49Z</time>
      </trkpt>
      <trkpt lat="47.27095" lon="-1.67184">
        <ele>41.3</ele>
        <time>2020-06-07T13:25:50Z</time>
      </trkpt>
      <trkpt lat="47.27096" lon="-1.67184">
        <ele>41.3</ele>
        <time>2020-06-07T13:25:51Z</time>
      </trkpt>
      <trkpt lat="47.27097" lon="-1.67185">
        <ele>41.3</ele>
        <time>2020-06-07T13:25:52Z</time>
      </trkpt>
      <trkpt lat="47.27098" lon="-1.67185">
        <ele>41.3</ele>
        <time>2020-06-07T13:25:53Z</time>
      </trkpt>
      <trkpt lat="47.27099" lon="-1.67185">
        <ele>41.3</ele>
        <time>2020-06-07T13:25:54Z</time>
      </trkpt>
      <trkpt lat="47.271" lon="-1.67186">
        <ele>41.3</ele>
        <time>2020-06-07T13:25:55Z</time>
      </trkpt>
      <trkpt lat="47.271" lon="-1.67187">
        <ele>41.3</ele>
        <time>2020-06-07T13:25:56Z</time>
      </trkpt>
      <trkpt lat="47.27101" lon="-1.67188">
        <ele>41.3</ele>
        <time>2020-06-07T13:25:57Z</time>
      </trkpt>
      <trkpt lat="47.27101" lon="-1.67188">
        <ele>41.3</ele>
        <time>2020-06-07T13:25:58Z</time>
      </trkpt>
      <trkpt lat="47.27102" lon="-1.67189">
        <ele>41.3</ele>
        <time>2020-06-07T13:25:59Z</time>
      </trkpt>
      <trkpt lat="47.27103" lon="-1.6719">
        <ele>41.3</ele>
        <time>2020-06-07T13:26:00Z</time>
      </trkpt>
      <trkpt lat="47.27104" lon="-1.67191">
        <ele>41.3</ele>
        <time>2020-06-07T13:26:01Z</time>
      </trkpt>
      <trkpt lat="47.27105" lon="-1.67193">
        <ele>41.3</ele>
        <time>2020-06-07T13:26:02Z</time>
      </trkpt>
      <trkpt lat="47.27105" lon="-1.67195">
        <ele>41.3</ele>
        <time>2020-06-07T13:26:03Z</time>
      </trkpt>
      <trkpt lat="47.27106" lon="-1.67196">
        <ele>41.3</ele>
        <time>2020-06-07T13:26:04Z</time>
      </trkpt>
      <trkpt lat="47.27106" lon="-1.67197">
        <ele>41.2</ele>
        <time>2020-06-07T13:26:05Z</time>
      </trkpt>
      <trkpt lat="47.27107" lon="-1.67198">
        <ele>41.2</ele>
        <time>2020-06-07T13:26:06Z</time>
      </trkpt>
      <trkpt lat="47.27108" lon="-1.67199">
        <ele>41.2</ele>
        <time>2020-06-07T13:26:07Z</time>
      </trkpt>
      <trkpt lat="47.2711" lon="-1.67199">
        <ele>41.2</ele>
        <time>2020-06-07T13:26:08Z</time>
      </trkpt>
      <trkpt lat="47.27111" lon="-1.672">
        <ele>41.2</ele>
        <time>2020-06-07T13:26:09Z</time>
      </trkpt>
      <trkpt lat="47.27112" lon="-1.67201">
        <ele>41.2</ele>
        <time>2020-06-07T13:26:10Z</time>
      </trkpt>
      <trkpt lat="47.27113" lon="-1.67202">
        <ele>41.2</ele>
        <time>2020-06-07T13:26:11Z</time>
      </trkpt>
      <trkpt lat="47.27113" lon="-1.67203">
        <ele>41.2</ele>
        <time>2020-06-07T13:26:12Z</time>
      </trkpt>
      <trkpt lat="47.27114" lon="-1.67204">
        <ele>41.2</ele>
        <time>2020-06-07T13:26:13Z</time>
      </trkpt>
      <trkpt lat="47.27115" lon="-1.67205">
        <ele>41.2</ele>
        <time>2020-06-07T13:26:14Z</time>
      </trkpt>
      <trkpt lat="47.27115" lon="-1.67206">
        <ele>41.2</ele>
        <time>2020-06-07T13:26:15Z</time>
      </trkpt>
      <trkpt lat="47.27117" lon="-1.67208">
        <ele>41.2</ele>
        <time>2020-06-07T13:26:16Z</time>
      </trkpt>
      <trkpt lat="47.27117" lon="-1.6721">
        <ele>41.2</ele>
        <time>2020-06-07T13:26:17Z</time>
      </trkpt>
      <trkpt lat="47.27118" lon="-1.67211">
        <ele>41.2</ele>
        <time>2020-06-07T13:26:18Z</time>
      </trkpt>
      <trkpt lat="47.27121" lon="-1.67212">
        <ele>41.2</ele>
        <time>2020-06-07T13:26:19Z</time>
      </trkpt>
      <trkpt lat="47.27122" lon="-1.67213">
        <ele>41.2</ele>
        <time>2020-06-07T13:26:20Z</time>
      </trkpt>
      <trkpt lat="47.27123" lon="-1.67214">
        <ele>41.2</ele>
        <time>2020-06-07T13:26:21Z</time>
      </trkpt>
      <trkpt lat="47.27125" lon="-1.67214">
        <ele>41.2</ele>
        <time>2020-06-07T13:26:22Z</time>
      </trkpt>
      <trkpt lat="47.27126" lon="-1.67215">
        <ele>41.2</ele>
        <time>2020-06-07T13:26:23Z</time>
      </trkpt>
      <trkpt lat="47.27126" lon="-1.67216">
        <ele>41.2</ele>
        <time>2020-06-07T13:26:24Z</time>
      </trkpt>
      <trkpt lat="47.27127" lon="-1.67218">
        <ele>41.2</ele>
        <time>2020-06-07T13:26:25Z</time>
      </trkpt>
      <trkpt lat="47.27128" lon="-1.6722">
        <ele>41.2</ele>
        <time>2020-06-07T13:26:26Z</time>
      </trkpt>
      <trkpt lat="47.27129" lon="-1.67222">
        <ele>41.2</ele>
        <time>2020-06-07T13:26:27Z</time>
      </trkpt>
      <trkpt lat="47.2713" lon="-1.67224">
        <ele>41.2</ele>
        <time>2020-06-07T13:26:28Z</time>
      </trkpt>
      <trkpt lat="47.27131" lon="-1.67226">
        <ele>41.2</ele>
        <time>2020-06-07T13:26:29Z</time>
      </trkpt>
      <trkpt lat="47.27132" lon="-1.67228">
        <ele>41.2</ele>
        <time>2020-06-07T13:26:30Z</time>
      </trkpt>
      <trkpt lat="47.27132" lon="-1.67229">
        <ele>41.2</ele>
        <time>2020-06-07T13:26:31Z</time>
      </trkpt>
      <trkpt lat="47.27133" lon="-1.67231">
        <ele>41.2</ele>
        <time>2020-06-07T13:26:32Z</time>
      </trkpt>
      <trkpt lat="47.27133" lon="-1.67232">
        <ele>41.2</ele>
        <time>2020-06-07T13:26:33Z</time>
      </trkpt>
      <trkpt lat="47.27133" lon="-1.67233">
        <ele>41.2</ele>
        <time>2020-06-07T13:26:34Z</time>
      </trkpt>
      <trkpt lat="47.27134" lon="-1.67234">
        <ele>41.2</ele>
        <time>2020-06-07T13:26:35Z</time>
      </trkpt>
      <trkpt lat="47.27134" lon="-1.67236">
        <ele>41.2</ele>
        <time>2020-06-07T13:26:36Z</time>
      </trkpt>
      <trkpt lat="47.27135" lon="-1.67237">
        <ele>41.2</ele>
        <time>2020-06-07T13:26:37Z</time>
      </trkpt>
      <trkpt lat="47.27135" lon="-1.67238">
        <ele>41.2</ele>
        <time>2020-06-07T13:26:38Z</time>
      </trkpt>
      <trkpt lat="47.27136" lon="-1.6724">
        <ele>41.2</ele>
        <time>2020-06-07T13:26:39Z</time>
      </trkpt>
      <trkpt lat="47.27137" lon="-1.67241">
        <ele>41.2</ele>
        <time>2020-06-07T13:26:40Z</time>
      </trkpt>
      <trkpt lat="47.27138" lon="-1.67242">
        <ele>41.3</ele>
        <time>2020-06-07T13:26:41Z</time>
      </trkpt>
      <trkpt lat="47.27139" lon="-1.67244">
        <ele>41.3</ele>
        <time>2020-06-07T13:26:42Z</time>
      </trkpt>
      <trkpt lat="47.2714" lon="-1.67245">
        <ele>41.3</ele>
        <time>2020-06-07T13:26:43Z</time>
      </trkpt>
      <trkpt lat="47.27141" lon="-1.67246">
        <ele>41.3</ele>
        <time>2020-06-07T13:26:44Z</time>
      </trkpt>
      <trkpt lat="47.27142" lon="-1.67247">
        <ele>41.3</ele>
        <time>2020-06-07T13:26:45Z</time>
      </trkpt>
      <trkpt lat="47.27142" lon="-1.67249">
        <ele>41.3</ele>
        <time>2020-06-07T13:26:46Z</time>
      </trkpt>
      <trkpt lat="47.27142" lon="-1.67252">
        <ele>41.3</ele>
        <time>2020-06-07T13:26:47Z</time>
      </trkpt>
      <trkpt lat="47.27142" lon="-1.67254">
        <ele>41.4</ele>
        <time>2020-06-07T13:26:48Z</time>
      </trkpt>
      <trkpt lat="47.27142" lon="-1.67255">
        <ele>41.4</ele>
        <time>2020-06-07T13:26:49Z</time>
      </trkpt>
      <trkpt lat="47.27142" lon="-1.67258">
        <ele>41.4</ele>
        <time>2020-06-07T13:26:50Z</time>
      </trkpt>
      <trkpt lat="47.27142" lon="-1.6726">
        <ele>41.4</ele>
        <time>2020-06-07T13:26:51Z</time>
      </trkpt>
      <trkpt lat="47.27141" lon="-1.67262">
        <ele>41.4</ele>
        <time>2020-06-07T13:26:52Z</time>
      </trkpt>
      <trkpt lat="47.27141" lon="-1.67264">
        <ele>41.4</ele>
        <time>2020-06-07T13:26:53Z</time>
      </trkpt>
      <trkpt lat="47.27141" lon="-1.67266">
        <ele>41.4</ele>
        <time>2020-06-07T13:26:54Z</time>
      </trkpt>
      <trkpt lat="47.27142" lon="-1.67267">
        <ele>41.4</ele>
        <time>2020-06-07T13:26:55Z</time>
      </trkpt>
      <trkpt lat="47.27142" lon="-1.67268">
        <ele>41.4</ele>
        <time>2020-06-07T13:26:56Z</time>
      </trkpt>
      <trkpt lat="47.27142" lon="-1.67269">
        <ele>41.4</ele>
        <time>2020-06-07T13:26:57Z</time>
      </trkpt>
      <trkpt lat="47.27143" lon="-1.67271">
        <ele>41.4</ele>
        <time>2020-06-07T13:26:58Z</time>
      </trkpt>
      <trkpt lat="47.27143" lon="-1.67272">
        <ele>41.3</ele>
        <time>2020-06-07T13:26:59Z</time>
      </trkpt>
      <trkpt lat="47.27144" lon="-1.67273">
        <ele>41.3</ele>
        <time>2020-06-07T13:27:00Z</time>
      </trkpt>
      <trkpt lat="47.27144" lon="-1.67275">
        <ele>41.3</ele>
        <time>2020-06-07T13:27:01Z</time>
      </trkpt>
      <trkpt lat="47.27144" lon="-1.67277">
        <ele>41.3</ele>
        <time>2020-06-07T13:27:02Z</time>
      </trkpt>
      <trkpt lat="47.27144" lon="-1.67279">
        <ele>41.3</ele>
        <time>2020-06-07T13:27:03Z</time>
      </trkpt>
      <trkpt lat="47.27144" lon="-1.6728">
        <ele>41.3</ele>
        <time>2020-06-07T13:27:04Z</time>
      </trkpt>
      <trkpt lat="47.27144" lon="-1.67282">
        <ele>41.3</ele>
        <time>2020-06-07T13:27:05Z</time>
      </trkpt>
      <trkpt lat="47.27144" lon="-1.67283">
        <ele>41.3</ele>
        <time>2020-06-07T13:27:06Z</time>
      </trkpt>
      <trkpt lat="47.27143" lon="-1.67285">
        <ele>41.3</ele>
        <time>2020-06-07T13:27:07Z</time>
      </trkpt>
      <trkpt lat="47.27143" lon="-1.67286">
        <ele>41.3</ele>
        <time>2020-06-07T13:27:08Z</time>
      </trkpt>
      <trkpt lat="47.27143" lon="-1.67287">
        <ele>41.3</ele>
        <time>2020-06-07T13:27:09Z</time>
      </trkpt>
      <trkpt lat="47.27143" lon="-1.67288">
        <ele>41.4</ele>
        <time>2020-06-07T13:27:10Z</time>
      </trkpt>
      <trkpt lat="47.27143" lon="-1.6729">
        <ele>41.4</ele>
        <time>2020-06-07T13:27:11Z</time>
      </trkpt>
      <trkpt lat="47.27143" lon="-1.67291">
        <ele>41.4</ele>
        <time>2020-06-07T13:27:12Z</time>
      </trkpt>
      <trkpt lat="47.27142" lon="-1.67294">
        <ele>41.4</ele>
        <time>2020-06-07T13:27:13Z</time>
      </trkpt>
      <trkpt lat="47.27141" lon="-1.67295">
        <ele>41.4</ele>
        <time>2020-06-07T13:27:14Z</time>
      </trkpt>
      <trkpt lat="47.27141" lon="-1.67296">
        <ele>41.4</ele>
        <time>2020-06-07T13:27:15Z</time>
      </trkpt>
      <trkpt lat="47.2714" lon="-1.67297">
        <ele>41.4</ele>
        <time>2020-06-07T13:27:16Z</time>
      </trkpt>
      <trkpt lat="47.27139" lon="-1.67299">
        <ele>41.4</ele>
        <time>2020-06-07T13:27:17Z</time>
      </trkpt>
      <trkpt lat="47.27139" lon="-1.673">
        <ele>41.4</ele>
        <time>2020-06-07T13:27:18Z</time>
      </trkpt>
      <trkpt lat="47.27138" lon="-1.67302">
        <ele>41.4</ele>
        <time>2020-06-07T13:27:19Z</time>
      </trkpt>
      <trkpt lat="47.27138" lon="-1.67304">
        <ele>41.4</ele>
        <time>2020-06-07T13:27:20Z</time>
      </trkpt>
      <trkpt lat="47.27137" lon="-1.67305">
        <ele>41.4</ele>
        <time>2020-06-07T13:27:21Z</time>
      </trkpt>
      <trkpt lat="47.27136" lon="-1.67307">
        <ele>41.5</ele>
        <time>2020-06-07T13:27:22Z</time>
      </trkpt>
      <trkpt lat="47.27136" lon="-1.67308">
        <ele>41.5</ele>
        <time>2020-06-07T13:27:23Z</time>
      </trkpt>
      <trkpt lat="47.27135" lon="-1.67309">
        <ele>41.5</ele>
        <time>2020-06-07T13:27:24Z</time>
      </trkpt>
      <trkpt lat="47.27135" lon="-1.67311">
        <ele>41.5</ele>
        <time>2020-06-07T13:27:25Z</time>
      </trkpt>
      <trkpt lat="47.27135" lon="-1.67311">
        <ele>41.5</ele>
        <time>2020-06-07T13:27:26Z</time>
      </trkpt>
      <trkpt lat="47.27134" lon="-1.67312">
        <ele>41.5</ele>
        <time>2020-06-07T13:27:27Z</time>
      </trkpt>
      <trkpt lat="47.27134" lon="-1.67314">
        <ele>41.5</ele>
        <time>2020-06-07T13:27:28Z</time>
      </trkpt>
      <trkpt lat="47.27133" lon="-1.67315">
        <ele>41.5</ele>
        <time>2020-06-07T13:27:29Z</time>
      </trkpt>
      <trkpt lat="47.27133" lon="-1.67316">
        <ele>41.5</ele>
        <time>2020-06-07T13:27:30Z</time>
      </trkpt>
      <trkpt lat="47.27133" lon="-1.67317">
        <ele>41.5</ele>
        <time>2020-06-07T13:27:31Z</time>
      </trkpt>
      <trkpt lat="47.27132" lon="-1.67318">
        <ele>41.5</ele>
        <time>2020-06-07T13:27:32Z</time>
      </trkpt>
      <trkpt lat="47.27131" lon="-1.67319">
        <ele>41.5</ele>
        <time>2020-06-07T13:27:33Z</time>
      </trkpt>
      <trkpt lat="47.27131" lon="-1.6732">
        <ele>41.5</ele>
        <time>2020-06-07T13:27:34Z</time>
      </trkpt>
      <trkpt lat="47.2713" lon="-1.67321">
        <ele>41.5</ele>
        <time>2020-06-07T13:27:35Z</time>
      </trkpt>
      <trkpt lat="47.2713" lon="-1.67322">
        <ele>41.5</ele>
        <time>2020-06-07T13:27:36Z</time>
      </trkpt>
      <trkpt lat="47.27129" lon="-1.67323">
        <ele>41.5</ele>
        <time>2020-06-07T13:27:37Z</time>
      </trkpt>
      <trkpt lat="47.27129" lon="-1.67324">
        <ele>41.5</ele>
        <time>2020-06-07T13:27:38Z</time>
      </trkpt>
      <trkpt lat="47.27129" lon="-1.67325">
        <ele>41.5</ele>
        <time>2020-06-07T13:27:39Z</time>
      </trkpt>
      <trkpt lat="47.27128" lon="-1.67326">
        <ele>41.5</ele>
        <time>2020-06-07T13:27:40Z</time>
      </trkpt>
      <trkpt lat="47.27128" lon="-1.67328">
        <ele>41.5</ele>
        <time>2020-06-07T13:27:41Z</time>
      </trkpt>
      <trkpt lat="47.27127" lon="-1.67329">
        <ele>41.5</ele>
        <time>2020-06-07T13:27:42Z</time>
      </trkpt>
      <trkpt lat="47.27127" lon="-1.6733">
        <ele>41.5</ele>
        <time>2020-06-07T13:27:43Z</time>
      </trkpt>
      <trkpt lat="47.27127" lon="-1.67333">
        <ele>41.5</ele>
        <time>2020-06-07T13:27:44Z</time>
      </trkpt>
      <trkpt lat="47.27127" lon="-1.67334">
        <ele>41.5</ele>
        <time>2020-06-07T13:27:45Z</time>
      </trkpt>
      <trkpt lat="47.27127" lon="-1.67335">
        <ele>41.5</ele>
        <time>2020-06-07T13:27:46Z</time>
      </trkpt>
      <trkpt lat="47.27127" lon="-1.67336">
        <ele>41.5</ele>
        <time>2020-06-07T13:27:47Z</time>
      </trkpt>
      <trkpt lat="47.27126" lon="-1.67337">
        <ele>41.5</ele>
        <time>2020-06-07T13:27:48Z</time>
      </trkpt>
      <trkpt lat="47.27126" lon="-1.67337">
        <ele>41.5</ele>
        <time>2020-06-07T13:27:49Z</time>
      </trkpt>
      <trkpt lat="47.27126" lon="-1.67338">
        <ele>41.5</ele>
        <time>2020-06-07T13:27:50Z</time>
      </trkpt>
      <trkpt lat="47.27126" lon="-1.67339">
        <ele>41.5</ele>
        <time>2020-06-07T13:27:51Z</time>
      </trkpt>
      <trkpt lat="47.27125" lon="-1.67341">
        <ele>41.5</ele>
        <time>2020-06-07T13:27:52Z</time>
      </trkpt>
      <trkpt lat="47.27125" lon="-1.67342">
        <ele>41.5</ele>
        <time>2020-06-07T13:27:53Z</time>
      </trkpt>
      <trkpt lat="47.27124" lon="-1.67343">
        <ele>41.5</ele>
        <time>2020-06-07T13:27:54Z</time>
      </trkpt>
      <trkpt lat="47.27124" lon="-1.67344">
        <ele>41.5</ele>
        <time>2020-06-07T13:27:55Z</time>
      </trkpt>
      <trkpt lat="47.27123" lon="-1.67348">
        <ele>41.5</ele>
        <time>2020-06-07T13:27:56Z</time>
      </trkpt>
      <trkpt lat="47.27123" lon="-1.67349">
        <ele>41.5</ele>
        <time>2020-06-07T13:27:57Z</time>
      </trkpt>
      <trkpt lat="47.27122" lon="-1.6735">
        <ele>41.5</ele>
        <time>2020-06-07T13:27:58Z</time>
      </trkpt>
      <trkpt lat="47.27122" lon="-1.67353">
        <ele>41.5</ele>
        <time>2020-06-07T13:27:59Z</time>
      </trkpt>
      <trkpt lat="47.27121" lon="-1.67355">
        <ele>41.4</ele>
        <time>2020-06-07T13:28:00Z</time>
      </trkpt>
      <trkpt lat="47.2712" lon="-1.67356">
        <ele>41.4</ele>
        <time>2020-06-07T13:28:01Z</time>
      </trkpt>
      <trkpt lat="47.2712" lon="-1.67358">
        <ele>41.4</ele>
        <time>2020-06-07T13:28:02Z</time>
      </trkpt>
      <trkpt lat="47.2712" lon="-1.67359">
        <ele>41.4</ele>
        <time>2020-06-07T13:28:03Z</time>
      </trkpt>
      <trkpt lat="47.2712" lon="-1.67361">
        <ele>41.4</ele>
        <time>2020-06-07T13:28:04Z</time>
      </trkpt>
      <trkpt lat="47.2712" lon="-1.67362">
        <ele>41.4</ele>
        <time>2020-06-07T13:28:05Z</time>
      </trkpt>
      <trkpt lat="47.27119" lon="-1.67363">
        <ele>41.4</ele>
        <time>2020-06-07T13:28:06Z</time>
      </trkpt>
      <trkpt lat="47.27118" lon="-1.67364">
        <ele>41.4</ele>
        <time>2020-06-07T13:28:07Z</time>
      </trkpt>
      <trkpt lat="47.27118" lon="-1.67365">
        <ele>41.3</ele>
        <time>2020-06-07T13:28:08Z</time>
      </trkpt>
      <trkpt lat="47.27117" lon="-1.67366">
        <ele>41.3</ele>
        <time>2020-06-07T13:28:09Z</time>
      </trkpt>
      <trkpt lat="47.27116" lon="-1.67367">
        <ele>41.3</ele>
        <time>2020-06-07T13:28:10Z</time>
      </trkpt>
      <trkpt lat="47.27115" lon="-1.67368">
        <ele>41.3</ele>
        <time>2020-06-07T13:28:11Z</time>
      </trkpt>
      <trkpt lat="47.27114" lon="-1.67369">
        <ele>41.3</ele>
        <time>2020-06-07T13:28:12Z</time>
      </trkpt>
      <trkpt lat="47.27113" lon="-1.67369">
        <ele>41.3</ele>
        <time>2020-06-07T13:28:13Z</time>
      </trkpt>
      <trkpt lat="47.27111" lon="-1.67369">
        <ele>41.3</ele>
        <time>2020-06-07T13:28:14Z</time>
      </trkpt>
      <trkpt lat="47.2711" lon="-1.67369">
        <ele>41.3</ele>
        <time>2020-06-07T13:28:15Z</time>
      </trkpt>
      <trkpt lat="47.27109" lon="-1.67369">
        <ele>41.3</ele>
        <time>2020-06-07T13:28:16Z</time>
      </trkpt>
      <trkpt lat="47.27108" lon="-1.67369">
        <ele>41.3</ele>
        <time>2020-06-07T13:28:17Z</time>
      </trkpt>
      <trkpt lat="47.27106" lon="-1.67368">
        <ele>41.2</ele>
        <time>2020-06-07T13:28:18Z</time>
      </trkpt>
      <trkpt lat="47.27105" lon="-1.67368">
        <ele>41.2</ele>
        <time>2020-06-07T13:28:19Z</time>
      </trkpt>
      <trkpt lat="47.27104" lon="-1.67367">
        <ele>41.2</ele>
        <time>2020-06-07T13:28:20Z</time>
      </trkpt>
      <trkpt lat="47.27103" lon="-1.67366">
        <ele>41.2</ele>
        <time>2020-06-07T13:28:21Z</time>
      </trkpt>
      <trkpt lat="47.27103" lon="-1.67365">
        <ele>41.2</ele>
        <time>2020-06-07T13:28:22Z</time>
      </trkpt>
      <trkpt lat="47.27103" lon="-1.67363">
        <ele>41.2</ele>
        <time>2020-06-07T13:28:23Z</time>
      </trkpt>
      <trkpt lat="47.27102" lon="-1.67362">
        <ele>41.2</ele>
        <time>2020-06-07T13:28:24Z</time>
      </trkpt>
      <trkpt lat="47.271" lon="-1.67362">
        <ele>41.2</ele>
        <time>2020-06-07T13:28:25Z</time>
      </trkpt>
      <trkpt lat="47.27099" lon="-1.67361">
        <ele>41.2</ele>
        <time>2020-06-07T13:28:26Z</time>
      </trkpt>
      <trkpt lat="47.27098" lon="-1.67361">
        <ele>41.2</ele>
        <time>2020-06-07T13:28:27Z</time>
      </trkpt>
      <trkpt lat="47.27097" lon="-1.67361">
        <ele>41.3</ele>
        <time>2020-06-07T13:28:28Z</time>
      </trkpt>
      <trkpt lat="47.27095" lon="-1.67361">
        <ele>41.3</ele>
        <time>2020-06-07T13:28:29Z</time>
      </trkpt>
      <trkpt lat="47.27094" lon="-1.67361">
        <ele>41.3</ele>
        <time>2020-06-07T13:28:30Z</time>
      </trkpt>
      <trkpt lat="47.27093" lon="-1.6736">
        <ele>41.3</ele>
        <time>2020-06-07T13:28:31Z</time>
      </trkpt>
      <trkpt lat="47.27091" lon="-1.6736">
        <ele>41.3</ele>
        <time>2020-06-07T13:28:32Z</time>
      </trkpt>
      <trkpt lat="47.2709" lon="-1.6736">
        <ele>41.3</ele>
        <time>2020-06-07T13:28:33Z</time>
      </trkpt>
      <trkpt lat="47.27089" lon="-1.6736">
        <ele>41.3</ele>
        <time>2020-06-07T13:28:34Z</time>
      </trkpt>
      <trkpt lat="47.27088" lon="-1.6736">
        <ele>41.3</ele>
        <time>2020-06-07T13:28:35Z</time>
      </trkpt>
      <trkpt lat="47.27087" lon="-1.6736">
        <ele>41.3</ele>
        <time>2020-06-07T13:28:36Z</time>
      </trkpt>
      <trkpt lat="47.27086" lon="-1.67359">
        <ele>41.3</ele>
        <time>2020-06-07T13:28:37Z</time>
      </trkpt>
      <trkpt lat="47.27085" lon="-1.67359">
        <ele>41.3</ele>
        <time>2020-06-07T13:28:38Z</time>
      </trkpt>
      <trkpt lat="47.27085" lon="-1.67358">
        <ele>41.3</ele>
        <time>2020-06-07T13:28:39Z</time>
      </trkpt>
      <trkpt lat="47.27084" lon="-1.67357">
        <ele>41.3</ele>
        <time>2020-06-07T13:28:40Z</time>
      </trkpt>
      <trkpt lat="47.27084" lon="-1.67356">
        <ele>41.2</ele>
        <time>2020-06-07T13:28:41Z</time>
      </trkpt>
      <trkpt lat="47.27083" lon="-1.67356">
        <ele>41.2</ele>
        <time>2020-06-07T13:28:42Z</time>
      </trkpt>
      <trkpt lat="47.27083" lon="-1.67356">
        <ele>41.2</ele>
        <time>2020-06-07T13:28:43Z</time>
      </trkpt>
      <trkpt lat="47.27083" lon="-1.67356">
        <ele>41.2</ele>
        <time>2020-06-07T13:28:44Z</time>
      </trkpt>
      <trkpt lat="47.27082" lon="-1.67357">
        <ele>41.2</ele>
        <time>2020-06-07T13:28:45Z</time>
      </trkpt>
      <trkpt lat="47.27081" lon="-1.67357">
        <ele>41.2</ele>
        <time>2020-06-07T13:28:46Z</time>
      </trkpt>
      <trkpt lat="47.2708" lon="-1.67358">
        <ele>41.2</ele>
        <time>2020-06-07T13:28:47Z</time>
      </trkpt>
      <trkpt lat="47.2708" lon="-1.67358">
        <ele>41.2</ele>
        <time>2020-06-07T13:28:48Z</time>
      </trkpt>
      <trkpt lat="47.27079" lon="-1.67359">
        <ele>41.1</ele>
        <time>2020-06-07T13:28:49Z</time>
      </trkpt>
      <trkpt lat="47.27077" lon="-1.67359">
        <ele>40.9</ele>
        <time>2020-06-07T13:28:50Z</time>
      </trkpt>
      <trkpt lat="47.27075" lon="-1.6736">
        <ele>40.5</ele>
        <time>2020-06-07T13:28:51Z</time>
      </trkpt>
      <trkpt lat="47.27074" lon="-1.6736">
        <ele>40.4</ele>
        <time>2020-06-07T13:28:52Z</time>
      </trkpt>
      <trkpt lat="47.27074" lon="-1.6736">
        <ele>40.3</ele>
        <time>2020-06-07T13:28:53Z</time>
      </trkpt>
      <trkpt lat="47.27073" lon="-1.6736">
        <ele>40.2</ele>
        <time>2020-06-07T13:28:54Z</time>
      </trkpt>
      <trkpt lat="47.27072" lon="-1.6736">
        <ele>40</ele>
        <time>2020-06-07T13:28:55Z</time>
      </trkpt>
      <trkpt lat="47.27071" lon="-1.6736">
        <ele>39.9</ele>
        <time>2020-06-07T13:28:56Z</time>
      </trkpt>
      <trkpt lat="47.2707" lon="-1.6736">
        <ele>39.7</ele>
        <time>2020-06-07T13:28:57Z</time>
      </trkpt>
      <trkpt lat="47.27069" lon="-1.6736">
        <ele>38.3</ele>
        <time>2020-06-07T13:28:58Z</time>
      </trkpt>
      <trkpt lat="47.27069" lon="-1.6736">
        <ele>38.2</ele>
        <time>2020-06-07T13:28:59Z</time>
      </trkpt>
      <trkpt lat="47.27068" lon="-1.6736">
        <ele>38.2</ele>
        <time>2020-06-07T13:29:00Z</time>
      </trkpt>
      <trkpt lat="47.27068" lon="-1.6736">
        <ele>38.2</ele>
        <time>2020-06-07T13:29:01Z</time>
      </trkpt>
      <trkpt lat="47.27067" lon="-1.67362">
        <ele>38.2</ele>
        <time>2020-06-07T13:29:02Z</time>
      </trkpt>
      <trkpt lat="47.27067" lon="-1.67363">
        <ele>38.1</ele>
        <time>2020-06-07T13:29:03Z</time>
      </trkpt>
      <trkpt lat="47.27066" lon="-1.67364">
        <ele>38.1</ele>
        <time>2020-06-07T13:29:04Z</time>
      </trkpt>
      <trkpt lat="47.27067" lon="-1.67365">
        <ele>38.1</ele>
        <time>2020-06-07T13:29:05Z</time>
      </trkpt>
      <trkpt lat="47.27067" lon="-1.67366">
        <ele>38.1</ele>
        <time>2020-06-07T13:29:06Z</time>
      </trkpt>
      <trkpt lat="47.27068" lon="-1.67367">
        <ele>38</ele>
        <time>2020-06-07T13:29:07Z</time>
      </trkpt>
      <trkpt lat="47.27068" lon="-1.67368">
        <ele>38</ele>
        <time>2020-06-07T13:29:08Z</time>
      </trkpt>
      <trkpt lat="47.27068" lon="-1.6737">
        <ele>38</ele>
        <time>2020-06-07T13:29:09Z</time>
      </trkpt>
      <trkpt lat="47.27068" lon="-1.67371">
        <ele>37.9</ele>
        <time>2020-06-07T13:29:10Z</time>
      </trkpt>
      <trkpt lat="47.27068" lon="-1.67373">
        <ele>37.9</ele>
        <time>2020-06-07T13:29:11Z</time>
      </trkpt>
      <trkpt lat="47.27069" lon="-1.67374">
        <ele>37.9</ele>
        <time>2020-06-07T13:29:12Z</time>
      </trkpt>
      <trkpt lat="47.27069" lon="-1.67376">
        <ele>37.9</ele>
        <time>2020-06-07T13:29:13Z</time>
      </trkpt>
      <trkpt lat="47.27069" lon="-1.67377">
        <ele>37.9</ele>
        <time>2020-06-07T13:29:14Z</time>
      </trkpt>
      <trkpt lat="47.27069" lon="-1.67378">
        <ele>37.8</ele>
        <time>2020-06-07T13:29:15Z</time>
      </trkpt>
      <trkpt lat="47.27069" lon="-1.6738">
        <ele>37.8</ele>
        <time>2020-06-07T13:29:16Z</time>
      </trkpt>
      <trkpt lat="47.27069" lon="-1.67381">
        <ele>37.8</ele>
        <time>2020-06-07T13:29:17Z</time>
      </trkpt>
      <trkpt lat="47.27069" lon="-1.67383">
        <ele>37.8</ele>
        <time>2020-06-07T13:29:18Z</time>
      </trkpt>
      <trkpt lat="47.27069" lon="-1.67385">
        <ele>37.7</ele>
        <time>2020-06-07T13:29:19Z</time>
      </trkpt>
      <trkpt lat="47.2707" lon="-1.67386">
        <ele>37.7</ele>
        <time>2020-06-07T13:29:20Z</time>
      </trkpt>
      <trkpt lat="47.2707" lon="-1.67388">
        <ele>37.7</ele>
        <time>2020-06-07T13:29:21Z</time>
      </trkpt>
      <trkpt lat="47.27069" lon="-1.6739">
        <ele>37.7</ele>
        <time>2020-06-07T13:29:22Z</time>
      </trkpt>
      <trkpt lat="47.27069" lon="-1.67391">
        <ele>37.7</ele>
        <time>2020-06-07T13:29:23Z</time>
      </trkpt>
      <trkpt lat="47.27068" lon="-1.67393">
        <ele>37.7</ele>
        <time>2020-06-07T13:29:24Z</time>
      </trkpt>
      <trkpt lat="47.27068" lon="-1.67395">
        <ele>37.6</ele>
        <time>2020-06-07T13:29:25Z</time>
      </trkpt>
      <trkpt lat="47.27067" lon="-1.67396">
        <ele>37.6</ele>
        <time>2020-06-07T13:29:26Z</time>
      </trkpt>
      <trkpt lat="47.27067" lon="-1.67397">
        <ele>37.6</ele>
        <time>2020-06-07T13:29:27Z</time>
      </trkpt>
      <trkpt lat="47.27068" lon="-1.67399">
        <ele>37.6</ele>
        <time>2020-06-07T13:29:28Z</time>
      </trkpt>
      <trkpt lat="47.27068" lon="-1.67401">
        <ele>37.6</ele>
        <time>2020-06-07T13:29:29Z</time>
      </trkpt>
      <trkpt lat="47.27069" lon="-1.67403">
        <ele>37.6</ele>
        <time>2020-06-07T13:29:30Z</time>
      </trkpt>
      <trkpt lat="47.2707" lon="-1.67404">
        <ele>37.6</ele>
        <time>2020-06-07T13:29:31Z</time>
      </trkpt>
      <trkpt lat="47.2707" lon="-1.67405">
        <ele>37.6</ele>
        <time>2020-06-07T13:29:32Z</time>
      </trkpt>
      <trkpt lat="47.27071" lon="-1.67406">
        <ele>37.6</ele>
        <time>2020-06-07T13:29:33Z</time>
      </trkpt>
      <trkpt lat="47.27072" lon="-1.67407">
        <ele>37.6</ele>
        <time>2020-06-07T13:29:34Z</time>
      </trkpt>
      <trkpt lat="47.27072" lon="-1.67408">
        <ele>37.6</ele>
        <time>2020-06-07T13:29:35Z</time>
      </trkpt>
      <trkpt lat="47.27072" lon="-1.6741">
        <ele>37.6</ele>
        <time>2020-06-07T13:29:36Z</time>
      </trkpt>
      <trkpt lat="47.27072" lon="-1.67411">
        <ele>37.6</ele>
        <time>2020-06-07T13:29:37Z</time>
      </trkpt>
      <trkpt lat="47.27072" lon="-1.67412">
        <ele>37.6</ele>
        <time>2020-06-07T13:29:38Z</time>
      </trkpt>
      <trkpt lat="47.27072" lon="-1.67413">
        <ele>37.7</ele>
        <time>2020-06-07T13:29:39Z</time>
      </trkpt>
      <trkpt lat="47.27073" lon="-1.67414">
        <ele>37.7</ele>
        <time>2020-06-07T13:29:40Z</time>
      </trkpt>
      <trkpt lat="47.27074" lon="-1.67415">
        <ele>37.7</ele>
        <time>2020-06-07T13:29:41Z</time>
      </trkpt>
      <trkpt lat="47.27075" lon="-1.67416">
        <ele>37.7</ele>
        <time>2020-06-07T13:29:42Z</time>
      </trkpt>
      <trkpt lat="47.27075" lon="-1.67418">
        <ele>37.7</ele>
        <time>2020-06-07T13:29:43Z</time>
      </trkpt>
      <trkpt lat="47.27075" lon="-1.67419">
        <ele>37.7</ele>
        <time>2020-06-07T13:29:44Z</time>
      </trkpt>
      <trkpt lat="47.27076" lon="-1.67421">
        <ele>37.7</ele>
        <time>2020-06-07T13:29:45Z</time>
      </trkpt>
      <trkpt lat="47.27076" lon="-1.67423">
        <ele>37.8</ele>
        <time>2020-06-07T13:29:46Z</time>
      </trkpt>
      <trkpt lat="47.27075" lon="-1.67424">
        <ele>37.8</ele>
        <time>2020-06-07T13:29:47Z</time>
      </trkpt>
      <trkpt lat="47.27075" lon="-1.67426">
        <ele>37.8</ele>
        <time>2020-06-07T13:29:48Z</time>
      </trkpt>
      <trkpt lat="47.27075" lon="-1.67428">
        <ele>37.8</ele>
        <time>2020-06-07T13:29:49Z</time>
      </trkpt>
      <trkpt lat="47.27075" lon="-1.67429">
        <ele>37.8</ele>
        <time>2020-06-07T13:29:50Z</time>
      </trkpt>
      <trkpt lat="47.27075" lon="-1.6743">
        <ele>37.8</ele>
        <time>2020-06-07T13:29:51Z</time>
      </trkpt>
      <trkpt lat="47.27075" lon="-1.67431">
        <ele>37.9</ele>
        <time>2020-06-07T13:29:52Z</time>
      </trkpt>
      <trkpt lat="47.27075" lon="-1.67433">
        <ele>37.9</ele>
        <time>2020-06-07T13:29:53Z</time>
      </trkpt>
      <trkpt lat="47.27075" lon="-1.67435">
        <ele>37.9</ele>
        <time>2020-06-07T13:29:54Z</time>
      </trkpt>
      <trkpt lat="47.27076" lon="-1.67436">
        <ele>37.9</ele>
        <time>2020-06-07T13:29:55Z</time>
      </trkpt>
      <trkpt lat="47.27076" lon="-1.67438">
        <ele>38</ele>
        <time>2020-06-07T13:29:56Z</time>
      </trkpt>
      <trkpt lat="47.27076" lon="-1.67439">
        <ele>38</ele>
        <time>2020-06-07T13:29:57Z</time>
      </trkpt>
      <trkpt lat="47.27074" lon="-1.67441">
        <ele>38</ele>
        <time>2020-06-07T13:29:58Z</time>
      </trkpt>
      <trkpt lat="47.27073" lon="-1.67442">
        <ele>38</ele>
        <time>2020-06-07T13:29:59Z</time>
      </trkpt>
      <trkpt lat="47.27072" lon="-1.67443">
        <ele>38</ele>
        <time>2020-06-07T13:30:00Z</time>
      </trkpt>
      <trkpt lat="47.27071" lon="-1.67444">
        <ele>38.1</ele>
        <time>2020-06-07T13:30:01Z</time>
      </trkpt>
      <trkpt lat="47.2707" lon="-1.67445">
        <ele>38.1</ele>
        <time>2020-06-07T13:30:02Z</time>
      </trkpt>
      <trkpt lat="47.2707" lon="-1.67447">
        <ele>38.1</ele>
        <time>2020-06-07T13:30:03Z</time>
      </trkpt>
      <trkpt lat="47.27069" lon="-1.67448">
        <ele>38.1</ele>
        <time>2020-06-07T13:30:04Z</time>
      </trkpt>
      <trkpt lat="47.27069" lon="-1.6745">
        <ele>38.1</ele>
        <time>2020-06-07T13:30:05Z</time>
      </trkpt>
      <trkpt lat="47.27069" lon="-1.67451">
        <ele>38.2</ele>
        <time>2020-06-07T13:30:06Z</time>
      </trkpt>
      <trkpt lat="47.27069" lon="-1.67452">
        <ele>38.2</ele>
        <time>2020-06-07T13:30:07Z</time>
      </trkpt>
      <trkpt lat="47.27069" lon="-1.67454">
        <ele>38.2</ele>
        <time>2020-06-07T13:30:08Z</time>
      </trkpt>
      <trkpt lat="47.27069" lon="-1.67456">
        <ele>38.2</ele>
        <time>2020-06-07T13:30:09Z</time>
      </trkpt>
      <trkpt lat="47.27069" lon="-1.67457">
        <ele>38.2</ele>
        <time>2020-06-07T13:30:10Z</time>
      </trkpt>
      <trkpt lat="47.27069" lon="-1.67458">
        <ele>38.2</ele>
        <time>2020-06-07T13:30:11Z</time>
      </trkpt>
      <trkpt lat="47.27069" lon="-1.6746">
        <ele>38.2</ele>
        <time>2020-06-07T13:30:12Z</time>
      </trkpt>
      <trkpt lat="47.27069" lon="-1.67462">
        <ele>38.2</ele>
        <time>2020-06-07T13:30:13Z</time>
      </trkpt>
      <trkpt lat="47.27069" lon="-1.67463">
        <ele>38.2</ele>
        <time>2020-06-07T13:30:14Z</time>
      </trkpt>
      <trkpt lat="47.27069" lon="-1.67464">
        <ele>38.2</ele>
        <time>2020-06-07T13:30:15Z</time>
      </trkpt>
      <trkpt lat="47.27069" lon="-1.67465">
        <ele>38.2</ele>
        <time>2020-06-07T13:30:16Z</time>
      </trkpt>
      <trkpt lat="47.27069" lon="-1.67467">
        <ele>38.3</ele>
        <time>2020-06-07T13:30:17Z</time>
      </trkpt>
      <trkpt lat="47.27069" lon="-1.67468">
        <ele>38.3</ele>
        <time>2020-06-07T13:30:18Z</time>
      </trkpt>
      <trkpt lat="47.27069" lon="-1.6747">
        <ele>38.3</ele>
        <time>2020-06-07T13:30:19Z</time>
      </trkpt>
      <trkpt lat="47.27068" lon="-1.67472">
        <ele>38.3</ele>
        <time>2020-06-07T13:30:20Z</time>
      </trkpt>
      <trkpt lat="47.27068" lon="-1.67473">
        <ele>38.3</ele>
        <time>2020-06-07T13:30:21Z</time>
      </trkpt>
      <trkpt lat="47.27068" lon="-1.67475">
        <ele>38.3</ele>
        <time>2020-06-07T13:30:22Z</time>
      </trkpt>
      <trkpt lat="47.27068" lon="-1.67476">
        <ele>38.3</ele>
        <time>2020-06-07T13:30:23Z</time>
      </trkpt>
      <trkpt lat="47.27068" lon="-1.67478">
        <ele>38.3</ele>
        <time>2020-06-07T13:30:24Z</time>
      </trkpt>
      <trkpt lat="47.27068" lon="-1.6748">
        <ele>38.3</ele>
        <time>2020-06-07T13:30:25Z</time>
      </trkpt>
      <trkpt lat="47.27068" lon="-1.67481">
        <ele>38.3</ele>
        <time>2020-06-07T13:30:26Z</time>
      </trkpt>
      <trkpt lat="47.27068" lon="-1.67482">
        <ele>38.3</ele>
        <time>2020-06-07T13:30:27Z</time>
      </trkpt>
      <trkpt lat="47.27069" lon="-1.67485">
        <ele>38.4</ele>
        <time>2020-06-07T13:30:28Z</time>
      </trkpt>
      <trkpt lat="47.2707" lon="-1.67486">
        <ele>38.4</ele>
        <time>2020-06-07T13:30:29Z</time>
      </trkpt>
      <trkpt lat="47.2707" lon="-1.67487">
        <ele>38.4</ele>
        <time>2020-06-07T13:30:30Z</time>
      </trkpt>
      <trkpt lat="47.27071" lon="-1.67488">
        <ele>38.4</ele>
        <time>2020-06-07T13:30:31Z</time>
      </trkpt>
      <trkpt lat="47.27071" lon="-1.6749">
        <ele>38.4</ele>
        <time>2020-06-07T13:30:32Z</time>
      </trkpt>
      <trkpt lat="47.27072" lon="-1.67491">
        <ele>38.4</ele>
        <time>2020-06-07T13:30:33Z</time>
      </trkpt>
      <trkpt lat="47.27072" lon="-1.67493">
        <ele>38.4</ele>
        <time>2020-06-07T13:30:34Z</time>
      </trkpt>
      <trkpt lat="47.27072" lon="-1.67494">
        <ele>38.5</ele>
        <time>2020-06-07T13:30:35Z</time>
      </trkpt>
      <trkpt lat="47.27072" lon="-1.67495">
        <ele>38.5</ele>
        <time>2020-06-07T13:30:36Z</time>
      </trkpt>
      <trkpt lat="47.27073" lon="-1.67497">
        <ele>38.5</ele>
        <time>2020-06-07T13:30:37Z</time>
      </trkpt>
      <trkpt lat="47.27073" lon="-1.67498">
        <ele>38.5</ele>
        <time>2020-06-07T13:30:38Z</time>
      </trkpt>
      <trkpt lat="47.27074" lon="-1.67499">
        <ele>38.5</ele>
        <time>2020-06-07T13:30:39Z</time>
      </trkpt>
      <trkpt lat="47.27075" lon="-1.675">
        <ele>38.6</ele>
        <time>2020-06-07T13:30:40Z</time>
      </trkpt>
      <trkpt lat="47.27075" lon="-1.67502">
        <ele>38.6</ele>
        <time>2020-06-07T13:30:41Z</time>
      </trkpt>
      <trkpt lat="47.27075" lon="-1.67503">
        <ele>38.6</ele>
        <time>2020-06-07T13:30:42Z</time>
      </trkpt>
      <trkpt lat="47.27075" lon="-1.67505">
        <ele>38.6</ele>
        <time>2020-06-07T13:30:43Z</time>
      </trkpt>
      <trkpt lat="47.27076" lon="-1.67506">
        <ele>38.6</ele>
        <time>2020-06-07T13:30:44Z</time>
      </trkpt>
      <trkpt lat="47.27076" lon="-1.67507">
        <ele>38.6</ele>
        <time>2020-06-07T13:30:45Z</time>
      </trkpt>
      <trkpt lat="47.27076" lon="-1.67508">
        <ele>38.7</ele>
        <time>2020-06-07T13:30:46Z</time>
      </trkpt>
      <trkpt lat="47.27077" lon="-1.67508">
        <ele>38.7</ele>
        <time>2020-06-07T13:30:47Z</time>
      </trkpt>
      <trkpt lat="47.27078" lon="-1.67508">
        <ele>38.7</ele>
        <time>2020-06-07T13:30:48Z</time>
      </trkpt>
      <trkpt lat="47.27079" lon="-1.67509">
        <ele>38.7</ele>
        <time>2020-06-07T13:30:49Z</time>
      </trkpt>
      <trkpt lat="47.27079" lon="-1.6751">
        <ele>38.7</ele>
        <time>2020-06-07T13:30:50Z</time>
      </trkpt>
      <trkpt lat="47.27079" lon="-1.67512">
        <ele>38.7</ele>
        <time>2020-06-07T13:30:51Z</time>
      </trkpt>
      <trkpt lat="47.27079" lon="-1.67513">
        <ele>38.8</ele>
        <time>2020-06-07T13:30:52Z</time>
      </trkpt>
      <trkpt lat="47.27078" lon="-1.67515">
        <ele>38.8</ele>
        <time>2020-06-07T13:30:53Z</time>
      </trkpt>
      <trkpt lat="47.27078" lon="-1.67516">
        <ele>38.8</ele>
        <time>2020-06-07T13:30:54Z</time>
      </trkpt>
      <trkpt lat="47.27077" lon="-1.67517">
        <ele>38.8</ele>
        <time>2020-06-07T13:30:55Z</time>
      </trkpt>
      <trkpt lat="47.27077" lon="-1.67518">
        <ele>38.8</ele>
        <time>2020-06-07T13:30:56Z</time>
      </trkpt>
      <trkpt lat="47.27076" lon="-1.6752">
        <ele>38.8</ele>
        <time>2020-06-07T13:30:57Z</time>
      </trkpt>
      <trkpt lat="47.27076" lon="-1.67522">
        <ele>38.8</ele>
        <time>2020-06-07T13:30:58Z</time>
      </trkpt>
      <trkpt lat="47.27075" lon="-1.67523">
        <ele>38.8</ele>
        <time>2020-06-07T13:30:59Z</time>
      </trkpt>
      <trkpt lat="47.27075" lon="-1.67524">
        <ele>38.8</ele>
        <time>2020-06-07T13:31:00Z</time>
      </trkpt>
      <trkpt lat="47.27075" lon="-1.67525">
        <ele>38.8</ele>
        <time>2020-06-07T13:31:01Z</time>
      </trkpt>
      <trkpt lat="47.27076" lon="-1.67526">
        <ele>38.8</ele>
        <time>2020-06-07T13:31:02Z</time>
      </trkpt>
      <trkpt lat="47.27076" lon="-1.67528">
        <ele>38.8</ele>
        <time>2020-06-07T13:31:03Z</time>
      </trkpt>
      <trkpt lat="47.27075" lon="-1.6753">
        <ele>38.8</ele>
        <time>2020-06-07T13:31:04Z</time>
      </trkpt>
      <trkpt lat="47.27075" lon="-1.67532">
        <ele>38.8</ele>
        <time>2020-06-07T13:31:05Z</time>
      </trkpt>
      <trkpt lat="47.27074" lon="-1.67535">
        <ele>38.8</ele>
        <time>2020-06-07T13:31:06Z</time>
      </trkpt>
      <trkpt lat="47.27074" lon="-1.67536">
        <ele>38.8</ele>
        <time>2020-06-07T13:31:07Z</time>
      </trkpt>
      <trkpt lat="47.27074" lon="-1.67537">
        <ele>38.8</ele>
        <time>2020-06-07T13:31:08Z</time>
      </trkpt>
      <trkpt lat="47.27074" lon="-1.67539">
        <ele>38.8</ele>
        <time>2020-06-07T13:31:09Z</time>
      </trkpt>
      <trkpt lat="47.27074" lon="-1.6754">
        <ele>38.8</ele>
        <time>2020-06-07T13:31:10Z</time>
      </trkpt>
      <trkpt lat="47.27075" lon="-1.67541">
        <ele>38.8</ele>
        <time>2020-06-07T13:31:11Z</time>
      </trkpt>
      <trkpt lat="47.27075" lon="-1.67542">
        <ele>38.7</ele>
        <time>2020-06-07T13:31:12Z</time>
      </trkpt>
      <trkpt lat="47.27075" lon="-1.67543">
        <ele>38.7</ele>
        <time>2020-06-07T13:31:13Z</time>
      </trkpt>
      <trkpt lat="47.27075" lon="-1.67544">
        <ele>38.7</ele>
        <time>2020-06-07T13:31:14Z</time>
      </trkpt>
      <trkpt lat="47.27076" lon="-1.67545">
        <ele>38.7</ele>
        <time>2020-06-07T13:31:15Z</time>
      </trkpt>
      <trkpt lat="47.27076" lon="-1.67546">
        <ele>38.7</ele>
        <time>2020-06-07T13:31:16Z</time>
      </trkpt>
      <trkpt lat="47.27078" lon="-1.67548">
        <ele>38.7</ele>
        <time>2020-06-07T13:31:17Z</time>
      </trkpt>
      <trkpt lat="47.27078" lon="-1.67549">
        <ele>38.7</ele>
        <time>2020-06-07T13:31:18Z</time>
      </trkpt>
      <trkpt lat="47.27079" lon="-1.6755">
        <ele>38.7</ele>
        <time>2020-06-07T13:31:19Z</time>
      </trkpt>
      <trkpt lat="47.2708" lon="-1.67551">
        <ele>38.7</ele>
        <time>2020-06-07T13:31:20Z</time>
      </trkpt>
      <trkpt lat="47.2708" lon="-1.67552">
        <ele>38.7</ele>
        <time>2020-06-07T13:31:21Z</time>
      </trkpt>
      <trkpt lat="47.2708" lon="-1.67552">
        <ele>38.7</ele>
        <time>2020-06-07T13:31:22Z</time>
      </trkpt>
      <trkpt lat="47.2708" lon="-1.67553">
        <ele>38.7</ele>
        <time>2020-06-07T13:31:23Z</time>
      </trkpt>
      <trkpt lat="47.27081" lon="-1.67554">
        <ele>38.7</ele>
        <time>2020-06-07T13:31:24Z</time>
      </trkpt>
      <trkpt lat="47.27081" lon="-1.67556">
        <ele>38.7</ele>
        <time>2020-06-07T13:31:25Z</time>
      </trkpt>
      <trkpt lat="47.27082" lon="-1.67557">
        <ele>38.7</ele>
        <time>2020-06-07T13:31:26Z</time>
      </trkpt>
      <trkpt lat="47.27082" lon="-1.67558">
        <ele>38.7</ele>
        <time>2020-06-07T13:31:27Z</time>
      </trkpt>
      <trkpt lat="47.27083" lon="-1.67559">
        <ele>38.7</ele>
        <time>2020-06-07T13:31:28Z</time>
      </trkpt>
      <trkpt lat="47.27084" lon="-1.6756">
        <ele>38.6</ele>
        <time>2020-06-07T13:31:29Z</time>
      </trkpt>
      <trkpt lat="47.27084" lon="-1.67562">
        <ele>38.6</ele>
        <time>2020-06-07T13:31:30Z</time>
      </trkpt>
      <trkpt lat="47.27085" lon="-1.67563">
        <ele>38.6</ele>
        <time>2020-06-07T13:31:31Z</time>
      </trkpt>
      <trkpt lat="47.27086" lon="-1.67564">
        <ele>38.6</ele>
        <time>2020-06-07T13:31:32Z</time>
      </trkpt>
      <trkpt lat="47.27086" lon="-1.67565">
        <ele>38.6</ele>
        <time>2020-06-07T13:31:33Z</time>
      </trkpt>
      <trkpt lat="47.27087" lon="-1.67567">
        <ele>38.6</ele>
        <time>2020-06-07T13:31:34Z</time>
      </trkpt>
      <trkpt lat="47.27088" lon="-1.67568">
        <ele>38.6</ele>
        <time>2020-06-07T13:31:35Z</time>
      </trkpt>
      <trkpt lat="47.27088" lon="-1.6757">
        <ele>38.6</ele>
        <time>2020-06-07T13:31:36Z</time>
      </trkpt>
      <trkpt lat="47.27089" lon="-1.67571">
        <ele>38.6</ele>
        <time>2020-06-07T13:31:37Z</time>
      </trkpt>
      <trkpt lat="47.27089" lon="-1.67573">
        <ele>38.7</ele>
        <time>2020-06-07T13:31:38Z</time>
      </trkpt>
      <trkpt lat="47.2709" lon="-1.67574">
        <ele>38.7</ele>
        <time>2020-06-07T13:31:39Z</time>
      </trkpt>
      <trkpt lat="47.2709" lon="-1.67576">
        <ele>38.7</ele>
        <time>2020-06-07T13:31:40Z</time>
      </trkpt>
      <trkpt lat="47.27091" lon="-1.67577">
        <ele>38.7</ele>
        <time>2020-06-07T13:31:41Z</time>
      </trkpt>
      <trkpt lat="47.27091" lon="-1.67578">
        <ele>38.7</ele>
        <time>2020-06-07T13:31:42Z</time>
      </trkpt>
      <trkpt lat="47.27092" lon="-1.67579">
        <ele>38.7</ele>
        <time>2020-06-07T13:31:43Z</time>
      </trkpt>
      <trkpt lat="47.27092" lon="-1.67581">
        <ele>38.7</ele>
        <time>2020-06-07T13:31:44Z</time>
      </trkpt>
      <trkpt lat="47.27092" lon="-1.67582">
        <ele>38.7</ele>
        <time>2020-06-07T13:31:45Z</time>
      </trkpt>
      <trkpt lat="47.27092" lon="-1.67583">
        <ele>38.7</ele>
        <time>2020-06-07T13:31:46Z</time>
      </trkpt>
      <trkpt lat="47.27092" lon="-1.67584">
        <ele>38.7</ele>
        <time>2020-06-07T13:31:47Z</time>
      </trkpt>
      <trkpt lat="47.27092" lon="-1.67586">
        <ele>38.7</ele>
        <time>2020-06-07T13:31:48Z</time>
      </trkpt>
      <trkpt lat="47.27093" lon="-1.67588">
        <ele>38.7</ele>
        <time>2020-06-07T13:31:49Z</time>
      </trkpt>
      <trkpt lat="47.27093" lon="-1.67589">
        <ele>38.7</ele>
        <time>2020-06-07T13:31:50Z</time>
      </trkpt>
      <trkpt lat="47.27093" lon="-1.67591">
        <ele>38.7</ele>
        <time>2020-06-07T13:31:51Z</time>
      </trkpt>
      <trkpt lat="47.27093" lon="-1.67592">
        <ele>38.7</ele>
        <time>2020-06-07T13:31:52Z</time>
      </trkpt>
      <trkpt lat="47.27093" lon="-1.67593">
        <ele>38.7</ele>
        <time>2020-06-07T13:31:53Z</time>
      </trkpt>
      <trkpt lat="47.27093" lon="-1.67595">
        <ele>38.7</ele>
        <time>2020-06-07T13:31:54Z</time>
      </trkpt>
      <trkpt lat="47.27093" lon="-1.67597">
        <ele>38.7</ele>
        <time>2020-06-07T13:31:55Z</time>
      </trkpt>
      <trkpt lat="47.27093" lon="-1.67598">
        <ele>38.7</ele>
        <time>2020-06-07T13:31:56Z</time>
      </trkpt>
      <trkpt lat="47.27094" lon="-1.67599">
        <ele>38.7</ele>
        <time>2020-06-07T13:31:57Z</time>
      </trkpt>
      <trkpt lat="47.27094" lon="-1.676">
        <ele>38.7</ele>
        <time>2020-06-07T13:31:58Z</time>
      </trkpt>
      <trkpt lat="47.27095" lon="-1.67601">
        <ele>38.7</ele>
        <time>2020-06-07T13:31:59Z</time>
      </trkpt>
      <trkpt lat="47.27095" lon="-1.67602">
        <ele>38.7</ele>
        <time>2020-06-07T13:32:00Z</time>
      </trkpt>
      <trkpt lat="47.27096" lon="-1.67603">
        <ele>38.7</ele>
        <time>2020-06-07T13:32:01Z</time>
      </trkpt>
      <trkpt lat="47.27096" lon="-1.67604">
        <ele>38.7</ele>
        <time>2020-06-07T13:32:02Z</time>
      </trkpt>
      <trkpt lat="47.27096" lon="-1.67606">
        <ele>38.7</ele>
        <time>2020-06-07T13:32:03Z</time>
      </trkpt>
      <trkpt lat="47.27097" lon="-1.67606">
        <ele>38.7</ele>
        <time>2020-06-07T13:32:04Z</time>
      </trkpt>
      <trkpt lat="47.27097" lon="-1.67607">
        <ele>38.7</ele>
        <time>2020-06-07T13:32:05Z</time>
      </trkpt>
      <trkpt lat="47.27098" lon="-1.67608">
        <ele>38.7</ele>
        <time>2020-06-07T13:32:06Z</time>
      </trkpt>
      <trkpt lat="47.27098" lon="-1.6761">
        <ele>38.7</ele>
        <time>2020-06-07T13:32:07Z</time>
      </trkpt>
      <trkpt lat="47.27099" lon="-1.67611">
        <ele>38.7</ele>
        <time>2020-06-07T13:32:08Z</time>
      </trkpt>
      <trkpt lat="47.27099" lon="-1.67612">
        <ele>38.7</ele>
        <time>2020-06-07T13:32:09Z</time>
      </trkpt>
      <trkpt lat="47.271" lon="-1.67613">
        <ele>38.8</ele>
        <time>2020-06-07T13:32:10Z</time>
      </trkpt>
      <trkpt lat="47.271" lon="-1.67614">
        <ele>38.8</ele>
        <time>2020-06-07T13:32:11Z</time>
      </trkpt>
      <trkpt lat="47.271" lon="-1.67615">
        <ele>38.8</ele>
        <time>2020-06-07T13:32:12Z</time>
      </trkpt>
      <trkpt lat="47.271" lon="-1.67616">
        <ele>38.8</ele>
        <time>2020-06-07T13:32:13Z</time>
      </trkpt>
      <trkpt lat="47.271" lon="-1.67617">
        <ele>38.8</ele>
        <time>2020-06-07T13:32:14Z</time>
      </trkpt>
      <trkpt lat="47.271" lon="-1.67618">
        <ele>38.8</ele>
        <time>2020-06-07T13:32:15Z</time>
      </trkpt>
      <trkpt lat="47.27101" lon="-1.6762">
        <ele>38.8</ele>
        <time>2020-06-07T13:32:16Z</time>
      </trkpt>
      <trkpt lat="47.27101" lon="-1.67621">
        <ele>38.8</ele>
        <time>2020-06-07T13:32:17Z</time>
      </trkpt>
      <trkpt lat="47.27102" lon="-1.67622">
        <ele>38.8</ele>
        <time>2020-06-07T13:32:18Z</time>
      </trkpt>
      <trkpt lat="47.27102" lon="-1.67624">
        <ele>38.8</ele>
        <time>2020-06-07T13:32:19Z</time>
      </trkpt>
      <trkpt lat="47.27102" lon="-1.67625">
        <ele>38.8</ele>
        <time>2020-06-07T13:32:20Z</time>
      </trkpt>
      <trkpt lat="47.27102" lon="-1.67625">
        <ele>38.8</ele>
        <time>2020-06-07T13:32:21Z</time>
      </trkpt>
      <trkpt lat="47.27102" lon="-1.67626">
        <ele>38.8</ele>
        <time>2020-06-07T13:32:22Z</time>
      </trkpt>
      <trkpt lat="47.27102" lon="-1.67627">
        <ele>38.8</ele>
        <time>2020-06-07T13:32:23Z</time>
      </trkpt>
      <trkpt lat="47.27102" lon="-1.67628">
        <ele>38.8</ele>
        <time>2020-06-07T13:32:24Z</time>
      </trkpt>
      <trkpt lat="47.27102" lon="-1.67629">
        <ele>38.8</ele>
        <time>2020-06-07T13:32:25Z</time>
      </trkpt>
      <trkpt lat="47.27102" lon="-1.67631">
        <ele>38.8</ele>
        <time>2020-06-07T13:32:26Z</time>
      </trkpt>
      <trkpt lat="47.27103" lon="-1.67632">
        <ele>38.9</ele>
        <time>2020-06-07T13:32:27Z</time>
      </trkpt>
      <trkpt lat="47.27103" lon="-1.67634">
        <ele>38.9</ele>
        <time>2020-06-07T13:32:28Z</time>
      </trkpt>
      <trkpt lat="47.27103" lon="-1.67635">
        <ele>38.9</ele>
        <time>2020-06-07T13:32:29Z</time>
      </trkpt>
      <trkpt lat="47.27104" lon="-1.67637">
        <ele>38.9</ele>
        <time>2020-06-07T13:32:30Z</time>
      </trkpt>
      <trkpt lat="47.27104" lon="-1.67638">
        <ele>38.9</ele>
        <time>2020-06-07T13:32:31Z</time>
      </trkpt>
      <trkpt lat="47.27103" lon="-1.6764">
        <ele>38.9</ele>
        <time>2020-06-07T13:32:32Z</time>
      </trkpt>
      <trkpt lat="47.27103" lon="-1.67641">
        <ele>38.9</ele>
        <time>2020-06-07T13:32:33Z</time>
      </trkpt>
      <trkpt lat="47.27103" lon="-1.67643">
        <ele>39</ele>
        <time>2020-06-07T13:32:34Z</time>
      </trkpt>
      <trkpt lat="47.27104" lon="-1.67645">
        <ele>39</ele>
        <time>2020-06-07T13:32:35Z</time>
      </trkpt>
      <trkpt lat="47.27104" lon="-1.67646">
        <ele>39</ele>
        <time>2020-06-07T13:32:36Z</time>
      </trkpt>
      <trkpt lat="47.27105" lon="-1.67647">
        <ele>39</ele>
        <time>2020-06-07T13:32:37Z</time>
      </trkpt>
      <trkpt lat="47.27105" lon="-1.67648">
        <ele>39</ele>
        <time>2020-06-07T13:32:38Z</time>
      </trkpt>
      <trkpt lat="47.27106" lon="-1.6765">
        <ele>39</ele>
        <time>2020-06-07T13:32:39Z</time>
      </trkpt>
      <trkpt lat="47.27107" lon="-1.67652">
        <ele>39.1</ele>
        <time>2020-06-07T13:32:40Z</time>
      </trkpt>
      <trkpt lat="47.27108" lon="-1.67654">
        <ele>39.1</ele>
        <time>2020-06-07T13:32:41Z</time>
      </trkpt>
      <trkpt lat="47.27109" lon="-1.67656">
        <ele>39.1</ele>
        <time>2020-06-07T13:32:42Z</time>
      </trkpt>
      <trkpt lat="47.2711" lon="-1.67658">
        <ele>39.2</ele>
        <time>2020-06-07T13:32:43Z</time>
      </trkpt>
      <trkpt lat="47.2711" lon="-1.6766">
        <ele>39.2</ele>
        <time>2020-06-07T13:32:44Z</time>
      </trkpt>
      <trkpt lat="47.27111" lon="-1.67661">
        <ele>39.2</ele>
        <time>2020-06-07T13:32:45Z</time>
      </trkpt>
      <trkpt lat="47.27111" lon="-1.67663">
        <ele>39.2</ele>
        <time>2020-06-07T13:32:46Z</time>
      </trkpt>
      <trkpt lat="47.27111" lon="-1.67664">
        <ele>39.3</ele>
        <time>2020-06-07T13:32:47Z</time>
      </trkpt>
      <trkpt lat="47.27111" lon="-1.67665">
        <ele>39.3</ele>
        <time>2020-06-07T13:32:48Z</time>
      </trkpt>
      <trkpt lat="47.27111" lon="-1.67666">
        <ele>39.3</ele>
        <time>2020-06-07T13:32:49Z</time>
      </trkpt>
      <trkpt lat="47.2711" lon="-1.67667">
        <ele>39.3</ele>
        <time>2020-06-07T13:32:50Z</time>
      </trkpt>
      <trkpt lat="47.2711" lon="-1.67669">
        <ele>39.3</ele>
        <time>2020-06-07T13:32:51Z</time>
      </trkpt>
      <trkpt lat="47.2711" lon="-1.6767">
        <ele>39.3</ele>
        <time>2020-06-07T13:32:52Z</time>
      </trkpt>
      <trkpt lat="47.2711" lon="-1.67671">
        <ele>39.4</ele>
        <time>2020-06-07T13:32:53Z</time>
      </trkpt>
      <trkpt lat="47.2711" lon="-1.67672">
        <ele>39.4</ele>
        <time>2020-06-07T13:32:54Z</time>
      </trkpt>
      <trkpt lat="47.2711" lon="-1.67674">
        <ele>39.4</ele>
        <time>2020-06-07T13:32:55Z</time>
      </trkpt>
      <trkpt lat="47.2711" lon="-1.67675">
        <ele>39.4</ele>
        <time>2020-06-07T13:32:56Z</time>
      </trkpt>
      <trkpt lat="47.2711" lon="-1.67675">
        <ele>39.4</ele>
        <time>2020-06-07T13:32:57Z</time>
      </trkpt>
      <trkpt lat="47.2711" lon="-1.67677">
        <ele>39.4</ele>
        <time>2020-06-07T13:32:58Z</time>
      </trkpt>
      <trkpt lat="47.27111" lon="-1.67678">
        <ele>39.4</ele>
        <time>2020-06-07T13:32:59Z</time>
      </trkpt>
      <trkpt lat="47.27111" lon="-1.6768">
        <ele>39.5</ele>
        <time>2020-06-07T13:33:00Z</time>
      </trkpt>
      <trkpt lat="47.2711" lon="-1.67681">
        <ele>39.5</ele>
        <time>2020-06-07T13:33:01Z</time>
      </trkpt>
      <trkpt lat="47.2711" lon="-1.67684">
        <ele>39.5</ele>
        <time>2020-06-07T13:33:02Z</time>
      </trkpt>
      <trkpt lat="47.2711" lon="-1.67685">
        <ele>39.5</ele>
        <time>2020-06-07T13:33:03Z</time>
      </trkpt>
      <trkpt lat="47.27109" lon="-1.67686">
        <ele>39.5</ele>
        <time>2020-06-07T13:33:04Z</time>
      </trkpt>
      <trkpt lat="47.27109" lon="-1.67687">
        <ele>39.6</ele>
        <time>2020-06-07T13:33:05Z</time>
      </trkpt>
      <trkpt lat="47.27109" lon="-1.67689">
        <ele>39.6</ele>
        <time>2020-06-07T13:33:06Z</time>
      </trkpt>
      <trkpt lat="47.27109" lon="-1.67691">
        <ele>39.6</ele>
        <time>2020-06-07T13:33:07Z</time>
      </trkpt>
      <trkpt lat="47.27109" lon="-1.67692">
        <ele>39.6</ele>
        <time>2020-06-07T13:33:08Z</time>
      </trkpt>
      <trkpt lat="47.2711" lon="-1.67693">
        <ele>39.7</ele>
        <time>2020-06-07T13:33:09Z</time>
      </trkpt>
      <trkpt lat="47.2711" lon="-1.67695">
        <ele>39.7</ele>
        <time>2020-06-07T13:33:10Z</time>
      </trkpt>
      <trkpt lat="47.2711" lon="-1.67696">
        <ele>39.7</ele>
        <time>2020-06-07T13:33:11Z</time>
      </trkpt>
      <trkpt lat="47.2711" lon="-1.67697">
        <ele>39.7</ele>
        <time>2020-06-07T13:33:12Z</time>
      </trkpt>
      <trkpt lat="47.2711" lon="-1.67698">
        <ele>39.7</ele>
        <time>2020-06-07T13:33:13Z</time>
      </trkpt>
      <trkpt lat="47.2711" lon="-1.67699">
        <ele>39.7</ele>
        <time>2020-06-07T13:33:14Z</time>
      </trkpt>
      <trkpt lat="47.27111" lon="-1.677">
        <ele>39.8</ele>
        <time>2020-06-07T13:33:15Z</time>
      </trkpt>
      <trkpt lat="47.27111" lon="-1.67702">
        <ele>39.8</ele>
        <time>2020-06-07T13:33:16Z</time>
      </trkpt>
      <trkpt lat="47.27111" lon="-1.67703">
        <ele>39.8</ele>
        <time>2020-06-07T13:33:17Z</time>
      </trkpt>
      <trkpt lat="47.27111" lon="-1.67705">
        <ele>39.8</ele>
        <time>2020-06-07T13:33:18Z</time>
      </trkpt>
      <trkpt lat="47.27111" lon="-1.67706">
        <ele>39.8</ele>
        <time>2020-06-07T13:33:19Z</time>
      </trkpt>
      <trkpt lat="47.2711" lon="-1.67708">
        <ele>39.9</ele>
        <time>2020-06-07T13:33:20Z</time>
      </trkpt>
      <trkpt lat="47.2711" lon="-1.67709">
        <ele>39.9</ele>
        <time>2020-06-07T13:33:21Z</time>
      </trkpt>
      <trkpt lat="47.2711" lon="-1.6771">
        <ele>39.9</ele>
        <time>2020-06-07T13:33:22Z</time>
      </trkpt>
      <trkpt lat="47.2711" lon="-1.67711">
        <ele>39.9</ele>
        <time>2020-06-07T13:33:23Z</time>
      </trkpt>
      <trkpt lat="47.2711" lon="-1.67713">
        <ele>40</ele>
        <time>2020-06-07T13:33:24Z</time>
      </trkpt>
      <trkpt lat="47.2711" lon="-1.67714">
        <ele>40</ele>
        <time>2020-06-07T13:33:25Z</time>
      </trkpt>
      <trkpt lat="47.2711" lon="-1.67715">
        <ele>40</ele>
        <time>2020-06-07T13:33:26Z</time>
      </trkpt>
      <trkpt lat="47.2711" lon="-1.67717">
        <ele>40</ele>
        <time>2020-06-07T13:33:27Z</time>
      </trkpt>
      <trkpt lat="47.27109" lon="-1.67719">
        <ele>40.1</ele>
        <time>2020-06-07T13:33:28Z</time>
      </trkpt>
      <trkpt lat="47.27108" lon="-1.6772">
        <ele>40.1</ele>
        <time>2020-06-07T13:33:29Z</time>
      </trkpt>
      <trkpt lat="47.27108" lon="-1.67722">
        <ele>40.1</ele>
        <time>2020-06-07T13:33:30Z</time>
      </trkpt>
      <trkpt lat="47.27107" lon="-1.67723">
        <ele>40.1</ele>
        <time>2020-06-07T13:33:31Z</time>
      </trkpt>
      <trkpt lat="47.27107" lon="-1.67725">
        <ele>40.2</ele>
        <time>2020-06-07T13:33:32Z</time>
      </trkpt>
      <trkpt lat="47.27107" lon="-1.67726">
        <ele>40.2</ele>
        <time>2020-06-07T13:33:33Z</time>
      </trkpt>
      <trkpt lat="47.27107" lon="-1.67727">
        <ele>40.2</ele>
        <time>2020-06-07T13:33:34Z</time>
      </trkpt>
      <trkpt lat="47.27107" lon="-1.67729">
        <ele>40.2</ele>
        <time>2020-06-07T13:33:35Z</time>
      </trkpt>
      <trkpt lat="47.27107" lon="-1.67731">
        <ele>40.3</ele>
        <time>2020-06-07T13:33:36Z</time>
      </trkpt>
      <trkpt lat="47.27107" lon="-1.67732">
        <ele>40.3</ele>
        <time>2020-06-07T13:33:37Z</time>
      </trkpt>
      <trkpt lat="47.27107" lon="-1.67733">
        <ele>40.3</ele>
        <time>2020-06-07T13:33:38Z</time>
      </trkpt>
      <trkpt lat="47.27106" lon="-1.67734">
        <ele>40.3</ele>
        <time>2020-06-07T13:33:39Z</time>
      </trkpt>
      <trkpt lat="47.27106" lon="-1.67736">
        <ele>40.3</ele>
        <time>2020-06-07T13:33:40Z</time>
      </trkpt>
      <trkpt lat="47.27105" lon="-1.67737">
        <ele>40.3</ele>
        <time>2020-06-07T13:33:41Z</time>
      </trkpt>
      <trkpt lat="47.27105" lon="-1.67739">
        <ele>40.4</ele>
        <time>2020-06-07T13:33:42Z</time>
      </trkpt>
      <trkpt lat="47.27104" lon="-1.6774">
        <ele>40.4</ele>
        <time>2020-06-07T13:33:43Z</time>
      </trkpt>
      <trkpt lat="47.27103" lon="-1.67742">
        <ele>40.4</ele>
        <time>2020-06-07T13:33:44Z</time>
      </trkpt>
      <trkpt lat="47.27103" lon="-1.67743">
        <ele>40.4</ele>
        <time>2020-06-07T13:33:45Z</time>
      </trkpt>
      <trkpt lat="47.27103" lon="-1.67744">
        <ele>40.4</ele>
        <time>2020-06-07T13:33:46Z</time>
      </trkpt>
      <trkpt lat="47.27103" lon="-1.67745">
        <ele>40.4</ele>
        <time>2020-06-07T13:33:47Z</time>
      </trkpt>
      <trkpt lat="47.27102" lon="-1.67746">
        <ele>40.4</ele>
        <time>2020-06-07T13:33:48Z</time>
      </trkpt>
      <trkpt lat="47.27102" lon="-1.67747">
        <ele>40.4</ele>
        <time>2020-06-07T13:33:49Z</time>
      </trkpt>
      <trkpt lat="47.27102" lon="-1.67748">
        <ele>40.4</ele>
        <time>2020-06-07T13:33:50Z</time>
      </trkpt>
      <trkpt lat="47.27102" lon="-1.6775">
        <ele>40.4</ele>
        <time>2020-06-07T13:33:51Z</time>
      </trkpt>
      <trkpt lat="47.27102" lon="-1.67751">
        <ele>40.4</ele>
        <time>2020-06-07T13:33:52Z</time>
      </trkpt>
      <trkpt lat="47.27102" lon="-1.67752">
        <ele>40.4</ele>
        <time>2020-06-07T13:33:53Z</time>
      </trkpt>
      <trkpt lat="47.27102" lon="-1.67753">
        <ele>40.4</ele>
        <time>2020-06-07T13:33:54Z</time>
      </trkpt>
      <trkpt lat="47.27102" lon="-1.67754">
        <ele>40.5</ele>
        <time>2020-06-07T13:33:55Z</time>
      </trkpt>
      <trkpt lat="47.27102" lon="-1.67756">
        <ele>40.5</ele>
        <time>2020-06-07T13:33:56Z</time>
      </trkpt>
      <trkpt lat="47.27101" lon="-1.67757">
        <ele>40.5</ele>
        <time>2020-06-07T13:33:57Z</time>
      </trkpt>
      <trkpt lat="47.271" lon="-1.67758">
        <ele>40.5</ele>
        <time>2020-06-07T13:33:58Z</time>
      </trkpt>
      <trkpt lat="47.27099" lon="-1.67759">
        <ele>40.5</ele>
        <time>2020-06-07T13:33:59Z</time>
      </trkpt>
      <trkpt lat="47.27099" lon="-1.67761">
        <ele>40.5</ele>
        <time>2020-06-07T13:34:00Z</time>
      </trkpt>
      <trkpt lat="47.27098" lon="-1.67762">
        <ele>40.5</ele>
        <time>2020-06-07T13:34:01Z</time>
      </trkpt>
      <trkpt lat="47.27098" lon="-1.67763">
        <ele>40.5</ele>
        <time>2020-06-07T13:34:02Z</time>
      </trkpt>
      <trkpt lat="47.27097" lon="-1.67765">
        <ele>40.5</ele>
        <time>2020-06-07T13:34:03Z</time>
      </trkpt>
      <trkpt lat="47.27097" lon="-1.67766">
        <ele>40.5</ele>
        <time>2020-06-07T13:34:04Z</time>
      </trkpt>
      <trkpt lat="47.27096" lon="-1.67768">
        <ele>40.5</ele>
        <time>2020-06-07T13:34:05Z</time>
      </trkpt>
      <trkpt lat="47.27096" lon="-1.6777">
        <ele>40.5</ele>
        <time>2020-06-07T13:34:06Z</time>
      </trkpt>
      <trkpt lat="47.27095" lon="-1.67772">
        <ele>40.5</ele>
        <time>2020-06-07T13:34:07Z</time>
      </trkpt>
      <trkpt lat="47.27095" lon="-1.67773">
        <ele>40.5</ele>
        <time>2020-06-07T13:34:08Z</time>
      </trkpt>
      <trkpt lat="47.27095" lon="-1.67774">
        <ele>40.5</ele>
        <time>2020-06-07T13:34:09Z</time>
      </trkpt>
      <trkpt lat="47.27094" lon="-1.67775">
        <ele>40.5</ele>
        <time>2020-06-07T13:34:10Z</time>
      </trkpt>
      <trkpt lat="47.27094" lon="-1.67776">
        <ele>40.5</ele>
        <time>2020-06-07T13:34:11Z</time>
      </trkpt>
      <trkpt lat="47.27093" lon="-1.67777">
        <ele>40.5</ele>
        <time>2020-06-07T13:34:12Z</time>
      </trkpt>
      <trkpt lat="47.27092" lon="-1.67778">
        <ele>40.5</ele>
        <time>2020-06-07T13:34:13Z</time>
      </trkpt>
      <trkpt lat="47.27092" lon="-1.67779">
        <ele>40.5</ele>
        <time>2020-06-07T13:34:14Z</time>
      </trkpt>
      <trkpt lat="47.27091" lon="-1.67781">
        <ele>40.5</ele>
        <time>2020-06-07T13:34:15Z</time>
      </trkpt>
      <trkpt lat="47.27091" lon="-1.67782">
        <ele>40.5</ele>
        <time>2020-06-07T13:34:16Z</time>
      </trkpt>
      <trkpt lat="47.2709" lon="-1.67783">
        <ele>40.5</ele>
        <time>2020-06-07T13:34:17Z</time>
      </trkpt>
      <trkpt lat="47.2709" lon="-1.67785">
        <ele>40.5</ele>
        <time>2020-06-07T13:34:18Z</time>
      </trkpt>
      <trkpt lat="47.27089" lon="-1.67786">
        <ele>40.5</ele>
        <time>2020-06-07T13:34:19Z</time>
      </trkpt>
      <trkpt lat="47.27087" lon="-1.67788">
        <ele>40.5</ele>
        <time>2020-06-07T13:34:20Z</time>
      </trkpt>
      <trkpt lat="47.27086" lon="-1.67788">
        <ele>40.5</ele>
        <time>2020-06-07T13:34:21Z</time>
      </trkpt>
      <trkpt lat="47.27085" lon="-1.67789">
        <ele>40.5</ele>
        <time>2020-06-07T13:34:22Z</time>
      </trkpt>
      <trkpt lat="47.27084" lon="-1.67791">
        <ele>40.5</ele>
        <time>2020-06-07T13:34:23Z</time>
      </trkpt>
      <trkpt lat="47.27084" lon="-1.67792">
        <ele>40.5</ele>
        <time>2020-06-07T13:34:24Z</time>
      </trkpt>
      <trkpt lat="47.27084" lon="-1.67794">
        <ele>40.5</ele>
        <time>2020-06-07T13:34:25Z</time>
      </trkpt>
      <trkpt lat="47.27083" lon="-1.67795">
        <ele>40.5</ele>
        <time>2020-06-07T13:34:26Z</time>
      </trkpt>
      <trkpt lat="47.27083" lon="-1.67796">
        <ele>40.5</ele>
        <time>2020-06-07T13:34:27Z</time>
      </trkpt>
      <trkpt lat="47.27082" lon="-1.67798">
        <ele>40.5</ele>
        <time>2020-06-07T13:34:28Z</time>
      </trkpt>
      <trkpt lat="47.27082" lon="-1.67801">
        <ele>40.6</ele>
        <time>2020-06-07T13:34:29Z</time>
      </trkpt>
      <trkpt lat="47.27082" lon="-1.67802">
        <ele>40.6</ele>
        <time>2020-06-07T13:34:30Z</time>
      </trkpt>
      <trkpt lat="47.27081" lon="-1.67803">
        <ele>40.6</ele>
        <time>2020-06-07T13:34:31Z</time>
      </trkpt>
      <trkpt lat="47.27081" lon="-1.67804">
        <ele>40.6</ele>
        <time>2020-06-07T13:34:32Z</time>
      </trkpt>
      <trkpt lat="47.27081" lon="-1.67806">
        <ele>40.6</ele>
        <time>2020-06-07T13:34:33Z</time>
      </trkpt>
      <trkpt lat="47.27081" lon="-1.67808">
        <ele>40.6</ele>
        <time>2020-06-07T13:34:34Z</time>
      </trkpt>
      <trkpt lat="47.2708" lon="-1.67809">
        <ele>40.6</ele>
        <time>2020-06-07T13:34:35Z</time>
      </trkpt>
      <trkpt lat="47.2708" lon="-1.6781">
        <ele>40.6</ele>
        <time>2020-06-07T13:34:36Z</time>
      </trkpt>
      <trkpt lat="47.2708" lon="-1.67812">
        <ele>40.6</ele>
        <time>2020-06-07T13:34:37Z</time>
      </trkpt>
      <trkpt lat="47.27079" lon="-1.67814">
        <ele>40.7</ele>
        <time>2020-06-07T13:34:38Z</time>
      </trkpt>
      <trkpt lat="47.27079" lon="-1.67815">
        <ele>40.7</ele>
        <time>2020-06-07T13:34:39Z</time>
      </trkpt>
      <trkpt lat="47.27079" lon="-1.67816">
        <ele>40.7</ele>
        <time>2020-06-07T13:34:40Z</time>
      </trkpt>
      <trkpt lat="47.27078" lon="-1.67817">
        <ele>40.7</ele>
        <time>2020-06-07T13:34:41Z</time>
      </trkpt>
      <trkpt lat="47.27078" lon="-1.67818">
        <ele>40.7</ele>
        <time>2020-06-07T13:34:42Z</time>
      </trkpt>
      <trkpt lat="47.27078" lon="-1.67819">
        <ele>40.8</ele>
        <time>2020-06-07T13:34:43Z</time>
      </trkpt>
      <trkpt lat="47.27077" lon="-1.67821">
        <ele>40.8</ele>
        <time>2020-06-07T13:34:44Z</time>
      </trkpt>
      <trkpt lat="47.27076" lon="-1.67823">
        <ele>40.8</ele>
        <time>2020-06-07T13:34:45Z</time>
      </trkpt>
      <trkpt lat="47.27076" lon="-1.67824">
        <ele>40.9</ele>
        <time>2020-06-07T13:34:46Z</time>
      </trkpt>
      <trkpt lat="47.27075" lon="-1.67825">
        <ele>40.9</ele>
        <time>2020-06-07T13:34:47Z</time>
      </trkpt>
      <trkpt lat="47.27075" lon="-1.67827">
        <ele>40.9</ele>
        <time>2020-06-07T13:34:48Z</time>
      </trkpt>
      <trkpt lat="47.27074" lon="-1.67828">
        <ele>40.9</ele>
        <time>2020-06-07T13:34:49Z</time>
      </trkpt>
      <trkpt lat="47.27074" lon="-1.6783">
        <ele>41</ele>
        <time>2020-06-07T13:34:50Z</time>
      </trkpt>
      <trkpt lat="47.27074" lon="-1.67832">
        <ele>41</ele>
        <time>2020-06-07T13:34:51Z</time>
      </trkpt>
      <trkpt lat="47.27074" lon="-1.67833">
        <ele>41</ele>
        <time>2020-06-07T13:34:52Z</time>
      </trkpt>
      <trkpt lat="47.27074" lon="-1.67834">
        <ele>41.1</ele>
        <time>2020-06-07T13:34:53Z</time>
      </trkpt>
      <trkpt lat="47.27074" lon="-1.67836">
        <ele>41.1</ele>
        <time>2020-06-07T13:34:54Z</time>
      </trkpt>
      <trkpt lat="47.27073" lon="-1.67837">
        <ele>41.1</ele>
        <time>2020-06-07T13:34:55Z</time>
      </trkpt>
      <trkpt lat="47.27073" lon="-1.67838">
        <ele>41.1</ele>
        <time>2020-06-07T13:34:56Z</time>
      </trkpt>
      <trkpt lat="47.27073" lon="-1.67839">
        <ele>41.2</ele>
        <time>2020-06-07T13:34:57Z</time>
      </trkpt>
      <trkpt lat="47.27073" lon="-1.6784">
        <ele>41.2</ele>
        <time>2020-06-07T13:34:58Z</time>
      </trkpt>
      <trkpt lat="47.27072" lon="-1.67841">
        <ele>41.2</ele>
        <time>2020-06-07T13:34:59Z</time>
      </trkpt>
      <trkpt lat="47.27072" lon="-1.67843">
        <ele>41.2</ele>
        <time>2020-06-07T13:35:00Z</time>
      </trkpt>
      <trkpt lat="47.27071" lon="-1.67843">
        <ele>41.3</ele>
        <time>2020-06-07T13:35:01Z</time>
      </trkpt>
      <trkpt lat="47.27071" lon="-1.67844">
        <ele>41.3</ele>
        <time>2020-06-07T13:35:02Z</time>
      </trkpt>
      <trkpt lat="47.2707" lon="-1.67845">
        <ele>41.3</ele>
        <time>2020-06-07T13:35:03Z</time>
      </trkpt>
      <trkpt lat="47.27069" lon="-1.67846">
        <ele>41.3</ele>
        <time>2020-06-07T13:35:04Z</time>
      </trkpt>
      <trkpt lat="47.27068" lon="-1.67848">
        <ele>41.4</ele>
        <time>2020-06-07T13:35:05Z</time>
      </trkpt>
      <trkpt lat="47.27067" lon="-1.67849">
        <ele>41.4</ele>
        <time>2020-06-07T13:35:06Z</time>
      </trkpt>
      <trkpt lat="47.27067" lon="-1.6785">
        <ele>41.4</ele>
        <time>2020-06-07T13:35:07Z</time>
      </trkpt>
      <trkpt lat="47.27066" lon="-1.67852">
        <ele>41.5</ele>
        <time>2020-06-07T13:35:08Z</time>
      </trkpt>
      <trkpt lat="47.27065" lon="-1.67853">
        <ele>41.5</ele>
        <time>2020-06-07T13:35:09Z</time>
      </trkpt>
      <trkpt lat="47.27065" lon="-1.67854">
        <ele>41.5</ele>
        <time>2020-06-07T13:35:10Z</time>
      </trkpt>
      <trkpt lat="47.27064" lon="-1.67856">
        <ele>41.6</ele>
        <time>2020-06-07T13:35:11Z</time>
      </trkpt>
      <trkpt lat="47.27063" lon="-1.67857">
        <ele>41.6</ele>
        <time>2020-06-07T13:35:12Z</time>
      </trkpt>
      <trkpt lat="47.27063" lon="-1.67859">
        <ele>41.6</ele>
        <time>2020-06-07T13:35:13Z</time>
      </trkpt>
      <trkpt lat="47.27062" lon="-1.6786">
        <ele>41.7</ele>
        <time>2020-06-07T13:35:14Z</time>
      </trkpt>
      <trkpt lat="47.27061" lon="-1.67863">
        <ele>41.7</ele>
        <time>2020-06-07T13:35:15Z</time>
      </trkpt>
      <trkpt lat="47.2706" lon="-1.67864">
        <ele>41.7</ele>
        <time>2020-06-07T13:35:16Z</time>
      </trkpt>
      <trkpt lat="47.2706" lon="-1.67865">
        <ele>41.8</ele>
        <time>2020-06-07T13:35:17Z</time>
      </trkpt>
      <trkpt lat="47.27059" lon="-1.67867">
        <ele>41.8</ele>
        <time>2020-06-07T13:35:18Z</time>
      </trkpt>
      <trkpt lat="47.27059" lon="-1.67868">
        <ele>41.8</ele>
        <time>2020-06-07T13:35:19Z</time>
      </trkpt>
      <trkpt lat="47.27058" lon="-1.67869">
        <ele>41.8</ele>
        <time>2020-06-07T13:35:20Z</time>
      </trkpt>
      <trkpt lat="47.27058" lon="-1.6787">
        <ele>41.8</ele>
        <time>2020-06-07T13:35:21Z</time>
      </trkpt>
      <trkpt lat="47.27057" lon="-1.67871">
        <ele>41.9</ele>
        <time>2020-06-07T13:35:22Z</time>
      </trkpt>
      <trkpt lat="47.27057" lon="-1.67872">
        <ele>41.9</ele>
        <time>2020-06-07T13:35:23Z</time>
      </trkpt>
      <trkpt lat="47.27056" lon="-1.67873">
        <ele>41.9</ele>
        <time>2020-06-07T13:35:24Z</time>
      </trkpt>
      <trkpt lat="47.27057" lon="-1.67875">
        <ele>41.9</ele>
        <time>2020-06-07T13:35:25Z</time>
      </trkpt>
      <trkpt lat="47.27057" lon="-1.67877">
        <ele>42</ele>
        <time>2020-06-07T13:35:26Z</time>
      </trkpt>
      <trkpt lat="47.27057" lon="-1.67878">
        <ele>42</ele>
        <time>2020-06-07T13:35:27Z</time>
      </trkpt>
      <trkpt lat="47.27056" lon="-1.67881">
        <ele>42</ele>
        <time>2020-06-07T13:35:28Z</time>
      </trkpt>
      <trkpt lat="47.27056" lon="-1.67882">
        <ele>42</ele>
        <time>2020-06-07T13:35:29Z</time>
      </trkpt>
      <trkpt lat="47.27055" lon="-1.67883">
        <ele>42.1</ele>
        <time>2020-06-07T13:35:30Z</time>
      </trkpt>
      <trkpt lat="47.27055" lon="-1.67884">
        <ele>42.1</ele>
        <time>2020-06-07T13:35:31Z</time>
      </trkpt>
      <trkpt lat="47.27054" lon="-1.67885">
        <ele>42.1</ele>
        <time>2020-06-07T13:35:32Z</time>
      </trkpt>
      <trkpt lat="47.27053" lon="-1.67886">
        <ele>42.1</ele>
        <time>2020-06-07T13:35:33Z</time>
      </trkpt>
      <trkpt lat="47.27053" lon="-1.67887">
        <ele>42.2</ele>
        <time>2020-06-07T13:35:34Z</time>
      </trkpt>
      <trkpt lat="47.27052" lon="-1.67889">
        <ele>42.2</ele>
        <time>2020-06-07T13:35:35Z</time>
      </trkpt>
      <trkpt lat="47.27051" lon="-1.6789">
        <ele>42.2</ele>
        <time>2020-06-07T13:35:36Z</time>
      </trkpt>
      <trkpt lat="47.27051" lon="-1.67891">
        <ele>42.2</ele>
        <time>2020-06-07T13:35:37Z</time>
      </trkpt>
      <trkpt lat="47.2705" lon="-1.67893">
        <ele>42.3</ele>
        <time>2020-06-07T13:35:38Z</time>
      </trkpt>
      <trkpt lat="47.2705" lon="-1.67895">
        <ele>42.3</ele>
        <time>2020-06-07T13:35:39Z</time>
      </trkpt>
      <trkpt lat="47.2705" lon="-1.67896">
        <ele>42.3</ele>
        <time>2020-06-07T13:35:40Z</time>
      </trkpt>
      <trkpt lat="47.2705" lon="-1.67898">
        <ele>42.3</ele>
        <time>2020-06-07T13:35:41Z</time>
      </trkpt>
      <trkpt lat="47.27049" lon="-1.67899">
        <ele>42.4</ele>
        <time>2020-06-07T13:35:42Z</time>
      </trkpt>
      <trkpt lat="47.27048" lon="-1.67901">
        <ele>42.4</ele>
        <time>2020-06-07T13:35:43Z</time>
      </trkpt>
      <trkpt lat="47.27048" lon="-1.67902">
        <ele>42.4</ele>
        <time>2020-06-07T13:35:44Z</time>
      </trkpt>
      <trkpt lat="47.27047" lon="-1.67903">
        <ele>42.4</ele>
        <time>2020-06-07T13:35:45Z</time>
      </trkpt>
      <trkpt lat="47.27047" lon="-1.67905">
        <ele>42.4</ele>
        <time>2020-06-07T13:35:46Z</time>
      </trkpt>
      <trkpt lat="47.27047" lon="-1.67906">
        <ele>42.4</ele>
        <time>2020-06-07T13:35:47Z</time>
      </trkpt>
      <trkpt lat="47.27046" lon="-1.67907">
        <ele>42.4</ele>
        <time>2020-06-07T13:35:48Z</time>
      </trkpt>
      <trkpt lat="47.27046" lon="-1.67909">
        <ele>42.4</ele>
        <time>2020-06-07T13:35:49Z</time>
      </trkpt>
      <trkpt lat="47.27046" lon="-1.6791">
        <ele>42.4</ele>
        <time>2020-06-07T13:35:50Z</time>
      </trkpt>
      <trkpt lat="47.27045" lon="-1.67912">
        <ele>42.4</ele>
        <time>2020-06-07T13:35:51Z</time>
      </trkpt>
      <trkpt lat="47.27045" lon="-1.67913">
        <ele>42.4</ele>
        <time>2020-06-07T13:35:52Z</time>
      </trkpt>
      <trkpt lat="47.27044" lon="-1.67914">
        <ele>42.5</ele>
        <time>2020-06-07T13:35:53Z</time>
      </trkpt>
      <trkpt lat="47.27043" lon="-1.67916">
        <ele>42.5</ele>
        <time>2020-06-07T13:35:54Z</time>
      </trkpt>
      <trkpt lat="47.27043" lon="-1.67917">
        <ele>42.5</ele>
        <time>2020-06-07T13:35:55Z</time>
      </trkpt>
      <trkpt lat="47.27043" lon="-1.67919">
        <ele>42.5</ele>
        <time>2020-06-07T13:35:56Z</time>
      </trkpt>
      <trkpt lat="47.27043" lon="-1.6792">
        <ele>42.5</ele>
        <time>2020-06-07T13:35:57Z</time>
      </trkpt>
      <trkpt lat="47.27043" lon="-1.67922">
        <ele>42.5</ele>
        <time>2020-06-07T13:35:58Z</time>
      </trkpt>
      <trkpt lat="47.27043" lon="-1.67923">
        <ele>42.5</ele>
        <time>2020-06-07T13:35:59Z</time>
      </trkpt>
      <trkpt lat="47.27043" lon="-1.67924">
        <ele>42.5</ele>
        <time>2020-06-07T13:36:00Z</time>
      </trkpt>
      <trkpt lat="47.27043" lon="-1.67926">
        <ele>42.5</ele>
        <time>2020-06-07T13:36:01Z</time>
      </trkpt>
      <trkpt lat="47.27043" lon="-1.67927">
        <ele>42.5</ele>
        <time>2020-06-07T13:36:02Z</time>
      </trkpt>
      <trkpt lat="47.27043" lon="-1.67929">
        <ele>42.5</ele>
        <time>2020-06-07T13:36:03Z</time>
      </trkpt>
      <trkpt lat="47.27043" lon="-1.67931">
        <ele>42.6</ele>
        <time>2020-06-07T13:36:04Z</time>
      </trkpt>
      <trkpt lat="47.27044" lon="-1.67932">
        <ele>42.6</ele>
        <time>2020-06-07T13:36:05Z</time>
      </trkpt>
      <trkpt lat="47.27044" lon="-1.67933">
        <ele>42.6</ele>
        <time>2020-06-07T13:36:06Z</time>
      </trkpt>
      <trkpt lat="47.27044" lon="-1.67934">
        <ele>42.6</ele>
        <time>2020-06-07T13:36:07Z</time>
      </trkpt>
      <trkpt lat="47.27044" lon="-1.67935">
        <ele>42.6</ele>
        <time>2020-06-07T13:36:08Z</time>
      </trkpt>
      <trkpt lat="47.27044" lon="-1.67937">
        <ele>42.6</ele>
        <time>2020-06-07T13:36:09Z</time>
      </trkpt>
      <trkpt lat="47.27044" lon="-1.67938">
        <ele>42.6</ele>
        <time>2020-06-07T13:36:10Z</time>
      </trkpt>
      <trkpt lat="47.27044" lon="-1.6794">
        <ele>42.6</ele>
        <time>2020-06-07T13:36:11Z</time>
      </trkpt>
      <trkpt lat="47.27044" lon="-1.67941">
        <ele>42.7</ele>
        <time>2020-06-07T13:36:12Z</time>
      </trkpt>
      <trkpt lat="47.27043" lon="-1.67943">
        <ele>42.7</ele>
        <time>2020-06-07T13:36:13Z</time>
      </trkpt>
      <trkpt lat="47.27043" lon="-1.67945">
        <ele>42.7</ele>
        <time>2020-06-07T13:36:14Z</time>
      </trkpt>
      <trkpt lat="47.27043" lon="-1.67946">
        <ele>42.7</ele>
        <time>2020-06-07T13:36:15Z</time>
      </trkpt>
      <trkpt lat="47.27042" lon="-1.67947">
        <ele>42.7</ele>
        <time>2020-06-07T13:36:16Z</time>
      </trkpt>
      <trkpt lat="47.27042" lon="-1.67949">
        <ele>42.8</ele>
        <time>2020-06-07T13:36:17Z</time>
      </trkpt>
      <trkpt lat="47.27041" lon="-1.6795">
        <ele>42.8</ele>
        <time>2020-06-07T13:36:18Z</time>
      </trkpt>
      <trkpt lat="47.27041" lon="-1.67952">
        <ele>42.8</ele>
        <time>2020-06-07T13:36:19Z</time>
      </trkpt>
      <trkpt lat="47.2704" lon="-1.67952">
        <ele>42.8</ele>
        <time>2020-06-07T13:36:20Z</time>
      </trkpt>
      <trkpt lat="47.2704" lon="-1.67953">
        <ele>42.8</ele>
        <time>2020-06-07T13:36:21Z</time>
      </trkpt>
      <trkpt lat="47.2704" lon="-1.67954">
        <ele>42.8</ele>
        <time>2020-06-07T13:36:22Z</time>
      </trkpt>
      <trkpt lat="47.2704" lon="-1.67955">
        <ele>42.9</ele>
        <time>2020-06-07T13:36:23Z</time>
      </trkpt>
      <trkpt lat="47.27039" lon="-1.67957">
        <ele>42.9</ele>
        <time>2020-06-07T13:36:24Z</time>
      </trkpt>
      <trkpt lat="47.27039" lon="-1.67958">
        <ele>42.9</ele>
        <time>2020-06-07T13:36:25Z</time>
      </trkpt>
      <trkpt lat="47.27039" lon="-1.6796">
        <ele>42.9</ele>
        <time>2020-06-07T13:36:26Z</time>
      </trkpt>
      <trkpt lat="47.27039" lon="-1.67962">
        <ele>43</ele>
        <time>2020-06-07T13:36:27Z</time>
      </trkpt>
      <trkpt lat="47.27039" lon="-1.67964">
        <ele>43</ele>
        <time>2020-06-07T13:36:28Z</time>
      </trkpt>
      <trkpt lat="47.27039" lon="-1.67965">
        <ele>43</ele>
        <time>2020-06-07T13:36:29Z</time>
      </trkpt>
      <trkpt lat="47.27039" lon="-1.67967">
        <ele>43</ele>
        <time>2020-06-07T13:36:30Z</time>
      </trkpt>
      <trkpt lat="47.2704" lon="-1.67968">
        <ele>43</ele>
        <time>2020-06-07T13:36:31Z</time>
      </trkpt>
      <trkpt lat="47.2704" lon="-1.6797">
        <ele>43.1</ele>
        <time>2020-06-07T13:36:32Z</time>
      </trkpt>
      <trkpt lat="47.27041" lon="-1.67972">
        <ele>43.1</ele>
        <time>2020-06-07T13:36:33Z</time>
      </trkpt>
      <trkpt lat="47.27041" lon="-1.67973">
        <ele>43.1</ele>
        <time>2020-06-07T13:36:34Z</time>
      </trkpt>
      <trkpt lat="47.27041" lon="-1.67974">
        <ele>43.1</ele>
        <time>2020-06-07T13:36:35Z</time>
      </trkpt>
      <trkpt lat="47.27041" lon="-1.67975">
        <ele>43.2</ele>
        <time>2020-06-07T13:36:36Z</time>
      </trkpt>
      <trkpt lat="47.27041" lon="-1.67977">
        <ele>43.2</ele>
        <time>2020-06-07T13:36:37Z</time>
      </trkpt>
      <trkpt lat="47.27041" lon="-1.67979">
        <ele>43.2</ele>
        <time>2020-06-07T13:36:38Z</time>
      </trkpt>
      <trkpt lat="47.27041" lon="-1.67981">
        <ele>43.3</ele>
        <time>2020-06-07T13:36:39Z</time>
      </trkpt>
      <trkpt lat="47.27042" lon="-1.67982">
        <ele>43.3</ele>
        <time>2020-06-07T13:36:40Z</time>
      </trkpt>
      <trkpt lat="47.27042" lon="-1.67984">
        <ele>43.3</ele>
        <time>2020-06-07T13:36:41Z</time>
      </trkpt>
      <trkpt lat="47.27041" lon="-1.67986">
        <ele>43.4</ele>
        <time>2020-06-07T13:36:42Z</time>
      </trkpt>
      <trkpt lat="47.27041" lon="-1.67987">
        <ele>43.4</ele>
        <time>2020-06-07T13:36:43Z</time>
      </trkpt>
      <trkpt lat="47.2704" lon="-1.67989">
        <ele>43.4</ele>
        <time>2020-06-07T13:36:44Z</time>
      </trkpt>
      <trkpt lat="47.2704" lon="-1.6799">
        <ele>43.5</ele>
        <time>2020-06-07T13:36:45Z</time>
      </trkpt>
      <trkpt lat="47.27039" lon="-1.67991">
        <ele>43.5</ele>
        <time>2020-06-07T13:36:46Z</time>
      </trkpt>
      <trkpt lat="47.27039" lon="-1.67993">
        <ele>43.5</ele>
        <time>2020-06-07T13:36:47Z</time>
      </trkpt>
      <trkpt lat="47.27039" lon="-1.67994">
        <ele>43.6</ele>
        <time>2020-06-07T13:36:48Z</time>
      </trkpt>
      <trkpt lat="47.27039" lon="-1.67996">
        <ele>43.6</ele>
        <time>2020-06-07T13:36:49Z</time>
      </trkpt>
      <trkpt lat="47.27039" lon="-1.67997">
        <ele>43.6</ele>
        <time>2020-06-07T13:36:50Z</time>
      </trkpt>
      <trkpt lat="47.27039" lon="-1.67999">
        <ele>43.7</ele>
        <time>2020-06-07T13:36:51Z</time>
      </trkpt>
      <trkpt lat="47.27039" lon="-1.68">
        <ele>43.7</ele>
        <time>2020-06-07T13:36:52Z</time>
      </trkpt>
      <trkpt lat="47.27039" lon="-1.68002">
        <ele>43.8</ele>
        <time>2020-06-07T13:36:53Z</time>
      </trkpt>
      <trkpt lat="47.27039" lon="-1.68003">
        <ele>43.8</ele>
        <time>2020-06-07T13:36:54Z</time>
      </trkpt>
      <trkpt lat="47.27039" lon="-1.68007">
        <ele>43.9</ele>
        <time>2020-06-07T13:36:55Z</time>
      </trkpt>
      <trkpt lat="47.27039" lon="-1.68008">
        <ele>43.9</ele>
        <time>2020-06-07T13:36:56Z</time>
      </trkpt>
      <trkpt lat="47.27039" lon="-1.68009">
        <ele>43.9</ele>
        <time>2020-06-07T13:36:57Z</time>
      </trkpt>
      <trkpt lat="47.27039" lon="-1.68011">
        <ele>44</ele>
        <time>2020-06-07T13:36:58Z</time>
      </trkpt>
      <trkpt lat="47.2704" lon="-1.68012">
        <ele>44</ele>
        <time>2020-06-07T13:36:59Z</time>
      </trkpt>
      <trkpt lat="47.27041" lon="-1.68013">
        <ele>44</ele>
        <time>2020-06-07T13:37:00Z</time>
      </trkpt>
      <trkpt lat="47.27041" lon="-1.68015">
        <ele>44</ele>
        <time>2020-06-07T13:37:01Z</time>
      </trkpt>
      <trkpt lat="47.27041" lon="-1.68016">
        <ele>44.1</ele>
        <time>2020-06-07T13:37:02Z</time>
      </trkpt>
      <trkpt lat="47.2704" lon="-1.68017">
        <ele>44.1</ele>
        <time>2020-06-07T13:37:03Z</time>
      </trkpt>
      <trkpt lat="47.2704" lon="-1.68019">
        <ele>44.1</ele>
        <time>2020-06-07T13:37:04Z</time>
      </trkpt>
      <trkpt lat="47.2704" lon="-1.6802">
        <ele>44.1</ele>
        <time>2020-06-07T13:37:05Z</time>
      </trkpt>
      <trkpt lat="47.27039" lon="-1.68022">
        <ele>44.1</ele>
        <time>2020-06-07T13:37:06Z</time>
      </trkpt>
      <trkpt lat="47.27039" lon="-1.68023">
        <ele>44.1</ele>
        <time>2020-06-07T13:37:07Z</time>
      </trkpt>
      <trkpt lat="47.27039" lon="-1.68025">
        <ele>44.1</ele>
        <time>2020-06-07T13:37:08Z</time>
      </trkpt>
      <trkpt lat="47.27039" lon="-1.68026">
        <ele>44.1</ele>
        <time>2020-06-07T13:37:09Z</time>
      </trkpt>
      <trkpt lat="47.27039" lon="-1.68028">
        <ele>44.1</ele>
        <time>2020-06-07T13:37:10Z</time>
      </trkpt>
      <trkpt lat="47.27039" lon="-1.68029">
        <ele>44.1</ele>
        <time>2020-06-07T13:37:11Z</time>
      </trkpt>
      <trkpt lat="47.27039" lon="-1.6803">
        <ele>44.1</ele>
        <time>2020-06-07T13:37:12Z</time>
      </trkpt>
      <trkpt lat="47.27039" lon="-1.68032">
        <ele>44.1</ele>
        <time>2020-06-07T13:37:13Z</time>
      </trkpt>
      <trkpt lat="47.27039" lon="-1.68033">
        <ele>44.1</ele>
        <time>2020-06-07T13:37:14Z</time>
      </trkpt>
      <trkpt lat="47.27039" lon="-1.68035">
        <ele>44.1</ele>
        <time>2020-06-07T13:37:15Z</time>
      </trkpt>
      <trkpt lat="47.2704" lon="-1.68036">
        <ele>44.1</ele>
        <time>2020-06-07T13:37:16Z</time>
      </trkpt>
      <trkpt lat="47.27041" lon="-1.68036">
        <ele>44.1</ele>
        <time>2020-06-07T13:37:17Z</time>
      </trkpt>
      <trkpt lat="47.27041" lon="-1.68037">
        <ele>44</ele>
        <time>2020-06-07T13:37:18Z</time>
      </trkpt>
      <trkpt lat="47.27042" lon="-1.68037">
        <ele>44</ele>
        <time>2020-06-07T13:37:19Z</time>
      </trkpt>
      <trkpt lat="47.27043" lon="-1.68038">
        <ele>44</ele>
        <time>2020-06-07T13:37:20Z</time>
      </trkpt>
      <trkpt lat="47.27044" lon="-1.68039">
        <ele>44</ele>
        <time>2020-06-07T13:37:21Z</time>
      </trkpt>
      <trkpt lat="47.27045" lon="-1.6804">
        <ele>43.9</ele>
        <time>2020-06-07T13:37:22Z</time>
      </trkpt>
      <trkpt lat="47.27046" lon="-1.68042">
        <ele>43.9</ele>
        <time>2020-06-07T13:37:23Z</time>
      </trkpt>
      <trkpt lat="47.27047" lon="-1.68043">
        <ele>43.8</ele>
        <time>2020-06-07T13:37:24Z</time>
      </trkpt>
      <trkpt lat="47.27047" lon="-1.68044">
        <ele>43.8</ele>
        <time>2020-06-07T13:37:25Z</time>
      </trkpt>
      <trkpt lat="47.27048" lon="-1.68047">
        <ele>43.7</ele>
        <time>2020-06-07T13:37:26Z</time>
      </trkpt>
      <trkpt lat="47.27049" lon="-1.68049">
        <ele>43.7</ele>
        <time>2020-06-07T13:37:27Z</time>
      </trkpt>
      <trkpt lat="47.27049" lon="-1.6805">
        <ele>43.6</ele>
        <time>2020-06-07T13:37:28Z</time>
      </trkpt>
      <trkpt lat="47.2705" lon="-1.68052">
        <ele>43.6</ele>
        <time>2020-06-07T13:37:29Z</time>
      </trkpt>
      <trkpt lat="47.2705" lon="-1.68054">
        <ele>43.5</ele>
        <time>2020-06-07T13:37:30Z</time>
      </trkpt>
      <trkpt lat="47.27051" lon="-1.68057">
        <ele>43.5</ele>
        <time>2020-06-07T13:37:31Z</time>
      </trkpt>
      <trkpt lat="47.27051" lon="-1.68058">
        <ele>43.5</ele>
        <time>2020-06-07T13:37:32Z</time>
      </trkpt>
      <trkpt lat="47.27051" lon="-1.68059">
        <ele>43.5</ele>
        <time>2020-06-07T13:37:33Z</time>
      </trkpt>
      <trkpt lat="47.27051" lon="-1.68061">
        <ele>43.4</ele>
        <time>2020-06-07T13:37:34Z</time>
      </trkpt>
      <trkpt lat="47.27051" lon="-1.68063">
        <ele>43.4</ele>
        <time>2020-06-07T13:37:35Z</time>
      </trkpt>
      <trkpt lat="47.27051" lon="-1.68064">
        <ele>43.4</ele>
        <time>2020-06-07T13:37:36Z</time>
      </trkpt>
      <trkpt lat="47.27052" lon="-1.68066">
        <ele>43.3</ele>
        <time>2020-06-07T13:37:37Z</time>
      </trkpt>
      <trkpt lat="47.27052" lon="-1.68068">
        <ele>43.3</ele>
        <time>2020-06-07T13:37:38Z</time>
      </trkpt>
      <trkpt lat="47.27053" lon="-1.68069">
        <ele>43.3</ele>
        <time>2020-06-07T13:37:39Z</time>
      </trkpt>
      <trkpt lat="47.27054" lon="-1.68071">
        <ele>43.2</ele>
        <time>2020-06-07T13:37:40Z</time>
      </trkpt>
      <trkpt lat="47.27055" lon="-1.68072">
        <ele>43.2</ele>
        <time>2020-06-07T13:37:41Z</time>
      </trkpt>
      <trkpt lat="47.27055" lon="-1.68073">
        <ele>43.2</ele>
        <time>2020-06-07T13:37:42Z</time>
      </trkpt>
      <trkpt lat="47.27056" lon="-1.68076">
        <ele>43.1</ele>
        <time>2020-06-07T13:37:43Z</time>
      </trkpt>
      <trkpt lat="47.27056" lon="-1.68077">
        <ele>43.1</ele>
        <time>2020-06-07T13:37:44Z</time>
      </trkpt>
      <trkpt lat="47.27056" lon="-1.68079">
        <ele>43.1</ele>
        <time>2020-06-07T13:37:45Z</time>
      </trkpt>
      <trkpt lat="47.27057" lon="-1.6808">
        <ele>43.1</ele>
        <time>2020-06-07T13:37:46Z</time>
      </trkpt>
      <trkpt lat="47.27057" lon="-1.68081">
        <ele>43.1</ele>
        <time>2020-06-07T13:37:47Z</time>
      </trkpt>
      <trkpt lat="47.27057" lon="-1.68082">
        <ele>43.1</ele>
        <time>2020-06-07T13:37:48Z</time>
      </trkpt>
      <trkpt lat="47.27058" lon="-1.68084">
        <ele>43</ele>
        <time>2020-06-07T13:37:49Z</time>
      </trkpt>
      <trkpt lat="47.27059" lon="-1.68086">
        <ele>43</ele>
        <time>2020-06-07T13:37:50Z</time>
      </trkpt>
      <trkpt lat="47.27059" lon="-1.68087">
        <ele>43</ele>
        <time>2020-06-07T13:37:51Z</time>
      </trkpt>
      <trkpt lat="47.2706" lon="-1.68088">
        <ele>43</ele>
        <time>2020-06-07T13:37:52Z</time>
      </trkpt>
      <trkpt lat="47.2706" lon="-1.68089">
        <ele>43</ele>
        <time>2020-06-07T13:37:53Z</time>
      </trkpt>
      <trkpt lat="47.2706" lon="-1.6809">
        <ele>43</ele>
        <time>2020-06-07T13:37:54Z</time>
      </trkpt>
      <trkpt lat="47.2706" lon="-1.68091">
        <ele>42.9</ele>
        <time>2020-06-07T13:37:55Z</time>
      </trkpt>
      <trkpt lat="47.27062" lon="-1.68093">
        <ele>42.9</ele>
        <time>2020-06-07T13:37:56Z</time>
      </trkpt>
      <trkpt lat="47.27063" lon="-1.68094">
        <ele>42.9</ele>
        <time>2020-06-07T13:37:57Z</time>
      </trkpt>
      <trkpt lat="47.27064" lon="-1.68095">
        <ele>42.9</ele>
        <time>2020-06-07T13:37:58Z</time>
      </trkpt>
      <trkpt lat="47.27065" lon="-1.68096">
        <ele>42.8</ele>
        <time>2020-06-07T13:37:59Z</time>
      </trkpt>
      <trkpt lat="47.27067" lon="-1.68098">
        <ele>42.8</ele>
        <time>2020-06-07T13:38:00Z</time>
      </trkpt>
      <trkpt lat="47.27068" lon="-1.68099">
        <ele>42.8</ele>
        <time>2020-06-07T13:38:01Z</time>
      </trkpt>
      <trkpt lat="47.27068" lon="-1.681">
        <ele>42.8</ele>
        <time>2020-06-07T13:38:02Z</time>
      </trkpt>
      <trkpt lat="47.27068" lon="-1.68101">
        <ele>42.8</ele>
        <time>2020-06-07T13:38:03Z</time>
      </trkpt>
      <trkpt lat="47.27068" lon="-1.68102">
        <ele>42.8</ele>
        <time>2020-06-07T13:38:04Z</time>
      </trkpt>
      <trkpt lat="47.27068" lon="-1.68104">
        <ele>42.8</ele>
        <time>2020-06-07T13:38:05Z</time>
      </trkpt>
      <trkpt lat="47.27068" lon="-1.68105">
        <ele>42.7</ele>
        <time>2020-06-07T13:38:06Z</time>
      </trkpt>
      <trkpt lat="47.27068" lon="-1.68106">
        <ele>42.7</ele>
        <time>2020-06-07T13:38:07Z</time>
      </trkpt>
      <trkpt lat="47.2707" lon="-1.68108">
        <ele>42.7</ele>
        <time>2020-06-07T13:38:08Z</time>
      </trkpt>
      <trkpt lat="47.27071" lon="-1.68109">
        <ele>42.7</ele>
        <time>2020-06-07T13:38:09Z</time>
      </trkpt>
      <trkpt lat="47.27071" lon="-1.6811">
        <ele>42.7</ele>
        <time>2020-06-07T13:38:10Z</time>
      </trkpt>
      <trkpt lat="47.27073" lon="-1.68112">
        <ele>42.7</ele>
        <time>2020-06-07T13:38:11Z</time>
      </trkpt>
      <trkpt lat="47.27073" lon="-1.68113">
        <ele>42.7</ele>
        <time>2020-06-07T13:38:12Z</time>
      </trkpt>
      <trkpt lat="47.27074" lon="-1.68114">
        <ele>42.6</ele>
        <time>2020-06-07T13:38:13Z</time>
      </trkpt>
      <trkpt lat="47.27074" lon="-1.68115">
        <ele>42.6</ele>
        <time>2020-06-07T13:38:14Z</time>
      </trkpt>
      <trkpt lat="47.27075" lon="-1.68117">
        <ele>42.6</ele>
        <time>2020-06-07T13:38:15Z</time>
      </trkpt>
      <trkpt lat="47.27075" lon="-1.68118">
        <ele>42.6</ele>
        <time>2020-06-07T13:38:16Z</time>
      </trkpt>
      <trkpt lat="47.27076" lon="-1.6812">
        <ele>42.6</ele>
        <time>2020-06-07T13:38:17Z</time>
      </trkpt>
      <trkpt lat="47.27077" lon="-1.68121">
        <ele>42.6</ele>
        <time>2020-06-07T13:38:18Z</time>
      </trkpt>
      <trkpt lat="47.27077" lon="-1.68122">
        <ele>42.5</ele>
        <time>2020-06-07T13:38:19Z</time>
      </trkpt>
      <trkpt lat="47.27078" lon="-1.68125">
        <ele>42.5</ele>
        <time>2020-06-07T13:38:20Z</time>
      </trkpt>
      <trkpt lat="47.27079" lon="-1.68126">
        <ele>42.5</ele>
        <time>2020-06-07T13:38:21Z</time>
      </trkpt>
      <trkpt lat="47.27079" lon="-1.68127">
        <ele>42.5</ele>
        <time>2020-06-07T13:38:22Z</time>
      </trkpt>
      <trkpt lat="47.2708" lon="-1.68129">
        <ele>42.4</ele>
        <time>2020-06-07T13:38:23Z</time>
      </trkpt>
      <trkpt lat="47.27081" lon="-1.6813">
        <ele>42.4</ele>
        <time>2020-06-07T13:38:24Z</time>
      </trkpt>
      <trkpt lat="47.27082" lon="-1.68131">
        <ele>42.3</ele>
        <time>2020-06-07T13:38:25Z</time>
      </trkpt>
      <trkpt lat="47.27083" lon="-1.68133">
        <ele>42.3</ele>
        <time>2020-06-07T13:38:26Z</time>
      </trkpt>
      <trkpt lat="47.27084" lon="-1.68134">
        <ele>42.2</ele>
        <time>2020-06-07T13:38:27Z</time>
      </trkpt>
      <trkpt lat="47.27085" lon="-1.68136">
        <ele>42.2</ele>
        <time>2020-06-07T13:38:28Z</time>
      </trkpt>
      <trkpt lat="47.27085" lon="-1.68138">
        <ele>42.1</ele>
        <time>2020-06-07T13:38:29Z</time>
      </trkpt>
      <trkpt lat="47.27086" lon="-1.68141">
        <ele>42</ele>
        <time>2020-06-07T13:38:30Z</time>
      </trkpt>
      <trkpt lat="47.27086" lon="-1.68142">
        <ele>42</ele>
        <time>2020-06-07T13:38:31Z</time>
      </trkpt>
      <trkpt lat="47.27086" lon="-1.68143">
        <ele>42.1</ele>
        <time>2020-06-07T13:38:32Z</time>
      </trkpt>
      <trkpt lat="47.27086" lon="-1.68146">
        <ele>42.2</ele>
        <time>2020-06-07T13:38:33Z</time>
      </trkpt>
      <trkpt lat="47.27086" lon="-1.68148">
        <ele>42.2</ele>
        <time>2020-06-07T13:38:34Z</time>
      </trkpt>
      <trkpt lat="47.27086" lon="-1.68149">
        <ele>42.2</ele>
        <time>2020-06-07T13:38:35Z</time>
      </trkpt>
      <trkpt lat="47.27085" lon="-1.68151">
        <ele>42.3</ele>
        <time>2020-06-07T13:38:36Z</time>
      </trkpt>
      <trkpt lat="47.27085" lon="-1.68152">
        <ele>42.3</ele>
        <time>2020-06-07T13:38:37Z</time>
      </trkpt>
      <trkpt lat="47.27084" lon="-1.68154">
        <ele>42.4</ele>
        <time>2020-06-07T13:38:38Z</time>
      </trkpt>
      <trkpt lat="47.27084" lon="-1.68155">
        <ele>42.4</ele>
        <time>2020-06-07T13:38:39Z</time>
      </trkpt>
      <trkpt lat="47.27084" lon="-1.68156">
        <ele>42.5</ele>
        <time>2020-06-07T13:38:40Z</time>
      </trkpt>
      <trkpt lat="47.27083" lon="-1.68158">
        <ele>42.5</ele>
        <time>2020-06-07T13:38:41Z</time>
      </trkpt>
      <trkpt lat="47.27082" lon="-1.68159">
        <ele>42.5</ele>
        <time>2020-06-07T13:38:42Z</time>
      </trkpt>
      <trkpt lat="47.27082" lon="-1.6816">
        <ele>42.6</ele>
        <time>2020-06-07T13:38:43Z</time>
      </trkpt>
      <trkpt lat="47.27081" lon="-1.68161">
        <ele>42.6</ele>
        <time>2020-06-07T13:38:44Z</time>
      </trkpt>
      <trkpt lat="47.2708" lon="-1.68163">
        <ele>42.7</ele>
        <time>2020-06-07T13:38:45Z</time>
      </trkpt>
      <trkpt lat="47.27079" lon="-1.68164">
        <ele>42.7</ele>
        <time>2020-06-07T13:38:46Z</time>
      </trkpt>
      <trkpt lat="47.27078" lon="-1.68165">
        <ele>42.8</ele>
        <time>2020-06-07T13:38:47Z</time>
      </trkpt>
      <trkpt lat="47.27077" lon="-1.68166">
        <ele>42.8</ele>
        <time>2020-06-07T13:38:48Z</time>
      </trkpt>
      <trkpt lat="47.27076" lon="-1.68167">
        <ele>42.9</ele>
        <time>2020-06-07T13:38:49Z</time>
      </trkpt>
      <trkpt lat="47.27075" lon="-1.68168">
        <ele>42.9</ele>
        <time>2020-06-07T13:38:50Z</time>
      </trkpt>
      <trkpt lat="47.27075" lon="-1.68169">
        <ele>43</ele>
        <time>2020-06-07T13:38:51Z</time>
      </trkpt>
      <trkpt lat="47.27074" lon="-1.6817">
        <ele>43</ele>
        <time>2020-06-07T13:38:52Z</time>
      </trkpt>
      <trkpt lat="47.27073" lon="-1.68171">
        <ele>43.1</ele>
        <time>2020-06-07T13:38:53Z</time>
      </trkpt>
      <trkpt lat="47.27072" lon="-1.68173">
        <ele>43.1</ele>
        <time>2020-06-07T13:38:54Z</time>
      </trkpt>
      <trkpt lat="47.27071" lon="-1.68174">
        <ele>43.2</ele>
        <time>2020-06-07T13:38:55Z</time>
      </trkpt>
      <trkpt lat="47.27071" lon="-1.68175">
        <ele>43.2</ele>
        <time>2020-06-07T13:38:56Z</time>
      </trkpt>
      <trkpt lat="47.2707" lon="-1.68178">
        <ele>43.3</ele>
        <time>2020-06-07T13:38:57Z</time>
      </trkpt>
      <trkpt lat="47.27069" lon="-1.68179">
        <ele>43.3</ele>
        <time>2020-06-07T13:38:58Z</time>
      </trkpt>
      <trkpt lat="47.27069" lon="-1.6818">
        <ele>43.4</ele>
        <time>2020-06-07T13:38:59Z</time>
      </trkpt>
      <trkpt lat="47.2707" lon="-1.68183">
        <ele>43.4</ele>
        <time>2020-06-07T13:39:00Z</time>
      </trkpt>
      <trkpt lat="47.2707" lon="-1.68184">
        <ele>43.5</ele>
        <time>2020-06-07T13:39:01Z</time>
      </trkpt>
      <trkpt lat="47.27071" lon="-1.68185">
        <ele>43.5</ele>
        <time>2020-06-07T13:39:02Z</time>
      </trkpt>
      <trkpt lat="47.27072" lon="-1.68187">
        <ele>43.6</ele>
        <time>2020-06-07T13:39:03Z</time>
      </trkpt>
      <trkpt lat="47.27073" lon="-1.68188">
        <ele>43.6</ele>
        <time>2020-06-07T13:39:04Z</time>
      </trkpt>
      <trkpt lat="47.27074" lon="-1.6819">
        <ele>43.7</ele>
        <time>2020-06-07T13:39:05Z</time>
      </trkpt>
      <trkpt lat="47.27076" lon="-1.68191">
        <ele>43.8</ele>
        <time>2020-06-07T13:39:06Z</time>
      </trkpt>
      <trkpt lat="47.27077" lon="-1.68192">
        <ele>43.9</ele>
        <time>2020-06-07T13:39:07Z</time>
      </trkpt>
      <trkpt lat="47.27079" lon="-1.68192">
        <ele>43.9</ele>
        <time>2020-06-07T13:39:08Z</time>
      </trkpt>
      <trkpt lat="47.27081" lon="-1.68194">
        <ele>44.1</ele>
        <time>2020-06-07T13:39:09Z</time>
      </trkpt>
      <trkpt lat="47.27081" lon="-1.68194">
        <ele>44.1</ele>
        <time>2020-06-07T13:39:10Z</time>
      </trkpt>
      <trkpt lat="47.27082" lon="-1.68195">
        <ele>44.2</ele>
        <time>2020-06-07T13:39:11Z</time>
      </trkpt>
      <trkpt lat="47.27083" lon="-1.68196">
        <ele>44.2</ele>
        <time>2020-06-07T13:39:12Z</time>
      </trkpt>
      <trkpt lat="47.27083" lon="-1.68197">
        <ele>44.3</ele>
        <time>2020-06-07T13:39:13Z</time>
      </trkpt>
      <trkpt lat="47.27084" lon="-1.68198">
        <ele>44.3</ele>
        <time>2020-06-07T13:39:14Z</time>
      </trkpt>
      <trkpt lat="47.27084" lon="-1.68198">
        <ele>44.4</ele>
        <time>2020-06-07T13:39:15Z</time>
      </trkpt>
      <trkpt lat="47.27085" lon="-1.68199">
        <ele>44.4</ele>
        <time>2020-06-07T13:39:16Z</time>
      </trkpt>
      <trkpt lat="47.27085" lon="-1.68199">
        <ele>44.5</ele>
        <time>2020-06-07T13:39:17Z</time>
      </trkpt>
      <trkpt lat="47.27085" lon="-1.68199">
        <ele>44.5</ele>
        <time>2020-06-07T13:39:18Z</time>
      </trkpt>
      <trkpt lat="47.27085" lon="-1.68199">
        <ele>44.5</ele>
        <time>2020-06-07T13:39:19Z</time>
      </trkpt>
      <trkpt lat="47.27085" lon="-1.68198">
        <ele>44.6</ele>
        <time>2020-06-07T13:39:20Z</time>
      </trkpt>
      <trkpt lat="47.27085" lon="-1.68197">
        <ele>44.6</ele>
        <time>2020-06-07T13:39:21Z</time>
      </trkpt>
      <trkpt lat="47.27085" lon="-1.68197">
        <ele>44.7</ele>
        <time>2020-06-07T13:39:22Z</time>
      </trkpt>
      <trkpt lat="47.27085" lon="-1.68196">
        <ele>44.7</ele>
        <time>2020-06-07T13:39:23Z</time>
      </trkpt>
      <trkpt lat="47.27086" lon="-1.68197">
        <ele>44.8</ele>
        <time>2020-06-07T13:39:24Z</time>
      </trkpt>
      <trkpt lat="47.27086" lon="-1.68197">
        <ele>44.8</ele>
        <time>2020-06-07T13:39:25Z</time>
      </trkpt>
      <trkpt lat="47.27087" lon="-1.68195">
        <ele>44.9</ele>
        <time>2020-06-07T13:39:26Z</time>
      </trkpt>
      <trkpt lat="47.27089" lon="-1.68193">
        <ele>45.1</ele>
        <time>2020-06-07T13:39:27Z</time>
      </trkpt>
      <trkpt lat="47.27089" lon="-1.68192">
        <ele>45.2</ele>
        <time>2020-06-07T13:39:28Z</time>
      </trkpt>
      <trkpt lat="47.2709" lon="-1.68191">
        <ele>45.3</ele>
        <time>2020-06-07T13:39:29Z</time>
      </trkpt>
      <trkpt lat="47.27091" lon="-1.68189">
        <ele>45.5</ele>
        <time>2020-06-07T13:39:30Z</time>
      </trkpt>
      <trkpt lat="47.27092" lon="-1.68189">
        <ele>45.5</ele>
        <time>2020-06-07T13:39:31Z</time>
      </trkpt>
      <trkpt lat="47.27093" lon="-1.68189">
        <ele>45.6</ele>
        <time>2020-06-07T13:39:32Z</time>
      </trkpt>
      <trkpt lat="47.27094" lon="-1.68188">
        <ele>45.7</ele>
        <time>2020-06-07T13:39:33Z</time>
      </trkpt>
      <trkpt lat="47.27095" lon="-1.68188">
        <ele>45.8</ele>
        <time>2020-06-07T13:39:34Z</time>
      </trkpt>
      <trkpt lat="47.27096" lon="-1.68187">
        <ele>45.9</ele>
        <time>2020-06-07T13:39:35Z</time>
      </trkpt>
      <trkpt lat="47.27097" lon="-1.68187">
        <ele>46.1</ele>
        <time>2020-06-07T13:39:36Z</time>
      </trkpt>
      <trkpt lat="47.27098" lon="-1.68187">
        <ele>46.1</ele>
        <time>2020-06-07T13:39:37Z</time>
      </trkpt>
      <trkpt lat="47.27099" lon="-1.68187">
        <ele>46.2</ele>
        <time>2020-06-07T13:39:38Z</time>
      </trkpt>
      <trkpt lat="47.27101" lon="-1.68185">
        <ele>46.4</ele>
        <time>2020-06-07T13:39:39Z</time>
      </trkpt>
      <trkpt lat="47.27102" lon="-1.68185">
        <ele>46.5</ele>
        <time>2020-06-07T13:39:40Z</time>
      </trkpt>
      <trkpt lat="47.27102" lon="-1.68184">
        <ele>46.6</ele>
        <time>2020-06-07T13:39:41Z</time>
      </trkpt>
      <trkpt lat="47.27104" lon="-1.68182">
        <ele>46.8</ele>
        <time>2020-06-07T13:39:42Z</time>
      </trkpt>
      <trkpt lat="47.27105" lon="-1.68182">
        <ele>46.9</ele>
        <time>2020-06-07T13:39:43Z</time>
      </trkpt>
      <trkpt lat="47.27106" lon="-1.68182">
        <ele>46.9</ele>
        <time>2020-06-07T13:39:44Z</time>
      </trkpt>
      <trkpt lat="47.27107" lon="-1.68182">
        <ele>47</ele>
        <time>2020-06-07T13:39:45Z</time>
      </trkpt>
      <trkpt lat="47.27108" lon="-1.68181">
        <ele>47.1</ele>
        <time>2020-06-07T13:39:46Z</time>
      </trkpt>
      <trkpt lat="47.27108" lon="-1.68181">
        <ele>47.2</ele>
        <time>2020-06-07T13:39:47Z</time>
      </trkpt>
      <trkpt lat="47.27109" lon="-1.68182">
        <ele>47.2</ele>
        <time>2020-06-07T13:39:48Z</time>
      </trkpt>
      <trkpt lat="47.27109" lon="-1.68182">
        <ele>47.3</ele>
        <time>2020-06-07T13:39:49Z</time>
      </trkpt>
      <trkpt lat="47.2711" lon="-1.68182">
        <ele>47.3</ele>
        <time>2020-06-07T13:39:50Z</time>
      </trkpt>
      <trkpt lat="47.2711" lon="-1.68183">
        <ele>47.4</ele>
        <time>2020-06-07T13:39:51Z</time>
      </trkpt>
      <trkpt lat="47.2711" lon="-1.68183">
        <ele>47.4</ele>
        <time>2020-06-07T13:39:52Z</time>
      </trkpt>
      <trkpt lat="47.27112" lon="-1.68184">
        <ele>47.6</ele>
        <time>2020-06-07T13:39:53Z</time>
      </trkpt>
      <trkpt lat="47.27113" lon="-1.68186">
        <ele>47.7</ele>
        <time>2020-06-07T13:39:54Z</time>
      </trkpt>
      <trkpt lat="47.27114" lon="-1.68187">
        <ele>47.8</ele>
        <time>2020-06-07T13:39:55Z</time>
      </trkpt>
      <trkpt lat="47.27115" lon="-1.68188">
        <ele>47.9</ele>
        <time>2020-06-07T13:39:56Z</time>
      </trkpt>
      <trkpt lat="47.27115" lon="-1.6819">
        <ele>48</ele>
        <time>2020-06-07T13:39:57Z</time>
      </trkpt>
      <trkpt lat="47.27115" lon="-1.68192">
        <ele>48.1</ele>
        <time>2020-06-07T13:39:58Z</time>
      </trkpt>
      <trkpt lat="47.27115" lon="-1.68193">
        <ele>48.2</ele>
        <time>2020-06-07T13:39:59Z</time>
      </trkpt>
      <trkpt lat="47.27115" lon="-1.68195">
        <ele>48.2</ele>
        <time>2020-06-07T13:40:00Z</time>
      </trkpt>
      <trkpt lat="47.27115" lon="-1.68196">
        <ele>48.3</ele>
        <time>2020-06-07T13:40:01Z</time>
      </trkpt>
      <trkpt lat="47.27116" lon="-1.68198">
        <ele>48.4</ele>
        <time>2020-06-07T13:40:02Z</time>
      </trkpt>
      <trkpt lat="47.27116" lon="-1.68201">
        <ele>48.6</ele>
        <time>2020-06-07T13:40:03Z</time>
      </trkpt>
      <trkpt lat="47.27116" lon="-1.68202">
        <ele>48.6</ele>
        <time>2020-06-07T13:40:04Z</time>
      </trkpt>
      <trkpt lat="47.27117" lon="-1.68203">
        <ele>48.7</ele>
        <time>2020-06-07T13:40:05Z</time>
      </trkpt>
      <trkpt lat="47.27117" lon="-1.68206">
        <ele>48.8</ele>
        <time>2020-06-07T13:40:06Z</time>
      </trkpt>
      <trkpt lat="47.27119" lon="-1.68207">
        <ele>48.9</ele>
        <time>2020-06-07T13:40:07Z</time>
      </trkpt>
      <trkpt lat="47.2712" lon="-1.68209">
        <ele>49</ele>
        <time>2020-06-07T13:40:08Z</time>
      </trkpt>
      <trkpt lat="47.27121" lon="-1.68211">
        <ele>49.1</ele>
        <time>2020-06-07T13:40:09Z</time>
      </trkpt>
      <trkpt lat="47.27122" lon="-1.68214">
        <ele>49.2</ele>
        <time>2020-06-07T13:40:10Z</time>
      </trkpt>
      <trkpt lat="47.27122" lon="-1.68215">
        <ele>49.3</ele>
        <time>2020-06-07T13:40:11Z</time>
      </trkpt>
      <trkpt lat="47.27123" lon="-1.68216">
        <ele>49.3</ele>
        <time>2020-06-07T13:40:12Z</time>
      </trkpt>
      <trkpt lat="47.27124" lon="-1.68217">
        <ele>49.4</ele>
        <time>2020-06-07T13:40:13Z</time>
      </trkpt>
      <trkpt lat="47.27125" lon="-1.68218">
        <ele>49.5</ele>
        <time>2020-06-07T13:40:14Z</time>
      </trkpt>
      <trkpt lat="47.27125" lon="-1.68219">
        <ele>49.5</ele>
        <time>2020-06-07T13:40:15Z</time>
      </trkpt>
      <trkpt lat="47.27125" lon="-1.68221">
        <ele>49.6</ele>
        <time>2020-06-07T13:40:16Z</time>
      </trkpt>
      <trkpt lat="47.27125" lon="-1.68222">
        <ele>49.6</ele>
        <time>2020-06-07T13:40:17Z</time>
      </trkpt>
      <trkpt lat="47.27126" lon="-1.68224">
        <ele>49.7</ele>
        <time>2020-06-07T13:40:18Z</time>
      </trkpt>
      <trkpt lat="47.27126" lon="-1.68225">
        <ele>49.7</ele>
        <time>2020-06-07T13:40:19Z</time>
      </trkpt>
      <trkpt lat="47.27126" lon="-1.68226">
        <ele>49.8</ele>
        <time>2020-06-07T13:40:20Z</time>
      </trkpt>
      <trkpt lat="47.27126" lon="-1.68227">
        <ele>49.8</ele>
        <time>2020-06-07T13:40:21Z</time>
      </trkpt>
      <trkpt lat="47.27127" lon="-1.68228">
        <ele>49.9</ele>
        <time>2020-06-07T13:40:22Z</time>
      </trkpt>
      <trkpt lat="47.27127" lon="-1.6823">
        <ele>49.9</ele>
        <time>2020-06-07T13:40:23Z</time>
      </trkpt>
      <trkpt lat="47.27128" lon="-1.68231">
        <ele>50</ele>
        <time>2020-06-07T13:40:24Z</time>
      </trkpt>
      <trkpt lat="47.27128" lon="-1.68232">
        <ele>50</ele>
        <time>2020-06-07T13:40:25Z</time>
      </trkpt>
      <trkpt lat="47.27127" lon="-1.68232">
        <ele>50</ele>
        <time>2020-06-07T13:40:26Z</time>
      </trkpt>
      <trkpt lat="47.27127" lon="-1.68233">
        <ele>50.1</ele>
        <time>2020-06-07T13:40:27Z</time>
      </trkpt>
      <trkpt lat="47.27128" lon="-1.68235">
        <ele>50.1</ele>
        <time>2020-06-07T13:40:28Z</time>
      </trkpt>
      <trkpt lat="47.27128" lon="-1.68236">
        <ele>50.1</ele>
        <time>2020-06-07T13:40:29Z</time>
      </trkpt>
      <trkpt lat="47.27129" lon="-1.68236">
        <ele>50.2</ele>
        <time>2020-06-07T13:40:30Z</time>
      </trkpt>
      <trkpt lat="47.27129" lon="-1.68237">
        <ele>50.2</ele>
        <time>2020-06-07T13:40:31Z</time>
      </trkpt>
      <trkpt lat="47.2713" lon="-1.68238">
        <ele>50.3</ele>
        <time>2020-06-07T13:40:32Z</time>
      </trkpt>
      <trkpt lat="47.27131" lon="-1.68238">
        <ele>50.3</ele>
        <time>2020-06-07T13:40:33Z</time>
      </trkpt>
      <trkpt lat="47.27132" lon="-1.68239">
        <ele>50.4</ele>
        <time>2020-06-07T13:40:34Z</time>
      </trkpt>
      <trkpt lat="47.27133" lon="-1.6824">
        <ele>50.5</ele>
        <time>2020-06-07T13:40:35Z</time>
      </trkpt>
      <trkpt lat="47.27134" lon="-1.68241">
        <ele>50.4</ele>
        <time>2020-06-07T13:40:36Z</time>
      </trkpt>
      <trkpt lat="47.27134" lon="-1.68242">
        <ele>50.5</ele>
        <time>2020-06-07T13:40:37Z</time>
      </trkpt>
      <trkpt lat="47.27135" lon="-1.68243">
        <ele>50.5</ele>
        <time>2020-06-07T13:40:38Z</time>
      </trkpt>
      <trkpt lat="47.27135" lon="-1.68243">
        <ele>50.5</ele>
        <time>2020-06-07T13:40:39Z</time>
      </trkpt>
      <trkpt lat="47.27136" lon="-1.68244">
        <ele>50.6</ele>
        <time>2020-06-07T13:40:40Z</time>
      </trkpt>
      <trkpt lat="47.27136" lon="-1.68245">
        <ele>50.6</ele>
        <time>2020-06-07T13:40:41Z</time>
      </trkpt>
      <trkpt lat="47.27137" lon="-1.68246">
        <ele>50.7</ele>
        <time>2020-06-07T13:40:42Z</time>
      </trkpt>
      <trkpt lat="47.27138" lon="-1.68246">
        <ele>50.7</ele>
        <time>2020-06-07T13:40:43Z</time>
      </trkpt>
      <trkpt lat="47.2714" lon="-1.68247">
        <ele>50.8</ele>
        <time>2020-06-07T13:40:44Z</time>
      </trkpt>
      <trkpt lat="47.27141" lon="-1.68248">
        <ele>50.8</ele>
        <time>2020-06-07T13:40:45Z</time>
      </trkpt>
      <trkpt lat="47.27142" lon="-1.68248">
        <ele>50.9</ele>
        <time>2020-06-07T13:40:46Z</time>
      </trkpt>
      <trkpt lat="47.27142" lon="-1.68249">
        <ele>50.9</ele>
        <time>2020-06-07T13:40:47Z</time>
      </trkpt>
      <trkpt lat="47.27143" lon="-1.6825">
        <ele>51</ele>
        <time>2020-06-07T13:40:48Z</time>
      </trkpt>
      <trkpt lat="47.27143" lon="-1.68251">
        <ele>51</ele>
        <time>2020-06-07T13:40:49Z</time>
      </trkpt>
      <trkpt lat="47.27144" lon="-1.68252">
        <ele>51</ele>
        <time>2020-06-07T13:40:50Z</time>
      </trkpt>
      <trkpt lat="47.27144" lon="-1.68252">
        <ele>51</ele>
        <time>2020-06-07T13:40:51Z</time>
      </trkpt>
      <trkpt lat="47.27145" lon="-1.68253">
        <ele>51.1</ele>
        <time>2020-06-07T13:40:52Z</time>
      </trkpt>
      <trkpt lat="47.27146" lon="-1.68254">
        <ele>51.1</ele>
        <time>2020-06-07T13:40:53Z</time>
      </trkpt>
      <trkpt lat="47.27146" lon="-1.68255">
        <ele>51.1</ele>
        <time>2020-06-07T13:40:54Z</time>
      </trkpt>
      <trkpt lat="47.27146" lon="-1.68256">
        <ele>51.2</ele>
        <time>2020-06-07T13:40:55Z</time>
      </trkpt>
      <trkpt lat="47.27147" lon="-1.68257">
        <ele>51.2</ele>
        <time>2020-06-07T13:40:56Z</time>
      </trkpt>
      <trkpt lat="47.27147" lon="-1.68258">
        <ele>51.2</ele>
        <time>2020-06-07T13:40:57Z</time>
      </trkpt>
      <trkpt lat="47.27147" lon="-1.68259">
        <ele>51.3</ele>
        <time>2020-06-07T13:40:58Z</time>
      </trkpt>
      <trkpt lat="47.27147" lon="-1.6826">
        <ele>51.3</ele>
        <time>2020-06-07T13:40:59Z</time>
      </trkpt>
      <trkpt lat="47.27148" lon="-1.68261">
        <ele>51.3</ele>
        <time>2020-06-07T13:41:00Z</time>
      </trkpt>
      <trkpt lat="47.27149" lon="-1.68262">
        <ele>51.3</ele>
        <time>2020-06-07T13:41:01Z</time>
      </trkpt>
      <trkpt lat="47.27149" lon="-1.68263">
        <ele>51.4</ele>
        <time>2020-06-07T13:41:02Z</time>
      </trkpt>
      <trkpt lat="47.27149" lon="-1.68264">
        <ele>51.4</ele>
        <time>2020-06-07T13:41:03Z</time>
      </trkpt>
      <trkpt lat="47.2715" lon="-1.68265">
        <ele>51.5</ele>
        <time>2020-06-07T13:41:04Z</time>
      </trkpt>
      <trkpt lat="47.27151" lon="-1.68266">
        <ele>51.5</ele>
        <time>2020-06-07T13:41:05Z</time>
      </trkpt>
      <trkpt lat="47.27152" lon="-1.68267">
        <ele>51.5</ele>
        <time>2020-06-07T13:41:06Z</time>
      </trkpt>
      <trkpt lat="47.27152" lon="-1.68267">
        <ele>51.6</ele>
        <time>2020-06-07T13:41:07Z</time>
      </trkpt>
      <trkpt lat="47.27154" lon="-1.68269">
        <ele>51.6</ele>
        <time>2020-06-07T13:41:08Z</time>
      </trkpt>
      <trkpt lat="47.27155" lon="-1.6827">
        <ele>51.7</ele>
        <time>2020-06-07T13:41:09Z</time>
      </trkpt>
      <trkpt lat="47.27155" lon="-1.68271">
        <ele>51.7</ele>
        <time>2020-06-07T13:41:10Z</time>
      </trkpt>
      <trkpt lat="47.27156" lon="-1.68272">
        <ele>51.8</ele>
        <time>2020-06-07T13:41:11Z</time>
      </trkpt>
      <trkpt lat="47.27157" lon="-1.68273">
        <ele>51.8</ele>
        <time>2020-06-07T13:41:12Z</time>
      </trkpt>
      <trkpt lat="47.27157" lon="-1.68273">
        <ele>51.8</ele>
        <time>2020-06-07T13:41:13Z</time>
      </trkpt>
      <trkpt lat="47.27158" lon="-1.68275">
        <ele>51.8</ele>
        <time>2020-06-07T13:41:14Z</time>
      </trkpt>
      <trkpt lat="47.27158" lon="-1.68276">
        <ele>51.9</ele>
        <time>2020-06-07T13:41:15Z</time>
      </trkpt>
      <trkpt lat="47.27159" lon="-1.68277">
        <ele>51.9</ele>
        <time>2020-06-07T13:41:16Z</time>
      </trkpt>
      <trkpt lat="47.2716" lon="-1.68278">
        <ele>52</ele>
        <time>2020-06-07T13:41:17Z</time>
      </trkpt>
      <trkpt lat="47.2716" lon="-1.68279">
        <ele>52</ele>
        <time>2020-06-07T13:41:18Z</time>
      </trkpt>
      <trkpt lat="47.27161" lon="-1.6828">
        <ele>52</ele>
        <time>2020-06-07T13:41:19Z</time>
      </trkpt>
      <trkpt lat="47.27161" lon="-1.68281">
        <ele>52</ele>
        <time>2020-06-07T13:41:20Z</time>
      </trkpt>
      <trkpt lat="47.27161" lon="-1.68282">
        <ele>52.1</ele>
        <time>2020-06-07T13:41:21Z</time>
      </trkpt>
      <trkpt lat="47.27161" lon="-1.68283">
        <ele>52.1</ele>
        <time>2020-06-07T13:41:22Z</time>
      </trkpt>
      <trkpt lat="47.27162" lon="-1.68284">
        <ele>52.1</ele>
        <time>2020-06-07T13:41:23Z</time>
      </trkpt>
      <trkpt lat="47.27163" lon="-1.68284">
        <ele>52.1</ele>
        <time>2020-06-07T13:41:24Z</time>
      </trkpt>
      <trkpt lat="47.27164" lon="-1.68285">
        <ele>52.2</ele>
        <time>2020-06-07T13:41:25Z</time>
      </trkpt>
      <trkpt lat="47.27165" lon="-1.68286">
        <ele>52.2</ele>
        <time>2020-06-07T13:41:26Z</time>
      </trkpt>
      <trkpt lat="47.27166" lon="-1.68287">
        <ele>52.3</ele>
        <time>2020-06-07T13:41:27Z</time>
      </trkpt>
      <trkpt lat="47.27167" lon="-1.68289">
        <ele>52.3</ele>
        <time>2020-06-07T13:41:28Z</time>
      </trkpt>
      <trkpt lat="47.27168" lon="-1.6829">
        <ele>52.3</ele>
        <time>2020-06-07T13:41:29Z</time>
      </trkpt>
      <trkpt lat="47.27168" lon="-1.68291">
        <ele>52.4</ele>
        <time>2020-06-07T13:41:30Z</time>
      </trkpt>
      <trkpt lat="47.27168" lon="-1.68292">
        <ele>52.4</ele>
        <time>2020-06-07T13:41:31Z</time>
      </trkpt>
      <trkpt lat="47.27169" lon="-1.68292">
        <ele>52.4</ele>
        <time>2020-06-07T13:41:32Z</time>
      </trkpt>
      <trkpt lat="47.27169" lon="-1.68293">
        <ele>52.4</ele>
        <time>2020-06-07T13:41:33Z</time>
      </trkpt>
      <trkpt lat="47.2717" lon="-1.68294">
        <ele>52.4</ele>
        <time>2020-06-07T13:41:34Z</time>
      </trkpt>
      <trkpt lat="47.2717" lon="-1.68296">
        <ele>52.5</ele>
        <time>2020-06-07T13:41:35Z</time>
      </trkpt>
      <trkpt lat="47.27171" lon="-1.68297">
        <ele>52.5</ele>
        <time>2020-06-07T13:41:36Z</time>
      </trkpt>
      <trkpt lat="47.27171" lon="-1.68298">
        <ele>52.5</ele>
        <time>2020-06-07T13:41:37Z</time>
      </trkpt>
      <trkpt lat="47.27172" lon="-1.68299">
        <ele>52.5</ele>
        <time>2020-06-07T13:41:38Z</time>
      </trkpt>
      <trkpt lat="47.27172" lon="-1.683">
        <ele>52.6</ele>
        <time>2020-06-07T13:41:39Z</time>
      </trkpt>
      <trkpt lat="47.27173" lon="-1.683">
        <ele>52.6</ele>
        <time>2020-06-07T13:41:40Z</time>
      </trkpt>
      <trkpt lat="47.27174" lon="-1.68301">
        <ele>52.6</ele>
        <time>2020-06-07T13:41:41Z</time>
      </trkpt>
      <trkpt lat="47.27175" lon="-1.68302">
        <ele>52.6</ele>
        <time>2020-06-07T13:41:42Z</time>
      </trkpt>
      <trkpt lat="47.27175" lon="-1.68304">
        <ele>52.7</ele>
        <time>2020-06-07T13:41:43Z</time>
      </trkpt>
      <trkpt lat="47.27176" lon="-1.68305">
        <ele>52.7</ele>
        <time>2020-06-07T13:41:44Z</time>
      </trkpt>
      <trkpt lat="47.27177" lon="-1.68307">
        <ele>52.7</ele>
        <time>2020-06-07T13:41:45Z</time>
      </trkpt>
      <trkpt lat="47.27177" lon="-1.68309">
        <ele>52.7</ele>
        <time>2020-06-07T13:41:46Z</time>
      </trkpt>
      <trkpt lat="47.27177" lon="-1.68309">
        <ele>52.7</ele>
        <time>2020-06-07T13:41:47Z</time>
      </trkpt>
      <trkpt lat="47.27177" lon="-1.6831">
        <ele>52.7</ele>
        <time>2020-06-07T13:41:48Z</time>
      </trkpt>
      <trkpt lat="47.27177" lon="-1.68311">
        <ele>52.7</ele>
        <time>2020-06-07T13:41:49Z</time>
      </trkpt>
      <trkpt lat="47.27177" lon="-1.68311">
        <ele>52.7</ele>
        <time>2020-06-07T13:41:50Z</time>
      </trkpt>
      <trkpt lat="47.27177" lon="-1.68312">
        <ele>52.7</ele>
        <time>2020-06-07T13:41:51Z</time>
      </trkpt>
      <trkpt lat="47.27177" lon="-1.68313">
        <ele>52.7</ele>
        <time>2020-06-07T13:41:52Z</time>
      </trkpt>
      <trkpt lat="47.27177" lon="-1.68314">
        <ele>52.7</ele>
        <time>2020-06-07T13:41:53Z</time>
      </trkpt>
      <trkpt lat="47.27177" lon="-1.68315">
        <ele>52.7</ele>
        <time>2020-06-07T13:41:54Z</time>
      </trkpt>
      <trkpt lat="47.27177" lon="-1.68315">
        <ele>52.7</ele>
        <time>2020-06-07T13:41:55Z</time>
      </trkpt>
      <trkpt lat="47.27177" lon="-1.68317">
        <ele>52.7</ele>
        <time>2020-06-07T13:41:56Z</time>
      </trkpt>
      <trkpt lat="47.27177" lon="-1.68319">
        <ele>52.7</ele>
        <time>2020-06-07T13:41:57Z</time>
      </trkpt>
      <trkpt lat="47.27177" lon="-1.68319">
        <ele>52.7</ele>
        <time>2020-06-07T13:41:58Z</time>
      </trkpt>
      <trkpt lat="47.27177" lon="-1.6832">
        <ele>52.7</ele>
        <time>2020-06-07T13:41:59Z</time>
      </trkpt>
      <trkpt lat="47.27178" lon="-1.68321">
        <ele>52.7</ele>
        <time>2020-06-07T13:42:00Z</time>
      </trkpt>
      <trkpt lat="47.27178" lon="-1.68322">
        <ele>52.7</ele>
        <time>2020-06-07T13:42:01Z</time>
      </trkpt>
      <trkpt lat="47.27178" lon="-1.68322">
        <ele>52.7</ele>
        <time>2020-06-07T13:42:02Z</time>
      </trkpt>
      <trkpt lat="47.27178" lon="-1.68323">
        <ele>52.7</ele>
        <time>2020-06-07T13:42:03Z</time>
      </trkpt>
      <trkpt lat="47.27179" lon="-1.68324">
        <ele>52.7</ele>
        <time>2020-06-07T13:42:04Z</time>
      </trkpt>
      <trkpt lat="47.2718" lon="-1.68325">
        <ele>52.7</ele>
        <time>2020-06-07T13:42:05Z</time>
      </trkpt>
      <trkpt lat="47.27181" lon="-1.68325">
        <ele>52.7</ele>
        <time>2020-06-07T13:42:06Z</time>
      </trkpt>
      <trkpt lat="47.27183" lon="-1.68327">
        <ele>52.7</ele>
        <time>2020-06-07T13:42:07Z</time>
      </trkpt>
      <trkpt lat="47.27183" lon="-1.68328">
        <ele>52.7</ele>
        <time>2020-06-07T13:42:08Z</time>
      </trkpt>
      <trkpt lat="47.27184" lon="-1.68328">
        <ele>52.7</ele>
        <time>2020-06-07T13:42:09Z</time>
      </trkpt>
      <trkpt lat="47.27186" lon="-1.6833">
        <ele>52.7</ele>
        <time>2020-06-07T13:42:10Z</time>
      </trkpt>
      <trkpt lat="47.27187" lon="-1.68331">
        <ele>52.7</ele>
        <time>2020-06-07T13:42:11Z</time>
      </trkpt>
      <trkpt lat="47.27189" lon="-1.68333">
        <ele>52.7</ele>
        <time>2020-06-07T13:42:12Z</time>
      </trkpt>
      <trkpt lat="47.2719" lon="-1.68334">
        <ele>52.7</ele>
        <time>2020-06-07T13:42:13Z</time>
      </trkpt>
      <trkpt lat="47.27191" lon="-1.68335">
        <ele>52.7</ele>
        <time>2020-06-07T13:42:14Z</time>
      </trkpt>
      <trkpt lat="47.27192" lon="-1.68336">
        <ele>52.8</ele>
        <time>2020-06-07T13:42:15Z</time>
      </trkpt>
      <trkpt lat="47.27192" lon="-1.68337">
        <ele>52.8</ele>
        <time>2020-06-07T13:42:16Z</time>
      </trkpt>
      <trkpt lat="47.27193" lon="-1.68338">
        <ele>52.8</ele>
        <time>2020-06-07T13:42:17Z</time>
      </trkpt>
      <trkpt lat="47.27193" lon="-1.68339">
        <ele>52.8</ele>
        <time>2020-06-07T13:42:18Z</time>
      </trkpt>
      <trkpt lat="47.27194" lon="-1.6834">
        <ele>52.8</ele>
        <time>2020-06-07T13:42:19Z</time>
      </trkpt>
      <trkpt lat="47.27195" lon="-1.68341">
        <ele>52.8</ele>
        <time>2020-06-07T13:42:20Z</time>
      </trkpt>
      <trkpt lat="47.27196" lon="-1.68342">
        <ele>52.8</ele>
        <time>2020-06-07T13:42:21Z</time>
      </trkpt>
      <trkpt lat="47.27197" lon="-1.68343">
        <ele>52.8</ele>
        <time>2020-06-07T13:42:22Z</time>
      </trkpt>
      <trkpt lat="47.27197" lon="-1.68344">
        <ele>52.8</ele>
        <time>2020-06-07T13:42:23Z</time>
      </trkpt>
      <trkpt lat="47.27198" lon="-1.68345">
        <ele>52.8</ele>
        <time>2020-06-07T13:42:24Z</time>
      </trkpt>
      <trkpt lat="47.27198" lon="-1.68346">
        <ele>52.8</ele>
        <time>2020-06-07T13:42:25Z</time>
      </trkpt>
      <trkpt lat="47.27199" lon="-1.68347">
        <ele>52.8</ele>
        <time>2020-06-07T13:42:26Z</time>
      </trkpt>
      <trkpt lat="47.27199" lon="-1.68347">
        <ele>52.8</ele>
        <time>2020-06-07T13:42:27Z</time>
      </trkpt>
      <trkpt lat="47.272" lon="-1.68348">
        <ele>52.8</ele>
        <time>2020-06-07T13:42:28Z</time>
      </trkpt>
      <trkpt lat="47.272" lon="-1.68349">
        <ele>52.8</ele>
        <time>2020-06-07T13:42:29Z</time>
      </trkpt>
      <trkpt lat="47.27201" lon="-1.68351">
        <ele>52.8</ele>
        <time>2020-06-07T13:42:30Z</time>
      </trkpt>
      <trkpt lat="47.27202" lon="-1.68352">
        <ele>52.8</ele>
        <time>2020-06-07T13:42:31Z</time>
      </trkpt>
      <trkpt lat="47.27203" lon="-1.68353">
        <ele>52.9</ele>
        <time>2020-06-07T13:42:32Z</time>
      </trkpt>
      <trkpt lat="47.27204" lon="-1.68354">
        <ele>52.9</ele>
        <time>2020-06-07T13:42:33Z</time>
      </trkpt>
      <trkpt lat="47.27204" lon="-1.68356">
        <ele>52.9</ele>
        <time>2020-06-07T13:42:34Z</time>
      </trkpt>
      <trkpt lat="47.27204" lon="-1.68358">
        <ele>52.9</ele>
        <time>2020-06-07T13:42:35Z</time>
      </trkpt>
      <trkpt lat="47.27204" lon="-1.68359">
        <ele>52.9</ele>
        <time>2020-06-07T13:42:36Z</time>
      </trkpt>
      <trkpt lat="47.27204" lon="-1.68362">
        <ele>52.9</ele>
        <time>2020-06-07T13:42:37Z</time>
      </trkpt>
      <trkpt lat="47.27205" lon="-1.68364">
        <ele>52.9</ele>
        <time>2020-06-07T13:42:38Z</time>
      </trkpt>
      <trkpt lat="47.27205" lon="-1.68365">
        <ele>52.9</ele>
        <time>2020-06-07T13:42:39Z</time>
      </trkpt>
      <trkpt lat="47.27206" lon="-1.68366">
        <ele>52.9</ele>
        <time>2020-06-07T13:42:40Z</time>
      </trkpt>
      <trkpt lat="47.27207" lon="-1.68368">
        <ele>52.9</ele>
        <time>2020-06-07T13:42:41Z</time>
      </trkpt>
      <trkpt lat="47.27207" lon="-1.68369">
        <ele>53</ele>
        <time>2020-06-07T13:42:42Z</time>
      </trkpt>
      <trkpt lat="47.27208" lon="-1.6837">
        <ele>53</ele>
        <time>2020-06-07T13:42:43Z</time>
      </trkpt>
      <trkpt lat="47.27209" lon="-1.68371">
        <ele>53</ele>
        <time>2020-06-07T13:42:44Z</time>
      </trkpt>
      <trkpt lat="47.27209" lon="-1.68372">
        <ele>53</ele>
        <time>2020-06-07T13:42:45Z</time>
      </trkpt>
      <trkpt lat="47.27209" lon="-1.68373">
        <ele>53</ele>
        <time>2020-06-07T13:42:46Z</time>
      </trkpt>
      <trkpt lat="47.27209" lon="-1.68376">
        <ele>53</ele>
        <time>2020-06-07T13:42:47Z</time>
      </trkpt>
      <trkpt lat="47.2721" lon="-1.68377">
        <ele>53</ele>
        <time>2020-06-07T13:42:48Z</time>
      </trkpt>
      <trkpt lat="47.2721" lon="-1.68377">
        <ele>53</ele>
        <time>2020-06-07T13:42:49Z</time>
      </trkpt>
      <trkpt lat="47.2721" lon="-1.68378">
        <ele>53</ele>
        <time>2020-06-07T13:42:50Z</time>
      </trkpt>
      <trkpt lat="47.27211" lon="-1.6838">
        <ele>53</ele>
        <time>2020-06-07T13:42:51Z</time>
      </trkpt>
      <trkpt lat="47.27212" lon="-1.6838">
        <ele>53</ele>
        <time>2020-06-07T13:42:52Z</time>
      </trkpt>
      <trkpt lat="47.27213" lon="-1.68381">
        <ele>53</ele>
        <time>2020-06-07T13:42:53Z</time>
      </trkpt>
      <trkpt lat="47.27214" lon="-1.68382">
        <ele>53.1</ele>
        <time>2020-06-07T13:42:54Z</time>
      </trkpt>
      <trkpt lat="47.27214" lon="-1.68382">
        <ele>53.1</ele>
        <time>2020-06-07T13:42:55Z</time>
      </trkpt>
      <trkpt lat="47.27215" lon="-1.68383">
        <ele>53.1</ele>
        <time>2020-06-07T13:42:56Z</time>
      </trkpt>
      <trkpt lat="47.27215" lon="-1.68384">
        <ele>53.1</ele>
        <time>2020-06-07T13:42:57Z</time>
      </trkpt>
      <trkpt lat="47.27215" lon="-1.68384">
        <ele>53.1</ele>
        <time>2020-06-07T13:42:58Z</time>
      </trkpt>
      <trkpt lat="47.27216" lon="-1.68385">
        <ele>53.1</ele>
        <time>2020-06-07T13:42:59Z</time>
      </trkpt>
      <trkpt lat="47.27216" lon="-1.68385">
        <ele>53.1</ele>
        <time>2020-06-07T13:43:00Z</time>
      </trkpt>
      <trkpt lat="47.27216" lon="-1.68386">
        <ele>53.1</ele>
        <time>2020-06-07T13:43:01Z</time>
      </trkpt>
      <trkpt lat="47.27216" lon="-1.68386">
        <ele>53.1</ele>
        <time>2020-06-07T13:43:02Z</time>
      </trkpt>
      <trkpt lat="47.27217" lon="-1.68387">
        <ele>53.1</ele>
        <time>2020-06-07T13:43:03Z</time>
      </trkpt>
      <trkpt lat="47.27216" lon="-1.68388">
        <ele>53.1</ele>
        <time>2020-06-07T13:43:04Z</time>
      </trkpt>
      <trkpt lat="47.27216" lon="-1.68388">
        <ele>53.1</ele>
        <time>2020-06-07T13:43:05Z</time>
      </trkpt>
      <trkpt lat="47.27216" lon="-1.68388">
        <ele>53.1</ele>
        <time>2020-06-07T13:43:06Z</time>
      </trkpt>
      <trkpt lat="47.27216" lon="-1.68388">
        <ele>53.1</ele>
        <time>2020-06-07T13:43:07Z</time>
      </trkpt>
      <trkpt lat="47.27216" lon="-1.68388">
        <ele>53.1</ele>
        <time>2020-06-07T13:43:08Z</time>
      </trkpt>
      <trkpt lat="47.27216" lon="-1.68388">
        <ele>53.1</ele>
        <time>2020-06-07T13:43:09Z</time>
      </trkpt>
      <trkpt lat="47.27216" lon="-1.68387">
        <ele>53.1</ele>
        <time>2020-06-07T13:43:10Z</time>
      </trkpt>
      <trkpt lat="47.27216" lon="-1.68387">
        <ele>53.1</ele>
        <time>2020-06-07T13:43:11Z</time>
      </trkpt>
      <trkpt lat="47.27216" lon="-1.68387">
        <ele>53.1</ele>
        <time>2020-06-07T13:43:12Z</time>
      </trkpt>
      <trkpt lat="47.27216" lon="-1.68387">
        <ele>53.1</ele>
        <time>2020-06-07T13:43:13Z</time>
      </trkpt>
      <trkpt lat="47.27217" lon="-1.68386">
        <ele>53.1</ele>
        <time>2020-06-07T13:43:14Z</time>
      </trkpt>
      <trkpt lat="47.27217" lon="-1.68386">
        <ele>53.1</ele>
        <time>2020-06-07T13:43:15Z</time>
      </trkpt>
      <trkpt lat="47.27217" lon="-1.68386">
        <ele>53.1</ele>
        <time>2020-06-07T13:43:16Z</time>
      </trkpt>
      <trkpt lat="47.27217" lon="-1.68386">
        <ele>53.1</ele>
        <time>2020-06-07T13:43:17Z</time>
      </trkpt>
      <trkpt lat="47.27217" lon="-1.68385">
        <ele>53.1</ele>
        <time>2020-06-07T13:43:18Z</time>
      </trkpt>
      <trkpt lat="47.27217" lon="-1.68385">
        <ele>53.1</ele>
        <time>2020-06-07T13:43:19Z</time>
      </trkpt>
      <trkpt lat="47.27217" lon="-1.68385">
        <ele>53.1</ele>
        <time>2020-06-07T13:43:20Z</time>
      </trkpt>
      <trkpt lat="47.27217" lon="-1.68385">
        <ele>53.1</ele>
        <time>2020-06-07T13:43:21Z</time>
      </trkpt>
      <trkpt lat="47.27217" lon="-1.68385">
        <ele>53.1</ele>
        <time>2020-06-07T13:43:22Z</time>
      </trkpt>
      <trkpt lat="47.27217" lon="-1.68384">
        <ele>53.1</ele>
        <time>2020-06-07T13:43:23Z</time>
      </trkpt>
      <trkpt lat="47.27217" lon="-1.68384">
        <ele>53.1</ele>
        <time>2020-06-07T13:43:24Z</time>
      </trkpt>
      <trkpt lat="47.27217" lon="-1.68384">
        <ele>53.2</ele>
        <time>2020-06-07T13:43:25Z</time>
      </trkpt>
      <trkpt lat="47.27217" lon="-1.68384">
        <ele>53.2</ele>
        <time>2020-06-07T13:43:26Z</time>
      </trkpt>
      <trkpt lat="47.27217" lon="-1.68383">
        <ele>53.2</ele>
        <time>2020-06-07T13:43:27Z</time>
      </trkpt>
      <trkpt lat="47.27218" lon="-1.68383">
        <ele>53.2</ele>
        <time>2020-06-07T13:43:28Z</time>
      </trkpt>
      <trkpt lat="47.27218" lon="-1.68383">
        <ele>53.2</ele>
        <time>2020-06-07T13:43:29Z</time>
      </trkpt>
      <trkpt lat="47.27218" lon="-1.68383">
        <ele>53.2</ele>
        <time>2020-06-07T13:43:30Z</time>
      </trkpt>
      <trkpt lat="47.27218" lon="-1.68383">
        <ele>53.2</ele>
        <time>2020-06-07T13:43:31Z</time>
      </trkpt>
      <trkpt lat="47.27218" lon="-1.68382">
        <ele>53.2</ele>
        <time>2020-06-07T13:43:32Z</time>
      </trkpt>
      <trkpt lat="47.27219" lon="-1.68383">
        <ele>53.2</ele>
        <time>2020-06-07T13:43:33Z</time>
      </trkpt>
      <trkpt lat="47.2722" lon="-1.68383">
        <ele>53.2</ele>
        <time>2020-06-07T13:43:34Z</time>
      </trkpt>
      <trkpt lat="47.2722" lon="-1.68384">
        <ele>53.2</ele>
        <time>2020-06-07T13:43:35Z</time>
      </trkpt>
      <trkpt lat="47.2722" lon="-1.68385">
        <ele>53.2</ele>
        <time>2020-06-07T13:43:36Z</time>
      </trkpt>
      <trkpt lat="47.27221" lon="-1.68384">
        <ele>53.2</ele>
        <time>2020-06-07T13:43:37Z</time>
      </trkpt>
      <trkpt lat="47.27221" lon="-1.68384">
        <ele>53.2</ele>
        <time>2020-06-07T13:43:38Z</time>
      </trkpt>
      <trkpt lat="47.27222" lon="-1.68383">
        <ele>53.2</ele>
        <time>2020-06-07T13:43:39Z</time>
      </trkpt>
      <trkpt lat="47.27222" lon="-1.68382">
        <ele>53.2</ele>
        <time>2020-06-07T13:43:40Z</time>
      </trkpt>
      <trkpt lat="47.27223" lon="-1.68382">
        <ele>53.2</ele>
        <time>2020-06-07T13:43:41Z</time>
      </trkpt>
      <trkpt lat="47.27224" lon="-1.68381">
        <ele>53.2</ele>
        <time>2020-06-07T13:43:42Z</time>
      </trkpt>
      <trkpt lat="47.27224" lon="-1.68381">
        <ele>53.2</ele>
        <time>2020-06-07T13:43:43Z</time>
      </trkpt>
      <trkpt lat="47.27224" lon="-1.68381">
        <ele>53.3</ele>
        <time>2020-06-07T13:43:44Z</time>
      </trkpt>
      <trkpt lat="47.27224" lon="-1.68382">
        <ele>53.3</ele>
        <time>2020-06-07T13:43:45Z</time>
      </trkpt>
      <trkpt lat="47.27224" lon="-1.68384">
        <ele>53.3</ele>
        <time>2020-06-07T13:43:46Z</time>
      </trkpt>
      <trkpt lat="47.27224" lon="-1.68386">
        <ele>53.3</ele>
        <time>2020-06-07T13:43:47Z</time>
      </trkpt>
      <trkpt lat="47.27225" lon="-1.6839">
        <ele>53.3</ele>
        <time>2020-06-07T13:43:48Z</time>
      </trkpt>
      <trkpt lat="47.27224" lon="-1.68391">
        <ele>53.3</ele>
        <time>2020-06-07T13:43:49Z</time>
      </trkpt>
      <trkpt lat="47.27223" lon="-1.68392">
        <ele>53.4</ele>
        <time>2020-06-07T13:43:50Z</time>
      </trkpt>
      <trkpt lat="47.27222" lon="-1.68392">
        <ele>53.4</ele>
        <time>2020-06-07T13:43:51Z</time>
      </trkpt>
      <trkpt lat="47.2722" lon="-1.68392">
        <ele>53.4</ele>
        <time>2020-06-07T13:43:52Z</time>
      </trkpt>
      <trkpt lat="47.27218" lon="-1.68392">
        <ele>53.4</ele>
        <time>2020-06-07T13:43:53Z</time>
      </trkpt>
      <trkpt lat="47.27216" lon="-1.68393">
        <ele>53.5</ele>
        <time>2020-06-07T13:43:54Z</time>
      </trkpt>
      <trkpt lat="47.27215" lon="-1.68392">
        <ele>53.5</ele>
        <time>2020-06-07T13:43:55Z</time>
      </trkpt>
      <trkpt lat="47.27223" lon="-1.6839">
        <ele>53.6</ele>
        <time>2020-06-07T13:43:56Z</time>
      </trkpt>
      <trkpt lat="47.27229" lon="-1.68389">
        <ele>53.7</ele>
        <time>2020-06-07T13:43:57Z</time>
      </trkpt>
      <trkpt lat="47.27236" lon="-1.68388">
        <ele>53.8</ele>
        <time>2020-06-07T13:43:58Z</time>
      </trkpt>
      <trkpt lat="47.27239" lon="-1.68387">
        <ele>53.8</ele>
        <time>2020-06-07T13:43:59Z</time>
      </trkpt>
      <trkpt lat="47.2724" lon="-1.68386">
        <ele>53.9</ele>
        <time>2020-06-07T13:44:00Z</time>
      </trkpt>
      <trkpt lat="47.27242" lon="-1.68382">
        <ele>53.9</ele>
        <time>2020-06-07T13:44:01Z</time>
      </trkpt>
      <trkpt lat="47.27243" lon="-1.68381">
        <ele>53.9</ele>
        <time>2020-06-07T13:44:02Z</time>
      </trkpt>
      <trkpt lat="47.27247" lon="-1.68382">
        <ele>54</ele>
        <time>2020-06-07T13:44:03Z</time>
      </trkpt>
      <trkpt lat="47.27248" lon="-1.68383">
        <ele>54</ele>
        <time>2020-06-07T13:44:04Z</time>
      </trkpt>
      <trkpt lat="47.2725" lon="-1.68385">
        <ele>54.1</ele>
        <time>2020-06-07T13:44:05Z</time>
      </trkpt>
      <trkpt lat="47.27251" lon="-1.68386">
        <ele>54.1</ele>
        <time>2020-06-07T13:44:06Z</time>
      </trkpt>
      <trkpt lat="47.27252" lon="-1.68387">
        <ele>54.1</ele>
        <time>2020-06-07T13:44:07Z</time>
      </trkpt>
      <trkpt lat="47.27252" lon="-1.68387">
        <ele>54.1</ele>
        <time>2020-06-07T13:44:08Z</time>
      </trkpt>
      <trkpt lat="47.27253" lon="-1.68388">
        <ele>54.1</ele>
        <time>2020-06-07T13:44:09Z</time>
      </trkpt>
      <trkpt lat="47.27255" lon="-1.6839">
        <ele>54.1</ele>
        <time>2020-06-07T13:44:10Z</time>
      </trkpt>
      <trkpt lat="47.27256" lon="-1.6839">
        <ele>54.1</ele>
        <time>2020-06-07T13:44:11Z</time>
      </trkpt>
      <trkpt lat="47.27256" lon="-1.68391">
        <ele>54.2</ele>
        <time>2020-06-07T13:44:12Z</time>
      </trkpt>
      <trkpt lat="47.27259" lon="-1.68394">
        <ele>54.2</ele>
        <time>2020-06-07T13:44:13Z</time>
      </trkpt>
      <trkpt lat="47.27258" lon="-1.68396">
        <ele>54.2</ele>
        <time>2020-06-07T13:44:14Z</time>
      </trkpt>
      <trkpt lat="47.27258" lon="-1.68397">
        <ele>54.2</ele>
        <time>2020-06-07T13:44:15Z</time>
      </trkpt>
      <trkpt lat="47.27257" lon="-1.68398">
        <ele>54.2</ele>
        <time>2020-06-07T13:44:16Z</time>
      </trkpt>
      <trkpt lat="47.27256" lon="-1.68399">
        <ele>54.3</ele>
        <time>2020-06-07T13:44:17Z</time>
      </trkpt>
      <trkpt lat="47.27255" lon="-1.684">
        <ele>54.3</ele>
        <time>2020-06-07T13:44:18Z</time>
      </trkpt>
      <trkpt lat="47.27254" lon="-1.68401">
        <ele>54.3</ele>
        <time>2020-06-07T13:44:19Z</time>
      </trkpt>
      <trkpt lat="47.27253" lon="-1.68402">
        <ele>54.3</ele>
        <time>2020-06-07T13:44:20Z</time>
      </trkpt>
      <trkpt lat="47.27252" lon="-1.68403">
        <ele>54.3</ele>
        <time>2020-06-07T13:44:21Z</time>
      </trkpt>
      <trkpt lat="47.27251" lon="-1.68404">
        <ele>54.3</ele>
        <time>2020-06-07T13:44:22Z</time>
      </trkpt>
      <trkpt lat="47.2725" lon="-1.68404">
        <ele>54.3</ele>
        <time>2020-06-07T13:44:23Z</time>
      </trkpt>
      <trkpt lat="47.27249" lon="-1.68404">
        <ele>54.3</ele>
        <time>2020-06-07T13:44:24Z</time>
      </trkpt>
      <trkpt lat="47.27248" lon="-1.68405">
        <ele>54.4</ele>
        <time>2020-06-07T13:44:25Z</time>
      </trkpt>
      <trkpt lat="47.27247" lon="-1.68405">
        <ele>54.4</ele>
        <time>2020-06-07T13:44:26Z</time>
      </trkpt>
      <trkpt lat="47.27245" lon="-1.68405">
        <ele>54.4</ele>
        <time>2020-06-07T13:44:27Z</time>
      </trkpt>
      <trkpt lat="47.27244" lon="-1.68405">
        <ele>54.4</ele>
        <time>2020-06-07T13:44:28Z</time>
      </trkpt>
      <trkpt lat="47.27242" lon="-1.68405">
        <ele>54.4</ele>
        <time>2020-06-07T13:44:29Z</time>
      </trkpt>
      <trkpt lat="47.27241" lon="-1.68405">
        <ele>54.4</ele>
        <time>2020-06-07T13:44:44Z</time>
      </trkpt>
      <trkpt lat="47.27239" lon="-1.68405">
        <ele>54.4</ele>
        <time>2020-06-07T13:44:45Z</time>
      </trkpt>
      <trkpt lat="47.27238" lon="-1.68405">
        <ele>54.5</ele>
        <time>2020-06-07T13:44:46Z</time>
      </trkpt>
      <trkpt lat="47.27236" lon="-1.68405">
        <ele>54.5</ele>
        <time>2020-06-07T13:44:47Z</time>
      </trkpt>
      <trkpt lat="47.27235" lon="-1.68405">
        <ele>54.5</ele>
        <time>2020-06-07T13:44:48Z</time>
      </trkpt>
      <trkpt lat="47.27233" lon="-1.68405">
        <ele>54.5</ele>
        <time>2020-06-07T13:44:49Z</time>
      </trkpt>
      <trkpt lat="47.27232" lon="-1.68405">
        <ele>54.5</ele>
        <time>2020-06-07T13:44:50Z</time>
      </trkpt>
      <trkpt lat="47.2723" lon="-1.68405">
        <ele>54.5</ele>
        <time>2020-06-07T13:44:51Z</time>
      </trkpt>
      <trkpt lat="47.27229" lon="-1.68405">
        <ele>54.5</ele>
        <time>2020-06-07T13:44:52Z</time>
      </trkpt>
      <trkpt lat="47.27229" lon="-1.68405">
        <ele>54.5</ele>
        <time>2020-06-07T13:44:53Z</time>
      </trkpt>
      <trkpt lat="47.27229" lon="-1.68405">
        <ele>54.5</ele>
        <time>2020-06-07T13:44:54Z</time>
      </trkpt>
      <trkpt lat="47.27229" lon="-1.68405">
        <ele>54.5</ele>
        <time>2020-06-07T13:44:55Z</time>
      </trkpt>
      <trkpt lat="47.27229" lon="-1.68405">
        <ele>54.5</ele>
        <time>2020-06-07T13:44:56Z</time>
      </trkpt>
      <trkpt lat="47.27229" lon="-1.68405">
        <ele>54.5</ele>
        <time>2020-06-07T13:44:57Z</time>
      </trkpt>
      <trkpt lat="47.27229" lon="-1.68405">
        <ele>54.5</ele>
        <time>2020-06-07T13:44:58Z</time>
      </trkpt>
      <trkpt lat="47.27229" lon="-1.68405">
        <ele>54.5</ele>
        <time>2020-06-07T13:44:59Z</time>
      </trkpt>
      <trkpt lat="47.27229" lon="-1.68405">
        <ele>54.5</ele>
        <time>2020-06-07T13:45:00Z</time>
      </trkpt>
      <trkpt lat="47.27229" lon="-1.68405">
        <ele>54.5</ele>
        <time>2020-06-07T13:45:01Z</time>
      </trkpt>
      <trkpt lat="47.27229" lon="-1.68405">
        <ele>54.5</ele>
        <time>2020-06-07T13:45:02Z</time>
      </trkpt>
      <trkpt lat="47.27206" lon="-1.68404">
        <ele>54.8</ele>
        <time>2020-06-07T13:48:48Z</time>
      </trkpt>
      <trkpt lat="47.27206" lon="-1.68406">
        <ele>54.8</ele>
        <time>2020-06-07T13:48:49Z</time>
      </trkpt>
      <trkpt lat="47.27206" lon="-1.68408">
        <ele>54.8</ele>
        <time>2020-06-07T13:48:50Z</time>
      </trkpt>
      <trkpt lat="47.27208" lon="-1.6841">
        <ele>54.8</ele>
        <time>2020-06-07T13:48:51Z</time>
      </trkpt>
      <trkpt lat="47.27209" lon="-1.68412">
        <ele>54.8</ele>
        <time>2020-06-07T13:48:52Z</time>
      </trkpt>
      <trkpt lat="47.27211" lon="-1.68412">
        <ele>54.8</ele>
        <time>2020-06-07T13:48:53Z</time>
      </trkpt>
      <trkpt lat="47.27212" lon="-1.68413">
        <ele>54.9</ele>
        <time>2020-06-07T13:48:54Z</time>
      </trkpt>
      <trkpt lat="47.27213" lon="-1.68414">
        <ele>54.9</ele>
        <time>2020-06-07T13:48:55Z</time>
      </trkpt>
      <trkpt lat="47.27213" lon="-1.68416">
        <ele>54.9</ele>
        <time>2020-06-07T13:48:56Z</time>
      </trkpt>
      <trkpt lat="47.27213" lon="-1.68417">
        <ele>54.9</ele>
        <time>2020-06-07T13:48:57Z</time>
      </trkpt>
      <trkpt lat="47.27214" lon="-1.68418">
        <ele>54.9</ele>
        <time>2020-06-07T13:48:58Z</time>
      </trkpt>
      <trkpt lat="47.27215" lon="-1.68419">
        <ele>54.9</ele>
        <time>2020-06-07T13:48:59Z</time>
      </trkpt>
      <trkpt lat="47.27216" lon="-1.68419">
        <ele>54.9</ele>
        <time>2020-06-07T13:49:00Z</time>
      </trkpt>
      <trkpt lat="47.27216" lon="-1.6842">
        <ele>55.1</ele>
        <time>2020-06-07T13:49:01Z</time>
      </trkpt>
      <trkpt lat="47.27216" lon="-1.68421">
        <ele>55.1</ele>
        <time>2020-06-07T13:49:02Z</time>
      </trkpt>
      <trkpt lat="47.27217" lon="-1.68422">
        <ele>55.1</ele>
        <time>2020-06-07T13:49:03Z</time>
      </trkpt>
      <trkpt lat="47.27217" lon="-1.68423">
        <ele>55.2</ele>
        <time>2020-06-07T13:49:04Z</time>
      </trkpt>
      <trkpt lat="47.27216" lon="-1.68424">
        <ele>55.2</ele>
        <time>2020-06-07T13:49:05Z</time>
      </trkpt>
      <trkpt lat="47.27216" lon="-1.68426">
        <ele>55.3</ele>
        <time>2020-06-07T13:49:06Z</time>
      </trkpt>
      <trkpt lat="47.27216" lon="-1.68428">
        <ele>55.4</ele>
        <time>2020-06-07T13:49:07Z</time>
      </trkpt>
      <trkpt lat="47.27215" lon="-1.6843">
        <ele>55.5</ele>
        <time>2020-06-07T13:49:08Z</time>
      </trkpt>
      <trkpt lat="47.27215" lon="-1.68432">
        <ele>55.5</ele>
        <time>2020-06-07T13:49:09Z</time>
      </trkpt>
      <trkpt lat="47.27215" lon="-1.68433">
        <ele>55.6</ele>
        <time>2020-06-07T13:49:10Z</time>
      </trkpt>
      <trkpt lat="47.27214" lon="-1.68434">
        <ele>55.6</ele>
        <time>2020-06-07T13:49:11Z</time>
      </trkpt>
      <trkpt lat="47.27214" lon="-1.68434">
        <ele>55.7</ele>
        <time>2020-06-07T13:49:12Z</time>
      </trkpt>
      <trkpt lat="47.27213" lon="-1.68435">
        <ele>55.7</ele>
        <time>2020-06-07T13:49:13Z</time>
      </trkpt>
      <trkpt lat="47.27212" lon="-1.68435">
        <ele>55.8</ele>
        <time>2020-06-07T13:49:14Z</time>
      </trkpt>
      <trkpt lat="47.27212" lon="-1.68435">
        <ele>55.8</ele>
        <time>2020-06-07T13:49:15Z</time>
      </trkpt>
      <trkpt lat="47.27211" lon="-1.68436">
        <ele>55.9</ele>
        <time>2020-06-07T13:49:16Z</time>
      </trkpt>
      <trkpt lat="47.27209" lon="-1.68437">
        <ele>56</ele>
        <time>2020-06-07T13:49:17Z</time>
      </trkpt>
      <trkpt lat="47.27208" lon="-1.68438">
        <ele>56.1</ele>
        <time>2020-06-07T13:49:18Z</time>
      </trkpt>
      <trkpt lat="47.27207" lon="-1.68438">
        <ele>56.1</ele>
        <time>2020-06-07T13:49:19Z</time>
      </trkpt>
      <trkpt lat="47.27207" lon="-1.68438">
        <ele>56.1</ele>
        <time>2020-06-07T13:49:20Z</time>
      </trkpt>
      <trkpt lat="47.27207" lon="-1.68439">
        <ele>56.2</ele>
        <time>2020-06-07T13:49:21Z</time>
      </trkpt>
      <trkpt lat="47.27206" lon="-1.68439">
        <ele>56.2</ele>
        <time>2020-06-07T13:49:22Z</time>
      </trkpt>
      <trkpt lat="47.27205" lon="-1.68441">
        <ele>56.3</ele>
        <time>2020-06-07T13:49:23Z</time>
      </trkpt>
      <trkpt lat="47.27205" lon="-1.68441">
        <ele>56.3</ele>
        <time>2020-06-07T13:49:24Z</time>
      </trkpt>
      <trkpt lat="47.27205" lon="-1.68443">
        <ele>56.4</ele>
        <time>2020-06-07T13:49:25Z</time>
      </trkpt>
      <trkpt lat="47.27205" lon="-1.68445">
        <ele>56.5</ele>
        <time>2020-06-07T13:49:26Z</time>
      </trkpt>
      <trkpt lat="47.27204" lon="-1.68447">
        <ele>56.5</ele>
        <time>2020-06-07T13:49:27Z</time>
      </trkpt>
      <trkpt lat="47.27204" lon="-1.68449">
        <ele>56.6</ele>
        <time>2020-06-07T13:49:28Z</time>
      </trkpt>
      <trkpt lat="47.27204" lon="-1.6845">
        <ele>56.7</ele>
        <time>2020-06-07T13:49:29Z</time>
      </trkpt>
      <trkpt lat="47.27203" lon="-1.68452">
        <ele>56.7</ele>
        <time>2020-06-07T13:49:30Z</time>
      </trkpt>
      <trkpt lat="47.27203" lon="-1.68453">
        <ele>56.8</ele>
        <time>2020-06-07T13:49:31Z</time>
      </trkpt>
      <trkpt lat="47.27202" lon="-1.68454">
        <ele>56.8</ele>
        <time>2020-06-07T13:49:32Z</time>
      </trkpt>
      <trkpt lat="47.27201" lon="-1.68456">
        <ele>56.9</ele>
        <time>2020-06-07T13:49:33Z</time>
      </trkpt>
      <trkpt lat="47.27201" lon="-1.68457">
        <ele>57</ele>
        <time>2020-06-07T13:49:34Z</time>
      </trkpt>
      <trkpt lat="47.272" lon="-1.68458">
        <ele>57</ele>
        <time>2020-06-07T13:49:35Z</time>
      </trkpt>
      <trkpt lat="47.272" lon="-1.68459">
        <ele>57</ele>
        <time>2020-06-07T13:49:36Z</time>
      </trkpt>
      <trkpt lat="47.27199" lon="-1.68459">
        <ele>57.1</ele>
        <time>2020-06-07T13:49:37Z</time>
      </trkpt>
      <trkpt lat="47.27198" lon="-1.68459">
        <ele>57.1</ele>
        <time>2020-06-07T13:49:38Z</time>
      </trkpt>
      <trkpt lat="47.27198" lon="-1.6846">
        <ele>57.1</ele>
        <time>2020-06-07T13:49:39Z</time>
      </trkpt>
      <trkpt lat="47.27197" lon="-1.68461">
        <ele>57.2</ele>
        <time>2020-06-07T13:49:40Z</time>
      </trkpt>
      <trkpt lat="47.27196" lon="-1.68462">
        <ele>57.2</ele>
        <time>2020-06-07T13:49:41Z</time>
      </trkpt>
      <trkpt lat="47.27195" lon="-1.68463">
        <ele>57.3</ele>
        <time>2020-06-07T13:49:42Z</time>
      </trkpt>
      <trkpt lat="47.27193" lon="-1.68465">
        <ele>57.4</ele>
        <time>2020-06-07T13:49:43Z</time>
      </trkpt>
      <trkpt lat="47.27193" lon="-1.68467">
        <ele>57.5</ele>
        <time>2020-06-07T13:49:44Z</time>
      </trkpt>
      <trkpt lat="47.27192" lon="-1.68468">
        <ele>57.5</ele>
        <time>2020-06-07T13:49:45Z</time>
      </trkpt>
      <trkpt lat="47.27192" lon="-1.68469">
        <ele>57.6</ele>
        <time>2020-06-07T13:49:46Z</time>
      </trkpt>
      <trkpt lat="47.27191" lon="-1.6847">
        <ele>57.6</ele>
        <time>2020-06-07T13:49:47Z</time>
      </trkpt>
      <trkpt lat="47.27191" lon="-1.68471">
        <ele>57.6</ele>
        <time>2020-06-07T13:49:48Z</time>
      </trkpt>
      <trkpt lat="47.27191" lon="-1.68471">
        <ele>57.6</ele>
        <time>2020-06-07T13:49:49Z</time>
      </trkpt>
      <trkpt lat="47.2719" lon="-1.68472">
        <ele>57.7</ele>
        <time>2020-06-07T13:49:50Z</time>
      </trkpt>
      <trkpt lat="47.2719" lon="-1.68472">
        <ele>57.7</ele>
        <time>2020-06-07T13:49:51Z</time>
      </trkpt>
      <trkpt lat="47.27189" lon="-1.68473">
        <ele>57.7</ele>
        <time>2020-06-07T13:49:52Z</time>
      </trkpt>
      <trkpt lat="47.27189" lon="-1.68473">
        <ele>57.8</ele>
        <time>2020-06-07T13:49:53Z</time>
      </trkpt>
      <trkpt lat="47.27189" lon="-1.68475">
        <ele>57.8</ele>
        <time>2020-06-07T13:49:54Z</time>
      </trkpt>
      <trkpt lat="47.27189" lon="-1.68476">
        <ele>57.8</ele>
        <time>2020-06-07T13:49:55Z</time>
      </trkpt>
      <trkpt lat="47.27188" lon="-1.68477">
        <ele>57.9</ele>
        <time>2020-06-07T13:49:56Z</time>
      </trkpt>
      <trkpt lat="47.27187" lon="-1.68479">
        <ele>58</ele>
        <time>2020-06-07T13:49:57Z</time>
      </trkpt>
      <trkpt lat="47.27187" lon="-1.68479">
        <ele>58</ele>
        <time>2020-06-07T13:49:58Z</time>
      </trkpt>
      <trkpt lat="47.27186" lon="-1.6848">
        <ele>58.1</ele>
        <time>2020-06-07T13:49:59Z</time>
      </trkpt>
      <trkpt lat="47.27186" lon="-1.68481">
        <ele>58.1</ele>
        <time>2020-06-07T13:50:00Z</time>
      </trkpt>
      <trkpt lat="47.27185" lon="-1.68482">
        <ele>58.2</ele>
        <time>2020-06-07T13:50:01Z</time>
      </trkpt>
      <trkpt lat="47.27184" lon="-1.68482">
        <ele>58.2</ele>
        <time>2020-06-07T13:50:02Z</time>
      </trkpt>
      <trkpt lat="47.27184" lon="-1.68483">
        <ele>58.3</ele>
        <time>2020-06-07T13:50:03Z</time>
      </trkpt>
      <trkpt lat="47.27183" lon="-1.68485">
        <ele>58.3</ele>
        <time>2020-06-07T13:50:04Z</time>
      </trkpt>
      <trkpt lat="47.27182" lon="-1.68486">
        <ele>58.4</ele>
        <time>2020-06-07T13:50:05Z</time>
      </trkpt>
      <trkpt lat="47.27182" lon="-1.68486">
        <ele>58.4</ele>
        <time>2020-06-07T13:50:06Z</time>
      </trkpt>
      <trkpt lat="47.27181" lon="-1.68487">
        <ele>58.4</ele>
        <time>2020-06-07T13:50:07Z</time>
      </trkpt>
      <trkpt lat="47.27181" lon="-1.68488">
        <ele>58.5</ele>
        <time>2020-06-07T13:50:08Z</time>
      </trkpt>
      <trkpt lat="47.2718" lon="-1.68489">
        <ele>58.5</ele>
        <time>2020-06-07T13:50:09Z</time>
      </trkpt>
      <trkpt lat="47.27179" lon="-1.6849">
        <ele>58.6</ele>
        <time>2020-06-07T13:50:10Z</time>
      </trkpt>
      <trkpt lat="47.27179" lon="-1.6849">
        <ele>58.6</ele>
        <time>2020-06-07T13:50:11Z</time>
      </trkpt>
      <trkpt lat="47.27178" lon="-1.68491">
        <ele>58.7</ele>
        <time>2020-06-07T13:50:12Z</time>
      </trkpt>
      <trkpt lat="47.27177" lon="-1.68492">
        <ele>58.7</ele>
        <time>2020-06-07T13:50:13Z</time>
      </trkpt>
      <trkpt lat="47.27176" lon="-1.68493">
        <ele>58.8</ele>
        <time>2020-06-07T13:50:14Z</time>
      </trkpt>
      <trkpt lat="47.27175" lon="-1.68494">
        <ele>58.8</ele>
        <time>2020-06-07T13:50:15Z</time>
      </trkpt>
      <trkpt lat="47.27174" lon="-1.68494">
        <ele>58.9</ele>
        <time>2020-06-07T13:50:16Z</time>
      </trkpt>
      <trkpt lat="47.27173" lon="-1.68494">
        <ele>58.9</ele>
        <time>2020-06-07T13:50:17Z</time>
      </trkpt>
      <trkpt lat="47.27172" lon="-1.68495">
        <ele>59.1</ele>
        <time>2020-06-07T13:50:18Z</time>
      </trkpt>
      <trkpt lat="47.27171" lon="-1.68496">
        <ele>59.2</ele>
        <time>2020-06-07T13:50:19Z</time>
      </trkpt>
      <trkpt lat="47.2717" lon="-1.68497">
        <ele>59.2</ele>
        <time>2020-06-07T13:50:20Z</time>
      </trkpt>
      <trkpt lat="47.27169" lon="-1.68498">
        <ele>59.3</ele>
        <time>2020-06-07T13:50:21Z</time>
      </trkpt>
      <trkpt lat="47.27167" lon="-1.68501">
        <ele>59.4</ele>
        <time>2020-06-07T13:50:22Z</time>
      </trkpt>
      <trkpt lat="47.27166" lon="-1.68502">
        <ele>59.4</ele>
        <time>2020-06-07T13:50:23Z</time>
      </trkpt>
      <trkpt lat="47.27165" lon="-1.68503">
        <ele>59.5</ele>
        <time>2020-06-07T13:50:24Z</time>
      </trkpt>
      <trkpt lat="47.27165" lon="-1.68504">
        <ele>59.5</ele>
        <time>2020-06-07T13:50:25Z</time>
      </trkpt>
      <trkpt lat="47.27164" lon="-1.68505">
        <ele>59.6</ele>
        <time>2020-06-07T13:50:26Z</time>
      </trkpt>
      <trkpt lat="47.27163" lon="-1.68506">
        <ele>59.6</ele>
        <time>2020-06-07T13:50:27Z</time>
      </trkpt>
      <trkpt lat="47.27163" lon="-1.68507">
        <ele>59.7</ele>
        <time>2020-06-07T13:50:28Z</time>
      </trkpt>
      <trkpt lat="47.27162" lon="-1.68507">
        <ele>59.7</ele>
        <time>2020-06-07T13:50:29Z</time>
      </trkpt>
      <trkpt lat="47.27161" lon="-1.68508">
        <ele>59.7</ele>
        <time>2020-06-07T13:50:30Z</time>
      </trkpt>
      <trkpt lat="47.2716" lon="-1.68508">
        <ele>59.8</ele>
        <time>2020-06-07T13:50:31Z</time>
      </trkpt>
      <trkpt lat="47.2716" lon="-1.68509">
        <ele>59.8</ele>
        <time>2020-06-07T13:50:32Z</time>
      </trkpt>
      <trkpt lat="47.27159" lon="-1.68509">
        <ele>59.8</ele>
        <time>2020-06-07T13:50:33Z</time>
      </trkpt>
      <trkpt lat="47.27158" lon="-1.6851">
        <ele>59.8</ele>
        <time>2020-06-07T13:50:34Z</time>
      </trkpt>
      <trkpt lat="47.27157" lon="-1.6851">
        <ele>59.9</ele>
        <time>2020-06-07T13:50:35Z</time>
      </trkpt>
      <trkpt lat="47.27157" lon="-1.6851">
        <ele>59.9</ele>
        <time>2020-06-07T13:50:36Z</time>
      </trkpt>
      <trkpt lat="47.27156" lon="-1.68511">
        <ele>59.9</ele>
        <time>2020-06-07T13:50:37Z</time>
      </trkpt>
      <trkpt lat="47.27155" lon="-1.68511">
        <ele>60</ele>
        <time>2020-06-07T13:50:38Z</time>
      </trkpt>
      <trkpt lat="47.27154" lon="-1.68512">
        <ele>60</ele>
        <time>2020-06-07T13:50:39Z</time>
      </trkpt>
      <trkpt lat="47.27154" lon="-1.68513">
        <ele>60</ele>
        <time>2020-06-07T13:50:40Z</time>
      </trkpt>
      <trkpt lat="47.27153" lon="-1.68513">
        <ele>60.1</ele>
        <time>2020-06-07T13:50:41Z</time>
      </trkpt>
      <trkpt lat="47.27153" lon="-1.68514">
        <ele>60.1</ele>
        <time>2020-06-07T13:50:42Z</time>
      </trkpt>
      <trkpt lat="47.27151" lon="-1.68515">
        <ele>60.1</ele>
        <time>2020-06-07T13:50:43Z</time>
      </trkpt>
      <trkpt lat="47.27151" lon="-1.68515">
        <ele>60.1</ele>
        <time>2020-06-07T13:50:44Z</time>
      </trkpt>
      <trkpt lat="47.2715" lon="-1.68516">
        <ele>60.2</ele>
        <time>2020-06-07T13:50:45Z</time>
      </trkpt>
      <trkpt lat="47.27149" lon="-1.68516">
        <ele>60.2</ele>
        <time>2020-06-07T13:50:46Z</time>
      </trkpt>
      <trkpt lat="47.27147" lon="-1.68517">
        <ele>60.3</ele>
        <time>2020-06-07T13:50:47Z</time>
      </trkpt>
      <trkpt lat="47.27146" lon="-1.68517">
        <ele>60.3</ele>
        <time>2020-06-07T13:50:48Z</time>
      </trkpt>
      <trkpt lat="47.27145" lon="-1.68518">
        <ele>60.3</ele>
        <time>2020-06-07T13:50:49Z</time>
      </trkpt>
      <trkpt lat="47.27144" lon="-1.68518">
        <ele>60.4</ele>
        <time>2020-06-07T13:50:50Z</time>
      </trkpt>
      <trkpt lat="47.27144" lon="-1.68517">
        <ele>60.4</ele>
        <time>2020-06-07T13:50:51Z</time>
      </trkpt>
      <trkpt lat="47.27143" lon="-1.68517">
        <ele>60.4</ele>
        <time>2020-06-07T13:50:52Z</time>
      </trkpt>
      <trkpt lat="47.27142" lon="-1.68518">
        <ele>60.5</ele>
        <time>2020-06-07T13:50:53Z</time>
      </trkpt>
      <trkpt lat="47.27141" lon="-1.68518">
        <ele>60.5</ele>
        <time>2020-06-07T13:50:54Z</time>
      </trkpt>
      <trkpt lat="47.2714" lon="-1.68518">
        <ele>60.6</ele>
        <time>2020-06-07T13:50:55Z</time>
      </trkpt>
      <trkpt lat="47.27139" lon="-1.68517">
        <ele>60.6</ele>
        <time>2020-06-07T13:50:56Z</time>
      </trkpt>
      <trkpt lat="47.27138" lon="-1.68517">
        <ele>60.6</ele>
        <time>2020-06-07T13:50:57Z</time>
      </trkpt>
      <trkpt lat="47.27138" lon="-1.68516">
        <ele>60.6</ele>
        <time>2020-06-07T13:50:58Z</time>
      </trkpt>
      <trkpt lat="47.27137" lon="-1.68517">
        <ele>60.7</ele>
        <time>2020-06-07T13:50:59Z</time>
      </trkpt>
      <trkpt lat="47.27136" lon="-1.68517">
        <ele>60.7</ele>
        <time>2020-06-07T13:51:00Z</time>
      </trkpt>
      <trkpt lat="47.27135" lon="-1.68517">
        <ele>60.8</ele>
        <time>2020-06-07T13:51:01Z</time>
      </trkpt>
      <trkpt lat="47.27134" lon="-1.68518">
        <ele>60.8</ele>
        <time>2020-06-07T13:51:02Z</time>
      </trkpt>
      <trkpt lat="47.27133" lon="-1.68519">
        <ele>60.8</ele>
        <time>2020-06-07T13:51:03Z</time>
      </trkpt>
      <trkpt lat="47.27132" lon="-1.68519">
        <ele>60.9</ele>
        <time>2020-06-07T13:51:04Z</time>
      </trkpt>
      <trkpt lat="47.27131" lon="-1.6852">
        <ele>60.9</ele>
        <time>2020-06-07T13:51:05Z</time>
      </trkpt>
      <trkpt lat="47.2713" lon="-1.6852">
        <ele>60.9</ele>
        <time>2020-06-07T13:51:06Z</time>
      </trkpt>
      <trkpt lat="47.27128" lon="-1.68521">
        <ele>61</ele>
        <time>2020-06-07T13:51:07Z</time>
      </trkpt>
      <trkpt lat="47.27126" lon="-1.6852">
        <ele>61</ele>
        <time>2020-06-07T13:51:08Z</time>
      </trkpt>
      <trkpt lat="47.27125" lon="-1.6852">
        <ele>61.1</ele>
        <time>2020-06-07T13:51:09Z</time>
      </trkpt>
      <trkpt lat="47.27124" lon="-1.6852">
        <ele>61.1</ele>
        <time>2020-06-07T13:51:10Z</time>
      </trkpt>
      <trkpt lat="47.27122" lon="-1.6852">
        <ele>61.2</ele>
        <time>2020-06-07T13:51:11Z</time>
      </trkpt>
      <trkpt lat="47.27121" lon="-1.6852">
        <ele>61.2</ele>
        <time>2020-06-07T13:51:12Z</time>
      </trkpt>
      <trkpt lat="47.27119" lon="-1.68521">
        <ele>61.2</ele>
        <time>2020-06-07T13:51:13Z</time>
      </trkpt>
      <trkpt lat="47.27118" lon="-1.68521">
        <ele>61.3</ele>
        <time>2020-06-07T13:51:14Z</time>
      </trkpt>
      <trkpt lat="47.27117" lon="-1.68522">
        <ele>61.3</ele>
        <time>2020-06-07T13:51:15Z</time>
      </trkpt>
      <trkpt lat="47.27116" lon="-1.68522">
        <ele>61.3</ele>
        <time>2020-06-07T13:51:16Z</time>
      </trkpt>
      <trkpt lat="47.27115" lon="-1.68524">
        <ele>61.3</ele>
        <time>2020-06-07T13:51:17Z</time>
      </trkpt>
      <trkpt lat="47.27115" lon="-1.68525">
        <ele>61.4</ele>
        <time>2020-06-07T13:51:18Z</time>
      </trkpt>
      <trkpt lat="47.27115" lon="-1.68527">
        <ele>61.4</ele>
        <time>2020-06-07T13:51:19Z</time>
      </trkpt>
      <trkpt lat="47.27114" lon="-1.68528">
        <ele>61.4</ele>
        <time>2020-06-07T13:51:20Z</time>
      </trkpt>
      <trkpt lat="47.27113" lon="-1.68529">
        <ele>61.4</ele>
        <time>2020-06-07T13:51:21Z</time>
      </trkpt>
      <trkpt lat="47.27112" lon="-1.68529">
        <ele>61.4</ele>
        <time>2020-06-07T13:51:22Z</time>
      </trkpt>
      <trkpt lat="47.27111" lon="-1.68529">
        <ele>61.5</ele>
        <time>2020-06-07T13:51:23Z</time>
      </trkpt>
      <trkpt lat="47.27111" lon="-1.68529">
        <ele>61.5</ele>
        <time>2020-06-07T13:51:24Z</time>
      </trkpt>
      <trkpt lat="47.2711" lon="-1.68529">
        <ele>61.5</ele>
        <time>2020-06-07T13:51:25Z</time>
      </trkpt>
      <trkpt lat="47.27109" lon="-1.68529">
        <ele>61.5</ele>
        <time>2020-06-07T13:51:26Z</time>
      </trkpt>
      <trkpt lat="47.27107" lon="-1.68528">
        <ele>61.6</ele>
        <time>2020-06-07T13:51:27Z</time>
      </trkpt>
      <trkpt lat="47.27106" lon="-1.68529">
        <ele>62.1</ele>
        <time>2020-06-07T13:51:28Z</time>
      </trkpt>
      <trkpt lat="47.27105" lon="-1.6853">
        <ele>62.2</ele>
        <time>2020-06-07T13:51:29Z</time>
      </trkpt>
      <trkpt lat="47.27105" lon="-1.68531">
        <ele>62.2</ele>
        <time>2020-06-07T13:51:30Z</time>
      </trkpt>
      <trkpt lat="47.27105" lon="-1.68533">
        <ele>62.3</ele>
        <time>2020-06-07T13:51:31Z</time>
      </trkpt>
      <trkpt lat="47.27105" lon="-1.68535">
        <ele>62.3</ele>
        <time>2020-06-07T13:51:32Z</time>
      </trkpt>
      <trkpt lat="47.27105" lon="-1.68536">
        <ele>62.3</ele>
        <time>2020-06-07T13:51:33Z</time>
      </trkpt>
      <trkpt lat="47.27105" lon="-1.68537">
        <ele>62.4</ele>
        <time>2020-06-07T13:51:34Z</time>
      </trkpt>
      <trkpt lat="47.27105" lon="-1.68537">
        <ele>62.4</ele>
        <time>2020-06-07T13:51:35Z</time>
      </trkpt>
      <trkpt lat="47.27104" lon="-1.68538">
        <ele>62.4</ele>
        <time>2020-06-07T13:51:36Z</time>
      </trkpt>
      <trkpt lat="47.27104" lon="-1.68539">
        <ele>62.5</ele>
        <time>2020-06-07T13:51:37Z</time>
      </trkpt>
      <trkpt lat="47.27104" lon="-1.68541">
        <ele>62.5</ele>
        <time>2020-06-07T13:51:38Z</time>
      </trkpt>
      <trkpt lat="47.27104" lon="-1.68543">
        <ele>62.6</ele>
        <time>2020-06-07T13:51:39Z</time>
      </trkpt>
      <trkpt lat="47.27104" lon="-1.68544">
        <ele>62.6</ele>
        <time>2020-06-07T13:51:40Z</time>
      </trkpt>
      <trkpt lat="47.27105" lon="-1.68545">
        <ele>62.6</ele>
        <time>2020-06-07T13:51:41Z</time>
      </trkpt>
      <trkpt lat="47.27105" lon="-1.68546">
        <ele>62.6</ele>
        <time>2020-06-07T13:51:42Z</time>
      </trkpt>
      <trkpt lat="47.27105" lon="-1.68548">
        <ele>62.7</ele>
        <time>2020-06-07T13:51:43Z</time>
      </trkpt>
      <trkpt lat="47.27105" lon="-1.68549">
        <ele>62.7</ele>
        <time>2020-06-07T13:51:44Z</time>
      </trkpt>
      <trkpt lat="47.27105" lon="-1.68551">
        <ele>62.8</ele>
        <time>2020-06-07T13:51:45Z</time>
      </trkpt>
      <trkpt lat="47.27105" lon="-1.68552">
        <ele>62.8</ele>
        <time>2020-06-07T13:51:46Z</time>
      </trkpt>
      <trkpt lat="47.27105" lon="-1.68554">
        <ele>62.8</ele>
        <time>2020-06-07T13:51:47Z</time>
      </trkpt>
      <trkpt lat="47.27105" lon="-1.68555">
        <ele>62.9</ele>
        <time>2020-06-07T13:51:48Z</time>
      </trkpt>
      <trkpt lat="47.27104" lon="-1.68557">
        <ele>62.9</ele>
        <time>2020-06-07T13:51:49Z</time>
      </trkpt>
      <trkpt lat="47.27104" lon="-1.68558">
        <ele>63</ele>
        <time>2020-06-07T13:51:50Z</time>
      </trkpt>
      <trkpt lat="47.27104" lon="-1.68559">
        <ele>63</ele>
        <time>2020-06-07T13:51:51Z</time>
      </trkpt>
      <trkpt lat="47.27104" lon="-1.6856">
        <ele>63</ele>
        <time>2020-06-07T13:51:52Z</time>
      </trkpt>
      <trkpt lat="47.27103" lon="-1.68561">
        <ele>63.1</ele>
        <time>2020-06-07T13:51:53Z</time>
      </trkpt>
      <trkpt lat="47.27103" lon="-1.68563">
        <ele>63.1</ele>
        <time>2020-06-07T13:51:54Z</time>
      </trkpt>
      <trkpt lat="47.27102" lon="-1.68564">
        <ele>63.1</ele>
        <time>2020-06-07T13:51:55Z</time>
      </trkpt>
      <trkpt lat="47.27101" lon="-1.68565">
        <ele>63.2</ele>
        <time>2020-06-07T13:51:56Z</time>
      </trkpt>
      <trkpt lat="47.271" lon="-1.68567">
        <ele>63.2</ele>
        <time>2020-06-07T13:51:57Z</time>
      </trkpt>
      <trkpt lat="47.271" lon="-1.68568">
        <ele>63.3</ele>
        <time>2020-06-07T13:51:58Z</time>
      </trkpt>
      <trkpt lat="47.27099" lon="-1.68568">
        <ele>63.3</ele>
        <time>2020-06-07T13:51:59Z</time>
      </trkpt>
      <trkpt lat="47.27098" lon="-1.68569">
        <ele>63.3</ele>
        <time>2020-06-07T13:52:00Z</time>
      </trkpt>
      <trkpt lat="47.27097" lon="-1.68571">
        <ele>63.4</ele>
        <time>2020-06-07T13:52:01Z</time>
      </trkpt>
      <trkpt lat="47.27096" lon="-1.68572">
        <ele>63.4</ele>
        <time>2020-06-07T13:52:02Z</time>
      </trkpt>
      <trkpt lat="47.27096" lon="-1.68574">
        <ele>63.5</ele>
        <time>2020-06-07T13:52:03Z</time>
      </trkpt>
      <trkpt lat="47.27095" lon="-1.68575">
        <ele>63.5</ele>
        <time>2020-06-07T13:52:04Z</time>
      </trkpt>
      <trkpt lat="47.27095" lon="-1.68576">
        <ele>63.6</ele>
        <time>2020-06-07T13:52:05Z</time>
      </trkpt>
      <trkpt lat="47.27094" lon="-1.68578">
        <ele>63.6</ele>
        <time>2020-06-07T13:52:06Z</time>
      </trkpt>
      <trkpt lat="47.27094" lon="-1.6858">
        <ele>63.7</ele>
        <time>2020-06-07T13:52:07Z</time>
      </trkpt>
      <trkpt lat="47.27094" lon="-1.68581">
        <ele>63.7</ele>
        <time>2020-06-07T13:52:08Z</time>
      </trkpt>
      <trkpt lat="47.27093" lon="-1.68583">
        <ele>63.8</ele>
        <time>2020-06-07T13:52:09Z</time>
      </trkpt>
      <trkpt lat="47.27092" lon="-1.68585">
        <ele>63.9</ele>
        <time>2020-06-07T13:52:10Z</time>
      </trkpt>
      <trkpt lat="47.27091" lon="-1.68587">
        <ele>63.9</ele>
        <time>2020-06-07T13:52:11Z</time>
      </trkpt>
      <trkpt lat="47.27091" lon="-1.68588">
        <ele>64</ele>
        <time>2020-06-07T13:52:12Z</time>
      </trkpt>
      <trkpt lat="47.2709" lon="-1.68591">
        <ele>64</ele>
        <time>2020-06-07T13:52:13Z</time>
      </trkpt>
      <trkpt lat="47.2709" lon="-1.68592">
        <ele>64.1</ele>
        <time>2020-06-07T13:52:14Z</time>
      </trkpt>
      <trkpt lat="47.27089" lon="-1.68593">
        <ele>64.1</ele>
        <time>2020-06-07T13:52:15Z</time>
      </trkpt>
      <trkpt lat="47.27089" lon="-1.68595">
        <ele>64.2</ele>
        <time>2020-06-07T13:52:16Z</time>
      </trkpt>
      <trkpt lat="47.27088" lon="-1.68596">
        <ele>64.2</ele>
        <time>2020-06-07T13:52:17Z</time>
      </trkpt>
      <trkpt lat="47.27087" lon="-1.68598">
        <ele>64.3</ele>
        <time>2020-06-07T13:52:18Z</time>
      </trkpt>
      <trkpt lat="47.27086" lon="-1.68599">
        <ele>64.3</ele>
        <time>2020-06-07T13:52:19Z</time>
      </trkpt>
      <trkpt lat="47.27086" lon="-1.686">
        <ele>64.4</ele>
        <time>2020-06-07T13:52:20Z</time>
      </trkpt>
      <trkpt lat="47.27085" lon="-1.68603">
        <ele>64.5</ele>
        <time>2020-06-07T13:52:21Z</time>
      </trkpt>
      <trkpt lat="47.27084" lon="-1.68604">
        <ele>64.5</ele>
        <time>2020-06-07T13:52:22Z</time>
      </trkpt>
      <trkpt lat="47.27084" lon="-1.68605">
        <ele>64.6</ele>
        <time>2020-06-07T13:52:23Z</time>
      </trkpt>
      <trkpt lat="47.27082" lon="-1.68607">
        <ele>64.7</ele>
        <time>2020-06-07T13:52:24Z</time>
      </trkpt>
      <trkpt lat="47.27081" lon="-1.68608">
        <ele>64.7</ele>
        <time>2020-06-07T13:52:25Z</time>
      </trkpt>
      <trkpt lat="47.27081" lon="-1.68609">
        <ele>64.7</ele>
        <time>2020-06-07T13:52:26Z</time>
      </trkpt>
      <trkpt lat="47.2708" lon="-1.6861">
        <ele>64.8</ele>
        <time>2020-06-07T13:52:27Z</time>
      </trkpt>
      <trkpt lat="47.27079" lon="-1.68612">
        <ele>64.8</ele>
        <time>2020-06-07T13:52:28Z</time>
      </trkpt>
      <trkpt lat="47.27079" lon="-1.68613">
        <ele>64.9</ele>
        <time>2020-06-07T13:52:29Z</time>
      </trkpt>
      <trkpt lat="47.27079" lon="-1.68615">
        <ele>64.9</ele>
        <time>2020-06-07T13:52:30Z</time>
      </trkpt>
      <trkpt lat="47.27078" lon="-1.68616">
        <ele>64.9</ele>
        <time>2020-06-07T13:52:31Z</time>
      </trkpt>
      <trkpt lat="47.27077" lon="-1.68617">
        <ele>65</ele>
        <time>2020-06-07T13:52:32Z</time>
      </trkpt>
      <trkpt lat="47.27077" lon="-1.68618">
        <ele>65</ele>
        <time>2020-06-07T13:52:33Z</time>
      </trkpt>
      <trkpt lat="47.27077" lon="-1.68619">
        <ele>65</ele>
        <time>2020-06-07T13:52:34Z</time>
      </trkpt>
      <trkpt lat="47.27076" lon="-1.68621">
        <ele>65.3</ele>
        <time>2020-06-07T13:52:35Z</time>
      </trkpt>
      <trkpt lat="47.27076" lon="-1.68622">
        <ele>65.4</ele>
        <time>2020-06-07T13:52:36Z</time>
      </trkpt>
      <trkpt lat="47.27076" lon="-1.68623">
        <ele>65.4</ele>
        <time>2020-06-07T13:52:37Z</time>
      </trkpt>
      <trkpt lat="47.27075" lon="-1.68625">
        <ele>65.5</ele>
        <time>2020-06-07T13:52:38Z</time>
      </trkpt>
      <trkpt lat="47.27076" lon="-1.68628">
        <ele>65.6</ele>
        <time>2020-06-07T13:52:39Z</time>
      </trkpt>
      <trkpt lat="47.27076" lon="-1.68629">
        <ele>65.6</ele>
        <time>2020-06-07T13:52:40Z</time>
      </trkpt>
      <trkpt lat="47.27077" lon="-1.6863">
        <ele>65.6</ele>
        <time>2020-06-07T13:52:41Z</time>
      </trkpt>
      <trkpt lat="47.27078" lon="-1.68632">
        <ele>65.7</ele>
        <time>2020-06-07T13:52:42Z</time>
      </trkpt>
      <trkpt lat="47.27079" lon="-1.68634">
        <ele>65.8</ele>
        <time>2020-06-07T13:52:43Z</time>
      </trkpt>
      <trkpt lat="47.2708" lon="-1.68636">
        <ele>65.9</ele>
        <time>2020-06-07T13:52:44Z</time>
      </trkpt>
      <trkpt lat="47.27081" lon="-1.68637">
        <ele>65.9</ele>
        <time>2020-06-07T13:52:45Z</time>
      </trkpt>
      <trkpt lat="47.27081" lon="-1.68638">
        <ele>65.9</ele>
        <time>2020-06-07T13:52:46Z</time>
      </trkpt>
      <trkpt lat="47.27082" lon="-1.68639">
        <ele>66</ele>
        <time>2020-06-07T13:52:47Z</time>
      </trkpt>
      <trkpt lat="47.27083" lon="-1.6864">
        <ele>66</ele>
        <time>2020-06-07T13:52:48Z</time>
      </trkpt>
      <trkpt lat="47.27083" lon="-1.68642">
        <ele>66.1</ele>
        <time>2020-06-07T13:52:49Z</time>
      </trkpt>
      <trkpt lat="47.27084" lon="-1.68643">
        <ele>66.1</ele>
        <time>2020-06-07T13:52:50Z</time>
      </trkpt>
      <trkpt lat="47.27085" lon="-1.68644">
        <ele>66.2</ele>
        <time>2020-06-07T13:52:51Z</time>
      </trkpt>
      <trkpt lat="47.27085" lon="-1.68645">
        <ele>66.2</ele>
        <time>2020-06-07T13:52:52Z</time>
      </trkpt>
      <trkpt lat="47.27087" lon="-1.68647">
        <ele>66.3</ele>
        <time>2020-06-07T13:52:53Z</time>
      </trkpt>
      <trkpt lat="47.27088" lon="-1.68647">
        <ele>66.3</ele>
        <time>2020-06-07T13:52:54Z</time>
      </trkpt>
      <trkpt lat="47.27089" lon="-1.68648">
        <ele>66.3</ele>
        <time>2020-06-07T13:52:55Z</time>
      </trkpt>
      <trkpt lat="47.2709" lon="-1.68649">
        <ele>66.4</ele>
        <time>2020-06-07T13:52:56Z</time>
      </trkpt>
      <trkpt lat="47.27091" lon="-1.6865">
        <ele>66.4</ele>
        <time>2020-06-07T13:52:57Z</time>
      </trkpt>
      <trkpt lat="47.27092" lon="-1.68651">
        <ele>66.5</ele>
        <time>2020-06-07T13:52:58Z</time>
      </trkpt>
      <trkpt lat="47.27093" lon="-1.68652">
        <ele>66.5</ele>
        <time>2020-06-07T13:52:59Z</time>
      </trkpt>
      <trkpt lat="47.27094" lon="-1.68653">
        <ele>66.6</ele>
        <time>2020-06-07T13:53:00Z</time>
      </trkpt>
      <trkpt lat="47.27094" lon="-1.68654">
        <ele>66.6</ele>
        <time>2020-06-07T13:53:01Z</time>
      </trkpt>
      <trkpt lat="47.27095" lon="-1.68654">
        <ele>66.6</ele>
        <time>2020-06-07T13:53:02Z</time>
      </trkpt>
      <trkpt lat="47.27096" lon="-1.68655">
        <ele>66.7</ele>
        <time>2020-06-07T13:53:03Z</time>
      </trkpt>
      <trkpt lat="47.27096" lon="-1.68657">
        <ele>66.7</ele>
        <time>2020-06-07T13:53:04Z</time>
      </trkpt>
      <trkpt lat="47.27097" lon="-1.68658">
        <ele>66.8</ele>
        <time>2020-06-07T13:53:05Z</time>
      </trkpt>
      <trkpt lat="47.27098" lon="-1.68659">
        <ele>66.8</ele>
        <time>2020-06-07T13:53:06Z</time>
      </trkpt>
      <trkpt lat="47.27098" lon="-1.6866">
        <ele>66.8</ele>
        <time>2020-06-07T13:53:07Z</time>
      </trkpt>
      <trkpt lat="47.27099" lon="-1.68661">
        <ele>66.9</ele>
        <time>2020-06-07T13:53:08Z</time>
      </trkpt>
      <trkpt lat="47.271" lon="-1.68662">
        <ele>66.9</ele>
        <time>2020-06-07T13:53:09Z</time>
      </trkpt>
      <trkpt lat="47.27101" lon="-1.68663">
        <ele>67</ele>
        <time>2020-06-07T13:53:10Z</time>
      </trkpt>
      <trkpt lat="47.27102" lon="-1.68665">
        <ele>67</ele>
        <time>2020-06-07T13:53:11Z</time>
      </trkpt>
      <trkpt lat="47.27103" lon="-1.68666">
        <ele>67</ele>
        <time>2020-06-07T13:53:12Z</time>
      </trkpt>
      <trkpt lat="47.27103" lon="-1.68667">
        <ele>67.1</ele>
        <time>2020-06-07T13:53:13Z</time>
      </trkpt>
      <trkpt lat="47.27104" lon="-1.68668">
        <ele>67.1</ele>
        <time>2020-06-07T13:53:14Z</time>
      </trkpt>
      <trkpt lat="47.27104" lon="-1.68669">
        <ele>67.1</ele>
        <time>2020-06-07T13:53:15Z</time>
      </trkpt>
      <trkpt lat="47.27105" lon="-1.6867">
        <ele>67.2</ele>
        <time>2020-06-07T13:53:16Z</time>
      </trkpt>
      <trkpt lat="47.27105" lon="-1.68671">
        <ele>67.2</ele>
        <time>2020-06-07T13:53:17Z</time>
      </trkpt>
      <trkpt lat="47.27106" lon="-1.68673">
        <ele>67.2</ele>
        <time>2020-06-07T13:53:18Z</time>
      </trkpt>
      <trkpt lat="47.27106" lon="-1.68675">
        <ele>67.3</ele>
        <time>2020-06-07T13:53:19Z</time>
      </trkpt>
      <trkpt lat="47.27106" lon="-1.68676">
        <ele>67.3</ele>
        <time>2020-06-07T13:53:20Z</time>
      </trkpt>
      <trkpt lat="47.27107" lon="-1.68678">
        <ele>67.3</ele>
        <time>2020-06-07T13:53:21Z</time>
      </trkpt>
      <trkpt lat="47.27107" lon="-1.68679">
        <ele>67.3</ele>
        <time>2020-06-07T13:53:22Z</time>
      </trkpt>
      <trkpt lat="47.27108" lon="-1.6868">
        <ele>67.4</ele>
        <time>2020-06-07T13:53:23Z</time>
      </trkpt>
      <trkpt lat="47.27108" lon="-1.68682">
        <ele>67.4</ele>
        <time>2020-06-07T13:53:24Z</time>
      </trkpt>
      <trkpt lat="47.27109" lon="-1.68684">
        <ele>67.4</ele>
        <time>2020-06-07T13:53:25Z</time>
      </trkpt>
      <trkpt lat="47.27109" lon="-1.68685">
        <ele>67.4</ele>
        <time>2020-06-07T13:53:26Z</time>
      </trkpt>
      <trkpt lat="47.2711" lon="-1.68686">
        <ele>67.5</ele>
        <time>2020-06-07T13:53:27Z</time>
      </trkpt>
      <trkpt lat="47.2711" lon="-1.68687">
        <ele>67.5</ele>
        <time>2020-06-07T13:53:28Z</time>
      </trkpt>
      <trkpt lat="47.27111" lon="-1.68688">
        <ele>67.5</ele>
        <time>2020-06-07T13:53:29Z</time>
      </trkpt>
      <trkpt lat="47.27111" lon="-1.68689">
        <ele>67.5</ele>
        <time>2020-06-07T13:53:30Z</time>
      </trkpt>
      <trkpt lat="47.27112" lon="-1.6869">
        <ele>67.5</ele>
        <time>2020-06-07T13:53:31Z</time>
      </trkpt>
      <trkpt lat="47.27112" lon="-1.68691">
        <ele>67.5</ele>
        <time>2020-06-07T13:53:32Z</time>
      </trkpt>
      <trkpt lat="47.27112" lon="-1.68692">
        <ele>67.6</ele>
        <time>2020-06-07T13:53:33Z</time>
      </trkpt>
      <trkpt lat="47.27113" lon="-1.68694">
        <ele>67.6</ele>
        <time>2020-06-07T13:53:34Z</time>
      </trkpt>
      <trkpt lat="47.27113" lon="-1.68695">
        <ele>67.6</ele>
        <time>2020-06-07T13:53:35Z</time>
      </trkpt>
      <trkpt lat="47.27113" lon="-1.68695">
        <ele>67.6</ele>
        <time>2020-06-07T13:53:36Z</time>
      </trkpt>
      <trkpt lat="47.27114" lon="-1.68696">
        <ele>67.6</ele>
        <time>2020-06-07T13:53:37Z</time>
      </trkpt>
      <trkpt lat="47.27114" lon="-1.68697">
        <ele>67.6</ele>
        <time>2020-06-07T13:53:38Z</time>
      </trkpt>
      <trkpt lat="47.27115" lon="-1.68698">
        <ele>67.6</ele>
        <time>2020-06-07T13:53:39Z</time>
      </trkpt>
      <trkpt lat="47.27116" lon="-1.68699">
        <ele>67.7</ele>
        <time>2020-06-07T13:53:40Z</time>
      </trkpt>
      <trkpt lat="47.27116" lon="-1.68701">
        <ele>67.7</ele>
        <time>2020-06-07T13:53:41Z</time>
      </trkpt>
      <trkpt lat="47.27115" lon="-1.68702">
        <ele>67.7</ele>
        <time>2020-06-07T13:53:42Z</time>
      </trkpt>
      <trkpt lat="47.27115" lon="-1.68703">
        <ele>67.7</ele>
        <time>2020-06-07T13:53:43Z</time>
      </trkpt>
      <trkpt lat="47.27115" lon="-1.68705">
        <ele>67.7</ele>
        <time>2020-06-07T13:53:44Z</time>
      </trkpt>
      <trkpt lat="47.27115" lon="-1.68706">
        <ele>67.7</ele>
        <time>2020-06-07T13:53:45Z</time>
      </trkpt>
      <trkpt lat="47.27115" lon="-1.68708">
        <ele>67.7</ele>
        <time>2020-06-07T13:53:46Z</time>
      </trkpt>
      <trkpt lat="47.27114" lon="-1.68709">
        <ele>67.7</ele>
        <time>2020-06-07T13:53:47Z</time>
      </trkpt>
      <trkpt lat="47.27114" lon="-1.68711">
        <ele>67.7</ele>
        <time>2020-06-07T13:53:48Z</time>
      </trkpt>
      <trkpt lat="47.27113" lon="-1.68712">
        <ele>67.8</ele>
        <time>2020-06-07T13:53:49Z</time>
      </trkpt>
      <trkpt lat="47.27113" lon="-1.68714">
        <ele>67.7</ele>
        <time>2020-06-07T13:53:50Z</time>
      </trkpt>
      <trkpt lat="47.27112" lon="-1.68715">
        <ele>67.7</ele>
        <time>2020-06-07T13:53:51Z</time>
      </trkpt>
      <trkpt lat="47.27111" lon="-1.68717">
        <ele>67.7</ele>
        <time>2020-06-07T13:53:52Z</time>
      </trkpt>
      <trkpt lat="47.27111" lon="-1.68718">
        <ele>67.7</ele>
        <time>2020-06-07T13:53:53Z</time>
      </trkpt>
      <trkpt lat="47.2711" lon="-1.68719">
        <ele>67.7</ele>
        <time>2020-06-07T13:53:54Z</time>
      </trkpt>
      <trkpt lat="47.2711" lon="-1.6872">
        <ele>67.7</ele>
        <time>2020-06-07T13:53:55Z</time>
      </trkpt>
      <trkpt lat="47.2711" lon="-1.68721">
        <ele>67.7</ele>
        <time>2020-06-07T13:53:56Z</time>
      </trkpt>
      <trkpt lat="47.27109" lon="-1.68723">
        <ele>67.7</ele>
        <time>2020-06-07T13:53:57Z</time>
      </trkpt>
      <trkpt lat="47.27109" lon="-1.68724">
        <ele>67.7</ele>
        <time>2020-06-07T13:53:58Z</time>
      </trkpt>
      <trkpt lat="47.27108" lon="-1.68725">
        <ele>67.7</ele>
        <time>2020-06-07T13:53:59Z</time>
      </trkpt>
      <trkpt lat="47.27107" lon="-1.68728">
        <ele>67.7</ele>
        <time>2020-06-07T13:54:00Z</time>
      </trkpt>
      <trkpt lat="47.27107" lon="-1.68729">
        <ele>67.7</ele>
        <time>2020-06-07T13:54:01Z</time>
      </trkpt>
      <trkpt lat="47.27107" lon="-1.6873">
        <ele>67.7</ele>
        <time>2020-06-07T13:54:02Z</time>
      </trkpt>
      <trkpt lat="47.27106" lon="-1.68732">
        <ele>67.7</ele>
        <time>2020-06-07T13:54:03Z</time>
      </trkpt>
      <trkpt lat="47.27105" lon="-1.68733">
        <ele>67.7</ele>
        <time>2020-06-07T13:54:04Z</time>
      </trkpt>
      <trkpt lat="47.27105" lon="-1.68734">
        <ele>67.7</ele>
        <time>2020-06-07T13:54:05Z</time>
      </trkpt>
      <trkpt lat="47.27104" lon="-1.68736">
        <ele>67.7</ele>
        <time>2020-06-07T13:54:06Z</time>
      </trkpt>
      <trkpt lat="47.27103" lon="-1.68737">
        <ele>67.7</ele>
        <time>2020-06-07T13:54:07Z</time>
      </trkpt>
      <trkpt lat="47.27102" lon="-1.68738">
        <ele>67.7</ele>
        <time>2020-06-07T13:54:08Z</time>
      </trkpt>
      <trkpt lat="47.27102" lon="-1.68739">
        <ele>67.7</ele>
        <time>2020-06-07T13:54:09Z</time>
      </trkpt>
      <trkpt lat="47.27101" lon="-1.6874">
        <ele>67.8</ele>
        <time>2020-06-07T13:54:10Z</time>
      </trkpt>
      <trkpt lat="47.271" lon="-1.68742">
        <ele>67.8</ele>
        <time>2020-06-07T13:54:11Z</time>
      </trkpt>
      <trkpt lat="47.27098" lon="-1.68744">
        <ele>67.8</ele>
        <time>2020-06-07T13:54:12Z</time>
      </trkpt>
      <trkpt lat="47.27098" lon="-1.68744">
        <ele>67.8</ele>
        <time>2020-06-07T13:54:13Z</time>
      </trkpt>
      <trkpt lat="47.27097" lon="-1.68745">
        <ele>67.8</ele>
        <time>2020-06-07T13:54:14Z</time>
      </trkpt>
      <trkpt lat="47.27096" lon="-1.68746">
        <ele>67.8</ele>
        <time>2020-06-07T13:54:15Z</time>
      </trkpt>
      <trkpt lat="47.27095" lon="-1.68748">
        <ele>67.8</ele>
        <time>2020-06-07T13:54:16Z</time>
      </trkpt>
      <trkpt lat="47.27095" lon="-1.68749">
        <ele>67.8</ele>
        <time>2020-06-07T13:54:17Z</time>
      </trkpt>
      <trkpt lat="47.27094" lon="-1.68752">
        <ele>67.8</ele>
        <time>2020-06-07T13:54:18Z</time>
      </trkpt>
      <trkpt lat="47.27093" lon="-1.68753">
        <ele>67.8</ele>
        <time>2020-06-07T13:54:19Z</time>
      </trkpt>
      <trkpt lat="47.27093" lon="-1.68754">
        <ele>67.9</ele>
        <time>2020-06-07T13:54:20Z</time>
      </trkpt>
      <trkpt lat="47.27091" lon="-1.68756">
        <ele>67.9</ele>
        <time>2020-06-07T13:54:21Z</time>
      </trkpt>
      <trkpt lat="47.27091" lon="-1.68757">
        <ele>67.9</ele>
        <time>2020-06-07T13:54:22Z</time>
      </trkpt>
      <trkpt lat="47.2709" lon="-1.68758">
        <ele>67.9</ele>
        <time>2020-06-07T13:54:23Z</time>
      </trkpt>
      <trkpt lat="47.2709" lon="-1.68759">
        <ele>67.9</ele>
        <time>2020-06-07T13:54:24Z</time>
      </trkpt>
      <trkpt lat="47.27089" lon="-1.6876">
        <ele>67.9</ele>
        <time>2020-06-07T13:54:25Z</time>
      </trkpt>
      <trkpt lat="47.27089" lon="-1.68762">
        <ele>67.9</ele>
        <time>2020-06-07T13:54:26Z</time>
      </trkpt>
      <trkpt lat="47.27087" lon="-1.68764">
        <ele>67.9</ele>
        <time>2020-06-07T13:54:27Z</time>
      </trkpt>
      <trkpt lat="47.27087" lon="-1.68765">
        <ele>67.9</ele>
        <time>2020-06-07T13:54:28Z</time>
      </trkpt>
      <trkpt lat="47.27086" lon="-1.68766">
        <ele>67.9</ele>
        <time>2020-06-07T13:54:29Z</time>
      </trkpt>
      <trkpt lat="47.27086" lon="-1.68768">
        <ele>67.9</ele>
        <time>2020-06-07T13:54:30Z</time>
      </trkpt>
      <trkpt lat="47.27086" lon="-1.68769">
        <ele>67.9</ele>
        <time>2020-06-07T13:54:31Z</time>
      </trkpt>
      <trkpt lat="47.27085" lon="-1.68771">
        <ele>67.9</ele>
        <time>2020-06-07T13:54:32Z</time>
      </trkpt>
      <trkpt lat="47.27085" lon="-1.68772">
        <ele>67.9</ele>
        <time>2020-06-07T13:54:33Z</time>
      </trkpt>
      <trkpt lat="47.27085" lon="-1.68773">
        <ele>68</ele>
        <time>2020-06-07T13:54:34Z</time>
      </trkpt>
      <trkpt lat="47.27085" lon="-1.68774">
        <ele>68</ele>
        <time>2020-06-07T13:54:35Z</time>
      </trkpt>
      <trkpt lat="47.27085" lon="-1.68775">
        <ele>68</ele>
        <time>2020-06-07T13:54:36Z</time>
      </trkpt>
      <trkpt lat="47.27084" lon="-1.68776">
        <ele>68</ele>
        <time>2020-06-07T13:54:37Z</time>
      </trkpt>
      <trkpt lat="47.27084" lon="-1.68778">
        <ele>68</ele>
        <time>2020-06-07T13:54:38Z</time>
      </trkpt>
      <trkpt lat="47.27084" lon="-1.68779">
        <ele>68</ele>
        <time>2020-06-07T13:54:39Z</time>
      </trkpt>
      <trkpt lat="47.27084" lon="-1.68781">
        <ele>68</ele>
        <time>2020-06-07T13:54:40Z</time>
      </trkpt>
      <trkpt lat="47.27084" lon="-1.68782">
        <ele>68</ele>
        <time>2020-06-07T13:54:41Z</time>
      </trkpt>
      <trkpt lat="47.27085" lon="-1.68784">
        <ele>68</ele>
        <time>2020-06-07T13:54:42Z</time>
      </trkpt>
      <trkpt lat="47.27086" lon="-1.68785">
        <ele>68</ele>
        <time>2020-06-07T13:54:43Z</time>
      </trkpt>
      <trkpt lat="47.27086" lon="-1.68785">
        <ele>68</ele>
        <time>2020-06-07T13:54:44Z</time>
      </trkpt>
      <trkpt lat="47.27087" lon="-1.68785">
        <ele>68</ele>
        <time>2020-06-07T13:54:45Z</time>
      </trkpt>
      <trkpt lat="47.27088" lon="-1.68785">
        <ele>68</ele>
        <time>2020-06-07T13:54:46Z</time>
      </trkpt>
      <trkpt lat="47.27088" lon="-1.68785">
        <ele>68</ele>
        <time>2020-06-07T13:54:47Z</time>
      </trkpt>
      <trkpt lat="47.2709" lon="-1.68785">
        <ele>68</ele>
        <time>2020-06-07T13:54:48Z</time>
      </trkpt>
      <trkpt lat="47.27091" lon="-1.68785">
        <ele>68</ele>
        <time>2020-06-07T13:54:49Z</time>
      </trkpt>
      <trkpt lat="47.27092" lon="-1.68785">
        <ele>68</ele>
        <time>2020-06-07T13:54:50Z</time>
      </trkpt>
      <trkpt lat="47.27093" lon="-1.68785">
        <ele>68</ele>
        <time>2020-06-07T13:54:51Z</time>
      </trkpt>
      <trkpt lat="47.27094" lon="-1.68785">
        <ele>68</ele>
        <time>2020-06-07T13:54:52Z</time>
      </trkpt>
      <trkpt lat="47.27095" lon="-1.68785">
        <ele>68</ele>
        <time>2020-06-07T13:54:53Z</time>
      </trkpt>
      <trkpt lat="47.27097" lon="-1.68786">
        <ele>68</ele>
        <time>2020-06-07T13:54:54Z</time>
      </trkpt>
      <trkpt lat="47.27098" lon="-1.68787">
        <ele>68</ele>
        <time>2020-06-07T13:54:55Z</time>
      </trkpt>
      <trkpt lat="47.27099" lon="-1.68787">
        <ele>68</ele>
        <time>2020-06-07T13:54:56Z</time>
      </trkpt>
      <trkpt lat="47.27101" lon="-1.68788">
        <ele>68</ele>
        <time>2020-06-07T13:54:57Z</time>
      </trkpt>
      <trkpt lat="47.27101" lon="-1.68789">
        <ele>68</ele>
        <time>2020-06-07T13:54:58Z</time>
      </trkpt>
      <trkpt lat="47.27102" lon="-1.68789">
        <ele>68</ele>
        <time>2020-06-07T13:54:59Z</time>
      </trkpt>
      <trkpt lat="47.27103" lon="-1.6879">
        <ele>68</ele>
        <time>2020-06-07T13:55:00Z</time>
      </trkpt>
      <trkpt lat="47.27104" lon="-1.68791">
        <ele>68</ele>
        <time>2020-06-07T13:55:01Z</time>
      </trkpt>
      <trkpt lat="47.27105" lon="-1.68792">
        <ele>68</ele>
        <time>2020-06-07T13:55:02Z</time>
      </trkpt>
      <trkpt lat="47.27106" lon="-1.68793">
        <ele>67.9</ele>
        <time>2020-06-07T13:55:03Z</time>
      </trkpt>
      <trkpt lat="47.27107" lon="-1.68793">
        <ele>67.9</ele>
        <time>2020-06-07T13:55:04Z</time>
      </trkpt>
      <trkpt lat="47.27107" lon="-1.68795">
        <ele>67.9</ele>
        <time>2020-06-07T13:55:05Z</time>
      </trkpt>
      <trkpt lat="47.27108" lon="-1.68796">
        <ele>67.9</ele>
        <time>2020-06-07T13:55:06Z</time>
      </trkpt>
      <trkpt lat="47.27108" lon="-1.68797">
        <ele>67.9</ele>
        <time>2020-06-07T13:55:07Z</time>
      </trkpt>
      <trkpt lat="47.27109" lon="-1.68799">
        <ele>67.9</ele>
        <time>2020-06-07T13:55:08Z</time>
      </trkpt>
      <trkpt lat="47.2711" lon="-1.688">
        <ele>67.9</ele>
        <time>2020-06-07T13:55:09Z</time>
      </trkpt>
      <trkpt lat="47.27111" lon="-1.68802">
        <ele>67.9</ele>
        <time>2020-06-07T13:55:10Z</time>
      </trkpt>
      <trkpt lat="47.27111" lon="-1.68803">
        <ele>67.9</ele>
        <time>2020-06-07T13:55:11Z</time>
      </trkpt>
      <trkpt lat="47.27112" lon="-1.68804">
        <ele>67.9</ele>
        <time>2020-06-07T13:55:12Z</time>
      </trkpt>
      <trkpt lat="47.27112" lon="-1.68806">
        <ele>67.9</ele>
        <time>2020-06-07T13:55:13Z</time>
      </trkpt>
      <trkpt lat="47.27113" lon="-1.68806">
        <ele>67.9</ele>
        <time>2020-06-07T13:55:14Z</time>
      </trkpt>
      <trkpt lat="47.27114" lon="-1.68807">
        <ele>67.9</ele>
        <time>2020-06-07T13:55:15Z</time>
      </trkpt>
      <trkpt lat="47.27115" lon="-1.68809">
        <ele>67.9</ele>
        <time>2020-06-07T13:55:16Z</time>
      </trkpt>
      <trkpt lat="47.27116" lon="-1.6881">
        <ele>67.9</ele>
        <time>2020-06-07T13:55:17Z</time>
      </trkpt>
      <trkpt lat="47.27117" lon="-1.68811">
        <ele>67.9</ele>
        <time>2020-06-07T13:55:18Z</time>
      </trkpt>
      <trkpt lat="47.27118" lon="-1.68811">
        <ele>67.9</ele>
        <time>2020-06-07T13:55:19Z</time>
      </trkpt>
      <trkpt lat="47.2712" lon="-1.68812">
        <ele>67.9</ele>
        <time>2020-06-07T13:55:20Z</time>
      </trkpt>
      <trkpt lat="47.27122" lon="-1.68812">
        <ele>67.9</ele>
        <time>2020-06-07T13:55:21Z</time>
      </trkpt>
      <trkpt lat="47.27124" lon="-1.68813">
        <ele>67.9</ele>
        <time>2020-06-07T13:55:22Z</time>
      </trkpt>
      <trkpt lat="47.27124" lon="-1.68814">
        <ele>67.9</ele>
        <time>2020-06-07T13:55:23Z</time>
      </trkpt>
      <trkpt lat="47.27125" lon="-1.68815">
        <ele>67.9</ele>
        <time>2020-06-07T13:55:24Z</time>
      </trkpt>
      <trkpt lat="47.27127" lon="-1.68816">
        <ele>67.9</ele>
        <time>2020-06-07T13:55:25Z</time>
      </trkpt>
      <trkpt lat="47.27128" lon="-1.68817">
        <ele>67.9</ele>
        <time>2020-06-07T13:55:26Z</time>
      </trkpt>
      <trkpt lat="47.27128" lon="-1.68818">
        <ele>67.9</ele>
        <time>2020-06-07T13:55:27Z</time>
      </trkpt>
      <trkpt lat="47.27129" lon="-1.68819">
        <ele>67.9</ele>
        <time>2020-06-07T13:55:28Z</time>
      </trkpt>
      <trkpt lat="47.2713" lon="-1.6882">
        <ele>67.9</ele>
        <time>2020-06-07T13:55:29Z</time>
      </trkpt>
      <trkpt lat="47.27131" lon="-1.68821">
        <ele>68</ele>
        <time>2020-06-07T13:55:30Z</time>
      </trkpt>
      <trkpt lat="47.27132" lon="-1.68824">
        <ele>68</ele>
        <time>2020-06-07T13:55:31Z</time>
      </trkpt>
      <trkpt lat="47.27133" lon="-1.68825">
        <ele>68</ele>
        <time>2020-06-07T13:55:32Z</time>
      </trkpt>
      <trkpt lat="47.27134" lon="-1.68826">
        <ele>68</ele>
        <time>2020-06-07T13:55:33Z</time>
      </trkpt>
      <trkpt lat="47.27135" lon="-1.68827">
        <ele>68</ele>
        <time>2020-06-07T13:55:34Z</time>
      </trkpt>
      <trkpt lat="47.27136" lon="-1.68827">
        <ele>68</ele>
        <time>2020-06-07T13:55:35Z</time>
      </trkpt>
      <trkpt lat="47.27137" lon="-1.68828">
        <ele>68</ele>
        <time>2020-06-07T13:55:36Z</time>
      </trkpt>
      <trkpt lat="47.27137" lon="-1.68829">
        <ele>68</ele>
        <time>2020-06-07T13:55:37Z</time>
      </trkpt>
      <trkpt lat="47.27138" lon="-1.6883">
        <ele>68</ele>
        <time>2020-06-07T13:55:38Z</time>
      </trkpt>
      <trkpt lat="47.27139" lon="-1.68832">
        <ele>68</ele>
        <time>2020-06-07T13:55:39Z</time>
      </trkpt>
      <trkpt lat="47.2714" lon="-1.68833">
        <ele>68</ele>
        <time>2020-06-07T13:55:40Z</time>
      </trkpt>
      <trkpt lat="47.27141" lon="-1.68834">
        <ele>68</ele>
        <time>2020-06-07T13:55:41Z</time>
      </trkpt>
      <trkpt lat="47.27141" lon="-1.68836">
        <ele>68</ele>
        <time>2020-06-07T13:55:42Z</time>
      </trkpt>
      <trkpt lat="47.27143" lon="-1.68837">
        <ele>68</ele>
        <time>2020-06-07T13:55:43Z</time>
      </trkpt>
      <trkpt lat="47.27144" lon="-1.68838">
        <ele>68.1</ele>
        <time>2020-06-07T13:55:44Z</time>
      </trkpt>
      <trkpt lat="47.27145" lon="-1.6884">
        <ele>68.1</ele>
        <time>2020-06-07T13:55:45Z</time>
      </trkpt>
      <trkpt lat="47.27146" lon="-1.68841">
        <ele>68.1</ele>
        <time>2020-06-07T13:55:46Z</time>
      </trkpt>
      <trkpt lat="47.27147" lon="-1.68841">
        <ele>68.1</ele>
        <time>2020-06-07T13:55:47Z</time>
      </trkpt>
      <trkpt lat="47.27147" lon="-1.68842">
        <ele>68.1</ele>
        <time>2020-06-07T13:55:48Z</time>
      </trkpt>
      <trkpt lat="47.27148" lon="-1.68844">
        <ele>68.1</ele>
        <time>2020-06-07T13:55:49Z</time>
      </trkpt>
      <trkpt lat="47.27149" lon="-1.68845">
        <ele>68.1</ele>
        <time>2020-06-07T13:55:50Z</time>
      </trkpt>
      <trkpt lat="47.27149" lon="-1.68846">
        <ele>68.1</ele>
        <time>2020-06-07T13:55:51Z</time>
      </trkpt>
      <trkpt lat="47.2715" lon="-1.68848">
        <ele>68.1</ele>
        <time>2020-06-07T13:55:52Z</time>
      </trkpt>
      <trkpt lat="47.27151" lon="-1.68849">
        <ele>68.1</ele>
        <time>2020-06-07T13:55:53Z</time>
      </trkpt>
      <trkpt lat="47.27151" lon="-1.6885">
        <ele>68.1</ele>
        <time>2020-06-07T13:55:54Z</time>
      </trkpt>
      <trkpt lat="47.27152" lon="-1.68851">
        <ele>68.1</ele>
        <time>2020-06-07T13:55:55Z</time>
      </trkpt>
      <trkpt lat="47.27152" lon="-1.68852">
        <ele>68.1</ele>
        <time>2020-06-07T13:55:56Z</time>
      </trkpt>
      <trkpt lat="47.27153" lon="-1.68853">
        <ele>68.1</ele>
        <time>2020-06-07T13:55:57Z</time>
      </trkpt>
      <trkpt lat="47.27154" lon="-1.68855">
        <ele>68.1</ele>
        <time>2020-06-07T13:55:58Z</time>
      </trkpt>
      <trkpt lat="47.27154" lon="-1.68855">
        <ele>68.2</ele>
        <time>2020-06-07T13:55:59Z</time>
      </trkpt>
      <trkpt lat="47.27155" lon="-1.68856">
        <ele>68.2</ele>
        <time>2020-06-07T13:56:00Z</time>
      </trkpt>
      <trkpt lat="47.27157" lon="-1.68858">
        <ele>68.2</ele>
        <time>2020-06-07T13:56:01Z</time>
      </trkpt>
      <trkpt lat="47.27157" lon="-1.68859">
        <ele>68.2</ele>
        <time>2020-06-07T13:56:02Z</time>
      </trkpt>
      <trkpt lat="47.27158" lon="-1.68859">
        <ele>68.2</ele>
        <time>2020-06-07T13:56:03Z</time>
      </trkpt>
      <trkpt lat="47.2716" lon="-1.68861">
        <ele>68.2</ele>
        <time>2020-06-07T13:56:04Z</time>
      </trkpt>
      <trkpt lat="47.2716" lon="-1.68862">
        <ele>68.2</ele>
        <time>2020-06-07T13:56:05Z</time>
      </trkpt>
      <trkpt lat="47.27161" lon="-1.68863">
        <ele>68.2</ele>
        <time>2020-06-07T13:56:06Z</time>
      </trkpt>
      <trkpt lat="47.27162" lon="-1.68864">
        <ele>68.2</ele>
        <time>2020-06-07T13:56:07Z</time>
      </trkpt>
      <trkpt lat="47.27163" lon="-1.68865">
        <ele>68.2</ele>
        <time>2020-06-07T13:56:08Z</time>
      </trkpt>
      <trkpt lat="47.27164" lon="-1.68865">
        <ele>68.3</ele>
        <time>2020-06-07T13:56:09Z</time>
      </trkpt>
      <trkpt lat="47.27166" lon="-1.68867">
        <ele>68.3</ele>
        <time>2020-06-07T13:56:10Z</time>
      </trkpt>
      <trkpt lat="47.27167" lon="-1.68867">
        <ele>68.3</ele>
        <time>2020-06-07T13:56:11Z</time>
      </trkpt>
      <trkpt lat="47.27167" lon="-1.68868">
        <ele>68.3</ele>
        <time>2020-06-07T13:56:12Z</time>
      </trkpt>
      <trkpt lat="47.27169" lon="-1.68869">
        <ele>68.3</ele>
        <time>2020-06-07T13:56:13Z</time>
      </trkpt>
      <trkpt lat="47.2717" lon="-1.68869">
        <ele>68.3</ele>
        <time>2020-06-07T13:56:14Z</time>
      </trkpt>
      <trkpt lat="47.27171" lon="-1.6887">
        <ele>68.2</ele>
        <time>2020-06-07T13:56:15Z</time>
      </trkpt>
      <trkpt lat="47.27173" lon="-1.68871">
        <ele>68.2</ele>
        <time>2020-06-07T13:56:16Z</time>
      </trkpt>
      <trkpt lat="47.27174" lon="-1.68871">
        <ele>68.2</ele>
        <time>2020-06-07T13:56:17Z</time>
      </trkpt>
      <trkpt lat="47.27174" lon="-1.68872">
        <ele>68.2</ele>
        <time>2020-06-07T13:56:18Z</time>
      </trkpt>
      <trkpt lat="47.27176" lon="-1.68873">
        <ele>68.2</ele>
        <time>2020-06-07T13:56:19Z</time>
      </trkpt>
      <trkpt lat="47.27177" lon="-1.68873">
        <ele>68.2</ele>
        <time>2020-06-07T13:56:20Z</time>
      </trkpt>
      <trkpt lat="47.27178" lon="-1.68874">
        <ele>68.2</ele>
        <time>2020-06-07T13:56:21Z</time>
      </trkpt>
      <trkpt lat="47.2718" lon="-1.68875">
        <ele>68.2</ele>
        <time>2020-06-07T13:56:22Z</time>
      </trkpt>
      <trkpt lat="47.27181" lon="-1.68875">
        <ele>68.2</ele>
        <time>2020-06-07T13:56:23Z</time>
      </trkpt>
      <trkpt lat="47.27182" lon="-1.68875">
        <ele>68.2</ele>
        <time>2020-06-07T13:56:24Z</time>
      </trkpt>
      <trkpt lat="47.27183" lon="-1.68876">
        <ele>68.2</ele>
        <time>2020-06-07T13:56:25Z</time>
      </trkpt>
      <trkpt lat="47.27185" lon="-1.68876">
        <ele>68.2</ele>
        <time>2020-06-07T13:56:26Z</time>
      </trkpt>
      <trkpt lat="47.27186" lon="-1.68877">
        <ele>68.2</ele>
        <time>2020-06-07T13:56:27Z</time>
      </trkpt>
      <trkpt lat="47.27187" lon="-1.68877">
        <ele>68.2</ele>
        <time>2020-06-07T13:56:28Z</time>
      </trkpt>
      <trkpt lat="47.27188" lon="-1.68878">
        <ele>68.1</ele>
        <time>2020-06-07T13:56:29Z</time>
      </trkpt>
      <trkpt lat="47.27189" lon="-1.68878">
        <ele>68.1</ele>
        <time>2020-06-07T13:56:30Z</time>
      </trkpt>
      <trkpt lat="47.2719" lon="-1.68879">
        <ele>68.1</ele>
        <time>2020-06-07T13:56:31Z</time>
      </trkpt>
      <trkpt lat="47.27191" lon="-1.68879">
        <ele>68.1</ele>
        <time>2020-06-07T13:56:32Z</time>
      </trkpt>
      <trkpt lat="47.27192" lon="-1.6888">
        <ele>68.1</ele>
        <time>2020-06-07T13:56:33Z</time>
      </trkpt>
      <trkpt lat="47.27192" lon="-1.68881">
        <ele>68.1</ele>
        <time>2020-06-07T13:56:34Z</time>
      </trkpt>
      <trkpt lat="47.27193" lon="-1.68881">
        <ele>68.1</ele>
        <time>2020-06-07T13:56:35Z</time>
      </trkpt>
      <trkpt lat="47.27194" lon="-1.68882">
        <ele>68.1</ele>
        <time>2020-06-07T13:56:36Z</time>
      </trkpt>
      <trkpt lat="47.27195" lon="-1.68882">
        <ele>68.1</ele>
        <time>2020-06-07T13:56:37Z</time>
      </trkpt>
      <trkpt lat="47.27196" lon="-1.68882">
        <ele>68</ele>
        <time>2020-06-07T13:56:38Z</time>
      </trkpt>
      <trkpt lat="47.27197" lon="-1.68883">
        <ele>68</ele>
        <time>2020-06-07T13:56:39Z</time>
      </trkpt>
      <trkpt lat="47.27198" lon="-1.68884">
        <ele>68</ele>
        <time>2020-06-07T13:56:40Z</time>
      </trkpt>
      <trkpt lat="47.27199" lon="-1.68884">
        <ele>68</ele>
        <time>2020-06-07T13:56:41Z</time>
      </trkpt>
      <trkpt lat="47.272" lon="-1.68884">
        <ele>68</ele>
        <time>2020-06-07T13:56:42Z</time>
      </trkpt>
      <trkpt lat="47.27201" lon="-1.68885">
        <ele>68</ele>
        <time>2020-06-07T13:56:43Z</time>
      </trkpt>
      <trkpt lat="47.27202" lon="-1.68885">
        <ele>68</ele>
        <time>2020-06-07T13:56:44Z</time>
      </trkpt>
      <trkpt lat="47.27203" lon="-1.68886">
        <ele>68</ele>
        <time>2020-06-07T13:56:45Z</time>
      </trkpt>
      <trkpt lat="47.27205" lon="-1.68886">
        <ele>67.9</ele>
        <time>2020-06-07T13:56:46Z</time>
      </trkpt>
      <trkpt lat="47.27206" lon="-1.68887">
        <ele>67.9</ele>
        <time>2020-06-07T13:56:47Z</time>
      </trkpt>
      <trkpt lat="47.27206" lon="-1.68887">
        <ele>67.9</ele>
        <time>2020-06-07T13:56:48Z</time>
      </trkpt>
      <trkpt lat="47.27207" lon="-1.68888">
        <ele>67.9</ele>
        <time>2020-06-07T13:56:49Z</time>
      </trkpt>
      <trkpt lat="47.27208" lon="-1.68889">
        <ele>67.9</ele>
        <time>2020-06-07T13:56:50Z</time>
      </trkpt>
      <trkpt lat="47.27209" lon="-1.6889">
        <ele>67.9</ele>
        <time>2020-06-07T13:56:51Z</time>
      </trkpt>
      <trkpt lat="47.2721" lon="-1.68891">
        <ele>67.9</ele>
        <time>2020-06-07T13:56:52Z</time>
      </trkpt>
      <trkpt lat="47.27211" lon="-1.68892">
        <ele>67.9</ele>
        <time>2020-06-07T13:56:53Z</time>
      </trkpt>
      <trkpt lat="47.27214" lon="-1.68893">
        <ele>67.9</ele>
        <time>2020-06-07T13:56:54Z</time>
      </trkpt>
      <trkpt lat="47.27214" lon="-1.68893">
        <ele>67.9</ele>
        <time>2020-06-07T13:56:55Z</time>
      </trkpt>
      <trkpt lat="47.27215" lon="-1.68894">
        <ele>67.9</ele>
        <time>2020-06-07T13:56:56Z</time>
      </trkpt>
      <trkpt lat="47.27217" lon="-1.68894">
        <ele>67.9</ele>
        <time>2020-06-07T13:56:57Z</time>
      </trkpt>
      <trkpt lat="47.27218" lon="-1.68895">
        <ele>67.9</ele>
        <time>2020-06-07T13:56:58Z</time>
      </trkpt>
      <trkpt lat="47.2722" lon="-1.68895">
        <ele>67.8</ele>
        <time>2020-06-07T13:56:59Z</time>
      </trkpt>
      <trkpt lat="47.27221" lon="-1.68896">
        <ele>67.8</ele>
        <time>2020-06-07T13:57:00Z</time>
      </trkpt>
      <trkpt lat="47.27223" lon="-1.68897">
        <ele>67.8</ele>
        <time>2020-06-07T13:57:01Z</time>
      </trkpt>
      <trkpt lat="47.27224" lon="-1.68898">
        <ele>67.8</ele>
        <time>2020-06-07T13:57:02Z</time>
      </trkpt>
      <trkpt lat="47.27225" lon="-1.68898">
        <ele>67.8</ele>
        <time>2020-06-07T13:57:03Z</time>
      </trkpt>
      <trkpt lat="47.27226" lon="-1.68899">
        <ele>67.8</ele>
        <time>2020-06-07T13:57:04Z</time>
      </trkpt>
      <trkpt lat="47.27227" lon="-1.689">
        <ele>67.8</ele>
        <time>2020-06-07T13:57:05Z</time>
      </trkpt>
      <trkpt lat="47.27228" lon="-1.68901">
        <ele>67.8</ele>
        <time>2020-06-07T13:57:06Z</time>
      </trkpt>
      <trkpt lat="47.27229" lon="-1.68901">
        <ele>67.8</ele>
        <time>2020-06-07T13:57:07Z</time>
      </trkpt>
      <trkpt lat="47.2723" lon="-1.68902">
        <ele>67.8</ele>
        <time>2020-06-07T13:57:08Z</time>
      </trkpt>
      <trkpt lat="47.27231" lon="-1.68903">
        <ele>67.8</ele>
        <time>2020-06-07T13:57:09Z</time>
      </trkpt>
      <trkpt lat="47.27231" lon="-1.68904">
        <ele>67.8</ele>
        <time>2020-06-07T13:57:10Z</time>
      </trkpt>
      <trkpt lat="47.27232" lon="-1.68905">
        <ele>67.8</ele>
        <time>2020-06-07T13:57:11Z</time>
      </trkpt>
      <trkpt lat="47.27233" lon="-1.68905">
        <ele>67.8</ele>
        <time>2020-06-07T13:57:12Z</time>
      </trkpt>
      <trkpt lat="47.27234" lon="-1.68906">
        <ele>67.8</ele>
        <time>2020-06-07T13:57:13Z</time>
      </trkpt>
      <trkpt lat="47.27235" lon="-1.68907">
        <ele>67.8</ele>
        <time>2020-06-07T13:57:14Z</time>
      </trkpt>
      <trkpt lat="47.27236" lon="-1.68907">
        <ele>67.8</ele>
        <time>2020-06-07T13:57:15Z</time>
      </trkpt>
      <trkpt lat="47.27238" lon="-1.68908">
        <ele>67.8</ele>
        <time>2020-06-07T13:57:16Z</time>
      </trkpt>
      <trkpt lat="47.27239" lon="-1.68909">
        <ele>67.8</ele>
        <time>2020-06-07T13:57:17Z</time>
      </trkpt>
      <trkpt lat="47.2724" lon="-1.68909">
        <ele>67.8</ele>
        <time>2020-06-07T13:57:18Z</time>
      </trkpt>
      <trkpt lat="47.27241" lon="-1.6891">
        <ele>67.8</ele>
        <time>2020-06-07T13:57:19Z</time>
      </trkpt>
      <trkpt lat="47.27242" lon="-1.6891">
        <ele>67.8</ele>
        <time>2020-06-07T13:57:20Z</time>
      </trkpt>
      <trkpt lat="47.27244" lon="-1.68911">
        <ele>67.8</ele>
        <time>2020-06-07T13:57:21Z</time>
      </trkpt>
      <trkpt lat="47.27245" lon="-1.68912">
        <ele>67.8</ele>
        <time>2020-06-07T13:57:22Z</time>
      </trkpt>
      <trkpt lat="47.27246" lon="-1.68912">
        <ele>67.8</ele>
        <time>2020-06-07T13:57:23Z</time>
      </trkpt>
      <trkpt lat="47.27248" lon="-1.68913">
        <ele>67.8</ele>
        <time>2020-06-07T13:57:24Z</time>
      </trkpt>
      <trkpt lat="47.27249" lon="-1.68914">
        <ele>67.8</ele>
        <time>2020-06-07T13:57:25Z</time>
      </trkpt>
      <trkpt lat="47.2725" lon="-1.68914">
        <ele>67.8</ele>
        <time>2020-06-07T13:57:26Z</time>
      </trkpt>
      <trkpt lat="47.27251" lon="-1.68915">
        <ele>67.8</ele>
        <time>2020-06-07T13:57:27Z</time>
      </trkpt>
      <trkpt lat="47.27252" lon="-1.68915">
        <ele>67.8</ele>
        <time>2020-06-07T13:57:28Z</time>
      </trkpt>
      <trkpt lat="47.27253" lon="-1.68916">
        <ele>67.8</ele>
        <time>2020-06-07T13:57:29Z</time>
      </trkpt>
      <trkpt lat="47.27255" lon="-1.68917">
        <ele>67.8</ele>
        <time>2020-06-07T13:57:30Z</time>
      </trkpt>
      <trkpt lat="47.27256" lon="-1.68918">
        <ele>67.8</ele>
        <time>2020-06-07T13:57:31Z</time>
      </trkpt>
      <trkpt lat="47.27256" lon="-1.68918">
        <ele>67.8</ele>
        <time>2020-06-07T13:57:32Z</time>
      </trkpt>
      <trkpt lat="47.27257" lon="-1.68919">
        <ele>67.8</ele>
        <time>2020-06-07T13:57:33Z</time>
      </trkpt>
      <trkpt lat="47.27258" lon="-1.6892">
        <ele>67.8</ele>
        <time>2020-06-07T13:57:34Z</time>
      </trkpt>
      <trkpt lat="47.27259" lon="-1.6892">
        <ele>67.8</ele>
        <time>2020-06-07T13:57:35Z</time>
      </trkpt>
      <trkpt lat="47.27261" lon="-1.6892">
        <ele>67.8</ele>
        <time>2020-06-07T13:57:36Z</time>
      </trkpt>
      <trkpt lat="47.27262" lon="-1.68921">
        <ele>67.8</ele>
        <time>2020-06-07T13:57:37Z</time>
      </trkpt>
      <trkpt lat="47.27263" lon="-1.68921">
        <ele>67.8</ele>
        <time>2020-06-07T13:57:38Z</time>
      </trkpt>
      <trkpt lat="47.27264" lon="-1.68922">
        <ele>67.8</ele>
        <time>2020-06-07T13:57:39Z</time>
      </trkpt>
      <trkpt lat="47.27265" lon="-1.68923">
        <ele>67.8</ele>
        <time>2020-06-07T13:57:40Z</time>
      </trkpt>
      <trkpt lat="47.27266" lon="-1.68924">
        <ele>67.8</ele>
        <time>2020-06-07T13:57:41Z</time>
      </trkpt>
      <trkpt lat="47.27267" lon="-1.68925">
        <ele>67.7</ele>
        <time>2020-06-07T13:57:42Z</time>
      </trkpt>
      <trkpt lat="47.27268" lon="-1.68926">
        <ele>67.7</ele>
        <time>2020-06-07T13:57:43Z</time>
      </trkpt>
      <trkpt lat="47.27268" lon="-1.68928">
        <ele>67.7</ele>
        <time>2020-06-07T13:57:44Z</time>
      </trkpt>
      <trkpt lat="47.27269" lon="-1.68929">
        <ele>67.7</ele>
        <time>2020-06-07T13:57:45Z</time>
      </trkpt>
      <trkpt lat="47.2727" lon="-1.6893">
        <ele>67.7</ele>
        <time>2020-06-07T13:57:46Z</time>
      </trkpt>
      <trkpt lat="47.27271" lon="-1.68931">
        <ele>67.7</ele>
        <time>2020-06-07T13:57:47Z</time>
      </trkpt>
      <trkpt lat="47.27272" lon="-1.68931">
        <ele>67.7</ele>
        <time>2020-06-07T13:57:48Z</time>
      </trkpt>
      <trkpt lat="47.27273" lon="-1.68931">
        <ele>67.7</ele>
        <time>2020-06-07T13:57:49Z</time>
      </trkpt>
      <trkpt lat="47.27274" lon="-1.68932">
        <ele>67.7</ele>
        <time>2020-06-07T13:57:50Z</time>
      </trkpt>
      <trkpt lat="47.27276" lon="-1.68932">
        <ele>67.6</ele>
        <time>2020-06-07T13:57:51Z</time>
      </trkpt>
      <trkpt lat="47.27277" lon="-1.68931">
        <ele>67.6</ele>
        <time>2020-06-07T13:57:52Z</time>
      </trkpt>
      <trkpt lat="47.27279" lon="-1.68932">
        <ele>67.6</ele>
        <time>2020-06-07T13:57:53Z</time>
      </trkpt>
      <trkpt lat="47.2728" lon="-1.68932">
        <ele>67.6</ele>
        <time>2020-06-07T13:57:54Z</time>
      </trkpt>
      <trkpt lat="47.27281" lon="-1.68933">
        <ele>67.6</ele>
        <time>2020-06-07T13:57:55Z</time>
      </trkpt>
      <trkpt lat="47.27282" lon="-1.68934">
        <ele>67.6</ele>
        <time>2020-06-07T13:57:56Z</time>
      </trkpt>
      <trkpt lat="47.27283" lon="-1.68934">
        <ele>67.6</ele>
        <time>2020-06-07T13:57:57Z</time>
      </trkpt>
      <trkpt lat="47.27283" lon="-1.68935">
        <ele>67.6</ele>
        <time>2020-06-07T13:57:58Z</time>
      </trkpt>
      <trkpt lat="47.27284" lon="-1.68936">
        <ele>67.6</ele>
        <time>2020-06-07T13:57:59Z</time>
      </trkpt>
      <trkpt lat="47.27285" lon="-1.68936">
        <ele>67.6</ele>
        <time>2020-06-07T13:58:00Z</time>
      </trkpt>
      <trkpt lat="47.27286" lon="-1.68936">
        <ele>67.6</ele>
        <time>2020-06-07T13:58:01Z</time>
      </trkpt>
      <trkpt lat="47.27287" lon="-1.68937">
        <ele>67.6</ele>
        <time>2020-06-07T13:58:02Z</time>
      </trkpt>
      <trkpt lat="47.27288" lon="-1.68938">
        <ele>67.6</ele>
        <time>2020-06-07T13:58:03Z</time>
      </trkpt>
      <trkpt lat="47.2729" lon="-1.68939">
        <ele>67.5</ele>
        <time>2020-06-07T13:58:04Z</time>
      </trkpt>
      <trkpt lat="47.27291" lon="-1.68939">
        <ele>67.5</ele>
        <time>2020-06-07T13:58:05Z</time>
      </trkpt>
      <trkpt lat="47.27292" lon="-1.68939">
        <ele>67.5</ele>
        <time>2020-06-07T13:58:06Z</time>
      </trkpt>
      <trkpt lat="47.27294" lon="-1.68941">
        <ele>67.5</ele>
        <time>2020-06-07T13:58:07Z</time>
      </trkpt>
      <trkpt lat="47.27294" lon="-1.68941">
        <ele>67.5</ele>
        <time>2020-06-07T13:58:08Z</time>
      </trkpt>
      <trkpt lat="47.27295" lon="-1.68942">
        <ele>67.5</ele>
        <time>2020-06-07T13:58:09Z</time>
      </trkpt>
      <trkpt lat="47.27296" lon="-1.68942">
        <ele>67.5</ele>
        <time>2020-06-07T13:58:10Z</time>
      </trkpt>
      <trkpt lat="47.27297" lon="-1.68943">
        <ele>67.5</ele>
        <time>2020-06-07T13:58:11Z</time>
      </trkpt>
      <trkpt lat="47.27298" lon="-1.68943">
        <ele>67.5</ele>
        <time>2020-06-07T13:58:12Z</time>
      </trkpt>
      <trkpt lat="47.27299" lon="-1.68944">
        <ele>67.5</ele>
        <time>2020-06-07T13:58:13Z</time>
      </trkpt>
      <trkpt lat="47.273" lon="-1.68945">
        <ele>67.5</ele>
        <time>2020-06-07T13:58:14Z</time>
      </trkpt>
      <trkpt lat="47.273" lon="-1.68945">
        <ele>67.5</ele>
        <time>2020-06-07T13:58:15Z</time>
      </trkpt>
      <trkpt lat="47.273" lon="-1.68945">
        <ele>67.5</ele>
        <time>2020-06-07T13:58:16Z</time>
      </trkpt>
      <trkpt lat="47.273" lon="-1.68945">
        <ele>67.5</ele>
        <time>2020-06-07T13:58:17Z</time>
      </trkpt>
      <trkpt lat="47.273" lon="-1.68945">
        <ele>67.5</ele>
        <time>2020-06-07T13:58:18Z</time>
      </trkpt>
      <trkpt lat="47.273" lon="-1.68945">
        <ele>67.5</ele>
        <time>2020-06-07T13:58:19Z</time>
      </trkpt>
      <trkpt lat="47.273" lon="-1.68945">
        <ele>67.5</ele>
        <time>2020-06-07T13:58:20Z</time>
      </trkpt>
      <trkpt lat="47.273" lon="-1.68945">
        <ele>67.5</ele>
        <time>2020-06-07T13:58:21Z</time>
      </trkpt>
      <trkpt lat="47.273" lon="-1.68945">
        <ele>67.5</ele>
        <time>2020-06-07T13:58:22Z</time>
      </trkpt>
      <trkpt lat="47.273" lon="-1.68945">
        <ele>67.5</ele>
        <time>2020-06-07T13:58:23Z</time>
      </trkpt>
      <trkpt lat="47.273" lon="-1.68945">
        <ele>67.5</ele>
        <time>2020-06-07T13:58:24Z</time>
      </trkpt>
      <trkpt lat="47.27301" lon="-1.68945">
        <ele>67.5</ele>
        <time>2020-06-07T13:58:25Z</time>
      </trkpt>
      <trkpt lat="47.27305" lon="-1.68946">
        <ele>67.5</ele>
        <time>2020-06-07T13:58:34Z</time>
      </trkpt>
      <trkpt lat="47.27306" lon="-1.68947">
        <ele>67.5</ele>
        <time>2020-06-07T13:58:35Z</time>
      </trkpt>
      <trkpt lat="47.27307" lon="-1.68948">
        <ele>67.5</ele>
        <time>2020-06-07T13:58:36Z</time>
      </trkpt>
      <trkpt lat="47.27308" lon="-1.68949">
        <ele>67.5</ele>
        <time>2020-06-07T13:58:37Z</time>
      </trkpt>
      <trkpt lat="47.2731" lon="-1.68949">
        <ele>67.4</ele>
        <time>2020-06-07T13:58:38Z</time>
      </trkpt>
      <trkpt lat="47.27311" lon="-1.6895">
        <ele>67.4</ele>
        <time>2020-06-07T13:58:39Z</time>
      </trkpt>
      <trkpt lat="47.27312" lon="-1.68951">
        <ele>67.4</ele>
        <time>2020-06-07T13:58:40Z</time>
      </trkpt>
      <trkpt lat="47.27313" lon="-1.68954">
        <ele>67.4</ele>
        <time>2020-06-07T13:58:41Z</time>
      </trkpt>
      <trkpt lat="47.27314" lon="-1.68955">
        <ele>67.4</ele>
        <time>2020-06-07T13:58:42Z</time>
      </trkpt>
      <trkpt lat="47.27314" lon="-1.68956">
        <ele>67.4</ele>
        <time>2020-06-07T13:58:43Z</time>
      </trkpt>
      <trkpt lat="47.27314" lon="-1.68959">
        <ele>67.3</ele>
        <time>2020-06-07T13:58:44Z</time>
      </trkpt>
      <trkpt lat="47.27315" lon="-1.68961">
        <ele>67.3</ele>
        <time>2020-06-07T13:58:45Z</time>
      </trkpt>
      <trkpt lat="47.27315" lon="-1.68962">
        <ele>67.3</ele>
        <time>2020-06-07T13:58:46Z</time>
      </trkpt>
      <trkpt lat="47.27315" lon="-1.68965">
        <ele>67.3</ele>
        <time>2020-06-07T13:58:47Z</time>
      </trkpt>
      <trkpt lat="47.27316" lon="-1.68966">
        <ele>67.3</ele>
        <time>2020-06-07T13:58:48Z</time>
      </trkpt>
      <trkpt lat="47.27316" lon="-1.68967">
        <ele>67.3</ele>
        <time>2020-06-07T13:58:49Z</time>
      </trkpt>
      <trkpt lat="47.27316" lon="-1.68969">
        <ele>67.2</ele>
        <time>2020-06-07T13:58:50Z</time>
      </trkpt>
      <trkpt lat="47.27317" lon="-1.6897">
        <ele>67.2</ele>
        <time>2020-06-07T13:58:51Z</time>
      </trkpt>
      <trkpt lat="47.27317" lon="-1.68972">
        <ele>67.2</ele>
        <time>2020-06-07T13:58:52Z</time>
      </trkpt>
      <trkpt lat="47.27317" lon="-1.68974">
        <ele>67.2</ele>
        <time>2020-06-07T13:58:53Z</time>
      </trkpt>
      <trkpt lat="47.27318" lon="-1.68975">
        <ele>67.2</ele>
        <time>2020-06-07T13:58:54Z</time>
      </trkpt>
      <trkpt lat="47.27318" lon="-1.68976">
        <ele>67.2</ele>
        <time>2020-06-07T13:58:55Z</time>
      </trkpt>
      <trkpt lat="47.27319" lon="-1.68976">
        <ele>67.2</ele>
        <time>2020-06-07T13:58:56Z</time>
      </trkpt>
      <trkpt lat="47.27319" lon="-1.68977">
        <ele>67.1</ele>
        <time>2020-06-07T13:58:57Z</time>
      </trkpt>
      <trkpt lat="47.2732" lon="-1.68976">
        <ele>67.1</ele>
        <time>2020-06-07T13:58:58Z</time>
      </trkpt>
      <trkpt lat="47.27322" lon="-1.68976">
        <ele>67.1</ele>
        <time>2020-06-07T13:58:59Z</time>
      </trkpt>
      <trkpt lat="47.27323" lon="-1.68975">
        <ele>67.1</ele>
        <time>2020-06-07T13:59:00Z</time>
      </trkpt>
      <trkpt lat="47.27324" lon="-1.68975">
        <ele>67.1</ele>
        <time>2020-06-07T13:59:01Z</time>
      </trkpt>
      <trkpt lat="47.27326" lon="-1.68974">
        <ele>67</ele>
        <time>2020-06-07T13:59:02Z</time>
      </trkpt>
      <trkpt lat="47.27327" lon="-1.68974">
        <ele>67</ele>
        <time>2020-06-07T13:59:03Z</time>
      </trkpt>
      <trkpt lat="47.27329" lon="-1.68974">
        <ele>67</ele>
        <time>2020-06-07T13:59:04Z</time>
      </trkpt>
      <trkpt lat="47.2733" lon="-1.68974">
        <ele>67</ele>
        <time>2020-06-07T13:59:05Z</time>
      </trkpt>
      <trkpt lat="47.27331" lon="-1.68973">
        <ele>67</ele>
        <time>2020-06-07T13:59:06Z</time>
      </trkpt>
      <trkpt lat="47.27333" lon="-1.68972">
        <ele>66.9</ele>
        <time>2020-06-07T13:59:07Z</time>
      </trkpt>
      <trkpt lat="47.27333" lon="-1.68972">
        <ele>66.9</ele>
        <time>2020-06-07T13:59:08Z</time>
      </trkpt>
      <trkpt lat="47.27334" lon="-1.68971">
        <ele>66.9</ele>
        <time>2020-06-07T13:59:09Z</time>
      </trkpt>
      <trkpt lat="47.27336" lon="-1.6897">
        <ele>66.9</ele>
        <time>2020-06-07T13:59:10Z</time>
      </trkpt>
      <trkpt lat="47.27337" lon="-1.68969">
        <ele>66.8</ele>
        <time>2020-06-07T13:59:11Z</time>
      </trkpt>
      <trkpt lat="47.27338" lon="-1.68969">
        <ele>66.8</ele>
        <time>2020-06-07T13:59:12Z</time>
      </trkpt>
      <trkpt lat="47.27339" lon="-1.68969">
        <ele>66.8</ele>
        <time>2020-06-07T13:59:13Z</time>
      </trkpt>
      <trkpt lat="47.27341" lon="-1.68969">
        <ele>66.8</ele>
        <time>2020-06-07T13:59:14Z</time>
      </trkpt>
      <trkpt lat="47.27342" lon="-1.6897">
        <ele>66.7</ele>
        <time>2020-06-07T13:59:15Z</time>
      </trkpt>
      <trkpt lat="47.27343" lon="-1.68971">
        <ele>66.7</ele>
        <time>2020-06-07T13:59:16Z</time>
      </trkpt>
      <trkpt lat="47.27345" lon="-1.68971">
        <ele>66.7</ele>
        <time>2020-06-07T13:59:17Z</time>
      </trkpt>
      <trkpt lat="47.27346" lon="-1.68972">
        <ele>66.7</ele>
        <time>2020-06-07T13:59:18Z</time>
      </trkpt>
      <trkpt lat="47.27348" lon="-1.68973">
        <ele>66.6</ele>
        <time>2020-06-07T13:59:19Z</time>
      </trkpt>
      <trkpt lat="47.27349" lon="-1.68973">
        <ele>66.6</ele>
        <time>2020-06-07T13:59:20Z</time>
      </trkpt>
      <trkpt lat="47.2735" lon="-1.68974">
        <ele>66.6</ele>
        <time>2020-06-07T13:59:21Z</time>
      </trkpt>
      <trkpt lat="47.27352" lon="-1.68974">
        <ele>66.5</ele>
        <time>2020-06-07T13:59:22Z</time>
      </trkpt>
      <trkpt lat="47.27353" lon="-1.68975">
        <ele>66.5</ele>
        <time>2020-06-07T13:59:23Z</time>
      </trkpt>
      <trkpt lat="47.27354" lon="-1.68975">
        <ele>66.5</ele>
        <time>2020-06-07T13:59:24Z</time>
      </trkpt>
      <trkpt lat="47.27355" lon="-1.68975">
        <ele>66.5</ele>
        <time>2020-06-07T13:59:25Z</time>
      </trkpt>
      <trkpt lat="47.27356" lon="-1.68976">
        <ele>66.5</ele>
        <time>2020-06-07T13:59:26Z</time>
      </trkpt>
      <trkpt lat="47.27358" lon="-1.68978">
        <ele>66.4</ele>
        <time>2020-06-07T13:59:27Z</time>
      </trkpt>
      <trkpt lat="47.27359" lon="-1.68978">
        <ele>66.4</ele>
        <time>2020-06-07T13:59:28Z</time>
      </trkpt>
      <trkpt lat="47.2736" lon="-1.68979">
        <ele>66.4</ele>
        <time>2020-06-07T13:59:29Z</time>
      </trkpt>
      <trkpt lat="47.27362" lon="-1.6898">
        <ele>66.4</ele>
        <time>2020-06-07T13:59:30Z</time>
      </trkpt>
      <trkpt lat="47.27362" lon="-1.68981">
        <ele>66.3</ele>
        <time>2020-06-07T13:59:31Z</time>
      </trkpt>
      <trkpt lat="47.27363" lon="-1.68981">
        <ele>66.3</ele>
        <time>2020-06-07T13:59:32Z</time>
      </trkpt>
      <trkpt lat="47.27365" lon="-1.68982">
        <ele>66.3</ele>
        <time>2020-06-07T13:59:33Z</time>
      </trkpt>
      <trkpt lat="47.27366" lon="-1.68982">
        <ele>66.3</ele>
        <time>2020-06-07T13:59:34Z</time>
      </trkpt>
      <trkpt lat="47.27368" lon="-1.68983">
        <ele>66.2</ele>
        <time>2020-06-07T13:59:35Z</time>
      </trkpt>
      <trkpt lat="47.27369" lon="-1.68984">
        <ele>66.2</ele>
        <time>2020-06-07T13:59:36Z</time>
      </trkpt>
      <trkpt lat="47.2737" lon="-1.68984">
        <ele>66.2</ele>
        <time>2020-06-07T13:59:37Z</time>
      </trkpt>
      <trkpt lat="47.27371" lon="-1.68985">
        <ele>66.2</ele>
        <time>2020-06-07T13:59:38Z</time>
      </trkpt>
      <trkpt lat="47.27372" lon="-1.68985">
        <ele>66.2</ele>
        <time>2020-06-07T13:59:39Z</time>
      </trkpt>
      <trkpt lat="47.27373" lon="-1.68986">
        <ele>66.1</ele>
        <time>2020-06-07T13:59:40Z</time>
      </trkpt>
      <trkpt lat="47.27374" lon="-1.68986">
        <ele>66.1</ele>
        <time>2020-06-07T13:59:41Z</time>
      </trkpt>
      <trkpt lat="47.27375" lon="-1.68987">
        <ele>66.1</ele>
        <time>2020-06-07T13:59:42Z</time>
      </trkpt>
      <trkpt lat="47.27376" lon="-1.68987">
        <ele>66.1</ele>
        <time>2020-06-07T13:59:43Z</time>
      </trkpt>
      <trkpt lat="47.27377" lon="-1.68988">
        <ele>66</ele>
        <time>2020-06-07T13:59:44Z</time>
      </trkpt>
      <trkpt lat="47.27379" lon="-1.68989">
        <ele>66</ele>
        <time>2020-06-07T13:59:45Z</time>
      </trkpt>
      <trkpt lat="47.2738" lon="-1.68989">
        <ele>66</ele>
        <time>2020-06-07T13:59:46Z</time>
      </trkpt>
      <trkpt lat="47.27381" lon="-1.6899">
        <ele>66</ele>
        <time>2020-06-07T13:59:47Z</time>
      </trkpt>
      <trkpt lat="47.27382" lon="-1.6899">
        <ele>65.9</ele>
        <time>2020-06-07T13:59:48Z</time>
      </trkpt>
      <trkpt lat="47.27383" lon="-1.68991">
        <ele>65.9</ele>
        <time>2020-06-07T13:59:49Z</time>
      </trkpt>
      <trkpt lat="47.27384" lon="-1.68992">
        <ele>65.9</ele>
        <time>2020-06-07T13:59:50Z</time>
      </trkpt>
      <trkpt lat="47.27385" lon="-1.68992">
        <ele>65.9</ele>
        <time>2020-06-07T13:59:51Z</time>
      </trkpt>
      <trkpt lat="47.27386" lon="-1.68993">
        <ele>65.8</ele>
        <time>2020-06-07T13:59:52Z</time>
      </trkpt>
      <trkpt lat="47.27387" lon="-1.68993">
        <ele>65.8</ele>
        <time>2020-06-07T13:59:53Z</time>
      </trkpt>
      <trkpt lat="47.27388" lon="-1.68994">
        <ele>65.8</ele>
        <time>2020-06-07T13:59:54Z</time>
      </trkpt>
      <trkpt lat="47.2739" lon="-1.68995">
        <ele>65.8</ele>
        <time>2020-06-07T13:59:55Z</time>
      </trkpt>
      <trkpt lat="47.27391" lon="-1.68996">
        <ele>65.7</ele>
        <time>2020-06-07T13:59:56Z</time>
      </trkpt>
      <trkpt lat="47.27392" lon="-1.68997">
        <ele>65.7</ele>
        <time>2020-06-07T13:59:57Z</time>
      </trkpt>
      <trkpt lat="47.27393" lon="-1.68997">
        <ele>65.7</ele>
        <time>2020-06-07T13:59:58Z</time>
      </trkpt>
      <trkpt lat="47.27394" lon="-1.68998">
        <ele>65.6</ele>
        <time>2020-06-07T13:59:59Z</time>
      </trkpt>
      <trkpt lat="47.27395" lon="-1.68998">
        <ele>65.6</ele>
        <time>2020-06-07T14:00:00Z</time>
      </trkpt>
      <trkpt lat="47.27396" lon="-1.68999">
        <ele>65.6</ele>
        <time>2020-06-07T14:00:01Z</time>
      </trkpt>
      <trkpt lat="47.27397" lon="-1.68999">
        <ele>65.6</ele>
        <time>2020-06-07T14:00:02Z</time>
      </trkpt>
      <trkpt lat="47.27398" lon="-1.69">
        <ele>65.5</ele>
        <time>2020-06-07T14:00:03Z</time>
      </trkpt>
      <trkpt lat="47.27399" lon="-1.69">
        <ele>65.5</ele>
        <time>2020-06-07T14:00:04Z</time>
      </trkpt>
      <trkpt lat="47.27399" lon="-1.69001">
        <ele>65.5</ele>
        <time>2020-06-07T14:00:05Z</time>
      </trkpt>
      <trkpt lat="47.274" lon="-1.69002">
        <ele>65.5</ele>
        <time>2020-06-07T14:00:06Z</time>
      </trkpt>
      <trkpt lat="47.27401" lon="-1.69003">
        <ele>65.4</ele>
        <time>2020-06-07T14:00:07Z</time>
      </trkpt>
      <trkpt lat="47.27402" lon="-1.69003">
        <ele>65.4</ele>
        <time>2020-06-07T14:00:08Z</time>
      </trkpt>
      <trkpt lat="47.27403" lon="-1.69004">
        <ele>65.4</ele>
        <time>2020-06-07T14:00:09Z</time>
      </trkpt>
      <trkpt lat="47.27404" lon="-1.69005">
        <ele>65.4</ele>
        <time>2020-06-07T14:00:10Z</time>
      </trkpt>
      <trkpt lat="47.27405" lon="-1.69006">
        <ele>65.3</ele>
        <time>2020-06-07T14:00:11Z</time>
      </trkpt>
      <trkpt lat="47.27406" lon="-1.69008">
        <ele>65.3</ele>
        <time>2020-06-07T14:00:12Z</time>
      </trkpt>
      <trkpt lat="47.27407" lon="-1.69008">
        <ele>65.3</ele>
        <time>2020-06-07T14:00:13Z</time>
      </trkpt>
      <trkpt lat="47.27408" lon="-1.69009">
        <ele>65.2</ele>
        <time>2020-06-07T14:00:14Z</time>
      </trkpt>
      <trkpt lat="47.27409" lon="-1.6901">
        <ele>65.2</ele>
        <time>2020-06-07T14:00:15Z</time>
      </trkpt>
      <trkpt lat="47.2741" lon="-1.69011">
        <ele>65.2</ele>
        <time>2020-06-07T14:00:16Z</time>
      </trkpt>
      <trkpt lat="47.27411" lon="-1.69011">
        <ele>65.2</ele>
        <time>2020-06-07T14:00:17Z</time>
      </trkpt>
      <trkpt lat="47.27412" lon="-1.69012">
        <ele>65.1</ele>
        <time>2020-06-07T14:00:18Z</time>
      </trkpt>
      <trkpt lat="47.27413" lon="-1.69012">
        <ele>65.1</ele>
        <time>2020-06-07T14:00:19Z</time>
      </trkpt>
      <trkpt lat="47.27414" lon="-1.69013">
        <ele>65.1</ele>
        <time>2020-06-07T14:00:20Z</time>
      </trkpt>
      <trkpt lat="47.27415" lon="-1.69014">
        <ele>65.1</ele>
        <time>2020-06-07T14:00:21Z</time>
      </trkpt>
      <trkpt lat="47.27416" lon="-1.69014">
        <ele>65</ele>
        <time>2020-06-07T14:00:22Z</time>
      </trkpt>
      <trkpt lat="47.27417" lon="-1.69015">
        <ele>65</ele>
        <time>2020-06-07T14:00:23Z</time>
      </trkpt>
      <trkpt lat="47.27418" lon="-1.69016">
        <ele>65</ele>
        <time>2020-06-07T14:00:24Z</time>
      </trkpt>
      <trkpt lat="47.27419" lon="-1.69016">
        <ele>65</ele>
        <time>2020-06-07T14:00:25Z</time>
      </trkpt>
      <trkpt lat="47.2742" lon="-1.69017">
        <ele>64.9</ele>
        <time>2020-06-07T14:00:26Z</time>
      </trkpt>
      <trkpt lat="47.27421" lon="-1.69017">
        <ele>64.8</ele>
        <time>2020-06-07T14:00:27Z</time>
      </trkpt>
      <trkpt lat="47.27423" lon="-1.69018">
        <ele>64.8</ele>
        <time>2020-06-07T14:00:28Z</time>
      </trkpt>
      <trkpt lat="47.27425" lon="-1.69019">
        <ele>64.7</ele>
        <time>2020-06-07T14:00:29Z</time>
      </trkpt>
      <trkpt lat="47.27425" lon="-1.69019">
        <ele>64.7</ele>
        <time>2020-06-07T14:00:30Z</time>
      </trkpt>
      <trkpt lat="47.27426" lon="-1.6902">
        <ele>64.7</ele>
        <time>2020-06-07T14:00:31Z</time>
      </trkpt>
      <trkpt lat="47.27428" lon="-1.69021">
        <ele>64.6</ele>
        <time>2020-06-07T14:00:32Z</time>
      </trkpt>
      <trkpt lat="47.27429" lon="-1.69021">
        <ele>64.6</ele>
        <time>2020-06-07T14:00:33Z</time>
      </trkpt>
      <trkpt lat="47.2743" lon="-1.69021">
        <ele>64.6</ele>
        <time>2020-06-07T14:00:34Z</time>
      </trkpt>
      <trkpt lat="47.27431" lon="-1.69023">
        <ele>64.5</ele>
        <time>2020-06-07T14:00:35Z</time>
      </trkpt>
      <trkpt lat="47.27432" lon="-1.69024">
        <ele>64.5</ele>
        <time>2020-06-07T14:00:36Z</time>
      </trkpt>
      <trkpt lat="47.27432" lon="-1.69025">
        <ele>64.4</ele>
        <time>2020-06-07T14:00:37Z</time>
      </trkpt>
      <trkpt lat="47.27433" lon="-1.69025">
        <ele>64.4</ele>
        <time>2020-06-07T14:00:38Z</time>
      </trkpt>
      <trkpt lat="47.27434" lon="-1.69026">
        <ele>64.4</ele>
        <time>2020-06-07T14:00:39Z</time>
      </trkpt>
      <trkpt lat="47.27435" lon="-1.69027">
        <ele>64.3</ele>
        <time>2020-06-07T14:00:40Z</time>
      </trkpt>
      <trkpt lat="47.27437" lon="-1.69029">
        <ele>64.2</ele>
        <time>2020-06-07T14:00:41Z</time>
      </trkpt>
      <trkpt lat="47.27438" lon="-1.69029">
        <ele>64.2</ele>
        <time>2020-06-07T14:00:42Z</time>
      </trkpt>
      <trkpt lat="47.27439" lon="-1.6903">
        <ele>64.1</ele>
        <time>2020-06-07T14:00:43Z</time>
      </trkpt>
      <trkpt lat="47.2744" lon="-1.69031">
        <ele>64.1</ele>
        <time>2020-06-07T14:00:44Z</time>
      </trkpt>
      <trkpt lat="47.2744" lon="-1.69032">
        <ele>64</ele>
        <time>2020-06-07T14:00:45Z</time>
      </trkpt>
      <trkpt lat="47.27441" lon="-1.69033">
        <ele>64</ele>
        <time>2020-06-07T14:00:46Z</time>
      </trkpt>
      <trkpt lat="47.27442" lon="-1.69034">
        <ele>63.9</ele>
        <time>2020-06-07T14:00:47Z</time>
      </trkpt>
      <trkpt lat="47.27443" lon="-1.69035">
        <ele>63.8</ele>
        <time>2020-06-07T14:00:48Z</time>
      </trkpt>
      <trkpt lat="47.27444" lon="-1.69036">
        <ele>63.8</ele>
        <time>2020-06-07T14:00:49Z</time>
      </trkpt>
      <trkpt lat="47.27444" lon="-1.69037">
        <ele>63.8</ele>
        <time>2020-06-07T14:00:50Z</time>
      </trkpt>
      <trkpt lat="47.27445" lon="-1.69038">
        <ele>63.7</ele>
        <time>2020-06-07T14:00:51Z</time>
      </trkpt>
      <trkpt lat="47.27446" lon="-1.69039">
        <ele>63.6</ele>
        <time>2020-06-07T14:00:52Z</time>
      </trkpt>
      <trkpt lat="47.27447" lon="-1.6904">
        <ele>63.6</ele>
        <time>2020-06-07T14:00:53Z</time>
      </trkpt>
      <trkpt lat="47.27448" lon="-1.69042">
        <ele>63.5</ele>
        <time>2020-06-07T14:00:54Z</time>
      </trkpt>
      <trkpt lat="47.27448" lon="-1.69043">
        <ele>63.5</ele>
        <time>2020-06-07T14:00:55Z</time>
      </trkpt>
      <trkpt lat="47.27449" lon="-1.69044">
        <ele>63.4</ele>
        <time>2020-06-07T14:00:56Z</time>
      </trkpt>
      <trkpt lat="47.27449" lon="-1.69046">
        <ele>63.4</ele>
        <time>2020-06-07T14:00:57Z</time>
      </trkpt>
      <trkpt lat="47.27449" lon="-1.69047">
        <ele>63.3</ele>
        <time>2020-06-07T14:00:58Z</time>
      </trkpt>
      <trkpt lat="47.2745" lon="-1.69048">
        <ele>63.3</ele>
        <time>2020-06-07T14:00:59Z</time>
      </trkpt>
      <trkpt lat="47.27451" lon="-1.69049">
        <ele>63.2</ele>
        <time>2020-06-07T14:01:00Z</time>
      </trkpt>
      <trkpt lat="47.27451" lon="-1.6905">
        <ele>63.2</ele>
        <time>2020-06-07T14:01:01Z</time>
      </trkpt>
      <trkpt lat="47.27453" lon="-1.69051">
        <ele>63.1</ele>
        <time>2020-06-07T14:01:02Z</time>
      </trkpt>
      <trkpt lat="47.27453" lon="-1.69051">
        <ele>63.1</ele>
        <time>2020-06-07T14:01:03Z</time>
      </trkpt>
      <trkpt lat="47.27454" lon="-1.69051">
        <ele>63.1</ele>
        <time>2020-06-07T14:01:04Z</time>
      </trkpt>
      <trkpt lat="47.27454" lon="-1.69052">
        <ele>63</ele>
        <time>2020-06-07T14:01:05Z</time>
      </trkpt>
      <trkpt lat="47.27454" lon="-1.69052">
        <ele>63</ele>
        <time>2020-06-07T14:01:06Z</time>
      </trkpt>
      <trkpt lat="47.27455" lon="-1.69052">
        <ele>63</ele>
        <time>2020-06-07T14:01:07Z</time>
      </trkpt>
      <trkpt lat="47.27456" lon="-1.69053">
        <ele>62.9</ele>
        <time>2020-06-07T14:01:08Z</time>
      </trkpt>
      <trkpt lat="47.27456" lon="-1.69053">
        <ele>62.9</ele>
        <time>2020-06-07T14:01:09Z</time>
      </trkpt>
      <trkpt lat="47.27457" lon="-1.69054">
        <ele>62.9</ele>
        <time>2020-06-07T14:01:10Z</time>
      </trkpt>
      <trkpt lat="47.27458" lon="-1.69055">
        <ele>62.8</ele>
        <time>2020-06-07T14:01:11Z</time>
      </trkpt>
      <trkpt lat="47.27459" lon="-1.69055">
        <ele>62.8</ele>
        <time>2020-06-07T14:01:12Z</time>
      </trkpt>
      <trkpt lat="47.27459" lon="-1.69056">
        <ele>62.8</ele>
        <time>2020-06-07T14:01:13Z</time>
      </trkpt>
      <trkpt lat="47.2746" lon="-1.69057">
        <ele>62.7</ele>
        <time>2020-06-07T14:01:14Z</time>
      </trkpt>
      <trkpt lat="47.27461" lon="-1.69057">
        <ele>62.7</ele>
        <time>2020-06-07T14:01:15Z</time>
      </trkpt>
      <trkpt lat="47.27462" lon="-1.69058">
        <ele>62.6</ele>
        <time>2020-06-07T14:01:16Z</time>
      </trkpt>
      <trkpt lat="47.27463" lon="-1.69059">
        <ele>62.6</ele>
        <time>2020-06-07T14:01:17Z</time>
      </trkpt>
      <trkpt lat="47.27465" lon="-1.6906">
        <ele>62.5</ele>
        <time>2020-06-07T14:01:18Z</time>
      </trkpt>
      <trkpt lat="47.27466" lon="-1.69061">
        <ele>62.4</ele>
        <time>2020-06-07T14:01:19Z</time>
      </trkpt>
      <trkpt lat="47.27467" lon="-1.69062">
        <ele>62.4</ele>
        <time>2020-06-07T14:01:20Z</time>
      </trkpt>
      <trkpt lat="47.27467" lon="-1.69063">
        <ele>62.3</ele>
        <time>2020-06-07T14:01:21Z</time>
      </trkpt>
      <trkpt lat="47.27468" lon="-1.69064">
        <ele>62.3</ele>
        <time>2020-06-07T14:01:22Z</time>
      </trkpt>
      <trkpt lat="47.2747" lon="-1.69065">
        <ele>62.2</ele>
        <time>2020-06-07T14:01:23Z</time>
      </trkpt>
      <trkpt lat="47.27471" lon="-1.69066">
        <ele>62.1</ele>
        <time>2020-06-07T14:01:24Z</time>
      </trkpt>
      <trkpt lat="47.27472" lon="-1.69067">
        <ele>62.1</ele>
        <time>2020-06-07T14:01:25Z</time>
      </trkpt>
      <trkpt lat="47.27473" lon="-1.69068">
        <ele>62</ele>
        <time>2020-06-07T14:01:26Z</time>
      </trkpt>
      <trkpt lat="47.27475" lon="-1.69068">
        <ele>61.9</ele>
        <time>2020-06-07T14:01:27Z</time>
      </trkpt>
      <trkpt lat="47.27475" lon="-1.69069">
        <ele>61.9</ele>
        <time>2020-06-07T14:01:28Z</time>
      </trkpt>
      <trkpt lat="47.27476" lon="-1.69069">
        <ele>61.9</ele>
        <time>2020-06-07T14:01:29Z</time>
      </trkpt>
      <trkpt lat="47.27477" lon="-1.6907">
        <ele>61.8</ele>
        <time>2020-06-07T14:01:30Z</time>
      </trkpt>
      <trkpt lat="47.27479" lon="-1.69072">
        <ele>61.7</ele>
        <time>2020-06-07T14:01:31Z</time>
      </trkpt>
      <trkpt lat="47.27481" lon="-1.69074">
        <ele>61.6</ele>
        <time>2020-06-07T14:01:32Z</time>
      </trkpt>
      <trkpt lat="47.27482" lon="-1.69075">
        <ele>61.5</ele>
        <time>2020-06-07T14:01:33Z</time>
      </trkpt>
      <trkpt lat="47.27483" lon="-1.69077">
        <ele>61.5</ele>
        <time>2020-06-07T14:01:34Z</time>
      </trkpt>
      <trkpt lat="47.27484" lon="-1.69078">
        <ele>61.4</ele>
        <time>2020-06-07T14:01:35Z</time>
      </trkpt>
      <trkpt lat="47.27485" lon="-1.69079">
        <ele>61.3</ele>
        <time>2020-06-07T14:01:36Z</time>
      </trkpt>
      <trkpt lat="47.27485" lon="-1.69081">
        <ele>61.3</ele>
        <time>2020-06-07T14:01:37Z</time>
      </trkpt>
      <trkpt lat="47.27486" lon="-1.69083">
        <ele>61.2</ele>
        <time>2020-06-07T14:01:38Z</time>
      </trkpt>
      <trkpt lat="47.27488" lon="-1.69084">
        <ele>61.1</ele>
        <time>2020-06-07T14:01:39Z</time>
      </trkpt>
      <trkpt lat="47.27489" lon="-1.69085">
        <ele>61.1</ele>
        <time>2020-06-07T14:01:40Z</time>
      </trkpt>
      <trkpt lat="47.27489" lon="-1.69085">
        <ele>61.1</ele>
        <time>2020-06-07T14:01:41Z</time>
      </trkpt>
      <trkpt lat="47.2749" lon="-1.69086">
        <ele>61</ele>
        <time>2020-06-07T14:01:42Z</time>
      </trkpt>
      <trkpt lat="47.27491" lon="-1.69086">
        <ele>61</ele>
        <time>2020-06-07T14:01:43Z</time>
      </trkpt>
      <trkpt lat="47.27492" lon="-1.69087">
        <ele>60.9</ele>
        <time>2020-06-07T14:01:44Z</time>
      </trkpt>
      <trkpt lat="47.27494" lon="-1.69088">
        <ele>60.8</ele>
        <time>2020-06-07T14:01:45Z</time>
      </trkpt>
      <trkpt lat="47.27495" lon="-1.69089">
        <ele>60.8</ele>
        <time>2020-06-07T14:01:46Z</time>
      </trkpt>
      <trkpt lat="47.27496" lon="-1.69089">
        <ele>60.7</ele>
        <time>2020-06-07T14:01:47Z</time>
      </trkpt>
      <trkpt lat="47.27498" lon="-1.69091">
        <ele>60.7</ele>
        <time>2020-06-07T14:01:48Z</time>
      </trkpt>
      <trkpt lat="47.27498" lon="-1.69092">
        <ele>60.6</ele>
        <time>2020-06-07T14:01:49Z</time>
      </trkpt>
      <trkpt lat="47.27499" lon="-1.69092">
        <ele>60.6</ele>
        <time>2020-06-07T14:01:50Z</time>
      </trkpt>
      <trkpt lat="47.27501" lon="-1.69094">
        <ele>60.5</ele>
        <time>2020-06-07T14:01:51Z</time>
      </trkpt>
      <trkpt lat="47.27502" lon="-1.69094">
        <ele>60.5</ele>
        <time>2020-06-07T14:01:52Z</time>
      </trkpt>
      <trkpt lat="47.27503" lon="-1.69094">
        <ele>60.4</ele>
        <time>2020-06-07T14:01:53Z</time>
      </trkpt>
      <trkpt lat="47.27505" lon="-1.69096">
        <ele>60.3</ele>
        <time>2020-06-07T14:01:54Z</time>
      </trkpt>
      <trkpt lat="47.27506" lon="-1.69096">
        <ele>60.3</ele>
        <time>2020-06-07T14:01:55Z</time>
      </trkpt>
      <trkpt lat="47.27506" lon="-1.69097">
        <ele>60.3</ele>
        <time>2020-06-07T14:01:56Z</time>
      </trkpt>
      <trkpt lat="47.27508" lon="-1.69098">
        <ele>60.2</ele>
        <time>2020-06-07T14:01:57Z</time>
      </trkpt>
      <trkpt lat="47.27509" lon="-1.69099">
        <ele>60.1</ele>
        <time>2020-06-07T14:01:58Z</time>
      </trkpt>
      <trkpt lat="47.27511" lon="-1.691">
        <ele>60.1</ele>
        <time>2020-06-07T14:01:59Z</time>
      </trkpt>
      <trkpt lat="47.27512" lon="-1.69101">
        <ele>60</ele>
        <time>2020-06-07T14:02:00Z</time>
      </trkpt>
      <trkpt lat="47.27514" lon="-1.69103">
        <ele>59.9</ele>
        <time>2020-06-07T14:02:01Z</time>
      </trkpt>
      <trkpt lat="47.27515" lon="-1.69104">
        <ele>59.8</ele>
        <time>2020-06-07T14:02:02Z</time>
      </trkpt>
      <trkpt lat="47.27515" lon="-1.69104">
        <ele>59.8</ele>
        <time>2020-06-07T14:02:03Z</time>
      </trkpt>
      <trkpt lat="47.27516" lon="-1.69105">
        <ele>59.8</ele>
        <time>2020-06-07T14:02:04Z</time>
      </trkpt>
      <trkpt lat="47.27517" lon="-1.69106">
        <ele>59.7</ele>
        <time>2020-06-07T14:02:05Z</time>
      </trkpt>
      <trkpt lat="47.27518" lon="-1.69107">
        <ele>59.6</ele>
        <time>2020-06-07T14:02:06Z</time>
      </trkpt>
      <trkpt lat="47.27519" lon="-1.69108">
        <ele>59.4</ele>
        <time>2020-06-07T14:02:07Z</time>
      </trkpt>
      <trkpt lat="47.27521" lon="-1.69109">
        <ele>59.4</ele>
        <time>2020-06-07T14:02:08Z</time>
      </trkpt>
      <trkpt lat="47.27522" lon="-1.69109">
        <ele>59.4</ele>
        <time>2020-06-07T14:02:09Z</time>
      </trkpt>
      <trkpt lat="47.27522" lon="-1.6911">
        <ele>59.4</ele>
        <time>2020-06-07T14:02:10Z</time>
      </trkpt>
      <trkpt lat="47.27523" lon="-1.6911">
        <ele>59.3</ele>
        <time>2020-06-07T14:02:11Z</time>
      </trkpt>
      <trkpt lat="47.27523" lon="-1.69111">
        <ele>59.3</ele>
        <time>2020-06-07T14:02:12Z</time>
      </trkpt>
      <trkpt lat="47.27524" lon="-1.69113">
        <ele>59.3</ele>
        <time>2020-06-07T14:02:13Z</time>
      </trkpt>
      <trkpt lat="47.27525" lon="-1.69114">
        <ele>59.3</ele>
        <time>2020-06-07T14:02:14Z</time>
      </trkpt>
      <trkpt lat="47.27526" lon="-1.69115">
        <ele>59.2</ele>
        <time>2020-06-07T14:02:15Z</time>
      </trkpt>
      <trkpt lat="47.27528" lon="-1.69116">
        <ele>59.2</ele>
        <time>2020-06-07T14:02:16Z</time>
      </trkpt>
      <trkpt lat="47.27529" lon="-1.69116">
        <ele>59.2</ele>
        <time>2020-06-07T14:02:17Z</time>
      </trkpt>
      <trkpt lat="47.2753" lon="-1.69117">
        <ele>59.1</ele>
        <time>2020-06-07T14:02:18Z</time>
      </trkpt>
      <trkpt lat="47.27531" lon="-1.69118">
        <ele>59.1</ele>
        <time>2020-06-07T14:02:19Z</time>
      </trkpt>
      <trkpt lat="47.27532" lon="-1.69118">
        <ele>59.1</ele>
        <time>2020-06-07T14:02:20Z</time>
      </trkpt>
      <trkpt lat="47.27533" lon="-1.69119">
        <ele>59</ele>
        <time>2020-06-07T14:02:21Z</time>
      </trkpt>
      <trkpt lat="47.27533" lon="-1.69119">
        <ele>59</ele>
        <time>2020-06-07T14:02:22Z</time>
      </trkpt>
      <trkpt lat="47.27534" lon="-1.69119">
        <ele>59</ele>
        <time>2020-06-07T14:02:23Z</time>
      </trkpt>
      <trkpt lat="47.27535" lon="-1.69119">
        <ele>58.9</ele>
        <time>2020-06-07T14:02:24Z</time>
      </trkpt>
      <trkpt lat="47.27536" lon="-1.6912">
        <ele>58.9</ele>
        <time>2020-06-07T14:02:25Z</time>
      </trkpt>
      <trkpt lat="47.27537" lon="-1.6912">
        <ele>58.9</ele>
        <time>2020-06-07T14:02:26Z</time>
      </trkpt>
      <trkpt lat="47.27538" lon="-1.6912">
        <ele>58.8</ele>
        <time>2020-06-07T14:02:27Z</time>
      </trkpt>
      <trkpt lat="47.2754" lon="-1.6912">
        <ele>58.8</ele>
        <time>2020-06-07T14:02:28Z</time>
      </trkpt>
      <trkpt lat="47.27541" lon="-1.6912">
        <ele>58.7</ele>
        <time>2020-06-07T14:02:29Z</time>
      </trkpt>
      <trkpt lat="47.27542" lon="-1.6912">
        <ele>58.7</ele>
        <time>2020-06-07T14:02:30Z</time>
      </trkpt>
      <trkpt lat="47.27543" lon="-1.6912">
        <ele>58.6</ele>
        <time>2020-06-07T14:02:31Z</time>
      </trkpt>
      <trkpt lat="47.27543" lon="-1.69121">
        <ele>58.6</ele>
        <time>2020-06-07T14:02:32Z</time>
      </trkpt>
      <trkpt lat="47.27544" lon="-1.69122">
        <ele>58.5</ele>
        <time>2020-06-07T14:02:33Z</time>
      </trkpt>
      <trkpt lat="47.27545" lon="-1.69122">
        <ele>58.5</ele>
        <time>2020-06-07T14:02:34Z</time>
      </trkpt>
      <trkpt lat="47.27545" lon="-1.69123">
        <ele>58.5</ele>
        <time>2020-06-07T14:02:35Z</time>
      </trkpt>
      <trkpt lat="47.27546" lon="-1.69124">
        <ele>58.4</ele>
        <time>2020-06-07T14:02:36Z</time>
      </trkpt>
      <trkpt lat="47.27546" lon="-1.69125">
        <ele>58.4</ele>
        <time>2020-06-07T14:02:37Z</time>
      </trkpt>
      <trkpt lat="47.27547" lon="-1.69127">
        <ele>58.3</ele>
        <time>2020-06-07T14:02:38Z</time>
      </trkpt>
      <trkpt lat="47.27548" lon="-1.69128">
        <ele>58.2</ele>
        <time>2020-06-07T14:02:39Z</time>
      </trkpt>
      <trkpt lat="47.27548" lon="-1.6913">
        <ele>58.1</ele>
        <time>2020-06-07T14:02:40Z</time>
      </trkpt>
      <trkpt lat="47.27549" lon="-1.69132">
        <ele>58.1</ele>
        <time>2020-06-07T14:02:41Z</time>
      </trkpt>
      <trkpt lat="47.27549" lon="-1.69134">
        <ele>58</ele>
        <time>2020-06-07T14:02:42Z</time>
      </trkpt>
      <trkpt lat="47.27549" lon="-1.69136">
        <ele>57.9</ele>
        <time>2020-06-07T14:02:43Z</time>
      </trkpt>
      <trkpt lat="47.27549" lon="-1.69138">
        <ele>57.8</ele>
        <time>2020-06-07T14:02:44Z</time>
      </trkpt>
      <trkpt lat="47.27549" lon="-1.6914">
        <ele>57.7</ele>
        <time>2020-06-07T14:02:45Z</time>
      </trkpt>
      <trkpt lat="47.27549" lon="-1.69142">
        <ele>57.7</ele>
        <time>2020-06-07T14:02:46Z</time>
      </trkpt>
      <trkpt lat="47.27549" lon="-1.69143">
        <ele>57.6</ele>
        <time>2020-06-07T14:02:47Z</time>
      </trkpt>
      <trkpt lat="47.27549" lon="-1.69144">
        <ele>57.6</ele>
        <time>2020-06-07T14:02:48Z</time>
      </trkpt>
      <trkpt lat="47.27549" lon="-1.69146">
        <ele>57.5</ele>
        <time>2020-06-07T14:02:49Z</time>
      </trkpt>
      <trkpt lat="47.27549" lon="-1.69148">
        <ele>57.4</ele>
        <time>2020-06-07T14:02:50Z</time>
      </trkpt>
      <trkpt lat="47.27549" lon="-1.69149">
        <ele>57.3</ele>
        <time>2020-06-07T14:02:51Z</time>
      </trkpt>
      <trkpt lat="47.27549" lon="-1.69151">
        <ele>57.3</ele>
        <time>2020-06-07T14:02:52Z</time>
      </trkpt>
      <trkpt lat="47.27548" lon="-1.69152">
        <ele>57.2</ele>
        <time>2020-06-07T14:02:53Z</time>
      </trkpt>
      <trkpt lat="47.27548" lon="-1.69154">
        <ele>57.1</ele>
        <time>2020-06-07T14:02:54Z</time>
      </trkpt>
      <trkpt lat="47.27548" lon="-1.69156">
        <ele>57</ele>
        <time>2020-06-07T14:02:55Z</time>
      </trkpt>
      <trkpt lat="47.27547" lon="-1.69157">
        <ele>57</ele>
        <time>2020-06-07T14:02:56Z</time>
      </trkpt>
      <trkpt lat="47.27547" lon="-1.69158">
        <ele>56.9</ele>
        <time>2020-06-07T14:02:57Z</time>
      </trkpt>
      <trkpt lat="47.27547" lon="-1.6916">
        <ele>56.8</ele>
        <time>2020-06-07T14:02:58Z</time>
      </trkpt>
      <trkpt lat="47.27547" lon="-1.69161">
        <ele>56.8</ele>
        <time>2020-06-07T14:02:59Z</time>
      </trkpt>
      <trkpt lat="47.27548" lon="-1.69164">
        <ele>56.6</ele>
        <time>2020-06-07T14:03:00Z</time>
      </trkpt>
      <trkpt lat="47.27549" lon="-1.69165">
        <ele>56.6</ele>
        <time>2020-06-07T14:03:01Z</time>
      </trkpt>
      <trkpt lat="47.27549" lon="-1.69166">
        <ele>56.5</ele>
        <time>2020-06-07T14:03:02Z</time>
      </trkpt>
      <trkpt lat="47.2755" lon="-1.69168">
        <ele>56.5</ele>
        <time>2020-06-07T14:03:03Z</time>
      </trkpt>
      <trkpt lat="47.27551" lon="-1.69169">
        <ele>56.4</ele>
        <time>2020-06-07T14:03:04Z</time>
      </trkpt>
      <trkpt lat="47.27552" lon="-1.6917">
        <ele>56.3</ele>
        <time>2020-06-07T14:03:05Z</time>
      </trkpt>
      <trkpt lat="47.27552" lon="-1.69171">
        <ele>56.3</ele>
        <time>2020-06-07T14:03:06Z</time>
      </trkpt>
      <trkpt lat="47.27553" lon="-1.69172">
        <ele>56.2</ele>
        <time>2020-06-07T14:03:07Z</time>
      </trkpt>
      <trkpt lat="47.27555" lon="-1.69173">
        <ele>56.2</ele>
        <time>2020-06-07T14:03:08Z</time>
      </trkpt>
      <trkpt lat="47.27556" lon="-1.69174">
        <ele>56.1</ele>
        <time>2020-06-07T14:03:09Z</time>
      </trkpt>
      <trkpt lat="47.27557" lon="-1.69174">
        <ele>56</ele>
        <time>2020-06-07T14:03:10Z</time>
      </trkpt>
      <trkpt lat="47.27559" lon="-1.69174">
        <ele>56</ele>
        <time>2020-06-07T14:03:11Z</time>
      </trkpt>
      <trkpt lat="47.2756" lon="-1.69175">
        <ele>55.9</ele>
        <time>2020-06-07T14:03:12Z</time>
      </trkpt>
      <trkpt lat="47.27562" lon="-1.69176">
        <ele>55.8</ele>
        <time>2020-06-07T14:03:13Z</time>
      </trkpt>
      <trkpt lat="47.27563" lon="-1.69177">
        <ele>55.8</ele>
        <time>2020-06-07T14:03:14Z</time>
      </trkpt>
      <trkpt lat="47.27564" lon="-1.69177">
        <ele>55.7</ele>
        <time>2020-06-07T14:03:15Z</time>
      </trkpt>
      <trkpt lat="47.27565" lon="-1.69177">
        <ele>55.7</ele>
        <time>2020-06-07T14:03:16Z</time>
      </trkpt>
      <trkpt lat="47.27566" lon="-1.69177">
        <ele>55.6</ele>
        <time>2020-06-07T14:03:17Z</time>
      </trkpt>
      <trkpt lat="47.27567" lon="-1.69178">
        <ele>55.6</ele>
        <time>2020-06-07T14:03:18Z</time>
      </trkpt>
      <trkpt lat="47.27569" lon="-1.69179">
        <ele>55.5</ele>
        <time>2020-06-07T14:03:19Z</time>
      </trkpt>
      <trkpt lat="47.2757" lon="-1.69179">
        <ele>55.4</ele>
        <time>2020-06-07T14:03:20Z</time>
      </trkpt>
      <trkpt lat="47.27572" lon="-1.6918">
        <ele>55.4</ele>
        <time>2020-06-07T14:03:21Z</time>
      </trkpt>
      <trkpt lat="47.27573" lon="-1.69181">
        <ele>55.3</ele>
        <time>2020-06-07T14:03:22Z</time>
      </trkpt>
      <trkpt lat="47.27574" lon="-1.69181">
        <ele>55.3</ele>
        <time>2020-06-07T14:03:23Z</time>
      </trkpt>
      <trkpt lat="47.27575" lon="-1.69182">
        <ele>55.2</ele>
        <time>2020-06-07T14:03:24Z</time>
      </trkpt>
      <trkpt lat="47.27577" lon="-1.69183">
        <ele>55.2</ele>
        <time>2020-06-07T14:03:25Z</time>
      </trkpt>
      <trkpt lat="47.27578" lon="-1.69184">
        <ele>55.1</ele>
        <time>2020-06-07T14:03:26Z</time>
      </trkpt>
      <trkpt lat="47.27579" lon="-1.69185">
        <ele>55.1</ele>
        <time>2020-06-07T14:03:27Z</time>
      </trkpt>
      <trkpt lat="47.27581" lon="-1.69186">
        <ele>55</ele>
        <time>2020-06-07T14:03:28Z</time>
      </trkpt>
      <trkpt lat="47.27582" lon="-1.69187">
        <ele>55</ele>
        <time>2020-06-07T14:03:29Z</time>
      </trkpt>
      <trkpt lat="47.27583" lon="-1.69188">
        <ele>54.9</ele>
        <time>2020-06-07T14:03:30Z</time>
      </trkpt>
      <trkpt lat="47.27584" lon="-1.69188">
        <ele>54.9</ele>
        <time>2020-06-07T14:03:31Z</time>
      </trkpt>
      <trkpt lat="47.27585" lon="-1.69189">
        <ele>54.9</ele>
        <time>2020-06-07T14:03:32Z</time>
      </trkpt>
      <trkpt lat="47.27586" lon="-1.69189">
        <ele>54.8</ele>
        <time>2020-06-07T14:03:33Z</time>
      </trkpt>
      <trkpt lat="47.27587" lon="-1.6919">
        <ele>54.8</ele>
        <time>2020-06-07T14:03:34Z</time>
      </trkpt>
      <trkpt lat="47.27588" lon="-1.69191">
        <ele>54.8</ele>
        <time>2020-06-07T14:03:35Z</time>
      </trkpt>
      <trkpt lat="47.27589" lon="-1.69191">
        <ele>54.7</ele>
        <time>2020-06-07T14:03:36Z</time>
      </trkpt>
      <trkpt lat="47.2759" lon="-1.69192">
        <ele>54.7</ele>
        <time>2020-06-07T14:03:37Z</time>
      </trkpt>
      <trkpt lat="47.2759" lon="-1.69192">
        <ele>54.7</ele>
        <time>2020-06-07T14:03:38Z</time>
      </trkpt>
      <trkpt lat="47.27591" lon="-1.69193">
        <ele>54.6</ele>
        <time>2020-06-07T14:03:39Z</time>
      </trkpt>
      <trkpt lat="47.27592" lon="-1.69194">
        <ele>54.6</ele>
        <time>2020-06-07T14:03:40Z</time>
      </trkpt>
      <trkpt lat="47.27593" lon="-1.69195">
        <ele>54.6</ele>
        <time>2020-06-07T14:03:41Z</time>
      </trkpt>
      <trkpt lat="47.27594" lon="-1.69195">
        <ele>54.5</ele>
        <time>2020-06-07T14:03:42Z</time>
      </trkpt>
      <trkpt lat="47.27595" lon="-1.69196">
        <ele>54.5</ele>
        <time>2020-06-07T14:03:43Z</time>
      </trkpt>
      <trkpt lat="47.27596" lon="-1.69197">
        <ele>54.4</ele>
        <time>2020-06-07T14:03:44Z</time>
      </trkpt>
      <trkpt lat="47.27597" lon="-1.69197">
        <ele>54.4</ele>
        <time>2020-06-07T14:03:45Z</time>
      </trkpt>
      <trkpt lat="47.27598" lon="-1.69198">
        <ele>54.4</ele>
        <time>2020-06-07T14:03:46Z</time>
      </trkpt>
      <trkpt lat="47.27599" lon="-1.69199">
        <ele>54.3</ele>
        <time>2020-06-07T14:03:47Z</time>
      </trkpt>
      <trkpt lat="47.276" lon="-1.69199">
        <ele>54.3</ele>
        <time>2020-06-07T14:03:48Z</time>
      </trkpt>
      <trkpt lat="47.27601" lon="-1.69199">
        <ele>54.3</ele>
        <time>2020-06-07T14:03:49Z</time>
      </trkpt>
      <trkpt lat="47.27604" lon="-1.692">
        <ele>54.2</ele>
        <time>2020-06-07T14:03:50Z</time>
      </trkpt>
      <trkpt lat="47.27604" lon="-1.692">
        <ele>54.1</ele>
        <time>2020-06-07T14:03:51Z</time>
      </trkpt>
      <trkpt lat="47.27605" lon="-1.69201">
        <ele>54.1</ele>
        <time>2020-06-07T14:03:52Z</time>
      </trkpt>
      <trkpt lat="47.27606" lon="-1.69201">
        <ele>54.1</ele>
        <time>2020-06-07T14:03:53Z</time>
      </trkpt>
      <trkpt lat="47.27607" lon="-1.69202">
        <ele>54</ele>
        <time>2020-06-07T14:03:54Z</time>
      </trkpt>
      <trkpt lat="47.27608" lon="-1.69203">
        <ele>54</ele>
        <time>2020-06-07T14:03:55Z</time>
      </trkpt>
      <trkpt lat="47.27609" lon="-1.69204">
        <ele>53.9</ele>
        <time>2020-06-07T14:03:56Z</time>
      </trkpt>
      <trkpt lat="47.27609" lon="-1.69205">
        <ele>53.9</ele>
        <time>2020-06-07T14:03:57Z</time>
      </trkpt>
      <trkpt lat="47.2761" lon="-1.69207">
        <ele>53.8</ele>
        <time>2020-06-07T14:03:58Z</time>
      </trkpt>
      <trkpt lat="47.27611" lon="-1.69208">
        <ele>53.8</ele>
        <time>2020-06-07T14:03:59Z</time>
      </trkpt>
      <trkpt lat="47.27612" lon="-1.69209">
        <ele>53.8</ele>
        <time>2020-06-07T14:04:00Z</time>
      </trkpt>
      <trkpt lat="47.27613" lon="-1.69209">
        <ele>53.7</ele>
        <time>2020-06-07T14:04:01Z</time>
      </trkpt>
      <trkpt lat="47.27613" lon="-1.6921">
        <ele>53.7</ele>
        <time>2020-06-07T14:04:02Z</time>
      </trkpt>
      <trkpt lat="47.27614" lon="-1.6921">
        <ele>53.7</ele>
        <time>2020-06-07T14:04:03Z</time>
      </trkpt>
      <trkpt lat="47.27615" lon="-1.6921">
        <ele>53.6</ele>
        <time>2020-06-07T14:04:04Z</time>
      </trkpt>
      <trkpt lat="47.27616" lon="-1.69211">
        <ele>53.6</ele>
        <time>2020-06-07T14:04:05Z</time>
      </trkpt>
      <trkpt lat="47.27617" lon="-1.69211">
        <ele>53.5</ele>
        <time>2020-06-07T14:04:06Z</time>
      </trkpt>
      <trkpt lat="47.27618" lon="-1.69212">
        <ele>53.5</ele>
        <time>2020-06-07T14:04:07Z</time>
      </trkpt>
      <trkpt lat="47.27618" lon="-1.69213">
        <ele>53.5</ele>
        <time>2020-06-07T14:04:08Z</time>
      </trkpt>
      <trkpt lat="47.27619" lon="-1.69214">
        <ele>53.4</ele>
        <time>2020-06-07T14:04:09Z</time>
      </trkpt>
      <trkpt lat="47.2762" lon="-1.69215">
        <ele>53.4</ele>
        <time>2020-06-07T14:04:10Z</time>
      </trkpt>
      <trkpt lat="47.27621" lon="-1.69215">
        <ele>53.4</ele>
        <time>2020-06-07T14:04:11Z</time>
      </trkpt>
      <trkpt lat="47.27622" lon="-1.69217">
        <ele>53.3</ele>
        <time>2020-06-07T14:04:12Z</time>
      </trkpt>
      <trkpt lat="47.27623" lon="-1.69218">
        <ele>53.2</ele>
        <time>2020-06-07T14:04:13Z</time>
      </trkpt>
      <trkpt lat="47.27624" lon="-1.69219">
        <ele>53.2</ele>
        <time>2020-06-07T14:04:14Z</time>
      </trkpt>
      <trkpt lat="47.27625" lon="-1.6922">
        <ele>53.2</ele>
        <time>2020-06-07T14:04:15Z</time>
      </trkpt>
      <trkpt lat="47.27626" lon="-1.69221">
        <ele>53.1</ele>
        <time>2020-06-07T14:04:16Z</time>
      </trkpt>
      <trkpt lat="47.27627" lon="-1.69222">
        <ele>53</ele>
        <time>2020-06-07T14:04:17Z</time>
      </trkpt>
      <trkpt lat="47.27628" lon="-1.69224">
        <ele>53</ele>
        <time>2020-06-07T14:04:18Z</time>
      </trkpt>
      <trkpt lat="47.27629" lon="-1.69226">
        <ele>52.9</ele>
        <time>2020-06-07T14:04:19Z</time>
      </trkpt>
      <trkpt lat="47.2763" lon="-1.69227">
        <ele>52.9</ele>
        <time>2020-06-07T14:04:20Z</time>
      </trkpt>
      <trkpt lat="47.27631" lon="-1.69228">
        <ele>52.8</ele>
        <time>2020-06-07T14:04:21Z</time>
      </trkpt>
      <trkpt lat="47.27633" lon="-1.69229">
        <ele>52.8</ele>
        <time>2020-06-07T14:04:22Z</time>
      </trkpt>
      <trkpt lat="47.27634" lon="-1.6923">
        <ele>52.7</ele>
        <time>2020-06-07T14:04:23Z</time>
      </trkpt>
      <trkpt lat="47.27635" lon="-1.69232">
        <ele>52.7</ele>
        <time>2020-06-07T14:04:24Z</time>
      </trkpt>
      <trkpt lat="47.27636" lon="-1.69234">
        <ele>52.6</ele>
        <time>2020-06-07T14:04:25Z</time>
      </trkpt>
      <trkpt lat="47.27637" lon="-1.69235">
        <ele>52.5</ele>
        <time>2020-06-07T14:04:26Z</time>
      </trkpt>
      <trkpt lat="47.27638" lon="-1.69235">
        <ele>52.5</ele>
        <time>2020-06-07T14:04:27Z</time>
      </trkpt>
      <trkpt lat="47.27639" lon="-1.69236">
        <ele>52.5</ele>
        <time>2020-06-07T14:04:28Z</time>
      </trkpt>
      <trkpt lat="47.27639" lon="-1.69237">
        <ele>52.4</ele>
        <time>2020-06-07T14:04:29Z</time>
      </trkpt>
      <trkpt lat="47.2764" lon="-1.69239">
        <ele>52.4</ele>
        <time>2020-06-07T14:04:30Z</time>
      </trkpt>
      <trkpt lat="47.27642" lon="-1.69241">
        <ele>52.3</ele>
        <time>2020-06-07T14:04:31Z</time>
      </trkpt>
      <trkpt lat="47.27642" lon="-1.69242">
        <ele>52.3</ele>
        <time>2020-06-07T14:04:32Z</time>
      </trkpt>
      <trkpt lat="47.27643" lon="-1.69242">
        <ele>52.2</ele>
        <time>2020-06-07T14:04:33Z</time>
      </trkpt>
      <trkpt lat="47.27645" lon="-1.69244">
        <ele>52.2</ele>
        <time>2020-06-07T14:04:34Z</time>
      </trkpt>
      <trkpt lat="47.27645" lon="-1.69245">
        <ele>52.1</ele>
        <time>2020-06-07T14:04:35Z</time>
      </trkpt>
      <trkpt lat="47.27646" lon="-1.69246">
        <ele>52.1</ele>
        <time>2020-06-07T14:04:36Z</time>
      </trkpt>
      <trkpt lat="47.27647" lon="-1.69247">
        <ele>52.1</ele>
        <time>2020-06-07T14:04:37Z</time>
      </trkpt>
      <trkpt lat="47.27648" lon="-1.69248">
        <ele>52.1</ele>
        <time>2020-06-07T14:04:38Z</time>
      </trkpt>
      <trkpt lat="47.27648" lon="-1.69249">
        <ele>52</ele>
        <time>2020-06-07T14:04:39Z</time>
      </trkpt>
      <trkpt lat="47.27649" lon="-1.6925">
        <ele>52</ele>
        <time>2020-06-07T14:04:40Z</time>
      </trkpt>
      <trkpt lat="47.2765" lon="-1.69251">
        <ele>52</ele>
        <time>2020-06-07T14:04:41Z</time>
      </trkpt>
      <trkpt lat="47.2765" lon="-1.69251">
        <ele>51.9</ele>
        <time>2020-06-07T14:04:42Z</time>
      </trkpt>
      <trkpt lat="47.27651" lon="-1.69252">
        <ele>51.9</ele>
        <time>2020-06-07T14:04:43Z</time>
      </trkpt>
      <trkpt lat="47.27652" lon="-1.69253">
        <ele>51.9</ele>
        <time>2020-06-07T14:04:44Z</time>
      </trkpt>
      <trkpt lat="47.27652" lon="-1.69254">
        <ele>51.9</ele>
        <time>2020-06-07T14:04:45Z</time>
      </trkpt>
      <trkpt lat="47.27653" lon="-1.69255">
        <ele>51.8</ele>
        <time>2020-06-07T14:04:46Z</time>
      </trkpt>
      <trkpt lat="47.27654" lon="-1.69256">
        <ele>51.8</ele>
        <time>2020-06-07T14:04:47Z</time>
      </trkpt>
      <trkpt lat="47.27655" lon="-1.69257">
        <ele>51.8</ele>
        <time>2020-06-07T14:04:48Z</time>
      </trkpt>
      <trkpt lat="47.27656" lon="-1.69258">
        <ele>51.7</ele>
        <time>2020-06-07T14:04:49Z</time>
      </trkpt>
      <trkpt lat="47.27658" lon="-1.69259">
        <ele>51.7</ele>
        <time>2020-06-07T14:04:50Z</time>
      </trkpt>
      <trkpt lat="47.27659" lon="-1.6926">
        <ele>51.7</ele>
        <time>2020-06-07T14:04:51Z</time>
      </trkpt>
      <trkpt lat="47.2766" lon="-1.69261">
        <ele>51.6</ele>
        <time>2020-06-07T14:04:52Z</time>
      </trkpt>
      <trkpt lat="47.27661" lon="-1.69261">
        <ele>51.6</ele>
        <time>2020-06-07T14:04:53Z</time>
      </trkpt>
      <trkpt lat="47.27661" lon="-1.69262">
        <ele>51.6</ele>
        <time>2020-06-07T14:04:54Z</time>
      </trkpt>
      <trkpt lat="47.27662" lon="-1.69263">
        <ele>51.5</ele>
        <time>2020-06-07T14:04:55Z</time>
      </trkpt>
      <trkpt lat="47.27664" lon="-1.69264">
        <ele>51.5</ele>
        <time>2020-06-07T14:04:56Z</time>
      </trkpt>
      <trkpt lat="47.27665" lon="-1.69264">
        <ele>51.5</ele>
        <time>2020-06-07T14:04:57Z</time>
      </trkpt>
      <trkpt lat="47.27666" lon="-1.69265">
        <ele>51.4</ele>
        <time>2020-06-07T14:04:58Z</time>
      </trkpt>
      <trkpt lat="47.27668" lon="-1.69266">
        <ele>51.4</ele>
        <time>2020-06-07T14:04:59Z</time>
      </trkpt>
      <trkpt lat="47.27669" lon="-1.69267">
        <ele>51.4</ele>
        <time>2020-06-07T14:05:00Z</time>
      </trkpt>
      <trkpt lat="47.27671" lon="-1.69268">
        <ele>51.3</ele>
        <time>2020-06-07T14:05:01Z</time>
      </trkpt>
      <trkpt lat="47.27672" lon="-1.6927">
        <ele>51.3</ele>
        <time>2020-06-07T14:05:02Z</time>
      </trkpt>
      <trkpt lat="47.27673" lon="-1.69271">
        <ele>51.2</ele>
        <time>2020-06-07T14:05:03Z</time>
      </trkpt>
      <trkpt lat="47.27674" lon="-1.69272">
        <ele>51.2</ele>
        <time>2020-06-07T14:05:04Z</time>
      </trkpt>
      <trkpt lat="47.27675" lon="-1.69273">
        <ele>51.2</ele>
        <time>2020-06-07T14:05:05Z</time>
      </trkpt>
      <trkpt lat="47.27676" lon="-1.69274">
        <ele>51.1</ele>
        <time>2020-06-07T14:05:06Z</time>
      </trkpt>
      <trkpt lat="47.27677" lon="-1.69274">
        <ele>51.1</ele>
        <time>2020-06-07T14:05:07Z</time>
      </trkpt>
      <trkpt lat="47.27678" lon="-1.69274">
        <ele>51.1</ele>
        <time>2020-06-07T14:05:08Z</time>
      </trkpt>
      <trkpt lat="47.27679" lon="-1.69275">
        <ele>51</ele>
        <time>2020-06-07T14:05:09Z</time>
      </trkpt>
      <trkpt lat="47.2768" lon="-1.69275">
        <ele>51</ele>
        <time>2020-06-07T14:05:10Z</time>
      </trkpt>
      <trkpt lat="47.27681" lon="-1.69275">
        <ele>51</ele>
        <time>2020-06-07T14:05:11Z</time>
      </trkpt>
      <trkpt lat="47.27682" lon="-1.69275">
        <ele>50.9</ele>
        <time>2020-06-07T14:05:12Z</time>
      </trkpt>
      <trkpt lat="47.27683" lon="-1.69276">
        <ele>50.9</ele>
        <time>2020-06-07T14:05:13Z</time>
      </trkpt>
      <trkpt lat="47.27685" lon="-1.69277">
        <ele>50.8</ele>
        <time>2020-06-07T14:05:14Z</time>
      </trkpt>
      <trkpt lat="47.27686" lon="-1.69278">
        <ele>50.8</ele>
        <time>2020-06-07T14:05:15Z</time>
      </trkpt>
      <trkpt lat="47.27686" lon="-1.69278">
        <ele>50.7</ele>
        <time>2020-06-07T14:05:16Z</time>
      </trkpt>
      <trkpt lat="47.27688" lon="-1.6928">
        <ele>50.6</ele>
        <time>2020-06-07T14:05:17Z</time>
      </trkpt>
      <trkpt lat="47.27689" lon="-1.6928">
        <ele>50.6</ele>
        <time>2020-06-07T14:05:18Z</time>
      </trkpt>
      <trkpt lat="47.2769" lon="-1.6928">
        <ele>50.5</ele>
        <time>2020-06-07T14:05:19Z</time>
      </trkpt>
      <trkpt lat="47.27691" lon="-1.6928">
        <ele>50.5</ele>
        <time>2020-06-07T14:05:20Z</time>
      </trkpt>
      <trkpt lat="47.27692" lon="-1.6928">
        <ele>50.4</ele>
        <time>2020-06-07T14:05:21Z</time>
      </trkpt>
      <trkpt lat="47.27693" lon="-1.6928">
        <ele>50.4</ele>
        <time>2020-06-07T14:05:22Z</time>
      </trkpt>
      <trkpt lat="47.27695" lon="-1.6928">
        <ele>50.3</ele>
        <time>2020-06-07T14:05:23Z</time>
      </trkpt>
      <trkpt lat="47.27696" lon="-1.69279">
        <ele>50.2</ele>
        <time>2020-06-07T14:05:24Z</time>
      </trkpt>
      <trkpt lat="47.27697" lon="-1.69279">
        <ele>50.1</ele>
        <time>2020-06-07T14:05:25Z</time>
      </trkpt>
      <trkpt lat="47.27698" lon="-1.69277">
        <ele>50</ele>
        <time>2020-06-07T14:05:26Z</time>
      </trkpt>
      <trkpt lat="47.27699" lon="-1.69276">
        <ele>50</ele>
        <time>2020-06-07T14:05:27Z</time>
      </trkpt>
      <trkpt lat="47.277" lon="-1.69276">
        <ele>49.9</ele>
        <time>2020-06-07T14:05:28Z</time>
      </trkpt>
      <trkpt lat="47.27702" lon="-1.69275">
        <ele>49.8</ele>
        <time>2020-06-07T14:05:29Z</time>
      </trkpt>
      <trkpt lat="47.27703" lon="-1.69275">
        <ele>49.8</ele>
        <time>2020-06-07T14:05:30Z</time>
      </trkpt>
      <trkpt lat="47.27704" lon="-1.69275">
        <ele>49.7</ele>
        <time>2020-06-07T14:05:31Z</time>
      </trkpt>
      <trkpt lat="47.27706" lon="-1.69274">
        <ele>49.6</ele>
        <time>2020-06-07T14:05:32Z</time>
      </trkpt>
      <trkpt lat="47.27707" lon="-1.69274">
        <ele>49.5</ele>
        <time>2020-06-07T14:05:33Z</time>
      </trkpt>
      <trkpt lat="47.27708" lon="-1.69274">
        <ele>49.5</ele>
        <time>2020-06-07T14:05:34Z</time>
      </trkpt>
      <trkpt lat="47.2771" lon="-1.69274">
        <ele>49.4</ele>
        <time>2020-06-07T14:05:35Z</time>
      </trkpt>
      <trkpt lat="47.27711" lon="-1.69274">
        <ele>49.3</ele>
        <time>2020-06-07T14:05:36Z</time>
      </trkpt>
      <trkpt lat="47.27711" lon="-1.69274">
        <ele>49.3</ele>
        <time>2020-06-07T14:05:37Z</time>
      </trkpt>
      <trkpt lat="47.27713" lon="-1.69273">
        <ele>49.2</ele>
        <time>2020-06-07T14:05:38Z</time>
      </trkpt>
      <trkpt lat="47.27714" lon="-1.69273">
        <ele>49.1</ele>
        <time>2020-06-07T14:05:39Z</time>
      </trkpt>
      <trkpt lat="47.27715" lon="-1.69272">
        <ele>49.1</ele>
        <time>2020-06-07T14:05:40Z</time>
      </trkpt>
      <trkpt lat="47.27716" lon="-1.69272">
        <ele>49</ele>
        <time>2020-06-07T14:05:41Z</time>
      </trkpt>
      <trkpt lat="47.27717" lon="-1.69272">
        <ele>48.9</ele>
        <time>2020-06-07T14:05:42Z</time>
      </trkpt>
      <trkpt lat="47.27718" lon="-1.69271">
        <ele>48.9</ele>
        <time>2020-06-07T14:05:43Z</time>
      </trkpt>
      <trkpt lat="47.2772" lon="-1.69271">
        <ele>48.8</ele>
        <time>2020-06-07T14:05:44Z</time>
      </trkpt>
      <trkpt lat="47.27721" lon="-1.69271">
        <ele>48.7</ele>
        <time>2020-06-07T14:05:45Z</time>
      </trkpt>
      <trkpt lat="47.27722" lon="-1.69271">
        <ele>48.7</ele>
        <time>2020-06-07T14:05:46Z</time>
      </trkpt>
      <trkpt lat="47.27723" lon="-1.69271">
        <ele>48.6</ele>
        <time>2020-06-07T14:05:47Z</time>
      </trkpt>
      <trkpt lat="47.27724" lon="-1.69271">
        <ele>48.6</ele>
        <time>2020-06-07T14:05:48Z</time>
      </trkpt>
      <trkpt lat="47.27725" lon="-1.69272">
        <ele>48.6</ele>
        <time>2020-06-07T14:05:49Z</time>
      </trkpt>
      <trkpt lat="47.27725" lon="-1.69272">
        <ele>48.6</ele>
        <time>2020-06-07T14:05:50Z</time>
      </trkpt>
      <trkpt lat="47.27726" lon="-1.69272">
        <ele>48.5</ele>
        <time>2020-06-07T14:05:51Z</time>
      </trkpt>
      <trkpt lat="47.27726" lon="-1.69272">
        <ele>48.5</ele>
        <time>2020-06-07T14:05:52Z</time>
      </trkpt>
      <trkpt lat="47.27727" lon="-1.69273">
        <ele>48.5</ele>
        <time>2020-06-07T14:05:53Z</time>
      </trkpt>
      <trkpt lat="47.27728" lon="-1.69273">
        <ele>48.4</ele>
        <time>2020-06-07T14:05:54Z</time>
      </trkpt>
      <trkpt lat="47.2773" lon="-1.69273">
        <ele>48.4</ele>
        <time>2020-06-07T14:05:55Z</time>
      </trkpt>
      <trkpt lat="47.27731" lon="-1.69274">
        <ele>48.4</ele>
        <time>2020-06-07T14:05:56Z</time>
      </trkpt>
      <trkpt lat="47.27732" lon="-1.69274">
        <ele>48.3</ele>
        <time>2020-06-07T14:05:57Z</time>
      </trkpt>
      <trkpt lat="47.27733" lon="-1.69275">
        <ele>48.3</ele>
        <time>2020-06-07T14:05:58Z</time>
      </trkpt>
      <trkpt lat="47.27734" lon="-1.69276">
        <ele>48.3</ele>
        <time>2020-06-07T14:05:59Z</time>
      </trkpt>
      <trkpt lat="47.27735" lon="-1.69277">
        <ele>48.3</ele>
        <time>2020-06-07T14:06:00Z</time>
      </trkpt>
      <trkpt lat="47.27736" lon="-1.69278">
        <ele>48.2</ele>
        <time>2020-06-07T14:06:01Z</time>
      </trkpt>
      <trkpt lat="47.27736" lon="-1.69279">
        <ele>48.2</ele>
        <time>2020-06-07T14:06:02Z</time>
      </trkpt>
      <trkpt lat="47.27738" lon="-1.6928">
        <ele>48.2</ele>
        <time>2020-06-07T14:06:03Z</time>
      </trkpt>
      <trkpt lat="47.27739" lon="-1.6928">
        <ele>48.2</ele>
        <time>2020-06-07T14:06:04Z</time>
      </trkpt>
      <trkpt lat="47.27739" lon="-1.6928">
        <ele>48.2</ele>
        <time>2020-06-07T14:06:05Z</time>
      </trkpt>
      <trkpt lat="47.2774" lon="-1.69281">
        <ele>48.2</ele>
        <time>2020-06-07T14:06:06Z</time>
      </trkpt>
      <trkpt lat="47.27741" lon="-1.69281">
        <ele>48.2</ele>
        <time>2020-06-07T14:06:07Z</time>
      </trkpt>
      <trkpt lat="47.27742" lon="-1.69281">
        <ele>48.3</ele>
        <time>2020-06-07T14:06:08Z</time>
      </trkpt>
      <trkpt lat="47.27742" lon="-1.69281">
        <ele>48.3</ele>
        <time>2020-06-07T14:06:09Z</time>
      </trkpt>
      <trkpt lat="47.27743" lon="-1.69282">
        <ele>48.3</ele>
        <time>2020-06-07T14:06:10Z</time>
      </trkpt>
      <trkpt lat="47.27744" lon="-1.69282">
        <ele>48.3</ele>
        <time>2020-06-07T14:06:11Z</time>
      </trkpt>
      <trkpt lat="47.27744" lon="-1.69281">
        <ele>48.3</ele>
        <time>2020-06-07T14:06:12Z</time>
      </trkpt>
      <trkpt lat="47.27745" lon="-1.69281">
        <ele>48.3</ele>
        <time>2020-06-07T14:06:13Z</time>
      </trkpt>
      <trkpt lat="47.27746" lon="-1.6928">
        <ele>48.4</ele>
        <time>2020-06-07T14:06:14Z</time>
      </trkpt>
      <trkpt lat="47.27747" lon="-1.6928">
        <ele>48.4</ele>
        <time>2020-06-07T14:06:15Z</time>
      </trkpt>
      <trkpt lat="47.27748" lon="-1.69281">
        <ele>48.4</ele>
        <time>2020-06-07T14:06:16Z</time>
      </trkpt>
      <trkpt lat="47.27748" lon="-1.69282">
        <ele>48.4</ele>
        <time>2020-06-07T14:06:17Z</time>
      </trkpt>
      <trkpt lat="47.27748" lon="-1.69283">
        <ele>48.5</ele>
        <time>2020-06-07T14:06:18Z</time>
      </trkpt>
      <trkpt lat="47.27748" lon="-1.69283">
        <ele>48.5</ele>
        <time>2020-06-07T14:06:19Z</time>
      </trkpt>
      <trkpt lat="47.27748" lon="-1.69284">
        <ele>48.5</ele>
        <time>2020-06-07T14:06:20Z</time>
      </trkpt>
      <trkpt lat="47.27748" lon="-1.69285">
        <ele>48.6</ele>
        <time>2020-06-07T14:06:21Z</time>
      </trkpt>
      <trkpt lat="47.27748" lon="-1.69286">
        <ele>48.6</ele>
        <time>2020-06-07T14:06:22Z</time>
      </trkpt>
      <trkpt lat="47.27748" lon="-1.69287">
        <ele>48.6</ele>
        <time>2020-06-07T14:06:23Z</time>
      </trkpt>
      <trkpt lat="47.27748" lon="-1.69288">
        <ele>48.7</ele>
        <time>2020-06-07T14:06:24Z</time>
      </trkpt>
      <trkpt lat="47.27749" lon="-1.69289">
        <ele>48.7</ele>
        <time>2020-06-07T14:06:25Z</time>
      </trkpt>
      <trkpt lat="47.2775" lon="-1.6929">
        <ele>48.8</ele>
        <time>2020-06-07T14:06:26Z</time>
      </trkpt>
      <trkpt lat="47.27751" lon="-1.69291">
        <ele>48.9</ele>
        <time>2020-06-07T14:06:27Z</time>
      </trkpt>
      <trkpt lat="47.27752" lon="-1.69291">
        <ele>49</ele>
        <time>2020-06-07T14:06:28Z</time>
      </trkpt>
      <trkpt lat="47.27753" lon="-1.69292">
        <ele>49</ele>
        <time>2020-06-07T14:06:29Z</time>
      </trkpt>
      <trkpt lat="47.27753" lon="-1.69293">
        <ele>49.1</ele>
        <time>2020-06-07T14:06:30Z</time>
      </trkpt>
      <trkpt lat="47.27754" lon="-1.69295">
        <ele>49.2</ele>
        <time>2020-06-07T14:06:31Z</time>
      </trkpt>
      <trkpt lat="47.27755" lon="-1.69296">
        <ele>49.3</ele>
        <time>2020-06-07T14:06:32Z</time>
      </trkpt>
      <trkpt lat="47.27756" lon="-1.69297">
        <ele>49.4</ele>
        <time>2020-06-07T14:06:33Z</time>
      </trkpt>
      <trkpt lat="47.27759" lon="-1.69298">
        <ele>49.7</ele>
        <time>2020-06-07T14:06:34Z</time>
      </trkpt>
      <trkpt lat="47.2776" lon="-1.69298">
        <ele>49.7</ele>
        <time>2020-06-07T14:06:35Z</time>
      </trkpt>
      <trkpt lat="47.27761" lon="-1.69298">
        <ele>49.9</ele>
        <time>2020-06-07T14:06:36Z</time>
      </trkpt>
      <trkpt lat="47.27762" lon="-1.69299">
        <ele>50</ele>
        <time>2020-06-07T14:06:37Z</time>
      </trkpt>
      <trkpt lat="47.27763" lon="-1.69299">
        <ele>50.1</ele>
        <time>2020-06-07T14:06:38Z</time>
      </trkpt>
      <trkpt lat="47.27764" lon="-1.693">
        <ele>50.1</ele>
        <time>2020-06-07T14:06:39Z</time>
      </trkpt>
      <trkpt lat="47.27764" lon="-1.693">
        <ele>50.2</ele>
        <time>2020-06-07T14:06:40Z</time>
      </trkpt>
      <trkpt lat="47.27764" lon="-1.69301">
        <ele>50.2</ele>
        <time>2020-06-07T14:06:41Z</time>
      </trkpt>
      <trkpt lat="47.27764" lon="-1.69302">
        <ele>50.3</ele>
        <time>2020-06-07T14:06:42Z</time>
      </trkpt>
      <trkpt lat="47.27764" lon="-1.69304">
        <ele>50.4</ele>
        <time>2020-06-07T14:06:43Z</time>
      </trkpt>
      <trkpt lat="47.27764" lon="-1.69305">
        <ele>50.5</ele>
        <time>2020-06-07T14:06:44Z</time>
      </trkpt>
      <trkpt lat="47.27764" lon="-1.69306">
        <ele>50.5</ele>
        <time>2020-06-07T14:06:45Z</time>
      </trkpt>
      <trkpt lat="47.27764" lon="-1.69307">
        <ele>50.6</ele>
        <time>2020-06-07T14:06:46Z</time>
      </trkpt>
      <trkpt lat="47.27764" lon="-1.69308">
        <ele>50.7</ele>
        <time>2020-06-07T14:06:47Z</time>
      </trkpt>
      <trkpt lat="47.27765" lon="-1.69309">
        <ele>50.7</ele>
        <time>2020-06-07T14:06:48Z</time>
      </trkpt>
      <trkpt lat="47.27765" lon="-1.6931">
        <ele>50.8</ele>
        <time>2020-06-07T14:06:49Z</time>
      </trkpt>
      <trkpt lat="47.27765" lon="-1.69311">
        <ele>50.9</ele>
        <time>2020-06-07T14:06:50Z</time>
      </trkpt>
      <trkpt lat="47.27765" lon="-1.69313">
        <ele>51</ele>
        <time>2020-06-07T14:06:51Z</time>
      </trkpt>
      <trkpt lat="47.27766" lon="-1.69314">
        <ele>51.1</ele>
        <time>2020-06-07T14:06:52Z</time>
      </trkpt>
      <trkpt lat="47.27766" lon="-1.69315">
        <ele>51.2</ele>
        <time>2020-06-07T14:06:53Z</time>
      </trkpt>
      <trkpt lat="47.27768" lon="-1.69317">
        <ele>51.4</ele>
        <time>2020-06-07T14:06:54Z</time>
      </trkpt>
      <trkpt lat="47.27768" lon="-1.69318">
        <ele>51.5</ele>
        <time>2020-06-07T14:06:55Z</time>
      </trkpt>
      <trkpt lat="47.27769" lon="-1.69319">
        <ele>51.5</ele>
        <time>2020-06-07T14:06:56Z</time>
      </trkpt>
      <trkpt lat="47.2777" lon="-1.69321">
        <ele>51.6</ele>
        <time>2020-06-07T14:06:57Z</time>
      </trkpt>
      <trkpt lat="47.2777" lon="-1.69322">
        <ele>51.7</ele>
        <time>2020-06-07T14:06:58Z</time>
      </trkpt>
      <trkpt lat="47.2777" lon="-1.69323">
        <ele>51.8</ele>
        <time>2020-06-07T14:06:59Z</time>
      </trkpt>
      <trkpt lat="47.2777" lon="-1.69325">
        <ele>51.9</ele>
        <time>2020-06-07T14:07:00Z</time>
      </trkpt>
      <trkpt lat="47.2777" lon="-1.69326">
        <ele>52</ele>
        <time>2020-06-07T14:07:01Z</time>
      </trkpt>
      <trkpt lat="47.27771" lon="-1.69328">
        <ele>52.1</ele>
        <time>2020-06-07T14:07:02Z</time>
      </trkpt>
      <trkpt lat="47.27771" lon="-1.6933">
        <ele>52.2</ele>
        <time>2020-06-07T14:07:03Z</time>
      </trkpt>
      <trkpt lat="47.27771" lon="-1.69331">
        <ele>52.3</ele>
        <time>2020-06-07T14:07:04Z</time>
      </trkpt>
      <trkpt lat="47.27771" lon="-1.69332">
        <ele>52.4</ele>
        <time>2020-06-07T14:07:05Z</time>
      </trkpt>
      <trkpt lat="47.2777" lon="-1.69333">
        <ele>52.4</ele>
        <time>2020-06-07T14:07:06Z</time>
      </trkpt>
      <trkpt lat="47.2777" lon="-1.69334">
        <ele>52.5</ele>
        <time>2020-06-07T14:07:07Z</time>
      </trkpt>
      <trkpt lat="47.27769" lon="-1.69336">
        <ele>52.7</ele>
        <time>2020-06-07T14:07:08Z</time>
      </trkpt>
      <trkpt lat="47.27769" lon="-1.69337">
        <ele>52.8</ele>
        <time>2020-06-07T14:07:09Z</time>
      </trkpt>
      <trkpt lat="47.27769" lon="-1.69339">
        <ele>52.8</ele>
        <time>2020-06-07T14:07:10Z</time>
      </trkpt>
      <trkpt lat="47.27769" lon="-1.6934">
        <ele>52.9</ele>
        <time>2020-06-07T14:07:11Z</time>
      </trkpt>
      <trkpt lat="47.2777" lon="-1.69342">
        <ele>53</ele>
        <time>2020-06-07T14:07:12Z</time>
      </trkpt>
      <trkpt lat="47.27771" lon="-1.69344">
        <ele>53.2</ele>
        <time>2020-06-07T14:07:13Z</time>
      </trkpt>
      <trkpt lat="47.27771" lon="-1.69346">
        <ele>53.3</ele>
        <time>2020-06-07T14:07:14Z</time>
      </trkpt>
      <trkpt lat="47.27772" lon="-1.69348">
        <ele>53.5</ele>
        <time>2020-06-07T14:07:15Z</time>
      </trkpt>
      <trkpt lat="47.27772" lon="-1.6935">
        <ele>53.6</ele>
        <time>2020-06-07T14:07:16Z</time>
      </trkpt>
      <trkpt lat="47.27772" lon="-1.69351">
        <ele>53.7</ele>
        <time>2020-06-07T14:07:17Z</time>
      </trkpt>
      <trkpt lat="47.27772" lon="-1.69353">
        <ele>53.8</ele>
        <time>2020-06-07T14:07:18Z</time>
      </trkpt>
      <trkpt lat="47.27772" lon="-1.69354">
        <ele>53.9</ele>
        <time>2020-06-07T14:07:19Z</time>
      </trkpt>
      <trkpt lat="47.27771" lon="-1.69356">
        <ele>54</ele>
        <time>2020-06-07T14:07:20Z</time>
      </trkpt>
      <trkpt lat="47.27771" lon="-1.69358">
        <ele>54.1</ele>
        <time>2020-06-07T14:07:21Z</time>
      </trkpt>
      <trkpt lat="47.27771" lon="-1.69359">
        <ele>54.1</ele>
        <time>2020-06-07T14:07:22Z</time>
      </trkpt>
      <trkpt lat="47.27771" lon="-1.6936">
        <ele>54.2</ele>
        <time>2020-06-07T14:07:23Z</time>
      </trkpt>
      <trkpt lat="47.27771" lon="-1.69361">
        <ele>54.2</ele>
        <time>2020-06-07T14:07:24Z</time>
      </trkpt>
      <trkpt lat="47.27772" lon="-1.69363">
        <ele>54.3</ele>
        <time>2020-06-07T14:07:25Z</time>
      </trkpt>
      <trkpt lat="47.27772" lon="-1.69364">
        <ele>54.4</ele>
        <time>2020-06-07T14:07:26Z</time>
      </trkpt>
      <trkpt lat="47.27772" lon="-1.69365">
        <ele>54.4</ele>
        <time>2020-06-07T14:07:27Z</time>
      </trkpt>
      <trkpt lat="47.27773" lon="-1.69367">
        <ele>54.5</ele>
        <time>2020-06-07T14:07:28Z</time>
      </trkpt>
      <trkpt lat="47.27773" lon="-1.69368">
        <ele>54.6</ele>
        <time>2020-06-07T14:07:29Z</time>
      </trkpt>
      <trkpt lat="47.27774" lon="-1.6937">
        <ele>54.7</ele>
        <time>2020-06-07T14:07:30Z</time>
      </trkpt>
      <trkpt lat="47.27774" lon="-1.69371">
        <ele>54.7</ele>
        <time>2020-06-07T14:07:31Z</time>
      </trkpt>
      <trkpt lat="47.27773" lon="-1.69372">
        <ele>54.8</ele>
        <time>2020-06-07T14:07:32Z</time>
      </trkpt>
      <trkpt lat="47.27773" lon="-1.69373">
        <ele>54.8</ele>
        <time>2020-06-07T14:07:33Z</time>
      </trkpt>
      <trkpt lat="47.27773" lon="-1.69375">
        <ele>54.9</ele>
        <time>2020-06-07T14:07:34Z</time>
      </trkpt>
      <trkpt lat="47.27773" lon="-1.69376">
        <ele>55</ele>
        <time>2020-06-07T14:07:35Z</time>
      </trkpt>
      <trkpt lat="47.27774" lon="-1.69378">
        <ele>55</ele>
        <time>2020-06-07T14:07:36Z</time>
      </trkpt>
      <trkpt lat="47.27774" lon="-1.6938">
        <ele>55.1</ele>
        <time>2020-06-07T14:07:37Z</time>
      </trkpt>
      <trkpt lat="47.27774" lon="-1.69381">
        <ele>55.2</ele>
        <time>2020-06-07T14:07:38Z</time>
      </trkpt>
      <trkpt lat="47.27775" lon="-1.69383">
        <ele>55.2</ele>
        <time>2020-06-07T14:07:39Z</time>
      </trkpt>
      <trkpt lat="47.27775" lon="-1.69384">
        <ele>55.3</ele>
        <time>2020-06-07T14:07:40Z</time>
      </trkpt>
      <trkpt lat="47.27775" lon="-1.69386">
        <ele>55.3</ele>
        <time>2020-06-07T14:07:41Z</time>
      </trkpt>
      <trkpt lat="47.27775" lon="-1.69388">
        <ele>55.4</ele>
        <time>2020-06-07T14:07:42Z</time>
      </trkpt>
      <trkpt lat="47.27774" lon="-1.6939">
        <ele>55.4</ele>
        <time>2020-06-07T14:07:43Z</time>
      </trkpt>
      <trkpt lat="47.27774" lon="-1.69391">
        <ele>55.5</ele>
        <time>2020-06-07T14:07:44Z</time>
      </trkpt>
      <trkpt lat="47.27774" lon="-1.69393">
        <ele>55.5</ele>
        <time>2020-06-07T14:07:45Z</time>
      </trkpt>
      <trkpt lat="47.27774" lon="-1.69394">
        <ele>55.6</ele>
        <time>2020-06-07T14:07:46Z</time>
      </trkpt>
      <trkpt lat="47.27775" lon="-1.69396">
        <ele>55.7</ele>
        <time>2020-06-07T14:07:47Z</time>
      </trkpt>
      <trkpt lat="47.27775" lon="-1.69398">
        <ele>55.7</ele>
        <time>2020-06-07T14:07:48Z</time>
      </trkpt>
      <trkpt lat="47.27776" lon="-1.69401">
        <ele>55.8</ele>
        <time>2020-06-07T14:07:49Z</time>
      </trkpt>
      <trkpt lat="47.27776" lon="-1.69402">
        <ele>55.8</ele>
        <time>2020-06-07T14:07:50Z</time>
      </trkpt>
      <trkpt lat="47.27776" lon="-1.69403">
        <ele>55.9</ele>
        <time>2020-06-07T14:07:51Z</time>
      </trkpt>
      <trkpt lat="47.27777" lon="-1.69405">
        <ele>55.9</ele>
        <time>2020-06-07T14:07:52Z</time>
      </trkpt>
      <trkpt lat="47.27777" lon="-1.69407">
        <ele>56</ele>
        <time>2020-06-07T14:07:53Z</time>
      </trkpt>
      <trkpt lat="47.27777" lon="-1.69409">
        <ele>56</ele>
        <time>2020-06-07T14:07:54Z</time>
      </trkpt>
      <trkpt lat="47.27776" lon="-1.6941">
        <ele>56.1</ele>
        <time>2020-06-07T14:07:55Z</time>
      </trkpt>
      <trkpt lat="47.27776" lon="-1.69412">
        <ele>56.1</ele>
        <time>2020-06-07T14:07:56Z</time>
      </trkpt>
      <trkpt lat="47.27776" lon="-1.69414">
        <ele>56.2</ele>
        <time>2020-06-07T14:07:57Z</time>
      </trkpt>
      <trkpt lat="47.27775" lon="-1.69416">
        <ele>56.2</ele>
        <time>2020-06-07T14:07:58Z</time>
      </trkpt>
      <trkpt lat="47.27775" lon="-1.69418">
        <ele>56.3</ele>
        <time>2020-06-07T14:07:59Z</time>
      </trkpt>
      <trkpt lat="47.27775" lon="-1.69419">
        <ele>56.3</ele>
        <time>2020-06-07T14:08:00Z</time>
      </trkpt>
      <trkpt lat="47.27775" lon="-1.69421">
        <ele>56.4</ele>
        <time>2020-06-07T14:08:01Z</time>
      </trkpt>
      <trkpt lat="47.27775" lon="-1.69422">
        <ele>56.4</ele>
        <time>2020-06-07T14:08:02Z</time>
      </trkpt>
      <trkpt lat="47.27775" lon="-1.69423">
        <ele>56.4</ele>
        <time>2020-06-07T14:08:03Z</time>
      </trkpt>
      <trkpt lat="47.27774" lon="-1.69424">
        <ele>56.5</ele>
        <time>2020-06-07T14:08:04Z</time>
      </trkpt>
      <trkpt lat="47.27774" lon="-1.69426">
        <ele>56.5</ele>
        <time>2020-06-07T14:08:05Z</time>
      </trkpt>
      <trkpt lat="47.27773" lon="-1.69429">
        <ele>56.6</ele>
        <time>2020-06-07T14:08:06Z</time>
      </trkpt>
      <trkpt lat="47.27773" lon="-1.6943">
        <ele>56.7</ele>
        <time>2020-06-07T14:08:07Z</time>
      </trkpt>
      <trkpt lat="47.27773" lon="-1.69432">
        <ele>56.7</ele>
        <time>2020-06-07T14:08:08Z</time>
      </trkpt>
      <trkpt lat="47.27773" lon="-1.69434">
        <ele>56.8</ele>
        <time>2020-06-07T14:08:09Z</time>
      </trkpt>
      <trkpt lat="47.27772" lon="-1.69436">
        <ele>56.8</ele>
        <time>2020-06-07T14:08:10Z</time>
      </trkpt>
      <trkpt lat="47.27773" lon="-1.69439">
        <ele>56.9</ele>
        <time>2020-06-07T14:08:11Z</time>
      </trkpt>
      <trkpt lat="47.27773" lon="-1.6944">
        <ele>56.9</ele>
        <time>2020-06-07T14:08:12Z</time>
      </trkpt>
      <trkpt lat="47.27773" lon="-1.69441">
        <ele>57</ele>
        <time>2020-06-07T14:08:13Z</time>
      </trkpt>
      <trkpt lat="47.27773" lon="-1.69444">
        <ele>57.1</ele>
        <time>2020-06-07T14:08:14Z</time>
      </trkpt>
      <trkpt lat="47.27774" lon="-1.69446">
        <ele>57.1</ele>
        <time>2020-06-07T14:08:15Z</time>
      </trkpt>
      <trkpt lat="47.27774" lon="-1.69447">
        <ele>57.2</ele>
        <time>2020-06-07T14:08:16Z</time>
      </trkpt>
      <trkpt lat="47.27775" lon="-1.69451">
        <ele>57.3</ele>
        <time>2020-06-07T14:08:17Z</time>
      </trkpt>
      <trkpt lat="47.27775" lon="-1.69452">
        <ele>57.3</ele>
        <time>2020-06-07T14:08:18Z</time>
      </trkpt>
      <trkpt lat="47.27776" lon="-1.69454">
        <ele>57.4</ele>
        <time>2020-06-07T14:08:19Z</time>
      </trkpt>
      <trkpt lat="47.27776" lon="-1.69456">
        <ele>57.4</ele>
        <time>2020-06-07T14:08:20Z</time>
      </trkpt>
      <trkpt lat="47.27776" lon="-1.69458">
        <ele>57.5</ele>
        <time>2020-06-07T14:08:21Z</time>
      </trkpt>
      <trkpt lat="47.27776" lon="-1.6946">
        <ele>57.6</ele>
        <time>2020-06-07T14:08:22Z</time>
      </trkpt>
      <trkpt lat="47.27776" lon="-1.69461">
        <ele>57.6</ele>
        <time>2020-06-07T14:08:23Z</time>
      </trkpt>
      <trkpt lat="47.27775" lon="-1.69463">
        <ele>57.6</ele>
        <time>2020-06-07T14:08:24Z</time>
      </trkpt>
      <trkpt lat="47.27775" lon="-1.69464">
        <ele>57.7</ele>
        <time>2020-06-07T14:08:25Z</time>
      </trkpt>
      <trkpt lat="47.27775" lon="-1.69466">
        <ele>57.7</ele>
        <time>2020-06-07T14:08:26Z</time>
      </trkpt>
      <trkpt lat="47.27775" lon="-1.69467">
        <ele>57.8</ele>
        <time>2020-06-07T14:08:27Z</time>
      </trkpt>
      <trkpt lat="47.27776" lon="-1.69469">
        <ele>57.8</ele>
        <time>2020-06-07T14:08:28Z</time>
      </trkpt>
      <trkpt lat="47.27776" lon="-1.6947">
        <ele>57.9</ele>
        <time>2020-06-07T14:08:29Z</time>
      </trkpt>
      <trkpt lat="47.27776" lon="-1.69472">
        <ele>57.9</ele>
        <time>2020-06-07T14:08:30Z</time>
      </trkpt>
      <trkpt lat="47.27776" lon="-1.69474">
        <ele>57.9</ele>
        <time>2020-06-07T14:08:31Z</time>
      </trkpt>
      <trkpt lat="47.27776" lon="-1.69476">
        <ele>58</ele>
        <time>2020-06-07T14:08:32Z</time>
      </trkpt>
      <trkpt lat="47.27775" lon="-1.69477">
        <ele>58</ele>
        <time>2020-06-07T14:08:33Z</time>
      </trkpt>
      <trkpt lat="47.27775" lon="-1.69479">
        <ele>58.1</ele>
        <time>2020-06-07T14:08:34Z</time>
      </trkpt>
      <trkpt lat="47.27775" lon="-1.69481">
        <ele>58.1</ele>
        <time>2020-06-07T14:08:35Z</time>
      </trkpt>
      <trkpt lat="47.27775" lon="-1.69483">
        <ele>58.1</ele>
        <time>2020-06-07T14:08:36Z</time>
      </trkpt>
      <trkpt lat="47.27775" lon="-1.69484">
        <ele>58.2</ele>
        <time>2020-06-07T14:08:37Z</time>
      </trkpt>
      <trkpt lat="47.27776" lon="-1.69486">
        <ele>58.2</ele>
        <time>2020-06-07T14:08:38Z</time>
      </trkpt>
      <trkpt lat="47.27777" lon="-1.69489">
        <ele>58.3</ele>
        <time>2020-06-07T14:08:39Z</time>
      </trkpt>
      <trkpt lat="47.27777" lon="-1.6949">
        <ele>58.3</ele>
        <time>2020-06-07T14:08:40Z</time>
      </trkpt>
      <trkpt lat="47.27778" lon="-1.69491">
        <ele>58.3</ele>
        <time>2020-06-07T14:08:41Z</time>
      </trkpt>
      <trkpt lat="47.27778" lon="-1.69492">
        <ele>58.3</ele>
        <time>2020-06-07T14:08:42Z</time>
      </trkpt>
      <trkpt lat="47.27778" lon="-1.69494">
        <ele>58.3</ele>
        <time>2020-06-07T14:08:43Z</time>
      </trkpt>
      <trkpt lat="47.27777" lon="-1.69496">
        <ele>58.4</ele>
        <time>2020-06-07T14:08:44Z</time>
      </trkpt>
      <trkpt lat="47.27777" lon="-1.69497">
        <ele>58.4</ele>
        <time>2020-06-07T14:08:45Z</time>
      </trkpt>
      <trkpt lat="47.27777" lon="-1.69499">
        <ele>58.4</ele>
        <time>2020-06-07T14:08:46Z</time>
      </trkpt>
      <trkpt lat="47.27777" lon="-1.69501">
        <ele>58.5</ele>
        <time>2020-06-07T14:08:47Z</time>
      </trkpt>
      <trkpt lat="47.27777" lon="-1.69502">
        <ele>58.5</ele>
        <time>2020-06-07T14:08:48Z</time>
      </trkpt>
      <trkpt lat="47.27777" lon="-1.69504">
        <ele>58.5</ele>
        <time>2020-06-07T14:08:49Z</time>
      </trkpt>
      <trkpt lat="47.27777" lon="-1.69506">
        <ele>58.5</ele>
        <time>2020-06-07T14:08:50Z</time>
      </trkpt>
      <trkpt lat="47.27777" lon="-1.69507">
        <ele>58.6</ele>
        <time>2020-06-07T14:08:51Z</time>
      </trkpt>
      <trkpt lat="47.27777" lon="-1.69509">
        <ele>58.6</ele>
        <time>2020-06-07T14:08:52Z</time>
      </trkpt>
      <trkpt lat="47.27777" lon="-1.69511">
        <ele>58.6</ele>
        <time>2020-06-07T14:08:53Z</time>
      </trkpt>
      <trkpt lat="47.27777" lon="-1.69512">
        <ele>58.6</ele>
        <time>2020-06-07T14:08:54Z</time>
      </trkpt>
      <trkpt lat="47.27777" lon="-1.69514">
        <ele>58.6</ele>
        <time>2020-06-07T14:08:55Z</time>
      </trkpt>
      <trkpt lat="47.27777" lon="-1.69516">
        <ele>58.7</ele>
        <time>2020-06-07T14:08:56Z</time>
      </trkpt>
      <trkpt lat="47.27777" lon="-1.69517">
        <ele>58.7</ele>
        <time>2020-06-07T14:08:57Z</time>
      </trkpt>
      <trkpt lat="47.27777" lon="-1.69519">
        <ele>58.7</ele>
        <time>2020-06-07T14:08:58Z</time>
      </trkpt>
      <trkpt lat="47.27777" lon="-1.69521">
        <ele>58.8</ele>
        <time>2020-06-07T14:08:59Z</time>
      </trkpt>
      <trkpt lat="47.27777" lon="-1.69522">
        <ele>58.8</ele>
        <time>2020-06-07T14:09:00Z</time>
      </trkpt>
      <trkpt lat="47.27777" lon="-1.69524">
        <ele>58.8</ele>
        <time>2020-06-07T14:09:01Z</time>
      </trkpt>
      <trkpt lat="47.27777" lon="-1.69525">
        <ele>58.9</ele>
        <time>2020-06-07T14:09:02Z</time>
      </trkpt>
      <trkpt lat="47.27777" lon="-1.69527">
        <ele>58.9</ele>
        <time>2020-06-07T14:09:03Z</time>
      </trkpt>
      <trkpt lat="47.27778" lon="-1.69529">
        <ele>58.9</ele>
        <time>2020-06-07T14:09:04Z</time>
      </trkpt>
      <trkpt lat="47.27778" lon="-1.6953">
        <ele>59</ele>
        <time>2020-06-07T14:09:05Z</time>
      </trkpt>
      <trkpt lat="47.27778" lon="-1.69532">
        <ele>59</ele>
        <time>2020-06-07T14:09:06Z</time>
      </trkpt>
      <trkpt lat="47.27778" lon="-1.69534">
        <ele>59</ele>
        <time>2020-06-07T14:09:07Z</time>
      </trkpt>
      <trkpt lat="47.27778" lon="-1.69535">
        <ele>59.1</ele>
        <time>2020-06-07T14:09:08Z</time>
      </trkpt>
      <trkpt lat="47.27778" lon="-1.69537">
        <ele>59.1</ele>
        <time>2020-06-07T14:09:09Z</time>
      </trkpt>
      <trkpt lat="47.27778" lon="-1.69539">
        <ele>59.1</ele>
        <time>2020-06-07T14:09:10Z</time>
      </trkpt>
      <trkpt lat="47.27778" lon="-1.6954">
        <ele>59.2</ele>
        <time>2020-06-07T14:09:11Z</time>
      </trkpt>
      <trkpt lat="47.27778" lon="-1.69542">
        <ele>59.2</ele>
        <time>2020-06-07T14:09:12Z</time>
      </trkpt>
      <trkpt lat="47.27778" lon="-1.69543">
        <ele>59.2</ele>
        <time>2020-06-07T14:09:13Z</time>
      </trkpt>
      <trkpt lat="47.27778" lon="-1.69544">
        <ele>59.3</ele>
        <time>2020-06-07T14:09:14Z</time>
      </trkpt>
      <trkpt lat="47.27777" lon="-1.69545">
        <ele>59.3</ele>
        <time>2020-06-07T14:09:15Z</time>
      </trkpt>
      <trkpt lat="47.27777" lon="-1.69547">
        <ele>59.3</ele>
        <time>2020-06-07T14:09:16Z</time>
      </trkpt>
      <trkpt lat="47.27778" lon="-1.69549">
        <ele>59.3</ele>
        <time>2020-06-07T14:09:17Z</time>
      </trkpt>
      <trkpt lat="47.27778" lon="-1.6955">
        <ele>59.4</ele>
        <time>2020-06-07T14:09:18Z</time>
      </trkpt>
      <trkpt lat="47.27778" lon="-1.69552">
        <ele>59.4</ele>
        <time>2020-06-07T14:09:19Z</time>
      </trkpt>
      <trkpt lat="47.27778" lon="-1.69553">
        <ele>59.4</ele>
        <time>2020-06-07T14:09:20Z</time>
      </trkpt>
      <trkpt lat="47.27778" lon="-1.69555">
        <ele>59.4</ele>
        <time>2020-06-07T14:09:21Z</time>
      </trkpt>
      <trkpt lat="47.27778" lon="-1.69558">
        <ele>59.5</ele>
        <time>2020-06-07T14:09:22Z</time>
      </trkpt>
      <trkpt lat="47.27779" lon="-1.69559">
        <ele>59.5</ele>
        <time>2020-06-07T14:09:23Z</time>
      </trkpt>
      <trkpt lat="47.27779" lon="-1.6956">
        <ele>59.5</ele>
        <time>2020-06-07T14:09:24Z</time>
      </trkpt>
      <trkpt lat="47.27779" lon="-1.69562">
        <ele>59.5</ele>
        <time>2020-06-07T14:09:25Z</time>
      </trkpt>
      <trkpt lat="47.2778" lon="-1.69564">
        <ele>59.6</ele>
        <time>2020-06-07T14:09:26Z</time>
      </trkpt>
      <trkpt lat="47.2778" lon="-1.69566">
        <ele>59.6</ele>
        <time>2020-06-07T14:09:27Z</time>
      </trkpt>
      <trkpt lat="47.2778" lon="-1.69567">
        <ele>59.6</ele>
        <time>2020-06-07T14:09:28Z</time>
      </trkpt>
      <trkpt lat="47.2778" lon="-1.69568">
        <ele>59.6</ele>
        <time>2020-06-07T14:09:29Z</time>
      </trkpt>
      <trkpt lat="47.27781" lon="-1.69571">
        <ele>59.7</ele>
        <time>2020-06-07T14:09:30Z</time>
      </trkpt>
      <trkpt lat="47.27781" lon="-1.69572">
        <ele>59.7</ele>
        <time>2020-06-07T14:09:31Z</time>
      </trkpt>
      <trkpt lat="47.27782" lon="-1.69573">
        <ele>59.7</ele>
        <time>2020-06-07T14:09:32Z</time>
      </trkpt>
      <trkpt lat="47.27782" lon="-1.69575">
        <ele>59.7</ele>
        <time>2020-06-07T14:09:33Z</time>
      </trkpt>
      <trkpt lat="47.27782" lon="-1.69577">
        <ele>59.7</ele>
        <time>2020-06-07T14:09:34Z</time>
      </trkpt>
      <trkpt lat="47.27782" lon="-1.69579">
        <ele>59.7</ele>
        <time>2020-06-07T14:09:35Z</time>
      </trkpt>
      <trkpt lat="47.27783" lon="-1.6958">
        <ele>59.8</ele>
        <time>2020-06-07T14:09:36Z</time>
      </trkpt>
      <trkpt lat="47.27783" lon="-1.69582">
        <ele>59.8</ele>
        <time>2020-06-07T14:09:37Z</time>
      </trkpt>
      <trkpt lat="47.27784" lon="-1.69584">
        <ele>59.8</ele>
        <time>2020-06-07T14:09:38Z</time>
      </trkpt>
      <trkpt lat="47.27784" lon="-1.69585">
        <ele>59.8</ele>
        <time>2020-06-07T14:09:39Z</time>
      </trkpt>
      <trkpt lat="47.27784" lon="-1.69587">
        <ele>59.9</ele>
        <time>2020-06-07T14:09:40Z</time>
      </trkpt>
      <trkpt lat="47.27784" lon="-1.69589">
        <ele>59.9</ele>
        <time>2020-06-07T14:09:41Z</time>
      </trkpt>
      <trkpt lat="47.27784" lon="-1.6959">
        <ele>59.9</ele>
        <time>2020-06-07T14:09:42Z</time>
      </trkpt>
      <trkpt lat="47.27784" lon="-1.69592">
        <ele>59.9</ele>
        <time>2020-06-07T14:09:43Z</time>
      </trkpt>
      <trkpt lat="47.27784" lon="-1.69593">
        <ele>59.9</ele>
        <time>2020-06-07T14:09:44Z</time>
      </trkpt>
      <trkpt lat="47.27785" lon="-1.69594">
        <ele>60</ele>
        <time>2020-06-07T14:09:45Z</time>
      </trkpt>
      <trkpt lat="47.27786" lon="-1.69595">
        <ele>60</ele>
        <time>2020-06-07T14:09:46Z</time>
      </trkpt>
      <trkpt lat="47.27786" lon="-1.69597">
        <ele>60</ele>
        <time>2020-06-07T14:09:47Z</time>
      </trkpt>
      <trkpt lat="47.27786" lon="-1.69598">
        <ele>60</ele>
        <time>2020-06-07T14:09:48Z</time>
      </trkpt>
      <trkpt lat="47.27786" lon="-1.696">
        <ele>60.1</ele>
        <time>2020-06-07T14:09:49Z</time>
      </trkpt>
      <trkpt lat="47.27786" lon="-1.69601">
        <ele>60.1</ele>
        <time>2020-06-07T14:09:50Z</time>
      </trkpt>
      <trkpt lat="47.27787" lon="-1.69604">
        <ele>60.1</ele>
        <time>2020-06-07T14:09:51Z</time>
      </trkpt>
      <trkpt lat="47.27787" lon="-1.69605">
        <ele>60.1</ele>
        <time>2020-06-07T14:09:52Z</time>
      </trkpt>
      <trkpt lat="47.27788" lon="-1.69606">
        <ele>60.2</ele>
        <time>2020-06-07T14:09:53Z</time>
      </trkpt>
      <trkpt lat="47.27788" lon="-1.69608">
        <ele>60.2</ele>
        <time>2020-06-07T14:09:54Z</time>
      </trkpt>
      <trkpt lat="47.27789" lon="-1.6961">
        <ele>60.2</ele>
        <time>2020-06-07T14:09:55Z</time>
      </trkpt>
      <trkpt lat="47.27789" lon="-1.69611">
        <ele>60.2</ele>
        <time>2020-06-07T14:09:56Z</time>
      </trkpt>
      <trkpt lat="47.2779" lon="-1.69612">
        <ele>60.2</ele>
        <time>2020-06-07T14:09:57Z</time>
      </trkpt>
      <trkpt lat="47.2779" lon="-1.69614">
        <ele>60.3</ele>
        <time>2020-06-07T14:09:58Z</time>
      </trkpt>
      <trkpt lat="47.2779" lon="-1.69615">
        <ele>60.3</ele>
        <time>2020-06-07T14:09:59Z</time>
      </trkpt>
      <trkpt lat="47.2779" lon="-1.69617">
        <ele>60.3</ele>
        <time>2020-06-07T14:10:00Z</time>
      </trkpt>
      <trkpt lat="47.2779" lon="-1.69618">
        <ele>60.3</ele>
        <time>2020-06-07T14:10:01Z</time>
      </trkpt>
      <trkpt lat="47.2779" lon="-1.69619">
        <ele>60.3</ele>
        <time>2020-06-07T14:10:02Z</time>
      </trkpt>
      <trkpt lat="47.2779" lon="-1.6962">
        <ele>60.4</ele>
        <time>2020-06-07T14:10:03Z</time>
      </trkpt>
      <trkpt lat="47.2779" lon="-1.69622">
        <ele>60.4</ele>
        <time>2020-06-07T14:10:04Z</time>
      </trkpt>
      <trkpt lat="47.2779" lon="-1.69623">
        <ele>60.4</ele>
        <time>2020-06-07T14:10:05Z</time>
      </trkpt>
      <trkpt lat="47.27791" lon="-1.69624">
        <ele>60.4</ele>
        <time>2020-06-07T14:10:06Z</time>
      </trkpt>
      <trkpt lat="47.27791" lon="-1.69625">
        <ele>60.5</ele>
        <time>2020-06-07T14:10:07Z</time>
      </trkpt>
      <trkpt lat="47.27792" lon="-1.69626">
        <ele>60.5</ele>
        <time>2020-06-07T14:10:08Z</time>
      </trkpt>
      <trkpt lat="47.27792" lon="-1.69628">
        <ele>60.5</ele>
        <time>2020-06-07T14:10:09Z</time>
      </trkpt>
      <trkpt lat="47.27794" lon="-1.6963">
        <ele>60.6</ele>
        <time>2020-06-07T14:10:10Z</time>
      </trkpt>
      <trkpt lat="47.27795" lon="-1.6963">
        <ele>60.6</ele>
        <time>2020-06-07T14:10:11Z</time>
      </trkpt>
      <trkpt lat="47.27795" lon="-1.69631">
        <ele>60.6</ele>
        <time>2020-06-07T14:10:12Z</time>
      </trkpt>
      <trkpt lat="47.27796" lon="-1.69632">
        <ele>60.7</ele>
        <time>2020-06-07T14:10:13Z</time>
      </trkpt>
      <trkpt lat="47.27797" lon="-1.69634">
        <ele>60.7</ele>
        <time>2020-06-07T14:10:14Z</time>
      </trkpt>
      <trkpt lat="47.27797" lon="-1.69635">
        <ele>60.7</ele>
        <time>2020-06-07T14:10:15Z</time>
      </trkpt>
      <trkpt lat="47.27797" lon="-1.69636">
        <ele>60.8</ele>
        <time>2020-06-07T14:10:16Z</time>
      </trkpt>
      <trkpt lat="47.27798" lon="-1.69638">
        <ele>60.8</ele>
        <time>2020-06-07T14:10:17Z</time>
      </trkpt>
      <trkpt lat="47.27798" lon="-1.69638">
        <ele>60.8</ele>
        <time>2020-06-07T14:10:18Z</time>
      </trkpt>
      <trkpt lat="47.27799" lon="-1.69639">
        <ele>60.9</ele>
        <time>2020-06-07T14:10:19Z</time>
      </trkpt>
      <trkpt lat="47.27799" lon="-1.69641">
        <ele>60.9</ele>
        <time>2020-06-07T14:10:20Z</time>
      </trkpt>
      <trkpt lat="47.27799" lon="-1.69643">
        <ele>60.9</ele>
        <time>2020-06-07T14:10:21Z</time>
      </trkpt>
      <trkpt lat="47.27799" lon="-1.69646">
        <ele>61</ele>
        <time>2020-06-07T14:10:22Z</time>
      </trkpt>
      <trkpt lat="47.27799" lon="-1.69647">
        <ele>61.1</ele>
        <time>2020-06-07T14:10:23Z</time>
      </trkpt>
      <trkpt lat="47.27799" lon="-1.69649">
        <ele>61.2</ele>
        <time>2020-06-07T14:10:24Z</time>
      </trkpt>
      <trkpt lat="47.27799" lon="-1.6965">
        <ele>61.2</ele>
        <time>2020-06-07T14:10:25Z</time>
      </trkpt>
      <trkpt lat="47.27799" lon="-1.69652">
        <ele>61.2</ele>
        <time>2020-06-07T14:10:26Z</time>
      </trkpt>
      <trkpt lat="47.27799" lon="-1.69653">
        <ele>61.2</ele>
        <time>2020-06-07T14:10:27Z</time>
      </trkpt>
      <trkpt lat="47.27799" lon="-1.69656">
        <ele>61.3</ele>
        <time>2020-06-07T14:10:28Z</time>
      </trkpt>
      <trkpt lat="47.278" lon="-1.69657">
        <ele>61.3</ele>
        <time>2020-06-07T14:10:29Z</time>
      </trkpt>
      <trkpt lat="47.278" lon="-1.69659">
        <ele>61.4</ele>
        <time>2020-06-07T14:10:30Z</time>
      </trkpt>
      <trkpt lat="47.278" lon="-1.6966">
        <ele>61.4</ele>
        <time>2020-06-07T14:10:31Z</time>
      </trkpt>
      <trkpt lat="47.27801" lon="-1.69662">
        <ele>61.4</ele>
        <time>2020-06-07T14:10:32Z</time>
      </trkpt>
      <trkpt lat="47.27801" lon="-1.69663">
        <ele>61.5</ele>
        <time>2020-06-07T14:10:33Z</time>
      </trkpt>
      <trkpt lat="47.27802" lon="-1.69665">
        <ele>61.5</ele>
        <time>2020-06-07T14:10:34Z</time>
      </trkpt>
      <trkpt lat="47.27802" lon="-1.69666">
        <ele>61.6</ele>
        <time>2020-06-07T14:10:35Z</time>
      </trkpt>
      <trkpt lat="47.27803" lon="-1.69668">
        <ele>61.6</ele>
        <time>2020-06-07T14:10:36Z</time>
      </trkpt>
      <trkpt lat="47.27803" lon="-1.6967">
        <ele>61.7</ele>
        <time>2020-06-07T14:10:37Z</time>
      </trkpt>
      <trkpt lat="47.27803" lon="-1.69671">
        <ele>61.7</ele>
        <time>2020-06-07T14:10:38Z</time>
      </trkpt>
      <trkpt lat="47.27804" lon="-1.69673">
        <ele>61.7</ele>
        <time>2020-06-07T14:10:39Z</time>
      </trkpt>
      <trkpt lat="47.27804" lon="-1.69674">
        <ele>61.8</ele>
        <time>2020-06-07T14:10:40Z</time>
      </trkpt>
      <trkpt lat="47.27805" lon="-1.69676">
        <ele>61.8</ele>
        <time>2020-06-07T14:10:41Z</time>
      </trkpt>
      <trkpt lat="47.27806" lon="-1.69677">
        <ele>61.9</ele>
        <time>2020-06-07T14:10:42Z</time>
      </trkpt>
      <trkpt lat="47.27806" lon="-1.69678">
        <ele>61.9</ele>
        <time>2020-06-07T14:10:43Z</time>
      </trkpt>
      <trkpt lat="47.27806" lon="-1.6968">
        <ele>62</ele>
        <time>2020-06-07T14:10:44Z</time>
      </trkpt>
      <trkpt lat="47.27807" lon="-1.69682">
        <ele>62</ele>
        <time>2020-06-07T14:10:45Z</time>
      </trkpt>
      <trkpt lat="47.27807" lon="-1.69683">
        <ele>62</ele>
        <time>2020-06-07T14:10:46Z</time>
      </trkpt>
      <trkpt lat="47.27807" lon="-1.69684">
        <ele>62.1</ele>
        <time>2020-06-07T14:10:47Z</time>
      </trkpt>
      <trkpt lat="47.27808" lon="-1.69686">
        <ele>62.1</ele>
        <time>2020-06-07T14:10:48Z</time>
      </trkpt>
      <trkpt lat="47.27809" lon="-1.69687">
        <ele>62.2</ele>
        <time>2020-06-07T14:10:49Z</time>
      </trkpt>
      <trkpt lat="47.27809" lon="-1.69688">
        <ele>62.2</ele>
        <time>2020-06-07T14:10:50Z</time>
      </trkpt>
      <trkpt lat="47.2781" lon="-1.69688">
        <ele>62.2</ele>
        <time>2020-06-07T14:10:51Z</time>
      </trkpt>
      <trkpt lat="47.27812" lon="-1.69689">
        <ele>62.2</ele>
        <time>2020-06-07T14:10:52Z</time>
      </trkpt>
      <trkpt lat="47.27813" lon="-1.69689">
        <ele>62.2</ele>
        <time>2020-06-07T14:10:53Z</time>
      </trkpt>
      <trkpt lat="47.27814" lon="-1.69689">
        <ele>62.2</ele>
        <time>2020-06-07T14:10:54Z</time>
      </trkpt>
      <trkpt lat="47.27816" lon="-1.69688">
        <ele>62.2</ele>
        <time>2020-06-07T14:10:55Z</time>
      </trkpt>
    </trkseg>
  </trk>
</gpx>